<?xml version='1.0' encoding='UTF-8'?><gpx version="1.1" creator="JPX - https://github.com/jenetics/jpx" xmlns="http://www.topografix.com/GPX/1/1"><trk><trkseg><trkpt lat="44.4554567" lon="11.11981"><ele>146.0</ele><time>2026-05-01T06:59:55.66Z</time></trkpt><trkpt lat="44.45541" lon="11.1196867"><ele>146.0</ele><time>2026-05-01T07:00:19.66Z</time></trkpt><trkpt lat="44.455365" lon="11.1196183"><ele>146.0</ele><time>2026-05-01T07:00:21.657Z</time></trkpt><trkpt lat="44.45531" lon="11.1195683"><ele>146.0</ele><time>2026-05-01T07:00:24.666Z</time></trkpt><trkpt lat="44.4552067" lon="11.1195333"><ele>146.0</ele><time>2026-05-01T07:00:26.66Z</time></trkpt><trkpt lat="44.4551333" lon="11.1195217"><ele>146.0</ele><time>2026-05-01T07:00:27.659Z</time></trkpt><trkpt lat="44.4550433" lon="11.1195183"><ele>146.0</ele><time>2026-05-01T07:00:28.657Z</time></trkpt><trkpt lat="44.4549433" lon="11.119515"><ele>146.0</ele><time>2026-05-01T07:00:29.658Z</time></trkpt><trkpt lat="44.45483" lon="11.1195183"><ele>146.0</ele><time>2026-05-01T07:00:30.655Z</time></trkpt><trkpt lat="44.454705" lon="11.1195217"><ele>146.0</ele><time>2026-05-01T07:00:31.657Z</time></trkpt><trkpt lat="44.4545717" lon="11.1195233"><ele>145.75</ele><time>2026-05-01T07:00:32.657Z</time></trkpt><trkpt lat="44.45443" lon="11.1195267"><ele>145.5</ele><time>2026-05-01T07:00:33.661Z</time></trkpt><trkpt lat="44.4542817" lon="11.11953"><ele>145.25</ele><time>2026-05-01T07:00:34.661Z</time></trkpt><trkpt lat="44.454135" lon="11.119535"><ele>145.0</ele><time>2026-05-01T07:00:35.659Z</time></trkpt><trkpt lat="44.4539833" lon="11.1195383"><ele>145.0</ele><time>2026-05-01T07:00:36.662Z</time></trkpt><trkpt lat="44.45383" lon="11.11954"><ele>145.0</ele><time>2026-05-01T07:00:37.661Z</time></trkpt><trkpt lat="44.4536733" lon="11.1195417"><ele>145.0</ele><time>2026-05-01T07:00:38.659Z</time></trkpt><trkpt lat="44.4535167" lon="11.1195433"><ele>145.33333333333334</ele><time>2026-05-01T07:00:39.66Z</time></trkpt><trkpt lat="44.45336" lon="11.119545"><ele>145.66666666666666</ele><time>2026-05-01T07:00:40.655Z</time></trkpt><trkpt lat="44.4532017" lon="11.1195467"><ele>146.0</ele><time>2026-05-01T07:00:41.662Z</time></trkpt><trkpt lat="44.4530433" lon="11.1195517"><ele>146.66666666666666</ele><time>2026-05-01T07:00:42.663Z</time></trkpt><trkpt lat="44.4528883" lon="11.1195583"><ele>147.33333333333334</ele><time>2026-05-01T07:00:43.662Z</time></trkpt><trkpt lat="44.4527383" lon="11.1195633"><ele>148.0</ele><time>2026-05-01T07:00:44.662Z</time></trkpt><trkpt lat="44.4525933" lon="11.11957"><ele>148.0</ele><time>2026-05-01T07:00:45.662Z</time></trkpt><trkpt lat="44.4524517" lon="11.1195783"><ele>148.0</ele><time>2026-05-01T07:00:46.659Z</time></trkpt><trkpt lat="44.4523083" lon="11.1195783"><ele>148.0</ele><time>2026-05-01T07:00:47.655Z</time></trkpt><trkpt lat="44.452165" lon="11.1195783"><ele>148.0</ele><time>2026-05-01T07:00:48.665Z</time></trkpt><trkpt lat="44.4520183" lon="11.1195817"><ele>148.33333333333334</ele><time>2026-05-01T07:00:49.661Z</time></trkpt><trkpt lat="44.4518667" lon="11.119585"><ele>148.66666666666666</ele><time>2026-05-01T07:00:50.656Z</time></trkpt><trkpt lat="44.45171" lon="11.11959"><ele>149.0</ele><time>2026-05-01T07:00:51.661Z</time></trkpt><trkpt lat="44.4515467" lon="11.1195917"><ele>149.0</ele><time>2026-05-01T07:00:52.66Z</time></trkpt><trkpt lat="44.4513817" lon="11.1195917"><ele>149.0</ele><time>2026-05-01T07:00:53.662Z</time></trkpt><trkpt lat="44.45122" lon="11.11959"><ele>149.0</ele><time>2026-05-01T07:00:54.66Z</time></trkpt><trkpt lat="44.4510583" lon="11.1195883"><ele>149.33333333333331</ele><time>2026-05-01T07:00:55.66Z</time></trkpt><trkpt lat="44.4508983" lon="11.1195883"><ele>149.66666666666666</ele><time>2026-05-01T07:00:56.663Z</time></trkpt><trkpt lat="44.450735" lon="11.11959"><ele>150.0</ele><time>2026-05-01T07:00:57.659Z</time></trkpt><trkpt lat="44.450575" lon="11.1195933"><ele>149.66666666666666</ele><time>2026-05-01T07:00:58.662Z</time></trkpt><trkpt lat="44.4504167" lon="11.1195983"><ele>149.33333333333331</ele><time>2026-05-01T07:00:59.659Z</time></trkpt><trkpt lat="44.4502567" lon="11.1196"><ele>149.0</ele><time>2026-05-01T07:01:00.658Z</time></trkpt><trkpt lat="44.4500983" lon="11.1196017"><ele>149.0</ele><time>2026-05-01T07:01:01.658Z</time></trkpt><trkpt lat="44.44994" lon="11.1196017"><ele>149.0</ele><time>2026-05-01T07:01:02.658Z</time></trkpt><trkpt lat="44.4497783" lon="11.1196017"><ele>149.0</ele><time>2026-05-01T07:01:03.662Z</time></trkpt><trkpt lat="44.4496167" lon="11.119605"><ele>149.66666666666666</ele><time>2026-05-01T07:01:04.658Z</time></trkpt><trkpt lat="44.449455" lon="11.11962"><ele>150.33333333333334</ele><time>2026-05-01T07:01:05.66Z</time></trkpt><trkpt lat="44.449295" lon="11.1196483"><ele>151.0</ele><time>2026-05-01T07:01:06.663Z</time></trkpt><trkpt lat="44.4491367" lon="11.1196883"><ele>151.0</ele><time>2026-05-01T07:01:07.663Z</time></trkpt><trkpt lat="44.44898" lon="11.11974"><ele>151.0</ele><time>2026-05-01T07:01:08.657Z</time></trkpt><trkpt lat="44.4488283" lon="11.1198"><ele>151.0</ele><time>2026-05-01T07:01:09.667Z</time></trkpt><trkpt lat="44.448675" lon="11.1198617"><ele>152.66666666666669</ele><time>2026-05-01T07:01:10.663Z</time></trkpt><trkpt lat="44.448525" lon="11.1199283"><ele>154.33333333333334</ele><time>2026-05-01T07:01:11.668Z</time></trkpt><trkpt lat="44.4483767" lon="11.1199967"><ele>156.0</ele><time>2026-05-01T07:01:12.659Z</time></trkpt><trkpt lat="44.4482267" lon="11.120055"><ele>156.0</ele><time>2026-05-01T07:01:13.66Z</time></trkpt><trkpt lat="44.4480783" lon="11.1201"><ele>156.0</ele><time>2026-05-01T07:01:14.665Z</time></trkpt><trkpt lat="44.4479283" lon="11.1201333"><ele>156.0</ele><time>2026-05-01T07:01:15.66Z</time></trkpt><trkpt lat="44.4477767" lon="11.1201517"><ele>156.66666666666666</ele><time>2026-05-01T07:01:16.661Z</time></trkpt><trkpt lat="44.4476183" lon="11.1201633"><ele>157.33333333333331</ele><time>2026-05-01T07:01:17.659Z</time></trkpt><trkpt lat="44.4474567" lon="11.120175"><ele>158.0</ele><time>2026-05-01T07:01:18.662Z</time></trkpt><trkpt lat="44.4472967" lon="11.12018"><ele>158.0</ele><time>2026-05-01T07:01:19.656Z</time></trkpt><trkpt lat="44.4471467" lon="11.1201683"><ele>158.0</ele><time>2026-05-01T07:01:20.662Z</time></trkpt><trkpt lat="44.447005" lon="11.12014"><ele>158.0</ele><time>2026-05-01T07:01:21.659Z</time></trkpt><trkpt lat="44.4468783" lon="11.1200883"><ele>158.0</ele><time>2026-05-01T07:01:22.659Z</time></trkpt><trkpt lat="44.4467583" lon="11.1200117"><ele>157.75</ele><time>2026-05-01T07:01:23.662Z</time></trkpt><trkpt lat="44.4466417" lon="11.1199133"><ele>157.5</ele><time>2026-05-01T07:01:24.661Z</time></trkpt><trkpt lat="44.446525" lon="11.1197967"><ele>157.25</ele><time>2026-05-01T07:01:25.655Z</time></trkpt><trkpt lat="44.4464067" lon="11.1196717"><ele>157.0</ele><time>2026-05-01T07:01:26.658Z</time></trkpt><trkpt lat="44.446285" lon="11.119545"><ele>160.66666666666669</ele><time>2026-05-01T07:01:27.66Z</time></trkpt><trkpt lat="44.4461617" lon="11.11942"><ele>164.33333333333334</ele><time>2026-05-01T07:01:28.659Z</time></trkpt><trkpt lat="44.4460383" lon="11.1192933"><ele>168.0</ele><time>2026-05-01T07:01:29.657Z</time></trkpt><trkpt lat="44.44591" lon="11.1191683"><ele>164.33333333333334</ele><time>2026-05-01T07:01:30.663Z</time></trkpt><trkpt lat="44.4457783" lon="11.1190533"><ele>160.66666666666669</ele><time>2026-05-01T07:01:31.66Z</time></trkpt><trkpt lat="44.4456417" lon="11.11895"><ele>157.0</ele><time>2026-05-01T07:01:32.656Z</time></trkpt><trkpt lat="44.4454967" lon="11.11886"><ele>158.33333333333334</ele><time>2026-05-01T07:01:33.661Z</time></trkpt><trkpt lat="44.44535" lon="11.1187633"><ele>159.66666666666666</ele><time>2026-05-01T07:01:34.669Z</time></trkpt><trkpt lat="44.4452017" lon="11.1186617"><ele>161.0</ele><time>2026-05-01T07:01:35.659Z</time></trkpt><trkpt lat="44.44506" lon="11.118545"><ele>161.0</ele><time>2026-05-01T07:01:36.655Z</time></trkpt><trkpt lat="44.444925" lon="11.11844"><ele>161.0</ele><time>2026-05-01T07:01:37.663Z</time></trkpt><trkpt lat="44.444795" lon="11.11834"><ele>161.0</ele><time>2026-05-01T07:01:38.656Z</time></trkpt><trkpt lat="44.4446567" lon="11.11825"><ele>159.66666666666666</ele><time>2026-05-01T07:01:39.658Z</time></trkpt><trkpt lat="44.44451" lon="11.1181767"><ele>158.33333333333334</ele><time>2026-05-01T07:01:40.659Z</time></trkpt><trkpt lat="44.4443533" lon="11.1181233"><ele>157.0</ele><time>2026-05-01T07:01:41.661Z</time></trkpt><trkpt lat="44.4441883" lon="11.11809"><ele>157.0</ele><time>2026-05-01T07:01:42.662Z</time></trkpt><trkpt lat="44.4440167" lon="11.1180767"><ele>157.0</ele><time>2026-05-01T07:01:43.658Z</time></trkpt><trkpt lat="44.443845" lon="11.118065"><ele>157.0</ele><time>2026-05-01T07:01:44.667Z</time></trkpt><trkpt lat="44.4436717" lon="11.1180567"><ele>157.66666666666669</ele><time>2026-05-01T07:01:45.66Z</time></trkpt><trkpt lat="44.4434983" lon="11.11805"><ele>158.33333333333334</ele><time>2026-05-01T07:01:46.663Z</time></trkpt><trkpt lat="44.4433267" lon="11.1180433"><ele>159.0</ele><time>2026-05-01T07:01:47.66Z</time></trkpt><trkpt lat="44.4431583" lon="11.1180333"><ele>159.0</ele><time>2026-05-01T07:01:48.657Z</time></trkpt><trkpt lat="44.4429883" lon="11.1180217"><ele>159.0</ele><time>2026-05-01T07:01:49.662Z</time></trkpt><trkpt lat="44.4428167" lon="11.1180117"><ele>159.0</ele><time>2026-05-01T07:01:50.667Z</time></trkpt><trkpt lat="44.4426417" lon="11.1180033"><ele>159.0</ele><time>2026-05-01T07:01:51.658Z</time></trkpt><trkpt lat="44.4424617" lon="11.117995"><ele>159.0</ele><time>2026-05-01T07:01:52.664Z</time></trkpt><trkpt lat="44.44228" lon="11.1179883"><ele>159.0</ele><time>2026-05-01T07:01:53.661Z</time></trkpt><trkpt lat="44.4420967" lon="11.1179767"><ele>159.66666666666666</ele><time>2026-05-01T07:01:54.663Z</time></trkpt><trkpt lat="44.441915" lon="11.1179667"><ele>160.33333333333331</ele><time>2026-05-01T07:01:55.662Z</time></trkpt><trkpt lat="44.441735" lon="11.1179583"><ele>161.0</ele><time>2026-05-01T07:01:56.661Z</time></trkpt><trkpt lat="44.44156" lon="11.1179467"><ele>161.0</ele><time>2026-05-01T07:01:57.66Z</time></trkpt><trkpt lat="44.44139" lon="11.1179467"><ele>161.0</ele><time>2026-05-01T07:01:58.657Z</time></trkpt><trkpt lat="44.44122" lon="11.1179417"><ele>161.0</ele><time>2026-05-01T07:01:59.664Z</time></trkpt><trkpt lat="44.4410533" lon="11.1179367"><ele>161.0</ele><time>2026-05-01T07:02:00.661Z</time></trkpt><trkpt lat="44.440885" lon="11.1179267"><ele>161.0</ele><time>2026-05-01T07:02:01.662Z</time></trkpt><trkpt lat="44.4407183" lon="11.1179067"><ele>161.0</ele><time>2026-05-01T07:02:02.663Z</time></trkpt><trkpt lat="44.4405517" lon="11.11787"><ele>162.66666666666666</ele><time>2026-05-01T07:02:03.666Z</time></trkpt><trkpt lat="44.4403933" lon="11.1178133"><ele>164.33333333333334</ele><time>2026-05-01T07:02:04.66Z</time></trkpt><trkpt lat="44.4402383" lon="11.117735"><ele>166.0</ele><time>2026-05-01T07:02:05.661Z</time></trkpt><trkpt lat="44.4400817" lon="11.11765"><ele>166.0</ele><time>2026-05-01T07:02:06.659Z</time></trkpt><trkpt lat="44.4399267" lon="11.11757"><ele>166.0</ele><time>2026-05-01T07:02:07.657Z</time></trkpt><trkpt lat="44.4397633" lon="11.1174967"><ele>166.0</ele><time>2026-05-01T07:02:08.663Z</time></trkpt><trkpt lat="44.4395983" lon="11.11743"><ele>165.0</ele><time>2026-05-01T07:02:09.656Z</time></trkpt><trkpt lat="44.4394317" lon="11.1173667"><ele>164.0</ele><time>2026-05-01T07:02:10.658Z</time></trkpt><trkpt lat="44.43926" lon="11.117305"><ele>163.0</ele><time>2026-05-01T07:02:11.663Z</time></trkpt><trkpt lat="44.4390883" lon="11.1172467"><ele>163.0</ele><time>2026-05-01T07:02:12.662Z</time></trkpt><trkpt lat="44.4389233" lon="11.1171883"><ele>163.0</ele><time>2026-05-01T07:02:13.66Z</time></trkpt><trkpt lat="44.4387733" lon="11.1171367"><ele>163.0</ele><time>2026-05-01T07:02:14.663Z</time></trkpt><trkpt lat="44.4386383" lon="11.117095"><ele>163.60000000000002</ele><time>2026-05-01T07:02:15.66Z</time></trkpt><trkpt lat="44.438515" lon="11.11706"><ele>164.20000000000002</ele><time>2026-05-01T07:02:16.66Z</time></trkpt><trkpt lat="44.4384017" lon="11.1170283"><ele>164.8</ele><time>2026-05-01T07:02:17.656Z</time></trkpt><trkpt lat="44.4382967" lon="11.1170033"><ele>165.4</ele><time>2026-05-01T07:02:18.66Z</time></trkpt><trkpt lat="44.4382" lon="11.1169733"><ele>166.0</ele><time>2026-05-01T07:02:19.656Z</time></trkpt><trkpt lat="44.4381067" lon="11.116945"><ele>166.0</ele><time>2026-05-01T07:02:20.657Z</time></trkpt><trkpt lat="44.438025" lon="11.11689"><ele>166.0</ele><time>2026-05-01T07:02:21.659Z</time></trkpt><trkpt lat="44.4379567" lon="11.1168217"><ele>166.0</ele><time>2026-05-01T07:02:22.66Z</time></trkpt><trkpt lat="44.437915" lon="11.1167233"><ele>166.0</ele><time>2026-05-01T07:02:23.659Z</time></trkpt><trkpt lat="44.43788" lon="11.1166217"><ele>166.0</ele><time>2026-05-01T07:02:24.659Z</time></trkpt><trkpt lat="44.4379233" lon="11.1164483"><ele>166.0</ele><time>2026-05-01T07:02:25.658Z</time></trkpt><trkpt lat="44.437945" lon="11.1162733"><ele>166.0</ele><time>2026-05-01T07:02:26.659Z</time></trkpt><trkpt lat="44.43796" lon="11.1160967"><ele>166.0</ele><time>2026-05-01T07:02:27.66Z</time></trkpt><trkpt lat="44.43796" lon="11.1159117"><ele>166.0</ele><time>2026-05-01T07:02:28.659Z</time></trkpt><trkpt lat="44.4379417" lon="11.115725"><ele>166.0</ele><time>2026-05-01T07:02:29.659Z</time></trkpt><trkpt lat="44.43791" lon="11.115525"><ele>166.0</ele><time>2026-05-01T07:02:30.658Z</time></trkpt><trkpt lat="44.4378733" lon="11.115315"><ele>166.0</ele><time>2026-05-01T07:02:31.655Z</time></trkpt><trkpt lat="44.4378367" lon="11.1150983"><ele>166.33333333333334</ele><time>2026-05-01T07:02:32.662Z</time></trkpt><trkpt lat="44.4377983" lon="11.1148733"><ele>166.66666666666666</ele><time>2026-05-01T07:02:33.656Z</time></trkpt><trkpt lat="44.4377633" lon="11.114645"><ele>167.0</ele><time>2026-05-01T07:02:34.661Z</time></trkpt><trkpt lat="44.4377417" lon="11.1144217"><ele>167.0</ele><time>2026-05-01T07:02:35.658Z</time></trkpt><trkpt lat="44.4377283" lon="11.1142133"><ele>167.0</ele><time>2026-05-01T07:02:36.661Z</time></trkpt><trkpt lat="44.4377183" lon="11.11403"><ele>167.0</ele><time>2026-05-01T07:02:37.659Z</time></trkpt><trkpt lat="44.437705" lon="11.1138683"><ele>167.0</ele><time>2026-05-01T07:02:38.668Z</time></trkpt><trkpt lat="44.4376733" lon="11.1137233"><ele>168.0</ele><time>2026-05-01T07:02:39.661Z</time></trkpt><trkpt lat="44.43762" lon="11.1136033"><ele>169.0</ele><time>2026-05-01T07:02:40.66Z</time></trkpt><trkpt lat="44.437545" lon="11.1135233"><ele>170.0</ele><time>2026-05-01T07:02:41.655Z</time></trkpt><trkpt lat="44.4374533" lon="11.1134967"><ele>171.0</ele><time>2026-05-01T07:02:42.659Z</time></trkpt><trkpt lat="44.43735" lon="11.1135183"><ele>172.0</ele><time>2026-05-01T07:02:43.659Z</time></trkpt><trkpt lat="44.437245" lon="11.1135783"><ele>172.0</ele><time>2026-05-01T07:02:44.657Z</time></trkpt><trkpt lat="44.4371367" lon="11.1136483"><ele>172.0</ele><time>2026-05-01T07:02:45.664Z</time></trkpt><trkpt lat="44.4370217" lon="11.1137083"><ele>172.0</ele><time>2026-05-01T07:02:46.654Z</time></trkpt><trkpt lat="44.436895" lon="11.11375"><ele>172.0</ele><time>2026-05-01T07:02:47.661Z</time></trkpt><trkpt lat="44.4367583" lon="11.1137683"><ele>175.0</ele><time>2026-05-01T07:02:48.66Z</time></trkpt><trkpt lat="44.4366083" lon="11.11376"><ele>178.0</ele><time>2026-05-01T07:02:49.659Z</time></trkpt><trkpt lat="44.4364533" lon="11.1137483"><ele>181.0</ele><time>2026-05-01T07:02:50.657Z</time></trkpt><trkpt lat="44.436295" lon="11.1137367"><ele>182.25</ele><time>2026-05-01T07:02:51.655Z</time></trkpt><trkpt lat="44.4361367" lon="11.1137233"><ele>183.5</ele><time>2026-05-01T07:02:52.654Z</time></trkpt><trkpt lat="44.4359867" lon="11.11372"><ele>184.75</ele><time>2026-05-01T07:02:53.659Z</time></trkpt><trkpt lat="44.43585" lon="11.113705"><ele>186.0</ele><time>2026-05-01T07:02:54.66Z</time></trkpt><trkpt lat="44.4357267" lon="11.1136667"><ele>186.0</ele><time>2026-05-01T07:02:55.662Z</time></trkpt><trkpt lat="44.4356167" lon="11.1135917"><ele>186.0</ele><time>2026-05-01T07:02:56.66Z</time></trkpt><trkpt lat="44.43553" lon="11.1134833"><ele>186.0</ele><time>2026-05-01T07:02:57.66Z</time></trkpt><trkpt lat="44.43547" lon="11.11334"><ele>186.0</ele><time>2026-05-01T07:02:58.658Z</time></trkpt><trkpt lat="44.43545" lon="11.11318"><ele>188.5</ele><time>2026-05-01T07:02:59.661Z</time></trkpt><trkpt lat="44.4354583" lon="11.1130133"><ele>191.0</ele><time>2026-05-01T07:03:00.658Z</time></trkpt><trkpt lat="44.4354983" lon="11.1128517"><ele>193.5</ele><time>2026-05-01T07:03:01.655Z</time></trkpt><trkpt lat="44.4355717" lon="11.1127133"><ele>196.0</ele><time>2026-05-01T07:03:02.663Z</time></trkpt><trkpt lat="44.435665" lon="11.1125917"><ele>196.0</ele><time>2026-05-01T07:03:03.662Z</time></trkpt><trkpt lat="44.4357867" lon="11.11249"><ele>196.0</ele><time>2026-05-01T07:03:04.662Z</time></trkpt><trkpt lat="44.4359183" lon="11.112415"><ele>196.0</ele><time>2026-05-01T07:03:05.657Z</time></trkpt><trkpt lat="44.4360467" lon="11.11234"><ele>196.0</ele><time>2026-05-01T07:03:06.661Z</time></trkpt><trkpt lat="44.43617" lon="11.1122517"><ele>197.0</ele><time>2026-05-01T07:03:07.659Z</time></trkpt><trkpt lat="44.4362783" lon="11.112145"><ele>198.0</ele><time>2026-05-01T07:03:08.659Z</time></trkpt><trkpt lat="44.4363633" lon="11.112015"><ele>199.0</ele><time>2026-05-01T07:03:09.654Z</time></trkpt><trkpt lat="44.4364183" lon="11.1118533"><ele>200.0</ele><time>2026-05-01T07:03:10.67Z</time></trkpt><trkpt lat="44.436445" lon="11.1116733"><ele>201.0</ele><time>2026-05-01T07:03:11.657Z</time></trkpt><trkpt lat="44.4364433" lon="11.1114917"><ele>202.0</ele><time>2026-05-01T07:03:12.655Z</time></trkpt><trkpt lat="44.4364117" lon="11.1113"><ele>203.0</ele><time>2026-05-01T07:03:13.654Z</time></trkpt><trkpt lat="44.436365" lon="11.11112"><ele>204.0</ele><time>2026-05-01T07:03:14.663Z</time></trkpt><trkpt lat="44.4362983" lon="11.1109683"><ele>205.0</ele><time>2026-05-01T07:03:15.661Z</time></trkpt><trkpt lat="44.4362067" lon="11.1108467"><ele>206.0</ele><time>2026-05-01T07:03:16.657Z</time></trkpt><trkpt lat="44.4360933" lon="11.11077"><ele>207.0</ele><time>2026-05-01T07:03:17.659Z</time></trkpt><trkpt lat="44.435965" lon="11.1107333"><ele>208.0</ele><time>2026-05-01T07:03:18.659Z</time></trkpt><trkpt lat="44.435825" lon="11.1107167"><ele>209.5</ele><time>2026-05-01T07:03:19.66Z</time></trkpt><trkpt lat="44.4356817" lon="11.1107067"><ele>211.0</ele><time>2026-05-01T07:03:20.663Z</time></trkpt><trkpt lat="44.435545" lon="11.1106967"><ele>212.5</ele><time>2026-05-01T07:03:21.659Z</time></trkpt><trkpt lat="44.4354167" lon="11.1106667"><ele>214.0</ele><time>2026-05-01T07:03:22.657Z</time></trkpt><trkpt lat="44.435305" lon="11.1105917"><ele>216.25</ele><time>2026-05-01T07:03:23.656Z</time></trkpt><trkpt lat="44.4352183" lon="11.1104667"><ele>218.5</ele><time>2026-05-01T07:03:24.661Z</time></trkpt><trkpt lat="44.4351683" lon="11.1103067"><ele>220.75</ele><time>2026-05-01T07:03:25.66Z</time></trkpt><trkpt lat="44.4351633" lon="11.1101333"><ele>223.0</ele><time>2026-05-01T07:03:26.661Z</time></trkpt><trkpt lat="44.435205" lon="11.1099733"><ele>222.75</ele><time>2026-05-01T07:03:27.66Z</time></trkpt><trkpt lat="44.4352717" lon="11.10983"><ele>222.5</ele><time>2026-05-01T07:03:28.658Z</time></trkpt><trkpt lat="44.4353533" lon="11.109685"><ele>222.25</ele><time>2026-05-01T07:03:29.661Z</time></trkpt><trkpt lat="44.4354417" lon="11.1095283"><ele>222.0</ele><time>2026-05-01T07:03:30.659Z</time></trkpt><trkpt lat="44.4355283" lon="11.1093733"><ele>222.0</ele><time>2026-05-01T07:03:31.657Z</time></trkpt><trkpt lat="44.4355883" lon="11.10922"><ele>222.0</ele><time>2026-05-01T07:03:32.657Z</time></trkpt><trkpt lat="44.4356233" lon="11.1090817"><ele>222.0</ele><time>2026-05-01T07:03:33.659Z</time></trkpt><trkpt lat="44.435635" lon="11.1089633"><ele>222.0</ele><time>2026-05-01T07:03:34.662Z</time></trkpt><trkpt lat="44.43564" lon="11.108865"><ele>222.0</ele><time>2026-05-01T07:03:35.658Z</time></trkpt><trkpt lat="44.435675" lon="11.1087033"><ele>224.2</ele><time>2026-05-01T07:03:37.657Z</time></trkpt><trkpt lat="44.435715" lon="11.1086217"><ele>226.39999999999998</ele><time>2026-05-01T07:03:38.666Z</time></trkpt><trkpt lat="44.4357833" lon="11.1085367"><ele>228.60000000000002</ele><time>2026-05-01T07:03:39.66Z</time></trkpt><trkpt lat="44.43587" lon="11.1084483"><ele>230.8</ele><time>2026-05-01T07:03:40.658Z</time></trkpt><trkpt lat="44.4359667" lon="11.1083517"><ele>233.0</ele><time>2026-05-01T07:03:41.661Z</time></trkpt><trkpt lat="44.4360583" lon="11.1082467"><ele>232.75</ele><time>2026-05-01T07:03:42.656Z</time></trkpt><trkpt lat="44.43614" lon="11.10812"><ele>232.5</ele><time>2026-05-01T07:03:43.663Z</time></trkpt><trkpt lat="44.4362167" lon="11.1079767"><ele>232.25</ele><time>2026-05-01T07:03:44.656Z</time></trkpt><trkpt lat="44.4363067" lon="11.1078333"><ele>232.0</ele><time>2026-05-01T07:03:45.663Z</time></trkpt><trkpt lat="44.436415" lon="11.1076967"><ele>232.0</ele><time>2026-05-01T07:03:46.658Z</time></trkpt><trkpt lat="44.4365283" lon="11.1075583"><ele>232.0</ele><time>2026-05-01T07:03:47.659Z</time></trkpt><trkpt lat="44.4366433" lon="11.1074283"><ele>232.0</ele><time>2026-05-01T07:03:48.661Z</time></trkpt><trkpt lat="44.4367633" lon="11.107315"><ele>232.0</ele><time>2026-05-01T07:03:49.665Z</time></trkpt><trkpt lat="44.436905" lon="11.10724"><ele>227.66666666666666</ele><time>2026-05-01T07:03:50.662Z</time></trkpt><trkpt lat="44.4370533" lon="11.1071733"><ele>223.33333333333331</ele><time>2026-05-01T07:03:51.657Z</time></trkpt><trkpt lat="44.4372067" lon="11.107095"><ele>219.0</ele><time>2026-05-01T07:03:52.658Z</time></trkpt><trkpt lat="44.437365" lon="11.107"><ele>219.0</ele><time>2026-05-01T07:03:53.656Z</time></trkpt><trkpt lat="44.4375267" lon="11.1069033"><ele>219.0</ele><time>2026-05-01T07:03:54.664Z</time></trkpt><trkpt lat="44.437685" lon="11.10681"><ele>219.0</ele><time>2026-05-01T07:03:55.659Z</time></trkpt><trkpt lat="44.4378467" lon="11.106745"><ele>220.66666666666669</ele><time>2026-05-01T07:03:56.662Z</time></trkpt><trkpt lat="44.4380117" lon="11.106685"><ele>222.33333333333334</ele><time>2026-05-01T07:03:57.663Z</time></trkpt><trkpt lat="44.438175" lon="11.106635"><ele>224.0</ele><time>2026-05-01T07:03:58.66Z</time></trkpt><trkpt lat="44.4383267" lon="11.1065733"><ele>217.0</ele><time>2026-05-01T07:03:59.662Z</time></trkpt><trkpt lat="44.4384683" lon="11.1065017"><ele>210.0</ele><time>2026-05-01T07:04:00.664Z</time></trkpt><trkpt lat="44.438605" lon="11.1064067"><ele>203.0</ele><time>2026-05-01T07:04:01.655Z</time></trkpt><trkpt lat="44.4387367" lon="11.1062817"><ele>207.0</ele><time>2026-05-01T07:04:02.66Z</time></trkpt><trkpt lat="44.4388683" lon="11.1061483"><ele>211.0</ele><time>2026-05-01T07:04:03.658Z</time></trkpt><trkpt lat="44.4389967" lon="11.1060017"><ele>215.0</ele><time>2026-05-01T07:04:04.659Z</time></trkpt><trkpt lat="44.4391417" lon="11.1058683"><ele>215.0</ele><time>2026-05-01T07:04:05.662Z</time></trkpt><trkpt lat="44.4392917" lon="11.1057517"><ele>215.0</ele><time>2026-05-01T07:04:06.656Z</time></trkpt><trkpt lat="44.4394333" lon="11.1056317"><ele>215.0</ele><time>2026-05-01T07:04:07.658Z</time></trkpt><trkpt lat="44.4395717" lon="11.1054967"><ele>211.66666666666669</ele><time>2026-05-01T07:04:08.657Z</time></trkpt><trkpt lat="44.4397017" lon="11.10534"><ele>208.33333333333331</ele><time>2026-05-01T07:04:09.657Z</time></trkpt><trkpt lat="44.4398383" lon="11.1051817"><ele>205.0</ele><time>2026-05-01T07:04:10.658Z</time></trkpt><trkpt lat="44.4399817" lon="11.10503"><ele>201.66666666666666</ele><time>2026-05-01T07:04:11.658Z</time></trkpt><trkpt lat="44.4401233" lon="11.1048983"><ele>198.33333333333331</ele><time>2026-05-01T07:04:12.661Z</time></trkpt><trkpt lat="44.44026" lon="11.1047767"><ele>195.0</ele><time>2026-05-01T07:04:13.657Z</time></trkpt><trkpt lat="44.4403917" lon="11.1046517"><ele>196.66666666666669</ele><time>2026-05-01T07:04:14.661Z</time></trkpt><trkpt lat="44.4405183" lon="11.104505"><ele>198.33333333333334</ele><time>2026-05-01T07:04:15.662Z</time></trkpt><trkpt lat="44.4406333" lon="11.10434"><ele>200.0</ele><time>2026-05-01T07:04:16.662Z</time></trkpt><trkpt lat="44.440735" lon="11.10418"><ele>196.25</ele><time>2026-05-01T07:04:17.655Z</time></trkpt><trkpt lat="44.4408283" lon="11.1040217"><ele>192.5</ele><time>2026-05-01T07:04:18.658Z</time></trkpt><trkpt lat="44.4409267" lon="11.1038733"><ele>188.75</ele><time>2026-05-01T07:04:19.659Z</time></trkpt><trkpt lat="44.441035" lon="11.1037483"><ele>185.0</ele><time>2026-05-01T07:04:20.66Z</time></trkpt><trkpt lat="44.4411567" lon="11.1036433"><ele>185.0</ele><time>2026-05-01T07:04:21.657Z</time></trkpt><trkpt lat="44.441295" lon="11.10357"><ele>185.0</ele><time>2026-05-01T07:04:22.657Z</time></trkpt><trkpt lat="44.4414467" lon="11.1035217"><ele>185.0</ele><time>2026-05-01T07:04:23.663Z</time></trkpt><trkpt lat="44.441595" lon="11.1035017"><ele>184.75</ele><time>2026-05-01T07:04:24.656Z</time></trkpt><trkpt lat="44.4417383" lon="11.103495"><ele>184.5</ele><time>2026-05-01T07:04:25.66Z</time></trkpt><trkpt lat="44.4418783" lon="11.10347"><ele>184.25</ele><time>2026-05-01T07:04:26.663Z</time></trkpt><trkpt lat="44.4420133" lon="11.1034033"><ele>184.0</ele><time>2026-05-01T07:04:27.662Z</time></trkpt><trkpt lat="44.44213" lon="11.10329"><ele>182.25</ele><time>2026-05-01T07:04:28.66Z</time></trkpt><trkpt lat="44.442225" lon="11.1031317"><ele>180.5</ele><time>2026-05-01T07:04:29.664Z</time></trkpt><trkpt lat="44.4423033" lon="11.1029533"><ele>178.75</ele><time>2026-05-01T07:04:30.66Z</time></trkpt><trkpt lat="44.44237" lon="11.10278"><ele>177.0</ele><time>2026-05-01T07:04:31.661Z</time></trkpt><trkpt lat="44.4424367" lon="11.1026183"><ele>177.0</ele><time>2026-05-01T07:04:32.66Z</time></trkpt><trkpt lat="44.4425033" lon="11.1024667"><ele>177.0</ele><time>2026-05-01T07:04:33.666Z</time></trkpt><trkpt lat="44.4425683" lon="11.1023317"><ele>177.0</ele><time>2026-05-01T07:04:34.657Z</time></trkpt><trkpt lat="44.4426333" lon="11.102215"><ele>177.0</ele><time>2026-05-01T07:04:35.664Z</time></trkpt><trkpt lat="44.44271" lon="11.1021183"><ele>176.0</ele><time>2026-05-01T07:04:36.661Z</time></trkpt><trkpt lat="44.4428033" lon="11.102075"><ele>175.0</ele><time>2026-05-01T07:04:37.661Z</time></trkpt><trkpt lat="44.442905" lon="11.1020933"><ele>174.0</ele><time>2026-05-01T07:04:38.661Z</time></trkpt><trkpt lat="44.4429967" lon="11.102155"><ele>173.0</ele><time>2026-05-01T07:04:39.658Z</time></trkpt><trkpt lat="44.44308" lon="11.1022667"><ele>172.0</ele><time>2026-05-01T07:04:40.655Z</time></trkpt><trkpt lat="44.443145" lon="11.10242"><ele>172.0</ele><time>2026-05-01T07:04:41.665Z</time></trkpt><trkpt lat="44.4432167" lon="11.1025867"><ele>172.0</ele><time>2026-05-01T07:04:42.658Z</time></trkpt><trkpt lat="44.4432983" lon="11.1027433"><ele>172.0</ele><time>2026-05-01T07:04:43.662Z</time></trkpt><trkpt lat="44.4433883" lon="11.102885"><ele>172.0</ele><time>2026-05-01T07:04:44.657Z</time></trkpt><trkpt lat="44.4434783" lon="11.1030067"><ele>172.0</ele><time>2026-05-01T07:04:45.659Z</time></trkpt><trkpt lat="44.4435633" lon="11.1030933"><ele>172.0</ele><time>2026-05-01T07:04:46.658Z</time></trkpt><trkpt lat="44.4436483" lon="11.1031567"><ele>172.0</ele><time>2026-05-01T07:04:47.662Z</time></trkpt><trkpt lat="44.44374" lon="11.1031783"><ele>172.0</ele><time>2026-05-01T07:04:48.663Z</time></trkpt><trkpt lat="44.4438267" lon="11.1031533"><ele>172.0</ele><time>2026-05-01T07:04:49.66Z</time></trkpt><trkpt lat="44.4439033" lon="11.103095"><ele>172.0</ele><time>2026-05-01T07:04:50.654Z</time></trkpt><trkpt lat="44.4439317" lon="11.102985"><ele>172.0</ele><time>2026-05-01T07:04:51.655Z</time></trkpt><trkpt lat="44.4439367" lon="11.1028667"><ele>172.0</ele><time>2026-05-01T07:04:52.654Z</time></trkpt><trkpt lat="44.4438767" lon="11.1027617"><ele>172.0</ele><time>2026-05-01T07:04:53.661Z</time></trkpt><trkpt lat="44.4437833" lon="11.1026617"><ele>172.0</ele><time>2026-05-01T07:04:54.658Z</time></trkpt><trkpt lat="44.4436833" lon="11.1025417"><ele>169.5</ele><time>2026-05-01T07:04:55.659Z</time></trkpt><trkpt lat="44.443595" lon="11.102395"><ele>167.0</ele><time>2026-05-01T07:04:56.66Z</time></trkpt><trkpt lat="44.443535" lon="11.102215"><ele>164.5</ele><time>2026-05-01T07:04:57.656Z</time></trkpt><trkpt lat="44.44349" lon="11.1020183"><ele>162.0</ele><time>2026-05-01T07:04:58.66Z</time></trkpt><trkpt lat="44.4434483" lon="11.1018183"><ele>162.0</ele><time>2026-05-01T07:04:59.669Z</time></trkpt><trkpt lat="44.4433883" lon="11.1016233"><ele>162.0</ele><time>2026-05-01T07:05:00.668Z</time></trkpt><trkpt lat="44.4433083" lon="11.101455"><ele>162.0</ele><time>2026-05-01T07:05:01.661Z</time></trkpt><trkpt lat="44.4432" lon="11.101325"><ele>162.0</ele><time>2026-05-01T07:05:02.658Z</time></trkpt><trkpt lat="44.4430667" lon="11.10122"><ele>161.5</ele><time>2026-05-01T07:05:03.656Z</time></trkpt><trkpt lat="44.4429267" lon="11.1011317"><ele>161.0</ele><time>2026-05-01T07:05:04.658Z</time></trkpt><trkpt lat="44.44279" lon="11.1010683"><ele>160.5</ele><time>2026-05-01T07:05:05.668Z</time></trkpt><trkpt lat="44.4426667" lon="11.101015"><ele>160.0</ele><time>2026-05-01T07:05:06.66Z</time></trkpt><trkpt lat="44.4425617" lon="11.10095"><ele>160.0</ele><time>2026-05-01T07:05:07.659Z</time></trkpt><trkpt lat="44.442475" lon="11.1008583"><ele>160.0</ele><time>2026-05-01T07:05:08.659Z</time></trkpt><trkpt lat="44.4424117" lon="11.10073"><ele>160.0</ele><time>2026-05-01T07:05:09.658Z</time></trkpt><trkpt lat="44.4423767" lon="11.100565"><ele>160.0</ele><time>2026-05-01T07:05:10.661Z</time></trkpt><trkpt lat="44.4423533" lon="11.1003783"><ele>158.0</ele><time>2026-05-01T07:05:11.658Z</time></trkpt><trkpt lat="44.44233" lon="11.1001667"><ele>156.0</ele><time>2026-05-01T07:05:12.66Z</time></trkpt><trkpt lat="44.4423033" lon="11.099945"><ele>154.0</ele><time>2026-05-01T07:05:13.66Z</time></trkpt><trkpt lat="44.4422717" lon="11.0997317"><ele>153.0</ele><time>2026-05-01T07:05:14.666Z</time></trkpt><trkpt lat="44.44224" lon="11.0995317"><ele>152.0</ele><time>2026-05-01T07:05:15.657Z</time></trkpt><trkpt lat="44.442215" lon="11.099345"><ele>151.0</ele><time>2026-05-01T07:05:16.656Z</time></trkpt><trkpt lat="44.4421983" lon="11.0991733"><ele>150.0</ele><time>2026-05-01T07:05:17.654Z</time></trkpt><trkpt lat="44.442195" lon="11.0990083"><ele>149.0</ele><time>2026-05-01T07:05:18.659Z</time></trkpt><trkpt lat="44.442205" lon="11.0988467"><ele>148.0</ele><time>2026-05-01T07:05:19.662Z</time></trkpt><trkpt lat="44.44222" lon="11.09868"><ele>147.0</ele><time>2026-05-01T07:05:20.66Z</time></trkpt><trkpt lat="44.4422283" lon="11.0985117"><ele>146.0</ele><time>2026-05-01T07:05:21.662Z</time></trkpt><trkpt lat="44.4422117" lon="11.0983417"><ele>146.0</ele><time>2026-05-01T07:05:22.656Z</time></trkpt><trkpt lat="44.4421733" lon="11.09817"><ele>146.0</ele><time>2026-05-01T07:05:23.662Z</time></trkpt><trkpt lat="44.4421217" lon="11.0979833"><ele>146.0</ele><time>2026-05-01T07:05:24.661Z</time></trkpt><trkpt lat="44.4420767" lon="11.0977783"><ele>146.0</ele><time>2026-05-01T07:05:25.672Z</time></trkpt><trkpt lat="44.44204" lon="11.0975583"><ele>145.66666666666666</ele><time>2026-05-01T07:05:26.663Z</time></trkpt><trkpt lat="44.4420167" lon="11.0973267"><ele>145.33333333333334</ele><time>2026-05-01T07:05:27.661Z</time></trkpt><trkpt lat="44.442" lon="11.0970817"><ele>145.0</ele><time>2026-05-01T07:05:28.656Z</time></trkpt><trkpt lat="44.44199" lon="11.0968317"><ele>144.33333333333334</ele><time>2026-05-01T07:05:29.658Z</time></trkpt><trkpt lat="44.441985" lon="11.0965783"><ele>143.66666666666666</ele><time>2026-05-01T07:05:30.658Z</time></trkpt><trkpt lat="44.4419817" lon="11.0963217"><ele>143.0</ele><time>2026-05-01T07:05:31.657Z</time></trkpt><trkpt lat="44.44198" lon="11.0960583"><ele>143.0</ele><time>2026-05-01T07:05:32.661Z</time></trkpt><trkpt lat="44.4419767" lon="11.0957933"><ele>143.0</ele><time>2026-05-01T07:05:33.665Z</time></trkpt><trkpt lat="44.441985" lon="11.0955317"><ele>143.0</ele><time>2026-05-01T07:05:34.663Z</time></trkpt><trkpt lat="44.4420033" lon="11.095275"><ele>142.33333333333331</ele><time>2026-05-01T07:05:35.656Z</time></trkpt><trkpt lat="44.44203" lon="11.0950233"><ele>141.66666666666666</ele><time>2026-05-01T07:05:36.66Z</time></trkpt><trkpt lat="44.442065" lon="11.0947717"><ele>141.0</ele><time>2026-05-01T07:05:37.657Z</time></trkpt><trkpt lat="44.4421017" lon="11.09452"><ele>140.66666666666666</ele><time>2026-05-01T07:05:38.657Z</time></trkpt><trkpt lat="44.442135" lon="11.0942667"><ele>140.33333333333331</ele><time>2026-05-01T07:05:39.659Z</time></trkpt><trkpt lat="44.4421683" lon="11.0940117"><ele>140.0</ele><time>2026-05-01T07:05:40.66Z</time></trkpt><trkpt lat="44.4422017" lon="11.09376"><ele>140.0</ele><time>2026-05-01T07:05:41.659Z</time></trkpt><trkpt lat="44.4422333" lon="11.0935083"><ele>140.0</ele><time>2026-05-01T07:05:42.658Z</time></trkpt><trkpt lat="44.4422667" lon="11.0932583"><ele>140.0</ele><time>2026-05-01T07:05:43.66Z</time></trkpt><trkpt lat="44.4423" lon="11.0930083"><ele>140.66666666666666</ele><time>2026-05-01T07:05:44.658Z</time></trkpt><trkpt lat="44.4423367" lon="11.0927533"><ele>141.33333333333334</ele><time>2026-05-01T07:05:45.663Z</time></trkpt><trkpt lat="44.442375" lon="11.092495"><ele>142.0</ele><time>2026-05-01T07:05:46.657Z</time></trkpt><trkpt lat="44.44241" lon="11.0922383"><ele>143.0</ele><time>2026-05-01T07:05:47.661Z</time></trkpt><trkpt lat="44.4424483" lon="11.09198"><ele>144.0</ele><time>2026-05-01T07:05:48.658Z</time></trkpt><trkpt lat="44.4424833" lon="11.09172"><ele>145.0</ele><time>2026-05-01T07:05:49.658Z</time></trkpt><trkpt lat="44.4425183" lon="11.0914533"><ele>145.66666666666669</ele><time>2026-05-01T07:05:50.659Z</time></trkpt><trkpt lat="44.4425567" lon="11.0911883"><ele>146.33333333333334</ele><time>2026-05-01T07:05:51.656Z</time></trkpt><trkpt lat="44.4425933" lon="11.09093"><ele>147.0</ele><time>2026-05-01T07:05:52.658Z</time></trkpt><trkpt lat="44.4426267" lon="11.0906867"><ele>147.66666666666666</ele><time>2026-05-01T07:05:53.658Z</time></trkpt><trkpt lat="44.4426483" lon="11.0904433"><ele>148.33333333333331</ele><time>2026-05-01T07:05:54.662Z</time></trkpt><trkpt lat="44.44265" lon="11.0902017"><ele>149.0</ele><time>2026-05-01T07:05:55.659Z</time></trkpt><trkpt lat="44.4426317" lon="11.0899633"><ele>150.33333333333331</ele><time>2026-05-01T07:05:56.658Z</time></trkpt><trkpt lat="44.4425983" lon="11.08974"><ele>151.66666666666666</ele><time>2026-05-01T07:05:57.656Z</time></trkpt><trkpt lat="44.442555" lon="11.08952"><ele>153.0</ele><time>2026-05-01T07:05:58.659Z</time></trkpt><trkpt lat="44.44251" lon="11.0892967"><ele>154.33333333333334</ele><time>2026-05-01T07:05:59.662Z</time></trkpt><trkpt lat="44.4424583" lon="11.0890683"><ele>155.66666666666669</ele><time>2026-05-01T07:06:00.659Z</time></trkpt><trkpt lat="44.4424033" lon="11.0888483"><ele>157.0</ele><time>2026-05-01T07:06:01.664Z</time></trkpt><trkpt lat="44.4423467" lon="11.0886383"><ele>157.0</ele><time>2026-05-01T07:06:02.665Z</time></trkpt><trkpt lat="44.4422933" lon="11.0884383"><ele>157.0</ele><time>2026-05-01T07:06:03.665Z</time></trkpt><trkpt lat="44.4422517" lon="11.0882483"><ele>157.0</ele><time>2026-05-01T07:06:04.659Z</time></trkpt><trkpt lat="44.4422167" lon="11.0880683"><ele>157.0</ele><time>2026-05-01T07:06:05.658Z</time></trkpt><trkpt lat="44.4421917" lon="11.0878883"><ele>157.0</ele><time>2026-05-01T07:06:06.669Z</time></trkpt><trkpt lat="44.4421783" lon="11.0877033"><ele>157.0</ele><time>2026-05-01T07:06:07.661Z</time></trkpt><trkpt lat="44.442175" lon="11.0875133"><ele>157.0</ele><time>2026-05-01T07:06:08.659Z</time></trkpt><trkpt lat="44.4421767" lon="11.0873233"><ele>157.0</ele><time>2026-05-01T07:06:09.658Z</time></trkpt><trkpt lat="44.44218" lon="11.0871333"><ele>157.75</ele><time>2026-05-01T07:06:10.658Z</time></trkpt><trkpt lat="44.4421867" lon="11.0869483"><ele>158.5</ele><time>2026-05-01T07:06:11.658Z</time></trkpt><trkpt lat="44.44219" lon="11.0867633"><ele>159.25</ele><time>2026-05-01T07:06:12.661Z</time></trkpt><trkpt lat="44.442195" lon="11.086575"><ele>160.0</ele><time>2026-05-01T07:06:13.66Z</time></trkpt><trkpt lat="44.4422017" lon="11.086385"><ele>160.75</ele><time>2026-05-01T07:06:14.663Z</time></trkpt><trkpt lat="44.4422083" lon="11.0862017"><ele>161.5</ele><time>2026-05-01T07:06:15.66Z</time></trkpt><trkpt lat="44.4422167" lon="11.0860133"><ele>162.25</ele><time>2026-05-01T07:06:16.661Z</time></trkpt><trkpt lat="44.4422267" lon="11.0858133"><ele>163.0</ele><time>2026-05-01T07:06:17.657Z</time></trkpt><trkpt lat="44.4422367" lon="11.0856183"><ele>163.25</ele><time>2026-05-01T07:06:18.656Z</time></trkpt><trkpt lat="44.442245" lon="11.0854333"><ele>163.5</ele><time>2026-05-01T07:06:19.657Z</time></trkpt><trkpt lat="44.442255" lon="11.0852433"><ele>163.75</ele><time>2026-05-01T07:06:20.664Z</time></trkpt><trkpt lat="44.4422633" lon="11.0850517"><ele>164.0</ele><time>2026-05-01T07:06:21.656Z</time></trkpt><trkpt lat="44.4422683" lon="11.0848633"><ele>164.75</ele><time>2026-05-01T07:06:22.661Z</time></trkpt><trkpt lat="44.442265" lon="11.0846783"><ele>165.5</ele><time>2026-05-01T07:06:23.66Z</time></trkpt><trkpt lat="44.442255" lon="11.0844933"><ele>166.25</ele><time>2026-05-01T07:06:24.663Z</time></trkpt><trkpt lat="44.4422433" lon="11.08431"><ele>167.0</ele><time>2026-05-01T07:06:25.66Z</time></trkpt><trkpt lat="44.44223" lon="11.0841267"><ele>167.25</ele><time>2026-05-01T07:06:26.662Z</time></trkpt><trkpt lat="44.4422117" lon="11.0839417"><ele>167.5</ele><time>2026-05-01T07:06:27.661Z</time></trkpt><trkpt lat="44.4421917" lon="11.0837517"><ele>167.75</ele><time>2026-05-01T07:06:28.664Z</time></trkpt><trkpt lat="44.4421733" lon="11.083555"><ele>168.0</ele><time>2026-05-01T07:06:29.664Z</time></trkpt><trkpt lat="44.4421583" lon="11.0833633"><ele>168.5</ele><time>2026-05-01T07:06:30.656Z</time></trkpt><trkpt lat="44.4421383" lon="11.0831733"><ele>169.0</ele><time>2026-05-01T07:06:31.66Z</time></trkpt><trkpt lat="44.4421133" lon="11.0829817"><ele>169.5</ele><time>2026-05-01T07:06:32.663Z</time></trkpt><trkpt lat="44.44208" lon="11.0827867"><ele>170.0</ele><time>2026-05-01T07:06:33.663Z</time></trkpt><trkpt lat="44.4420433" lon="11.0825883"><ele>172.66666666666666</ele><time>2026-05-01T07:06:34.671Z</time></trkpt><trkpt lat="44.441995" lon="11.08239"><ele>175.33333333333334</ele><time>2026-05-01T07:06:35.662Z</time></trkpt><trkpt lat="44.44194" lon="11.0821883"><ele>178.0</ele><time>2026-05-01T07:06:36.656Z</time></trkpt><trkpt lat="44.44187" lon="11.0819917"><ele>178.0</ele><time>2026-05-01T07:06:37.664Z</time></trkpt><trkpt lat="44.4417883" lon="11.0817967"><ele>178.0</ele><time>2026-05-01T07:06:38.658Z</time></trkpt><trkpt lat="44.4416983" lon="11.0816033"><ele>178.0</ele><time>2026-05-01T07:06:39.658Z</time></trkpt><trkpt lat="44.4415983" lon="11.0814133"><ele>178.0</ele><time>2026-05-01T07:06:40.658Z</time></trkpt><trkpt lat="44.4414967" lon="11.0812333"><ele>178.0</ele><time>2026-05-01T07:06:41.665Z</time></trkpt><trkpt lat="44.4413983" lon="11.08106"><ele>178.0</ele><time>2026-05-01T07:06:42.663Z</time></trkpt><trkpt lat="44.4413067" lon="11.0808867"><ele>178.25</ele><time>2026-05-01T07:06:43.661Z</time></trkpt><trkpt lat="44.44122" lon="11.0807083"><ele>178.5</ele><time>2026-05-01T07:06:44.659Z</time></trkpt><trkpt lat="44.4411383" lon="11.0805333"><ele>178.75</ele><time>2026-05-01T07:06:45.669Z</time></trkpt><trkpt lat="44.4410667" lon="11.08036"><ele>179.0</ele><time>2026-05-01T07:06:46.659Z</time></trkpt><trkpt lat="44.4410033" lon="11.080185"><ele>179.0</ele><time>2026-05-01T07:06:47.664Z</time></trkpt><trkpt lat="44.44095" lon="11.08001"><ele>179.0</ele><time>2026-05-01T07:06:48.66Z</time></trkpt><trkpt lat="44.440915" lon="11.0798267"><ele>179.0</ele><time>2026-05-01T07:06:49.657Z</time></trkpt><trkpt lat="44.4408983" lon="11.079645"><ele>179.0</ele><time>2026-05-01T07:06:50.663Z</time></trkpt><trkpt lat="44.4408983" lon="11.0794667"><ele>179.5</ele><time>2026-05-01T07:06:51.659Z</time></trkpt><trkpt lat="44.4409083" lon="11.0792883"><ele>180.0</ele><time>2026-05-01T07:06:52.658Z</time></trkpt><trkpt lat="44.4409217" lon="11.079105"><ele>180.5</ele><time>2026-05-01T07:06:53.659Z</time></trkpt><trkpt lat="44.4409383" lon="11.0789133"><ele>181.0</ele><time>2026-05-01T07:06:54.665Z</time></trkpt><trkpt lat="44.4409567" lon="11.078715"><ele>181.25</ele><time>2026-05-01T07:06:55.661Z</time></trkpt><trkpt lat="44.4409733" lon="11.0785117"><ele>181.5</ele><time>2026-05-01T07:06:56.661Z</time></trkpt><trkpt lat="44.4409883" lon="11.0783183"><ele>181.75</ele><time>2026-05-01T07:06:57.658Z</time></trkpt><trkpt lat="44.4410017" lon="11.078135"><ele>182.0</ele><time>2026-05-01T07:06:58.657Z</time></trkpt><trkpt lat="44.4410167" lon="11.0779517"><ele>182.0</ele><time>2026-05-01T07:06:59.666Z</time></trkpt><trkpt lat="44.441025" lon="11.0777633"><ele>182.0</ele><time>2026-05-01T07:07:00.663Z</time></trkpt><trkpt lat="44.4410417" lon="11.0775633"><ele>182.0</ele><time>2026-05-01T07:07:01.659Z</time></trkpt><trkpt lat="44.4410683" lon="11.0773533"><ele>182.0</ele><time>2026-05-01T07:07:02.658Z</time></trkpt><trkpt lat="44.4410967" lon="11.0771267"><ele>182.33333333333331</ele><time>2026-05-01T07:07:03.663Z</time></trkpt><trkpt lat="44.441115" lon="11.0768917"><ele>182.66666666666666</ele><time>2026-05-01T07:07:04.655Z</time></trkpt><trkpt lat="44.441125" lon="11.0766483"><ele>183.0</ele><time>2026-05-01T07:07:05.659Z</time></trkpt><trkpt lat="44.4411267" lon="11.0764017"><ele>183.33333333333334</ele><time>2026-05-01T07:07:06.658Z</time></trkpt><trkpt lat="44.44112" lon="11.0761583"><ele>183.66666666666669</ele><time>2026-05-01T07:07:07.663Z</time></trkpt><trkpt lat="44.44111" lon="11.0759283"><ele>184.0</ele><time>2026-05-01T07:07:08.659Z</time></trkpt><trkpt lat="44.4410983" lon="11.0757117"><ele>184.33333333333334</ele><time>2026-05-01T07:07:09.659Z</time></trkpt><trkpt lat="44.4410883" lon="11.075495"><ele>184.66666666666666</ele><time>2026-05-01T07:07:10.659Z</time></trkpt><trkpt lat="44.4410817" lon="11.0752833"><ele>185.0</ele><time>2026-05-01T07:07:11.658Z</time></trkpt><trkpt lat="44.4410783" lon="11.0750767"><ele>185.25</ele><time>2026-05-01T07:07:12.663Z</time></trkpt><trkpt lat="44.4410733" lon="11.0748733"><ele>185.5</ele><time>2026-05-01T07:07:13.658Z</time></trkpt><trkpt lat="44.4410683" lon="11.0746667"><ele>185.75</ele><time>2026-05-01T07:07:14.663Z</time></trkpt><trkpt lat="44.4410617" lon="11.0744517"><ele>186.0</ele><time>2026-05-01T07:07:15.657Z</time></trkpt><trkpt lat="44.4410583" lon="11.0742283"><ele>186.0</ele><time>2026-05-01T07:07:16.657Z</time></trkpt><trkpt lat="44.4410517" lon="11.074"><ele>186.0</ele><time>2026-05-01T07:07:17.659Z</time></trkpt><trkpt lat="44.4410467" lon="11.0737767"><ele>186.0</ele><time>2026-05-01T07:07:18.659Z</time></trkpt><trkpt lat="44.4410417" lon="11.0735667"><ele>186.0</ele><time>2026-05-01T07:07:19.661Z</time></trkpt><trkpt lat="44.4410383" lon="11.073355"><ele>186.0</ele><time>2026-05-01T07:07:20.659Z</time></trkpt><trkpt lat="44.441035" lon="11.0731467"><ele>186.0</ele><time>2026-05-01T07:07:21.657Z</time></trkpt><trkpt lat="44.4410317" lon="11.0729417"><ele>186.0</ele><time>2026-05-01T07:07:22.659Z</time></trkpt><trkpt lat="44.44103" lon="11.0727333"><ele>185.75</ele><time>2026-05-01T07:07:23.661Z</time></trkpt><trkpt lat="44.4410317" lon="11.0725267"><ele>185.5</ele><time>2026-05-01T07:07:24.659Z</time></trkpt><trkpt lat="44.4410367" lon="11.0723267"><ele>185.25</ele><time>2026-05-01T07:07:25.657Z</time></trkpt><trkpt lat="44.4410483" lon="11.0721267"><ele>185.0</ele><time>2026-05-01T07:07:26.662Z</time></trkpt><trkpt lat="44.441065" lon="11.071915"><ele>183.0</ele><time>2026-05-01T07:07:27.659Z</time></trkpt><trkpt lat="44.44109" lon="11.071695"><ele>181.0</ele><time>2026-05-01T07:07:28.656Z</time></trkpt><trkpt lat="44.4411183" lon="11.0714683"><ele>179.0</ele><time>2026-05-01T07:07:29.658Z</time></trkpt><trkpt lat="44.4411533" lon="11.0712367"><ele>177.66666666666666</ele><time>2026-05-01T07:07:30.658Z</time></trkpt><trkpt lat="44.4411883" lon="11.0709967"><ele>176.33333333333334</ele><time>2026-05-01T07:07:31.66Z</time></trkpt><trkpt lat="44.44122" lon="11.0707667"><ele>175.0</ele><time>2026-05-01T07:07:32.66Z</time></trkpt><trkpt lat="44.4412533" lon="11.07055"><ele>174.25</ele><time>2026-05-01T07:07:33.66Z</time></trkpt><trkpt lat="44.4412817" lon="11.0703467"><ele>173.5</ele><time>2026-05-01T07:07:34.659Z</time></trkpt><trkpt lat="44.4413117" lon="11.07015"><ele>172.75</ele><time>2026-05-01T07:07:35.66Z</time></trkpt><trkpt lat="44.44134" lon="11.06996"><ele>172.0</ele><time>2026-05-01T07:07:36.661Z</time></trkpt><trkpt lat="44.4413667" lon="11.0697717"><ele>171.75</ele><time>2026-05-01T07:07:37.657Z</time></trkpt><trkpt lat="44.4413933" lon="11.06959"><ele>171.5</ele><time>2026-05-01T07:07:38.66Z</time></trkpt><trkpt lat="44.4414183" lon="11.0694117"><ele>171.25</ele><time>2026-05-01T07:07:39.666Z</time></trkpt><trkpt lat="44.4414433" lon="11.0692283"><ele>171.0</ele><time>2026-05-01T07:07:40.658Z</time></trkpt><trkpt lat="44.4414667" lon="11.069045"><ele>171.5</ele><time>2026-05-01T07:07:41.66Z</time></trkpt><trkpt lat="44.44149" lon="11.0688633"><ele>172.0</ele><time>2026-05-01T07:07:42.658Z</time></trkpt><trkpt lat="44.4415183" lon="11.06868"><ele>172.5</ele><time>2026-05-01T07:07:43.662Z</time></trkpt><trkpt lat="44.44154" lon="11.0685083"><ele>173.0</ele><time>2026-05-01T07:07:44.66Z</time></trkpt><trkpt lat="44.4415633" lon="11.0683383"><ele>174.2</ele><time>2026-05-01T07:07:45.661Z</time></trkpt><trkpt lat="44.4415833" lon="11.06819"><ele>175.4</ele><time>2026-05-01T07:07:46.655Z</time></trkpt><trkpt lat="44.4415967" lon="11.068065"><ele>176.6</ele><time>2026-05-01T07:07:47.659Z</time></trkpt><trkpt lat="44.44159" lon="11.0679467"><ele>177.79999999999998</ele><time>2026-05-01T07:07:48.661Z</time></trkpt><trkpt lat="44.44155" lon="11.0678233"><ele>179.0</ele><time>2026-05-01T07:07:49.658Z</time></trkpt><trkpt lat="44.441465" lon="11.0676967"><ele>179.0</ele><time>2026-05-01T07:07:50.667Z</time></trkpt><trkpt lat="44.4413783" lon="11.067555"><ele>179.0</ele><time>2026-05-01T07:07:51.662Z</time></trkpt><trkpt lat="44.4412883" lon="11.0673967"><ele>179.0</ele><time>2026-05-01T07:07:52.659Z</time></trkpt><trkpt lat="44.44119" lon="11.0672267"><ele>179.0</ele><time>2026-05-01T07:07:53.662Z</time></trkpt><trkpt lat="44.4410917" lon="11.067055"><ele>178.66666666666666</ele><time>2026-05-01T07:07:54.655Z</time></trkpt><trkpt lat="44.44099" lon="11.0668967"><ele>178.33333333333334</ele><time>2026-05-01T07:07:55.658Z</time></trkpt><trkpt lat="44.4408783" lon="11.06675"><ele>178.0</ele><time>2026-05-01T07:07:56.667Z</time></trkpt><trkpt lat="44.440755" lon="11.0666183"><ele>178.33333333333334</ele><time>2026-05-01T07:07:57.664Z</time></trkpt><trkpt lat="44.4406267" lon="11.0664917"><ele>178.66666666666666</ele><time>2026-05-01T07:07:58.66Z</time></trkpt><trkpt lat="44.4404933" lon="11.0663683"><ele>179.0</ele><time>2026-05-01T07:07:59.656Z</time></trkpt><trkpt lat="44.4403533" lon="11.066245"><ele>179.0</ele><time>2026-05-01T07:08:00.661Z</time></trkpt><trkpt lat="44.4402117" lon="11.066115"><ele>179.0</ele><time>2026-05-01T07:08:01.657Z</time></trkpt><trkpt lat="44.44007" lon="11.065985"><ele>179.0</ele><time>2026-05-01T07:08:02.662Z</time></trkpt><trkpt lat="44.4399333" lon="11.06586"><ele>181.0</ele><time>2026-05-01T07:08:03.657Z</time></trkpt><trkpt lat="44.4397983" lon="11.0657383"><ele>183.0</ele><time>2026-05-01T07:08:04.658Z</time></trkpt><trkpt lat="44.4396683" lon="11.06562"><ele>185.0</ele><time>2026-05-01T07:08:05.662Z</time></trkpt><trkpt lat="44.439545" lon="11.0655083"><ele>185.0</ele><time>2026-05-01T07:08:06.656Z</time></trkpt><trkpt lat="44.43943" lon="11.065405"><ele>185.0</ele><time>2026-05-01T07:08:07.662Z</time></trkpt><trkpt lat="44.439315" lon="11.065305"><ele>185.0</ele><time>2026-05-01T07:08:08.665Z</time></trkpt><trkpt lat="44.439205" lon="11.0652033"><ele>185.0</ele><time>2026-05-01T07:08:09.667Z</time></trkpt><trkpt lat="44.4390883" lon="11.0650967"><ele>185.0</ele><time>2026-05-01T07:08:10.66Z</time></trkpt><trkpt lat="44.438975" lon="11.0649833"><ele>185.0</ele><time>2026-05-01T07:08:11.662Z</time></trkpt><trkpt lat="44.4388517" lon="11.06487"><ele>185.0</ele><time>2026-05-01T07:08:12.663Z</time></trkpt><trkpt lat="44.4387333" lon="11.0647467"><ele>185.0</ele><time>2026-05-01T07:08:13.664Z</time></trkpt><trkpt lat="44.4386217" lon="11.0646167"><ele>186.0</ele><time>2026-05-01T07:08:14.66Z</time></trkpt><trkpt lat="44.438505" lon="11.0644917"><ele>187.0</ele><time>2026-05-01T07:08:15.66Z</time></trkpt><trkpt lat="44.4383867" lon="11.0643733"><ele>188.0</ele><time>2026-05-01T07:08:16.662Z</time></trkpt><trkpt lat="44.43827" lon="11.0642667"><ele>189.0</ele><time>2026-05-01T07:08:17.659Z</time></trkpt><trkpt lat="44.4381517" lon="11.06416"><ele>189.5</ele><time>2026-05-01T07:08:18.665Z</time></trkpt><trkpt lat="44.438035" lon="11.0640583"><ele>190.0</ele><time>2026-05-01T07:08:19.659Z</time></trkpt><trkpt lat="44.437915" lon="11.0639517"><ele>190.5</ele><time>2026-05-01T07:08:20.662Z</time></trkpt><trkpt lat="44.4377917" lon="11.06384"><ele>191.0</ele><time>2026-05-01T07:08:21.662Z</time></trkpt><trkpt lat="44.4376667" lon="11.063725"><ele>191.66666666666666</ele><time>2026-05-01T07:08:22.657Z</time></trkpt><trkpt lat="44.437535" lon="11.0636117"><ele>192.33333333333331</ele><time>2026-05-01T07:08:23.659Z</time></trkpt><trkpt lat="44.4374" lon="11.0634967"><ele>193.0</ele><time>2026-05-01T07:08:24.659Z</time></trkpt><trkpt lat="44.4372667" lon="11.06338"><ele>193.0</ele><time>2026-05-01T07:08:25.661Z</time></trkpt><trkpt lat="44.4371317" lon="11.06326"><ele>193.0</ele><time>2026-05-01T07:08:26.658Z</time></trkpt><trkpt lat="44.43699" lon="11.0631367"><ele>193.0</ele><time>2026-05-01T07:08:27.661Z</time></trkpt><trkpt lat="44.436845" lon="11.0630083"><ele>193.0</ele><time>2026-05-01T07:08:28.66Z</time></trkpt><trkpt lat="44.4367067" lon="11.0628817"><ele>193.0</ele><time>2026-05-01T07:08:29.661Z</time></trkpt><trkpt lat="44.43657" lon="11.0627517"><ele>193.0</ele><time>2026-05-01T07:08:30.66Z</time></trkpt><trkpt lat="44.4364317" lon="11.06262"><ele>193.66666666666666</ele><time>2026-05-01T07:08:31.656Z</time></trkpt><trkpt lat="44.4362867" lon="11.06248"><ele>194.33333333333331</ele><time>2026-05-01T07:08:32.66Z</time></trkpt><trkpt lat="44.436145" lon="11.06234"><ele>195.0</ele><time>2026-05-01T07:08:33.658Z</time></trkpt><trkpt lat="44.43601" lon="11.0622067"><ele>195.0</ele><time>2026-05-01T07:08:34.657Z</time></trkpt><trkpt lat="44.435885" lon="11.0620783"><ele>195.0</ele><time>2026-05-01T07:08:35.66Z</time></trkpt><trkpt lat="44.4357633" lon="11.0619517"><ele>195.0</ele><time>2026-05-01T07:08:36.661Z</time></trkpt><trkpt lat="44.4356467" lon="11.0618233"><ele>195.0</ele><time>2026-05-01T07:08:37.663Z</time></trkpt><trkpt lat="44.435535" lon="11.0616917"><ele>195.0</ele><time>2026-05-01T07:08:38.66Z</time></trkpt><trkpt lat="44.4354283" lon="11.0615633"><ele>195.0</ele><time>2026-05-01T07:08:39.669Z</time></trkpt><trkpt lat="44.4353333" lon="11.061445"><ele>195.0</ele><time>2026-05-01T07:08:40.659Z</time></trkpt><trkpt lat="44.4352483" lon="11.061345"><ele>195.33333333333334</ele><time>2026-05-01T07:08:41.663Z</time></trkpt><trkpt lat="44.435185" lon="11.06126"><ele>195.66666666666669</ele><time>2026-05-01T07:08:42.656Z</time></trkpt><trkpt lat="44.4351383" lon="11.0611933"><ele>196.0</ele><time>2026-05-01T07:08:43.663Z</time></trkpt><trkpt lat="44.4350883" lon="11.061095"><ele>196.33333333333334</ele><time>2026-05-01T07:08:45.66Z</time></trkpt><trkpt lat="44.4350683" lon="11.06094"><ele>196.66666666666669</ele><time>2026-05-01T07:08:47.665Z</time></trkpt><trkpt lat="44.4350667" lon="11.060815"><ele>197.0</ele><time>2026-05-01T07:08:48.661Z</time></trkpt><trkpt lat="44.4350433" lon="11.0606667"><ele>197.25</ele><time>2026-05-01T07:08:49.66Z</time></trkpt><trkpt lat="44.4350117" lon="11.060505"><ele>197.5</ele><time>2026-05-01T07:08:50.664Z</time></trkpt><trkpt lat="44.4349817" lon="11.0603283"><ele>197.75</ele><time>2026-05-01T07:08:51.659Z</time></trkpt><trkpt lat="44.4349633" lon="11.0601367"><ele>198.0</ele><time>2026-05-01T07:08:52.661Z</time></trkpt><trkpt lat="44.4349567" lon="11.05993"><ele>198.0</ele><time>2026-05-01T07:08:53.662Z</time></trkpt><trkpt lat="44.4349633" lon="11.0597117"><ele>198.0</ele><time>2026-05-01T07:08:54.667Z</time></trkpt><trkpt lat="44.4349767" lon="11.05948"><ele>198.0</ele><time>2026-05-01T07:08:55.664Z</time></trkpt><trkpt lat="44.4349917" lon="11.05925"><ele>196.66666666666669</ele><time>2026-05-01T07:08:56.66Z</time></trkpt><trkpt lat="44.435005" lon="11.05903"><ele>195.33333333333334</ele><time>2026-05-01T07:08:57.66Z</time></trkpt><trkpt lat="44.4350133" lon="11.0588167"><ele>194.0</ele><time>2026-05-01T07:08:58.663Z</time></trkpt><trkpt lat="44.4350267" lon="11.058605"><ele>194.0</ele><time>2026-05-01T07:08:59.661Z</time></trkpt><trkpt lat="44.4350417" lon="11.0583933"><ele>194.0</ele><time>2026-05-01T07:09:00.659Z</time></trkpt><trkpt lat="44.4350583" lon="11.0581867"><ele>194.0</ele><time>2026-05-01T07:09:01.659Z</time></trkpt><trkpt lat="44.4350683" lon="11.0579917"><ele>194.0</ele><time>2026-05-01T07:09:02.662Z</time></trkpt><trkpt lat="44.4350767" lon="11.0578117"><ele>193.79999999999998</ele><time>2026-05-01T07:09:03.663Z</time></trkpt><trkpt lat="44.435085" lon="11.05765"><ele>193.6</ele><time>2026-05-01T07:09:04.663Z</time></trkpt><trkpt lat="44.4350933" lon="11.05751"><ele>193.4</ele><time>2026-05-01T07:09:05.666Z</time></trkpt><trkpt lat="44.4350983" lon="11.0573867"><ele>193.2</ele><time>2026-05-01T07:09:06.666Z</time></trkpt><trkpt lat="44.4350967" lon="11.0572817"><ele>193.0</ele><time>2026-05-01T07:09:07.659Z</time></trkpt><trkpt lat="44.4350833" lon="11.057135"><ele>192.83333333333331</ele><time>2026-05-01T07:09:09.659Z</time></trkpt><trkpt lat="44.435035" lon="11.0570783"><ele>192.66666666666666</ele><time>2026-05-01T07:09:11.656Z</time></trkpt><trkpt lat="44.43495" lon="11.0570967"><ele>192.5</ele><time>2026-05-01T07:09:14.667Z</time></trkpt><trkpt lat="44.4349283" lon="11.05718"><ele>192.33333333333331</ele><time>2026-05-01T07:19:07.662Z</time></trkpt><trkpt lat="44.4350183" lon="11.057135"><ele>192.16666666666666</ele><time>2026-05-01T07:19:10.66Z</time></trkpt><trkpt lat="44.4350767" lon="11.0570917"><ele>192.0</ele><time>2026-05-01T07:19:12.66Z</time></trkpt><trkpt lat="44.4351167" lon="11.0569767"><ele>192.0</ele><time>2026-05-01T07:19:14.662Z</time></trkpt><trkpt lat="44.4351267" lon="11.05687"><ele>192.0</ele><time>2026-05-01T07:19:15.666Z</time></trkpt><trkpt lat="44.4351417" lon="11.0567417"><ele>192.0</ele><time>2026-05-01T07:19:16.662Z</time></trkpt><trkpt lat="44.4351583" lon="11.05659"><ele>192.0</ele><time>2026-05-01T07:19:17.662Z</time></trkpt><trkpt lat="44.4351767" lon="11.05642"><ele>192.0</ele><time>2026-05-01T07:19:18.663Z</time></trkpt><trkpt lat="44.4351917" lon="11.0562483"><ele>192.0</ele><time>2026-05-01T07:19:19.663Z</time></trkpt><trkpt lat="44.4352017" lon="11.0560767"><ele>192.0</ele><time>2026-05-01T07:19:20.666Z</time></trkpt><trkpt lat="44.43521" lon="11.0559033"><ele>192.0</ele><time>2026-05-01T07:19:21.66Z</time></trkpt><trkpt lat="44.4352217" lon="11.05573"><ele>192.0</ele><time>2026-05-01T07:19:22.66Z</time></trkpt><trkpt lat="44.43523" lon="11.055545"><ele>191.75</ele><time>2026-05-01T07:19:23.662Z</time></trkpt><trkpt lat="44.4352383" lon="11.0553567"><ele>191.5</ele><time>2026-05-01T07:19:24.66Z</time></trkpt><trkpt lat="44.4352483" lon="11.055165"><ele>191.25</ele><time>2026-05-01T07:19:25.665Z</time></trkpt><trkpt lat="44.43526" lon="11.0549667"><ele>191.0</ele><time>2026-05-01T07:19:26.664Z</time></trkpt><trkpt lat="44.4352717" lon="11.0547617"><ele>191.66666666666666</ele><time>2026-05-01T07:19:27.661Z</time></trkpt><trkpt lat="44.4352817" lon="11.054545"><ele>192.33333333333331</ele><time>2026-05-01T07:19:28.666Z</time></trkpt><trkpt lat="44.4352933" lon="11.05432"><ele>193.0</ele><time>2026-05-01T07:19:29.664Z</time></trkpt><trkpt lat="44.4353033" lon="11.0540967"><ele>193.0</ele><time>2026-05-01T07:19:30.662Z</time></trkpt><trkpt lat="44.435315" lon="11.0538783"><ele>193.0</ele><time>2026-05-01T07:19:31.663Z</time></trkpt><trkpt lat="44.4353283" lon="11.0536633"><ele>193.0</ele><time>2026-05-01T07:19:32.663Z</time></trkpt><trkpt lat="44.4353433" lon="11.0534483"><ele>191.75</ele><time>2026-05-01T07:19:33.66Z</time></trkpt><trkpt lat="44.43536" lon="11.0532417"><ele>190.5</ele><time>2026-05-01T07:19:34.662Z</time></trkpt><trkpt lat="44.4353833" lon="11.0530467"><ele>189.25</ele><time>2026-05-01T07:19:35.666Z</time></trkpt><trkpt lat="44.435415" lon="11.0528683"><ele>188.0</ele><time>2026-05-01T07:19:36.662Z</time></trkpt><trkpt lat="44.4354583" lon="11.0526983"><ele>187.25</ele><time>2026-05-01T07:19:37.663Z</time></trkpt><trkpt lat="44.4355083" lon="11.0525383"><ele>186.5</ele><time>2026-05-01T07:19:38.663Z</time></trkpt><trkpt lat="44.4355633" lon="11.0523917"><ele>185.75</ele><time>2026-05-01T07:19:39.662Z</time></trkpt><trkpt lat="44.435625" lon="11.05226"><ele>185.0</ele><time>2026-05-01T07:19:40.666Z</time></trkpt><trkpt lat="44.4356867" lon="11.0521383"><ele>185.0</ele><time>2026-05-01T07:19:41.66Z</time></trkpt><trkpt lat="44.4357483" lon="11.052025"><ele>185.0</ele><time>2026-05-01T07:19:42.661Z</time></trkpt><trkpt lat="44.4358033" lon="11.05193"><ele>185.0</ele><time>2026-05-01T07:19:43.658Z</time></trkpt><trkpt lat="44.43585" lon="11.0518483"><ele>185.0</ele><time>2026-05-01T07:19:44.661Z</time></trkpt><trkpt lat="44.4358933" lon="11.051715"><ele>185.0</ele><time>2026-05-01T07:19:46.661Z</time></trkpt><trkpt lat="44.4358267" lon="11.0516017"><ele>185.2</ele><time>2026-05-01T07:19:48.664Z</time></trkpt><trkpt lat="44.4357567" lon="11.05152"><ele>185.4</ele><time>2026-05-01T07:19:49.667Z</time></trkpt><trkpt lat="44.4356733" lon="11.0514283"><ele>185.60000000000002</ele><time>2026-05-01T07:19:50.659Z</time></trkpt><trkpt lat="44.4355867" lon="11.051325"><ele>185.8</ele><time>2026-05-01T07:19:51.662Z</time></trkpt><trkpt lat="44.4354983" lon="11.0512033"><ele>186.0</ele><time>2026-05-01T07:19:52.668Z</time></trkpt><trkpt lat="44.4353983" lon="11.0510783"><ele>186.0</ele><time>2026-05-01T07:19:53.659Z</time></trkpt><trkpt lat="44.4352967" lon="11.0509517"><ele>186.0</ele><time>2026-05-01T07:19:54.661Z</time></trkpt><trkpt lat="44.4351967" lon="11.0508233"><ele>186.0</ele><time>2026-05-01T07:19:55.66Z</time></trkpt><trkpt lat="44.435095" lon="11.0506917"><ele>186.0</ele><time>2026-05-01T07:19:56.662Z</time></trkpt><trkpt lat="44.4349933" lon="11.050555"><ele>186.0</ele><time>2026-05-01T07:19:57.658Z</time></trkpt><trkpt lat="44.434885" lon="11.05041"><ele>186.0</ele><time>2026-05-01T07:19:58.662Z</time></trkpt><trkpt lat="44.434775" lon="11.0502633"><ele>186.0</ele><time>2026-05-01T07:19:59.659Z</time></trkpt><trkpt lat="44.4346733" lon="11.0501283"><ele>186.0</ele><time>2026-05-01T07:20:00.663Z</time></trkpt><trkpt lat="44.43458" lon="11.050005"><ele>186.5</ele><time>2026-05-01T07:20:01.66Z</time></trkpt><trkpt lat="44.4344867" lon="11.0498833"><ele>187.0</ele><time>2026-05-01T07:20:02.659Z</time></trkpt><trkpt lat="44.4343917" lon="11.0497617"><ele>187.5</ele><time>2026-05-01T07:20:03.659Z</time></trkpt><trkpt lat="44.4343017" lon="11.0496483"><ele>188.0</ele><time>2026-05-01T07:20:04.666Z</time></trkpt><trkpt lat="44.4342183" lon="11.0495467"><ele>188.0</ele><time>2026-05-01T07:20:05.662Z</time></trkpt><trkpt lat="44.4341383" lon="11.0494467"><ele>188.0</ele><time>2026-05-01T07:20:06.659Z</time></trkpt><trkpt lat="44.4340633" lon="11.049355"><ele>188.0</ele><time>2026-05-01T07:20:07.66Z</time></trkpt><trkpt lat="44.4339883" lon="11.049265"><ele>188.0</ele><time>2026-05-01T07:20:08.66Z</time></trkpt><trkpt lat="44.43391" lon="11.0491733"><ele>188.0</ele><time>2026-05-01T07:20:09.661Z</time></trkpt><trkpt lat="44.4338267" lon="11.0490717"><ele>188.4</ele><time>2026-05-01T07:20:10.658Z</time></trkpt><trkpt lat="44.43374" lon="11.048965"><ele>188.8</ele><time>2026-05-01T07:20:11.662Z</time></trkpt><trkpt lat="44.4336617" lon="11.04887"><ele>189.2</ele><time>2026-05-01T07:20:12.665Z</time></trkpt><trkpt lat="44.4335917" lon="11.048785"><ele>189.6</ele><time>2026-05-01T07:20:13.658Z</time></trkpt><trkpt lat="44.4335267" lon="11.0487017"><ele>190.0</ele><time>2026-05-01T07:20:14.662Z</time></trkpt><trkpt lat="44.4334633" lon="11.048625"><ele>190.0</ele><time>2026-05-01T07:20:15.659Z</time></trkpt><trkpt lat="44.4333983" lon="11.04855"><ele>190.0</ele><time>2026-05-01T07:20:16.659Z</time></trkpt><trkpt lat="44.433335" lon="11.0484667"><ele>190.0</ele><time>2026-05-01T07:20:17.661Z</time></trkpt><trkpt lat="44.4332683" lon="11.04838"><ele>190.0</ele><time>2026-05-01T07:20:18.67Z</time></trkpt><trkpt lat="44.4332" lon="11.048285"><ele>190.0</ele><time>2026-05-01T07:20:19.661Z</time></trkpt><trkpt lat="44.4331267" lon="11.0481817"><ele>190.0</ele><time>2026-05-01T07:20:20.661Z</time></trkpt><trkpt lat="44.433045" lon="11.0480683"><ele>190.0</ele><time>2026-05-01T07:20:21.66Z</time></trkpt><trkpt lat="44.43296" lon="11.0479417"><ele>190.0</ele><time>2026-05-01T07:20:22.661Z</time></trkpt><trkpt lat="44.4328717" lon="11.0478033"><ele>190.0</ele><time>2026-05-01T07:20:23.661Z</time></trkpt><trkpt lat="44.43279" lon="11.04766"><ele>190.0</ele><time>2026-05-01T07:20:24.657Z</time></trkpt><trkpt lat="44.43271" lon="11.04751"><ele>190.0</ele><time>2026-05-01T07:20:25.665Z</time></trkpt><trkpt lat="44.43263" lon="11.0473517"><ele>190.0</ele><time>2026-05-01T07:20:26.661Z</time></trkpt><trkpt lat="44.432545" lon="11.047195"><ele>190.0</ele><time>2026-05-01T07:20:27.661Z</time></trkpt><trkpt lat="44.4324567" lon="11.0470333"><ele>189.75</ele><time>2026-05-01T07:20:28.662Z</time></trkpt><trkpt lat="44.4323667" lon="11.0468767"><ele>189.5</ele><time>2026-05-01T07:20:29.66Z</time></trkpt><trkpt lat="44.43228" lon="11.0467217"><ele>189.25</ele><time>2026-05-01T07:20:30.658Z</time></trkpt><trkpt lat="44.4321967" lon="11.04657"><ele>189.0</ele><time>2026-05-01T07:20:31.659Z</time></trkpt><trkpt lat="44.43211" lon="11.046415"><ele>190.0</ele><time>2026-05-01T07:20:32.659Z</time></trkpt><trkpt lat="44.43202" lon="11.0462567"><ele>191.0</ele><time>2026-05-01T07:20:33.66Z</time></trkpt><trkpt lat="44.4319267" lon="11.0460983"><ele>192.0</ele><time>2026-05-01T07:20:34.661Z</time></trkpt><trkpt lat="44.431835" lon="11.0459467"><ele>193.0</ele><time>2026-05-01T07:20:35.658Z</time></trkpt><trkpt lat="44.4317417" lon="11.0458"><ele>193.5</ele><time>2026-05-01T07:20:36.66Z</time></trkpt><trkpt lat="44.4316467" lon="11.0456467"><ele>194.0</ele><time>2026-05-01T07:20:37.659Z</time></trkpt><trkpt lat="44.431555" lon="11.0454967"><ele>194.5</ele><time>2026-05-01T07:20:38.659Z</time></trkpt><trkpt lat="44.4314667" lon="11.0453517"><ele>195.0</ele><time>2026-05-01T07:20:39.659Z</time></trkpt><trkpt lat="44.4313783" lon="11.0452067"><ele>195.0</ele><time>2026-05-01T07:20:40.659Z</time></trkpt><trkpt lat="44.4312883" lon="11.045065"><ele>195.0</ele><time>2026-05-01T07:20:41.659Z</time></trkpt><trkpt lat="44.4312" lon="11.0449183"><ele>195.0</ele><time>2026-05-01T07:20:42.659Z</time></trkpt><trkpt lat="44.4311117" lon="11.0447683"><ele>195.0</ele><time>2026-05-01T07:20:43.658Z</time></trkpt><trkpt lat="44.431025" lon="11.04462"><ele>195.0</ele><time>2026-05-01T07:20:44.659Z</time></trkpt><trkpt lat="44.4309367" lon="11.0444683"><ele>195.0</ele><time>2026-05-01T07:20:45.66Z</time></trkpt><trkpt lat="44.4308433" lon="11.0443183"><ele>195.0</ele><time>2026-05-01T07:20:46.659Z</time></trkpt><trkpt lat="44.4307433" lon="11.044165"><ele>195.0</ele><time>2026-05-01T07:20:47.659Z</time></trkpt><trkpt lat="44.4306433" lon="11.0440017"><ele>196.0</ele><time>2026-05-01T07:20:48.659Z</time></trkpt><trkpt lat="44.430545" lon="11.0438417"><ele>197.0</ele><time>2026-05-01T07:20:49.659Z</time></trkpt><trkpt lat="44.4304467" lon="11.0436783"><ele>198.0</ele><time>2026-05-01T07:20:50.659Z</time></trkpt><trkpt lat="44.43035" lon="11.0435183"><ele>198.0</ele><time>2026-05-01T07:20:51.66Z</time></trkpt><trkpt lat="44.430255" lon="11.0433567"><ele>198.0</ele><time>2026-05-01T07:20:52.659Z</time></trkpt><trkpt lat="44.4301583" lon="11.0431967"><ele>198.0</ele><time>2026-05-01T07:20:53.658Z</time></trkpt><trkpt lat="44.430055" lon="11.043035"><ele>198.33333333333331</ele><time>2026-05-01T07:20:54.661Z</time></trkpt><trkpt lat="44.4299517" lon="11.0428633"><ele>198.66666666666666</ele><time>2026-05-01T07:20:55.66Z</time></trkpt><trkpt lat="44.429845" lon="11.0426833"><ele>199.0</ele><time>2026-05-01T07:20:56.66Z</time></trkpt><trkpt lat="44.4297367" lon="11.042495"><ele>199.33333333333331</ele><time>2026-05-01T07:20:57.658Z</time></trkpt><trkpt lat="44.429625" lon="11.0423133"><ele>199.66666666666669</ele><time>2026-05-01T07:20:58.659Z</time></trkpt><trkpt lat="44.4295133" lon="11.0421333"><ele>200.0</ele><time>2026-05-01T07:20:59.659Z</time></trkpt><trkpt lat="44.4293933" lon="11.0419517"><ele>200.0</ele><time>2026-05-01T07:21:00.659Z</time></trkpt><trkpt lat="44.4292717" lon="11.041775"><ele>200.0</ele><time>2026-05-01T07:21:01.659Z</time></trkpt><trkpt lat="44.429155" lon="11.0416"><ele>200.0</ele><time>2026-05-01T07:21:02.66Z</time></trkpt><trkpt lat="44.4290433" lon="11.0414217"><ele>200.5</ele><time>2026-05-01T07:21:03.66Z</time></trkpt><trkpt lat="44.42895" lon="11.0412517"><ele>201.0</ele><time>2026-05-01T07:21:04.66Z</time></trkpt><trkpt lat="44.4288667" lon="11.0410983"><ele>201.5</ele><time>2026-05-01T07:21:05.659Z</time></trkpt><trkpt lat="44.42877" lon="11.0409567"><ele>202.0</ele><time>2026-05-01T07:21:06.658Z</time></trkpt><trkpt lat="44.4286517" lon="11.0408333"><ele>202.66666666666666</ele><time>2026-05-01T07:21:07.658Z</time></trkpt><trkpt lat="44.428515" lon="11.0407133"><ele>203.33333333333331</ele><time>2026-05-01T07:21:08.66Z</time></trkpt><trkpt lat="44.428375" lon="11.0405817"><ele>204.0</ele><time>2026-05-01T07:21:09.659Z</time></trkpt><trkpt lat="44.4282383" lon="11.0404383"><ele>204.0</ele><time>2026-05-01T07:21:10.658Z</time></trkpt><trkpt lat="44.4281083" lon="11.0403117"><ele>204.0</ele><time>2026-05-01T07:21:11.658Z</time></trkpt><trkpt lat="44.4279933" lon="11.040205"><ele>204.0</ele><time>2026-05-01T07:21:12.658Z</time></trkpt><trkpt lat="44.4279017" lon="11.0401"><ele>204.0</ele><time>2026-05-01T07:21:13.659Z</time></trkpt><trkpt lat="44.4278333" lon="11.0399683"><ele>204.0</ele><time>2026-05-01T07:21:14.66Z</time></trkpt><trkpt lat="44.4277983" lon="11.03982"><ele>204.0</ele><time>2026-05-01T07:21:15.659Z</time></trkpt><trkpt lat="44.4277967" lon="11.0396517"><ele>204.0</ele><time>2026-05-01T07:21:16.659Z</time></trkpt><trkpt lat="44.427815" lon="11.0394783"><ele>204.0</ele><time>2026-05-01T07:21:17.661Z</time></trkpt><trkpt lat="44.4278333" lon="11.0393067"><ele>204.0</ele><time>2026-05-01T07:21:18.659Z</time></trkpt><trkpt lat="44.427815" lon="11.03915"><ele>204.0</ele><time>2026-05-01T07:21:19.658Z</time></trkpt><trkpt lat="44.4277567" lon="11.0390017"><ele>204.0</ele><time>2026-05-01T07:21:20.66Z</time></trkpt><trkpt lat="44.4276617" lon="11.0388483"><ele>204.0</ele><time>2026-05-01T07:21:21.658Z</time></trkpt><trkpt lat="44.427545" lon="11.0386833"><ele>204.66666666666669</ele><time>2026-05-01T07:21:22.658Z</time></trkpt><trkpt lat="44.4274333" lon="11.038485"><ele>205.33333333333334</ele><time>2026-05-01T07:21:23.66Z</time></trkpt><trkpt lat="44.427335" lon="11.038255"><ele>206.0</ele><time>2026-05-01T07:21:24.66Z</time></trkpt><trkpt lat="44.427235" lon="11.0380067"><ele>205.66666666666669</ele><time>2026-05-01T07:21:25.66Z</time></trkpt><trkpt lat="44.4271283" lon="11.0377433"><ele>205.33333333333331</ele><time>2026-05-01T07:21:26.661Z</time></trkpt><trkpt lat="44.4270117" lon="11.0374817"><ele>205.0</ele><time>2026-05-01T07:21:27.659Z</time></trkpt><trkpt lat="44.426895" lon="11.0372333"><ele>207.0</ele><time>2026-05-01T07:21:28.66Z</time></trkpt><trkpt lat="44.4267817" lon="11.037"><ele>209.0</ele><time>2026-05-01T07:21:29.657Z</time></trkpt><trkpt lat="44.42667" lon="11.0367767"><ele>211.0</ele><time>2026-05-01T07:21:30.659Z</time></trkpt><trkpt lat="44.4265567" lon="11.0365667"><ele>211.33333333333331</ele><time>2026-05-01T07:21:31.66Z</time></trkpt><trkpt lat="44.42644" lon="11.0363683"><ele>211.66666666666669</ele><time>2026-05-01T07:21:32.66Z</time></trkpt><trkpt lat="44.4263267" lon="11.0361833"><ele>212.0</ele><time>2026-05-01T07:21:33.66Z</time></trkpt><trkpt lat="44.42621" lon="11.0360067"><ele>212.0</ele><time>2026-05-01T07:21:34.659Z</time></trkpt><trkpt lat="44.4260867" lon="11.0358417"><ele>212.0</ele><time>2026-05-01T07:21:35.66Z</time></trkpt><trkpt lat="44.4259533" lon="11.0356917"><ele>212.0</ele><time>2026-05-01T07:21:36.66Z</time></trkpt><trkpt lat="44.4258183" lon="11.0355383"><ele>211.33333333333334</ele><time>2026-05-01T07:21:37.66Z</time></trkpt><trkpt lat="44.42569" lon="11.03538"><ele>210.66666666666669</ele><time>2026-05-01T07:21:38.659Z</time></trkpt><trkpt lat="44.4255767" lon="11.0352317"><ele>210.0</ele><time>2026-05-01T07:21:39.659Z</time></trkpt><trkpt lat="44.4254767" lon="11.0350983"><ele>210.0</ele><time>2026-05-01T07:21:40.657Z</time></trkpt><trkpt lat="44.4253817" lon="11.0349833"><ele>210.0</ele><time>2026-05-01T07:21:41.658Z</time></trkpt><trkpt lat="44.4253" lon="11.034875"><ele>210.0</ele><time>2026-05-01T07:21:42.659Z</time></trkpt><trkpt lat="44.4252283" lon="11.0347767"><ele>210.0</ele><time>2026-05-01T07:21:43.658Z</time></trkpt><trkpt lat="44.4251533" lon="11.0346917"><ele>210.0</ele><time>2026-05-01T07:21:44.659Z</time></trkpt><trkpt lat="44.4250733" lon="11.0346167"><ele>210.5</ele><time>2026-05-01T07:21:45.658Z</time></trkpt><trkpt lat="44.4249767" lon="11.0345567"><ele>211.0</ele><time>2026-05-01T07:21:46.658Z</time></trkpt><trkpt lat="44.4248717" lon="11.0344933"><ele>211.5</ele><time>2026-05-01T07:21:47.659Z</time></trkpt><trkpt lat="44.42476" lon="11.0344367"><ele>212.0</ele><time>2026-05-01T07:21:48.658Z</time></trkpt><trkpt lat="44.424645" lon="11.0343867"><ele>212.6</ele><time>2026-05-01T07:21:49.659Z</time></trkpt><trkpt lat="44.4245267" lon="11.0343483"><ele>213.2</ele><time>2026-05-01T07:21:50.662Z</time></trkpt><trkpt lat="44.4244183" lon="11.0343033"><ele>213.8</ele><time>2026-05-01T07:21:51.661Z</time></trkpt><trkpt lat="44.4243233" lon="11.034245"><ele>214.4</ele><time>2026-05-01T07:21:52.659Z</time></trkpt><trkpt lat="44.4242367" lon="11.0341683"><ele>215.0</ele><time>2026-05-01T07:21:53.658Z</time></trkpt><trkpt lat="44.42416" lon="11.0340783"><ele>215.2</ele><time>2026-05-01T07:21:54.659Z</time></trkpt><trkpt lat="44.42408" lon="11.033995"><ele>215.4</ele><time>2026-05-01T07:21:55.66Z</time></trkpt><trkpt lat="44.4239783" lon="11.0339483"><ele>215.60000000000002</ele><time>2026-05-01T07:21:56.659Z</time></trkpt><trkpt lat="44.4238683" lon="11.0339233"><ele>215.8</ele><time>2026-05-01T07:21:57.658Z</time></trkpt><trkpt lat="44.42376" lon="11.0339083"><ele>216.0</ele><time>2026-05-01T07:21:58.659Z</time></trkpt><trkpt lat="44.423655" lon="11.0338917"><ele>216.8</ele><time>2026-05-01T07:21:59.658Z</time></trkpt><trkpt lat="44.4235483" lon="11.0338783"><ele>217.60000000000002</ele><time>2026-05-01T07:22:00.658Z</time></trkpt><trkpt lat="44.423445" lon="11.0338683"><ele>218.4</ele><time>2026-05-01T07:22:01.658Z</time></trkpt><trkpt lat="44.42334" lon="11.0338633"><ele>219.2</ele><time>2026-05-01T07:22:02.659Z</time></trkpt><trkpt lat="44.4232483" lon="11.0338667"><ele>220.0</ele><time>2026-05-01T07:22:03.657Z</time></trkpt><trkpt lat="44.4231617" lon="11.0338667"><ele>219.99999999999997</ele><time>2026-05-01T07:22:04.661Z</time></trkpt><trkpt lat="44.4230867" lon="11.0338567"><ele>220.0</ele><time>2026-05-01T07:22:05.659Z</time></trkpt><trkpt lat="44.4230017" lon="11.0338367"><ele>220.0</ele><time>2026-05-01T07:22:06.659Z</time></trkpt><trkpt lat="44.422915" lon="11.033785"><ele>220.0</ele><time>2026-05-01T07:22:07.659Z</time></trkpt><trkpt lat="44.42284" lon="11.0337067"><ele>219.99999999999997</ele><time>2026-05-01T07:22:08.66Z</time></trkpt><trkpt lat="44.4227733" lon="11.0336083"><ele>220.0</ele><time>2026-05-01T07:22:09.657Z</time></trkpt><trkpt lat="44.4227017" lon="11.0335067"><ele>220.83333333333331</ele><time>2026-05-01T07:22:10.658Z</time></trkpt><trkpt lat="44.422635" lon="11.0334033"><ele>221.66666666666666</ele><time>2026-05-01T07:22:11.657Z</time></trkpt><trkpt lat="44.4225717" lon="11.0333083"><ele>222.5</ele><time>2026-05-01T07:22:12.659Z</time></trkpt><trkpt lat="44.42252" lon="11.0332167"><ele>223.33333333333331</ele><time>2026-05-01T07:22:13.657Z</time></trkpt><trkpt lat="44.4224767" lon="11.0331183"><ele>224.16666666666666</ele><time>2026-05-01T07:22:14.659Z</time></trkpt><trkpt lat="44.42244" lon="11.0330083"><ele>225.0</ele><time>2026-05-01T07:22:15.658Z</time></trkpt><trkpt lat="44.4224233" lon="11.0328867"><ele>225.0</ele><time>2026-05-01T07:22:16.659Z</time></trkpt><trkpt lat="44.4224067" lon="11.0327567"><ele>225.0</ele><time>2026-05-01T07:22:17.659Z</time></trkpt><trkpt lat="44.422385" lon="11.03263"><ele>225.0</ele><time>2026-05-01T07:22:18.658Z</time></trkpt><trkpt lat="44.4223617" lon="11.0324983"><ele>225.0</ele><time>2026-05-01T07:22:19.658Z</time></trkpt><trkpt lat="44.4223417" lon="11.0323717"><ele>225.0</ele><time>2026-05-01T07:22:20.658Z</time></trkpt><trkpt lat="44.422325" lon="11.0322383"><ele>225.6</ele><time>2026-05-01T07:22:21.659Z</time></trkpt><trkpt lat="44.42231" lon="11.0320983"><ele>226.2</ele><time>2026-05-01T07:22:22.658Z</time></trkpt><trkpt lat="44.4222867" lon="11.0319517"><ele>226.8</ele><time>2026-05-01T07:22:23.657Z</time></trkpt><trkpt lat="44.4222583" lon="11.0318033"><ele>227.4</ele><time>2026-05-01T07:22:24.659Z</time></trkpt><trkpt lat="44.4222267" lon="11.031665"><ele>228.0</ele><time>2026-05-01T07:22:25.658Z</time></trkpt><trkpt lat="44.4221733" lon="11.0315417"><ele>232.60000000000002</ele><time>2026-05-01T07:22:26.658Z</time></trkpt><trkpt lat="44.422115" lon="11.031415"><ele>237.20000000000002</ele><time>2026-05-01T07:22:27.659Z</time></trkpt><trkpt lat="44.4220583" lon="11.0312933"><ele>241.8</ele><time>2026-05-01T07:22:28.659Z</time></trkpt><trkpt lat="44.422005" lon="11.03118"><ele>246.4</ele><time>2026-05-01T07:22:29.658Z</time></trkpt><trkpt lat="44.421945" lon="11.031065"><ele>251.0</ele><time>2026-05-01T07:22:30.658Z</time></trkpt><trkpt lat="44.421885" lon="11.0309667"><ele>251.00000000000003</ele><time>2026-05-01T07:22:31.656Z</time></trkpt><trkpt lat="44.4218317" lon="11.030875"><ele>251.0</ele><time>2026-05-01T07:22:32.661Z</time></trkpt><trkpt lat="44.4217867" lon="11.030775"><ele>251.0</ele><time>2026-05-01T07:22:33.658Z</time></trkpt><trkpt lat="44.4217517" lon="11.0306733"><ele>251.0</ele><time>2026-05-01T07:22:34.658Z</time></trkpt><trkpt lat="44.42174" lon="11.030525"><ele>251.00000000000003</ele><time>2026-05-01T07:22:36.659Z</time></trkpt><trkpt lat="44.4217583" lon="11.0303967"><ele>251.0</ele><time>2026-05-01T07:22:38.66Z</time></trkpt><trkpt lat="44.421775" lon="11.0302333"><ele>252.1428571428571</ele><time>2026-05-01T07:22:40.659Z</time></trkpt><trkpt lat="44.42178" lon="11.0301383"><ele>253.28571428571428</ele><time>2026-05-01T07:22:41.66Z</time></trkpt><trkpt lat="44.421775" lon="11.0300433"><ele>254.42857142857142</ele><time>2026-05-01T07:22:42.662Z</time></trkpt><trkpt lat="44.4217567" lon="11.0299417"><ele>255.57142857142856</ele><time>2026-05-01T07:22:43.66Z</time></trkpt><trkpt lat="44.421735" lon="11.0298417"><ele>256.7142857142857</ele><time>2026-05-01T07:22:44.659Z</time></trkpt><trkpt lat="44.421705" lon="11.029755"><ele>257.85714285714283</ele><time>2026-05-01T07:22:45.657Z</time></trkpt><trkpt lat="44.4216683" lon="11.0296717"><ele>259.0</ele><time>2026-05-01T07:22:46.657Z</time></trkpt><trkpt lat="44.4216267" lon="11.0295933"><ele>260.4</ele><time>2026-05-01T07:22:47.659Z</time></trkpt><trkpt lat="44.4215567" lon="11.0294617"><ele>261.79999999999995</ele><time>2026-05-01T07:22:49.659Z</time></trkpt><trkpt lat="44.4215367" lon="11.029305"><ele>263.20000000000005</ele><time>2026-05-01T07:22:51.659Z</time></trkpt><trkpt lat="44.4215567" lon="11.0292033"><ele>264.6</ele><time>2026-05-01T07:22:52.661Z</time></trkpt><trkpt lat="44.4215883" lon="11.029105"><ele>266.0</ele><time>2026-05-01T07:22:53.659Z</time></trkpt><trkpt lat="44.4216283" lon="11.029015"><ele>267.0</ele><time>2026-05-01T07:22:54.659Z</time></trkpt><trkpt lat="44.4216733" lon="11.028935"><ele>268.0</ele><time>2026-05-01T07:22:55.659Z</time></trkpt><trkpt lat="44.42173" lon="11.0288517"><ele>269.0</ele><time>2026-05-01T07:22:56.658Z</time></trkpt><trkpt lat="44.4217883" lon="11.0287617"><ele>270.0</ele><time>2026-05-01T07:22:57.657Z</time></trkpt><trkpt lat="44.42184" lon="11.0286567"><ele>271.0</ele><time>2026-05-01T07:22:58.658Z</time></trkpt><trkpt lat="44.4218833" lon="11.0285433"><ele>272.0</ele><time>2026-05-01T07:22:59.657Z</time></trkpt><trkpt lat="44.4219133" lon="11.0284267"><ele>272.0</ele><time>2026-05-01T07:23:00.659Z</time></trkpt><trkpt lat="44.4219317" lon="11.028315"><ele>272.0</ele><time>2026-05-01T07:23:01.658Z</time></trkpt><trkpt lat="44.4219283" lon="11.0281967"><ele>272.0</ele><time>2026-05-01T07:23:02.66Z</time></trkpt><trkpt lat="44.4219017" lon="11.0280683"><ele>272.0</ele><time>2026-05-01T07:23:03.66Z</time></trkpt><trkpt lat="44.4218533" lon="11.0279267"><ele>272.0</ele><time>2026-05-01T07:23:04.659Z</time></trkpt><trkpt lat="44.4218067" lon="11.0277883"><ele>272.0</ele><time>2026-05-01T07:23:05.657Z</time></trkpt><trkpt lat="44.4217667" lon="11.0276517"><ele>272.0</ele><time>2026-05-01T07:23:06.659Z</time></trkpt><trkpt lat="44.4217383" lon="11.027515"><ele>272.0</ele><time>2026-05-01T07:23:07.659Z</time></trkpt><trkpt lat="44.4217083" lon="11.027395"><ele>272.0</ele><time>2026-05-01T07:23:08.661Z</time></trkpt><trkpt lat="44.4216833" lon="11.0272933"><ele>272.0</ele><time>2026-05-01T07:23:09.659Z</time></trkpt><trkpt lat="44.42165" lon="11.0272017"><ele>272.0</ele><time>2026-05-01T07:23:10.657Z</time></trkpt><trkpt lat="44.4215983" lon="11.027125"><ele>272.0</ele><time>2026-05-01T07:23:11.658Z</time></trkpt><trkpt lat="44.4215383" lon="11.02706"><ele>272.0</ele><time>2026-05-01T07:23:12.658Z</time></trkpt><trkpt lat="44.42147" lon="11.026995"><ele>272.0</ele><time>2026-05-01T07:23:13.659Z</time></trkpt><trkpt lat="44.4213967" lon="11.02693"><ele>272.0</ele><time>2026-05-01T07:23:14.659Z</time></trkpt><trkpt lat="44.421315" lon="11.0268667"><ele>272.0</ele><time>2026-05-01T07:23:15.659Z</time></trkpt><trkpt lat="44.421225" lon="11.02681"><ele>272.0</ele><time>2026-05-01T07:23:16.658Z</time></trkpt><trkpt lat="44.42114" lon="11.02675"><ele>273.4</ele><time>2026-05-01T07:23:17.658Z</time></trkpt><trkpt lat="44.4210617" lon="11.0266817"><ele>274.79999999999995</ele><time>2026-05-01T07:23:18.66Z</time></trkpt><trkpt lat="44.420985" lon="11.0266083"><ele>276.2</ele><time>2026-05-01T07:23:19.659Z</time></trkpt><trkpt lat="44.420905" lon="11.026535"><ele>277.59999999999997</ele><time>2026-05-01T07:23:20.66Z</time></trkpt><trkpt lat="44.420815" lon="11.0264817"><ele>279.0</ele><time>2026-05-01T07:23:21.661Z</time></trkpt><trkpt lat="44.4207167" lon="11.0264467"><ele>279.0</ele><time>2026-05-01T07:23:22.659Z</time></trkpt><trkpt lat="44.4206283" lon="11.0264117"><ele>279.0</ele><time>2026-05-01T07:23:23.657Z</time></trkpt><trkpt lat="44.42054" lon="11.02637"><ele>279.0</ele><time>2026-05-01T07:23:24.66Z</time></trkpt><trkpt lat="44.4204583" lon="11.02633"><ele>279.0</ele><time>2026-05-01T07:23:25.66Z</time></trkpt><trkpt lat="44.42038" lon="11.0263017"><ele>279.0</ele><time>2026-05-01T07:23:26.66Z</time></trkpt><trkpt lat="44.4203033" lon="11.0262983"><ele>279.0</ele><time>2026-05-01T07:23:27.658Z</time></trkpt><trkpt lat="44.4202267" lon="11.026315"><ele>281.59999999999997</ele><time>2026-05-01T07:23:28.659Z</time></trkpt><trkpt lat="44.4201383" lon="11.0263417"><ele>284.2</ele><time>2026-05-01T07:23:29.66Z</time></trkpt><trkpt lat="44.42005" lon="11.0263633"><ele>286.79999999999995</ele><time>2026-05-01T07:23:30.66Z</time></trkpt><trkpt lat="44.4199567" lon="11.0263883"><ele>289.4</ele><time>2026-05-01T07:23:31.66Z</time></trkpt><trkpt lat="44.4198617" lon="11.0264133"><ele>292.0</ele><time>2026-05-01T07:23:32.66Z</time></trkpt><trkpt lat="44.4197717" lon="11.0264367"><ele>292.0</ele><time>2026-05-01T07:23:33.658Z</time></trkpt><trkpt lat="44.4196817" lon="11.0264517"><ele>292.0</ele><time>2026-05-01T07:23:34.659Z</time></trkpt><trkpt lat="44.4195933" lon="11.026455"><ele>292.0</ele><time>2026-05-01T07:23:35.66Z</time></trkpt><trkpt lat="44.4195" lon="11.026445"><ele>292.0</ele><time>2026-05-01T07:23:36.661Z</time></trkpt><trkpt lat="44.4194117" lon="11.0264267"><ele>292.0</ele><time>2026-05-01T07:23:37.659Z</time></trkpt><trkpt lat="44.41932" lon="11.0264"><ele>295.0</ele><time>2026-05-01T07:23:38.66Z</time></trkpt><trkpt lat="44.4192367" lon="11.0263717"><ele>298.0</ele><time>2026-05-01T07:23:39.659Z</time></trkpt><trkpt lat="44.419155" lon="11.0263267"><ele>301.0</ele><time>2026-05-01T07:23:40.659Z</time></trkpt><trkpt lat="44.4190817" lon="11.0262767"><ele>304.0</ele><time>2026-05-01T07:23:41.659Z</time></trkpt><trkpt lat="44.4190217" lon="11.0262367"><ele>307.0</ele><time>2026-05-01T07:23:42.659Z</time></trkpt><trkpt lat="44.4189033" lon="11.026245"><ele>310.0</ele><time>2026-05-01T07:23:44.66Z</time></trkpt><trkpt lat="44.4188367" lon="11.02629"><ele>311.57142857142856</ele><time>2026-05-01T07:23:45.66Z</time></trkpt><trkpt lat="44.418775" lon="11.0263417"><ele>313.1428571428571</ele><time>2026-05-01T07:23:46.66Z</time></trkpt><trkpt lat="44.418715" lon="11.0263967"><ele>314.71428571428567</ele><time>2026-05-01T07:23:47.66Z</time></trkpt><trkpt lat="44.4186617" lon="11.0264617"><ele>316.2857142857143</ele><time>2026-05-01T07:23:48.664Z</time></trkpt><trkpt lat="44.418615" lon="11.0265283"><ele>317.85714285714283</ele><time>2026-05-01T07:23:49.66Z</time></trkpt><trkpt lat="44.41857" lon="11.02659"><ele>319.4285714285714</ele><time>2026-05-01T07:23:50.659Z</time></trkpt><trkpt lat="44.4184833" lon="11.0266633"><ele>321.0</ele><time>2026-05-01T07:23:52.658Z</time></trkpt><trkpt lat="44.4184" lon="11.026545"><ele>321.1666666666667</ele><time>2026-05-01T07:23:54.66Z</time></trkpt><trkpt lat="44.4183483" lon="11.02646"><ele>321.3333333333333</ele><time>2026-05-01T07:23:55.66Z</time></trkpt><trkpt lat="44.4182783" lon="11.02638"><ele>321.5</ele><time>2026-05-01T07:23:56.659Z</time></trkpt><trkpt lat="44.4182117" lon="11.02632"><ele>321.66666666666663</ele><time>2026-05-01T07:23:57.66Z</time></trkpt><trkpt lat="44.4181417" lon="11.026265"><ele>321.8333333333333</ele><time>2026-05-01T07:23:58.657Z</time></trkpt><trkpt lat="44.4180767" lon="11.02622"><ele>322.0</ele><time>2026-05-01T07:23:59.66Z</time></trkpt><trkpt lat="44.4180133" lon="11.0261817"><ele>322.5</ele><time>2026-05-01T07:24:00.66Z</time></trkpt><trkpt lat="44.4179483" lon="11.0261383"><ele>323.0</ele><time>2026-05-01T07:24:01.66Z</time></trkpt><trkpt lat="44.4178867" lon="11.02609"><ele>323.5</ele><time>2026-05-01T07:24:02.661Z</time></trkpt><trkpt lat="44.4178317" lon="11.026035"><ele>324.0</ele><time>2026-05-01T07:24:03.663Z</time></trkpt><trkpt lat="44.417785" lon="11.0259617"><ele>324.5</ele><time>2026-05-01T07:24:04.658Z</time></trkpt><trkpt lat="44.4177433" lon="11.02587"><ele>325.0</ele><time>2026-05-01T07:24:05.659Z</time></trkpt><trkpt lat="44.4177" lon="11.0257567"><ele>325.0</ele><time>2026-05-01T07:24:06.66Z</time></trkpt><trkpt lat="44.4176583" lon="11.025625"><ele>325.0</ele><time>2026-05-01T07:24:07.663Z</time></trkpt><trkpt lat="44.4176133" lon="11.0254817"><ele>325.0</ele><time>2026-05-01T07:24:08.661Z</time></trkpt><trkpt lat="44.41757" lon="11.0253433"><ele>325.0</ele><time>2026-05-01T07:24:09.66Z</time></trkpt><trkpt lat="44.4175217" lon="11.025205"><ele>325.0</ele><time>2026-05-01T07:24:10.66Z</time></trkpt><trkpt lat="44.4174733" lon="11.0250717"><ele>325.8</ele><time>2026-05-01T07:24:11.66Z</time></trkpt><trkpt lat="44.4174317" lon="11.024945"><ele>326.6</ele><time>2026-05-01T07:24:12.661Z</time></trkpt><trkpt lat="44.4174" lon="11.0248117"><ele>327.4</ele><time>2026-05-01T07:24:13.659Z</time></trkpt><trkpt lat="44.4173817" lon="11.02467"><ele>328.2</ele><time>2026-05-01T07:24:14.659Z</time></trkpt><trkpt lat="44.4173767" lon="11.0245317"><ele>329.0</ele><time>2026-05-01T07:24:15.66Z</time></trkpt><trkpt lat="44.4173833" lon="11.024405"><ele>329.0</ele><time>2026-05-01T07:24:16.66Z</time></trkpt><trkpt lat="44.4174" lon="11.02429"><ele>329.0</ele><time>2026-05-01T07:24:17.66Z</time></trkpt><trkpt lat="44.4174233" lon="11.0241967"><ele>329.0</ele><time>2026-05-01T07:24:18.661Z</time></trkpt><trkpt lat="44.417445" lon="11.0240517"><ele>329.0</ele><time>2026-05-01T07:24:20.659Z</time></trkpt><trkpt lat="44.4174333" lon="11.023895"><ele>329.0</ele><time>2026-05-01T07:24:22.657Z</time></trkpt><trkpt lat="44.4173817" lon="11.0237317"><ele>328.79999999999995</ele><time>2026-05-01T07:24:24.66Z</time></trkpt><trkpt lat="44.4173483" lon="11.0236517"><ele>328.59999999999997</ele><time>2026-05-01T07:24:25.66Z</time></trkpt><trkpt lat="44.4173033" lon="11.0235183"><ele>328.4</ele><time>2026-05-01T07:24:27.659Z</time></trkpt><trkpt lat="44.417245" lon="11.0233817"><ele>328.2</ele><time>2026-05-01T07:24:29.659Z</time></trkpt><trkpt lat="44.4171733" lon="11.0232833"><ele>328.0</ele><time>2026-05-01T07:24:31.662Z</time></trkpt><trkpt lat="44.4170867" lon="11.0232"><ele>329.16666666666663</ele><time>2026-05-01T07:24:33.661Z</time></trkpt><trkpt lat="44.4170333" lon="11.02315"><ele>330.3333333333333</ele><time>2026-05-01T07:24:34.66Z</time></trkpt><trkpt lat="44.4169783" lon="11.02308"><ele>331.5</ele><time>2026-05-01T07:24:35.662Z</time></trkpt><trkpt lat="44.4169133" lon="11.0229917"><ele>332.6666666666667</ele><time>2026-05-01T07:24:36.662Z</time></trkpt><trkpt lat="44.4168417" lon="11.0229117"><ele>333.83333333333337</ele><time>2026-05-01T07:24:37.659Z</time></trkpt><trkpt lat="44.4167767" lon="11.022865"><ele>335.0</ele><time>2026-05-01T07:24:38.66Z</time></trkpt><trkpt lat="44.4167067" lon="11.02282"><ele>335.0</ele><time>2026-05-01T07:24:39.66Z</time></trkpt><trkpt lat="44.41663" lon="11.02276"><ele>335.0</ele><time>2026-05-01T07:24:40.659Z</time></trkpt><trkpt lat="44.41656" lon="11.0226983"><ele>335.0</ele><time>2026-05-01T07:24:41.659Z</time></trkpt><trkpt lat="44.4164867" lon="11.02266"><ele>335.0</ele><time>2026-05-01T07:24:42.658Z</time></trkpt><trkpt lat="44.4164133" lon="11.0226617"><ele>335.0</ele><time>2026-05-01T07:24:43.66Z</time></trkpt><trkpt lat="44.4163317" lon="11.0226867"><ele>335.0</ele><time>2026-05-01T07:24:44.658Z</time></trkpt><trkpt lat="44.4162417" lon="11.0226967"><ele>335.6666666666667</ele><time>2026-05-01T07:24:45.659Z</time></trkpt><trkpt lat="44.4161517" lon="11.0226683"><ele>336.33333333333337</ele><time>2026-05-01T07:24:46.657Z</time></trkpt><trkpt lat="44.4160733" lon="11.0226367"><ele>337.0</ele><time>2026-05-01T07:24:47.661Z</time></trkpt><trkpt lat="44.4160117" lon="11.0226"><ele>337.6666666666667</ele><time>2026-05-01T07:24:48.659Z</time></trkpt><trkpt lat="44.415955" lon="11.0225417"><ele>338.3333333333333</ele><time>2026-05-01T07:24:49.66Z</time></trkpt><trkpt lat="44.4158983" lon="11.0224583"><ele>339.0</ele><time>2026-05-01T07:24:50.66Z</time></trkpt><trkpt lat="44.4158517" lon="11.0223583"><ele>339.79999999999995</ele><time>2026-05-01T07:24:51.665Z</time></trkpt><trkpt lat="44.4158183" lon="11.0222517"><ele>340.59999999999997</ele><time>2026-05-01T07:24:52.662Z</time></trkpt><trkpt lat="44.41578" lon="11.0221567"><ele>341.4</ele><time>2026-05-01T07:24:53.66Z</time></trkpt><trkpt lat="44.4157367" lon="11.022085"><ele>342.2</ele><time>2026-05-01T07:24:54.657Z</time></trkpt><trkpt lat="44.4156417" lon="11.0220183"><ele>343.0</ele><time>2026-05-01T07:24:56.66Z</time></trkpt><trkpt lat="44.4155333" lon="11.021955"><ele>344.8333333333333</ele><time>2026-05-01T07:24:58.66Z</time></trkpt><trkpt lat="44.41548" lon="11.0218967"><ele>346.66666666666663</ele><time>2026-05-01T07:24:59.661Z</time></trkpt><trkpt lat="44.415425" lon="11.0218383"><ele>348.5</ele><time>2026-05-01T07:25:00.658Z</time></trkpt><trkpt lat="44.4153733" lon="11.0217867"><ele>350.3333333333333</ele><time>2026-05-01T07:25:01.659Z</time></trkpt><trkpt lat="44.4152883" lon="11.0216933"><ele>352.1666666666667</ele><time>2026-05-01T07:25:03.658Z</time></trkpt><trkpt lat="44.4152183" lon="11.02158"><ele>354.0</ele><time>2026-05-01T07:25:05.66Z</time></trkpt><trkpt lat="44.41517" lon="11.0215167"><ele>354.7142857142857</ele><time>2026-05-01T07:25:06.66Z</time></trkpt><trkpt lat="44.4151183" lon="11.0214617"><ele>355.4285714285714</ele><time>2026-05-01T07:25:07.661Z</time></trkpt><trkpt lat="44.4150617" lon="11.0214083"><ele>356.1428571428571</ele><time>2026-05-01T07:25:08.66Z</time></trkpt><trkpt lat="44.415005" lon="11.021355"><ele>356.8571428571429</ele><time>2026-05-01T07:25:09.661Z</time></trkpt><trkpt lat="44.41495" lon="11.0213067"><ele>357.57142857142856</ele><time>2026-05-01T07:25:10.661Z</time></trkpt><trkpt lat="44.4148967" lon="11.0212567"><ele>358.2857142857143</ele><time>2026-05-01T07:25:11.66Z</time></trkpt><trkpt lat="44.414845" lon="11.021195"><ele>359.0</ele><time>2026-05-01T07:25:12.659Z</time></trkpt><trkpt lat="44.414805" lon="11.0211217"><ele>359.0</ele><time>2026-05-01T07:25:13.661Z</time></trkpt><trkpt lat="44.4147583" lon="11.0209867"><ele>359.0</ele><time>2026-05-01T07:25:15.658Z</time></trkpt><trkpt lat="44.414685" lon="11.0208933"><ele>359.0</ele><time>2026-05-01T07:25:17.66Z</time></trkpt><trkpt lat="44.4145933" lon="11.02078"><ele>359.0</ele><time>2026-05-01T07:25:19.66Z</time></trkpt><trkpt lat="44.414555" lon="11.02071"><ele>359.0</ele><time>2026-05-01T07:25:20.662Z</time></trkpt><trkpt lat="44.41452" lon="11.0206233"><ele>362.33333333333337</ele><time>2026-05-01T07:25:21.66Z</time></trkpt><trkpt lat="44.41448" lon="11.020535"><ele>365.6666666666667</ele><time>2026-05-01T07:25:22.66Z</time></trkpt><trkpt lat="44.4144283" lon="11.020455"><ele>369.0</ele><time>2026-05-01T07:25:23.659Z</time></trkpt><trkpt lat="44.4143733" lon="11.0203867"><ele>372.3333333333333</ele><time>2026-05-01T07:25:24.658Z</time></trkpt><trkpt lat="44.414315" lon="11.0203217"><ele>375.66666666666663</ele><time>2026-05-01T07:25:25.658Z</time></trkpt><trkpt lat="44.414255" lon="11.020245"><ele>379.0</ele><time>2026-05-01T07:25:26.66Z</time></trkpt><trkpt lat="44.414195" lon="11.020165"><ele>379.0</ele><time>2026-05-01T07:25:27.659Z</time></trkpt><trkpt lat="44.4141333" lon="11.020085"><ele>379.0</ele><time>2026-05-01T07:25:28.658Z</time></trkpt><trkpt lat="44.4140733" lon="11.02001"><ele>379.0</ele><time>2026-05-01T07:25:29.662Z</time></trkpt><trkpt lat="44.4140133" lon="11.0199333"><ele>379.0</ele><time>2026-05-01T07:25:30.66Z</time></trkpt><trkpt lat="44.4139517" lon="11.019855"><ele>379.0</ele><time>2026-05-01T07:25:31.659Z</time></trkpt><trkpt lat="44.4138967" lon="11.0197883"><ele>379.0</ele><time>2026-05-01T07:25:32.66Z</time></trkpt><trkpt lat="44.41381" lon="11.0196867"><ele>385.0</ele><time>2026-05-01T07:25:34.66Z</time></trkpt><trkpt lat="44.4137433" lon="11.0195883"><ele>391.0</ele><time>2026-05-01T07:25:36.659Z</time></trkpt><trkpt lat="44.4136417" lon="11.0195217"><ele>397.0</ele><time>2026-05-01T07:25:38.658Z</time></trkpt><trkpt lat="44.4135667" lon="11.0194383"><ele>403.0</ele><time>2026-05-01T07:25:40.66Z</time></trkpt><trkpt lat="44.4135017" lon="11.019275"><ele>409.0</ele><time>2026-05-01T07:25:42.659Z</time></trkpt><trkpt lat="44.4134583" lon="11.019185"><ele>409.6666666666667</ele><time>2026-05-01T07:25:43.659Z</time></trkpt><trkpt lat="44.4134033" lon="11.0191067"><ele>410.33333333333337</ele><time>2026-05-01T07:25:44.66Z</time></trkpt><trkpt lat="44.413345" lon="11.0190417"><ele>411.0</ele><time>2026-05-01T07:25:45.659Z</time></trkpt><trkpt lat="44.4132767" lon="11.0189933"><ele>411.66666666666663</ele><time>2026-05-01T07:25:46.658Z</time></trkpt><trkpt lat="44.4132067" lon="11.018945"><ele>412.3333333333333</ele><time>2026-05-01T07:25:47.658Z</time></trkpt><trkpt lat="44.4131383" lon="11.0188883"><ele>413.0</ele><time>2026-05-01T07:25:48.659Z</time></trkpt><trkpt lat="44.4130767" lon="11.01882"><ele>412.99999999999994</ele><time>2026-05-01T07:25:49.659Z</time></trkpt><trkpt lat="44.4130167" lon="11.018745"><ele>413.0</ele><time>2026-05-01T07:25:50.662Z</time></trkpt><trkpt lat="44.4129633" lon="11.0186683"><ele>413.0</ele><time>2026-05-01T07:25:51.661Z</time></trkpt><trkpt lat="44.41291" lon="11.0185867"><ele>413.0</ele><time>2026-05-01T07:25:52.66Z</time></trkpt><trkpt lat="44.4128567" lon="11.018505"><ele>412.99999999999994</ele><time>2026-05-01T07:25:53.661Z</time></trkpt><trkpt lat="44.412805" lon="11.018425"><ele>413.0</ele><time>2026-05-01T07:25:54.665Z</time></trkpt><trkpt lat="44.41276" lon="11.0183367"><ele>418.16666666666663</ele><time>2026-05-01T07:25:55.66Z</time></trkpt><trkpt lat="44.41271" lon="11.01824"><ele>423.3333333333333</ele><time>2026-05-01T07:25:56.66Z</time></trkpt><trkpt lat="44.4126533" lon="11.01815"><ele>428.5</ele><time>2026-05-01T07:25:57.66Z</time></trkpt><trkpt lat="44.4125933" lon="11.0180667"><ele>433.66666666666663</ele><time>2026-05-01T07:25:58.659Z</time></trkpt><trkpt lat="44.4125367" lon="11.01801"><ele>438.8333333333333</ele><time>2026-05-01T07:25:59.661Z</time></trkpt><trkpt lat="44.4124717" lon="11.01797"><ele>444.0</ele><time>2026-05-01T07:26:00.659Z</time></trkpt><trkpt lat="44.4124017" lon="11.017925"><ele>444.0</ele><time>2026-05-01T07:26:01.66Z</time></trkpt><trkpt lat="44.41234" lon="11.017865"><ele>444.0</ele><time>2026-05-01T07:26:02.659Z</time></trkpt><trkpt lat="44.4122867" lon="11.0177833"><ele>444.0</ele><time>2026-05-01T07:26:03.657Z</time></trkpt><trkpt lat="44.412235" lon="11.0176933"><ele>444.0</ele><time>2026-05-01T07:26:04.658Z</time></trkpt><trkpt lat="44.412185" lon="11.017605"><ele>444.0</ele><time>2026-05-01T07:26:05.66Z</time></trkpt><trkpt lat="44.4121367" lon="11.0175333"><ele>444.0</ele><time>2026-05-01T07:26:06.659Z</time></trkpt><trkpt lat="44.4120867" lon="11.01747"><ele>448.5</ele><time>2026-05-01T07:26:07.658Z</time></trkpt><trkpt lat="44.4120333" lon="11.0173967"><ele>453.0</ele><time>2026-05-01T07:26:08.661Z</time></trkpt><trkpt lat="44.4119767" lon="11.0173117"><ele>457.5</ele><time>2026-05-01T07:26:09.658Z</time></trkpt><trkpt lat="44.4119233" lon="11.0172333"><ele>462.0</ele><time>2026-05-01T07:26:10.659Z</time></trkpt><trkpt lat="44.4118767" lon="11.0171733"><ele>466.5</ele><time>2026-05-01T07:26:11.66Z</time></trkpt><trkpt lat="44.4118017" lon="11.0170883"><ele>471.0</ele><time>2026-05-01T07:26:13.659Z</time></trkpt><trkpt lat="44.4117767" lon="11.0169633"><ele>471.00000000000006</ele><time>2026-05-01T07:26:15.658Z</time></trkpt><trkpt lat="44.4117567" lon="11.0168733"><ele>471.0</ele><time>2026-05-01T07:26:16.656Z</time></trkpt><trkpt lat="44.4117217" lon="11.0167867"><ele>471.00000000000006</ele><time>2026-05-01T07:26:17.657Z</time></trkpt><trkpt lat="44.4116783" lon="11.0167017"><ele>471.00000000000006</ele><time>2026-05-01T07:26:18.661Z</time></trkpt><trkpt lat="44.4116367" lon="11.0166133"><ele>471.0</ele><time>2026-05-01T07:26:19.658Z</time></trkpt><trkpt lat="44.4115933" lon="11.0165217"><ele>471.00000000000006</ele><time>2026-05-01T07:26:20.658Z</time></trkpt><trkpt lat="44.4115517" lon="11.0164317"><ele>471.00000000000006</ele><time>2026-05-01T07:26:21.658Z</time></trkpt><trkpt lat="44.41151" lon="11.0163633"><ele>473.0</ele><time>2026-05-01T07:26:22.658Z</time></trkpt><trkpt lat="44.4114233" lon="11.0162733"><ele>475.0</ele><time>2026-05-01T07:26:24.66Z</time></trkpt><trkpt lat="44.4113033" lon="11.0162217"><ele>477.0</ele><time>2026-05-01T07:26:26.662Z</time></trkpt><trkpt lat="44.41122" lon="11.0161983"><ele>479.0</ele><time>2026-05-01T07:26:27.661Z</time></trkpt><trkpt lat="44.4111283" lon="11.0161683"><ele>481.0</ele><time>2026-05-01T07:26:28.656Z</time></trkpt><trkpt lat="44.4110267" lon="11.01613"><ele>483.8</ele><time>2026-05-01T07:26:29.658Z</time></trkpt><trkpt lat="44.4109167" lon="11.0160833"><ele>486.6</ele><time>2026-05-01T07:26:30.659Z</time></trkpt><trkpt lat="44.4108067" lon="11.0160367"><ele>489.4</ele><time>2026-05-01T07:26:31.659Z</time></trkpt><trkpt lat="44.4107083" lon="11.0159983"><ele>492.2</ele><time>2026-05-01T07:26:32.66Z</time></trkpt><trkpt lat="44.410635" lon="11.0159717"><ele>495.0</ele><time>2026-05-01T07:26:33.655Z</time></trkpt><trkpt lat="44.4105583" lon="11.0159217"><ele>497.2</ele><time>2026-05-01T07:26:35.659Z</time></trkpt><trkpt lat="44.4105967" lon="11.0157917"><ele>499.4</ele><time>2026-05-01T07:26:38.661Z</time></trkpt><trkpt lat="44.4106567" lon="11.0157217"><ele>501.6</ele><time>2026-05-01T07:26:39.657Z</time></trkpt><trkpt lat="44.4107317" lon="11.015635"><ele>503.8</ele><time>2026-05-01T07:26:40.66Z</time></trkpt><trkpt lat="44.4108183" lon="11.0155317"><ele>506.0</ele><time>2026-05-01T07:26:41.661Z</time></trkpt><trkpt lat="44.41091" lon="11.0154217"><ele>506.0</ele><time>2026-05-01T07:26:42.66Z</time></trkpt><trkpt lat="44.4109983" lon="11.01531"><ele>506.0</ele><time>2026-05-01T07:26:43.657Z</time></trkpt><trkpt lat="44.41107" lon="11.01521"><ele>506.0</ele><time>2026-05-01T07:26:44.658Z</time></trkpt><trkpt lat="44.4111317" lon="11.01511"><ele>506.0</ele><time>2026-05-01T07:26:45.658Z</time></trkpt><trkpt lat="44.411175" lon="11.0150117"><ele>506.0</ele><time>2026-05-01T07:26:46.658Z</time></trkpt><trkpt lat="44.4112" lon="11.0149083"><ele>506.0</ele><time>2026-05-01T07:26:47.66Z</time></trkpt><trkpt lat="44.4112167" lon="11.0147933"><ele>506.0</ele><time>2026-05-01T07:26:48.659Z</time></trkpt><trkpt lat="44.4112183" lon="11.0146533"><ele>506.0</ele><time>2026-05-01T07:26:49.66Z</time></trkpt><trkpt lat="44.4112133" lon="11.014505"><ele>506.0</ele><time>2026-05-01T07:26:50.66Z</time></trkpt><trkpt lat="44.411215" lon="11.0143717"><ele>506.0</ele><time>2026-05-01T07:26:51.658Z</time></trkpt><trkpt lat="44.4112133" lon="11.014245"><ele>505.0</ele><time>2026-05-01T07:26:52.658Z</time></trkpt><trkpt lat="44.4112083" lon="11.0141133"><ele>504.0</ele><time>2026-05-01T07:26:53.659Z</time></trkpt><trkpt lat="44.411205" lon="11.0140017"><ele>503.0</ele><time>2026-05-01T07:26:54.663Z</time></trkpt><trkpt lat="44.4112" lon="11.0138383"><ele>502.0</ele><time>2026-05-01T07:26:56.661Z</time></trkpt><trkpt lat="44.4111983" lon="11.0136783"><ele>501.0</ele><time>2026-05-01T07:26:58.662Z</time></trkpt><trkpt lat="44.411205" lon="11.013495"><ele>501.0</ele><time>2026-05-01T07:27:00.663Z</time></trkpt><trkpt lat="44.4112117" lon="11.013395"><ele>501.0</ele><time>2026-05-01T07:27:01.659Z</time></trkpt><trkpt lat="44.4112217" lon="11.0132867"><ele>501.0</ele><time>2026-05-01T07:27:02.661Z</time></trkpt><trkpt lat="44.4112317" lon="11.0131783"><ele>501.0</ele><time>2026-05-01T07:27:03.659Z</time></trkpt><trkpt lat="44.41124" lon="11.0130667"><ele>501.0</ele><time>2026-05-01T07:27:04.659Z</time></trkpt><trkpt lat="44.411255" lon="11.012945"><ele>501.0</ele><time>2026-05-01T07:27:05.658Z</time></trkpt><trkpt lat="44.41127" lon="11.0128117"><ele>500.4</ele><time>2026-05-01T07:27:06.659Z</time></trkpt><trkpt lat="44.4112933" lon="11.012675"><ele>499.8</ele><time>2026-05-01T07:27:07.659Z</time></trkpt><trkpt lat="44.4113317" lon="11.012535"><ele>499.19999999999993</ele><time>2026-05-01T07:27:08.66Z</time></trkpt><trkpt lat="44.411385" lon="11.0124"><ele>498.59999999999997</ele><time>2026-05-01T07:27:09.659Z</time></trkpt><trkpt lat="44.4114467" lon="11.012275"><ele>498.0</ele><time>2026-05-01T07:27:10.659Z</time></trkpt><trkpt lat="44.4115067" lon="11.0121567"><ele>496.4</ele><time>2026-05-01T07:27:11.658Z</time></trkpt><trkpt lat="44.41156" lon="11.0120367"><ele>494.79999999999995</ele><time>2026-05-01T07:27:12.657Z</time></trkpt><trkpt lat="44.4116" lon="11.0119017"><ele>493.2</ele><time>2026-05-01T07:27:13.658Z</time></trkpt><trkpt lat="44.4116267" lon="11.0117417"><ele>491.6</ele><time>2026-05-01T07:27:14.665Z</time></trkpt><trkpt lat="44.411645" lon="11.01157"><ele>490.0</ele><time>2026-05-01T07:27:15.658Z</time></trkpt><trkpt lat="44.4116617" lon="11.0114067"><ele>490.0</ele><time>2026-05-01T07:27:16.658Z</time></trkpt><trkpt lat="44.41168" lon="11.0112467"><ele>490.0</ele><time>2026-05-01T07:27:17.659Z</time></trkpt><trkpt lat="44.4117083" lon="11.0110867"><ele>490.0</ele><time>2026-05-01T07:27:18.66Z</time></trkpt><trkpt lat="44.4117517" lon="11.0109283"><ele>490.0</ele><time>2026-05-01T07:27:19.66Z</time></trkpt><trkpt lat="44.4118067" lon="11.0107883"><ele>491.75</ele><time>2026-05-01T07:27:20.655Z</time></trkpt><trkpt lat="44.4118683" lon="11.01066"><ele>493.5</ele><time>2026-05-01T07:27:21.66Z</time></trkpt><trkpt lat="44.4119283" lon="11.01052"><ele>495.25</ele><time>2026-05-01T07:27:22.662Z</time></trkpt><trkpt lat="44.4119833" lon="11.0103617"><ele>497.0</ele><time>2026-05-01T07:27:23.664Z</time></trkpt><trkpt lat="44.4120283" lon="11.0102"><ele>497.0</ele><time>2026-05-01T07:27:24.662Z</time></trkpt><trkpt lat="44.4120667" lon="11.0100517"><ele>497.00000000000006</ele><time>2026-05-01T07:27:25.656Z</time></trkpt><trkpt lat="44.4121067" lon="11.0099117"><ele>497.00000000000006</ele><time>2026-05-01T07:27:26.66Z</time></trkpt><trkpt lat="44.4121517" lon="11.009775"><ele>497.0</ele><time>2026-05-01T07:27:27.659Z</time></trkpt><trkpt lat="44.412205" lon="11.00964"><ele>497.0</ele><time>2026-05-01T07:27:28.655Z</time></trkpt><trkpt lat="44.4122767" lon="11.009515"><ele>496.25</ele><time>2026-05-01T07:27:29.66Z</time></trkpt><trkpt lat="44.4123633" lon="11.0094017"><ele>495.5</ele><time>2026-05-01T07:27:30.66Z</time></trkpt><trkpt lat="44.4124567" lon="11.0093067"><ele>494.75</ele><time>2026-05-01T07:27:31.659Z</time></trkpt><trkpt lat="44.4125517" lon="11.0092233"><ele>494.0</ele><time>2026-05-01T07:27:32.661Z</time></trkpt><trkpt lat="44.412635" lon="11.0091367"><ele>495.79999999999995</ele><time>2026-05-01T07:27:33.658Z</time></trkpt><trkpt lat="44.41271" lon="11.00904"><ele>497.59999999999997</ele><time>2026-05-01T07:27:34.658Z</time></trkpt><trkpt lat="44.4127733" lon="11.0089267"><ele>499.4</ele><time>2026-05-01T07:27:35.658Z</time></trkpt><trkpt lat="44.41282" lon="11.0087717"><ele>501.2</ele><time>2026-05-01T07:27:36.659Z</time></trkpt><trkpt lat="44.4128583" lon="11.0086067"><ele>503.0</ele><time>2026-05-01T07:27:37.66Z</time></trkpt><trkpt lat="44.4128883" lon="11.008445"><ele>501.5</ele><time>2026-05-01T07:27:38.659Z</time></trkpt><trkpt lat="44.412915" lon="11.00829"><ele>500.0</ele><time>2026-05-01T07:27:39.66Z</time></trkpt><trkpt lat="44.41292" lon="11.0081317"><ele>498.5</ele><time>2026-05-01T07:27:40.661Z</time></trkpt><trkpt lat="44.4129217" lon="11.0079667"><ele>497.0</ele><time>2026-05-01T07:27:41.66Z</time></trkpt><trkpt lat="44.4129133" lon="11.0078"><ele>497.0</ele><time>2026-05-01T07:27:42.66Z</time></trkpt><trkpt lat="44.4128983" lon="11.0076283"><ele>497.0</ele><time>2026-05-01T07:27:43.663Z</time></trkpt><trkpt lat="44.412885" lon="11.0074533"><ele>497.0</ele><time>2026-05-01T07:27:44.662Z</time></trkpt><trkpt lat="44.4128717" lon="11.0072833"><ele>497.0</ele><time>2026-05-01T07:27:45.66Z</time></trkpt><trkpt lat="44.4128667" lon="11.0071133"><ele>493.8</ele><time>2026-05-01T07:27:46.66Z</time></trkpt><trkpt lat="44.4128633" lon="11.0069583"><ele>490.6</ele><time>2026-05-01T07:27:47.66Z</time></trkpt><trkpt lat="44.4128517" lon="11.0068217"><ele>487.40000000000003</ele><time>2026-05-01T07:27:48.66Z</time></trkpt><trkpt lat="44.41283" lon="11.006705"><ele>484.20000000000005</ele><time>2026-05-01T07:27:49.658Z</time></trkpt><trkpt lat="44.4128017" lon="11.006605"><ele>481.0</ele><time>2026-05-01T07:27:50.661Z</time></trkpt><trkpt lat="44.4127417" lon="11.0065333"><ele>475.0</ele><time>2026-05-01T07:27:51.66Z</time></trkpt><trkpt lat="44.4126567" lon="11.0064833"><ele>469.0</ele><time>2026-05-01T07:27:52.66Z</time></trkpt><trkpt lat="44.4125633" lon="11.006425"><ele>463.0</ele><time>2026-05-01T07:27:53.661Z</time></trkpt><trkpt lat="44.4124033" lon="11.006425"><ele>457.0</ele><time>2026-05-01T07:27:54.664Z</time></trkpt><trkpt lat="44.412265" lon="11.0064033"><ele>458.75</ele><time>2026-05-01T07:27:55.661Z</time></trkpt><trkpt lat="44.4121267" lon="11.0063783"><ele>460.5</ele><time>2026-05-01T07:27:56.661Z</time></trkpt><trkpt lat="44.4119967" lon="11.006355"><ele>462.25</ele><time>2026-05-01T07:27:57.663Z</time></trkpt><trkpt lat="44.41187" lon="11.006325"><ele>464.0</ele><time>2026-05-01T07:27:58.663Z</time></trkpt><trkpt lat="44.411745" lon="11.006305"><ele>464.0</ele><time>2026-05-01T07:27:59.659Z</time></trkpt><trkpt lat="44.4116133" lon="11.0063067"><ele>464.0</ele><time>2026-05-01T07:28:00.658Z</time></trkpt><trkpt lat="44.4114717" lon="11.0063133"><ele>464.0</ele><time>2026-05-01T07:28:01.659Z</time></trkpt><trkpt lat="44.4113533" lon="11.0063183"><ele>464.0</ele><time>2026-05-01T07:28:02.659Z</time></trkpt><trkpt lat="44.4112417" lon="11.006305"><ele>465.5</ele><time>2026-05-01T07:28:03.659Z</time></trkpt><trkpt lat="44.4111317" lon="11.006285"><ele>467.0</ele><time>2026-05-01T07:28:04.661Z</time></trkpt><trkpt lat="44.411015" lon="11.0062333"><ele>468.5</ele><time>2026-05-01T07:28:05.66Z</time></trkpt><trkpt lat="44.4109133" lon="11.0061617"><ele>470.0</ele><time>2026-05-01T07:28:06.659Z</time></trkpt><trkpt lat="44.410805" lon="11.0060883"><ele>470.0</ele><time>2026-05-01T07:28:07.659Z</time></trkpt><trkpt lat="44.4106867" lon="11.0060217"><ele>470.0</ele><time>2026-05-01T07:28:08.66Z</time></trkpt><trkpt lat="44.410585" lon="11.0059717"><ele>470.0</ele><time>2026-05-01T07:28:09.659Z</time></trkpt><trkpt lat="44.4104933" lon="11.005925"><ele>470.0</ele><time>2026-05-01T07:28:10.66Z</time></trkpt><trkpt lat="44.4104133" lon="11.005855"><ele>470.0</ele><time>2026-05-01T07:28:11.66Z</time></trkpt><trkpt lat="44.4103433" lon="11.00576"><ele>472.4</ele><time>2026-05-01T07:28:12.659Z</time></trkpt><trkpt lat="44.4102983" lon="11.005635"><ele>474.8</ele><time>2026-05-01T07:28:13.658Z</time></trkpt><trkpt lat="44.410255" lon="11.0055083"><ele>477.20000000000005</ele><time>2026-05-01T07:28:14.661Z</time></trkpt><trkpt lat="44.4102083" lon="11.0053967"><ele>479.6</ele><time>2026-05-01T07:28:15.658Z</time></trkpt><trkpt lat="44.4101617" lon="11.0052967"><ele>482.0</ele><time>2026-05-01T07:28:16.661Z</time></trkpt><trkpt lat="44.4101333" lon="11.0052033"><ele>481.99999999999994</ele><time>2026-05-01T07:28:17.659Z</time></trkpt><trkpt lat="44.4101283" lon="11.005115"><ele>482.0</ele><time>2026-05-01T07:28:18.659Z</time></trkpt><trkpt lat="44.4101833" lon="11.0050617"><ele>482.0</ele><time>2026-05-01T07:28:19.659Z</time></trkpt><trkpt lat="44.410255" lon="11.0050217"><ele>482.0</ele><time>2026-05-01T07:28:20.659Z</time></trkpt><trkpt lat="44.410355" lon="11.0049933"><ele>481.99999999999994</ele><time>2026-05-01T07:28:21.66Z</time></trkpt><trkpt lat="44.4104417" lon="11.0049433"><ele>482.0</ele><time>2026-05-01T07:28:22.659Z</time></trkpt><trkpt lat="44.4105217" lon="11.00487"><ele>479.20000000000005</ele><time>2026-05-01T07:28:23.659Z</time></trkpt><trkpt lat="44.41059" lon="11.0047717"><ele>476.40000000000003</ele><time>2026-05-01T07:28:24.662Z</time></trkpt><trkpt lat="44.4106367" lon="11.0046533"><ele>473.59999999999997</ele><time>2026-05-01T07:28:25.66Z</time></trkpt><trkpt lat="44.4106717" lon="11.004525"><ele>470.79999999999995</ele><time>2026-05-01T07:28:26.663Z</time></trkpt><trkpt lat="44.4107117" lon="11.0043983"><ele>468.0</ele><time>2026-05-01T07:28:27.663Z</time></trkpt><trkpt lat="44.41076" lon="11.0042683"><ele>469.5</ele><time>2026-05-01T07:28:28.662Z</time></trkpt><trkpt lat="44.410815" lon="11.004135"><ele>471.0</ele><time>2026-05-01T07:28:29.66Z</time></trkpt><trkpt lat="44.410875" lon="11.0039917"><ele>472.5</ele><time>2026-05-01T07:28:30.657Z</time></trkpt><trkpt lat="44.4109367" lon="11.00384"><ele>474.0</ele><time>2026-05-01T07:28:31.658Z</time></trkpt><trkpt lat="44.4109983" lon="11.0036867"><ele>474.0</ele><time>2026-05-01T07:28:32.658Z</time></trkpt><trkpt lat="44.411055" lon="11.0035367"><ele>474.0</ele><time>2026-05-01T07:28:33.658Z</time></trkpt><trkpt lat="44.4111133" lon="11.00338"><ele>474.0</ele><time>2026-05-01T07:28:34.658Z</time></trkpt><trkpt lat="44.4111733" lon="11.0032217"><ele>474.0</ele><time>2026-05-01T07:28:35.658Z</time></trkpt><trkpt lat="44.4112333" lon="11.0030617"><ele>473.5</ele><time>2026-05-01T07:28:36.658Z</time></trkpt><trkpt lat="44.4112983" lon="11.0028967"><ele>473.0</ele><time>2026-05-01T07:28:37.658Z</time></trkpt><trkpt lat="44.4113617" lon="11.0027367"><ele>472.5</ele><time>2026-05-01T07:28:38.659Z</time></trkpt><trkpt lat="44.4114233" lon="11.002585"><ele>472.0</ele><time>2026-05-01T07:28:39.659Z</time></trkpt><trkpt lat="44.41149" lon="11.0024483"><ele>472.0</ele><time>2026-05-01T07:28:40.657Z</time></trkpt><trkpt lat="44.41157" lon="11.0023233"><ele>472.0</ele><time>2026-05-01T07:28:41.657Z</time></trkpt><trkpt lat="44.4116583" lon="11.002215"><ele>472.0</ele><time>2026-05-01T07:28:42.659Z</time></trkpt><trkpt lat="44.411745" lon="11.0021"><ele>472.0</ele><time>2026-05-01T07:28:43.658Z</time></trkpt><trkpt lat="44.4118217" lon="11.001975"><ele>472.0</ele><time>2026-05-01T07:28:44.659Z</time></trkpt><trkpt lat="44.4118917" lon="11.00183"><ele>472.0</ele><time>2026-05-01T07:28:45.659Z</time></trkpt><trkpt lat="44.4119633" lon="11.0016733"><ele>472.0</ele><time>2026-05-01T07:28:46.657Z</time></trkpt><trkpt lat="44.4120417" lon="11.00151"><ele>472.0</ele><time>2026-05-01T07:28:47.659Z</time></trkpt><trkpt lat="44.4121183" lon="11.001355"><ele>469.40000000000003</ele><time>2026-05-01T07:28:48.659Z</time></trkpt><trkpt lat="44.41219" lon="11.00122"><ele>466.80000000000007</ele><time>2026-05-01T07:28:49.659Z</time></trkpt><trkpt lat="44.4122517" lon="11.0011033"><ele>464.2</ele><time>2026-05-01T07:28:50.659Z</time></trkpt><trkpt lat="44.4122967" lon="11.0009983"><ele>461.6</ele><time>2026-05-01T07:28:51.658Z</time></trkpt><trkpt lat="44.4123217" lon="11.0009"><ele>459.0</ele><time>2026-05-01T07:28:52.659Z</time></trkpt><trkpt lat="44.4123183" lon="11.0007983"><ele>459.4</ele><time>2026-05-01T07:28:53.659Z</time></trkpt><trkpt lat="44.4122883" lon="11.0007"><ele>459.79999999999995</ele><time>2026-05-01T07:28:54.66Z</time></trkpt><trkpt lat="44.4122233" lon="11.00061"><ele>460.20000000000005</ele><time>2026-05-01T07:28:55.66Z</time></trkpt><trkpt lat="44.4121283" lon="11.0005233"><ele>460.6</ele><time>2026-05-01T07:28:56.659Z</time></trkpt><trkpt lat="44.4120217" lon="11.0004333"><ele>461.0</ele><time>2026-05-01T07:28:57.661Z</time></trkpt><trkpt lat="44.4119283" lon="11.0003333"><ele>461.0</ele><time>2026-05-01T07:28:58.66Z</time></trkpt><trkpt lat="44.41186" lon="11.000225"><ele>461.0</ele><time>2026-05-01T07:28:59.659Z</time></trkpt><trkpt lat="44.4118083" lon="11.0001017"><ele>461.0</ele><time>2026-05-01T07:29:00.658Z</time></trkpt><trkpt lat="44.4117767" lon="10.9999567"><ele>461.0</ele><time>2026-05-01T07:29:01.658Z</time></trkpt><trkpt lat="44.4117633" lon="10.9997983"><ele>461.0</ele><time>2026-05-01T07:29:02.661Z</time></trkpt><trkpt lat="44.41176" lon="10.999645"><ele>460.99999999999994</ele><time>2026-05-01T07:29:03.657Z</time></trkpt><trkpt lat="44.4117667" lon="10.9995133"><ele>461.0</ele><time>2026-05-01T07:29:04.658Z</time></trkpt><trkpt lat="44.4117817" lon="10.9993967"><ele>461.0</ele><time>2026-05-01T07:29:05.66Z</time></trkpt><trkpt lat="44.4117983" lon="10.9992833"><ele>461.0</ele><time>2026-05-01T07:29:06.663Z</time></trkpt><trkpt lat="44.41181" lon="10.9991817"><ele>460.99999999999994</ele><time>2026-05-01T07:29:07.658Z</time></trkpt><trkpt lat="44.4118133" lon="10.9990917"><ele>461.0</ele><time>2026-05-01T07:29:08.659Z</time></trkpt><trkpt lat="44.411775" lon="10.99894"><ele>460.0</ele><time>2026-05-01T07:29:10.658Z</time></trkpt><trkpt lat="44.4117067" lon="10.9988333"><ele>459.0</ele><time>2026-05-01T07:29:12.659Z</time></trkpt><trkpt lat="44.4116217" lon="10.998745"><ele>458.0</ele><time>2026-05-01T07:29:14.66Z</time></trkpt><trkpt lat="44.41156" lon="10.9986417"><ele>457.0</ele><time>2026-05-01T07:29:16.658Z</time></trkpt><trkpt lat="44.41158" lon="10.9985117"><ele>456.0</ele><time>2026-05-01T07:29:18.659Z</time></trkpt><trkpt lat="44.41166" lon="10.9983917"><ele>456.0</ele><time>2026-05-01T07:29:20.661Z</time></trkpt><trkpt lat="44.411745" lon="10.9982683"><ele>456.0</ele><time>2026-05-01T07:29:22.66Z</time></trkpt><trkpt lat="44.4117883" lon="10.9982017"><ele>456.0</ele><time>2026-05-01T07:29:23.661Z</time></trkpt><trkpt lat="44.411865" lon="10.998065"><ele>456.0</ele><time>2026-05-01T07:29:25.66Z</time></trkpt><trkpt lat="44.411885" lon="10.99798"><ele>456.0</ele><time>2026-05-01T07:29:26.662Z</time></trkpt><trkpt lat="44.4118983" lon="10.9978767"><ele>456.0</ele><time>2026-05-01T07:29:27.659Z</time></trkpt><trkpt lat="44.4118967" lon="10.9977583"><ele>456.0</ele><time>2026-05-01T07:29:28.659Z</time></trkpt><trkpt lat="44.411875" lon="10.997625"><ele>456.0</ele><time>2026-05-01T07:29:29.657Z</time></trkpt><trkpt lat="44.411845" lon="10.99749"><ele>456.0</ele><time>2026-05-01T07:29:30.661Z</time></trkpt><trkpt lat="44.41181" lon="10.9973467"><ele>456.0</ele><time>2026-05-01T07:29:31.658Z</time></trkpt><trkpt lat="44.41177" lon="10.9971983"><ele>455.75</ele><time>2026-05-01T07:29:32.66Z</time></trkpt><trkpt lat="44.4117267" lon="10.9970433"><ele>455.5</ele><time>2026-05-01T07:29:33.659Z</time></trkpt><trkpt lat="44.41168" lon="10.9968933"><ele>455.25</ele><time>2026-05-01T07:29:34.662Z</time></trkpt><trkpt lat="44.4116283" lon="10.9967467"><ele>455.0</ele><time>2026-05-01T07:29:35.661Z</time></trkpt><trkpt lat="44.411575" lon="10.99662"><ele>452.0</ele><time>2026-05-01T07:29:36.661Z</time></trkpt><trkpt lat="44.4115183" lon="10.99648"><ele>449.0</ele><time>2026-05-01T07:29:37.659Z</time></trkpt><trkpt lat="44.411465" lon="10.99634"><ele>446.0</ele><time>2026-05-01T07:29:38.661Z</time></trkpt><trkpt lat="44.4114183" lon="10.9962"><ele>443.0</ele><time>2026-05-01T07:29:39.661Z</time></trkpt><trkpt lat="44.4113833" lon="10.9960517"><ele>443.0</ele><time>2026-05-01T07:29:40.659Z</time></trkpt><trkpt lat="44.41136" lon="10.995895"><ele>443.0</ele><time>2026-05-01T07:29:41.659Z</time></trkpt><trkpt lat="44.4113533" lon="10.99573"><ele>443.0</ele><time>2026-05-01T07:29:42.659Z</time></trkpt><trkpt lat="44.4113583" lon="10.9955617"><ele>443.0</ele><time>2026-05-01T07:29:43.66Z</time></trkpt><trkpt lat="44.41138" lon="10.99539"><ele>439.75</ele><time>2026-05-01T07:29:44.661Z</time></trkpt><trkpt lat="44.4114283" lon="10.9952167"><ele>436.5</ele><time>2026-05-01T07:29:45.659Z</time></trkpt><trkpt lat="44.411505" lon="10.9950433"><ele>433.25</ele><time>2026-05-01T07:29:46.658Z</time></trkpt><trkpt lat="44.4116017" lon="10.9948717"><ele>430.0</ele><time>2026-05-01T07:29:47.66Z</time></trkpt><trkpt lat="44.411705" lon="10.994695"><ele>429.6666666666667</ele><time>2026-05-01T07:29:48.661Z</time></trkpt><trkpt lat="44.41181" lon="10.994515"><ele>429.33333333333337</ele><time>2026-05-01T07:29:49.66Z</time></trkpt><trkpt lat="44.4119083" lon="10.9943367"><ele>429.0</ele><time>2026-05-01T07:29:50.655Z</time></trkpt><trkpt lat="44.41201" lon="10.9941683"><ele>431.0</ele><time>2026-05-01T07:29:51.66Z</time></trkpt><trkpt lat="44.4121233" lon="10.9940183"><ele>433.0</ele><time>2026-05-01T07:29:52.659Z</time></trkpt><trkpt lat="44.412255" lon="10.9938867"><ele>435.0</ele><time>2026-05-01T07:29:53.66Z</time></trkpt><trkpt lat="44.4123967" lon="10.993765"><ele>430.75</ele><time>2026-05-01T07:29:54.659Z</time></trkpt><trkpt lat="44.4125417" lon="10.9936667"><ele>426.5</ele><time>2026-05-01T07:29:55.658Z</time></trkpt><trkpt lat="44.4126817" lon="10.9935983"><ele>422.25</ele><time>2026-05-01T07:29:56.659Z</time></trkpt><trkpt lat="44.4128083" lon="10.99355"><ele>418.0</ele><time>2026-05-01T07:29:57.657Z</time></trkpt><trkpt lat="44.412925" lon="10.9934883"><ele>417.75</ele><time>2026-05-01T07:29:58.659Z</time></trkpt><trkpt lat="44.41303" lon="10.9934033"><ele>417.5</ele><time>2026-05-01T07:29:59.659Z</time></trkpt><trkpt lat="44.4131217" lon="10.9932833"><ele>417.25</ele><time>2026-05-01T07:30:00.662Z</time></trkpt><trkpt lat="44.4132033" lon="10.9931317"><ele>417.0</ele><time>2026-05-01T07:30:01.66Z</time></trkpt><trkpt lat="44.4132767" lon="10.9929767"><ele>417.0</ele><time>2026-05-01T07:30:02.655Z</time></trkpt><trkpt lat="44.4133583" lon="10.99284"><ele>417.0</ele><time>2026-05-01T07:30:03.661Z</time></trkpt><trkpt lat="44.4134467" lon="10.9927233"><ele>417.0</ele><time>2026-05-01T07:30:04.66Z</time></trkpt><trkpt lat="44.4135417" lon="10.9926167"><ele>417.0</ele><time>2026-05-01T07:30:05.66Z</time></trkpt><trkpt lat="44.4136333" lon="10.9925117"><ele>416.20000000000005</ele><time>2026-05-01T07:30:06.66Z</time></trkpt><trkpt lat="44.4137133" lon="10.9924133"><ele>415.4</ele><time>2026-05-01T07:30:07.662Z</time></trkpt><trkpt lat="44.4137917" lon="10.9923233"><ele>414.6</ele><time>2026-05-01T07:30:08.659Z</time></trkpt><trkpt lat="44.41387" lon="10.99223"><ele>413.79999999999995</ele><time>2026-05-01T07:30:09.66Z</time></trkpt><trkpt lat="44.4139467" lon="10.992125"><ele>413.0</ele><time>2026-05-01T07:30:10.658Z</time></trkpt><trkpt lat="44.41402" lon="10.992015"><ele>413.0</ele><time>2026-05-01T07:30:11.658Z</time></trkpt><trkpt lat="44.414085" lon="10.9919083"><ele>413.0</ele><time>2026-05-01T07:30:12.659Z</time></trkpt><trkpt lat="44.41415" lon="10.9918033"><ele>413.0</ele><time>2026-05-01T07:30:13.66Z</time></trkpt><trkpt lat="44.4142183" lon="10.9916933"><ele>413.0</ele><time>2026-05-01T07:30:14.658Z</time></trkpt><trkpt lat="44.4142867" lon="10.991585"><ele>413.0</ele><time>2026-05-01T07:30:15.658Z</time></trkpt><trkpt lat="44.4143567" lon="10.99149"><ele>412.66666666666663</ele><time>2026-05-01T07:30:16.659Z</time></trkpt><trkpt lat="44.4144217" lon="10.99141"><ele>412.3333333333333</ele><time>2026-05-01T07:30:17.656Z</time></trkpt><trkpt lat="44.4144817" lon="10.9913383"><ele>412.0</ele><time>2026-05-01T07:30:18.659Z</time></trkpt><trkpt lat="44.4145367" lon="10.991275"><ele>411.66666666666663</ele><time>2026-05-01T07:30:19.658Z</time></trkpt><trkpt lat="44.41459" lon="10.9912133"><ele>411.3333333333333</ele><time>2026-05-01T07:30:20.658Z</time></trkpt><trkpt lat="44.41465" lon="10.9911533"><ele>411.0</ele><time>2026-05-01T07:30:21.66Z</time></trkpt><trkpt lat="44.4147383" lon="10.99107"><ele>411.0</ele><time>2026-05-01T07:30:23.658Z</time></trkpt><trkpt lat="44.4147517" lon="10.9909483"><ele>411.0</ele><time>2026-05-01T07:30:26.658Z</time></trkpt><trkpt lat="44.414705" lon="10.9908667"><ele>411.0</ele><time>2026-05-01T07:30:28.66Z</time></trkpt><trkpt lat="44.4146767" lon="10.9907583"><ele>411.0</ele><time>2026-05-01T07:30:45.66Z</time></trkpt><trkpt lat="44.41469" lon="10.9906267"><ele>411.0</ele><time>2026-05-01T07:30:47.659Z</time></trkpt><trkpt lat="44.4146767" lon="10.990495"><ele>411.0</ele><time>2026-05-01T07:30:49.658Z</time></trkpt><trkpt lat="44.4146133" lon="10.9903633"><ele>416.0</ele><time>2026-05-01T07:30:51.657Z</time></trkpt><trkpt lat="44.4145417" lon="10.9902467"><ele>421.0</ele><time>2026-05-01T07:30:53.66Z</time></trkpt><trkpt lat="44.4144717" lon="10.9901667"><ele>426.0</ele><time>2026-05-01T07:30:55.658Z</time></trkpt><trkpt lat="44.414405" lon="10.9901317"><ele>431.0</ele><time>2026-05-01T07:30:58.658Z</time></trkpt><trkpt lat="44.4143417" lon="10.9901117"><ele>436.0</ele><time>2026-05-01T07:31:01.657Z</time></trkpt><trkpt lat="44.414275" lon="10.9900733"><ele>441.0</ele><time>2026-05-01T07:31:03.664Z</time></trkpt><trkpt lat="44.4142183" lon="10.9900317"><ele>441.0</ele><time>2026-05-01T07:31:05.682Z</time></trkpt><trkpt lat="44.4141583" lon="10.9899883"><ele>441.0</ele><time>2026-05-01T07:33:03.659Z</time></trkpt><trkpt lat="44.414105" lon="10.9899183"><ele>441.0</ele><time>2026-05-01T07:33:08.659Z</time></trkpt><trkpt lat="44.41417" lon="10.9899717"><ele>441.0</ele><time>2026-05-01T07:37:47.659Z</time></trkpt><trkpt lat="44.4142617" lon="10.9900517"><ele>441.0</ele><time>2026-05-01T07:38:41.657Z</time></trkpt><trkpt lat="44.4143333" lon="10.9901"><ele>441.0</ele><time>2026-05-01T07:38:44.661Z</time></trkpt><trkpt lat="44.414405" lon="10.9901017"><ele>441.0</ele><time>2026-05-01T07:39:02.661Z</time></trkpt><trkpt lat="44.4144717" lon="10.99019"><ele>441.0</ele><time>2026-05-01T07:39:08.658Z</time></trkpt><trkpt lat="44.41454" lon="10.9902717"><ele>441.0</ele><time>2026-05-01T07:39:10.659Z</time></trkpt><trkpt lat="44.4146183" lon="10.9903867"><ele>441.0</ele><time>2026-05-01T07:39:12.658Z</time></trkpt><trkpt lat="44.4146883" lon="10.9904883"><ele>441.0</ele><time>2026-05-01T07:39:14.659Z</time></trkpt><trkpt lat="44.4147183" lon="10.9905817"><ele>437.8333333333333</ele><time>2026-05-01T07:39:16.658Z</time></trkpt><trkpt lat="44.4147117" lon="10.990675"><ele>434.66666666666663</ele><time>2026-05-01T07:39:18.66Z</time></trkpt><trkpt lat="44.4147017" lon="10.9907683"><ele>431.5</ele><time>2026-05-01T07:39:20.66Z</time></trkpt><trkpt lat="44.4146933" lon="10.9908767"><ele>428.3333333333333</ele><time>2026-05-01T07:39:23.662Z</time></trkpt><trkpt lat="44.414755" lon="10.9909667"><ele>425.16666666666663</ele><time>2026-05-01T07:39:27.659Z</time></trkpt><trkpt lat="44.41475" lon="10.991075"><ele>422.0</ele><time>2026-05-01T07:39:31.658Z</time></trkpt><trkpt lat="44.414665" lon="10.9911317"><ele>423.20000000000005</ele><time>2026-05-01T07:39:33.658Z</time></trkpt><trkpt lat="44.4145783" lon="10.99121"><ele>424.4</ele><time>2026-05-01T07:39:35.659Z</time></trkpt><trkpt lat="44.4145167" lon="10.9912883"><ele>425.59999999999997</ele><time>2026-05-01T07:39:38.66Z</time></trkpt><trkpt lat="44.4145833" lon="10.991245"><ele>426.79999999999995</ele><time>2026-05-01T07:39:43.659Z</time></trkpt><trkpt lat="44.4146717" lon="10.99115"><ele>428.0</ele><time>2026-05-01T07:39:45.656Z</time></trkpt><trkpt lat="44.4147367" lon="10.99106"><ele>426.99999999999994</ele><time>2026-05-01T07:39:47.658Z</time></trkpt><trkpt lat="44.4147283" lon="10.990955"><ele>426.0</ele><time>2026-05-01T07:39:49.66Z</time></trkpt><trkpt lat="44.4146883" lon="10.990855"><ele>425.0</ele><time>2026-05-01T07:39:52.659Z</time></trkpt><trkpt lat="44.414695" lon="10.9907283"><ele>424.0</ele><time>2026-05-01T07:39:55.66Z</time></trkpt><trkpt lat="44.4147267" lon="10.9906317"><ele>422.99999999999994</ele><time>2026-05-01T07:39:57.659Z</time></trkpt><trkpt lat="44.4147317" lon="10.99053"><ele>422.0</ele><time>2026-05-01T07:40:00.657Z</time></trkpt><trkpt lat="44.4146733" lon="10.990445"><ele>425.8</ele><time>2026-05-01T07:40:02.658Z</time></trkpt><trkpt lat="44.414585" lon="10.9903167"><ele>429.6</ele><time>2026-05-01T07:40:04.657Z</time></trkpt><trkpt lat="44.41451" lon="10.9901967"><ele>433.40000000000003</ele><time>2026-05-01T07:40:06.656Z</time></trkpt><trkpt lat="44.414425" lon="10.9901417"><ele>437.20000000000005</ele><time>2026-05-01T07:40:08.661Z</time></trkpt><trkpt lat="44.4143533" lon="10.9901083"><ele>441.0</ele><time>2026-05-01T07:40:10.658Z</time></trkpt><trkpt lat="44.4142933" lon="10.9900783"><ele>443.0</ele><time>2026-05-01T07:40:12.654Z</time></trkpt><trkpt lat="44.4141983" lon="10.990005"><ele>445.0</ele><time>2026-05-01T07:41:02.66Z</time></trkpt><trkpt lat="44.414125" lon="10.9899783"><ele>447.0</ele><time>2026-05-01T07:41:04.66Z</time></trkpt><trkpt lat="44.4140517" lon="10.9899367"><ele>449.0</ele><time>2026-05-01T07:41:06.659Z</time></trkpt><trkpt lat="44.4139667" lon="10.989915"><ele>451.0</ele><time>2026-05-01T07:41:08.66Z</time></trkpt><trkpt lat="44.413865" lon="10.9898767"><ele>453.6</ele><time>2026-05-01T07:41:10.659Z</time></trkpt><trkpt lat="44.4137717" lon="10.989835"><ele>456.20000000000005</ele><time>2026-05-01T07:41:12.658Z</time></trkpt><trkpt lat="44.4136783" lon="10.9897867"><ele>458.79999999999995</ele><time>2026-05-01T07:41:14.66Z</time></trkpt><trkpt lat="44.413575" lon="10.989755"><ele>461.4</ele><time>2026-05-01T07:41:16.658Z</time></trkpt><trkpt lat="44.4135017" lon="10.9897433"><ele>464.0</ele><time>2026-05-01T07:41:18.66Z</time></trkpt><trkpt lat="44.41339" lon="10.9897317"><ele>464.0</ele><time>2026-05-01T07:41:42.655Z</time></trkpt><trkpt lat="44.4132767" lon="10.98975"><ele>464.0</ele><time>2026-05-01T07:41:44.661Z</time></trkpt><trkpt lat="44.4131617" lon="10.9898333"><ele>464.0</ele><time>2026-05-01T07:41:46.658Z</time></trkpt><trkpt lat="44.4130933" lon="10.9898883"><ele>464.0</ele><time>2026-05-01T07:41:47.658Z</time></trkpt><trkpt lat="44.4130217" lon="10.9899467"><ele>464.0</ele><time>2026-05-01T07:41:48.661Z</time></trkpt><trkpt lat="44.4129483" lon="10.990005"><ele>465.2</ele><time>2026-05-01T07:41:49.661Z</time></trkpt><trkpt lat="44.4128717" lon="10.9900667"><ele>466.4</ele><time>2026-05-01T07:41:50.664Z</time></trkpt><trkpt lat="44.4127967" lon="10.9901417"><ele>467.6</ele><time>2026-05-01T07:41:51.66Z</time></trkpt><trkpt lat="44.412725" lon="10.9902283"><ele>468.8</ele><time>2026-05-01T07:41:52.66Z</time></trkpt><trkpt lat="44.412655" lon="10.99032"><ele>470.0</ele><time>2026-05-01T07:41:53.66Z</time></trkpt><trkpt lat="44.412585" lon="10.9904133"><ele>470.0</ele><time>2026-05-01T07:41:54.66Z</time></trkpt><trkpt lat="44.412515" lon="10.9905017"><ele>470.0</ele><time>2026-05-01T07:41:55.658Z</time></trkpt><trkpt lat="44.4124417" lon="10.990575"><ele>470.0</ele><time>2026-05-01T07:41:56.662Z</time></trkpt><trkpt lat="44.4123567" lon="10.990625"><ele>470.0</ele><time>2026-05-01T07:41:57.658Z</time></trkpt><trkpt lat="44.4122667" lon="10.990655"><ele>470.0</ele><time>2026-05-01T07:41:58.659Z</time></trkpt><trkpt lat="44.4121683" lon="10.9906667"><ele>472.4</ele><time>2026-05-01T07:41:59.659Z</time></trkpt><trkpt lat="44.412065" lon="10.9906367"><ele>474.8</ele><time>2026-05-01T07:42:00.661Z</time></trkpt><trkpt lat="44.4119733" lon="10.9906017"><ele>477.20000000000005</ele><time>2026-05-01T07:42:01.661Z</time></trkpt><trkpt lat="44.411885" lon="10.9905833"><ele>479.6</ele><time>2026-05-01T07:42:02.661Z</time></trkpt><trkpt lat="44.411795" lon="10.9905833"><ele>482.0</ele><time>2026-05-01T07:42:03.659Z</time></trkpt><trkpt lat="44.411705" lon="10.9906033"><ele>482.0</ele><time>2026-05-01T07:42:04.659Z</time></trkpt><trkpt lat="44.41161" lon="10.990635"><ele>482.00000000000006</ele><time>2026-05-01T07:42:05.66Z</time></trkpt><trkpt lat="44.4115117" lon="10.99067"><ele>482.00000000000006</ele><time>2026-05-01T07:42:06.661Z</time></trkpt><trkpt lat="44.411415" lon="10.99071"><ele>482.0</ele><time>2026-05-01T07:42:07.66Z</time></trkpt><trkpt lat="44.4113217" lon="10.9907517"><ele>482.0</ele><time>2026-05-01T07:42:08.659Z</time></trkpt><trkpt lat="44.4112267" lon="10.990795"><ele>482.40000000000003</ele><time>2026-05-01T07:42:09.66Z</time></trkpt><trkpt lat="44.41113" lon="10.9908317"><ele>482.80000000000007</ele><time>2026-05-01T07:42:10.661Z</time></trkpt><trkpt lat="44.4110317" lon="10.99087"><ele>483.2</ele><time>2026-05-01T07:42:11.661Z</time></trkpt><trkpt lat="44.4109383" lon="10.9909033"><ele>483.6</ele><time>2026-05-01T07:42:12.66Z</time></trkpt><trkpt lat="44.4108533" lon="10.99093"><ele>484.0</ele><time>2026-05-01T07:42:13.66Z</time></trkpt><trkpt lat="44.4107867" lon="10.99095"><ele>484.00000000000006</ele><time>2026-05-01T07:42:14.66Z</time></trkpt><trkpt lat="44.41072" lon="10.99096"><ele>484.0</ele><time>2026-05-01T07:42:16.659Z</time></trkpt><trkpt lat="44.4106517" lon="10.99104"><ele>484.0</ele><time>2026-05-01T07:42:20.659Z</time></trkpt><trkpt lat="44.4106483" lon="10.9911383"><ele>484.0</ele><time>2026-05-01T07:42:21.656Z</time></trkpt><trkpt lat="44.4106333" lon="10.9912533"><ele>484.00000000000006</ele><time>2026-05-01T07:42:22.66Z</time></trkpt><trkpt lat="44.4106067" lon="10.9913667"><ele>484.0</ele><time>2026-05-01T07:42:23.658Z</time></trkpt><trkpt lat="44.4105683" lon="10.99147"><ele>484.00000000000006</ele><time>2026-05-01T07:42:24.659Z</time></trkpt><trkpt lat="44.41052" lon="10.99156"><ele>484.0</ele><time>2026-05-01T07:42:25.663Z</time></trkpt><trkpt lat="44.4104633" lon="10.9916367"><ele>484.0</ele><time>2026-05-01T07:42:26.658Z</time></trkpt><trkpt lat="44.4104067" lon="10.99171"><ele>484.0</ele><time>2026-05-01T07:42:27.656Z</time></trkpt><trkpt lat="44.4103533" lon="10.9917867"><ele>484.00000000000006</ele><time>2026-05-01T07:42:28.658Z</time></trkpt><trkpt lat="44.4103067" lon="10.9918667"><ele>484.0</ele><time>2026-05-01T07:42:29.659Z</time></trkpt><trkpt lat="44.4102583" lon="10.9919483"><ele>485.33333333333337</ele><time>2026-05-01T07:42:30.659Z</time></trkpt><trkpt lat="44.4101983" lon="10.992025"><ele>486.6666666666667</ele><time>2026-05-01T07:42:31.66Z</time></trkpt><trkpt lat="44.4101333" lon="10.9920833"><ele>488.0</ele><time>2026-05-01T07:42:32.66Z</time></trkpt><trkpt lat="44.41008" lon="10.9921317"><ele>489.33333333333337</ele><time>2026-05-01T07:42:33.658Z</time></trkpt><trkpt lat="44.4100067" lon="10.9922467"><ele>490.6666666666667</ele><time>2026-05-01T07:42:35.659Z</time></trkpt><trkpt lat="44.409975" lon="10.9923867"><ele>492.0</ele><time>2026-05-01T07:42:37.659Z</time></trkpt><trkpt lat="44.409955" lon="10.9925183"><ele>492.0</ele><time>2026-05-01T07:42:39.659Z</time></trkpt><trkpt lat="44.40989" lon="10.9926083"><ele>492.00000000000006</ele><time>2026-05-01T07:42:41.658Z</time></trkpt><trkpt lat="44.4098067" lon="10.9926883"><ele>492.00000000000006</ele><time>2026-05-01T07:42:43.661Z</time></trkpt><trkpt lat="44.409735" lon="10.9928117"><ele>492.0</ele><time>2026-05-01T07:42:45.659Z</time></trkpt><trkpt lat="44.4097" lon="10.9929083"><ele>492.0</ele><time>2026-05-01T07:42:47.658Z</time></trkpt><trkpt lat="44.409625" lon="10.992925"><ele>498.0</ele><time>2026-05-01T07:43:01.657Z</time></trkpt><trkpt lat="44.4095417" lon="10.9928817"><ele>504.0</ele><time>2026-05-01T07:43:05.66Z</time></trkpt><trkpt lat="44.4094783" lon="10.992855"><ele>510.0</ele><time>2026-05-01T07:43:07.659Z</time></trkpt><trkpt lat="44.4094017" lon="10.9928483"><ele>516.0</ele><time>2026-05-01T07:43:09.658Z</time></trkpt><trkpt lat="44.4093083" lon="10.9928567"><ele>522.0</ele><time>2026-05-01T07:43:11.658Z</time></trkpt><trkpt lat="44.409225" lon="10.9928733"><ele>528.0</ele><time>2026-05-01T07:43:13.658Z</time></trkpt><trkpt lat="44.40916" lon="10.9928817"><ele>528.0</ele><time>2026-05-01T07:43:15.659Z</time></trkpt><trkpt lat="44.4090867" lon="10.99289"><ele>528.0</ele><time>2026-05-01T07:43:18.658Z</time></trkpt><trkpt lat="44.409065" lon="10.993005"><ele>528.0</ele><time>2026-05-01T07:43:21.659Z</time></trkpt><trkpt lat="44.4090533" lon="10.9930983"><ele>528.0</ele><time>2026-05-01T07:43:23.658Z</time></trkpt><trkpt lat="44.4090167" lon="10.9932133"><ele>528.0</ele><time>2026-05-01T07:43:25.658Z</time></trkpt><trkpt lat="44.4089617" lon="10.9933183"><ele>528.0</ele><time>2026-05-01T07:43:27.658Z</time></trkpt><trkpt lat="44.4088717" lon="10.993385"><ele>529.6</ele><time>2026-05-01T07:43:29.661Z</time></trkpt><trkpt lat="44.4087617" lon="10.993435"><ele>531.1999999999999</ele><time>2026-05-01T07:43:31.658Z</time></trkpt><trkpt lat="44.408655" lon="10.9934533"><ele>532.8</ele><time>2026-05-01T07:43:33.661Z</time></trkpt><trkpt lat="44.4085867" lon="10.9934583"><ele>534.4</ele><time>2026-05-01T07:43:34.662Z</time></trkpt><trkpt lat="44.4085183" lon="10.9934483"><ele>536.0</ele><time>2026-05-01T07:43:35.666Z</time></trkpt><trkpt lat="44.4084133" lon="10.9933933"><ele>538.2</ele><time>2026-05-01T07:43:37.657Z</time></trkpt><trkpt lat="44.4083667" lon="10.9932883"><ele>540.4000000000001</ele><time>2026-05-01T07:43:39.657Z</time></trkpt><trkpt lat="44.4083267" lon="10.9931617"><ele>542.6</ele><time>2026-05-01T07:43:41.658Z</time></trkpt><trkpt lat="44.4082733" lon="10.9930733"><ele>544.8000000000001</ele><time>2026-05-01T07:43:43.659Z</time></trkpt><trkpt lat="44.4081867" lon="10.993015"><ele>547.0</ele><time>2026-05-01T07:43:45.658Z</time></trkpt><trkpt lat="44.4080517" lon="10.993025"><ele>548.2857142857142</ele><time>2026-05-01T07:43:47.658Z</time></trkpt><trkpt lat="44.40798" lon="10.9930317"><ele>549.5714285714286</ele><time>2026-05-01T07:43:48.657Z</time></trkpt><trkpt lat="44.4079117" lon="10.9930383"><ele>550.8571428571429</ele><time>2026-05-01T07:43:49.658Z</time></trkpt><trkpt lat="44.4078467" lon="10.9930467"><ele>552.1428571428571</ele><time>2026-05-01T07:43:50.657Z</time></trkpt><trkpt lat="44.407785" lon="10.9930733"><ele>553.4285714285714</ele><time>2026-05-01T07:43:51.657Z</time></trkpt><trkpt lat="44.407725" lon="10.9931133"><ele>554.7142857142857</ele><time>2026-05-01T07:43:52.658Z</time></trkpt><trkpt lat="44.40766" lon="10.9931583"><ele>556.0</ele><time>2026-05-01T07:43:53.658Z</time></trkpt><trkpt lat="44.4075983" lon="10.9931967"><ele>556.0</ele><time>2026-05-01T07:43:54.658Z</time></trkpt><trkpt lat="44.407505" lon="10.9932467"><ele>556.0</ele><time>2026-05-01T07:43:56.658Z</time></trkpt><trkpt lat="44.407425" lon="10.9932917"><ele>556.0</ele><time>2026-05-01T07:43:59.659Z</time></trkpt><trkpt lat="44.4073383" lon="10.993335"><ele>556.0</ele><time>2026-05-01T07:44:01.659Z</time></trkpt><trkpt lat="44.4072117" lon="10.993365"><ele>556.0</ele><time>2026-05-01T07:44:03.657Z</time></trkpt><trkpt lat="44.4071433" lon="10.9933733"><ele>556.5</ele><time>2026-05-01T07:44:04.657Z</time></trkpt><trkpt lat="44.4070683" lon="10.9933783"><ele>557.0</ele><time>2026-05-01T07:44:05.658Z</time></trkpt><trkpt lat="44.40699" lon="10.993385"><ele>557.5</ele><time>2026-05-01T07:44:06.656Z</time></trkpt><trkpt lat="44.4069133" lon="10.993395"><ele>558.0</ele><time>2026-05-01T07:44:07.655Z</time></trkpt><trkpt lat="44.40684" lon="10.9934117"><ele>558.5</ele><time>2026-05-01T07:44:08.659Z</time></trkpt><trkpt lat="44.4067667" lon="10.9934383"><ele>559.0</ele><time>2026-05-01T07:44:09.659Z</time></trkpt><trkpt lat="44.406695" lon="10.9934633"><ele>559.0</ele><time>2026-05-01T07:44:10.658Z</time></trkpt><trkpt lat="44.406625" lon="10.9934817"><ele>559.0</ele><time>2026-05-01T07:44:11.662Z</time></trkpt><trkpt lat="44.40656" lon="10.99349"><ele>559.0</ele><time>2026-05-01T07:44:12.655Z</time></trkpt><trkpt lat="44.4064783" lon="10.9934817"><ele>559.0</ele><time>2026-05-01T07:44:14.66Z</time></trkpt><trkpt lat="44.4065" lon="10.9933967"><ele>559.0</ele><time>2026-05-01T07:44:21.658Z</time></trkpt><trkpt lat="44.40659" lon="10.9933267"><ele>559.0</ele><time>2026-05-01T07:44:24.658Z</time></trkpt><trkpt lat="44.4066467" lon="10.993285"><ele>559.3333333333334</ele><time>2026-05-01T07:44:25.66Z</time></trkpt><trkpt lat="44.406715" lon="10.993235"><ele>559.6666666666667</ele><time>2026-05-01T07:44:26.658Z</time></trkpt><trkpt lat="44.406785" lon="10.9931767"><ele>560.0</ele><time>2026-05-01T07:44:27.658Z</time></trkpt><trkpt lat="44.406855" lon="10.9931117"><ele>560.3333333333334</ele><time>2026-05-01T07:44:28.658Z</time></trkpt><trkpt lat="44.406935" lon="10.993045"><ele>560.6666666666666</ele><time>2026-05-01T07:44:29.659Z</time></trkpt><trkpt lat="44.4070133" lon="10.99297"><ele>561.0</ele><time>2026-05-01T07:44:30.658Z</time></trkpt><trkpt lat="44.4070967" lon="10.9929033"><ele>560.0</ele><time>2026-05-01T07:44:31.658Z</time></trkpt><trkpt lat="44.4071817" lon="10.9928433"><ele>559.0</ele><time>2026-05-01T07:44:32.658Z</time></trkpt><trkpt lat="44.4072633" lon="10.992785"><ele>558.0</ele><time>2026-05-01T07:44:33.659Z</time></trkpt><trkpt lat="44.4073317" lon="10.9927167"><ele>557.0</ele><time>2026-05-01T07:44:34.665Z</time></trkpt><trkpt lat="44.4074" lon="10.992635"><ele>556.0</ele><time>2026-05-01T07:44:35.659Z</time></trkpt><trkpt lat="44.40747" lon="10.9925467"><ele>557.0</ele><time>2026-05-01T07:44:36.659Z</time></trkpt><trkpt lat="44.407535" lon="10.992465"><ele>558.0</ele><time>2026-05-01T07:44:37.658Z</time></trkpt><trkpt lat="44.407595" lon="10.9923917"><ele>559.0</ele><time>2026-05-01T07:44:38.66Z</time></trkpt><trkpt lat="44.4076517" lon="10.9923367"><ele>560.0</ele><time>2026-05-01T07:44:39.656Z</time></trkpt><trkpt lat="44.4077583" lon="10.992275"><ele>561.0</ele><time>2026-05-01T07:44:41.657Z</time></trkpt><trkpt lat="44.4078533" lon="10.99214"><ele>561.0</ele><time>2026-05-01T07:44:43.655Z</time></trkpt><trkpt lat="44.4078917" lon="10.992025"><ele>561.0</ele><time>2026-05-01T07:44:44.66Z</time></trkpt><trkpt lat="44.4079267" lon="10.99192"><ele>561.0</ele><time>2026-05-01T07:44:45.658Z</time></trkpt><trkpt lat="44.4079633" lon="10.991815"><ele>561.0</ele><time>2026-05-01T07:44:46.658Z</time></trkpt><trkpt lat="44.4080017" lon="10.9917117"><ele>561.0</ele><time>2026-05-01T07:44:47.66Z</time></trkpt><trkpt lat="44.40804" lon="10.9916133"><ele>561.0</ele><time>2026-05-01T07:44:48.661Z</time></trkpt><trkpt lat="44.4080767" lon="10.991515"><ele>560.3333333333334</ele><time>2026-05-01T07:44:49.661Z</time></trkpt><trkpt lat="44.4081117" lon="10.99141"><ele>559.6666666666666</ele><time>2026-05-01T07:44:50.66Z</time></trkpt><trkpt lat="44.408145" lon="10.9913033"><ele>559.0</ele><time>2026-05-01T07:44:51.663Z</time></trkpt><trkpt lat="44.4081767" lon="10.9912133"><ele>558.3333333333333</ele><time>2026-05-01T07:44:52.659Z</time></trkpt><trkpt lat="44.4082017" lon="10.9911317"><ele>557.6666666666666</ele><time>2026-05-01T07:44:53.661Z</time></trkpt><trkpt lat="44.4082483" lon="10.99098"><ele>557.0</ele><time>2026-05-01T07:44:55.66Z</time></trkpt><trkpt lat="44.4082967" lon="10.99081"><ele>557.0</ele><time>2026-05-01T07:44:57.664Z</time></trkpt><trkpt lat="44.408325" lon="10.9907217"><ele>557.0</ele><time>2026-05-01T07:44:58.661Z</time></trkpt><trkpt lat="44.4083517" lon="10.9906367"><ele>557.0</ele><time>2026-05-01T07:44:59.66Z</time></trkpt><trkpt lat="44.4083883" lon="10.990485"><ele>557.0</ele><time>2026-05-01T07:45:01.657Z</time></trkpt><trkpt lat="44.4084367" lon="10.9903217"><ele>557.0</ele><time>2026-05-01T07:45:03.659Z</time></trkpt><trkpt lat="44.4084717" lon="10.9902233"><ele>557.0</ele><time>2026-05-01T07:45:04.659Z</time></trkpt><trkpt lat="44.408505" lon="10.9901117"><ele>557.0</ele><time>2026-05-01T07:45:05.659Z</time></trkpt><trkpt lat="44.4085283" lon="10.99"><ele>557.0</ele><time>2026-05-01T07:45:06.659Z</time></trkpt><trkpt lat="44.40855" lon="10.9898917"><ele>557.0</ele><time>2026-05-01T07:45:07.654Z</time></trkpt><trkpt lat="44.4085717" lon="10.9897933"><ele>557.0</ele><time>2026-05-01T07:45:08.661Z</time></trkpt><trkpt lat="44.4085967" lon="10.989695"><ele>557.0</ele><time>2026-05-01T07:45:09.659Z</time></trkpt><trkpt lat="44.408625" lon="10.9895983"><ele>557.0</ele><time>2026-05-01T07:45:10.661Z</time></trkpt><trkpt lat="44.4086583" lon="10.9894967"><ele>557.0</ele><time>2026-05-01T07:45:11.659Z</time></trkpt><trkpt lat="44.4086917" lon="10.9893883"><ele>557.0</ele><time>2026-05-01T07:45:12.662Z</time></trkpt><trkpt lat="44.4087317" lon="10.98928"><ele>557.0</ele><time>2026-05-01T07:45:13.661Z</time></trkpt><trkpt lat="44.4087733" lon="10.9891733"><ele>557.0</ele><time>2026-05-01T07:45:14.66Z</time></trkpt><trkpt lat="44.4088133" lon="10.989075"><ele>557.0</ele><time>2026-05-01T07:45:15.659Z</time></trkpt><trkpt lat="44.40885" lon="10.9889767"><ele>556.0</ele><time>2026-05-01T07:45:16.659Z</time></trkpt><trkpt lat="44.4088833" lon="10.9888817"><ele>555.0</ele><time>2026-05-01T07:45:17.66Z</time></trkpt><trkpt lat="44.408915" lon="10.9888"><ele>554.0</ele><time>2026-05-01T07:45:18.662Z</time></trkpt><trkpt lat="44.40897" lon="10.988695"><ele>553.0</ele><time>2026-05-01T07:45:20.66Z</time></trkpt><trkpt lat="44.40903" lon="10.9887433"><ele>552.0</ele><time>2026-05-01T07:45:32.659Z</time></trkpt><trkpt lat="44.4090417" lon="10.9888317"><ele>551.0</ele><time>2026-05-01T07:45:34.66Z</time></trkpt><trkpt lat="44.4090567" lon="10.988985"><ele>551.0</ele><time>2026-05-01T07:45:36.66Z</time></trkpt><trkpt lat="44.40907" lon="10.9890717"><ele>551.0</ele><time>2026-05-01T07:45:37.66Z</time></trkpt><trkpt lat="44.40911" lon="10.9891967"><ele>551.0</ele><time>2026-05-01T07:45:39.659Z</time></trkpt><trkpt lat="44.4091817" lon="10.9892333"><ele>551.0</ele><time>2026-05-01T07:45:41.658Z</time></trkpt><trkpt lat="44.409245" lon="10.9892383"><ele>551.0</ele><time>2026-05-01T07:45:43.659Z</time></trkpt><trkpt lat="44.40933" lon="10.9892567"><ele>551.0</ele><time>2026-05-01T07:45:45.659Z</time></trkpt><trkpt lat="44.40941" lon="10.9892533"><ele>551.0</ele><time>2026-05-01T07:45:47.659Z</time></trkpt><trkpt lat="44.4094733" lon="10.9891967"><ele>551.0</ele><time>2026-05-01T07:45:50.659Z</time></trkpt><trkpt lat="44.4095067" lon="10.9891167"><ele>551.0</ele><time>2026-05-01T07:45:54.659Z</time></trkpt><trkpt lat="44.4095383" lon="10.98904"><ele>551.0</ele><time>2026-05-01T07:46:00.657Z</time></trkpt><trkpt lat="44.4095833" lon="10.9889683"><ele>551.0</ele><time>2026-05-01T07:46:06.658Z</time></trkpt><trkpt lat="44.4096733" lon="10.98891"><ele>551.0</ele><time>2026-05-01T07:46:23.657Z</time></trkpt><trkpt lat="44.409735" lon="10.9888367"><ele>547.5</ele><time>2026-05-01T07:47:26.662Z</time></trkpt><trkpt lat="44.409795" lon="10.9887367"><ele>544.0</ele><time>2026-05-01T07:47:57.664Z</time></trkpt><trkpt lat="44.4098483" lon="10.988685"><ele>540.5</ele><time>2026-05-01T07:48:06.678Z</time></trkpt><trkpt lat="44.4099117" lon="10.9886567"><ele>537.0</ele><time>2026-05-01T07:48:12.67Z</time></trkpt><trkpt lat="44.4099817" lon="10.98862"><ele>533.5</ele><time>2026-05-01T07:59:02.656Z</time></trkpt><trkpt lat="44.4099567" lon="10.9885183"><ele>530.0</ele><time>2026-05-01T07:59:05.656Z</time></trkpt><trkpt lat="44.40989" lon="10.988425"><ele>530.0</ele><time>2026-05-01T07:59:08.656Z</time></trkpt><trkpt lat="44.40991" lon="10.9883283"><ele>530.0</ele><time>2026-05-01T07:59:12.656Z</time></trkpt><trkpt lat="44.4099917" lon="10.9882933"><ele>530.0</ele><time>2026-05-01T07:59:15.658Z</time></trkpt><trkpt lat="44.4100683" lon="10.9883367"><ele>530.0</ele><time>2026-05-01T07:59:18.657Z</time></trkpt><trkpt lat="44.4101433" lon="10.9883617"><ele>530.0</ele><time>2026-05-01T07:59:21.657Z</time></trkpt><trkpt lat="44.4102283" lon="10.988425"><ele>530.0</ele><time>2026-05-01T07:59:24.657Z</time></trkpt><trkpt lat="44.4102917" lon="10.9884633"><ele>530.0</ele><time>2026-05-01T07:59:26.656Z</time></trkpt><trkpt lat="44.4103533" lon="10.9884817"><ele>530.0</ele><time>2026-05-01T07:59:28.655Z</time></trkpt><trkpt lat="44.4104433" lon="10.9885433"><ele>530.0</ele><time>2026-05-01T07:59:30.655Z</time></trkpt><trkpt lat="44.4105383" lon="10.98864"><ele>530.0</ele><time>2026-05-01T07:59:32.656Z</time></trkpt><trkpt lat="44.4106283" lon="10.9887617"><ele>530.0</ele><time>2026-05-01T07:59:34.657Z</time></trkpt><trkpt lat="44.4106633" lon="10.9888467"><ele>527.4285714285713</ele><time>2026-05-01T07:59:35.655Z</time></trkpt><trkpt lat="44.410685" lon="10.988945"><ele>524.8571428571429</ele><time>2026-05-01T07:59:36.654Z</time></trkpt><trkpt lat="44.410705" lon="10.9890333"><ele>522.2857142857142</ele><time>2026-05-01T07:59:37.657Z</time></trkpt><trkpt lat="44.4107133" lon="10.989125"><ele>519.7142857142857</ele><time>2026-05-01T07:59:38.655Z</time></trkpt><trkpt lat="44.4107217" lon="10.9892183"><ele>517.1428571428571</ele><time>2026-05-01T07:59:39.656Z</time></trkpt><trkpt lat="44.4107233" lon="10.9893067"><ele>514.5714285714286</ele><time>2026-05-01T07:59:40.656Z</time></trkpt><trkpt lat="44.4107267" lon="10.9893967"><ele>512.0</ele><time>2026-05-01T07:59:41.655Z</time></trkpt><trkpt lat="44.4107083" lon="10.9895683"><ele>511.0</ele><time>2026-05-01T07:59:43.657Z</time></trkpt><trkpt lat="44.410685" lon="10.9896633"><ele>510.00000000000006</ele><time>2026-05-01T07:59:44.656Z</time></trkpt><trkpt lat="44.4106467" lon="10.9897717"><ele>509.00000000000006</ele><time>2026-05-01T07:59:45.656Z</time></trkpt><trkpt lat="44.4106017" lon="10.989905"><ele>508.0</ele><time>2026-05-01T07:59:46.654Z</time></trkpt><trkpt lat="44.410555" lon="10.9900333"><ele>507.0</ele><time>2026-05-01T07:59:47.655Z</time></trkpt><trkpt lat="44.4105067" lon="10.9901567"><ele>507.6</ele><time>2026-05-01T07:59:48.658Z</time></trkpt><trkpt lat="44.4104533" lon="10.9902833"><ele>508.20000000000005</ele><time>2026-05-01T07:59:49.657Z</time></trkpt><trkpt lat="44.4103983" lon="10.99041"><ele>508.8</ele><time>2026-05-01T07:59:50.659Z</time></trkpt><trkpt lat="44.4103383" lon="10.99054"><ele>509.4</ele><time>2026-05-01T07:59:51.658Z</time></trkpt><trkpt lat="44.4102817" lon="10.9906767"><ele>510.0</ele><time>2026-05-01T07:59:52.658Z</time></trkpt><trkpt lat="44.4102233" lon="10.9908083"><ele>508.2</ele><time>2026-05-01T07:59:53.657Z</time></trkpt><trkpt lat="44.41017" lon="10.990935"><ele>506.4</ele><time>2026-05-01T07:59:54.658Z</time></trkpt><trkpt lat="44.41012" lon="10.99105"><ele>504.6</ele><time>2026-05-01T07:59:55.656Z</time></trkpt><trkpt lat="44.410075" lon="10.9911633"><ele>502.8</ele><time>2026-05-01T07:59:56.657Z</time></trkpt><trkpt lat="44.4100333" lon="10.9912783"><ele>501.0</ele><time>2026-05-01T07:59:57.657Z</time></trkpt><trkpt lat="44.409995" lon="10.9914017"><ele>501.0</ele><time>2026-05-01T07:59:58.657Z</time></trkpt><trkpt lat="44.4099583" lon="10.9915233"><ele>501.0</ele><time>2026-05-01T07:59:59.655Z</time></trkpt><trkpt lat="44.4099233" lon="10.991635"><ele>501.0</ele><time>2026-05-01T08:00:00.655Z</time></trkpt><trkpt lat="44.4098883" lon="10.99174"><ele>501.0</ele><time>2026-05-01T08:00:01.657Z</time></trkpt><trkpt lat="44.409875" lon="10.9918433"><ele>501.0</ele><time>2026-05-01T08:00:02.658Z</time></trkpt><trkpt lat="44.4098833" lon="10.9919417"><ele>501.0</ele><time>2026-05-01T08:00:03.657Z</time></trkpt><trkpt lat="44.4099167" lon="10.9920317"><ele>500.3333333333333</ele><time>2026-05-01T08:00:04.656Z</time></trkpt><trkpt lat="44.40997" lon="10.9920933"><ele>499.66666666666663</ele><time>2026-05-01T08:00:05.656Z</time></trkpt><trkpt lat="44.410035" lon="10.992115"><ele>499.0</ele><time>2026-05-01T08:00:06.657Z</time></trkpt><trkpt lat="44.4101483" lon="10.9920767"><ele>498.3333333333333</ele><time>2026-05-01T08:00:08.656Z</time></trkpt><trkpt lat="44.4102183" lon="10.9919983"><ele>497.66666666666663</ele><time>2026-05-01T08:00:09.656Z</time></trkpt><trkpt lat="44.4102917" lon="10.9919"><ele>497.0</ele><time>2026-05-01T08:00:10.657Z</time></trkpt><trkpt lat="44.4103583" lon="10.9917867"><ele>497.0</ele><time>2026-05-01T08:00:11.655Z</time></trkpt><trkpt lat="44.41043" lon="10.991675"><ele>497.00000000000006</ele><time>2026-05-01T08:00:12.656Z</time></trkpt><trkpt lat="44.4105083" lon="10.9915733"><ele>497.00000000000006</ele><time>2026-05-01T08:00:13.655Z</time></trkpt><trkpt lat="44.410575" lon="10.9914717"><ele>497.0</ele><time>2026-05-01T08:00:14.657Z</time></trkpt><trkpt lat="44.410625" lon="10.99136"><ele>497.0</ele><time>2026-05-01T08:00:15.655Z</time></trkpt><trkpt lat="44.4106567" lon="10.991235"><ele>496.20000000000005</ele><time>2026-05-01T08:00:16.657Z</time></trkpt><trkpt lat="44.410675" lon="10.9911217"><ele>495.40000000000003</ele><time>2026-05-01T08:00:17.657Z</time></trkpt><trkpt lat="44.4106867" lon="10.9910333"><ele>494.59999999999997</ele><time>2026-05-01T08:00:18.658Z</time></trkpt><trkpt lat="44.4106867" lon="10.9909083"><ele>493.79999999999995</ele><time>2026-05-01T08:00:20.657Z</time></trkpt><trkpt lat="44.4107033" lon="10.9907567"><ele>493.0</ele><time>2026-05-01T08:00:22.657Z</time></trkpt><trkpt lat="44.4107667" lon="10.9906217"><ele>493.0</ele><time>2026-05-01T08:00:24.656Z</time></trkpt><trkpt lat="44.410825" lon="10.9905833"><ele>492.99999999999994</ele><time>2026-05-01T08:00:25.657Z</time></trkpt><trkpt lat="44.4109033" lon="10.99055"><ele>492.99999999999994</ele><time>2026-05-01T08:00:26.656Z</time></trkpt><trkpt lat="44.4109933" lon="10.9905017"><ele>493.0</ele><time>2026-05-01T08:00:27.655Z</time></trkpt><trkpt lat="44.4110917" lon="10.9904283"><ele>493.0</ele><time>2026-05-01T08:00:28.657Z</time></trkpt><trkpt lat="44.41119" lon="10.99034"><ele>493.0</ele><time>2026-05-01T08:00:29.656Z</time></trkpt><trkpt lat="44.4112717" lon="10.9902483"><ele>492.99999999999994</ele><time>2026-05-01T08:00:30.657Z</time></trkpt><trkpt lat="44.41134" lon="10.9901533"><ele>492.99999999999994</ele><time>2026-05-01T08:00:31.657Z</time></trkpt><trkpt lat="44.4113983" lon="10.9900483"><ele>493.0</ele><time>2026-05-01T08:00:32.658Z</time></trkpt><trkpt lat="44.4114467" lon="10.9899417"><ele>493.0</ele><time>2026-05-01T08:00:33.657Z</time></trkpt><trkpt lat="44.4114817" lon="10.98985"><ele>492.83333333333337</ele><time>2026-05-01T08:00:34.655Z</time></trkpt><trkpt lat="44.4115183" lon="10.98972"><ele>492.6666666666667</ele><time>2026-05-01T08:00:36.658Z</time></trkpt><trkpt lat="44.4115317" lon="10.98963"><ele>492.5</ele><time>2026-05-01T08:00:38.657Z</time></trkpt><trkpt lat="44.4115383" lon="10.9894883"><ele>492.33333333333337</ele><time>2026-05-01T08:00:40.655Z</time></trkpt><trkpt lat="44.4115333" lon="10.9893817"><ele>492.1666666666667</ele><time>2026-05-01T08:00:41.655Z</time></trkpt><trkpt lat="44.4115167" lon="10.9892533"><ele>492.0</ele><time>2026-05-01T08:00:42.655Z</time></trkpt><trkpt lat="44.4114967" lon="10.9891183"><ele>492.6</ele><time>2026-05-01T08:00:43.655Z</time></trkpt><trkpt lat="44.4114767" lon="10.9889867"><ele>493.20000000000005</ele><time>2026-05-01T08:00:44.657Z</time></trkpt><trkpt lat="44.411455" lon="10.9888583"><ele>493.8</ele><time>2026-05-01T08:00:45.654Z</time></trkpt><trkpt lat="44.41143" lon="10.98874"><ele>494.4</ele><time>2026-05-01T08:00:46.656Z</time></trkpt><trkpt lat="44.4114" lon="10.9886233"><ele>495.0</ele><time>2026-05-01T08:00:47.655Z</time></trkpt><trkpt lat="44.4113533" lon="10.9885117"><ele>497.4</ele><time>2026-05-01T08:00:48.657Z</time></trkpt><trkpt lat="44.41129" lon="10.9883917"><ele>499.8</ele><time>2026-05-01T08:00:49.656Z</time></trkpt><trkpt lat="44.41122" lon="10.98827"><ele>502.20000000000005</ele><time>2026-05-01T08:00:50.657Z</time></trkpt><trkpt lat="44.4111467" lon="10.9881533"><ele>504.6</ele><time>2026-05-01T08:00:51.658Z</time></trkpt><trkpt lat="44.41107" lon="10.988045"><ele>507.0</ele><time>2026-05-01T08:00:52.656Z</time></trkpt><trkpt lat="44.4109983" lon="10.9879533"><ele>507.0</ele><time>2026-05-01T08:00:53.656Z</time></trkpt><trkpt lat="44.4109317" lon="10.98788"><ele>507.0</ele><time>2026-05-01T08:00:54.655Z</time></trkpt><trkpt lat="44.4108617" lon="10.9878117"><ele>507.0</ele><time>2026-05-01T08:00:55.655Z</time></trkpt><trkpt lat="44.410795" lon="10.987745"><ele>507.0</ele><time>2026-05-01T08:00:56.656Z</time></trkpt><trkpt lat="44.4107383" lon="10.9876817"><ele>507.0</ele><time>2026-05-01T08:00:57.657Z</time></trkpt><trkpt lat="44.4106917" lon="10.9876217"><ele>507.0</ele><time>2026-05-01T08:00:58.656Z</time></trkpt><trkpt lat="44.41064" lon="10.987565"><ele>507.6</ele><time>2026-05-01T08:00:59.657Z</time></trkpt><trkpt lat="44.41058" lon="10.9875017"><ele>508.20000000000005</ele><time>2026-05-01T08:01:00.657Z</time></trkpt><trkpt lat="44.4105067" lon="10.9874317"><ele>508.8</ele><time>2026-05-01T08:01:01.657Z</time></trkpt><trkpt lat="44.4104167" lon="10.9873517"><ele>509.4</ele><time>2026-05-01T08:01:02.656Z</time></trkpt><trkpt lat="44.4103217" lon="10.9872717"><ele>510.0</ele><time>2026-05-01T08:01:03.655Z</time></trkpt><trkpt lat="44.41024" lon="10.987205"><ele>510.0</ele><time>2026-05-01T08:01:04.657Z</time></trkpt><trkpt lat="44.4101817" lon="10.98714"><ele>510.0</ele><time>2026-05-01T08:01:05.656Z</time></trkpt><trkpt lat="44.410125" lon="10.9870367"><ele>510.0</ele><time>2026-05-01T08:01:07.655Z</time></trkpt><trkpt lat="44.4100717" lon="10.986975"><ele>510.0</ele><time>2026-05-01T08:01:09.657Z</time></trkpt><trkpt lat="44.4099817" lon="10.9869267"><ele>510.0</ele><time>2026-05-01T08:01:11.655Z</time></trkpt><trkpt lat="44.409895" lon="10.9869017"><ele>510.0</ele><time>2026-05-01T08:01:13.656Z</time></trkpt><trkpt lat="44.4097817" lon="10.9868383"><ele>510.0</ele><time>2026-05-01T08:01:15.655Z</time></trkpt><trkpt lat="44.409715" lon="10.9867933"><ele>510.0</ele><time>2026-05-01T08:01:16.654Z</time></trkpt><trkpt lat="44.4096433" lon="10.98675"><ele>510.0</ele><time>2026-05-01T08:01:17.656Z</time></trkpt><trkpt lat="44.4095633" lon="10.98671"><ele>510.0</ele><time>2026-05-01T08:01:18.656Z</time></trkpt><trkpt lat="44.4094767" lon="10.9866717"><ele>510.0</ele><time>2026-05-01T08:01:19.657Z</time></trkpt><trkpt lat="44.4093817" lon="10.9866317"><ele>510.0</ele><time>2026-05-01T08:01:20.658Z</time></trkpt><trkpt lat="44.40929" lon="10.98659"><ele>510.2</ele><time>2026-05-01T08:01:21.655Z</time></trkpt><trkpt lat="44.409195" lon="10.9865583"><ele>510.4</ele><time>2026-05-01T08:01:22.655Z</time></trkpt><trkpt lat="44.4091" lon="10.9865383"><ele>510.6</ele><time>2026-05-01T08:01:23.657Z</time></trkpt><trkpt lat="44.409005" lon="10.9865183"><ele>510.8</ele><time>2026-05-01T08:01:24.655Z</time></trkpt><trkpt lat="44.40891" lon="10.9864883"><ele>511.0</ele><time>2026-05-01T08:01:25.655Z</time></trkpt><trkpt lat="44.4088167" lon="10.9864567"><ele>511.00000000000006</ele><time>2026-05-01T08:01:26.657Z</time></trkpt><trkpt lat="44.4087333" lon="10.9864333"><ele>511.0</ele><time>2026-05-01T08:01:27.656Z</time></trkpt><trkpt lat="44.408655" lon="10.986415"><ele>511.0</ele><time>2026-05-01T08:01:28.655Z</time></trkpt><trkpt lat="44.4085767" lon="10.9864017"><ele>511.0</ele><time>2026-05-01T08:01:29.655Z</time></trkpt><trkpt lat="44.4085" lon="10.986395"><ele>511.00000000000006</ele><time>2026-05-01T08:01:30.657Z</time></trkpt><trkpt lat="44.4084133" lon="10.98641"><ele>511.0</ele><time>2026-05-01T08:01:31.657Z</time></trkpt><trkpt lat="44.408315" lon="10.9864367"><ele>511.0</ele><time>2026-05-01T08:01:32.655Z</time></trkpt><trkpt lat="44.4082183" lon="10.9864717"><ele>511.0</ele><time>2026-05-01T08:01:33.655Z</time></trkpt><trkpt lat="44.408125" lon="10.986505"><ele>511.0</ele><time>2026-05-01T08:01:34.656Z</time></trkpt><trkpt lat="44.40802" lon="10.986545"><ele>511.0</ele><time>2026-05-01T08:01:35.655Z</time></trkpt><trkpt lat="44.40791" lon="10.9865967"><ele>511.0</ele><time>2026-05-01T08:01:36.657Z</time></trkpt><trkpt lat="44.4078017" lon="10.9866567"><ele>512.2</ele><time>2026-05-01T08:01:37.656Z</time></trkpt><trkpt lat="44.4077017" lon="10.9867133"><ele>513.4000000000001</ele><time>2026-05-01T08:01:38.657Z</time></trkpt><trkpt lat="44.4076083" lon="10.9867683"><ele>514.6</ele><time>2026-05-01T08:01:39.657Z</time></trkpt><trkpt lat="44.4075217" lon="10.9868333"><ele>515.8000000000001</ele><time>2026-05-01T08:01:40.656Z</time></trkpt><trkpt lat="44.4074417" lon="10.98692"><ele>517.0</ele><time>2026-05-01T08:01:41.654Z</time></trkpt><trkpt lat="44.4073717" lon="10.987015"><ele>517.0</ele><time>2026-05-01T08:01:42.654Z</time></trkpt><trkpt lat="44.4073033" lon="10.9871117"><ele>517.0</ele><time>2026-05-01T08:01:43.654Z</time></trkpt><trkpt lat="44.4072433" lon="10.9872083"><ele>517.0</ele><time>2026-05-01T08:01:44.654Z</time></trkpt><trkpt lat="44.4071867" lon="10.9873083"><ele>517.0</ele><time>2026-05-01T08:01:45.656Z</time></trkpt><trkpt lat="44.4071383" lon="10.9874167"><ele>517.0</ele><time>2026-05-01T08:01:46.655Z</time></trkpt><trkpt lat="44.40709" lon="10.98752"><ele>515.4</ele><time>2026-05-01T08:01:47.655Z</time></trkpt><trkpt lat="44.4070433" lon="10.987625"><ele>513.8000000000001</ele><time>2026-05-01T08:01:48.656Z</time></trkpt><trkpt lat="44.4070033" lon="10.9877333"><ele>512.2</ele><time>2026-05-01T08:01:49.655Z</time></trkpt><trkpt lat="44.4069667" lon="10.987845"><ele>510.6</ele><time>2026-05-01T08:01:50.655Z</time></trkpt><trkpt lat="44.40693" lon="10.9879683"><ele>509.0</ele><time>2026-05-01T08:01:51.655Z</time></trkpt><trkpt lat="44.4069017" lon="10.9881083"><ele>509.0</ele><time>2026-05-01T08:01:52.655Z</time></trkpt><trkpt lat="44.406875" lon="10.988265"><ele>509.0</ele><time>2026-05-01T08:01:53.654Z</time></trkpt><trkpt lat="44.40685" lon="10.9884317"><ele>509.0</ele><time>2026-05-01T08:01:54.656Z</time></trkpt><trkpt lat="44.4068217" lon="10.9885883"><ele>509.0</ele><time>2026-05-01T08:01:55.656Z</time></trkpt><trkpt lat="44.4067967" lon="10.98873"><ele>509.8333333333333</ele><time>2026-05-01T08:01:56.657Z</time></trkpt><trkpt lat="44.40677" lon="10.988855"><ele>510.66666666666663</ele><time>2026-05-01T08:01:57.656Z</time></trkpt><trkpt lat="44.4067417" lon="10.9889733"><ele>511.5</ele><time>2026-05-01T08:01:58.657Z</time></trkpt><trkpt lat="44.4067083" lon="10.989085"><ele>512.3333333333334</ele><time>2026-05-01T08:01:59.657Z</time></trkpt><trkpt lat="44.4066733" lon="10.98919"><ele>513.1666666666667</ele><time>2026-05-01T08:02:00.657Z</time></trkpt><trkpt lat="44.4066367" lon="10.9892717"><ele>514.0</ele><time>2026-05-01T08:02:01.656Z</time></trkpt><trkpt lat="44.4065867" lon="10.9893483"><ele>515.6666666666667</ele><time>2026-05-01T08:02:03.656Z</time></trkpt><trkpt lat="44.406525" lon="10.9892967"><ele>517.3333333333334</ele><time>2026-05-01T08:02:07.656Z</time></trkpt><trkpt lat="44.4064567" lon="10.9892467"><ele>519.0</ele><time>2026-05-01T08:02:10.656Z</time></trkpt><trkpt lat="44.4063917" lon="10.9891883"><ele>520.6666666666666</ele><time>2026-05-01T08:02:13.654Z</time></trkpt><trkpt lat="44.4063183" lon="10.989145"><ele>522.3333333333333</ele><time>2026-05-01T08:02:16.656Z</time></trkpt><trkpt lat="44.4062467" lon="10.9890583"><ele>524.0</ele><time>2026-05-01T08:03:00.654Z</time></trkpt><trkpt lat="44.4061783" lon="10.9890217"><ele>520.0</ele><time>2026-05-01T08:03:04.654Z</time></trkpt><trkpt lat="44.40612" lon="10.9889833"><ele>516.0</ele><time>2026-05-01T08:03:06.655Z</time></trkpt><trkpt lat="44.4060883" lon="10.9888817"><ele>512.0</ele><time>2026-05-01T08:03:09.654Z</time></trkpt><trkpt lat="44.406105" lon="10.988785"><ele>508.0</ele><time>2026-05-01T08:03:26.659Z</time></trkpt><trkpt lat="44.4060933" lon="10.9886567"><ele>503.99999999999994</ele><time>2026-05-01T08:03:44.661Z</time></trkpt><trkpt lat="44.4060817" lon="10.98855"><ele>500.0</ele><time>2026-05-01T08:03:47.658Z</time></trkpt><trkpt lat="44.4060783" lon="10.9884583"><ele>499.99999999999994</ele><time>2026-05-01T08:03:50.661Z</time></trkpt><trkpt lat="44.406075" lon="10.9883567"><ele>500.0</ele><time>2026-05-01T08:03:54.663Z</time></trkpt><trkpt lat="44.4060717" lon="10.9882533"><ele>500.0</ele><time>2026-05-01T08:04:02.659Z</time></trkpt><trkpt lat="44.4060483" lon="10.9881467"><ele>500.0</ele><time>2026-05-01T08:04:05.658Z</time></trkpt><trkpt lat="44.4060183" lon="10.9880417"><ele>499.99999999999994</ele><time>2026-05-01T08:04:08.66Z</time></trkpt><trkpt lat="44.405985" lon="10.9879483"><ele>500.0</ele><time>2026-05-01T08:04:11.658Z</time></trkpt><trkpt lat="44.405925" lon="10.9878517"><ele>498.8333333333333</ele><time>2026-05-01T08:04:14.659Z</time></trkpt><trkpt lat="44.405865" lon="10.98775"><ele>497.66666666666663</ele><time>2026-05-01T08:04:17.657Z</time></trkpt><trkpt lat="44.4058033" lon="10.98767"><ele>496.5</ele><time>2026-05-01T08:04:19.659Z</time></trkpt><trkpt lat="44.4057717" lon="10.987575"><ele>495.33333333333337</ele><time>2026-05-01T08:04:21.66Z</time></trkpt><trkpt lat="44.40575" lon="10.9874767"><ele>494.1666666666667</ele><time>2026-05-01T08:04:23.661Z</time></trkpt><trkpt lat="44.4057267" lon="10.9873833"><ele>493.0</ele><time>2026-05-01T08:04:25.658Z</time></trkpt><trkpt lat="44.4056833" lon="10.9872767"><ele>491.59999999999997</ele><time>2026-05-01T08:04:27.659Z</time></trkpt><trkpt lat="44.4056283" lon="10.98717"><ele>490.19999999999993</ele><time>2026-05-01T08:04:29.657Z</time></trkpt><trkpt lat="44.4055367" lon="10.9870733"><ele>488.8</ele><time>2026-05-01T08:04:31.658Z</time></trkpt><trkpt lat="44.4054517" lon="10.9869967"><ele>487.4</ele><time>2026-05-01T08:04:33.662Z</time></trkpt><trkpt lat="44.4053717" lon="10.9869367"><ele>486.0</ele><time>2026-05-01T08:04:36.657Z</time></trkpt><trkpt lat="44.4053167" lon="10.98688"><ele>484.4</ele><time>2026-05-01T08:04:38.659Z</time></trkpt><trkpt lat="44.4052417" lon="10.9868117"><ele>482.8</ele><time>2026-05-01T08:04:40.658Z</time></trkpt><trkpt lat="44.4051417" lon="10.9867183"><ele>481.19999999999993</ele><time>2026-05-01T08:04:42.656Z</time></trkpt><trkpt lat="44.4050417" lon="10.9866617"><ele>479.59999999999997</ele><time>2026-05-01T08:04:44.659Z</time></trkpt><trkpt lat="44.4049633" lon="10.98672"><ele>478.0</ele><time>2026-05-01T08:04:46.658Z</time></trkpt><trkpt lat="44.4049117" lon="10.9868583"><ele>478.00000000000006</ele><time>2026-05-01T08:04:48.659Z</time></trkpt><trkpt lat="44.4048467" lon="10.987"><ele>478.0</ele><time>2026-05-01T08:04:50.659Z</time></trkpt><trkpt lat="44.4048" lon="10.9870667"><ele>478.0</ele><time>2026-05-01T08:04:51.658Z</time></trkpt><trkpt lat="44.4047483" lon="10.9871333"><ele>478.0</ele><time>2026-05-01T08:04:52.659Z</time></trkpt><trkpt lat="44.4046917" lon="10.9871933"><ele>478.00000000000006</ele><time>2026-05-01T08:04:53.66Z</time></trkpt><trkpt lat="44.4046367" lon="10.98725"><ele>478.0</ele><time>2026-05-01T08:04:54.66Z</time></trkpt><trkpt lat="44.404585" lon="10.9873067"><ele>478.50000000000006</ele><time>2026-05-01T08:04:55.66Z</time></trkpt><trkpt lat="44.4045383" lon="10.9873667"><ele>479.0</ele><time>2026-05-01T08:04:56.66Z</time></trkpt><trkpt lat="44.4044717" lon="10.9874783"><ele>479.5</ele><time>2026-05-01T08:04:58.658Z</time></trkpt><trkpt lat="44.4044483" lon="10.98761"><ele>480.0</ele><time>2026-05-01T08:05:00.659Z</time></trkpt><trkpt lat="44.40447" lon="10.9877533"><ele>480.50000000000006</ele><time>2026-05-01T08:05:02.659Z</time></trkpt><trkpt lat="44.4044367" lon="10.98785"><ele>481.0</ele><time>2026-05-01T08:05:04.659Z</time></trkpt><trkpt lat="44.404375" lon="10.9879267"><ele>481.0</ele><time>2026-05-01T08:05:06.662Z</time></trkpt><trkpt lat="44.4042783" lon="10.9879617"><ele>481.0</ele><time>2026-05-01T08:05:08.661Z</time></trkpt><trkpt lat="44.4041733" lon="10.988005"><ele>481.0</ele><time>2026-05-01T08:05:10.66Z</time></trkpt><trkpt lat="44.40408" lon="10.9880283"><ele>481.0</ele><time>2026-05-01T08:05:12.663Z</time></trkpt><trkpt lat="44.4039683" lon="10.98799"><ele>481.0</ele><time>2026-05-01T08:05:14.661Z</time></trkpt><trkpt lat="44.4039017" lon="10.987955"><ele>480.99999999999994</ele><time>2026-05-01T08:05:15.66Z</time></trkpt><trkpt lat="44.4038383" lon="10.98793"><ele>481.0</ele><time>2026-05-01T08:05:16.658Z</time></trkpt><trkpt lat="44.4037733" lon="10.9879217"><ele>480.99999999999994</ele><time>2026-05-01T08:05:17.659Z</time></trkpt><trkpt lat="44.4037083" lon="10.9879383"><ele>480.99999999999994</ele><time>2026-05-01T08:05:18.658Z</time></trkpt><trkpt lat="44.4036417" lon="10.9879733"><ele>481.0</ele><time>2026-05-01T08:05:19.659Z</time></trkpt><trkpt lat="44.4035717" lon="10.9880133"><ele>480.99999999999994</ele><time>2026-05-01T08:05:20.661Z</time></trkpt><trkpt lat="44.4035" lon="10.9880483"><ele>480.99999999999994</ele><time>2026-05-01T08:05:21.662Z</time></trkpt><trkpt lat="44.4034317" lon="10.9880767"><ele>480.50000000000006</ele><time>2026-05-01T08:05:22.66Z</time></trkpt><trkpt lat="44.4033667" lon="10.9881017"><ele>480.0</ele><time>2026-05-01T08:05:23.66Z</time></trkpt><trkpt lat="44.4033017" lon="10.9881433"><ele>479.5</ele><time>2026-05-01T08:05:24.659Z</time></trkpt><trkpt lat="44.4032367" lon="10.9882083"><ele>479.0</ele><time>2026-05-01T08:05:25.658Z</time></trkpt><trkpt lat="44.4031783" lon="10.9882967"><ele>478.50000000000006</ele><time>2026-05-01T08:05:26.663Z</time></trkpt><trkpt lat="44.4031233" lon="10.9883883"><ele>478.0</ele><time>2026-05-01T08:05:27.658Z</time></trkpt><trkpt lat="44.4030633" lon="10.988475"><ele>478.00000000000006</ele><time>2026-05-01T08:05:28.658Z</time></trkpt><trkpt lat="44.403005" lon="10.9885567"><ele>478.0</ele><time>2026-05-01T08:05:29.658Z</time></trkpt><trkpt lat="44.40295" lon="10.9886333"><ele>478.0</ele><time>2026-05-01T08:05:30.657Z</time></trkpt><trkpt lat="44.4028967" lon="10.9887067"><ele>478.0</ele><time>2026-05-01T08:05:31.659Z</time></trkpt><trkpt lat="44.4028433" lon="10.9887733"><ele>478.00000000000006</ele><time>2026-05-01T08:05:32.658Z</time></trkpt><trkpt lat="44.402785" lon="10.98884"><ele>478.0</ele><time>2026-05-01T08:05:33.659Z</time></trkpt><trkpt lat="44.4027117" lon="10.988895"><ele>475.79999999999995</ele><time>2026-05-01T08:05:34.658Z</time></trkpt><trkpt lat="44.402625" lon="10.98895"><ele>473.59999999999997</ele><time>2026-05-01T08:05:35.658Z</time></trkpt><trkpt lat="44.4025383" lon="10.98901"><ele>471.40000000000003</ele><time>2026-05-01T08:05:36.659Z</time></trkpt><trkpt lat="44.4024567" lon="10.98908"><ele>469.20000000000005</ele><time>2026-05-01T08:05:37.654Z</time></trkpt><trkpt lat="44.4023733" lon="10.9891583"><ele>467.0</ele><time>2026-05-01T08:05:38.66Z</time></trkpt><trkpt lat="44.4022867" lon="10.9892517"><ele>467.0</ele><time>2026-05-01T08:05:39.659Z</time></trkpt><trkpt lat="44.402205" lon="10.98936"><ele>467.00000000000006</ele><time>2026-05-01T08:05:40.658Z</time></trkpt><trkpt lat="44.4021267" lon="10.9894783"><ele>467.00000000000006</ele><time>2026-05-01T08:05:41.658Z</time></trkpt><trkpt lat="44.40206" lon="10.9895933"><ele>467.0</ele><time>2026-05-01T08:05:42.657Z</time></trkpt><trkpt lat="44.4020033" lon="10.9897033"><ele>467.0</ele><time>2026-05-01T08:05:43.658Z</time></trkpt><trkpt lat="44.401955" lon="10.9898117"><ele>465.8333333333333</ele><time>2026-05-01T08:05:44.66Z</time></trkpt><trkpt lat="44.4019083" lon="10.989925"><ele>464.66666666666663</ele><time>2026-05-01T08:05:45.659Z</time></trkpt><trkpt lat="44.4018617" lon="10.99004"><ele>463.5</ele><time>2026-05-01T08:05:46.659Z</time></trkpt><trkpt lat="44.4018217" lon="10.9901433"><ele>462.33333333333337</ele><time>2026-05-01T08:05:47.659Z</time></trkpt><trkpt lat="44.4017833" lon="10.990215"><ele>461.1666666666667</ele><time>2026-05-01T08:05:48.66Z</time></trkpt><trkpt lat="44.4017033" lon="10.9902667"><ele>460.0</ele><time>2026-05-01T08:05:50.66Z</time></trkpt><trkpt lat="44.401615" lon="10.99012"><ele>458.4</ele><time>2026-05-01T08:05:52.659Z</time></trkpt><trkpt lat="44.401565" lon="10.9899883"><ele>456.8</ele><time>2026-05-01T08:05:53.659Z</time></trkpt><trkpt lat="44.401525" lon="10.989855"><ele>455.20000000000005</ele><time>2026-05-01T08:05:54.657Z</time></trkpt><trkpt lat="44.401495" lon="10.9897317"><ele>453.6</ele><time>2026-05-01T08:05:55.659Z</time></trkpt><trkpt lat="44.4014783" lon="10.9896167"><ele>452.0</ele><time>2026-05-01T08:05:56.659Z</time></trkpt><trkpt lat="44.4014717" lon="10.989505"><ele>451.99999999999994</ele><time>2026-05-01T08:05:57.657Z</time></trkpt><trkpt lat="44.401495" lon="10.9894067"><ele>452.0</ele><time>2026-05-01T08:05:58.658Z</time></trkpt><trkpt lat="44.401545" lon="10.9893267"><ele>452.0</ele><time>2026-05-01T08:05:59.658Z</time></trkpt><trkpt lat="44.4016067" lon="10.9892633"><ele>452.0</ele><time>2026-05-01T08:06:00.657Z</time></trkpt><trkpt lat="44.4016833" lon="10.989195"><ele>451.99999999999994</ele><time>2026-05-01T08:06:01.656Z</time></trkpt><trkpt lat="44.4017517" lon="10.9891267"><ele>452.0</ele><time>2026-05-01T08:06:02.659Z</time></trkpt><trkpt lat="44.40181" lon="10.9890583"><ele>450.99999999999994</ele><time>2026-05-01T08:06:03.657Z</time></trkpt><trkpt lat="44.401855" lon="10.98898"><ele>450.0</ele><time>2026-05-01T08:06:04.659Z</time></trkpt><trkpt lat="44.401875" lon="10.98889"><ele>449.0</ele><time>2026-05-01T08:06:05.658Z</time></trkpt><trkpt lat="44.4018817" lon="10.9887967"><ele>448.0</ele><time>2026-05-01T08:06:06.657Z</time></trkpt><trkpt lat="44.401875" lon="10.9886917"><ele>446.99999999999994</ele><time>2026-05-01T08:06:07.659Z</time></trkpt><trkpt lat="44.4018567" lon="10.9885683"><ele>446.0</ele><time>2026-05-01T08:06:08.66Z</time></trkpt><trkpt lat="44.4018467" lon="10.9884417"><ele>445.20000000000005</ele><time>2026-05-01T08:06:09.658Z</time></trkpt><trkpt lat="44.4018467" lon="10.9883083"><ele>444.40000000000003</ele><time>2026-05-01T08:06:10.658Z</time></trkpt><trkpt lat="44.4018683" lon="10.9881617"><ele>443.6</ele><time>2026-05-01T08:06:11.659Z</time></trkpt><trkpt lat="44.4019067" lon="10.9880017"><ele>442.8</ele><time>2026-05-01T08:06:12.658Z</time></trkpt><trkpt lat="44.4019433" lon="10.987855"><ele>442.0</ele><time>2026-05-01T08:06:13.661Z</time></trkpt><trkpt lat="44.4019767" lon="10.9877283"><ele>442.0</ele><time>2026-05-01T08:06:14.66Z</time></trkpt><trkpt lat="44.402" lon="10.9876083"><ele>442.00000000000006</ele><time>2026-05-01T08:06:15.66Z</time></trkpt><trkpt lat="44.4020117" lon="10.9874783"><ele>442.00000000000006</ele><time>2026-05-01T08:06:16.659Z</time></trkpt><trkpt lat="44.402005" lon="10.9873317"><ele>442.0</ele><time>2026-05-01T08:06:17.66Z</time></trkpt><trkpt lat="44.4019867" lon="10.9871733"><ele>442.0</ele><time>2026-05-01T08:06:18.658Z</time></trkpt><trkpt lat="44.4019683" lon="10.987025"><ele>441.00000000000006</ele><time>2026-05-01T08:06:19.659Z</time></trkpt><trkpt lat="44.4019517" lon="10.986895"><ele>440.0</ele><time>2026-05-01T08:06:20.664Z</time></trkpt><trkpt lat="44.4019433" lon="10.9867767"><ele>439.0</ele><time>2026-05-01T08:06:21.662Z</time></trkpt><trkpt lat="44.4019433" lon="10.9866667"><ele>438.0</ele><time>2026-05-01T08:06:22.667Z</time></trkpt><trkpt lat="44.4019633" lon="10.9865783"><ele>437.00000000000006</ele><time>2026-05-01T08:06:23.658Z</time></trkpt><trkpt lat="44.4020017" lon="10.9864983"><ele>436.0</ele><time>2026-05-01T08:06:24.658Z</time></trkpt><trkpt lat="44.40206" lon="10.9864117"><ele>435.0</ele><time>2026-05-01T08:06:25.674Z</time></trkpt><trkpt lat="44.4021367" lon="10.986325"><ele>434.0</ele><time>2026-05-01T08:06:26.658Z</time></trkpt><trkpt lat="44.4022383" lon="10.9862517"><ele>433.0</ele><time>2026-05-01T08:06:27.66Z</time></trkpt><trkpt lat="44.402335" lon="10.9861983"><ele>432.0</ele><time>2026-05-01T08:06:28.659Z</time></trkpt><trkpt lat="44.4024117" lon="10.9861417"><ele>431.0</ele><time>2026-05-01T08:06:29.662Z</time></trkpt><trkpt lat="44.40247" lon="10.9860617"><ele>430.8333333333333</ele><time>2026-05-01T08:06:30.66Z</time></trkpt><trkpt lat="44.40251" lon="10.9859633"><ele>430.66666666666663</ele><time>2026-05-01T08:06:31.662Z</time></trkpt><trkpt lat="44.4025167" lon="10.985855"><ele>430.5</ele><time>2026-05-01T08:06:32.659Z</time></trkpt><trkpt lat="44.40249" lon="10.985755"><ele>430.33333333333337</ele><time>2026-05-01T08:06:33.658Z</time></trkpt><trkpt lat="44.4024333" lon="10.98567"><ele>430.1666666666667</ele><time>2026-05-01T08:06:34.659Z</time></trkpt><trkpt lat="44.4023367" lon="10.9855833"><ele>430.0</ele><time>2026-05-01T08:06:35.658Z</time></trkpt><trkpt lat="44.4022417" lon="10.985495"><ele>428.50000000000006</ele><time>2026-05-01T08:06:36.661Z</time></trkpt><trkpt lat="44.4021617" lon="10.985415"><ele>427.0</ele><time>2026-05-01T08:06:37.659Z</time></trkpt><trkpt lat="44.402095" lon="10.9853383"><ele>425.5</ele><time>2026-05-01T08:06:38.661Z</time></trkpt><trkpt lat="44.4020433" lon="10.9852633"><ele>424.0</ele><time>2026-05-01T08:06:39.66Z</time></trkpt><trkpt lat="44.4020017" lon="10.9851733"><ele>422.50000000000006</ele><time>2026-05-01T08:06:40.659Z</time></trkpt><trkpt lat="44.4019817" lon="10.98508"><ele>421.0</ele><time>2026-05-01T08:06:41.659Z</time></trkpt><trkpt lat="44.4019717" lon="10.984975"><ele>418.83333333333337</ele><time>2026-05-01T08:06:42.66Z</time></trkpt><trkpt lat="44.401955" lon="10.9848683"><ele>416.6666666666667</ele><time>2026-05-01T08:06:43.657Z</time></trkpt><trkpt lat="44.4019333" lon="10.984765"><ele>414.5</ele><time>2026-05-01T08:06:44.659Z</time></trkpt><trkpt lat="44.4019117" lon="10.984655"><ele>412.33333333333337</ele><time>2026-05-01T08:06:45.659Z</time></trkpt><trkpt lat="44.4018967" lon="10.9845317"><ele>410.1666666666667</ele><time>2026-05-01T08:06:46.66Z</time></trkpt><trkpt lat="44.401885" lon="10.9844"><ele>408.0</ele><time>2026-05-01T08:06:47.659Z</time></trkpt><trkpt lat="44.4018733" lon="10.9842667"><ele>406.2</ele><time>2026-05-01T08:06:48.659Z</time></trkpt><trkpt lat="44.40186" lon="10.98413"><ele>404.4</ele><time>2026-05-01T08:06:49.658Z</time></trkpt><trkpt lat="44.4018433" lon="10.9839933"><ele>402.59999999999997</ele><time>2026-05-01T08:06:50.661Z</time></trkpt><trkpt lat="44.4018267" lon="10.98386"><ele>400.79999999999995</ele><time>2026-05-01T08:06:51.66Z</time></trkpt><trkpt lat="44.4018167" lon="10.9837117"><ele>399.0</ele><time>2026-05-01T08:06:52.659Z</time></trkpt><trkpt lat="44.4018183" lon="10.983555"><ele>399.0</ele><time>2026-05-01T08:06:53.659Z</time></trkpt><trkpt lat="44.401825" lon="10.9834167"><ele>399.0</ele><time>2026-05-01T08:06:54.657Z</time></trkpt><trkpt lat="44.401835" lon="10.9833067"><ele>399.0</ele><time>2026-05-01T08:06:55.658Z</time></trkpt><trkpt lat="44.4018533" lon="10.983205"><ele>399.0</ele><time>2026-05-01T08:06:56.659Z</time></trkpt><trkpt lat="44.4018683" lon="10.9831017"><ele>399.0</ele><time>2026-05-01T08:06:57.658Z</time></trkpt><trkpt lat="44.4018833" lon="10.982995"><ele>399.0</ele><time>2026-05-01T08:06:58.662Z</time></trkpt><trkpt lat="44.4019033" lon="10.9828767"><ele>398.0</ele><time>2026-05-01T08:06:59.659Z</time></trkpt><trkpt lat="44.4019383" lon="10.9827567"><ele>397.0</ele><time>2026-05-01T08:07:00.661Z</time></trkpt><trkpt lat="44.40198" lon="10.98265"><ele>396.0</ele><time>2026-05-01T08:07:01.66Z</time></trkpt><trkpt lat="44.40203" lon="10.9825617"><ele>395.0</ele><time>2026-05-01T08:07:02.661Z</time></trkpt><trkpt lat="44.4020833" lon="10.982495"><ele>394.0</ele><time>2026-05-01T08:07:03.658Z</time></trkpt><trkpt lat="44.4021367" lon="10.98244"><ele>393.0</ele><time>2026-05-01T08:07:04.656Z</time></trkpt><trkpt lat="44.402255" lon="10.98241"><ele>391.0</ele><time>2026-05-01T08:07:06.661Z</time></trkpt><trkpt lat="44.40236" lon="10.982325"><ele>389.0</ele><time>2026-05-01T08:07:08.66Z</time></trkpt><trkpt lat="44.4024033" lon="10.9822417"><ele>387.0</ele><time>2026-05-01T08:07:09.661Z</time></trkpt><trkpt lat="44.40245" lon="10.9821483"><ele>385.0</ele><time>2026-05-01T08:07:10.66Z</time></trkpt><trkpt lat="44.402505" lon="10.9820517"><ele>383.0</ele><time>2026-05-01T08:07:11.657Z</time></trkpt><trkpt lat="44.4025717" lon="10.9819417"><ele>383.0</ele><time>2026-05-01T08:07:12.661Z</time></trkpt><trkpt lat="44.4026433" lon="10.9818183"><ele>383.0</ele><time>2026-05-01T08:07:13.66Z</time></trkpt><trkpt lat="44.4027167" lon="10.98169"><ele>383.0</ele><time>2026-05-01T08:07:14.654Z</time></trkpt><trkpt lat="44.40279" lon="10.9815583"><ele>383.0</ele><time>2026-05-01T08:07:15.657Z</time></trkpt><trkpt lat="44.40287" lon="10.9814233"><ele>382.5</ele><time>2026-05-01T08:07:16.658Z</time></trkpt><trkpt lat="44.40295" lon="10.9812817"><ele>382.0</ele><time>2026-05-01T08:07:17.659Z</time></trkpt><trkpt lat="44.4030283" lon="10.981135"><ele>381.5</ele><time>2026-05-01T08:07:18.658Z</time></trkpt><trkpt lat="44.4030983" lon="10.980995"><ele>381.0</ele><time>2026-05-01T08:07:19.659Z</time></trkpt><trkpt lat="44.4031567" lon="10.980875"><ele>379.6666666666667</ele><time>2026-05-01T08:07:20.661Z</time></trkpt><trkpt lat="44.403205" lon="10.9807767"><ele>378.3333333333333</ele><time>2026-05-01T08:07:21.656Z</time></trkpt><trkpt lat="44.4032567" lon="10.9806867"><ele>377.0</ele><time>2026-05-01T08:07:22.658Z</time></trkpt><trkpt lat="44.4033183" lon="10.9806067"><ele>375.66666666666663</ele><time>2026-05-01T08:07:23.66Z</time></trkpt><trkpt lat="44.403385" lon="10.9805283"><ele>374.3333333333333</ele><time>2026-05-01T08:07:24.662Z</time></trkpt><trkpt lat="44.4034567" lon="10.9804367"><ele>373.0</ele><time>2026-05-01T08:07:25.658Z</time></trkpt><trkpt lat="44.403525" lon="10.9803217"><ele>373.0</ele><time>2026-05-01T08:07:26.659Z</time></trkpt><trkpt lat="44.403585" lon="10.98021"><ele>373.0</ele><time>2026-05-01T08:07:27.658Z</time></trkpt><trkpt lat="44.4036467" lon="10.98011"><ele>373.0</ele><time>2026-05-01T08:07:28.657Z</time></trkpt><trkpt lat="44.4037067" lon="10.98001"><ele>373.0</ele><time>2026-05-01T08:07:29.659Z</time></trkpt><trkpt lat="44.4037583" lon="10.9799167"><ele>373.0</ele><time>2026-05-01T08:07:30.657Z</time></trkpt><trkpt lat="44.4038033" lon="10.9798367"><ele>373.0</ele><time>2026-05-01T08:07:31.659Z</time></trkpt><trkpt lat="44.4038733" lon="10.9797033"><ele>372.4</ele><time>2026-05-01T08:07:33.658Z</time></trkpt><trkpt lat="44.4039133" lon="10.9796083"><ele>371.79999999999995</ele><time>2026-05-01T08:07:34.659Z</time></trkpt><trkpt lat="44.4039633" lon="10.9794983"><ele>371.2</ele><time>2026-05-01T08:07:35.659Z</time></trkpt><trkpt lat="44.40403" lon="10.9793833"><ele>370.6</ele><time>2026-05-01T08:07:36.659Z</time></trkpt><trkpt lat="44.4040983" lon="10.9792667"><ele>370.0</ele><time>2026-05-01T08:07:37.657Z</time></trkpt><trkpt lat="44.404165" lon="10.9791517"><ele>370.0</ele><time>2026-05-01T08:07:38.659Z</time></trkpt><trkpt lat="44.40423" lon="10.9790383"><ele>370.0</ele><time>2026-05-01T08:07:39.659Z</time></trkpt><trkpt lat="44.40429" lon="10.9789283"><ele>370.0</ele><time>2026-05-01T08:07:40.659Z</time></trkpt><trkpt lat="44.40435" lon="10.9788183"><ele>370.0</ele><time>2026-05-01T08:07:41.658Z</time></trkpt><trkpt lat="44.4044083" lon="10.9787017"><ele>370.0</ele><time>2026-05-01T08:07:42.658Z</time></trkpt><trkpt lat="44.404465" lon="10.9785833"><ele>370.0</ele><time>2026-05-01T08:07:43.657Z</time></trkpt><trkpt lat="44.4045117" lon="10.9784667"><ele>370.0</ele><time>2026-05-01T08:07:44.659Z</time></trkpt><trkpt lat="44.40456" lon="10.97835"><ele>370.0</ele><time>2026-05-01T08:07:45.658Z</time></trkpt><trkpt lat="44.404605" lon="10.9782417"><ele>370.0</ele><time>2026-05-01T08:07:46.659Z</time></trkpt><trkpt lat="44.4046567" lon="10.978145"><ele>370.0</ele><time>2026-05-01T08:07:47.657Z</time></trkpt><trkpt lat="44.4047117" lon="10.978045"><ele>368.6</ele><time>2026-05-01T08:07:48.66Z</time></trkpt><trkpt lat="44.4047617" lon="10.9779383"><ele>367.2</ele><time>2026-05-01T08:07:49.659Z</time></trkpt><trkpt lat="44.4048067" lon="10.9778217"><ele>365.79999999999995</ele><time>2026-05-01T08:07:50.66Z</time></trkpt><trkpt lat="44.4048517" lon="10.977695"><ele>364.4</ele><time>2026-05-01T08:07:51.659Z</time></trkpt><trkpt lat="44.404895" lon="10.97756"><ele>363.0</ele><time>2026-05-01T08:07:52.657Z</time></trkpt><trkpt lat="44.4049383" lon="10.9774183"><ele>363.0</ele><time>2026-05-01T08:07:53.658Z</time></trkpt><trkpt lat="44.4049767" lon="10.977285"><ele>363.0</ele><time>2026-05-01T08:07:54.657Z</time></trkpt><trkpt lat="44.4050083" lon="10.9771717"><ele>363.0</ele><time>2026-05-01T08:07:55.657Z</time></trkpt><trkpt lat="44.4050367" lon="10.9770767"><ele>363.0</ele><time>2026-05-01T08:07:56.659Z</time></trkpt><trkpt lat="44.4050867" lon="10.97693"><ele>363.0</ele><time>2026-05-01T08:07:58.66Z</time></trkpt><trkpt lat="44.405135" lon="10.97679"><ele>363.0</ele><time>2026-05-01T08:08:00.658Z</time></trkpt><trkpt lat="44.4051667" lon="10.9767033"><ele>363.0</ele><time>2026-05-01T08:08:01.659Z</time></trkpt><trkpt lat="44.4052067" lon="10.9766"><ele>363.0</ele><time>2026-05-01T08:08:02.661Z</time></trkpt><trkpt lat="44.40525" lon="10.9764867"><ele>363.0</ele><time>2026-05-01T08:08:03.66Z</time></trkpt><trkpt lat="44.4052967" lon="10.9763833"><ele>363.0</ele><time>2026-05-01T08:08:04.658Z</time></trkpt><trkpt lat="44.4053417" lon="10.9762867"><ele>363.0</ele><time>2026-05-01T08:08:05.658Z</time></trkpt><trkpt lat="44.4053817" lon="10.9761967"><ele>363.71428571428567</ele><time>2026-05-01T08:08:06.658Z</time></trkpt><trkpt lat="44.4054233" lon="10.976115"><ele>364.42857142857144</ele><time>2026-05-01T08:08:07.661Z</time></trkpt><trkpt lat="44.40547" lon="10.9760333"><ele>365.1428571428571</ele><time>2026-05-01T08:08:08.659Z</time></trkpt><trkpt lat="44.4055317" lon="10.9759633"><ele>365.85714285714283</ele><time>2026-05-01T08:08:09.677Z</time></trkpt><trkpt lat="44.40559" lon="10.9759017"><ele>366.57142857142856</ele><time>2026-05-01T08:08:10.661Z</time></trkpt><trkpt lat="44.4056483" lon="10.9758417"><ele>367.2857142857143</ele><time>2026-05-01T08:08:11.658Z</time></trkpt><trkpt lat="44.4057017" lon="10.97579"><ele>368.0</ele><time>2026-05-01T08:08:12.659Z</time></trkpt><trkpt lat="44.40577" lon="10.9756967"><ele>365.2</ele><time>2026-05-01T08:08:14.673Z</time></trkpt><trkpt lat="44.40584" lon="10.97559"><ele>362.4</ele><time>2026-05-01T08:08:16.659Z</time></trkpt><trkpt lat="44.405925" lon="10.975475"><ele>359.59999999999997</ele><time>2026-05-01T08:08:18.658Z</time></trkpt><trkpt lat="44.4060217" lon="10.9753617"><ele>356.79999999999995</ele><time>2026-05-01T08:08:20.658Z</time></trkpt><trkpt lat="44.4060683" lon="10.9753017"><ele>354.0</ele><time>2026-05-01T08:08:21.658Z</time></trkpt><trkpt lat="44.4061567" lon="10.9751867"><ele>354.0</ele><time>2026-05-01T08:08:23.659Z</time></trkpt><trkpt lat="44.4062433" lon="10.975105"><ele>354.0</ele><time>2026-05-01T08:08:25.662Z</time></trkpt><trkpt lat="44.406345" lon="10.9749983"><ele>354.0</ele><time>2026-05-01T08:08:27.659Z</time></trkpt><trkpt lat="44.4063983" lon="10.9749433"><ele>354.0</ele><time>2026-05-01T08:08:28.658Z</time></trkpt><trkpt lat="44.4064533" lon="10.97489"><ele>354.0</ele><time>2026-05-01T08:08:29.659Z</time></trkpt><trkpt lat="44.4065517" lon="10.9747867"><ele>351.8333333333333</ele><time>2026-05-01T08:08:31.66Z</time></trkpt><trkpt lat="44.4066667" lon="10.9746967"><ele>349.6666666666667</ele><time>2026-05-01T08:08:33.658Z</time></trkpt><trkpt lat="44.4067317" lon="10.97465"><ele>347.5</ele><time>2026-05-01T08:08:34.657Z</time></trkpt><trkpt lat="44.4067917" lon="10.974595"><ele>345.33333333333337</ele><time>2026-05-01T08:08:35.659Z</time></trkpt><trkpt lat="44.4068467" lon="10.9745267"><ele>343.1666666666667</ele><time>2026-05-01T08:08:36.657Z</time></trkpt><trkpt lat="44.4069" lon="10.9744467"><ele>341.0</ele><time>2026-05-01T08:08:37.657Z</time></trkpt><trkpt lat="44.4069417" lon="10.9743567"><ele>341.0</ele><time>2026-05-01T08:08:38.659Z</time></trkpt><trkpt lat="44.40697" lon="10.9742583"><ele>341.0</ele><time>2026-05-01T08:08:39.657Z</time></trkpt><trkpt lat="44.4070017" lon="10.9741283"><ele>341.0</ele><time>2026-05-01T08:08:41.658Z</time></trkpt><trkpt lat="44.4069967" lon="10.9740317"><ele>341.0</ele><time>2026-05-01T08:08:53.658Z</time></trkpt><trkpt lat="44.40696" lon="10.9741833"><ele>341.0</ele><time>2026-05-01T08:08:56.658Z</time></trkpt><trkpt lat="44.406935" lon="10.97433"><ele>341.0</ele><time>2026-05-01T08:08:58.658Z</time></trkpt><trkpt lat="44.4068867" lon="10.9744567"><ele>341.0</ele><time>2026-05-01T08:09:00.659Z</time></trkpt><trkpt lat="44.4068" lon="10.97458"><ele>341.0</ele><time>2026-05-01T08:09:02.659Z</time></trkpt><trkpt lat="44.4066983" lon="10.97468"><ele>341.0</ele><time>2026-05-01T08:09:04.658Z</time></trkpt><trkpt lat="44.4066417" lon="10.9747217"><ele>341.0</ele><time>2026-05-01T08:09:05.663Z</time></trkpt><trkpt lat="44.40658" lon="10.9747633"><ele>341.0</ele><time>2026-05-01T08:09:06.658Z</time></trkpt><trkpt lat="44.4065217" lon="10.9748083"><ele>341.0</ele><time>2026-05-01T08:09:07.659Z</time></trkpt><trkpt lat="44.40647" lon="10.9748617"><ele>341.0</ele><time>2026-05-01T08:09:08.658Z</time></trkpt><trkpt lat="44.406415" lon="10.9749267"><ele>341.0</ele><time>2026-05-01T08:09:09.658Z</time></trkpt><trkpt lat="44.4063583" lon="10.9749967"><ele>341.0</ele><time>2026-05-01T08:09:10.658Z</time></trkpt><trkpt lat="44.40629" lon="10.9750667"><ele>341.0</ele><time>2026-05-01T08:09:11.659Z</time></trkpt><trkpt lat="44.4062167" lon="10.97514"><ele>343.6</ele><time>2026-05-01T08:09:12.658Z</time></trkpt><trkpt lat="44.406145" lon="10.9752183"><ele>346.20000000000005</ele><time>2026-05-01T08:09:13.659Z</time></trkpt><trkpt lat="44.4060783" lon="10.97531"><ele>348.79999999999995</ele><time>2026-05-01T08:09:14.661Z</time></trkpt><trkpt lat="44.4060033" lon="10.9753917"><ele>351.4</ele><time>2026-05-01T08:09:15.659Z</time></trkpt><trkpt lat="44.4059267" lon="10.975475"><ele>354.0</ele><time>2026-05-01T08:09:16.657Z</time></trkpt><trkpt lat="44.4058533" lon="10.975565"><ele>354.0</ele><time>2026-05-01T08:09:17.657Z</time></trkpt><trkpt lat="44.40579" lon="10.9756583"><ele>354.0</ele><time>2026-05-01T08:09:18.658Z</time></trkpt><trkpt lat="44.4057367" lon="10.9757383"><ele>354.0</ele><time>2026-05-01T08:09:19.658Z</time></trkpt><trkpt lat="44.40567" lon="10.9758233"><ele>354.0</ele><time>2026-05-01T08:09:20.66Z</time></trkpt><trkpt lat="44.4055917" lon="10.9759033"><ele>354.0</ele><time>2026-05-01T08:09:21.661Z</time></trkpt><trkpt lat="44.405515" lon="10.975985"><ele>356.3333333333333</ele><time>2026-05-01T08:09:22.663Z</time></trkpt><trkpt lat="44.405445" lon="10.9760683"><ele>358.6666666666667</ele><time>2026-05-01T08:09:23.658Z</time></trkpt><trkpt lat="44.4053933" lon="10.9761533"><ele>361.0</ele><time>2026-05-01T08:09:24.662Z</time></trkpt><trkpt lat="44.4053467" lon="10.976245"><ele>363.33333333333337</ele><time>2026-05-01T08:09:25.658Z</time></trkpt><trkpt lat="44.4053033" lon="10.9763517"><ele>365.6666666666667</ele><time>2026-05-01T08:09:26.66Z</time></trkpt><trkpt lat="44.4052567" lon="10.976465"><ele>368.0</ele><time>2026-05-01T08:09:27.657Z</time></trkpt><trkpt lat="44.4052133" lon="10.9765717"><ele>368.0</ele><time>2026-05-01T08:09:28.657Z</time></trkpt><trkpt lat="44.405175" lon="10.9766767"><ele>368.0</ele><time>2026-05-01T08:09:29.658Z</time></trkpt><trkpt lat="44.40514" lon="10.9767733"><ele>368.0</ele><time>2026-05-01T08:09:30.659Z</time></trkpt><trkpt lat="44.4051033" lon="10.97685"><ele>368.0</ele><time>2026-05-01T08:09:31.659Z</time></trkpt><trkpt lat="44.4050533" lon="10.9769733"><ele>368.0</ele><time>2026-05-01T08:09:33.659Z</time></trkpt><trkpt lat="44.405015" lon="10.9771"><ele>368.0</ele><time>2026-05-01T08:09:35.66Z</time></trkpt><trkpt lat="44.4049667" lon="10.9772683"><ele>367.0</ele><time>2026-05-01T08:09:37.658Z</time></trkpt><trkpt lat="44.4049333" lon="10.9773933"><ele>366.0</ele><time>2026-05-01T08:09:38.661Z</time></trkpt><trkpt lat="44.4048983" lon="10.977535"><ele>365.0</ele><time>2026-05-01T08:09:39.659Z</time></trkpt><trkpt lat="44.4048533" lon="10.9776833"><ele>364.0</ele><time>2026-05-01T08:09:40.658Z</time></trkpt><trkpt lat="44.4048017" lon="10.9778217"><ele>363.0</ele><time>2026-05-01T08:09:41.658Z</time></trkpt><trkpt lat="44.40475" lon="10.9779617"><ele>362.59999999999997</ele><time>2026-05-01T08:09:42.657Z</time></trkpt><trkpt lat="44.4046883" lon="10.9780817"><ele>362.2</ele><time>2026-05-01T08:09:43.66Z</time></trkpt><trkpt lat="44.4046283" lon="10.9781867"><ele>361.8</ele><time>2026-05-01T08:09:44.659Z</time></trkpt><trkpt lat="44.4045717" lon="10.9782933"><ele>361.4</ele><time>2026-05-01T08:09:45.657Z</time></trkpt><trkpt lat="44.4045283" lon="10.9784167"><ele>361.0</ele><time>2026-05-01T08:09:46.658Z</time></trkpt><trkpt lat="44.4044733" lon="10.9785567"><ele>363.25</ele><time>2026-05-01T08:09:47.659Z</time></trkpt><trkpt lat="44.4044083" lon="10.9786967"><ele>365.5</ele><time>2026-05-01T08:09:48.657Z</time></trkpt><trkpt lat="44.40434" lon="10.9788283"><ele>367.75</ele><time>2026-05-01T08:09:49.657Z</time></trkpt><trkpt lat="44.4042767" lon="10.9789483"><ele>370.0</ele><time>2026-05-01T08:09:50.66Z</time></trkpt><trkpt lat="44.4042117" lon="10.9790683"><ele>369.6</ele><time>2026-05-01T08:09:51.659Z</time></trkpt><trkpt lat="44.4041433" lon="10.979195"><ele>369.2</ele><time>2026-05-01T08:09:52.658Z</time></trkpt><trkpt lat="44.404075" lon="10.9793133"><ele>368.79999999999995</ele><time>2026-05-01T08:09:53.657Z</time></trkpt><trkpt lat="44.4040083" lon="10.979425"><ele>368.4</ele><time>2026-05-01T08:09:54.659Z</time></trkpt><trkpt lat="44.403945" lon="10.9795283"><ele>368.0</ele><time>2026-05-01T08:09:55.658Z</time></trkpt><trkpt lat="44.4038967" lon="10.97962"><ele>368.0</ele><time>2026-05-01T08:09:56.658Z</time></trkpt><trkpt lat="44.4038633" lon="10.9797067"><ele>368.0</ele><time>2026-05-01T08:09:57.659Z</time></trkpt><trkpt lat="44.4038283" lon="10.97979"><ele>368.0</ele><time>2026-05-01T08:09:58.657Z</time></trkpt><trkpt lat="44.4037883" lon="10.9798717"><ele>368.0</ele><time>2026-05-01T08:09:59.657Z</time></trkpt><trkpt lat="44.4037417" lon="10.9799633"><ele>368.0</ele><time>2026-05-01T08:10:00.666Z</time></trkpt><trkpt lat="44.4036867" lon="10.980065"><ele>368.0</ele><time>2026-05-01T08:10:01.655Z</time></trkpt><trkpt lat="44.40363" lon="10.9801617"><ele>368.83333333333337</ele><time>2026-05-01T08:10:02.655Z</time></trkpt><trkpt lat="44.4035733" lon="10.98026"><ele>369.6666666666667</ele><time>2026-05-01T08:10:03.657Z</time></trkpt><trkpt lat="44.4035167" lon="10.980365"><ele>370.5</ele><time>2026-05-01T08:10:04.657Z</time></trkpt><trkpt lat="44.4034667" lon="10.9804617"><ele>371.3333333333333</ele><time>2026-05-01T08:10:05.658Z</time></trkpt><trkpt lat="44.40341" lon="10.9805383"><ele>372.16666666666663</ele><time>2026-05-01T08:10:06.658Z</time></trkpt><trkpt lat="44.40335" lon="10.9805933"><ele>373.0</ele><time>2026-05-01T08:10:07.657Z</time></trkpt><trkpt lat="44.4032883" lon="10.9806417"><ele>373.0</ele><time>2026-05-01T08:10:08.659Z</time></trkpt><trkpt lat="44.40323" lon="10.9807017"><ele>373.0</ele><time>2026-05-01T08:10:09.656Z</time></trkpt><trkpt lat="44.4031783" lon="10.9807883"><ele>373.0</ele><time>2026-05-01T08:10:10.659Z</time></trkpt><trkpt lat="44.403135" lon="10.98089"><ele>373.0</ele><time>2026-05-01T08:10:11.659Z</time></trkpt><trkpt lat="44.4030867" lon="10.981"><ele>373.0</ele><time>2026-05-01T08:10:12.661Z</time></trkpt><trkpt lat="44.4030333" lon="10.98111"><ele>373.0</ele><time>2026-05-01T08:10:13.658Z</time></trkpt><trkpt lat="44.4029767" lon="10.98122"><ele>374.59999999999997</ele><time>2026-05-01T08:10:14.66Z</time></trkpt><trkpt lat="44.4029133" lon="10.98133"><ele>376.2</ele><time>2026-05-01T08:10:15.659Z</time></trkpt><trkpt lat="44.402855" lon="10.9814383"><ele>377.8</ele><time>2026-05-01T08:10:16.659Z</time></trkpt><trkpt lat="44.4028" lon="10.9815333"><ele>379.4</ele><time>2026-05-01T08:10:17.665Z</time></trkpt><trkpt lat="44.40275" lon="10.9816233"><ele>381.0</ele><time>2026-05-01T08:10:18.653Z</time></trkpt><trkpt lat="44.402695" lon="10.9817133"><ele>381.3333333333333</ele><time>2026-05-01T08:10:19.663Z</time></trkpt><trkpt lat="44.4026383" lon="10.9818083"><ele>381.6666666666667</ele><time>2026-05-01T08:10:20.659Z</time></trkpt><trkpt lat="44.402585" lon="10.9819017"><ele>382.0</ele><time>2026-05-01T08:10:21.657Z</time></trkpt><trkpt lat="44.402535" lon="10.9819933"><ele>382.33333333333337</ele><time>2026-05-01T08:10:22.656Z</time></trkpt><trkpt lat="44.4024867" lon="10.98208"><ele>382.6666666666667</ele><time>2026-05-01T08:10:23.654Z</time></trkpt><trkpt lat="44.4024383" lon="10.982165"><ele>383.0</ele><time>2026-05-01T08:10:24.657Z</time></trkpt><trkpt lat="44.4023883" lon="10.982255"><ele>383.0</ele><time>2026-05-01T08:10:25.657Z</time></trkpt><trkpt lat="44.402345" lon="10.9823383"><ele>383.0</ele><time>2026-05-01T08:10:26.659Z</time></trkpt><trkpt lat="44.4023033" lon="10.9824133"><ele>383.0</ele><time>2026-05-01T08:10:27.658Z</time></trkpt><trkpt lat="44.40222" lon="10.9825083"><ele>383.0</ele><time>2026-05-01T08:10:29.658Z</time></trkpt><trkpt lat="44.4021067" lon="10.9825117"><ele>383.0</ele><time>2026-05-01T08:10:31.658Z</time></trkpt><trkpt lat="44.402" lon="10.9825883"><ele>384.6666666666667</ele><time>2026-05-01T08:10:33.658Z</time></trkpt><trkpt lat="44.4019517" lon="10.9826767"><ele>386.33333333333337</ele><time>2026-05-01T08:10:34.657Z</time></trkpt><trkpt lat="44.4019133" lon="10.9827917"><ele>388.0</ele><time>2026-05-01T08:10:35.656Z</time></trkpt><trkpt lat="44.4018833" lon="10.982915"><ele>389.6666666666667</ele><time>2026-05-01T08:10:36.658Z</time></trkpt><trkpt lat="44.4018667" lon="10.9830417"><ele>391.3333333333333</ele><time>2026-05-01T08:10:37.657Z</time></trkpt><trkpt lat="44.4018533" lon="10.98316"><ele>393.0</ele><time>2026-05-01T08:10:38.661Z</time></trkpt><trkpt lat="44.4018417" lon="10.9832767"><ele>394.2</ele><time>2026-05-01T08:10:39.66Z</time></trkpt><trkpt lat="44.4018267" lon="10.9834083"><ele>395.4</ele><time>2026-05-01T08:10:40.665Z</time></trkpt><trkpt lat="44.4018183" lon="10.9835467"><ele>396.59999999999997</ele><time>2026-05-01T08:10:41.66Z</time></trkpt><trkpt lat="44.4018133" lon="10.983685"><ele>397.79999999999995</ele><time>2026-05-01T08:10:42.659Z</time></trkpt><trkpt lat="44.4018133" lon="10.983815"><ele>399.0</ele><time>2026-05-01T08:10:43.658Z</time></trkpt><trkpt lat="44.4018217" lon="10.98394"><ele>399.0</ele><time>2026-05-01T08:10:44.66Z</time></trkpt><trkpt lat="44.4018367" lon="10.9840617"><ele>399.0</ele><time>2026-05-01T08:10:45.659Z</time></trkpt><trkpt lat="44.4018533" lon="10.9841817"><ele>399.0</ele><time>2026-05-01T08:10:46.659Z</time></trkpt><trkpt lat="44.4018683" lon="10.9842967"><ele>399.0</ele><time>2026-05-01T08:10:47.66Z</time></trkpt><trkpt lat="44.4018767" lon="10.98442"><ele>399.0</ele><time>2026-05-01T08:10:48.659Z</time></trkpt><trkpt lat="44.40189" lon="10.9845433"><ele>399.0</ele><time>2026-05-01T08:10:49.658Z</time></trkpt><trkpt lat="44.401905" lon="10.9846633"><ele>400.5</ele><time>2026-05-01T08:10:50.66Z</time></trkpt><trkpt lat="44.4019233" lon="10.9847733"><ele>402.0</ele><time>2026-05-01T08:10:51.658Z</time></trkpt><trkpt lat="44.40194" lon="10.9848833"><ele>403.5</ele><time>2026-05-01T08:10:52.659Z</time></trkpt><trkpt lat="44.4019633" lon="10.9849883"><ele>405.0</ele><time>2026-05-01T08:10:53.659Z</time></trkpt><trkpt lat="44.4019867" lon="10.9850883"><ele>406.5</ele><time>2026-05-01T08:10:54.658Z</time></trkpt><trkpt lat="44.4020117" lon="10.9851817"><ele>408.0</ele><time>2026-05-01T08:10:55.667Z</time></trkpt><trkpt lat="44.4020417" lon="10.9852617"><ele>410.2</ele><time>2026-05-01T08:10:56.653Z</time></trkpt><trkpt lat="44.4021283" lon="10.9854167"><ele>412.4</ele><time>2026-05-01T08:10:58.658Z</time></trkpt><trkpt lat="44.4021983" lon="10.985505"><ele>414.59999999999997</ele><time>2026-05-01T08:10:59.658Z</time></trkpt><trkpt lat="44.402275" lon="10.9855883"><ele>416.79999999999995</ele><time>2026-05-01T08:11:00.661Z</time></trkpt><trkpt lat="44.4023483" lon="10.98566"><ele>419.0</ele><time>2026-05-01T08:11:01.654Z</time></trkpt><trkpt lat="44.4024067" lon="10.9857267"><ele>418.99999999999994</ele><time>2026-05-01T08:11:02.657Z</time></trkpt><trkpt lat="44.4024517" lon="10.985795"><ele>419.0</ele><time>2026-05-01T08:11:03.661Z</time></trkpt><trkpt lat="44.4024867" lon="10.9859383"><ele>419.0</ele><time>2026-05-01T08:11:05.662Z</time></trkpt><trkpt lat="44.40245" lon="10.9860833"><ele>419.0</ele><time>2026-05-01T08:11:07.656Z</time></trkpt><trkpt lat="44.4024083" lon="10.986155"><ele>418.99999999999994</ele><time>2026-05-01T08:11:08.658Z</time></trkpt><trkpt lat="44.4023583" lon="10.98621"><ele>419.0</ele><time>2026-05-01T08:11:09.658Z</time></trkpt><trkpt lat="44.4022933" lon="10.98625"><ele>420.57142857142856</ele><time>2026-05-01T08:11:10.659Z</time></trkpt><trkpt lat="44.402225" lon="10.9862933"><ele>422.1428571428571</ele><time>2026-05-01T08:11:11.657Z</time></trkpt><trkpt lat="44.4021633" lon="10.9863517"><ele>423.71428571428567</ele><time>2026-05-01T08:11:12.657Z</time></trkpt><trkpt lat="44.402105" lon="10.986415"><ele>425.2857142857143</ele><time>2026-05-01T08:11:13.657Z</time></trkpt><trkpt lat="44.402055" lon="10.9864833"><ele>426.8571428571429</ele><time>2026-05-01T08:11:14.66Z</time></trkpt><trkpt lat="44.4020167" lon="10.9865583"><ele>428.4285714285714</ele><time>2026-05-01T08:11:15.659Z</time></trkpt><trkpt lat="44.4019833" lon="10.98664"><ele>430.0</ele><time>2026-05-01T08:11:16.66Z</time></trkpt><trkpt lat="44.401955" lon="10.9867417"><ele>431.2</ele><time>2026-05-01T08:11:17.66Z</time></trkpt><trkpt lat="44.4019417" lon="10.98686"><ele>432.4</ele><time>2026-05-01T08:11:18.662Z</time></trkpt><trkpt lat="44.4019433" lon="10.9869817"><ele>433.6</ele><time>2026-05-01T08:11:19.659Z</time></trkpt><trkpt lat="44.40196" lon="10.9871267"><ele>434.8</ele><time>2026-05-01T08:11:20.662Z</time></trkpt><trkpt lat="44.4019767" lon="10.9872733"><ele>436.0</ele><time>2026-05-01T08:11:21.66Z</time></trkpt><trkpt lat="44.4019867" lon="10.9874117"><ele>437.00000000000006</ele><time>2026-05-01T08:11:22.659Z</time></trkpt><trkpt lat="44.4019867" lon="10.9875483"><ele>438.0</ele><time>2026-05-01T08:11:23.659Z</time></trkpt><trkpt lat="44.4019733" lon="10.987675"><ele>439.0</ele><time>2026-05-01T08:11:24.658Z</time></trkpt><trkpt lat="44.40195" lon="10.98779"><ele>440.0</ele><time>2026-05-01T08:11:25.658Z</time></trkpt><trkpt lat="44.4019267" lon="10.9878833"><ele>441.00000000000006</ele><time>2026-05-01T08:11:26.663Z</time></trkpt><trkpt lat="44.401905" lon="10.9879733"><ele>442.0</ele><time>2026-05-01T08:11:27.659Z</time></trkpt><trkpt lat="44.4018867" lon="10.98807"><ele>442.0</ele><time>2026-05-01T08:11:28.659Z</time></trkpt><trkpt lat="44.4018667" lon="10.98817"><ele>442.00000000000006</ele><time>2026-05-01T08:11:29.66Z</time></trkpt><trkpt lat="44.401845" lon="10.9882683"><ele>442.00000000000006</ele><time>2026-05-01T08:11:30.658Z</time></trkpt><trkpt lat="44.4018233" lon="10.9884217"><ele>442.0</ele><time>2026-05-01T08:11:32.66Z</time></trkpt><trkpt lat="44.4018167" lon="10.9885283"><ele>442.0</ele><time>2026-05-01T08:11:39.658Z</time></trkpt><trkpt lat="44.4018383" lon="10.9886883"><ele>442.8</ele><time>2026-05-01T08:11:41.659Z</time></trkpt><trkpt lat="44.4018417" lon="10.988855"><ele>443.6</ele><time>2026-05-01T08:11:43.659Z</time></trkpt><trkpt lat="44.4018367" lon="10.9889433"><ele>444.40000000000003</ele><time>2026-05-01T08:11:44.66Z</time></trkpt><trkpt lat="44.4017817" lon="10.9890983"><ele>445.20000000000005</ele><time>2026-05-01T08:11:46.658Z</time></trkpt><trkpt lat="44.4017333" lon="10.9891717"><ele>446.0</ele><time>2026-05-01T08:11:47.659Z</time></trkpt><trkpt lat="44.4016683" lon="10.989245"><ele>446.99999999999994</ele><time>2026-05-01T08:11:48.66Z</time></trkpt><trkpt lat="44.4016" lon="10.9893117"><ele>448.0</ele><time>2026-05-01T08:11:49.661Z</time></trkpt><trkpt lat="44.40154" lon="10.9893783"><ele>449.0</ele><time>2026-05-01T08:11:50.66Z</time></trkpt><trkpt lat="44.40149" lon="10.9894583"><ele>450.0</ele><time>2026-05-01T08:11:51.662Z</time></trkpt><trkpt lat="44.401465" lon="10.989555"><ele>450.99999999999994</ele><time>2026-05-01T08:11:52.657Z</time></trkpt><trkpt lat="44.4014583" lon="10.989665"><ele>452.0</ele><time>2026-05-01T08:11:53.659Z</time></trkpt><trkpt lat="44.40148" lon="10.9897917"><ele>452.0</ele><time>2026-05-01T08:11:54.659Z</time></trkpt><trkpt lat="44.4015333" lon="10.9899417"><ele>452.00000000000006</ele><time>2026-05-01T08:11:55.659Z</time></trkpt><trkpt lat="44.40159" lon="10.990075"><ele>452.00000000000006</ele><time>2026-05-01T08:11:56.658Z</time></trkpt><trkpt lat="44.401645" lon="10.9901817"><ele>452.0</ele><time>2026-05-01T08:11:57.659Z</time></trkpt><trkpt lat="44.40169" lon="10.9902583"><ele>452.0</ele><time>2026-05-01T08:11:58.659Z</time></trkpt><trkpt lat="44.401705" lon="10.9903917"><ele>453.3333333333333</ele><time>2026-05-01T08:12:06.658Z</time></trkpt><trkpt lat="44.40163" lon="10.9905267"><ele>454.66666666666663</ele><time>2026-05-01T08:12:08.661Z</time></trkpt><trkpt lat="44.401575" lon="10.9905983"><ele>456.0</ele><time>2026-05-01T08:12:09.672Z</time></trkpt><trkpt lat="44.4015167" lon="10.9906733"><ele>457.33333333333337</ele><time>2026-05-01T08:12:10.657Z</time></trkpt><trkpt lat="44.4014667" lon="10.9907383"><ele>458.6666666666667</ele><time>2026-05-01T08:12:11.658Z</time></trkpt><trkpt lat="44.4014117" lon="10.9908167"><ele>460.0</ele><time>2026-05-01T08:12:12.658Z</time></trkpt><trkpt lat="44.4013533" lon="10.9909067"><ele>459.2</ele><time>2026-05-01T08:12:13.657Z</time></trkpt><trkpt lat="44.4012833" lon="10.991"><ele>458.4</ele><time>2026-05-01T08:12:14.668Z</time></trkpt><trkpt lat="44.4012117" lon="10.9910917"><ele>457.6</ele><time>2026-05-01T08:12:15.658Z</time></trkpt><trkpt lat="44.401135" lon="10.9911967"><ele>456.8</ele><time>2026-05-01T08:12:16.658Z</time></trkpt><trkpt lat="44.4010433" lon="10.99131"><ele>456.0</ele><time>2026-05-01T08:12:17.659Z</time></trkpt><trkpt lat="44.40095" lon="10.9914233"><ele>456.0</ele><time>2026-05-01T08:12:18.66Z</time></trkpt><trkpt lat="44.40086" lon="10.9915367"><ele>456.0</ele><time>2026-05-01T08:12:19.659Z</time></trkpt><trkpt lat="44.400775" lon="10.991645"><ele>456.0</ele><time>2026-05-01T08:12:20.66Z</time></trkpt><trkpt lat="44.40069" lon="10.9917417"><ele>456.0</ele><time>2026-05-01T08:12:21.661Z</time></trkpt><trkpt lat="44.4006083" lon="10.991845"><ele>455.20000000000005</ele><time>2026-05-01T08:12:22.659Z</time></trkpt><trkpt lat="44.4005317" lon="10.9919483"><ele>454.40000000000003</ele><time>2026-05-01T08:12:23.66Z</time></trkpt><trkpt lat="44.4004567" lon="10.99204"><ele>453.6</ele><time>2026-05-01T08:12:24.658Z</time></trkpt><trkpt lat="44.4003883" lon="10.99214"><ele>452.8</ele><time>2026-05-01T08:12:25.654Z</time></trkpt><trkpt lat="44.400315" lon="10.9922533"><ele>452.0</ele><time>2026-05-01T08:12:26.659Z</time></trkpt><trkpt lat="44.4002367" lon="10.9923767"><ele>452.0</ele><time>2026-05-01T08:12:27.658Z</time></trkpt><trkpt lat="44.4001583" lon="10.9925017"><ele>452.00000000000006</ele><time>2026-05-01T08:12:28.658Z</time></trkpt><trkpt lat="44.40009" lon="10.9926117"><ele>452.00000000000006</ele><time>2026-05-01T08:12:29.661Z</time></trkpt><trkpt lat="44.4000367" lon="10.9927"><ele>452.0</ele><time>2026-05-01T08:12:30.658Z</time></trkpt><trkpt lat="44.3999733" lon="10.992785"><ele>452.0</ele><time>2026-05-01T08:12:32.658Z</time></trkpt><trkpt lat="44.399885" lon="10.99276"><ele>451.49999999999994</ele><time>2026-05-01T08:12:35.66Z</time></trkpt><trkpt lat="44.3997967" lon="10.992735"><ele>451.0</ele><time>2026-05-01T08:12:37.659Z</time></trkpt><trkpt lat="44.3997167" lon="10.9926767"><ele>450.5</ele><time>2026-05-01T08:12:39.657Z</time></trkpt><trkpt lat="44.39962" lon="10.992585"><ele>450.0</ele><time>2026-05-01T08:12:41.66Z</time></trkpt><trkpt lat="44.3995683" lon="10.9925267"><ele>449.49999999999994</ele><time>2026-05-01T08:12:42.657Z</time></trkpt><trkpt lat="44.3995117" lon="10.992465"><ele>449.0</ele><time>2026-05-01T08:12:43.659Z</time></trkpt><trkpt lat="44.399455" lon="10.992395"><ele>448.99999999999994</ele><time>2026-05-01T08:12:44.66Z</time></trkpt><trkpt lat="44.3993933" lon="10.9923233"><ele>449.0</ele><time>2026-05-01T08:12:45.658Z</time></trkpt><trkpt lat="44.39933" lon="10.9922483"><ele>449.0</ele><time>2026-05-01T08:12:46.658Z</time></trkpt><trkpt lat="44.3992717" lon="10.992175"><ele>449.0</ele><time>2026-05-01T08:12:47.659Z</time></trkpt><trkpt lat="44.399225" lon="10.99211"><ele>448.99999999999994</ele><time>2026-05-01T08:12:48.659Z</time></trkpt><trkpt lat="44.3991567" lon="10.9919967"><ele>449.0</ele><time>2026-05-01T08:12:50.66Z</time></trkpt><trkpt lat="44.3991283" lon="10.99191"><ele>449.0</ele><time>2026-05-01T08:12:52.662Z</time></trkpt><trkpt lat="44.399115" lon="10.9918217"><ele>448.99999999999994</ele><time>2026-05-01T08:12:55.656Z</time></trkpt><trkpt lat="44.3991233" lon="10.9917233"><ele>449.0</ele><time>2026-05-01T08:12:57.663Z</time></trkpt><trkpt lat="44.3991267" lon="10.99163"><ele>449.0</ele><time>2026-05-01T08:13:00.658Z</time></trkpt><trkpt lat="44.3990883" lon="10.9915467"><ele>448.99999999999994</ele><time>2026-05-01T08:13:17.657Z</time></trkpt><trkpt lat="44.3990233" lon="10.9914867"><ele>449.0</ele><time>2026-05-01T08:13:20.659Z</time></trkpt><trkpt lat="44.39902" lon="10.9913633"><ele>449.0</ele><time>2026-05-01T08:13:23.658Z</time></trkpt><trkpt lat="44.39907" lon="10.9912017"><ele>448.99999999999994</ele><time>2026-05-01T08:13:25.66Z</time></trkpt><trkpt lat="44.3990967" lon="10.9911067"><ele>449.0</ele><time>2026-05-01T08:13:26.659Z</time></trkpt><trkpt lat="44.39912" lon="10.9910183"><ele>449.0</ele><time>2026-05-01T08:13:27.659Z</time></trkpt><trkpt lat="44.3991617" lon="10.9908767"><ele>449.0</ele><time>2026-05-01T08:13:29.658Z</time></trkpt><trkpt lat="44.3992033" lon="10.9907833"><ele>448.99999999999994</ele><time>2026-05-01T08:13:31.658Z</time></trkpt><trkpt lat="44.39925" lon="10.9907083"><ele>449.0</ele><time>2026-05-01T08:13:33.659Z</time></trkpt><trkpt lat="44.3992917" lon="10.9905967"><ele>448.99999999999994</ele><time>2026-05-01T08:13:35.66Z</time></trkpt><trkpt lat="44.3993367" lon="10.9905267"><ele>449.0</ele><time>2026-05-01T08:13:48.657Z</time></trkpt><trkpt lat="44.39937" lon="10.9904317"><ele>449.0</ele><time>2026-05-01T08:14:33.654Z</time></trkpt><trkpt lat="44.39928" lon="10.99036"><ele>449.0</ele><time>2026-05-01T08:25:08.657Z</time></trkpt><trkpt lat="44.3992817" lon="10.9904517"><ele>448.99999999999994</ele><time>2026-05-01T08:26:29.658Z</time></trkpt><trkpt lat="44.3992683" lon="10.99056"><ele>449.0</ele><time>2026-05-01T08:26:32.657Z</time></trkpt><trkpt lat="44.3993033" lon="10.9906383"><ele>448.99999999999994</ele><time>2026-05-01T08:26:36.659Z</time></trkpt><trkpt lat="44.3993617" lon="10.9906883"><ele>449.0</ele><time>2026-05-01T08:26:39.66Z</time></trkpt><trkpt lat="44.39935" lon="10.9908283"><ele>449.0</ele><time>2026-05-01T08:26:42.659Z</time></trkpt><trkpt lat="44.3992983" lon="10.9909717"><ele>449.0</ele><time>2026-05-01T08:26:44.66Z</time></trkpt><trkpt lat="44.3992667" lon="10.9910667"><ele>448.99999999999994</ele><time>2026-05-01T08:26:45.658Z</time></trkpt><trkpt lat="44.39924" lon="10.99117"><ele>449.0</ele><time>2026-05-01T08:26:46.659Z</time></trkpt><trkpt lat="44.3992133" lon="10.9912683"><ele>448.99999999999994</ele><time>2026-05-01T08:26:47.659Z</time></trkpt><trkpt lat="44.399185" lon="10.9913667"><ele>449.0</ele><time>2026-05-01T08:26:48.657Z</time></trkpt><trkpt lat="44.399155" lon="10.9914667"><ele>449.0</ele><time>2026-05-01T08:26:49.66Z</time></trkpt><trkpt lat="44.3991317" lon="10.9915683"><ele>449.0</ele><time>2026-05-01T08:26:50.66Z</time></trkpt><trkpt lat="44.3991183" lon="10.9916717"><ele>448.99999999999994</ele><time>2026-05-01T08:26:51.658Z</time></trkpt><trkpt lat="44.3991117" lon="10.9917717"><ele>449.0</ele><time>2026-05-01T08:26:52.658Z</time></trkpt><trkpt lat="44.39912" lon="10.991935"><ele>448.99999999999994</ele><time>2026-05-01T08:26:54.658Z</time></trkpt><trkpt lat="44.3991633" lon="10.992075"><ele>449.0</ele><time>2026-05-01T08:26:56.659Z</time></trkpt><trkpt lat="44.399255" lon="10.992185"><ele>449.0</ele><time>2026-05-01T08:26:58.66Z</time></trkpt><trkpt lat="44.3993067" lon="10.9922383"><ele>449.0</ele><time>2026-05-01T08:26:59.662Z</time></trkpt><trkpt lat="44.39936" lon="10.9922967"><ele>448.99999999999994</ele><time>2026-05-01T08:27:00.657Z</time></trkpt><trkpt lat="44.399415" lon="10.992355"><ele>449.0</ele><time>2026-05-01T08:27:01.659Z</time></trkpt><trkpt lat="44.399465" lon="10.9924133"><ele>448.99999999999994</ele><time>2026-05-01T08:27:02.659Z</time></trkpt><trkpt lat="44.3995167" lon="10.9924717"><ele>449.0</ele><time>2026-05-01T08:27:03.658Z</time></trkpt><trkpt lat="44.3995717" lon="10.99253"><ele>449.0</ele><time>2026-05-01T08:27:04.658Z</time></trkpt><trkpt lat="44.3996267" lon="10.9925833"><ele>449.0</ele><time>2026-05-01T08:27:05.66Z</time></trkpt><trkpt lat="44.3997267" lon="10.9926667"><ele>448.99999999999994</ele><time>2026-05-01T08:27:07.661Z</time></trkpt><trkpt lat="44.39981" lon="10.99272"><ele>449.0</ele><time>2026-05-01T08:27:09.658Z</time></trkpt><trkpt lat="44.3998767" lon="10.99274"><ele>450.57142857142856</ele><time>2026-05-01T08:27:11.659Z</time></trkpt><trkpt lat="44.3999367" lon="10.9927733"><ele>452.1428571428571</ele><time>2026-05-01T08:27:14.658Z</time></trkpt><trkpt lat="44.3999317" lon="10.99288"><ele>453.71428571428567</ele><time>2026-05-01T08:27:17.657Z</time></trkpt><trkpt lat="44.3998783" lon="10.9930033"><ele>455.2857142857142</ele><time>2026-05-01T08:27:19.66Z</time></trkpt><trkpt lat="44.3998383" lon="10.9930783"><ele>456.85714285714283</ele><time>2026-05-01T08:27:20.66Z</time></trkpt><trkpt lat="44.3997983" lon="10.9931533"><ele>458.42857142857133</ele><time>2026-05-01T08:27:21.662Z</time></trkpt><trkpt lat="44.3997583" lon="10.9932267"><ele>459.99999999999994</ele><time>2026-05-01T08:27:22.66Z</time></trkpt><trkpt lat="44.3997233" lon="10.9933067"><ele>460.42857142857133</ele><time>2026-05-01T08:27:23.659Z</time></trkpt><trkpt lat="44.3996967" lon="10.993395"><ele>460.85714285714283</ele><time>2026-05-01T08:27:24.661Z</time></trkpt><trkpt lat="44.3996733" lon="10.99349"><ele>461.2857142857142</ele><time>2026-05-01T08:27:25.661Z</time></trkpt><trkpt lat="44.3996617" lon="10.9935883"><ele>461.71428571428567</ele><time>2026-05-01T08:27:26.66Z</time></trkpt><trkpt lat="44.399655" lon="10.9936917"><ele>462.1428571428571</ele><time>2026-05-01T08:27:27.659Z</time></trkpt><trkpt lat="44.3996567" lon="10.9937983"><ele>462.57142857142856</ele><time>2026-05-01T08:27:28.657Z</time></trkpt><trkpt lat="44.3996683" lon="10.9939033"><ele>463.0</ele><time>2026-05-01T08:27:29.658Z</time></trkpt><trkpt lat="44.3996817" lon="10.9940117"><ele>463.83333333333337</ele><time>2026-05-01T08:27:30.657Z</time></trkpt><trkpt lat="44.399685" lon="10.9941167"><ele>464.6666666666667</ele><time>2026-05-01T08:27:31.658Z</time></trkpt><trkpt lat="44.3996733" lon="10.9942167"><ele>465.5</ele><time>2026-05-01T08:27:32.659Z</time></trkpt><trkpt lat="44.399655" lon="10.9943083"><ele>466.33333333333337</ele><time>2026-05-01T08:27:33.658Z</time></trkpt><trkpt lat="44.3996217" lon="10.9943867"><ele>467.1666666666667</ele><time>2026-05-01T08:27:34.657Z</time></trkpt><trkpt lat="44.3995767" lon="10.9944517"><ele>468.0</ele><time>2026-05-01T08:27:35.658Z</time></trkpt><trkpt lat="44.3994933" lon="10.9945817"><ele>468.0</ele><time>2026-05-01T08:27:37.658Z</time></trkpt><trkpt lat="44.3994567" lon="10.994665"><ele>468.0</ele><time>2026-05-01T08:27:38.658Z</time></trkpt><trkpt lat="44.3994183" lon="10.9947633"><ele>468.0</ele><time>2026-05-01T08:27:39.659Z</time></trkpt><trkpt lat="44.39938" lon="10.994865"><ele>468.0</ele><time>2026-05-01T08:27:40.657Z</time></trkpt><trkpt lat="44.3993433" lon="10.9949733"><ele>468.0</ele><time>2026-05-01T08:27:41.658Z</time></trkpt><trkpt lat="44.3993067" lon="10.995085"><ele>468.0</ele><time>2026-05-01T08:27:42.658Z</time></trkpt><trkpt lat="44.3992567" lon="10.99519"><ele>469.3333333333333</ele><time>2026-05-01T08:27:43.658Z</time></trkpt><trkpt lat="44.3991967" lon="10.9952833"><ele>470.66666666666663</ele><time>2026-05-01T08:27:44.659Z</time></trkpt><trkpt lat="44.3991317" lon="10.9953667"><ele>472.0</ele><time>2026-05-01T08:27:45.659Z</time></trkpt><trkpt lat="44.3990667" lon="10.9954383"><ele>473.3333333333333</ele><time>2026-05-01T08:27:46.657Z</time></trkpt><trkpt lat="44.3990033" lon="10.9955167"><ele>474.66666666666663</ele><time>2026-05-01T08:27:47.654Z</time></trkpt><trkpt lat="44.39894" lon="10.9955933"><ele>476.0</ele><time>2026-05-01T08:27:48.657Z</time></trkpt><trkpt lat="44.3988767" lon="10.9956683"><ele>475.8</ele><time>2026-05-01T08:27:49.659Z</time></trkpt><trkpt lat="44.3988117" lon="10.99574"><ele>475.6</ele><time>2026-05-01T08:27:50.661Z</time></trkpt><trkpt lat="44.3987333" lon="10.9957983"><ele>475.4</ele><time>2026-05-01T08:27:51.658Z</time></trkpt><trkpt lat="44.39864" lon="10.9958417"><ele>475.2</ele><time>2026-05-01T08:27:52.658Z</time></trkpt><trkpt lat="44.3985467" lon="10.9958767"><ele>475.0</ele><time>2026-05-01T08:27:53.659Z</time></trkpt><trkpt lat="44.3984433" lon="10.9959083"><ele>476.4</ele><time>2026-05-01T08:27:54.66Z</time></trkpt><trkpt lat="44.3983417" lon="10.9959483"><ele>477.8</ele><time>2026-05-01T08:27:55.66Z</time></trkpt><trkpt lat="44.3982467" lon="10.996"><ele>479.20000000000005</ele><time>2026-05-01T08:27:56.661Z</time></trkpt><trkpt lat="44.3981567" lon="10.9960533"><ele>480.6</ele><time>2026-05-01T08:27:57.657Z</time></trkpt><trkpt lat="44.3980833" lon="10.99611"><ele>482.0</ele><time>2026-05-01T08:27:58.661Z</time></trkpt><trkpt lat="44.3980267" lon="10.9961767"><ele>481.99999999999994</ele><time>2026-05-01T08:27:59.659Z</time></trkpt><trkpt lat="44.3979883" lon="10.99626"><ele>482.0</ele><time>2026-05-01T08:28:00.658Z</time></trkpt><trkpt lat="44.39796" lon="10.99635"><ele>482.0</ele><time>2026-05-01T08:28:01.659Z</time></trkpt><trkpt lat="44.397935" lon="10.996455"><ele>482.0</ele><time>2026-05-01T08:28:02.662Z</time></trkpt><trkpt lat="44.3979167" lon="10.9965683"><ele>481.99999999999994</ele><time>2026-05-01T08:28:03.658Z</time></trkpt><trkpt lat="44.3979" lon="10.9966817"><ele>482.0</ele><time>2026-05-01T08:28:04.659Z</time></trkpt><trkpt lat="44.3978917" lon="10.9967917"><ele>483.16666666666663</ele><time>2026-05-01T08:28:05.658Z</time></trkpt><trkpt lat="44.3978867" lon="10.9968867"><ele>484.3333333333333</ele><time>2026-05-01T08:28:06.66Z</time></trkpt><trkpt lat="44.3978917" lon="10.996975"><ele>485.5</ele><time>2026-05-01T08:28:07.658Z</time></trkpt><trkpt lat="44.39787" lon="10.9971383"><ele>486.66666666666663</ele><time>2026-05-01T08:28:09.659Z</time></trkpt><trkpt lat="44.3978333" lon="10.9972167"><ele>487.8333333333333</ele><time>2026-05-01T08:28:10.654Z</time></trkpt><trkpt lat="44.39778" lon="10.997305"><ele>489.0</ele><time>2026-05-01T08:28:11.658Z</time></trkpt><trkpt lat="44.39773" lon="10.997395"><ele>489.0</ele><time>2026-05-01T08:28:12.658Z</time></trkpt><trkpt lat="44.3976867" lon="10.99749"><ele>489.0</ele><time>2026-05-01T08:28:13.657Z</time></trkpt><trkpt lat="44.39764" lon="10.9975933"><ele>489.0</ele><time>2026-05-01T08:28:14.66Z</time></trkpt><trkpt lat="44.397585" lon="10.9977"><ele>489.0</ele><time>2026-05-01T08:28:15.658Z</time></trkpt><trkpt lat="44.39753" lon="10.99781"><ele>489.0</ele><time>2026-05-01T08:28:16.657Z</time></trkpt><trkpt lat="44.3974733" lon="10.9979233"><ele>490.1666666666667</ele><time>2026-05-01T08:28:17.657Z</time></trkpt><trkpt lat="44.3974167" lon="10.998035"><ele>491.33333333333337</ele><time>2026-05-01T08:28:18.659Z</time></trkpt><trkpt lat="44.3973633" lon="10.9981417"><ele>492.5</ele><time>2026-05-01T08:28:19.659Z</time></trkpt><trkpt lat="44.3973117" lon="10.99824"><ele>493.6666666666667</ele><time>2026-05-01T08:28:20.66Z</time></trkpt><trkpt lat="44.397255" lon="10.998335"><ele>494.83333333333337</ele><time>2026-05-01T08:28:21.66Z</time></trkpt><trkpt lat="44.3971983" lon="10.998415"><ele>496.0</ele><time>2026-05-01T08:28:22.658Z</time></trkpt><trkpt lat="44.3971367" lon="10.9984883"><ele>497.6666666666667</ele><time>2026-05-01T08:28:23.659Z</time></trkpt><trkpt lat="44.3970683" lon="10.99856"><ele>499.33333333333337</ele><time>2026-05-01T08:28:24.659Z</time></trkpt><trkpt lat="44.3969933" lon="10.9986417"><ele>501.0</ele><time>2026-05-01T08:28:25.659Z</time></trkpt><trkpt lat="44.3969217" lon="10.9987133"><ele>502.66666666666663</ele><time>2026-05-01T08:28:26.66Z</time></trkpt><trkpt lat="44.3968483" lon="10.9987833"><ele>504.3333333333333</ele><time>2026-05-01T08:28:27.66Z</time></trkpt><trkpt lat="44.396775" lon="10.9988433"><ele>506.0</ele><time>2026-05-01T08:28:28.658Z</time></trkpt><trkpt lat="44.3967033" lon="10.9988883"><ele>505.99999999999994</ele><time>2026-05-01T08:28:29.66Z</time></trkpt><trkpt lat="44.3966283" lon="10.99892"><ele>506.0</ele><time>2026-05-01T08:28:30.658Z</time></trkpt><trkpt lat="44.3965433" lon="10.998935"><ele>506.0</ele><time>2026-05-01T08:28:31.658Z</time></trkpt><trkpt lat="44.3964617" lon="10.99893"><ele>506.0</ele><time>2026-05-01T08:28:32.66Z</time></trkpt><trkpt lat="44.3963783" lon="10.9989217"><ele>505.99999999999994</ele><time>2026-05-01T08:28:33.659Z</time></trkpt><trkpt lat="44.39629" lon="10.9989183"><ele>506.0</ele><time>2026-05-01T08:28:34.655Z</time></trkpt><trkpt lat="44.396185" lon="10.9989233"><ele>506.4</ele><time>2026-05-01T08:28:35.658Z</time></trkpt><trkpt lat="44.3960717" lon="10.99893"><ele>506.8</ele><time>2026-05-01T08:28:36.657Z</time></trkpt><trkpt lat="44.3959667" lon="10.99893"><ele>507.19999999999993</ele><time>2026-05-01T08:28:37.658Z</time></trkpt><trkpt lat="44.39587" lon="10.99892"><ele>507.59999999999997</ele><time>2026-05-01T08:28:38.66Z</time></trkpt><trkpt lat="44.3957783" lon="10.9989083"><ele>508.0</ele><time>2026-05-01T08:28:39.657Z</time></trkpt><trkpt lat="44.3956967" lon="10.9989083"><ele>508.00000000000006</ele><time>2026-05-01T08:28:40.658Z</time></trkpt><trkpt lat="44.3956283" lon="10.99895"><ele>508.0</ele><time>2026-05-01T08:28:41.658Z</time></trkpt><trkpt lat="44.39558" lon="10.9990117"><ele>508.0</ele><time>2026-05-01T08:28:42.659Z</time></trkpt><trkpt lat="44.395555" lon="10.9991033"><ele>508.0</ele><time>2026-05-01T08:28:43.659Z</time></trkpt><trkpt lat="44.395545" lon="10.999205"><ele>508.00000000000006</ele><time>2026-05-01T08:28:44.66Z</time></trkpt><trkpt lat="44.3955467" lon="10.99934"><ele>508.0</ele><time>2026-05-01T08:28:46.658Z</time></trkpt><trkpt lat="44.39563" lon="10.9993483"><ele>508.6666666666667</ele><time>2026-05-01T08:28:49.66Z</time></trkpt><trkpt lat="44.3956767" lon="10.9992567"><ele>509.33333333333337</ele><time>2026-05-01T08:28:52.66Z</time></trkpt><trkpt lat="44.39562" lon="10.99921"><ele>510.0</ele><time>2026-05-01T08:28:57.658Z</time></trkpt><trkpt lat="44.3955717" lon="10.9993083"><ele>510.66666666666663</ele><time>2026-05-01T08:28:59.658Z</time></trkpt><trkpt lat="44.39553" lon="10.9993917"><ele>511.3333333333333</ele><time>2026-05-01T08:29:00.658Z</time></trkpt><trkpt lat="44.3954817" lon="10.9995017"><ele>512.0</ele><time>2026-05-01T08:29:01.658Z</time></trkpt><trkpt lat="44.3954283" lon="10.9996183"><ele>512.4</ele><time>2026-05-01T08:29:02.66Z</time></trkpt><trkpt lat="44.39537" lon="10.99973"><ele>512.8000000000001</ele><time>2026-05-01T08:29:03.658Z</time></trkpt><trkpt lat="44.3953283" lon="10.9998383"><ele>513.2</ele><time>2026-05-01T08:29:04.658Z</time></trkpt><trkpt lat="44.3952983" lon="10.9999517"><ele>513.6</ele><time>2026-05-01T08:29:05.658Z</time></trkpt><trkpt lat="44.3952633" lon="11.0000717"><ele>514.0</ele><time>2026-05-01T08:29:06.659Z</time></trkpt><trkpt lat="44.39522" lon="11.0002"><ele>514.0</ele><time>2026-05-01T08:29:07.657Z</time></trkpt><trkpt lat="44.3951667" lon="11.0003317"><ele>514.0</ele><time>2026-05-01T08:29:08.66Z</time></trkpt><trkpt lat="44.3951117" lon="11.0004583"><ele>514.0</ele><time>2026-05-01T08:29:09.659Z</time></trkpt><trkpt lat="44.3950617" lon="11.0005733"><ele>514.0</ele><time>2026-05-01T08:29:10.658Z</time></trkpt><trkpt lat="44.3950183" lon="11.0006783"><ele>514.0</ele><time>2026-05-01T08:29:11.659Z</time></trkpt><trkpt lat="44.3949817" lon="11.0007767"><ele>514.8333333333334</ele><time>2026-05-01T08:29:12.659Z</time></trkpt><trkpt lat="44.3949567" lon="11.0008783"><ele>515.6666666666667</ele><time>2026-05-01T08:29:13.658Z</time></trkpt><trkpt lat="44.39494" lon="11.0009967"><ele>516.5</ele><time>2026-05-01T08:29:14.659Z</time></trkpt><trkpt lat="44.39492" lon="11.001125"><ele>517.3333333333334</ele><time>2026-05-01T08:29:15.659Z</time></trkpt><trkpt lat="44.3948917" lon="11.001245"><ele>518.1666666666666</ele><time>2026-05-01T08:29:16.658Z</time></trkpt><trkpt lat="44.394855" lon="11.0013467"><ele>519.0</ele><time>2026-05-01T08:29:17.658Z</time></trkpt><trkpt lat="44.3948017" lon="11.0014633"><ele>519.0</ele><time>2026-05-01T08:29:19.66Z</time></trkpt><trkpt lat="44.3948383" lon="11.0015483"><ele>519.0</ele><time>2026-05-01T08:29:36.658Z</time></trkpt><trkpt lat="44.394875" lon="11.0016483"><ele>519.0</ele><time>2026-05-01T08:29:38.659Z</time></trkpt><trkpt lat="44.3949333" lon="11.001735"><ele>519.0</ele><time>2026-05-01T08:29:40.658Z</time></trkpt><trkpt lat="44.3950033" lon="11.0017617"><ele>519.0</ele><time>2026-05-01T08:29:42.658Z</time></trkpt><trkpt lat="44.3950767" lon="11.0017467"><ele>519.0</ele><time>2026-05-01T08:29:44.66Z</time></trkpt><trkpt lat="44.3951917" lon="11.0017167"><ele>519.0</ele><time>2026-05-01T08:29:46.658Z</time></trkpt><trkpt lat="44.395315" lon="11.001695"><ele>519.0</ele><time>2026-05-01T08:29:48.659Z</time></trkpt><trkpt lat="44.3953767" lon="11.0016767"><ele>519.0</ele><time>2026-05-01T08:29:49.66Z</time></trkpt><trkpt lat="44.395485" lon="11.0016333"><ele>519.0</ele><time>2026-05-01T08:29:51.659Z</time></trkpt><trkpt lat="44.3955767" lon="11.0015683"><ele>519.0</ele><time>2026-05-01T08:29:53.66Z</time></trkpt><trkpt lat="44.3956633" lon="11.001515"><ele>519.8</ele><time>2026-05-01T08:29:55.657Z</time></trkpt><trkpt lat="44.3957633" lon="11.0015"><ele>520.5999999999999</ele><time>2026-05-01T08:29:57.66Z</time></trkpt><trkpt lat="44.3958683" lon="11.0015317"><ele>521.4</ele><time>2026-05-01T08:29:59.661Z</time></trkpt><trkpt lat="44.3959633" lon="11.0015867"><ele>522.1999999999999</ele><time>2026-05-01T08:30:01.657Z</time></trkpt><trkpt lat="44.396055" lon="11.001695"><ele>523.0</ele><time>2026-05-01T08:30:03.658Z</time></trkpt><trkpt lat="44.396095" lon="11.0017717"><ele>525.6</ele><time>2026-05-01T08:30:04.658Z</time></trkpt><trkpt lat="44.3961567" lon="11.0019167"><ele>528.1999999999999</ele><time>2026-05-01T08:30:06.659Z</time></trkpt><trkpt lat="44.3962083" lon="11.002065"><ele>530.8</ele><time>2026-05-01T08:30:08.66Z</time></trkpt><trkpt lat="44.396245" lon="11.0021983"><ele>533.4</ele><time>2026-05-01T08:30:10.659Z</time></trkpt><trkpt lat="44.396255" lon="11.0023217"><ele>536.0</ele><time>2026-05-01T08:30:12.659Z</time></trkpt><trkpt lat="44.39625" lon="11.0024283"><ele>538.4</ele><time>2026-05-01T08:30:14.658Z</time></trkpt><trkpt lat="44.39624" lon="11.0025567"><ele>540.8</ele><time>2026-05-01T08:30:16.658Z</time></trkpt><trkpt lat="44.39624" lon="11.00272"><ele>543.1999999999999</ele><time>2026-05-01T08:30:18.658Z</time></trkpt><trkpt lat="44.3962417" lon="11.0028667"><ele>545.6</ele><time>2026-05-01T08:30:20.658Z</time></trkpt><trkpt lat="44.39624" lon="11.0030067"><ele>548.0</ele><time>2026-05-01T08:30:22.658Z</time></trkpt><trkpt lat="44.3962217" lon="11.0031417"><ele>548.0</ele><time>2026-05-01T08:30:24.657Z</time></trkpt><trkpt lat="44.3962217" lon="11.0032417"><ele>548.0</ele><time>2026-05-01T08:30:27.658Z</time></trkpt><trkpt lat="44.3961917" lon="11.003355"><ele>548.0</ele><time>2026-05-01T08:30:36.658Z</time></trkpt><trkpt lat="44.3961767" lon="11.0034433"><ele>548.0</ele><time>2026-05-01T08:30:37.658Z</time></trkpt><trkpt lat="44.3961617" lon="11.0035533"><ele>548.0</ele><time>2026-05-01T08:30:38.658Z</time></trkpt><trkpt lat="44.3961417" lon="11.0036667"><ele>548.0</ele><time>2026-05-01T08:30:39.654Z</time></trkpt><trkpt lat="44.3961217" lon="11.0037783"><ele>550.4285714285714</ele><time>2026-05-01T08:30:40.656Z</time></trkpt><trkpt lat="44.3961117" lon="11.0039017"><ele>552.8571428571429</ele><time>2026-05-01T08:30:41.657Z</time></trkpt><trkpt lat="44.396105" lon="11.004015"><ele>555.2857142857142</ele><time>2026-05-01T08:30:42.659Z</time></trkpt><trkpt lat="44.3960983" lon="11.0041183"><ele>557.7142857142858</ele><time>2026-05-01T08:30:43.659Z</time></trkpt><trkpt lat="44.3960833" lon="11.004215"><ele>560.1428571428571</ele><time>2026-05-01T08:30:44.658Z</time></trkpt><trkpt lat="44.3960583" lon="11.0043033"><ele>562.5714285714286</ele><time>2026-05-01T08:30:45.658Z</time></trkpt><trkpt lat="44.396025" lon="11.0043833"><ele>565.0</ele><time>2026-05-01T08:30:46.657Z</time></trkpt><trkpt lat="44.3959417" lon="11.0045167"><ele>568.0</ele><time>2026-05-01T08:30:48.66Z</time></trkpt><trkpt lat="44.39589" lon="11.0045767"><ele>571.0</ele><time>2026-05-01T08:30:49.659Z</time></trkpt><trkpt lat="44.3958033" lon="11.004645"><ele>574.0</ele><time>2026-05-01T08:30:51.658Z</time></trkpt><trkpt lat="44.3957367" lon="11.0047033"><ele>577.0</ele><time>2026-05-01T08:31:05.657Z</time></trkpt><trkpt lat="44.3957017" lon="11.0048283"><ele>580.0</ele><time>2026-05-01T08:31:08.658Z</time></trkpt><trkpt lat="44.3956333" lon="11.0048967"><ele>583.0</ele><time>2026-05-01T08:31:10.657Z</time></trkpt><trkpt lat="44.395575" lon="11.0049317"><ele>583.0</ele><time>2026-05-01T08:31:11.656Z</time></trkpt><trkpt lat="44.395505" lon="11.0049817"><ele>583.0</ele><time>2026-05-01T08:31:12.656Z</time></trkpt><trkpt lat="44.395435" lon="11.0050383"><ele>583.0</ele><time>2026-05-01T08:31:13.657Z</time></trkpt><trkpt lat="44.39537" lon="11.0050933"><ele>583.0</ele><time>2026-05-01T08:31:14.659Z</time></trkpt><trkpt lat="44.3952717" lon="11.0051717"><ele>583.0</ele><time>2026-05-01T08:31:16.656Z</time></trkpt><trkpt lat="44.3951933" lon="11.0053117"><ele>583.8571428571429</ele><time>2026-05-01T08:31:39.661Z</time></trkpt><trkpt lat="44.3951217" lon="11.00536"><ele>584.7142857142858</ele><time>2026-05-01T08:31:41.659Z</time></trkpt><trkpt lat="44.3950383" lon="11.0054317"><ele>585.5714285714286</ele><time>2026-05-01T08:31:43.658Z</time></trkpt><trkpt lat="44.3949883" lon="11.0054867"><ele>586.4285714285714</ele><time>2026-05-01T08:31:44.661Z</time></trkpt><trkpt lat="44.3949367" lon="11.00555"><ele>587.2857142857142</ele><time>2026-05-01T08:31:45.659Z</time></trkpt><trkpt lat="44.3948867" lon="11.00561"><ele>588.1428571428571</ele><time>2026-05-01T08:31:46.66Z</time></trkpt><trkpt lat="44.3948367" lon="11.0056667"><ele>589.0</ele><time>2026-05-01T08:31:47.669Z</time></trkpt><trkpt lat="44.3947867" lon="11.005725"><ele>589.0</ele><time>2026-05-01T08:31:48.659Z</time></trkpt><trkpt lat="44.3947367" lon="11.00578"><ele>589.0</ele><time>2026-05-01T08:31:49.657Z</time></trkpt><trkpt lat="44.3946383" lon="11.0058667"><ele>589.0</ele><time>2026-05-01T08:31:51.659Z</time></trkpt><trkpt lat="44.3945517" lon="11.0059067"><ele>589.0</ele><time>2026-05-01T08:31:53.66Z</time></trkpt><trkpt lat="44.39446" lon="11.0058883"><ele>589.0</ele><time>2026-05-01T08:31:55.659Z</time></trkpt><trkpt lat="44.3943467" lon="11.0058433"><ele>588.5714285714286</ele><time>2026-05-01T08:31:57.659Z</time></trkpt><trkpt lat="44.3942667" lon="11.0058233"><ele>588.1428571428571</ele><time>2026-05-01T08:31:58.659Z</time></trkpt><trkpt lat="44.3941917" lon="11.0058067"><ele>587.7142857142857</ele><time>2026-05-01T08:31:59.659Z</time></trkpt><trkpt lat="44.39412" lon="11.0058017"><ele>587.2857142857142</ele><time>2026-05-01T08:32:00.659Z</time></trkpt><trkpt lat="44.3940467" lon="11.0058067"><ele>586.8571428571429</ele><time>2026-05-01T08:32:01.66Z</time></trkpt><trkpt lat="44.39398" lon="11.0058167"><ele>586.4285714285713</ele><time>2026-05-01T08:32:02.661Z</time></trkpt><trkpt lat="44.3939167" lon="11.0058433"><ele>586.0</ele><time>2026-05-01T08:32:03.659Z</time></trkpt><trkpt lat="44.3938533" lon="11.00588"><ele>585.8333333333334</ele><time>2026-05-01T08:32:04.659Z</time></trkpt><trkpt lat="44.3937933" lon="11.0059233"><ele>585.6666666666667</ele><time>2026-05-01T08:32:05.661Z</time></trkpt><trkpt lat="44.3937283" lon="11.00597"><ele>585.5</ele><time>2026-05-01T08:32:06.659Z</time></trkpt><trkpt lat="44.393645" lon="11.0060133"><ele>585.3333333333334</ele><time>2026-05-01T08:32:07.659Z</time></trkpt><trkpt lat="44.39355" lon="11.0060583"><ele>585.1666666666666</ele><time>2026-05-01T08:32:08.66Z</time></trkpt><trkpt lat="44.3934433" lon="11.0061067"><ele>585.0</ele><time>2026-05-01T08:32:09.661Z</time></trkpt><trkpt lat="44.39333" lon="11.0061467"><ele>585.0</ele><time>2026-05-01T08:32:10.658Z</time></trkpt><trkpt lat="44.3932117" lon="11.0061767"><ele>585.0</ele><time>2026-05-01T08:32:11.659Z</time></trkpt><trkpt lat="44.3930883" lon="11.0061833"><ele>585.0</ele><time>2026-05-01T08:32:12.66Z</time></trkpt><trkpt lat="44.3929617" lon="11.0061733"><ele>585.0</ele><time>2026-05-01T08:32:13.659Z</time></trkpt><trkpt lat="44.3928467" lon="11.0061667"><ele>584.0</ele><time>2026-05-01T08:32:14.66Z</time></trkpt><trkpt lat="44.39273" lon="11.00616"><ele>583.0</ele><time>2026-05-01T08:32:15.661Z</time></trkpt><trkpt lat="44.3926117" lon="11.0061683"><ele>582.0</ele><time>2026-05-01T08:32:16.661Z</time></trkpt><trkpt lat="44.3925017" lon="11.0061983"><ele>581.0</ele><time>2026-05-01T08:32:17.659Z</time></trkpt><trkpt lat="44.3923967" lon="11.0062483"><ele>581.0</ele><time>2026-05-01T08:32:18.658Z</time></trkpt><trkpt lat="44.3922917" lon="11.0063117"><ele>581.0</ele><time>2026-05-01T08:32:19.658Z</time></trkpt><trkpt lat="44.3921967" lon="11.0063933"><ele>581.0</ele><time>2026-05-01T08:32:20.66Z</time></trkpt><trkpt lat="44.3921133" lon="11.00648"><ele>581.0</ele><time>2026-05-01T08:32:21.659Z</time></trkpt><trkpt lat="44.3920333" lon="11.0065633"><ele>581.0</ele><time>2026-05-01T08:32:22.657Z</time></trkpt><trkpt lat="44.3919583" lon="11.006655"><ele>581.2</ele><time>2026-05-01T08:32:23.658Z</time></trkpt><trkpt lat="44.3918733" lon="11.0067467"><ele>581.4000000000001</ele><time>2026-05-01T08:32:24.66Z</time></trkpt><trkpt lat="44.3917783" lon="11.0068233"><ele>581.6</ele><time>2026-05-01T08:32:25.66Z</time></trkpt><trkpt lat="44.3916783" lon="11.0068717"><ele>581.8000000000001</ele><time>2026-05-01T08:32:26.661Z</time></trkpt><trkpt lat="44.391575" lon="11.0068983"><ele>582.0</ele><time>2026-05-01T08:32:27.658Z</time></trkpt><trkpt lat="44.3914683" lon="11.0069267"><ele>582.0</ele><time>2026-05-01T08:32:28.658Z</time></trkpt><trkpt lat="44.3913583" lon="11.0069533"><ele>582.0</ele><time>2026-05-01T08:32:29.658Z</time></trkpt><trkpt lat="44.3912483" lon="11.0069683"><ele>582.0</ele><time>2026-05-01T08:32:30.661Z</time></trkpt><trkpt lat="44.39114" lon="11.0069733"><ele>582.0</ele><time>2026-05-01T08:32:31.66Z</time></trkpt><trkpt lat="44.3910283" lon="11.0069533"><ele>582.0</ele><time>2026-05-01T08:32:32.66Z</time></trkpt><trkpt lat="44.39091" lon="11.00691"><ele>582.0</ele><time>2026-05-01T08:32:33.659Z</time></trkpt><trkpt lat="44.3907883" lon="11.0068467"><ele>582.0</ele><time>2026-05-01T08:32:34.658Z</time></trkpt><trkpt lat="44.3906583" lon="11.0067717"><ele>582.0</ele><time>2026-05-01T08:32:35.66Z</time></trkpt><trkpt lat="44.39052" lon="11.0067067"><ele>582.0</ele><time>2026-05-01T08:32:36.66Z</time></trkpt><trkpt lat="44.3903717" lon="11.0066583"><ele>582.0</ele><time>2026-05-01T08:32:37.661Z</time></trkpt><trkpt lat="44.39022" lon="11.0066233"><ele>582.0</ele><time>2026-05-01T08:32:38.659Z</time></trkpt><trkpt lat="44.3900667" lon="11.0066017"><ele>582.0</ele><time>2026-05-01T08:32:39.659Z</time></trkpt><trkpt lat="44.3899167" lon="11.0065767"><ele>582.0</ele><time>2026-05-01T08:32:40.66Z</time></trkpt><trkpt lat="44.3897667" lon="11.00656"><ele>582.0</ele><time>2026-05-01T08:32:41.659Z</time></trkpt><trkpt lat="44.3896233" lon="11.00654"><ele>582.0</ele><time>2026-05-01T08:32:42.661Z</time></trkpt><trkpt lat="44.389485" lon="11.00652"><ele>582.0</ele><time>2026-05-01T08:32:43.658Z</time></trkpt><trkpt lat="44.3893533" lon="11.0064967"><ele>583.75</ele><time>2026-05-01T08:32:44.662Z</time></trkpt><trkpt lat="44.3892267" lon="11.0064733"><ele>585.5</ele><time>2026-05-01T08:32:45.658Z</time></trkpt><trkpt lat="44.3891033" lon="11.006445"><ele>587.25</ele><time>2026-05-01T08:32:46.658Z</time></trkpt><trkpt lat="44.3889783" lon="11.0064033"><ele>589.0</ele><time>2026-05-01T08:32:47.659Z</time></trkpt><trkpt lat="44.388855" lon="11.006335"><ele>592.75</ele><time>2026-05-01T08:32:48.657Z</time></trkpt><trkpt lat="44.3887383" lon="11.0062317"><ele>596.5</ele><time>2026-05-01T08:32:49.658Z</time></trkpt><trkpt lat="44.3886333" lon="11.0061133"><ele>600.25</ele><time>2026-05-01T08:32:50.66Z</time></trkpt><trkpt lat="44.3885433" lon="11.006005"><ele>604.0</ele><time>2026-05-01T08:32:51.658Z</time></trkpt><trkpt lat="44.3884683" lon="11.005925"><ele>604.0</ele><time>2026-05-01T08:32:52.656Z</time></trkpt><trkpt lat="44.3884133" lon="11.005865"><ele>604.0</ele><time>2026-05-01T08:32:53.659Z</time></trkpt><trkpt lat="44.38834" lon="11.0057917"><ele>604.0</ele><time>2026-05-01T08:32:55.659Z</time></trkpt><trkpt lat="44.3883683" lon="11.0059067"><ele>604.0</ele><time>2026-05-01T08:33:00.658Z</time></trkpt><trkpt lat="44.3884433" lon="11.0059733"><ele>604.0</ele><time>2026-05-01T08:33:01.659Z</time></trkpt><trkpt lat="44.3885283" lon="11.0060683"><ele>604.0</ele><time>2026-05-01T08:33:02.66Z</time></trkpt><trkpt lat="44.3886167" lon="11.0061783"><ele>604.0</ele><time>2026-05-01T08:33:03.659Z</time></trkpt><trkpt lat="44.38871" lon="11.0062767"><ele>604.0</ele><time>2026-05-01T08:33:04.66Z</time></trkpt><trkpt lat="44.3888033" lon="11.006355"><ele>604.0</ele><time>2026-05-01T08:33:05.66Z</time></trkpt><trkpt lat="44.3889033" lon="11.00642"><ele>604.0</ele><time>2026-05-01T08:33:06.659Z</time></trkpt><trkpt lat="44.3890133" lon="11.0064733"><ele>600.25</ele><time>2026-05-01T08:33:07.658Z</time></trkpt><trkpt lat="44.38913" lon="11.0065117"><ele>596.5</ele><time>2026-05-01T08:33:08.66Z</time></trkpt><trkpt lat="44.389245" lon="11.0065383"><ele>592.75</ele><time>2026-05-01T08:33:09.659Z</time></trkpt><trkpt lat="44.3893667" lon="11.0065533"><ele>589.0</ele><time>2026-05-01T08:33:10.659Z</time></trkpt><trkpt lat="44.3894867" lon="11.0065667"><ele>589.0</ele><time>2026-05-01T08:33:11.658Z</time></trkpt><trkpt lat="44.3896" lon="11.0065817"><ele>589.0</ele><time>2026-05-01T08:33:12.659Z</time></trkpt><trkpt lat="44.389705" lon="11.0065933"><ele>589.0</ele><time>2026-05-01T08:33:13.657Z</time></trkpt><trkpt lat="44.3897983" lon="11.0066"><ele>589.0</ele><time>2026-05-01T08:33:14.659Z</time></trkpt><trkpt lat="44.3898733" lon="11.0066083"><ele>589.0</ele><time>2026-05-01T08:33:15.659Z</time></trkpt><trkpt lat="44.38997" lon="11.006605"><ele>588.8333333333334</ele><time>2026-05-01T08:33:17.657Z</time></trkpt><trkpt lat="44.3900433" lon="11.006635"><ele>588.6666666666667</ele><time>2026-05-01T08:33:20.661Z</time></trkpt><trkpt lat="44.39004" lon="11.0067333"><ele>588.5</ele><time>2026-05-01T08:33:24.659Z</time></trkpt><trkpt lat="44.3899567" lon="11.0067383"><ele>588.3333333333334</ele><time>2026-05-01T08:33:27.659Z</time></trkpt><trkpt lat="44.3898467" lon="11.0067283"><ele>588.1666666666666</ele><time>2026-05-01T08:33:29.655Z</time></trkpt><trkpt lat="44.389775" lon="11.00673"><ele>588.0</ele><time>2026-05-01T08:33:30.66Z</time></trkpt><trkpt lat="44.3896983" lon="11.00672"><ele>589.5</ele><time>2026-05-01T08:33:31.661Z</time></trkpt><trkpt lat="44.3896183" lon="11.0067117"><ele>591.0</ele><time>2026-05-01T08:33:32.661Z</time></trkpt><trkpt lat="44.3895433" lon="11.006705"><ele>592.5</ele><time>2026-05-01T08:33:33.659Z</time></trkpt><trkpt lat="44.38947" lon="11.0066983"><ele>594.0</ele><time>2026-05-01T08:33:34.659Z</time></trkpt><trkpt lat="44.389395" lon="11.0067"><ele>595.5</ele><time>2026-05-01T08:33:35.659Z</time></trkpt><trkpt lat="44.3893133" lon="11.006695"><ele>597.0</ele><time>2026-05-01T08:33:36.661Z</time></trkpt><trkpt lat="44.3892267" lon="11.00669"><ele>597.0</ele><time>2026-05-01T08:33:37.66Z</time></trkpt><trkpt lat="44.389135" lon="11.0066867"><ele>597.0</ele><time>2026-05-01T08:33:38.659Z</time></trkpt><trkpt lat="44.3890417" lon="11.0066833"><ele>597.0</ele><time>2026-05-01T08:33:39.658Z</time></trkpt><trkpt lat="44.3889517" lon="11.006685"><ele>597.0</ele><time>2026-05-01T08:33:40.658Z</time></trkpt><trkpt lat="44.3888683" lon="11.0066917"><ele>597.0</ele><time>2026-05-01T08:33:41.659Z</time></trkpt><trkpt lat="44.388785" lon="11.0066983"><ele>597.0</ele><time>2026-05-01T08:33:42.658Z</time></trkpt><trkpt lat="44.3887033" lon="11.0067067"><ele>599.5</ele><time>2026-05-01T08:33:43.658Z</time></trkpt><trkpt lat="44.3886133" lon="11.006705"><ele>602.0</ele><time>2026-05-01T08:33:44.659Z</time></trkpt><trkpt lat="44.3885267" lon="11.0067"><ele>604.5</ele><time>2026-05-01T08:33:45.659Z</time></trkpt><trkpt lat="44.388445" lon="11.0066967"><ele>607.0</ele><time>2026-05-01T08:33:46.659Z</time></trkpt><trkpt lat="44.3883467" lon="11.0067017"><ele>609.5</ele><time>2026-05-01T08:33:48.658Z</time></trkpt><trkpt lat="44.3882967" lon="11.0067833"><ele>612.0</ele><time>2026-05-01T08:33:50.659Z</time></trkpt><trkpt lat="44.3882583" lon="11.0068917"><ele>612.0</ele><time>2026-05-01T08:33:52.658Z</time></trkpt><trkpt lat="44.3882133" lon="11.006975"><ele>612.0</ele><time>2026-05-01T08:33:54.657Z</time></trkpt><trkpt lat="44.38815" lon="11.0070317"><ele>612.0</ele><time>2026-05-01T08:33:57.658Z</time></trkpt><trkpt lat="44.3880867" lon="11.0070767"><ele>612.0</ele><time>2026-05-01T08:34:10.658Z</time></trkpt><trkpt lat="44.3881567" lon="11.0070167"><ele>612.0</ele><time>2026-05-01T08:34:27.659Z</time></trkpt><trkpt lat="44.3882033" lon="11.006955"><ele>612.0</ele><time>2026-05-01T08:34:29.66Z</time></trkpt><trkpt lat="44.3882467" lon="11.00687"><ele>612.0</ele><time>2026-05-01T08:34:31.659Z</time></trkpt><trkpt lat="44.3882817" lon="11.0067883"><ele>612.0</ele><time>2026-05-01T08:34:33.658Z</time></trkpt><trkpt lat="44.3883183" lon="11.0066917"><ele>612.0</ele><time>2026-05-01T08:34:37.659Z</time></trkpt><trkpt lat="44.3884117" lon="11.00669"><ele>612.0</ele><time>2026-05-01T08:34:41.658Z</time></trkpt><trkpt lat="44.3885033" lon="11.0067183"><ele>612.0</ele><time>2026-05-01T08:34:43.658Z</time></trkpt><trkpt lat="44.3886083" lon="11.0067283"><ele>612.0</ele><time>2026-05-01T08:34:45.657Z</time></trkpt><trkpt lat="44.3887333" lon="11.0067267"><ele>612.0</ele><time>2026-05-01T08:34:47.658Z</time></trkpt><trkpt lat="44.3888117" lon="11.0067267"><ele>612.0</ele><time>2026-05-01T08:34:48.661Z</time></trkpt><trkpt lat="44.3888933" lon="11.0067233"><ele>612.0</ele><time>2026-05-01T08:34:49.659Z</time></trkpt><trkpt lat="44.3889767" lon="11.0067167"><ele>612.0</ele><time>2026-05-01T08:34:50.66Z</time></trkpt><trkpt lat="44.3890583" lon="11.006715"><ele>612.0</ele><time>2026-05-01T08:34:51.659Z</time></trkpt><trkpt lat="44.3891333" lon="11.0067167"><ele>612.0</ele><time>2026-05-01T08:34:52.658Z</time></trkpt><trkpt lat="44.3892067" lon="11.0067167"><ele>609.8571428571429</ele><time>2026-05-01T08:34:53.658Z</time></trkpt><trkpt lat="44.3892767" lon="11.0067133"><ele>607.7142857142858</ele><time>2026-05-01T08:34:54.658Z</time></trkpt><trkpt lat="44.389345" lon="11.0067167"><ele>605.5714285714287</ele><time>2026-05-01T08:34:55.657Z</time></trkpt><trkpt lat="44.389415" lon="11.0067183"><ele>603.4285714285714</ele><time>2026-05-01T08:34:56.662Z</time></trkpt><trkpt lat="44.38949" lon="11.0067167"><ele>601.2857142857143</ele><time>2026-05-01T08:34:57.658Z</time></trkpt><trkpt lat="44.3895667" lon="11.006715"><ele>599.1428571428572</ele><time>2026-05-01T08:34:58.658Z</time></trkpt><trkpt lat="44.3896433" lon="11.0067067"><ele>597.0</ele><time>2026-05-01T08:34:59.658Z</time></trkpt><trkpt lat="44.3897133" lon="11.0067083"><ele>595.5</ele><time>2026-05-01T08:35:00.657Z</time></trkpt><trkpt lat="44.3897917" lon="11.006705"><ele>594.0</ele><time>2026-05-01T08:35:01.658Z</time></trkpt><trkpt lat="44.3898583" lon="11.0067083"><ele>592.5</ele><time>2026-05-01T08:35:02.659Z</time></trkpt><trkpt lat="44.3899717" lon="11.0067217"><ele>591.0</ele><time>2026-05-01T08:35:04.658Z</time></trkpt><trkpt lat="44.3900533" lon="11.0067367"><ele>589.5</ele><time>2026-05-01T08:35:06.657Z</time></trkpt><trkpt lat="44.3900933" lon="11.0066333"><ele>588.0</ele><time>2026-05-01T08:35:14.661Z</time></trkpt><trkpt lat="44.3899883" lon="11.0066083"><ele>588.1666666666666</ele><time>2026-05-01T08:35:16.659Z</time></trkpt><trkpt lat="44.3899133" lon="11.0066033"><ele>588.3333333333334</ele><time>2026-05-01T08:35:17.659Z</time></trkpt><trkpt lat="44.3898333" lon="11.00659"><ele>588.5</ele><time>2026-05-01T08:35:18.658Z</time></trkpt><trkpt lat="44.389745" lon="11.006575"><ele>588.6666666666667</ele><time>2026-05-01T08:35:19.659Z</time></trkpt><trkpt lat="44.3896483" lon="11.00656"><ele>588.8333333333334</ele><time>2026-05-01T08:35:20.66Z</time></trkpt><trkpt lat="44.3895417" lon="11.00655"><ele>589.0</ele><time>2026-05-01T08:35:21.66Z</time></trkpt><trkpt lat="44.389425" lon="11.006535"><ele>589.0</ele><time>2026-05-01T08:35:22.659Z</time></trkpt><trkpt lat="44.3893" lon="11.0065183"><ele>589.0</ele><time>2026-05-01T08:35:23.659Z</time></trkpt><trkpt lat="44.389165" lon="11.0064867"><ele>589.0</ele><time>2026-05-01T08:35:24.66Z</time></trkpt><trkpt lat="44.3890267" lon="11.0064417"><ele>589.0</ele><time>2026-05-01T08:35:25.66Z</time></trkpt><trkpt lat="44.3888883" lon="11.00637"><ele>594.0</ele><time>2026-05-01T08:35:26.659Z</time></trkpt><trkpt lat="44.388755" lon="11.00627"><ele>599.0</ele><time>2026-05-01T08:35:27.659Z</time></trkpt><trkpt lat="44.38863" lon="11.0061383"><ele>604.0</ele><time>2026-05-01T08:35:28.659Z</time></trkpt><trkpt lat="44.3885083" lon="11.0060017"><ele>604.0</ele><time>2026-05-01T08:35:29.659Z</time></trkpt><trkpt lat="44.3883817" lon="11.0058783"><ele>604.0</ele><time>2026-05-01T08:35:30.658Z</time></trkpt><trkpt lat="44.388245" lon="11.005775"><ele>604.0</ele><time>2026-05-01T08:35:31.657Z</time></trkpt><trkpt lat="44.3881017" lon="11.0056933"><ele>605.3333333333334</ele><time>2026-05-01T08:35:32.66Z</time></trkpt><trkpt lat="44.3879517" lon="11.0056233"><ele>606.6666666666666</ele><time>2026-05-01T08:35:33.659Z</time></trkpt><trkpt lat="44.3878" lon="11.0055533"><ele>608.0</ele><time>2026-05-01T08:35:34.658Z</time></trkpt><trkpt lat="44.38764" lon="11.00548"><ele>608.0</ele><time>2026-05-01T08:35:35.657Z</time></trkpt><trkpt lat="44.3874833" lon="11.0053983"><ele>608.0</ele><time>2026-05-01T08:35:36.659Z</time></trkpt><trkpt lat="44.38733" lon="11.0053267"><ele>608.0</ele><time>2026-05-01T08:35:37.66Z</time></trkpt><trkpt lat="44.3871717" lon="11.0052683"><ele>611.3333333333333</ele><time>2026-05-01T08:35:38.658Z</time></trkpt><trkpt lat="44.3870083" lon="11.0052133"><ele>614.6666666666666</ele><time>2026-05-01T08:35:39.659Z</time></trkpt><trkpt lat="44.3868433" lon="11.0051517"><ele>618.0</ele><time>2026-05-01T08:35:40.657Z</time></trkpt><trkpt lat="44.386685" lon="11.0050917"><ele>618.0</ele><time>2026-05-01T08:35:41.659Z</time></trkpt><trkpt lat="44.386535" lon="11.005055"><ele>618.0</ele><time>2026-05-01T08:35:42.658Z</time></trkpt><trkpt lat="44.3864033" lon="11.0050333"><ele>618.0</ele><time>2026-05-01T08:35:43.658Z</time></trkpt><trkpt lat="44.3862917" lon="11.0050333"><ele>618.0</ele><time>2026-05-01T08:35:44.66Z</time></trkpt><trkpt lat="44.3862017" lon="11.0050667"><ele>618.0</ele><time>2026-05-01T08:35:45.655Z</time></trkpt><trkpt lat="44.3861317" lon="11.0051317"><ele>618.0</ele><time>2026-05-01T08:35:46.658Z</time></trkpt><trkpt lat="44.3861" lon="11.0052267"><ele>618.0</ele><time>2026-05-01T08:35:47.657Z</time></trkpt><trkpt lat="44.3861167" lon="11.0053317"><ele>618.0</ele><time>2026-05-01T08:35:48.658Z</time></trkpt><trkpt lat="44.386175" lon="11.0054317"><ele>618.0</ele><time>2026-05-01T08:35:49.659Z</time></trkpt><trkpt lat="44.38627" lon="11.0055217"><ele>618.0</ele><time>2026-05-01T08:35:50.66Z</time></trkpt><trkpt lat="44.3863967" lon="11.005595"><ele>618.0</ele><time>2026-05-01T08:35:51.659Z</time></trkpt><trkpt lat="44.386535" lon="11.0056667"><ele>618.0</ele><time>2026-05-01T08:35:52.659Z</time></trkpt><trkpt lat="44.386675" lon="11.00574"><ele>618.0</ele><time>2026-05-01T08:35:53.66Z</time></trkpt><trkpt lat="44.3868067" lon="11.00581"><ele>618.0</ele><time>2026-05-01T08:35:54.658Z</time></trkpt><trkpt lat="44.386925" lon="11.0059033"><ele>621.25</ele><time>2026-05-01T08:35:55.658Z</time></trkpt><trkpt lat="44.3870267" lon="11.0060283"><ele>624.5</ele><time>2026-05-01T08:35:56.66Z</time></trkpt><trkpt lat="44.3871017" lon="11.006175"><ele>627.75</ele><time>2026-05-01T08:35:57.658Z</time></trkpt><trkpt lat="44.3871433" lon="11.0063533"><ele>631.0</ele><time>2026-05-01T08:35:58.658Z</time></trkpt><trkpt lat="44.3871667" lon="11.0065583"><ele>632.75</ele><time>2026-05-01T08:35:59.658Z</time></trkpt><trkpt lat="44.3871733" lon="11.0067667"><ele>634.5</ele><time>2026-05-01T08:36:00.657Z</time></trkpt><trkpt lat="44.387175" lon="11.0069617"><ele>636.25</ele><time>2026-05-01T08:36:01.658Z</time></trkpt><trkpt lat="44.387165" lon="11.007135"><ele>638.0</ele><time>2026-05-01T08:36:02.659Z</time></trkpt><trkpt lat="44.3871467" lon="11.0073017"><ele>638.0</ele><time>2026-05-01T08:36:03.658Z</time></trkpt><trkpt lat="44.387125" lon="11.0074617"><ele>638.0</ele><time>2026-05-01T08:36:04.658Z</time></trkpt><trkpt lat="44.3870967" lon="11.007615"><ele>638.0</ele><time>2026-05-01T08:36:05.658Z</time></trkpt><trkpt lat="44.387055" lon="11.0077633"><ele>638.0</ele><time>2026-05-01T08:36:06.658Z</time></trkpt><trkpt lat="44.387005" lon="11.0079017"><ele>638.1999999999999</ele><time>2026-05-01T08:36:07.66Z</time></trkpt><trkpt lat="44.3869383" lon="11.0080233"><ele>638.4</ele><time>2026-05-01T08:36:08.658Z</time></trkpt><trkpt lat="44.3868683" lon="11.0081483"><ele>638.5999999999999</ele><time>2026-05-01T08:36:09.655Z</time></trkpt><trkpt lat="44.3867983" lon="11.0082667"><ele>638.8</ele><time>2026-05-01T08:36:10.656Z</time></trkpt><trkpt lat="44.3867183" lon="11.0083767"><ele>639.0</ele><time>2026-05-01T08:36:11.657Z</time></trkpt><trkpt lat="44.3866167" lon="11.0084767"><ele>639.0</ele><time>2026-05-01T08:36:12.657Z</time></trkpt><trkpt lat="44.3865083" lon="11.0085567"><ele>639.0</ele><time>2026-05-01T08:36:13.659Z</time></trkpt><trkpt lat="44.3863883" lon="11.0085983"><ele>639.0</ele><time>2026-05-01T08:36:14.653Z</time></trkpt><trkpt lat="44.3862533" lon="11.0086017"><ele>639.0</ele><time>2026-05-01T08:36:15.658Z</time></trkpt><trkpt lat="44.3861183" lon="11.008585"><ele>639.75</ele><time>2026-05-01T08:36:16.657Z</time></trkpt><trkpt lat="44.3859867" lon="11.00855"><ele>640.5</ele><time>2026-05-01T08:36:17.66Z</time></trkpt><trkpt lat="44.3858517" lon="11.0085033"><ele>641.25</ele><time>2026-05-01T08:36:18.66Z</time></trkpt><trkpt lat="44.385715" lon="11.0084417"><ele>642.0</ele><time>2026-05-01T08:36:19.659Z</time></trkpt><trkpt lat="44.3855767" lon="11.0083667"><ele>644.5</ele><time>2026-05-01T08:36:20.661Z</time></trkpt><trkpt lat="44.3854417" lon="11.0082967"><ele>647.0</ele><time>2026-05-01T08:36:21.658Z</time></trkpt><trkpt lat="44.3853067" lon="11.0082517"><ele>649.5</ele><time>2026-05-01T08:36:22.657Z</time></trkpt><trkpt lat="44.38517" lon="11.0082233"><ele>652.0</ele><time>2026-05-01T08:36:23.659Z</time></trkpt><trkpt lat="44.3850333" lon="11.0082017"><ele>652.0</ele><time>2026-05-01T08:36:24.658Z</time></trkpt><trkpt lat="44.3848967" lon="11.00818"><ele>652.0</ele><time>2026-05-01T08:36:25.659Z</time></trkpt><trkpt lat="44.38476" lon="11.00815"><ele>652.0</ele><time>2026-05-01T08:36:26.66Z</time></trkpt><trkpt lat="44.3846267" lon="11.0081117"><ele>652.0</ele><time>2026-05-01T08:36:27.658Z</time></trkpt><trkpt lat="44.3844933" lon="11.008075"><ele>653.0</ele><time>2026-05-01T08:36:28.657Z</time></trkpt><trkpt lat="44.3843617" lon="11.0080433"><ele>654.0</ele><time>2026-05-01T08:36:29.658Z</time></trkpt><trkpt lat="44.3842267" lon="11.0080067"><ele>655.0</ele><time>2026-05-01T08:36:30.658Z</time></trkpt><trkpt lat="44.3840917" lon="11.0079667"><ele>656.0</ele><time>2026-05-01T08:36:31.657Z</time></trkpt><trkpt lat="44.3839533" lon="11.0079267"><ele>655.3333333333333</ele><time>2026-05-01T08:36:32.66Z</time></trkpt><trkpt lat="44.38381" lon="11.0078817"><ele>654.6666666666666</ele><time>2026-05-01T08:36:33.658Z</time></trkpt><trkpt lat="44.383665" lon="11.0078267"><ele>654.0</ele><time>2026-05-01T08:36:34.66Z</time></trkpt><trkpt lat="44.3835217" lon="11.0077517"><ele>654.0</ele><time>2026-05-01T08:36:35.658Z</time></trkpt><trkpt lat="44.3833867" lon="11.0076483"><ele>654.0</ele><time>2026-05-01T08:36:36.657Z</time></trkpt><trkpt lat="44.3832583" lon="11.007525"><ele>654.0</ele><time>2026-05-01T08:36:37.658Z</time></trkpt><trkpt lat="44.38314" lon="11.0073933"><ele>654.0</ele><time>2026-05-01T08:36:38.66Z</time></trkpt><trkpt lat="44.38303" lon="11.0072617"><ele>654.0</ele><time>2026-05-01T08:36:39.659Z</time></trkpt><trkpt lat="44.3829267" lon="11.0071433"><ele>654.0</ele><time>2026-05-01T08:36:40.659Z</time></trkpt><trkpt lat="44.38283" lon="11.00703"><ele>654.0</ele><time>2026-05-01T08:36:41.659Z</time></trkpt><trkpt lat="44.382735" lon="11.006915"><ele>653.75</ele><time>2026-05-01T08:36:42.657Z</time></trkpt><trkpt lat="44.3826433" lon="11.0068017"><ele>653.5</ele><time>2026-05-01T08:36:43.659Z</time></trkpt><trkpt lat="44.3825467" lon="11.006685"><ele>653.25</ele><time>2026-05-01T08:36:44.659Z</time></trkpt><trkpt lat="44.3824467" lon="11.0065667"><ele>653.0</ele><time>2026-05-01T08:36:45.658Z</time></trkpt><trkpt lat="44.3823483" lon="11.0064517"><ele>653.0</ele><time>2026-05-01T08:36:46.661Z</time></trkpt><trkpt lat="44.38225" lon="11.00634"><ele>653.0</ele><time>2026-05-01T08:36:47.66Z</time></trkpt><trkpt lat="44.3821583" lon="11.0062383"><ele>653.0</ele><time>2026-05-01T08:36:48.659Z</time></trkpt><trkpt lat="44.382075" lon="11.00614"><ele>653.0</ele><time>2026-05-01T08:36:49.658Z</time></trkpt><trkpt lat="44.3819967" lon="11.00605"><ele>653.8333333333333</ele><time>2026-05-01T08:36:50.661Z</time></trkpt><trkpt lat="44.3819317" lon="11.0059717"><ele>654.6666666666666</ele><time>2026-05-01T08:36:51.659Z</time></trkpt><trkpt lat="44.381875" lon="11.00591"><ele>655.5</ele><time>2026-05-01T08:36:52.658Z</time></trkpt><trkpt lat="44.381765" lon="11.0058933"><ele>656.3333333333334</ele><time>2026-05-01T08:36:54.658Z</time></trkpt><trkpt lat="44.3816967" lon="11.0059567"><ele>657.1666666666667</ele><time>2026-05-01T08:36:55.659Z</time></trkpt><trkpt lat="44.3816233" lon="11.00604"><ele>658.0</ele><time>2026-05-01T08:36:56.659Z</time></trkpt><trkpt lat="44.38154" lon="11.0061583"><ele>658.0</ele><time>2026-05-01T08:36:57.657Z</time></trkpt><trkpt lat="44.3814617" lon="11.006275"><ele>658.0</ele><time>2026-05-01T08:36:58.659Z</time></trkpt><trkpt lat="44.3813833" lon="11.00639"><ele>658.0</ele><time>2026-05-01T08:36:59.658Z</time></trkpt><trkpt lat="44.3813" lon="11.006505"><ele>658.0</ele><time>2026-05-01T08:37:00.659Z</time></trkpt><trkpt lat="44.3812167" lon="11.00662"><ele>659.75</ele><time>2026-05-01T08:37:01.66Z</time></trkpt><trkpt lat="44.3811333" lon="11.006735"><ele>661.5</ele><time>2026-05-01T08:37:02.659Z</time></trkpt><trkpt lat="44.38105" lon="11.0068483"><ele>663.25</ele><time>2026-05-01T08:37:03.661Z</time></trkpt><trkpt lat="44.3809717" lon="11.0069583"><ele>665.0</ele><time>2026-05-01T08:37:04.658Z</time></trkpt><trkpt lat="44.3808967" lon="11.00707"><ele>665.0</ele><time>2026-05-01T08:37:05.659Z</time></trkpt><trkpt lat="44.3808183" lon="11.0071833"><ele>665.0</ele><time>2026-05-01T08:37:06.659Z</time></trkpt><trkpt lat="44.3807333" lon="11.0072967"><ele>665.0</ele><time>2026-05-01T08:37:07.659Z</time></trkpt><trkpt lat="44.3806417" lon="11.00741"><ele>665.0</ele><time>2026-05-01T08:37:08.66Z</time></trkpt><trkpt lat="44.3805383" lon="11.00752"><ele>668.0</ele><time>2026-05-01T08:37:09.66Z</time></trkpt><trkpt lat="44.380435" lon="11.0076183"><ele>671.0</ele><time>2026-05-01T08:37:10.658Z</time></trkpt><trkpt lat="44.3803267" lon="11.0076967"><ele>674.0</ele><time>2026-05-01T08:37:11.659Z</time></trkpt><trkpt lat="44.3802283" lon="11.00775"><ele>677.0</ele><time>2026-05-01T08:37:12.659Z</time></trkpt><trkpt lat="44.3801367" lon="11.0077833"><ele>680.0</ele><time>2026-05-01T08:37:13.659Z</time></trkpt><trkpt lat="44.3800533" lon="11.0078067"><ele>680.0</ele><time>2026-05-01T08:37:14.66Z</time></trkpt><trkpt lat="44.3799867" lon="11.0078033"><ele>680.0</ele><time>2026-05-01T08:37:15.66Z</time></trkpt><trkpt lat="44.3799267" lon="11.0077717"><ele>680.0</ele><time>2026-05-01T08:37:16.658Z</time></trkpt><trkpt lat="44.3798667" lon="11.0077033"><ele>680.0</ele><time>2026-05-01T08:37:17.659Z</time></trkpt><trkpt lat="44.3798033" lon="11.0076233"><ele>680.0</ele><time>2026-05-01T08:37:18.66Z</time></trkpt><trkpt lat="44.37974" lon="11.0075417"><ele>680.0</ele><time>2026-05-01T08:37:19.66Z</time></trkpt><trkpt lat="44.3796783" lon="11.0074783"><ele>681.1428571428572</ele><time>2026-05-01T08:37:20.66Z</time></trkpt><trkpt lat="44.3796183" lon="11.0074267"><ele>682.2857142857142</ele><time>2026-05-01T08:37:21.658Z</time></trkpt><trkpt lat="44.379555" lon="11.0073817"><ele>683.4285714285714</ele><time>2026-05-01T08:37:22.659Z</time></trkpt><trkpt lat="44.379495" lon="11.007345"><ele>684.5714285714287</ele><time>2026-05-01T08:37:23.661Z</time></trkpt><trkpt lat="44.3794283" lon="11.0073083"><ele>685.7142857142858</ele><time>2026-05-01T08:37:24.659Z</time></trkpt><trkpt lat="44.3793617" lon="11.007265"><ele>686.8571428571429</ele><time>2026-05-01T08:37:25.658Z</time></trkpt><trkpt lat="44.3792933" lon="11.0072167"><ele>688.0</ele><time>2026-05-01T08:37:26.661Z</time></trkpt><trkpt lat="44.379225" lon="11.0071717"><ele>688.0</ele><time>2026-05-01T08:37:27.659Z</time></trkpt><trkpt lat="44.3791667" lon="11.00713"><ele>688.0</ele><time>2026-05-01T08:37:28.658Z</time></trkpt><trkpt lat="44.3790583" lon="11.0070717"><ele>688.0</ele><time>2026-05-01T08:37:30.658Z</time></trkpt><trkpt lat="44.37894" lon="11.0070033"><ele>688.0</ele><time>2026-05-01T08:37:32.66Z</time></trkpt><trkpt lat="44.3788733" lon="11.00697"><ele>688.0</ele><time>2026-05-01T08:37:33.66Z</time></trkpt><trkpt lat="44.3788067" lon="11.0069467"><ele>688.0</ele><time>2026-05-01T08:37:34.659Z</time></trkpt><trkpt lat="44.3787017" lon="11.0068983"><ele>689.8333333333334</ele><time>2026-05-01T08:37:36.659Z</time></trkpt><trkpt lat="44.3786333" lon="11.0068733"><ele>691.6666666666667</ele><time>2026-05-01T08:37:38.66Z</time></trkpt><trkpt lat="44.3785467" lon="11.00692"><ele>693.5</ele><time>2026-05-01T08:37:42.659Z</time></trkpt><trkpt lat="44.3785117" lon="11.0069967"><ele>695.3333333333334</ele><time>2026-05-01T08:37:43.658Z</time></trkpt><trkpt lat="44.37848" lon="11.0070983"><ele>697.1666666666666</ele><time>2026-05-01T08:37:44.661Z</time></trkpt><trkpt lat="44.3784467" lon="11.007225"><ele>699.0</ele><time>2026-05-01T08:37:45.658Z</time></trkpt><trkpt lat="44.3784183" lon="11.0073517"><ele>699.0</ele><time>2026-05-01T08:37:46.659Z</time></trkpt><trkpt lat="44.37839" lon="11.0074717"><ele>699.0</ele><time>2026-05-01T08:37:47.657Z</time></trkpt><trkpt lat="44.3783683" lon="11.0075933"><ele>699.0</ele><time>2026-05-01T08:37:48.657Z</time></trkpt><trkpt lat="44.37835" lon="11.00771"><ele>699.0</ele><time>2026-05-01T08:37:49.659Z</time></trkpt><trkpt lat="44.3783317" lon="11.0078367"><ele>699.0</ele><time>2026-05-01T08:37:50.658Z</time></trkpt><trkpt lat="44.3782983" lon="11.0079683"><ele>698.8000000000001</ele><time>2026-05-01T08:37:51.659Z</time></trkpt><trkpt lat="44.3782633" lon="11.0081067"><ele>698.6</ele><time>2026-05-01T08:37:52.658Z</time></trkpt><trkpt lat="44.3782233" lon="11.008235"><ele>698.4</ele><time>2026-05-01T08:37:53.66Z</time></trkpt><trkpt lat="44.3781933" lon="11.0083633"><ele>698.2</ele><time>2026-05-01T08:37:54.658Z</time></trkpt><trkpt lat="44.3781483" lon="11.0084683"><ele>698.0</ele><time>2026-05-01T08:37:55.66Z</time></trkpt><trkpt lat="44.3781083" lon="11.0085583"><ele>697.6666666666666</ele><time>2026-05-01T08:37:56.66Z</time></trkpt><trkpt lat="44.37807" lon="11.0086283"><ele>697.3333333333333</ele><time>2026-05-01T08:37:57.659Z</time></trkpt><trkpt lat="44.3779983" lon="11.0087617"><ele>697.0</ele><time>2026-05-01T08:37:59.66Z</time></trkpt><trkpt lat="44.3779517" lon="11.0088517"><ele>696.6666666666666</ele><time>2026-05-01T08:38:00.657Z</time></trkpt><trkpt lat="44.3778917" lon="11.00894"><ele>696.3333333333334</ele><time>2026-05-01T08:38:01.669Z</time></trkpt><trkpt lat="44.37782" lon="11.009015"><ele>696.0</ele><time>2026-05-01T08:38:02.66Z</time></trkpt><trkpt lat="44.3777317" lon="11.00907"><ele>696.0</ele><time>2026-05-01T08:38:03.658Z</time></trkpt><trkpt lat="44.3776367" lon="11.0091067"><ele>696.0</ele><time>2026-05-01T08:38:04.657Z</time></trkpt><trkpt lat="44.3775367" lon="11.00914"><ele>696.0</ele><time>2026-05-01T08:38:05.658Z</time></trkpt><trkpt lat="44.377435" lon="11.0091683"><ele>696.0</ele><time>2026-05-01T08:38:06.658Z</time></trkpt><trkpt lat="44.37733" lon="11.009195"><ele>696.0</ele><time>2026-05-01T08:38:07.66Z</time></trkpt><trkpt lat="44.3772267" lon="11.0092283"><ele>697.8</ele><time>2026-05-01T08:38:08.658Z</time></trkpt><trkpt lat="44.3771317" lon="11.0092483"><ele>699.5999999999999</ele><time>2026-05-01T08:38:09.659Z</time></trkpt><trkpt lat="44.3770367" lon="11.009275"><ele>701.4</ele><time>2026-05-01T08:38:10.658Z</time></trkpt><trkpt lat="44.376945" lon="11.00931"><ele>703.2</ele><time>2026-05-01T08:38:11.659Z</time></trkpt><trkpt lat="44.3768583" lon="11.0093433"><ele>705.0</ele><time>2026-05-01T08:38:12.66Z</time></trkpt><trkpt lat="44.3767717" lon="11.0093767"><ele>705.0</ele><time>2026-05-01T08:38:13.66Z</time></trkpt><trkpt lat="44.3766867" lon="11.009415"><ele>705.0</ele><time>2026-05-01T08:38:14.66Z</time></trkpt><trkpt lat="44.3766" lon="11.0094433"><ele>705.0</ele><time>2026-05-01T08:38:15.659Z</time></trkpt><trkpt lat="44.3765117" lon="11.0094717"><ele>705.0</ele><time>2026-05-01T08:38:16.658Z</time></trkpt><trkpt lat="44.3764183" lon="11.0094983"><ele>705.0</ele><time>2026-05-01T08:38:17.657Z</time></trkpt><trkpt lat="44.37632" lon="11.0095133"><ele>705.0</ele><time>2026-05-01T08:38:18.66Z</time></trkpt><trkpt lat="44.3762167" lon="11.0095167"><ele>705.0</ele><time>2026-05-01T08:38:19.658Z</time></trkpt><trkpt lat="44.376115" lon="11.0095217"><ele>705.0</ele><time>2026-05-01T08:38:20.66Z</time></trkpt><trkpt lat="44.3760167" lon="11.0095233"><ele>705.0</ele><time>2026-05-01T08:38:21.659Z</time></trkpt><trkpt lat="44.3759183" lon="11.0095167"><ele>705.0</ele><time>2026-05-01T08:38:22.658Z</time></trkpt><trkpt lat="44.3758217" lon="11.0095033"><ele>705.0</ele><time>2026-05-01T08:38:23.658Z</time></trkpt><trkpt lat="44.3757283" lon="11.0094833"><ele>705.0</ele><time>2026-05-01T08:38:24.657Z</time></trkpt><trkpt lat="44.3756367" lon="11.009455"><ele>705.0</ele><time>2026-05-01T08:38:25.657Z</time></trkpt><trkpt lat="44.375545" lon="11.0094217"><ele>705.0</ele><time>2026-05-01T08:38:26.66Z</time></trkpt><trkpt lat="44.375455" lon="11.0093817"><ele>705.0</ele><time>2026-05-01T08:38:27.66Z</time></trkpt><trkpt lat="44.3753633" lon="11.009335"><ele>704.6</ele><time>2026-05-01T08:38:28.659Z</time></trkpt><trkpt lat="44.3752667" lon="11.0092817"><ele>704.2</ele><time>2026-05-01T08:38:29.66Z</time></trkpt><trkpt lat="44.37517" lon="11.0092183"><ele>703.8</ele><time>2026-05-01T08:38:30.658Z</time></trkpt><trkpt lat="44.3750683" lon="11.0091533"><ele>703.4</ele><time>2026-05-01T08:38:31.659Z</time></trkpt><trkpt lat="44.3749667" lon="11.0090917"><ele>703.0</ele><time>2026-05-01T08:38:32.66Z</time></trkpt><trkpt lat="44.3748817" lon="11.00904"><ele>703.0</ele><time>2026-05-01T08:38:33.659Z</time></trkpt><trkpt lat="44.3748067" lon="11.0090033"><ele>703.0</ele><time>2026-05-01T08:38:34.658Z</time></trkpt><trkpt lat="44.374695" lon="11.0089883"><ele>703.0</ele><time>2026-05-01T08:38:36.658Z</time></trkpt><trkpt lat="44.3745917" lon="11.00902"><ele>703.0</ele><time>2026-05-01T08:38:38.66Z</time></trkpt><trkpt lat="44.3744717" lon="11.0090367"><ele>703.0</ele><time>2026-05-01T08:38:40.658Z</time></trkpt><trkpt lat="44.3743567" lon="11.0090117"><ele>703.3333333333334</ele><time>2026-05-01T08:38:42.659Z</time></trkpt><trkpt lat="44.3742867" lon="11.008995"><ele>703.6666666666667</ele><time>2026-05-01T08:38:43.658Z</time></trkpt><trkpt lat="44.3742183" lon="11.00899"><ele>704.0</ele><time>2026-05-01T08:38:44.659Z</time></trkpt><trkpt lat="44.3741433" lon="11.0090017"><ele>704.3333333333334</ele><time>2026-05-01T08:38:45.659Z</time></trkpt><trkpt lat="44.3740617" lon="11.0090183"><ele>704.6666666666666</ele><time>2026-05-01T08:38:46.659Z</time></trkpt><trkpt lat="44.373985" lon="11.0090533"><ele>705.0</ele><time>2026-05-01T08:38:47.657Z</time></trkpt><trkpt lat="44.373915" lon="11.00908"><ele>703.6666666666666</ele><time>2026-05-01T08:38:48.659Z</time></trkpt><trkpt lat="44.3738533" lon="11.0091167"><ele>702.3333333333334</ele><time>2026-05-01T08:38:49.658Z</time></trkpt><trkpt lat="44.3737917" lon="11.0091633"><ele>701.0</ele><time>2026-05-01T08:38:50.66Z</time></trkpt><trkpt lat="44.3737217" lon="11.0092083"><ele>699.6666666666667</ele><time>2026-05-01T08:38:51.659Z</time></trkpt><trkpt lat="44.373655" lon="11.0092567"><ele>698.3333333333334</ele><time>2026-05-01T08:38:52.659Z</time></trkpt><trkpt lat="44.3735867" lon="11.00931"><ele>697.0</ele><time>2026-05-01T08:38:53.66Z</time></trkpt><trkpt lat="44.373515" lon="11.0093733"><ele>697.0</ele><time>2026-05-01T08:38:54.657Z</time></trkpt><trkpt lat="44.37344" lon="11.0094367"><ele>697.0</ele><time>2026-05-01T08:38:55.658Z</time></trkpt><trkpt lat="44.3733683" lon="11.0094933"><ele>697.0</ele><time>2026-05-01T08:38:56.66Z</time></trkpt><trkpt lat="44.3733017" lon="11.009545"><ele>697.0</ele><time>2026-05-01T08:38:57.658Z</time></trkpt><trkpt lat="44.37324" lon="11.009595"><ele>697.0</ele><time>2026-05-01T08:38:58.658Z</time></trkpt><trkpt lat="44.3731783" lon="11.0096417"><ele>697.0</ele><time>2026-05-01T08:38:59.66Z</time></trkpt><trkpt lat="44.3731167" lon="11.00968"><ele>697.0</ele><time>2026-05-01T08:39:00.659Z</time></trkpt><trkpt lat="44.373055" lon="11.0097117"><ele>697.0</ele><time>2026-05-01T08:39:01.658Z</time></trkpt><trkpt lat="44.3729917" lon="11.0097383"><ele>697.0</ele><time>2026-05-01T08:39:02.66Z</time></trkpt><trkpt lat="44.37293" lon="11.00976"><ele>697.0</ele><time>2026-05-01T08:39:03.659Z</time></trkpt><trkpt lat="44.372865" lon="11.0097783"><ele>697.0</ele><time>2026-05-01T08:39:04.657Z</time></trkpt><trkpt lat="44.3727983" lon="11.0097933"><ele>697.0</ele><time>2026-05-01T08:39:05.658Z</time></trkpt><trkpt lat="44.37272" lon="11.009805"><ele>697.0</ele><time>2026-05-01T08:39:06.657Z</time></trkpt><trkpt lat="44.37264" lon="11.009815"><ele>692.8</ele><time>2026-05-01T08:39:07.658Z</time></trkpt><trkpt lat="44.3725533" lon="11.0098283"><ele>688.6</ele><time>2026-05-01T08:39:08.659Z</time></trkpt><trkpt lat="44.3724617" lon="11.009835"><ele>684.4</ele><time>2026-05-01T08:39:09.655Z</time></trkpt><trkpt lat="44.3723667" lon="11.00984"><ele>680.1999999999999</ele><time>2026-05-01T08:39:10.659Z</time></trkpt><trkpt lat="44.3722767" lon="11.00985"><ele>676.0</ele><time>2026-05-01T08:39:11.657Z</time></trkpt><trkpt lat="44.3721883" lon="11.0098617"><ele>672.8333333333334</ele><time>2026-05-01T08:39:12.658Z</time></trkpt><trkpt lat="44.372105" lon="11.0098733"><ele>669.6666666666667</ele><time>2026-05-01T08:39:13.655Z</time></trkpt><trkpt lat="44.3720267" lon="11.0098783"><ele>666.5</ele><time>2026-05-01T08:39:14.66Z</time></trkpt><trkpt lat="44.3719467" lon="11.0098733"><ele>663.3333333333334</ele><time>2026-05-01T08:39:15.657Z</time></trkpt><trkpt lat="44.3718583" lon="11.0098633"><ele>660.1666666666666</ele><time>2026-05-01T08:39:16.659Z</time></trkpt><trkpt lat="44.37177" lon="11.0098533"><ele>657.0</ele><time>2026-05-01T08:39:17.658Z</time></trkpt><trkpt lat="44.3716883" lon="11.0098417"><ele>657.0</ele><time>2026-05-01T08:39:18.659Z</time></trkpt><trkpt lat="44.371615" lon="11.009825"><ele>657.0</ele><time>2026-05-01T08:39:19.659Z</time></trkpt><trkpt lat="44.3715483" lon="11.0098017"><ele>657.0</ele><time>2026-05-01T08:39:20.661Z</time></trkpt><trkpt lat="44.371445" lon="11.0097467"><ele>657.0</ele><time>2026-05-01T08:39:22.659Z</time></trkpt><trkpt lat="44.3713767" lon="11.0097067"><ele>657.0</ele><time>2026-05-01T08:39:24.659Z</time></trkpt><trkpt lat="44.3712917" lon="11.009685"><ele>657.0</ele><time>2026-05-01T08:39:44.66Z</time></trkpt><trkpt lat="44.371215" lon="11.00966"><ele>655.0</ele><time>2026-05-01T08:39:46.66Z</time></trkpt><trkpt lat="44.3711183" lon="11.0096267"><ele>653.0</ele><time>2026-05-01T08:39:48.659Z</time></trkpt><trkpt lat="44.3709967" lon="11.0095867"><ele>651.0</ele><time>2026-05-01T08:39:50.66Z</time></trkpt><trkpt lat="44.3709317" lon="11.0095667"><ele>649.0</ele><time>2026-05-01T08:39:51.658Z</time></trkpt><trkpt lat="44.3708667" lon="11.009535"><ele>647.0</ele><time>2026-05-01T08:39:52.658Z</time></trkpt><trkpt lat="44.3708" lon="11.0095017"><ele>645.0</ele><time>2026-05-01T08:39:53.658Z</time></trkpt><trkpt lat="44.37073" lon="11.0094733"><ele>645.0</ele><time>2026-05-01T08:39:54.66Z</time></trkpt><trkpt lat="44.3706617" lon="11.00945"><ele>645.0</ele><time>2026-05-01T08:39:55.66Z</time></trkpt><trkpt lat="44.3705867" lon="11.009435"><ele>645.0</ele><time>2026-05-01T08:39:56.66Z</time></trkpt><trkpt lat="44.370505" lon="11.0094217"><ele>645.0</ele><time>2026-05-01T08:39:57.659Z</time></trkpt><trkpt lat="44.3704217" lon="11.0094117"><ele>645.0</ele><time>2026-05-01T08:39:58.659Z</time></trkpt><trkpt lat="44.3703417" lon="11.00941"><ele>645.0</ele><time>2026-05-01T08:39:59.659Z</time></trkpt><trkpt lat="44.370255" lon="11.009425"><ele>641.8</ele><time>2026-05-01T08:40:00.659Z</time></trkpt><trkpt lat="44.3701633" lon="11.009455"><ele>638.6</ele><time>2026-05-01T08:40:01.658Z</time></trkpt><trkpt lat="44.3700683" lon="11.0094967"><ele>635.4</ele><time>2026-05-01T08:40:02.659Z</time></trkpt><trkpt lat="44.369965" lon="11.0095433"><ele>632.2</ele><time>2026-05-01T08:40:03.659Z</time></trkpt><trkpt lat="44.3698717" lon="11.00959"><ele>629.0</ele><time>2026-05-01T08:40:04.658Z</time></trkpt><trkpt lat="44.3697767" lon="11.0096333"><ele>625.0</ele><time>2026-05-01T08:40:05.658Z</time></trkpt><trkpt lat="44.3696817" lon="11.0096583"><ele>621.0</ele><time>2026-05-01T08:40:06.658Z</time></trkpt><trkpt lat="44.36959" lon="11.0096667"><ele>617.0</ele><time>2026-05-01T08:40:07.658Z</time></trkpt><trkpt lat="44.36949" lon="11.009675"><ele>613.0</ele><time>2026-05-01T08:40:08.66Z</time></trkpt><trkpt lat="44.3693767" lon="11.0096767"><ele>609.0</ele><time>2026-05-01T08:40:09.658Z</time></trkpt><trkpt lat="44.3692583" lon="11.0096817"><ele>609.0</ele><time>2026-05-01T08:40:10.659Z</time></trkpt><trkpt lat="44.3691433" lon="11.0096867"><ele>609.0</ele><time>2026-05-01T08:40:11.657Z</time></trkpt><trkpt lat="44.3690317" lon="11.0096867"><ele>609.0</ele><time>2026-05-01T08:40:12.658Z</time></trkpt><trkpt lat="44.3689233" lon="11.0096717"><ele>609.0</ele><time>2026-05-01T08:40:13.656Z</time></trkpt><trkpt lat="44.368815" lon="11.00966"><ele>609.0</ele><time>2026-05-01T08:40:14.66Z</time></trkpt><trkpt lat="44.3687033" lon="11.0096567"><ele>605.0</ele><time>2026-05-01T08:40:15.659Z</time></trkpt><trkpt lat="44.368585" lon="11.0096733"><ele>601.0</ele><time>2026-05-01T08:40:16.66Z</time></trkpt><trkpt lat="44.368465" lon="11.0096917"><ele>597.0</ele><time>2026-05-01T08:40:17.658Z</time></trkpt><trkpt lat="44.3683433" lon="11.0096917"><ele>593.0</ele><time>2026-05-01T08:40:18.658Z</time></trkpt><trkpt lat="44.3682317" lon="11.00968"><ele>593.0</ele><time>2026-05-01T08:40:19.658Z</time></trkpt><trkpt lat="44.3681217" lon="11.0096783"><ele>593.0</ele><time>2026-05-01T08:40:20.659Z</time></trkpt><trkpt lat="44.36802" lon="11.0096833"><ele>593.0</ele><time>2026-05-01T08:40:21.659Z</time></trkpt><trkpt lat="44.3679283" lon="11.0096817"><ele>593.0</ele><time>2026-05-01T08:40:22.658Z</time></trkpt><trkpt lat="44.3678333" lon="11.009665"><ele>593.0</ele><time>2026-05-01T08:40:23.658Z</time></trkpt><trkpt lat="44.3677483" lon="11.0096217"><ele>590.0</ele><time>2026-05-01T08:40:24.659Z</time></trkpt><trkpt lat="44.3676833" lon="11.0095533"><ele>587.0</ele><time>2026-05-01T08:40:25.659Z</time></trkpt><trkpt lat="44.367615" lon="11.0094733"><ele>584.0</ele><time>2026-05-01T08:40:26.661Z</time></trkpt><trkpt lat="44.36757" lon="11.0093617"><ele>581.0</ele><time>2026-05-01T08:40:27.659Z</time></trkpt><trkpt lat="44.3675433" lon="11.009235"><ele>578.0</ele><time>2026-05-01T08:40:28.66Z</time></trkpt><trkpt lat="44.367515" lon="11.0091083"><ele>577.1999999999999</ele><time>2026-05-01T08:40:29.66Z</time></trkpt><trkpt lat="44.3674783" lon="11.0089867"><ele>576.4</ele><time>2026-05-01T08:40:30.658Z</time></trkpt><trkpt lat="44.3674333" lon="11.0088667"><ele>575.5999999999999</ele><time>2026-05-01T08:40:31.659Z</time></trkpt><trkpt lat="44.36738" lon="11.00875"><ele>574.8</ele><time>2026-05-01T08:40:32.659Z</time></trkpt><trkpt lat="44.3673267" lon="11.0086267"><ele>574.0</ele><time>2026-05-01T08:40:33.653Z</time></trkpt><trkpt lat="44.3672683" lon="11.0084983"><ele>574.0</ele><time>2026-05-01T08:40:34.659Z</time></trkpt><trkpt lat="44.367205" lon="11.008375"><ele>574.0</ele><time>2026-05-01T08:40:35.659Z</time></trkpt><trkpt lat="44.3671433" lon="11.0082517"><ele>574.0</ele><time>2026-05-01T08:40:36.66Z</time></trkpt><trkpt lat="44.3670817" lon="11.00813"><ele>574.0</ele><time>2026-05-01T08:40:37.658Z</time></trkpt><trkpt lat="44.36702" lon="11.0080117"><ele>574.0</ele><time>2026-05-01T08:40:38.659Z</time></trkpt><trkpt lat="44.3669617" lon="11.0079"><ele>574.8333333333334</ele><time>2026-05-01T08:40:39.66Z</time></trkpt><trkpt lat="44.3669067" lon="11.0077933"><ele>575.6666666666667</ele><time>2026-05-01T08:40:40.658Z</time></trkpt><trkpt lat="44.3668633" lon="11.0076933"><ele>576.5</ele><time>2026-05-01T08:40:41.659Z</time></trkpt><trkpt lat="44.3668133" lon="11.0076"><ele>577.3333333333334</ele><time>2026-05-01T08:40:42.66Z</time></trkpt><trkpt lat="44.36676" lon="11.00752"><ele>578.1666666666666</ele><time>2026-05-01T08:40:43.66Z</time></trkpt><trkpt lat="44.3667083" lon="11.00745"><ele>579.0</ele><time>2026-05-01T08:40:44.653Z</time></trkpt><trkpt lat="44.3666433" lon="11.00739"><ele>579.0</ele><time>2026-05-01T08:40:45.657Z</time></trkpt><trkpt lat="44.3665717" lon="11.0073367"><ele>579.0</ele><time>2026-05-01T08:40:46.658Z</time></trkpt><trkpt lat="44.3665" lon="11.0073"><ele>579.0</ele><time>2026-05-01T08:40:47.66Z</time></trkpt><trkpt lat="44.3664217" lon="11.0072883"><ele>579.0</ele><time>2026-05-01T08:40:48.657Z</time></trkpt><trkpt lat="44.3663433" lon="11.0072833"><ele>579.0</ele><time>2026-05-01T08:40:49.659Z</time></trkpt><trkpt lat="44.3662483" lon="11.0073067"><ele>579.0</ele><time>2026-05-01T08:40:50.661Z</time></trkpt><trkpt lat="44.3661533" lon="11.00732"><ele>576.0</ele><time>2026-05-01T08:40:51.661Z</time></trkpt><trkpt lat="44.36606" lon="11.007335"><ele>573.0</ele><time>2026-05-01T08:40:52.66Z</time></trkpt><trkpt lat="44.3659667" lon="11.0073583"><ele>570.0</ele><time>2026-05-01T08:40:53.661Z</time></trkpt><trkpt lat="44.3658767" lon="11.0073783"><ele>567.0</ele><time>2026-05-01T08:40:54.662Z</time></trkpt><trkpt lat="44.3657833" lon="11.0073967"><ele>564.0</ele><time>2026-05-01T08:40:55.66Z</time></trkpt><trkpt lat="44.36569" lon="11.00742"><ele>564.0</ele><time>2026-05-01T08:40:56.66Z</time></trkpt><trkpt lat="44.3656067" lon="11.00743"><ele>564.0</ele><time>2026-05-01T08:40:57.66Z</time></trkpt><trkpt lat="44.3655233" lon="11.00744"><ele>564.0</ele><time>2026-05-01T08:40:58.657Z</time></trkpt><trkpt lat="44.365445" lon="11.0074517"><ele>564.0</ele><time>2026-05-01T08:40:59.659Z</time></trkpt><trkpt lat="44.365375" lon="11.0074617"><ele>564.0</ele><time>2026-05-01T08:41:00.657Z</time></trkpt><trkpt lat="44.365295" lon="11.007475"><ele>564.0</ele><time>2026-05-01T08:41:01.655Z</time></trkpt><trkpt lat="44.36521" lon="11.0074933"><ele>560.5</ele><time>2026-05-01T08:41:02.66Z</time></trkpt><trkpt lat="44.3651333" lon="11.00751"><ele>557.0</ele><time>2026-05-01T08:41:03.66Z</time></trkpt><trkpt lat="44.36506" lon="11.0075233"><ele>553.5</ele><time>2026-05-01T08:41:04.66Z</time></trkpt><trkpt lat="44.3649833" lon="11.00753"><ele>550.0</ele><time>2026-05-01T08:41:05.658Z</time></trkpt><trkpt lat="44.3649033" lon="11.0075283"><ele>546.5</ele><time>2026-05-01T08:41:06.658Z</time></trkpt><trkpt lat="44.36483" lon="11.0075167"><ele>543.0</ele><time>2026-05-01T08:41:07.663Z</time></trkpt><trkpt lat="44.3647633" lon="11.0074933"><ele>539.8</ele><time>2026-05-01T08:41:08.659Z</time></trkpt><trkpt lat="44.36466" lon="11.00742"><ele>536.5999999999999</ele><time>2026-05-01T08:41:10.658Z</time></trkpt><trkpt lat="44.364565" lon="11.00738"><ele>533.4000000000001</ele><time>2026-05-01T08:41:12.661Z</time></trkpt><trkpt lat="44.364485" lon="11.0073683"><ele>530.2</ele><time>2026-05-01T08:41:14.659Z</time></trkpt><trkpt lat="44.3644067" lon="11.00733"><ele>527.0</ele><time>2026-05-01T08:41:16.659Z</time></trkpt><trkpt lat="44.3643733" lon="11.0072367"><ele>527.0</ele><time>2026-05-01T08:41:18.659Z</time></trkpt><trkpt lat="44.3643867" lon="11.0071217"><ele>527.0</ele><time>2026-05-01T08:41:20.66Z</time></trkpt><trkpt lat="44.364445" lon="11.0069933"><ele>527.0</ele><time>2026-05-01T08:41:22.661Z</time></trkpt><trkpt lat="44.3645067" lon="11.00684"><ele>527.0</ele><time>2026-05-01T08:41:24.66Z</time></trkpt><trkpt lat="44.3645333" lon="11.0067417"><ele>527.0</ele><time>2026-05-01T08:41:25.66Z</time></trkpt><trkpt lat="44.3645633" lon="11.0066433"><ele>528.1666666666666</ele><time>2026-05-01T08:41:26.659Z</time></trkpt><trkpt lat="44.3645783" lon="11.00654"><ele>529.3333333333333</ele><time>2026-05-01T08:41:27.658Z</time></trkpt><trkpt lat="44.3645783" lon="11.0064383"><ele>530.5</ele><time>2026-05-01T08:41:28.659Z</time></trkpt><trkpt lat="44.364565" lon="11.0063333"><ele>531.6666666666666</ele><time>2026-05-01T08:41:29.662Z</time></trkpt><trkpt lat="44.3645383" lon="11.006235"><ele>532.8333333333334</ele><time>2026-05-01T08:41:30.659Z</time></trkpt><trkpt lat="44.364525" lon="11.0061367"><ele>534.0</ele><time>2026-05-01T08:41:31.66Z</time></trkpt><trkpt lat="44.3645083" lon="11.006025"><ele>534.0</ele><time>2026-05-01T08:41:32.66Z</time></trkpt><trkpt lat="44.3644917" lon="11.0059033"><ele>534.0</ele><time>2026-05-01T08:41:33.658Z</time></trkpt><trkpt lat="44.3644783" lon="11.005785"><ele>534.0</ele><time>2026-05-01T08:41:34.659Z</time></trkpt><trkpt lat="44.3644583" lon="11.0056717"><ele>534.0</ele><time>2026-05-01T08:41:35.661Z</time></trkpt><trkpt lat="44.364445" lon="11.005565"><ele>534.0</ele><time>2026-05-01T08:41:36.661Z</time></trkpt><trkpt lat="44.3644317" lon="11.005465"><ele>534.0</ele><time>2026-05-01T08:41:37.66Z</time></trkpt><trkpt lat="44.364425" lon="11.0053617"><ele>534.6666666666666</ele><time>2026-05-01T08:41:38.663Z</time></trkpt><trkpt lat="44.36442" lon="11.00527"><ele>535.3333333333334</ele><time>2026-05-01T08:41:39.662Z</time></trkpt><trkpt lat="44.364405" lon="11.00518"><ele>536.0</ele><time>2026-05-01T08:41:40.661Z</time></trkpt><trkpt lat="44.3643867" lon="11.0050883"><ele>536.6666666666667</ele><time>2026-05-01T08:41:41.661Z</time></trkpt><trkpt lat="44.3643617" lon="11.0050017"><ele>537.3333333333334</ele><time>2026-05-01T08:41:42.662Z</time></trkpt><trkpt lat="44.3643417" lon="11.00482"><ele>538.0</ele><time>2026-05-01T08:41:44.662Z</time></trkpt><trkpt lat="44.3643383" lon="11.0047217"><ele>538.5</ele><time>2026-05-01T08:41:45.661Z</time></trkpt><trkpt lat="44.3643667" lon="11.00461"><ele>539.0</ele><time>2026-05-01T08:41:46.662Z</time></trkpt><trkpt lat="44.3643833" lon="11.004505"><ele>539.5</ele><time>2026-05-01T08:41:47.661Z</time></trkpt><trkpt lat="44.3643817" lon="11.0044033"><ele>540.0</ele><time>2026-05-01T08:41:48.661Z</time></trkpt><trkpt lat="44.3643783" lon="11.0042933"><ele>540.5</ele><time>2026-05-01T08:41:49.66Z</time></trkpt><trkpt lat="44.3643767" lon="11.004165"><ele>541.0</ele><time>2026-05-01T08:41:50.662Z</time></trkpt><trkpt lat="44.36439" lon="11.00403"><ele>541.4</ele><time>2026-05-01T08:41:51.66Z</time></trkpt><trkpt lat="44.3643883" lon="11.0039"><ele>541.8</ele><time>2026-05-01T08:41:52.661Z</time></trkpt><trkpt lat="44.3643933" lon="11.003785"><ele>542.1999999999999</ele><time>2026-05-01T08:41:53.659Z</time></trkpt><trkpt lat="44.36439" lon="11.0036917"><ele>542.6</ele><time>2026-05-01T08:41:54.66Z</time></trkpt><trkpt lat="44.3643667" lon="11.00353"><ele>543.0</ele><time>2026-05-01T08:41:56.665Z</time></trkpt><trkpt lat="44.3642933" lon="11.0034"><ele>542.6666666666666</ele><time>2026-05-01T08:41:58.662Z</time></trkpt><trkpt lat="44.3642617" lon="11.00331"><ele>542.3333333333334</ele><time>2026-05-01T08:41:59.661Z</time></trkpt><trkpt lat="44.36424" lon="11.003205"><ele>542.0</ele><time>2026-05-01T08:42:00.662Z</time></trkpt><trkpt lat="44.3642183" lon="11.0030817"><ele>541.6666666666667</ele><time>2026-05-01T08:42:01.662Z</time></trkpt><trkpt lat="44.3642033" lon="11.0029533"><ele>541.3333333333334</ele><time>2026-05-01T08:42:02.661Z</time></trkpt><trkpt lat="44.3641883" lon="11.0028383"><ele>541.0</ele><time>2026-05-01T08:42:03.662Z</time></trkpt><trkpt lat="44.36417" lon="11.002735"><ele>541.0</ele><time>2026-05-01T08:42:04.659Z</time></trkpt><trkpt lat="44.3641633" lon="11.0026283"><ele>541.0</ele><time>2026-05-01T08:42:05.663Z</time></trkpt><trkpt lat="44.3641533" lon="11.0025217"><ele>541.0</ele><time>2026-05-01T08:42:06.661Z</time></trkpt><trkpt lat="44.3641483" lon="11.00241"><ele>541.0</ele><time>2026-05-01T08:42:07.66Z</time></trkpt><trkpt lat="44.3641533" lon="11.0022917"><ele>541.0</ele><time>2026-05-01T08:42:08.662Z</time></trkpt><trkpt lat="44.3641667" lon="11.00217"><ele>541.0</ele><time>2026-05-01T08:42:09.661Z</time></trkpt><trkpt lat="44.3641983" lon="11.0020467"><ele>541.0</ele><time>2026-05-01T08:42:10.657Z</time></trkpt><trkpt lat="44.36423" lon="11.0019283"><ele>541.0</ele><time>2026-05-01T08:42:11.659Z</time></trkpt><trkpt lat="44.36426" lon="11.001815"><ele>541.0</ele><time>2026-05-01T08:42:12.659Z</time></trkpt><trkpt lat="44.36427" lon="11.0017033"><ele>541.0</ele><time>2026-05-01T08:42:13.659Z</time></trkpt><trkpt lat="44.36427" lon="11.0015967"><ele>541.0</ele><time>2026-05-01T08:42:14.658Z</time></trkpt><trkpt lat="44.36426" lon="11.001495"><ele>541.0</ele><time>2026-05-01T08:42:15.659Z</time></trkpt><trkpt lat="44.3642367" lon="11.001405"><ele>542.0</ele><time>2026-05-01T08:42:16.659Z</time></trkpt><trkpt lat="44.3641517" lon="11.0012933"><ele>543.0</ele><time>2026-05-01T08:42:18.658Z</time></trkpt><trkpt lat="44.36405" lon="11.0012033"><ele>544.0</ele><time>2026-05-01T08:42:20.664Z</time></trkpt><trkpt lat="44.36398" lon="11.0011433"><ele>545.0</ele><time>2026-05-01T08:42:22.66Z</time></trkpt><trkpt lat="44.3639183" lon="11.0011733"><ele>546.0</ele><time>2026-05-01T08:42:25.66Z</time></trkpt><trkpt lat="44.3638783" lon="11.0012633"><ele>546.3333333333334</ele><time>2026-05-01T08:42:27.659Z</time></trkpt><trkpt lat="44.363835" lon="11.0013783"><ele>546.6666666666666</ele><time>2026-05-01T08:42:29.66Z</time></trkpt><trkpt lat="44.3637967" lon="11.0015033"><ele>547.0</ele><time>2026-05-01T08:42:31.658Z</time></trkpt><trkpt lat="44.36378" lon="11.001605"><ele>547.3333333333333</ele><time>2026-05-01T08:42:33.657Z</time></trkpt><trkpt lat="44.36375" lon="11.001715"><ele>547.6666666666666</ele><time>2026-05-01T08:42:35.66Z</time></trkpt><trkpt lat="44.363685" lon="11.001805"><ele>548.0</ele><time>2026-05-01T08:42:37.659Z</time></trkpt><trkpt lat="44.3635783" lon="11.0018467"><ele>549.1666666666666</ele><time>2026-05-01T08:42:39.662Z</time></trkpt><trkpt lat="44.363485" lon="11.0018617"><ele>550.3333333333333</ele><time>2026-05-01T08:42:41.659Z</time></trkpt><trkpt lat="44.3634267" lon="11.0019183"><ele>551.5</ele><time>2026-05-01T08:42:43.659Z</time></trkpt><trkpt lat="44.3633533" lon="11.0019967"><ele>552.6666666666666</ele><time>2026-05-01T08:42:46.658Z</time></trkpt><trkpt lat="44.3632967" lon="11.0020483"><ele>553.8333333333334</ele><time>2026-05-01T08:42:49.658Z</time></trkpt><trkpt lat="44.3632633" lon="11.0021317"><ele>555.0</ele><time>2026-05-01T08:42:52.659Z</time></trkpt><trkpt lat="44.363195" lon="11.0022117"><ele>555.0</ele><time>2026-05-01T08:42:55.657Z</time></trkpt><trkpt lat="44.363125" lon="11.00224"><ele>555.0</ele><time>2026-05-01T08:42:57.659Z</time></trkpt><trkpt lat="44.3630567" lon="11.0022633"><ele>555.0</ele><time>2026-05-01T08:42:59.659Z</time></trkpt><trkpt lat="44.362965" lon="11.0022917"><ele>555.0</ele><time>2026-05-01T08:43:01.661Z</time></trkpt><trkpt lat="44.3628967" lon="11.0023133"><ele>555.0</ele><time>2026-05-01T08:43:03.658Z</time></trkpt><trkpt lat="44.3628767" lon="11.00243"><ele>555.0</ele><time>2026-05-01T08:43:07.659Z</time></trkpt><trkpt lat="44.362885" lon="11.0025383"><ele>560.0</ele><time>2026-05-01T08:43:10.661Z</time></trkpt><trkpt lat="44.362815" lon="11.0025933"><ele>565.0</ele><time>2026-05-01T08:43:26.659Z</time></trkpt><trkpt lat="44.3627483" lon="11.0026433"><ele>570.0</ele><time>2026-05-01T08:43:32.661Z</time></trkpt><trkpt lat="44.3626983" lon="11.00273"><ele>575.0</ele><time>2026-05-01T08:43:34.659Z</time></trkpt><trkpt lat="44.3626433" lon="11.0028417"><ele>580.0</ele><time>2026-05-01T08:43:36.66Z</time></trkpt><trkpt lat="44.3625983" lon="11.0029617"><ele>585.0</ele><time>2026-05-01T08:43:38.659Z</time></trkpt><trkpt lat="44.3625517" lon="11.0030767"><ele>585.0</ele><time>2026-05-01T08:43:40.658Z</time></trkpt><trkpt lat="44.3625" lon="11.0031883"><ele>585.0</ele><time>2026-05-01T08:43:42.659Z</time></trkpt><trkpt lat="44.36243" lon="11.0032567"><ele>585.0</ele><time>2026-05-01T08:43:44.659Z</time></trkpt><trkpt lat="44.362355" lon="11.0033183"><ele>585.0</ele><time>2026-05-01T08:43:46.661Z</time></trkpt><trkpt lat="44.3622667" lon="11.0033933"><ele>585.0</ele><time>2026-05-01T08:43:48.66Z</time></trkpt><trkpt lat="44.362175" lon="11.00344"><ele>588.8333333333334</ele><time>2026-05-01T08:43:50.662Z</time></trkpt><trkpt lat="44.3620817" lon="11.0034783"><ele>592.6666666666666</ele><time>2026-05-01T08:43:52.659Z</time></trkpt><trkpt lat="44.3620067" lon="11.0035583"><ele>596.5</ele><time>2026-05-01T08:43:54.66Z</time></trkpt><trkpt lat="44.361925" lon="11.003625"><ele>600.3333333333333</ele><time>2026-05-01T08:43:56.66Z</time></trkpt><trkpt lat="44.3618583" lon="11.00371"><ele>604.1666666666666</ele><time>2026-05-01T08:43:58.659Z</time></trkpt><trkpt lat="44.361855" lon="11.0038117"><ele>608.0</ele><time>2026-05-01T08:44:00.658Z</time></trkpt><trkpt lat="44.3618617" lon="11.003925"><ele>608.0</ele><time>2026-05-01T08:44:02.658Z</time></trkpt><trkpt lat="44.361845" lon="11.00401"><ele>608.0</ele><time>2026-05-01T08:44:04.659Z</time></trkpt><trkpt lat="44.3618567" lon="11.0040983"><ele>608.0</ele><time>2026-05-01T08:44:06.659Z</time></trkpt><trkpt lat="44.3618917" lon="11.0042283"><ele>608.0</ele><time>2026-05-01T08:44:08.66Z</time></trkpt><trkpt lat="44.3619283" lon="11.00437"><ele>608.0</ele><time>2026-05-01T08:44:10.659Z</time></trkpt><trkpt lat="44.3619217" lon="11.0044833"><ele>608.0</ele><time>2026-05-01T08:44:12.658Z</time></trkpt><trkpt lat="44.3618833" lon="11.0045883"><ele>608.4</ele><time>2026-05-01T08:44:14.66Z</time></trkpt><trkpt lat="44.3618183" lon="11.00469"><ele>608.8</ele><time>2026-05-01T08:44:16.659Z</time></trkpt><trkpt lat="44.3617267" lon="11.0047433"><ele>609.2</ele><time>2026-05-01T08:44:18.659Z</time></trkpt><trkpt lat="44.36162" lon="11.004735"><ele>609.6</ele><time>2026-05-01T08:44:20.661Z</time></trkpt><trkpt lat="44.361515" lon="11.004735"><ele>610.0</ele><time>2026-05-01T08:44:22.659Z</time></trkpt><trkpt lat="44.3614117" lon="11.004785"><ele>613.3333333333334</ele><time>2026-05-01T08:44:24.66Z</time></trkpt><trkpt lat="44.3613183" lon="11.004795"><ele>616.6666666666667</ele><time>2026-05-01T08:44:26.661Z</time></trkpt><trkpt lat="44.36123" lon="11.004795"><ele>620.0</ele><time>2026-05-01T08:44:28.658Z</time></trkpt><trkpt lat="44.3611383" lon="11.00482"><ele>623.3333333333334</ele><time>2026-05-01T08:44:30.66Z</time></trkpt><trkpt lat="44.3610583" lon="11.0048433"><ele>626.6666666666666</ele><time>2026-05-01T08:44:32.66Z</time></trkpt><trkpt lat="44.360975" lon="11.0048817"><ele>630.0</ele><time>2026-05-01T08:44:34.66Z</time></trkpt><trkpt lat="44.3609133" lon="11.0049567"><ele>631.0</ele><time>2026-05-01T08:44:36.659Z</time></trkpt><trkpt lat="44.3608467" lon="11.00501"><ele>632.0</ele><time>2026-05-01T08:44:38.656Z</time></trkpt><trkpt lat="44.360765" lon="11.0050317"><ele>633.0</ele><time>2026-05-01T08:44:41.66Z</time></trkpt><trkpt lat="44.3606983" lon="11.0050733"><ele>634.0</ele><time>2026-05-01T08:44:43.658Z</time></trkpt><trkpt lat="44.3606433" lon="11.0051367"><ele>635.0</ele><time>2026-05-01T08:44:45.659Z</time></trkpt><trkpt lat="44.3605867" lon="11.0051767"><ele>636.0</ele><time>2026-05-01T08:44:47.658Z</time></trkpt><trkpt lat="44.3605167" lon="11.005115"><ele>639.0</ele><time>2026-05-01T08:44:49.659Z</time></trkpt><trkpt lat="44.3604367" lon="11.0050467"><ele>642.0</ele><time>2026-05-01T08:44:51.658Z</time></trkpt><trkpt lat="44.360325" lon="11.0050517"><ele>645.0</ele><time>2026-05-01T08:44:53.657Z</time></trkpt><trkpt lat="44.36021" lon="11.00509"><ele>648.0</ele><time>2026-05-01T08:44:55.657Z</time></trkpt><trkpt lat="44.36011" lon="11.00514"><ele>651.0</ele><time>2026-05-01T08:44:57.657Z</time></trkpt><trkpt lat="44.360025" lon="11.0052283"><ele>651.0</ele><time>2026-05-01T08:44:59.658Z</time></trkpt><trkpt lat="44.3599533" lon="11.0052917"><ele>651.0</ele><time>2026-05-01T08:45:01.658Z</time></trkpt><trkpt lat="44.3598617" lon="11.0053517"><ele>651.0</ele><time>2026-05-01T08:45:03.658Z</time></trkpt><trkpt lat="44.3597633" lon="11.0053617"><ele>651.0</ele><time>2026-05-01T08:45:05.658Z</time></trkpt><trkpt lat="44.35965" lon="11.00533"><ele>651.0</ele><time>2026-05-01T08:45:07.659Z</time></trkpt><trkpt lat="44.3595883" lon="11.0053117"><ele>653.1666666666666</ele><time>2026-05-01T08:45:08.659Z</time></trkpt><trkpt lat="44.359525" lon="11.0052817"><ele>655.3333333333334</ele><time>2026-05-01T08:45:09.658Z</time></trkpt><trkpt lat="44.359465" lon="11.0052483"><ele>657.5</ele><time>2026-05-01T08:45:10.661Z</time></trkpt><trkpt lat="44.3594033" lon="11.0052183"><ele>659.6666666666667</ele><time>2026-05-01T08:45:11.66Z</time></trkpt><trkpt lat="44.3593433" lon="11.005185"><ele>661.8333333333334</ele><time>2026-05-01T08:45:12.658Z</time></trkpt><trkpt lat="44.3592367" lon="11.00513"><ele>664.0</ele><time>2026-05-01T08:45:14.661Z</time></trkpt><trkpt lat="44.359155" lon="11.0051433"><ele>664.0</ele><time>2026-05-01T08:45:16.657Z</time></trkpt><trkpt lat="44.3590617" lon="11.0052383"><ele>664.0</ele><time>2026-05-01T08:45:18.659Z</time></trkpt><trkpt lat="44.358985" lon="11.0053217"><ele>664.0</ele><time>2026-05-01T08:45:20.667Z</time></trkpt><trkpt lat="44.3588983" lon="11.005405"><ele>664.0</ele><time>2026-05-01T08:49:47.66Z</time></trkpt><trkpt lat="44.3588133" lon="11.0055383"><ele>664.0</ele><time>2026-05-01T08:49:49.659Z</time></trkpt><trkpt lat="44.3587717" lon="11.0056083"><ele>663.5714285714286</ele><time>2026-05-01T08:49:50.661Z</time></trkpt><trkpt lat="44.358725" lon="11.0056783"><ele>663.1428571428572</ele><time>2026-05-01T08:49:51.658Z</time></trkpt><trkpt lat="44.358675" lon="11.0057483"><ele>662.7142857142858</ele><time>2026-05-01T08:49:52.658Z</time></trkpt><trkpt lat="44.3586267" lon="11.0058117"><ele>662.2857142857142</ele><time>2026-05-01T08:49:53.66Z</time></trkpt><trkpt lat="44.358575" lon="11.0058767"><ele>661.8571428571429</ele><time>2026-05-01T08:49:54.659Z</time></trkpt><trkpt lat="44.3585217" lon="11.0059383"><ele>661.4285714285714</ele><time>2026-05-01T08:49:55.659Z</time></trkpt><trkpt lat="44.3584733" lon="11.005995"><ele>661.0</ele><time>2026-05-01T08:49:56.66Z</time></trkpt><trkpt lat="44.3583767" lon="11.0060983"><ele>662.8571428571429</ele><time>2026-05-01T08:49:58.658Z</time></trkpt><trkpt lat="44.3583217" lon="11.0061467"><ele>664.7142857142858</ele><time>2026-05-01T08:49:59.659Z</time></trkpt><trkpt lat="44.3582633" lon="11.0062"><ele>666.5714285714287</ele><time>2026-05-01T08:50:00.66Z</time></trkpt><trkpt lat="44.3582033" lon="11.0062517"><ele>668.4285714285714</ele><time>2026-05-01T08:50:01.655Z</time></trkpt><trkpt lat="44.3581433" lon="11.006305"><ele>670.2857142857143</ele><time>2026-05-01T08:50:02.66Z</time></trkpt><trkpt lat="44.35808" lon="11.0063517"><ele>672.1428571428572</ele><time>2026-05-01T08:50:03.659Z</time></trkpt><trkpt lat="44.358015" lon="11.00639"><ele>674.0</ele><time>2026-05-01T08:50:04.658Z</time></trkpt><trkpt lat="44.357945" lon="11.006425"><ele>674.0</ele><time>2026-05-01T08:50:05.659Z</time></trkpt><trkpt lat="44.3578733" lon="11.00645"><ele>674.0</ele><time>2026-05-01T08:50:06.66Z</time></trkpt><trkpt lat="44.3577933" lon="11.006465"><ele>674.0</ele><time>2026-05-01T08:50:07.659Z</time></trkpt><trkpt lat="44.35771" lon="11.00648"><ele>674.0</ele><time>2026-05-01T08:50:08.661Z</time></trkpt><trkpt lat="44.357625" lon="11.0065"><ele>674.0</ele><time>2026-05-01T08:50:09.658Z</time></trkpt><trkpt lat="44.357535" lon="11.0065267"><ele>674.0</ele><time>2026-05-01T08:50:10.657Z</time></trkpt><trkpt lat="44.3574333" lon="11.0065583"><ele>674.0</ele><time>2026-05-01T08:50:11.657Z</time></trkpt><trkpt lat="44.3573217" lon="11.0066"><ele>674.0</ele><time>2026-05-01T08:50:12.658Z</time></trkpt><trkpt lat="44.3572" lon="11.0066517"><ele>674.0</ele><time>2026-05-01T08:50:13.658Z</time></trkpt><trkpt lat="44.3570833" lon="11.006705"><ele>674.0</ele><time>2026-05-01T08:50:14.661Z</time></trkpt><trkpt lat="44.3569733" lon="11.0067483"><ele>677.0</ele><time>2026-05-01T08:50:15.659Z</time></trkpt><trkpt lat="44.3568717" lon="11.006775"><ele>680.0</ele><time>2026-05-01T08:50:16.657Z</time></trkpt><trkpt lat="44.3567867" lon="11.0067817"><ele>683.0</ele><time>2026-05-01T08:50:17.659Z</time></trkpt><trkpt lat="44.3567167" lon="11.0067817"><ele>686.0</ele><time>2026-05-01T08:50:18.659Z</time></trkpt><trkpt lat="44.35662" lon="11.0067733"><ele>689.0</ele><time>2026-05-01T08:50:20.658Z</time></trkpt><trkpt lat="44.3565133" lon="11.0067817"><ele>689.0</ele><time>2026-05-01T08:50:22.659Z</time></trkpt><trkpt lat="44.3564033" lon="11.0067917"><ele>689.0</ele><time>2026-05-01T08:50:24.658Z</time></trkpt><trkpt lat="44.3562967" lon="11.0068383"><ele>689.0</ele><time>2026-05-01T08:50:26.661Z</time></trkpt><trkpt lat="44.3562333" lon="11.0068717"><ele>689.0</ele><time>2026-05-01T08:50:27.661Z</time></trkpt><trkpt lat="44.3561667" lon="11.0068983"><ele>689.0</ele><time>2026-05-01T08:50:28.661Z</time></trkpt><trkpt lat="44.356095" lon="11.0069283"><ele>689.0</ele><time>2026-05-01T08:50:29.66Z</time></trkpt><trkpt lat="44.3560267" lon="11.006955"><ele>691.5</ele><time>2026-05-01T08:50:30.662Z</time></trkpt><trkpt lat="44.35596" lon="11.00697"><ele>694.0</ele><time>2026-05-01T08:50:31.658Z</time></trkpt><trkpt lat="44.3558967" lon="11.0069583"><ele>696.5</ele><time>2026-05-01T08:50:32.662Z</time></trkpt><trkpt lat="44.3557883" lon="11.0069283"><ele>699.0</ele><time>2026-05-01T08:50:34.658Z</time></trkpt><trkpt lat="44.3556983" lon="11.0069633"><ele>701.5</ele><time>2026-05-01T08:50:36.661Z</time></trkpt><trkpt lat="44.3556033" lon="11.0070417"><ele>704.0</ele><time>2026-05-01T08:50:38.66Z</time></trkpt><trkpt lat="44.3555283" lon="11.00708"><ele>705.3333333333333</ele><time>2026-05-01T08:50:39.657Z</time></trkpt><trkpt lat="44.355445" lon="11.007115"><ele>706.6666666666666</ele><time>2026-05-01T08:50:40.659Z</time></trkpt><trkpt lat="44.3553567" lon="11.0071467"><ele>708.0</ele><time>2026-05-01T08:50:41.658Z</time></trkpt><trkpt lat="44.3552717" lon="11.0071733"><ele>709.3333333333334</ele><time>2026-05-01T08:50:42.658Z</time></trkpt><trkpt lat="44.3551883" lon="11.00719"><ele>710.6666666666667</ele><time>2026-05-01T08:50:43.659Z</time></trkpt><trkpt lat="44.3551017" lon="11.0072"><ele>712.0</ele><time>2026-05-01T08:50:44.66Z</time></trkpt><trkpt lat="44.3550083" lon="11.0072117"><ele>712.0</ele><time>2026-05-01T08:50:45.654Z</time></trkpt><trkpt lat="44.3549083" lon="11.007215"><ele>712.0</ele><time>2026-05-01T08:50:46.659Z</time></trkpt><trkpt lat="44.3548183" lon="11.0072167"><ele>712.0</ele><time>2026-05-01T08:50:47.658Z</time></trkpt><trkpt lat="44.35475" lon="11.0072233"><ele>712.0</ele><time>2026-05-01T08:50:48.658Z</time></trkpt><trkpt lat="44.3546683" lon="11.0073033"><ele>712.0</ele><time>2026-05-01T08:50:50.661Z</time></trkpt><trkpt lat="44.354615" lon="11.0074383"><ele>716.3333333333334</ele><time>2026-05-01T08:50:52.658Z</time></trkpt><trkpt lat="44.35457" lon="11.0075"><ele>720.6666666666667</ele><time>2026-05-01T08:50:53.659Z</time></trkpt><trkpt lat="44.3545167" lon="11.007555"><ele>725.0</ele><time>2026-05-01T08:50:54.659Z</time></trkpt><trkpt lat="44.35444" lon="11.0075867"><ele>729.3333333333334</ele><time>2026-05-01T08:50:55.659Z</time></trkpt><trkpt lat="44.3543383" lon="11.0076017"><ele>733.6666666666666</ele><time>2026-05-01T08:50:56.66Z</time></trkpt><trkpt lat="44.354235" lon="11.0076233"><ele>738.0</ele><time>2026-05-01T08:50:57.659Z</time></trkpt><trkpt lat="44.3541067" lon="11.0076683"><ele>738.0</ele><time>2026-05-01T08:50:58.659Z</time></trkpt><trkpt lat="44.3539833" lon="11.00772"><ele>738.0</ele><time>2026-05-01T08:50:59.659Z</time></trkpt><trkpt lat="44.35387" lon="11.0077733"><ele>738.0</ele><time>2026-05-01T08:51:00.659Z</time></trkpt><trkpt lat="44.3537617" lon="11.0078267"><ele>738.0</ele><time>2026-05-01T08:51:01.66Z</time></trkpt><trkpt lat="44.35366" lon="11.007865"><ele>740.2</ele><time>2026-05-01T08:51:02.66Z</time></trkpt><trkpt lat="44.353565" lon="11.00788"><ele>742.4</ele><time>2026-05-01T08:51:03.658Z</time></trkpt><trkpt lat="44.3534683" lon="11.0078667"><ele>744.6</ele><time>2026-05-01T08:51:04.657Z</time></trkpt><trkpt lat="44.35337" lon="11.007835"><ele>746.8000000000001</ele><time>2026-05-01T08:51:05.659Z</time></trkpt><trkpt lat="44.3532733" lon="11.0078167"><ele>749.0</ele><time>2026-05-01T08:51:06.659Z</time></trkpt><trkpt lat="44.3531883" lon="11.007825"><ele>749.0</ele><time>2026-05-01T08:51:07.66Z</time></trkpt><trkpt lat="44.3530983" lon="11.00787"><ele>749.0</ele><time>2026-05-01T08:51:08.66Z</time></trkpt><trkpt lat="44.3530117" lon="11.007925"><ele>749.0</ele><time>2026-05-01T08:51:09.66Z</time></trkpt><trkpt lat="44.3529233" lon="11.0080167"><ele>749.0</ele><time>2026-05-01T08:51:10.659Z</time></trkpt><trkpt lat="44.3528383" lon="11.00811"><ele>749.0</ele><time>2026-05-01T08:51:11.66Z</time></trkpt><trkpt lat="44.3527433" lon="11.0082167"><ele>749.0</ele><time>2026-05-01T08:51:12.659Z</time></trkpt><trkpt lat="44.3526433" lon="11.0083217"><ele>749.0</ele><time>2026-05-01T08:51:13.66Z</time></trkpt><trkpt lat="44.3525367" lon="11.0084117"><ele>749.0</ele><time>2026-05-01T08:51:14.659Z</time></trkpt><trkpt lat="44.35243" lon="11.008485"><ele>749.0</ele><time>2026-05-01T08:51:15.659Z</time></trkpt><trkpt lat="44.3523167" lon="11.008525"><ele>754.0</ele><time>2026-05-01T08:51:16.659Z</time></trkpt><trkpt lat="44.352195" lon="11.008535"><ele>759.0</ele><time>2026-05-01T08:51:17.659Z</time></trkpt><trkpt lat="44.35207" lon="11.008545"><ele>764.0</ele><time>2026-05-01T08:51:18.66Z</time></trkpt><trkpt lat="44.3519467" lon="11.0085783"><ele>769.0</ele><time>2026-05-01T08:51:19.66Z</time></trkpt><trkpt lat="44.35182" lon="11.00863"><ele>769.0</ele><time>2026-05-01T08:51:20.661Z</time></trkpt><trkpt lat="44.3517033" lon="11.0086933"><ele>769.0</ele><time>2026-05-01T08:51:21.659Z</time></trkpt><trkpt lat="44.3515767" lon="11.00877"><ele>769.0</ele><time>2026-05-01T08:51:22.66Z</time></trkpt><trkpt lat="44.3514417" lon="11.0088483"><ele>769.0</ele><time>2026-05-01T08:51:23.661Z</time></trkpt><trkpt lat="44.3512967" lon="11.008915"><ele>770.3333333333333</ele><time>2026-05-01T08:51:24.66Z</time></trkpt><trkpt lat="44.35115" lon="11.0089767"><ele>771.6666666666667</ele><time>2026-05-01T08:51:25.662Z</time></trkpt><trkpt lat="44.3509967" lon="11.0090417"><ele>773.0</ele><time>2026-05-01T08:51:26.662Z</time></trkpt><trkpt lat="44.3508433" lon="11.0091117"><ele>775.0</ele><time>2026-05-01T08:51:27.658Z</time></trkpt><trkpt lat="44.3506983" lon="11.0091817"><ele>777.0</ele><time>2026-05-01T08:51:28.663Z</time></trkpt><trkpt lat="44.3505583" lon="11.0092417"><ele>779.0</ele><time>2026-05-01T08:51:29.661Z</time></trkpt><trkpt lat="44.350415" lon="11.0092883"><ele>781.0</ele><time>2026-05-01T08:51:30.66Z</time></trkpt><trkpt lat="44.3502717" lon="11.009325"><ele>781.75</ele><time>2026-05-01T08:51:31.66Z</time></trkpt><trkpt lat="44.3501267" lon="11.0093383"><ele>782.5</ele><time>2026-05-01T08:51:32.66Z</time></trkpt><trkpt lat="44.3499833" lon="11.0093433"><ele>783.25</ele><time>2026-05-01T08:51:33.657Z</time></trkpt><trkpt lat="44.34984" lon="11.0093567"><ele>784.0</ele><time>2026-05-01T08:51:34.659Z</time></trkpt><trkpt lat="44.3497" lon="11.0093783"><ele>785.5</ele><time>2026-05-01T08:51:35.659Z</time></trkpt><trkpt lat="44.3495583" lon="11.0094"><ele>787.0</ele><time>2026-05-01T08:51:36.659Z</time></trkpt><trkpt lat="44.349415" lon="11.00942"><ele>788.5</ele><time>2026-05-01T08:51:37.658Z</time></trkpt><trkpt lat="44.349275" lon="11.009445"><ele>790.0</ele><time>2026-05-01T08:51:38.659Z</time></trkpt><trkpt lat="44.3491383" lon="11.00948"><ele>790.0</ele><time>2026-05-01T08:51:39.657Z</time></trkpt><trkpt lat="44.3490067" lon="11.0095167"><ele>790.0</ele><time>2026-05-01T08:51:40.66Z</time></trkpt><trkpt lat="44.34888" lon="11.009555"><ele>790.0</ele><time>2026-05-01T08:51:41.659Z</time></trkpt><trkpt lat="44.348755" lon="11.0095933"><ele>790.0</ele><time>2026-05-01T08:51:42.659Z</time></trkpt><trkpt lat="44.3486233" lon="11.009625"><ele>792.25</ele><time>2026-05-01T08:51:43.659Z</time></trkpt><trkpt lat="44.3484867" lon="11.0096433"><ele>794.5</ele><time>2026-05-01T08:51:44.66Z</time></trkpt><trkpt lat="44.3483583" lon="11.0096633"><ele>796.75</ele><time>2026-05-01T08:51:45.659Z</time></trkpt><trkpt lat="44.3482333" lon="11.0096917"><ele>799.0</ele><time>2026-05-01T08:51:46.659Z</time></trkpt><trkpt lat="44.34811" lon="11.0097217"><ele>799.75</ele><time>2026-05-01T08:51:47.661Z</time></trkpt><trkpt lat="44.34799" lon="11.0097733"><ele>800.5</ele><time>2026-05-01T08:51:48.659Z</time></trkpt><trkpt lat="44.3478783" lon="11.0098683"><ele>801.25</ele><time>2026-05-01T08:51:49.659Z</time></trkpt><trkpt lat="44.34777" lon="11.0099867"><ele>802.0</ele><time>2026-05-01T08:51:50.661Z</time></trkpt><trkpt lat="44.3476617" lon="11.0101083"><ele>803.25</ele><time>2026-05-01T08:51:51.659Z</time></trkpt><trkpt lat="44.3475483" lon="11.010225"><ele>804.5</ele><time>2026-05-01T08:51:52.659Z</time></trkpt><trkpt lat="44.3474417" lon="11.0103283"><ele>805.75</ele><time>2026-05-01T08:51:53.659Z</time></trkpt><trkpt lat="44.3473533" lon="11.01042"><ele>807.0</ele><time>2026-05-01T08:51:54.661Z</time></trkpt><trkpt lat="44.3472817" lon="11.0104933"><ele>807.0</ele><time>2026-05-01T08:51:55.66Z</time></trkpt><trkpt lat="44.347225" lon="11.01055"><ele>807.0</ele><time>2026-05-01T08:51:56.66Z</time></trkpt><trkpt lat="44.3471183" lon="11.0106483"><ele>807.0</ele><time>2026-05-01T08:51:58.658Z</time></trkpt><trkpt lat="44.3470583" lon="11.0107167"><ele>807.0</ele><time>2026-05-01T08:51:59.66Z</time></trkpt><trkpt lat="44.3469883" lon="11.0108083"><ele>807.0</ele><time>2026-05-01T08:52:00.66Z</time></trkpt><trkpt lat="44.3469067" lon="11.0109"><ele>808.0</ele><time>2026-05-01T08:52:01.658Z</time></trkpt><trkpt lat="44.3468183" lon="11.0109917"><ele>809.0</ele><time>2026-05-01T08:52:02.659Z</time></trkpt><trkpt lat="44.3467233" lon="11.0110867"><ele>810.0</ele><time>2026-05-01T08:52:03.658Z</time></trkpt><trkpt lat="44.34662" lon="11.0111783"><ele>811.0</ele><time>2026-05-01T08:52:04.659Z</time></trkpt><trkpt lat="44.3465033" lon="11.0112617"><ele>811.0</ele><time>2026-05-01T08:52:05.659Z</time></trkpt><trkpt lat="44.3463883" lon="11.0113267"><ele>811.0</ele><time>2026-05-01T08:52:06.659Z</time></trkpt><trkpt lat="44.3462833" lon="11.0113783"><ele>811.0</ele><time>2026-05-01T08:52:07.658Z</time></trkpt><trkpt lat="44.346195" lon="11.011445"><ele>811.0</ele><time>2026-05-01T08:52:08.661Z</time></trkpt><trkpt lat="44.3461183" lon="11.0115433"><ele>811.0</ele><time>2026-05-01T08:52:09.658Z</time></trkpt><trkpt lat="44.3460617" lon="11.0116917"><ele>811.5</ele><time>2026-05-01T08:52:10.658Z</time></trkpt><trkpt lat="44.346015" lon="11.0118717"><ele>812.0</ele><time>2026-05-01T08:52:11.659Z</time></trkpt><trkpt lat="44.345965" lon="11.0120717"><ele>812.5</ele><time>2026-05-01T08:52:12.659Z</time></trkpt><trkpt lat="44.3459067" lon="11.0122783"><ele>813.0</ele><time>2026-05-01T08:52:13.657Z</time></trkpt><trkpt lat="44.34585" lon="11.0124933"><ele>814.5</ele><time>2026-05-01T08:52:14.661Z</time></trkpt><trkpt lat="44.3457983" lon="11.01271"><ele>816.0</ele><time>2026-05-01T08:52:15.658Z</time></trkpt><trkpt lat="44.3457533" lon="11.01291"><ele>817.5</ele><time>2026-05-01T08:52:16.657Z</time></trkpt><trkpt lat="44.3457267" lon="11.013095"><ele>819.0</ele><time>2026-05-01T08:52:17.658Z</time></trkpt><trkpt lat="44.3457217" lon="11.0132867"><ele>820.0</ele><time>2026-05-01T08:52:18.66Z</time></trkpt><trkpt lat="44.34574" lon="11.01349"><ele>821.0</ele><time>2026-05-01T08:52:19.659Z</time></trkpt><trkpt lat="44.345775" lon="11.0136917"><ele>822.0</ele><time>2026-05-01T08:52:20.658Z</time></trkpt><trkpt lat="44.3458167" lon="11.013875"><ele>823.0</ele><time>2026-05-01T08:52:21.658Z</time></trkpt><trkpt lat="44.34585" lon="11.014035"><ele>824.2</ele><time>2026-05-01T08:52:22.659Z</time></trkpt><trkpt lat="44.345855" lon="11.0141833"><ele>825.4</ele><time>2026-05-01T08:52:23.659Z</time></trkpt><trkpt lat="44.3458233" lon="11.01432"><ele>826.6</ele><time>2026-05-01T08:52:24.659Z</time></trkpt><trkpt lat="44.3457517" lon="11.0144433"><ele>827.8000000000001</ele><time>2026-05-01T08:52:25.659Z</time></trkpt><trkpt lat="44.345655" lon="11.014555"><ele>829.0</ele><time>2026-05-01T08:52:26.661Z</time></trkpt><trkpt lat="44.3455533" lon="11.0146583"><ele>828.25</ele><time>2026-05-01T08:52:27.66Z</time></trkpt><trkpt lat="44.3454533" lon="11.0147517"><ele>827.5</ele><time>2026-05-01T08:52:28.659Z</time></trkpt><trkpt lat="44.3453433" lon="11.014835"><ele>826.75</ele><time>2026-05-01T08:52:29.657Z</time></trkpt><trkpt lat="44.3452233" lon="11.0149067"><ele>826.0</ele><time>2026-05-01T08:52:30.656Z</time></trkpt><trkpt lat="44.345105" lon="11.01497"><ele>826.5999999999999</ele><time>2026-05-01T08:52:31.66Z</time></trkpt><trkpt lat="44.3450033" lon="11.0150317"><ele>827.2</ele><time>2026-05-01T08:52:32.66Z</time></trkpt><trkpt lat="44.3449183" lon="11.0151067"><ele>827.8</ele><time>2026-05-01T08:52:33.659Z</time></trkpt><trkpt lat="44.3448533" lon="11.0152133"><ele>828.4000000000001</ele><time>2026-05-01T08:52:34.658Z</time></trkpt><trkpt lat="44.3448033" lon="11.0153533"><ele>829.0</ele><time>2026-05-01T08:52:35.66Z</time></trkpt><trkpt lat="44.3447517" lon="11.0155083"><ele>829.2</ele><time>2026-05-01T08:52:36.659Z</time></trkpt><trkpt lat="44.3446883" lon="11.01565"><ele>829.4000000000001</ele><time>2026-05-01T08:52:37.658Z</time></trkpt><trkpt lat="44.3446133" lon="11.0157733"><ele>829.6</ele><time>2026-05-01T08:52:38.661Z</time></trkpt><trkpt lat="44.3445333" lon="11.0158767"><ele>829.8</ele><time>2026-05-01T08:52:39.66Z</time></trkpt><trkpt lat="44.344455" lon="11.0159717"><ele>830.0</ele><time>2026-05-01T08:52:40.661Z</time></trkpt><trkpt lat="44.3443783" lon="11.0160667"><ele>830.0</ele><time>2026-05-01T08:52:41.658Z</time></trkpt><trkpt lat="44.3442967" lon="11.0161683"><ele>830.0</ele><time>2026-05-01T08:52:42.658Z</time></trkpt><trkpt lat="44.34422" lon="11.01628"><ele>830.0</ele><time>2026-05-01T08:52:43.658Z</time></trkpt><trkpt lat="44.3441467" lon="11.016405"><ele>830.0</ele><time>2026-05-01T08:52:44.659Z</time></trkpt><trkpt lat="44.3440817" lon="11.0165533"><ele>829.5</ele><time>2026-05-01T08:52:45.658Z</time></trkpt><trkpt lat="44.344015" lon="11.0167133"><ele>829.0</ele><time>2026-05-01T08:52:46.658Z</time></trkpt><trkpt lat="44.3439483" lon="11.0168783"><ele>828.5</ele><time>2026-05-01T08:52:47.659Z</time></trkpt><trkpt lat="44.3438867" lon="11.017035"><ele>828.0</ele><time>2026-05-01T08:52:48.658Z</time></trkpt><trkpt lat="44.34383" lon="11.01718"><ele>827.5999999999999</ele><time>2026-05-01T08:52:49.662Z</time></trkpt><trkpt lat="44.3437717" lon="11.01732"><ele>827.1999999999999</ele><time>2026-05-01T08:52:50.66Z</time></trkpt><trkpt lat="44.343715" lon="11.0174517"><ele>826.8</ele><time>2026-05-01T08:52:51.66Z</time></trkpt><trkpt lat="44.343665" lon="11.0175767"><ele>826.4</ele><time>2026-05-01T08:52:52.659Z</time></trkpt><trkpt lat="44.343615" lon="11.0177"><ele>826.0</ele><time>2026-05-01T08:52:53.66Z</time></trkpt><trkpt lat="44.3435633" lon="11.01783"><ele>826.0</ele><time>2026-05-01T08:52:54.658Z</time></trkpt><trkpt lat="44.3435133" lon="11.017975"><ele>826.0</ele><time>2026-05-01T08:52:55.658Z</time></trkpt><trkpt lat="44.3434617" lon="11.01813"><ele>826.0</ele><time>2026-05-01T08:52:56.661Z</time></trkpt><trkpt lat="44.3434033" lon="11.01829"><ele>826.0</ele><time>2026-05-01T08:52:57.66Z</time></trkpt><trkpt lat="44.3433283" lon="11.018445"><ele>825.75</ele><time>2026-05-01T08:52:58.66Z</time></trkpt><trkpt lat="44.343235" lon="11.0185833"><ele>825.5</ele><time>2026-05-01T08:52:59.66Z</time></trkpt><trkpt lat="44.3431317" lon="11.0187"><ele>825.25</ele><time>2026-05-01T08:53:00.658Z</time></trkpt><trkpt lat="44.3430283" lon="11.0187983"><ele>825.0</ele><time>2026-05-01T08:53:01.659Z</time></trkpt><trkpt lat="44.342935" lon="11.018885"><ele>824.4</ele><time>2026-05-01T08:53:02.659Z</time></trkpt><trkpt lat="44.3428517" lon="11.018965"><ele>823.8</ele><time>2026-05-01T08:53:03.658Z</time></trkpt><trkpt lat="44.3427833" lon="11.0190483"><ele>823.2</ele><time>2026-05-01T08:53:04.66Z</time></trkpt><trkpt lat="44.34272" lon="11.0191317"><ele>822.6</ele><time>2026-05-01T08:53:05.658Z</time></trkpt><trkpt lat="44.3426533" lon="11.01921"><ele>822.0</ele><time>2026-05-01T08:53:06.657Z</time></trkpt><trkpt lat="44.3425783" lon="11.0192767"><ele>822.0</ele><time>2026-05-01T08:53:07.659Z</time></trkpt><trkpt lat="44.342495" lon="11.01933"><ele>822.0</ele><time>2026-05-01T08:53:08.659Z</time></trkpt><trkpt lat="44.3424033" lon="11.019365"><ele>822.0</ele><time>2026-05-01T08:53:09.659Z</time></trkpt><trkpt lat="44.3423033" lon="11.019385"><ele>822.0</ele><time>2026-05-01T08:53:10.658Z</time></trkpt><trkpt lat="44.3421983" lon="11.0193917"><ele>822.0</ele><time>2026-05-01T08:53:11.659Z</time></trkpt><trkpt lat="44.3420933" lon="11.0193967"><ele>823.4000000000001</ele><time>2026-05-01T08:53:12.658Z</time></trkpt><trkpt lat="44.3419917" lon="11.019405"><ele>824.8000000000001</ele><time>2026-05-01T08:53:13.659Z</time></trkpt><trkpt lat="44.341905" lon="11.0194117"><ele>826.2</ele><time>2026-05-01T08:53:14.659Z</time></trkpt><trkpt lat="44.3418367" lon="11.01941"><ele>827.6</ele><time>2026-05-01T08:53:15.659Z</time></trkpt><trkpt lat="44.3417267" lon="11.0193567"><ele>829.0</ele><time>2026-05-01T08:53:17.66Z</time></trkpt><trkpt lat="44.341685" lon="11.0192083"><ele>828.1666666666666</ele><time>2026-05-01T08:53:19.661Z</time></trkpt><trkpt lat="44.34169" lon="11.0191067"><ele>827.3333333333333</ele><time>2026-05-01T08:53:20.66Z</time></trkpt><trkpt lat="44.3416883" lon="11.0189917"><ele>826.5</ele><time>2026-05-01T08:53:21.664Z</time></trkpt><trkpt lat="44.341685" lon="11.0188583"><ele>825.6666666666667</ele><time>2026-05-01T08:53:22.657Z</time></trkpt><trkpt lat="44.3416817" lon="11.01872"><ele>824.8333333333334</ele><time>2026-05-01T08:53:23.659Z</time></trkpt><trkpt lat="44.3416767" lon="11.01859"><ele>824.0</ele><time>2026-05-01T08:53:24.659Z</time></trkpt><trkpt lat="44.341665" lon="11.018475"><ele>824.0000000000001</ele><time>2026-05-01T08:53:25.659Z</time></trkpt><trkpt lat="44.3416567" lon="11.01836"><ele>824.0</ele><time>2026-05-01T08:53:26.661Z</time></trkpt><trkpt lat="44.341655" lon="11.0182433"><ele>824.0</ele><time>2026-05-01T08:53:27.657Z</time></trkpt><trkpt lat="44.3416583" lon="11.0181167"><ele>824.0</ele><time>2026-05-01T08:53:28.659Z</time></trkpt><trkpt lat="44.34166" lon="11.0179983"><ele>824.0000000000001</ele><time>2026-05-01T08:53:29.657Z</time></trkpt><trkpt lat="44.3416533" lon="11.0179"><ele>824.0</ele><time>2026-05-01T08:53:30.659Z</time></trkpt><trkpt lat="44.3416217" lon="11.01775"><ele>824.0000000000001</ele><time>2026-05-01T08:53:32.658Z</time></trkpt><trkpt lat="44.3415733" lon="11.01763"><ele>824.0</ele><time>2026-05-01T08:53:34.66Z</time></trkpt><trkpt lat="44.3415367" lon="11.0175333"><ele>824.0</ele><time>2026-05-01T08:53:36.66Z</time></trkpt><trkpt lat="44.3414492" lon="11.0175676"><ele>824.0</ele><time>2026-05-01T08:55:17.7Z</time></trkpt><trkpt lat="44.341496" lon="11.0176461"><ele>824.0000000000001</ele><time>2026-05-01T08:55:22.663Z</time></trkpt><trkpt lat="44.3415271" lon="11.0177241"><ele>824.0</ele><time>2026-05-01T08:55:28.668Z</time></trkpt><trkpt lat="44.3415294" lon="11.0178143"><ele>823.9999999999999</ele><time>2026-05-01T08:55:35.803Z</time></trkpt><trkpt lat="44.3415418" lon="11.0179075"><ele>824.0</ele><time>2026-05-01T08:55:46.698Z</time></trkpt><trkpt lat="44.3414914" lon="11.0179715"><ele>824.0</ele><time>2026-05-01T08:55:55.693Z</time></trkpt><trkpt lat="44.3415083" lon="11.0180617"><ele>824.0</ele><time>2026-05-01T08:56:09.66Z</time></trkpt><trkpt lat="44.3415117" lon="11.0179333"><ele>824.0</ele><time>2026-05-01T09:00:58.655Z</time></trkpt><trkpt lat="44.341525" lon="11.0178467"><ele>823.9999999999999</ele><time>2026-05-01T09:01:29.655Z</time></trkpt><trkpt lat="44.34151" lon="11.017755"><ele>824.0</ele><time>2026-05-01T09:01:36.654Z</time></trkpt><trkpt lat="44.3415067" lon="11.01766"><ele>823.9999999999999</ele><time>2026-05-01T09:01:44.657Z</time></trkpt><trkpt lat="44.3414867" lon="11.017565"><ele>824.0</ele><time>2026-05-01T09:01:52.657Z</time></trkpt><trkpt lat="44.3414697" lon="11.0174797"><ele>824.0</ele><time>2026-05-01T09:02:01.655Z</time></trkpt><trkpt lat="44.3414756" lon="11.0173909"><ele>824.0</ele><time>2026-05-01T09:15:28.581Z</time></trkpt><trkpt lat="44.3414778" lon="11.0172919"><ele>824.0</ele><time>2026-05-01T09:15:34.7Z</time></trkpt><trkpt lat="44.3413933" lon="11.017235"><ele>823.9999999999999</ele><time>2026-05-01T09:15:35.658Z</time></trkpt><trkpt lat="44.3413233" lon="11.0171717"><ele>824.0</ele><time>2026-05-01T09:15:38.659Z</time></trkpt><trkpt lat="44.3412417" lon="11.0171167"><ele>821.4000000000001</ele><time>2026-05-01T09:15:40.659Z</time></trkpt><trkpt lat="44.3411367" lon="11.0170467"><ele>818.8</ele><time>2026-05-01T09:15:42.662Z</time></trkpt><trkpt lat="44.3410667" lon="11.017"><ele>816.2</ele><time>2026-05-01T09:15:43.661Z</time></trkpt><trkpt lat="44.3409883" lon="11.0169467"><ele>813.5999999999999</ele><time>2026-05-01T09:15:44.661Z</time></trkpt><trkpt lat="44.3408983" lon="11.0168833"><ele>811.0</ele><time>2026-05-01T09:15:45.659Z</time></trkpt><trkpt lat="44.3408033" lon="11.0168183"><ele>811.0</ele><time>2026-05-01T09:15:46.659Z</time></trkpt><trkpt lat="44.3407117" lon="11.0167533"><ele>811.0</ele><time>2026-05-01T09:15:47.66Z</time></trkpt><trkpt lat="44.34062" lon="11.016685"><ele>811.0</ele><time>2026-05-01T09:15:48.659Z</time></trkpt><trkpt lat="44.34052" lon="11.0166133"><ele>811.0</ele><time>2026-05-01T09:15:49.66Z</time></trkpt><trkpt lat="44.3404183" lon="11.016545"><ele>811.0</ele><time>2026-05-01T09:15:50.659Z</time></trkpt><trkpt lat="44.3403233" lon="11.0164833"><ele>810.25</ele><time>2026-05-01T09:15:51.659Z</time></trkpt><trkpt lat="44.340225" lon="11.016435"><ele>809.5</ele><time>2026-05-01T09:15:52.66Z</time></trkpt><trkpt lat="44.3401183" lon="11.016405"><ele>808.75</ele><time>2026-05-01T09:15:53.66Z</time></trkpt><trkpt lat="44.3400033" lon="11.0163817"><ele>808.0</ele><time>2026-05-01T09:15:54.662Z</time></trkpt><trkpt lat="44.3398783" lon="11.0163567"><ele>808.0</ele><time>2026-05-01T09:15:55.661Z</time></trkpt><trkpt lat="44.339755" lon="11.0163283"><ele>808.0</ele><time>2026-05-01T09:15:56.662Z</time></trkpt><trkpt lat="44.3396383" lon="11.0163017"><ele>808.0</ele><time>2026-05-01T09:15:57.66Z</time></trkpt><trkpt lat="44.3395283" lon="11.0162817"><ele>808.0</ele><time>2026-05-01T09:15:58.66Z</time></trkpt><trkpt lat="44.3394217" lon="11.0162583"><ele>805.75</ele><time>2026-05-01T09:15:59.661Z</time></trkpt><trkpt lat="44.339315" lon="11.0162267"><ele>803.5</ele><time>2026-05-01T09:16:00.659Z</time></trkpt><trkpt lat="44.3392117" lon="11.0161783"><ele>801.25</ele><time>2026-05-01T09:16:01.659Z</time></trkpt><trkpt lat="44.3391083" lon="11.0161083"><ele>799.0</ele><time>2026-05-01T09:16:02.66Z</time></trkpt><trkpt lat="44.3389983" lon="11.01602"><ele>799.0</ele><time>2026-05-01T09:16:03.658Z</time></trkpt><trkpt lat="44.3388983" lon="11.0159217"><ele>799.0</ele><time>2026-05-01T09:16:04.657Z</time></trkpt><trkpt lat="44.3387983" lon="11.015815"><ele>799.0</ele><time>2026-05-01T09:16:05.658Z</time></trkpt><trkpt lat="44.3387" lon="11.0157067"><ele>799.0</ele><time>2026-05-01T09:16:06.661Z</time></trkpt><trkpt lat="44.33861" lon="11.0156033"><ele>796.0</ele><time>2026-05-01T09:16:07.659Z</time></trkpt><trkpt lat="44.3385267" lon="11.0154967"><ele>793.0</ele><time>2026-05-01T09:16:08.661Z</time></trkpt><trkpt lat="44.3384483" lon="11.015375"><ele>790.0</ele><time>2026-05-01T09:16:09.66Z</time></trkpt><trkpt lat="44.3383683" lon="11.015235"><ele>787.0</ele><time>2026-05-01T09:16:10.668Z</time></trkpt><trkpt lat="44.3382883" lon="11.0150883"><ele>786.5</ele><time>2026-05-01T09:16:11.659Z</time></trkpt><trkpt lat="44.3382117" lon="11.01494"><ele>786.0</ele><time>2026-05-01T09:16:12.66Z</time></trkpt><trkpt lat="44.3381383" lon="11.0147883"><ele>785.5</ele><time>2026-05-01T09:16:13.66Z</time></trkpt><trkpt lat="44.3380683" lon="11.0146417"><ele>785.0</ele><time>2026-05-01T09:16:14.659Z</time></trkpt><trkpt lat="44.338" lon="11.0144983"><ele>782.0</ele><time>2026-05-01T09:16:15.657Z</time></trkpt><trkpt lat="44.3379283" lon="11.0143583"><ele>779.0</ele><time>2026-05-01T09:16:16.658Z</time></trkpt><trkpt lat="44.3378683" lon="11.014215"><ele>776.0</ele><time>2026-05-01T09:16:17.659Z</time></trkpt><trkpt lat="44.337815" lon="11.0140667"><ele>773.0</ele><time>2026-05-01T09:16:18.661Z</time></trkpt><trkpt lat="44.3377667" lon="11.013905"><ele>771.25</ele><time>2026-05-01T09:16:19.661Z</time></trkpt><trkpt lat="44.3377117" lon="11.01374"><ele>769.5</ele><time>2026-05-01T09:16:20.66Z</time></trkpt><trkpt lat="44.337635" lon="11.0135833"><ele>767.75</ele><time>2026-05-01T09:16:21.66Z</time></trkpt><trkpt lat="44.337555" lon="11.013425"><ele>766.0</ele><time>2026-05-01T09:16:22.657Z</time></trkpt><trkpt lat="44.337475" lon="11.0132817"><ele>766.0</ele><time>2026-05-01T09:16:23.659Z</time></trkpt><trkpt lat="44.3373967" lon="11.0131533"><ele>766.0</ele><time>2026-05-01T09:16:24.659Z</time></trkpt><trkpt lat="44.3373167" lon="11.0130383"><ele>766.0</ele><time>2026-05-01T09:16:25.66Z</time></trkpt><trkpt lat="44.3372367" lon="11.0129333"><ele>766.0</ele><time>2026-05-01T09:16:26.66Z</time></trkpt><trkpt lat="44.337155" lon="11.0128267"><ele>766.0</ele><time>2026-05-01T09:16:27.66Z</time></trkpt><trkpt lat="44.337065" lon="11.0127167"><ele>766.0</ele><time>2026-05-01T09:16:28.66Z</time></trkpt><trkpt lat="44.3369633" lon="11.0126033"><ele>766.0</ele><time>2026-05-01T09:16:29.659Z</time></trkpt><trkpt lat="44.33685" lon="11.01249"><ele>766.0</ele><time>2026-05-01T09:16:30.661Z</time></trkpt><trkpt lat="44.336735" lon="11.0123817"><ele>767.0</ele><time>2026-05-01T09:16:31.66Z</time></trkpt><trkpt lat="44.3366283" lon="11.0122867"><ele>768.0</ele><time>2026-05-01T09:16:32.66Z</time></trkpt><trkpt lat="44.3365233" lon="11.01219"><ele>769.0</ele><time>2026-05-01T09:16:33.659Z</time></trkpt><trkpt lat="44.3364133" lon="11.0120967"><ele>770.0</ele><time>2026-05-01T09:16:34.659Z</time></trkpt><trkpt lat="44.3362933" lon="11.01201"><ele>770.0</ele><time>2026-05-01T09:16:35.66Z</time></trkpt><trkpt lat="44.336165" lon="11.01193"><ele>770.0</ele><time>2026-05-01T09:16:36.66Z</time></trkpt><trkpt lat="44.3360367" lon="11.0118617"><ele>770.0</ele><time>2026-05-01T09:16:37.66Z</time></trkpt><trkpt lat="44.335915" lon="11.0118067"><ele>770.0</ele><time>2026-05-01T09:16:38.659Z</time></trkpt><trkpt lat="44.335795" lon="11.0117617"><ele>770.0</ele><time>2026-05-01T09:16:39.66Z</time></trkpt><trkpt lat="44.3356817" lon="11.0117283"><ele>770.0</ele><time>2026-05-01T09:16:40.659Z</time></trkpt><trkpt lat="44.3355817" lon="11.0117083"><ele>770.0</ele><time>2026-05-01T09:16:41.659Z</time></trkpt><trkpt lat="44.3354983" lon="11.0116967"><ele>770.0</ele><time>2026-05-01T09:16:42.66Z</time></trkpt><trkpt lat="44.33543" lon="11.011695"><ele>770.0</ele><time>2026-05-01T09:16:43.659Z</time></trkpt><trkpt lat="44.33534" lon="11.0117133"><ele>769.6666666666667</ele><time>2026-05-01T09:16:45.659Z</time></trkpt><trkpt lat="44.335275" lon="11.0117433"><ele>769.3333333333334</ele><time>2026-05-01T09:16:47.661Z</time></trkpt><trkpt lat="44.3352167" lon="11.0117783"><ele>769.0</ele><time>2026-05-01T09:16:48.659Z</time></trkpt><trkpt lat="44.3351417" lon="11.0118233"><ele>768.6666666666667</ele><time>2026-05-01T09:16:49.661Z</time></trkpt><trkpt lat="44.3350583" lon="11.011875"><ele>768.3333333333334</ele><time>2026-05-01T09:16:50.659Z</time></trkpt><trkpt lat="44.33497" lon="11.011935"><ele>768.0</ele><time>2026-05-01T09:16:51.66Z</time></trkpt><trkpt lat="44.33488" lon="11.0120033"><ele>768.0</ele><time>2026-05-01T09:16:52.659Z</time></trkpt><trkpt lat="44.3347883" lon="11.0120733"><ele>768.0</ele><time>2026-05-01T09:16:53.66Z</time></trkpt><trkpt lat="44.3346967" lon="11.0121383"><ele>768.0</ele><time>2026-05-01T09:16:54.66Z</time></trkpt><trkpt lat="44.3346033" lon="11.0121967"><ele>768.0</ele><time>2026-05-01T09:16:55.661Z</time></trkpt><trkpt lat="44.3345133" lon="11.0122567"><ele>768.0</ele><time>2026-05-01T09:16:56.66Z</time></trkpt><trkpt lat="44.334425" lon="11.012325"><ele>768.5999999999999</ele><time>2026-05-01T09:16:57.659Z</time></trkpt><trkpt lat="44.33434" lon="11.0124067"><ele>769.1999999999999</ele><time>2026-05-01T09:16:58.659Z</time></trkpt><trkpt lat="44.3342583" lon="11.0124983"><ele>769.8</ele><time>2026-05-01T09:16:59.659Z</time></trkpt><trkpt lat="44.3341833" lon="11.0125983"><ele>770.4</ele><time>2026-05-01T09:17:00.66Z</time></trkpt><trkpt lat="44.33411" lon="11.0127"><ele>771.0</ele><time>2026-05-01T09:17:01.66Z</time></trkpt><trkpt lat="44.3340383" lon="11.0128033"><ele>771.0</ele><time>2026-05-01T09:17:02.66Z</time></trkpt><trkpt lat="44.33396" lon="11.012895"><ele>771.0</ele><time>2026-05-01T09:17:03.658Z</time></trkpt><trkpt lat="44.3338683" lon="11.0129617"><ele>771.0</ele><time>2026-05-01T09:17:04.658Z</time></trkpt><trkpt lat="44.3337683" lon="11.013005"><ele>771.0</ele><time>2026-05-01T09:17:05.66Z</time></trkpt><trkpt lat="44.333665" lon="11.01303"><ele>771.0</ele><time>2026-05-01T09:17:06.658Z</time></trkpt><trkpt lat="44.333555" lon="11.0130367"><ele>771.1999999999999</ele><time>2026-05-01T09:17:07.661Z</time></trkpt><trkpt lat="44.3334467" lon="11.0130417"><ele>771.4</ele><time>2026-05-01T09:17:08.66Z</time></trkpt><trkpt lat="44.3333367" lon="11.0130283"><ele>771.6</ele><time>2026-05-01T09:17:09.659Z</time></trkpt><trkpt lat="44.3332267" lon="11.013005"><ele>771.8</ele><time>2026-05-01T09:17:10.659Z</time></trkpt><trkpt lat="44.3331183" lon="11.01297"><ele>772.0</ele><time>2026-05-01T09:17:11.658Z</time></trkpt><trkpt lat="44.3330117" lon="11.0129167"><ele>773.5</ele><time>2026-05-01T09:17:12.659Z</time></trkpt><trkpt lat="44.332905" lon="11.0128617"><ele>775.0</ele><time>2026-05-01T09:17:13.659Z</time></trkpt><trkpt lat="44.3327983" lon="11.0128033"><ele>776.5</ele><time>2026-05-01T09:17:14.66Z</time></trkpt><trkpt lat="44.3326817" lon="11.01275"><ele>778.0</ele><time>2026-05-01T09:17:15.66Z</time></trkpt><trkpt lat="44.3325667" lon="11.0126967"><ele>778.0</ele><time>2026-05-01T09:17:16.658Z</time></trkpt><trkpt lat="44.3324467" lon="11.0126467"><ele>778.0</ele><time>2026-05-01T09:17:17.658Z</time></trkpt><trkpt lat="44.3323283" lon="11.012595"><ele>778.0</ele><time>2026-05-01T09:17:18.661Z</time></trkpt><trkpt lat="44.33221" lon="11.0125467"><ele>778.0</ele><time>2026-05-01T09:17:19.661Z</time></trkpt><trkpt lat="44.3320917" lon="11.0125017"><ele>778.4</ele><time>2026-05-01T09:17:20.66Z</time></trkpt><trkpt lat="44.3319817" lon="11.0124667"><ele>778.8</ele><time>2026-05-01T09:17:21.659Z</time></trkpt><trkpt lat="44.33188" lon="11.01245"><ele>779.2</ele><time>2026-05-01T09:17:22.658Z</time></trkpt><trkpt lat="44.331775" lon="11.012445"><ele>779.6</ele><time>2026-05-01T09:17:23.66Z</time></trkpt><trkpt lat="44.331665" lon="11.0124583"><ele>780.0</ele><time>2026-05-01T09:17:24.66Z</time></trkpt><trkpt lat="44.3315517" lon="11.0124833"><ele>782.0</ele><time>2026-05-01T09:17:25.66Z</time></trkpt><trkpt lat="44.3314383" lon="11.0125033"><ele>784.0</ele><time>2026-05-01T09:17:26.659Z</time></trkpt><trkpt lat="44.3313233" lon="11.0125"><ele>786.0</ele><time>2026-05-01T09:17:27.66Z</time></trkpt><trkpt lat="44.3312133" lon="11.0124683"><ele>788.0</ele><time>2026-05-01T09:17:28.659Z</time></trkpt><trkpt lat="44.3311" lon="11.01243"><ele>791.8</ele><time>2026-05-01T09:17:29.659Z</time></trkpt><trkpt lat="44.3309917" lon="11.012405"><ele>795.5999999999999</ele><time>2026-05-01T09:17:30.658Z</time></trkpt><trkpt lat="44.3308917" lon="11.01241"><ele>799.4000000000001</ele><time>2026-05-01T09:17:31.657Z</time></trkpt><trkpt lat="44.3308067" lon="11.01243"><ele>803.2</ele><time>2026-05-01T09:17:32.66Z</time></trkpt><trkpt lat="44.33074" lon="11.0124533"><ele>807.0</ele><time>2026-05-01T09:17:33.659Z</time></trkpt><trkpt lat="44.3306283" lon="11.01245"><ele>809.0</ele><time>2026-05-01T09:17:35.66Z</time></trkpt><trkpt lat="44.3305467" lon="11.01232"><ele>811.0</ele><time>2026-05-01T09:17:37.659Z</time></trkpt><trkpt lat="44.3304967" lon="11.01224"><ele>813.0</ele><time>2026-05-01T09:17:38.662Z</time></trkpt><trkpt lat="44.3304483" lon="11.0121367"><ele>815.0</ele><time>2026-05-01T09:17:39.658Z</time></trkpt><trkpt lat="44.3303917" lon="11.0120233"><ele>817.0</ele><time>2026-05-01T09:17:40.659Z</time></trkpt><trkpt lat="44.3303233" lon="11.0119317"><ele>817.0</ele><time>2026-05-01T09:17:41.659Z</time></trkpt><trkpt lat="44.330255" lon="11.011835"><ele>817.0</ele><time>2026-05-01T09:17:42.659Z</time></trkpt><trkpt lat="44.33017" lon="11.01178"><ele>817.0</ele><time>2026-05-01T09:17:43.659Z</time></trkpt><trkpt lat="44.33008" lon="11.0117517"><ele>817.0</ele><time>2026-05-01T09:17:44.659Z</time></trkpt><trkpt lat="44.3299867" lon="11.01172"><ele>817.0</ele><time>2026-05-01T09:17:45.659Z</time></trkpt><trkpt lat="44.32989" lon="11.0116867"><ele>815.2</ele><time>2026-05-01T09:17:46.658Z</time></trkpt><trkpt lat="44.3297883" lon="11.0116367"><ele>813.4000000000001</ele><time>2026-05-01T09:17:47.658Z</time></trkpt><trkpt lat="44.3296817" lon="11.0115767"><ele>811.5999999999999</ele><time>2026-05-01T09:17:48.659Z</time></trkpt><trkpt lat="44.3295783" lon="11.0115233"><ele>809.8</ele><time>2026-05-01T09:17:49.657Z</time></trkpt><trkpt lat="44.32947" lon="11.0114783"><ele>808.0</ele><time>2026-05-01T09:17:50.661Z</time></trkpt><trkpt lat="44.3293517" lon="11.0114417"><ele>808.0</ele><time>2026-05-01T09:17:51.659Z</time></trkpt><trkpt lat="44.32923" lon="11.0114233"><ele>808.0</ele><time>2026-05-01T09:17:52.658Z</time></trkpt><trkpt lat="44.3291017" lon="11.0114117"><ele>808.0</ele><time>2026-05-01T09:17:53.66Z</time></trkpt><trkpt lat="44.3289717" lon="11.011405"><ele>808.0</ele><time>2026-05-01T09:17:54.66Z</time></trkpt><trkpt lat="44.32886" lon="11.0114033"><ele>809.5999999999999</ele><time>2026-05-01T09:17:55.658Z</time></trkpt><trkpt lat="44.3287617" lon="11.0114033"><ele>811.1999999999999</ele><time>2026-05-01T09:17:56.659Z</time></trkpt><trkpt lat="44.328675" lon="11.0114217"><ele>812.8</ele><time>2026-05-01T09:17:57.657Z</time></trkpt><trkpt lat="44.3285983" lon="11.01146"><ele>814.4</ele><time>2026-05-01T09:17:58.657Z</time></trkpt><trkpt lat="44.328525" lon="11.0115183"><ele>816.0</ele><time>2026-05-01T09:17:59.66Z</time></trkpt><trkpt lat="44.3284467" lon="11.0116017"><ele>818.0</ele><time>2026-05-01T09:18:00.659Z</time></trkpt><trkpt lat="44.3283667" lon="11.0116917"><ele>820.0</ele><time>2026-05-01T09:18:01.659Z</time></trkpt><trkpt lat="44.328285" lon="11.01179"><ele>822.0</ele><time>2026-05-01T09:18:02.659Z</time></trkpt><trkpt lat="44.3282117" lon="11.0118867"><ele>824.0</ele><time>2026-05-01T09:18:03.659Z</time></trkpt><trkpt lat="44.3281467" lon="11.0119783"><ele>826.0</ele><time>2026-05-01T09:18:04.66Z</time></trkpt><trkpt lat="44.3280917" lon="11.0120467"><ele>826.3333333333333</ele><time>2026-05-01T09:18:05.661Z</time></trkpt><trkpt lat="44.3279967" lon="11.0120483"><ele>826.6666666666666</ele><time>2026-05-01T09:18:07.659Z</time></trkpt><trkpt lat="44.32794" lon="11.01192"><ele>827.0</ele><time>2026-05-01T09:18:09.659Z</time></trkpt><trkpt lat="44.3279217" lon="11.0118233"><ele>827.3333333333333</ele><time>2026-05-01T09:18:10.659Z</time></trkpt><trkpt lat="44.3279" lon="11.01172"><ele>827.6666666666666</ele><time>2026-05-01T09:18:11.658Z</time></trkpt><trkpt lat="44.3278717" lon="11.0116267"><ele>828.0</ele><time>2026-05-01T09:18:12.658Z</time></trkpt><trkpt lat="44.3278283" lon="11.0115317"><ele>828.1666666666666</ele><time>2026-05-01T09:18:13.658Z</time></trkpt><trkpt lat="44.32777" lon="11.011465"><ele>828.3333333333333</ele><time>2026-05-01T09:18:14.659Z</time></trkpt><trkpt lat="44.3277017" lon="11.011465"><ele>828.5</ele><time>2026-05-01T09:18:15.66Z</time></trkpt><trkpt lat="44.3276217" lon="11.0114483"><ele>828.6666666666666</ele><time>2026-05-01T09:18:16.657Z</time></trkpt><trkpt lat="44.327555" lon="11.0114617"><ele>828.8333333333333</ele><time>2026-05-01T09:18:17.658Z</time></trkpt><trkpt lat="44.327475" lon="11.0114133"><ele>829.0</ele><time>2026-05-01T09:18:19.661Z</time></trkpt><trkpt lat="44.327415" lon="11.0113017"><ele>829.0</ele><time>2026-05-01T09:18:22.66Z</time></trkpt><trkpt lat="44.327345" lon="11.011155"><ele>829.0</ele><time>2026-05-01T09:18:24.661Z</time></trkpt><trkpt lat="44.3272967" lon="11.011065"><ele>829.0</ele><time>2026-05-01T09:18:25.659Z</time></trkpt><trkpt lat="44.3272467" lon="11.010965"><ele>829.0</ele><time>2026-05-01T09:18:26.661Z</time></trkpt><trkpt lat="44.3271983" lon="11.01086"><ele>829.0</ele><time>2026-05-01T09:18:27.659Z</time></trkpt><trkpt lat="44.3271533" lon="11.0107533"><ele>831.6666666666666</ele><time>2026-05-01T09:18:28.658Z</time></trkpt><trkpt lat="44.327105" lon="11.01065"><ele>834.3333333333333</ele><time>2026-05-01T09:18:29.659Z</time></trkpt><trkpt lat="44.3270617" lon="11.0105433"><ele>837.0</ele><time>2026-05-01T09:18:30.658Z</time></trkpt><trkpt lat="44.3270217" lon="11.0104417"><ele>839.6666666666667</ele><time>2026-05-01T09:18:31.659Z</time></trkpt><trkpt lat="44.32698" lon="11.0103233"><ele>842.3333333333334</ele><time>2026-05-01T09:18:32.66Z</time></trkpt><trkpt lat="44.326935" lon="11.0102083"><ele>845.0</ele><time>2026-05-01T09:18:33.659Z</time></trkpt><trkpt lat="44.3268867" lon="11.0100883"><ele>843.0000000000001</ele><time>2026-05-01T09:18:34.66Z</time></trkpt><trkpt lat="44.32684" lon="11.0099817"><ele>841.0</ele><time>2026-05-01T09:18:35.66Z</time></trkpt><trkpt lat="44.3267983" lon="11.0098867"><ele>839.0</ele><time>2026-05-01T09:18:36.659Z</time></trkpt><trkpt lat="44.32676" lon="11.0098117"><ele>837.0</ele><time>2026-05-01T09:18:37.659Z</time></trkpt><trkpt lat="44.3266983" lon="11.0097517"><ele>835.0000000000001</ele><time>2026-05-01T09:18:38.66Z</time></trkpt><trkpt lat="44.326635" lon="11.0097117"><ele>833.0</ele><time>2026-05-01T09:18:39.661Z</time></trkpt><trkpt lat="44.3265417" lon="11.0096917"><ele>833.0000000000001</ele><time>2026-05-01T09:18:40.658Z</time></trkpt><trkpt lat="44.326455" lon="11.00967"><ele>833.0</ele><time>2026-05-01T09:18:41.659Z</time></trkpt><trkpt lat="44.326365" lon="11.0096583"><ele>833.0</ele><time>2026-05-01T09:18:42.659Z</time></trkpt><trkpt lat="44.3262833" lon="11.0096617"><ele>833.0</ele><time>2026-05-01T09:18:43.666Z</time></trkpt><trkpt lat="44.3261983" lon="11.009655"><ele>833.0000000000001</ele><time>2026-05-01T09:18:44.659Z</time></trkpt><trkpt lat="44.32611" lon="11.009635"><ele>833.0</ele><time>2026-05-01T09:18:45.658Z</time></trkpt><trkpt lat="44.326025" lon="11.0096083"><ele>836.5714285714286</ele><time>2026-05-01T09:18:46.658Z</time></trkpt><trkpt lat="44.3259417" lon="11.0095783"><ele>840.1428571428571</ele><time>2026-05-01T09:18:47.658Z</time></trkpt><trkpt lat="44.3258567" lon="11.0095567"><ele>843.7142857142858</ele><time>2026-05-01T09:18:48.658Z</time></trkpt><trkpt lat="44.3257833" lon="11.009535"><ele>847.2857142857142</ele><time>2026-05-01T09:18:49.655Z</time></trkpt><trkpt lat="44.325715" lon="11.0095033"><ele>850.8571428571429</ele><time>2026-05-01T09:18:50.659Z</time></trkpt><trkpt lat="44.3256583" lon="11.009455"><ele>854.4285714285714</ele><time>2026-05-01T09:18:51.658Z</time></trkpt><trkpt lat="44.32561" lon="11.0093983"><ele>858.0</ele><time>2026-05-01T09:18:52.66Z</time></trkpt><trkpt lat="44.3255233" lon="11.0093117"><ele>858.5999999999999</ele><time>2026-05-01T09:18:54.661Z</time></trkpt><trkpt lat="44.3254383" lon="11.0093367"><ele>859.1999999999999</ele><time>2026-05-01T09:18:57.659Z</time></trkpt><trkpt lat="44.3254" lon="11.0094117"><ele>859.8</ele><time>2026-05-01T09:18:59.658Z</time></trkpt><trkpt lat="44.3253433" lon="11.0094817"><ele>860.4</ele><time>2026-05-01T09:19:01.659Z</time></trkpt><trkpt lat="44.3252583" lon="11.009495"><ele>861.0</ele><time>2026-05-01T09:19:03.661Z</time></trkpt><trkpt lat="44.3251217" lon="11.009455"><ele>861.0</ele><time>2026-05-01T09:19:05.66Z</time></trkpt><trkpt lat="44.325035" lon="11.0094133"><ele>860.9999999999999</ele><time>2026-05-01T09:19:06.66Z</time></trkpt><trkpt lat="44.324945" lon="11.0093733"><ele>860.9999999999999</ele><time>2026-05-01T09:19:07.66Z</time></trkpt><trkpt lat="44.3248583" lon="11.00934"><ele>861.0</ele><time>2026-05-01T09:19:08.659Z</time></trkpt><trkpt lat="44.3247717" lon="11.0093167"><ele>861.0</ele><time>2026-05-01T09:19:09.659Z</time></trkpt><trkpt lat="44.3246817" lon="11.0092917"><ele>859.3333333333334</ele><time>2026-05-01T09:19:10.657Z</time></trkpt><trkpt lat="44.324585" lon="11.0092633"><ele>857.6666666666667</ele><time>2026-05-01T09:19:11.66Z</time></trkpt><trkpt lat="44.3245067" lon="11.0092333"><ele>856.0</ele><time>2026-05-01T09:19:12.659Z</time></trkpt><trkpt lat="44.324445" lon="11.0092067"><ele>854.3333333333334</ele><time>2026-05-01T09:19:13.657Z</time></trkpt><trkpt lat="44.3243517" lon="11.00918"><ele>852.6666666666667</ele><time>2026-05-01T09:19:15.661Z</time></trkpt><trkpt lat="44.3243567" lon="11.0090633"><ele>851.0</ele><time>2026-05-01T09:19:17.659Z</time></trkpt><trkpt lat="44.3243683" lon="11.0089683"><ele>851.0</ele><time>2026-05-01T09:19:18.659Z</time></trkpt><trkpt lat="44.3243833" lon="11.0088417"><ele>851.0</ele><time>2026-05-01T09:19:19.66Z</time></trkpt><trkpt lat="44.3244017" lon="11.008695"><ele>851.0</ele><time>2026-05-01T09:19:20.659Z</time></trkpt><trkpt lat="44.324405" lon="11.0085367"><ele>851.0</ele><time>2026-05-01T09:19:21.657Z</time></trkpt><trkpt lat="44.324405" lon="11.0083767"><ele>851.0</ele><time>2026-05-01T09:19:22.659Z</time></trkpt><trkpt lat="44.3243883" lon="11.0082067"><ele>851.25</ele><time>2026-05-01T09:19:23.658Z</time></trkpt><trkpt lat="44.324365" lon="11.008035"><ele>851.5</ele><time>2026-05-01T09:19:24.659Z</time></trkpt><trkpt lat="44.3243383" lon="11.0078733"><ele>851.75</ele><time>2026-05-01T09:19:25.659Z</time></trkpt><trkpt lat="44.32432" lon="11.0077183"><ele>852.0</ele><time>2026-05-01T09:19:26.665Z</time></trkpt><trkpt lat="44.3243233" lon="11.007575"><ele>851.75</ele><time>2026-05-01T09:19:27.66Z</time></trkpt><trkpt lat="44.3243517" lon="11.0074383"><ele>851.5</ele><time>2026-05-01T09:19:28.66Z</time></trkpt><trkpt lat="44.324395" lon="11.00729"><ele>851.25</ele><time>2026-05-01T09:19:29.658Z</time></trkpt><trkpt lat="44.3244483" lon="11.0071383"><ele>851.0</ele><time>2026-05-01T09:19:30.659Z</time></trkpt><trkpt lat="44.324505" lon="11.006995"><ele>851.0</ele><time>2026-05-01T09:19:31.66Z</time></trkpt><trkpt lat="44.3245783" lon="11.0068783"><ele>851.0</ele><time>2026-05-01T09:19:32.661Z</time></trkpt><trkpt lat="44.3246233" lon="11.0067533"><ele>851.0</ele><time>2026-05-01T09:19:33.658Z</time></trkpt><trkpt lat="44.324645" lon="11.0066267"><ele>851.0</ele><time>2026-05-01T09:19:34.659Z</time></trkpt><trkpt lat="44.3246433" lon="11.0065"><ele>851.0</ele><time>2026-05-01T09:19:35.659Z</time></trkpt><trkpt lat="44.3246233" lon="11.0063617"><ele>851.8</ele><time>2026-05-01T09:19:36.66Z</time></trkpt><trkpt lat="44.3245833" lon="11.00621"><ele>852.5999999999999</ele><time>2026-05-01T09:19:37.659Z</time></trkpt><trkpt lat="44.3245267" lon="11.0060683"><ele>853.4</ele><time>2026-05-01T09:19:38.661Z</time></trkpt><trkpt lat="44.3244583" lon="11.005945"><ele>854.2</ele><time>2026-05-01T09:19:39.661Z</time></trkpt><trkpt lat="44.324385" lon="11.0058417"><ele>855.0</ele><time>2026-05-01T09:19:40.657Z</time></trkpt><trkpt lat="44.3243083" lon="11.005745"><ele>855.6</ele><time>2026-05-01T09:19:41.66Z</time></trkpt><trkpt lat="44.3242317" lon="11.0056533"><ele>856.2</ele><time>2026-05-01T09:19:42.658Z</time></trkpt><trkpt lat="44.32416" lon="11.0055683"><ele>856.8</ele><time>2026-05-01T09:19:43.66Z</time></trkpt><trkpt lat="44.324095" lon="11.0054917"><ele>857.4</ele><time>2026-05-01T09:19:44.659Z</time></trkpt><trkpt lat="44.3240267" lon="11.0054217"><ele>858.0</ele><time>2026-05-01T09:19:45.66Z</time></trkpt><trkpt lat="44.32395" lon="11.0053633"><ele>858.5999999999999</ele><time>2026-05-01T09:19:46.658Z</time></trkpt><trkpt lat="44.3238633" lon="11.0053233"><ele>859.1999999999999</ele><time>2026-05-01T09:19:47.658Z</time></trkpt><trkpt lat="44.323765" lon="11.0053"><ele>859.8</ele><time>2026-05-01T09:19:48.66Z</time></trkpt><trkpt lat="44.3236683" lon="11.0052717"><ele>860.4</ele><time>2026-05-01T09:19:49.66Z</time></trkpt><trkpt lat="44.3235667" lon="11.0052233"><ele>861.0</ele><time>2026-05-01T09:19:50.662Z</time></trkpt><trkpt lat="44.3234717" lon="11.005165"><ele>861.0</ele><time>2026-05-01T09:19:51.661Z</time></trkpt><trkpt lat="44.3233733" lon="11.0051033"><ele>860.9999999999999</ele><time>2026-05-01T09:19:52.659Z</time></trkpt><trkpt lat="44.3232683" lon="11.0050467"><ele>860.9999999999999</ele><time>2026-05-01T09:19:53.659Z</time></trkpt><trkpt lat="44.3231733" lon="11.0050017"><ele>861.0</ele><time>2026-05-01T09:19:54.66Z</time></trkpt><trkpt lat="44.3230817" lon="11.0049583"><ele>861.0</ele><time>2026-05-01T09:19:55.66Z</time></trkpt><trkpt lat="44.3229883" lon="11.004925"><ele>861.5999999999999</ele><time>2026-05-01T09:19:56.66Z</time></trkpt><trkpt lat="44.322915" lon="11.00488"><ele>862.1999999999999</ele><time>2026-05-01T09:19:57.659Z</time></trkpt><trkpt lat="44.32285" lon="11.0048167"><ele>862.8000000000001</ele><time>2026-05-01T09:19:58.66Z</time></trkpt><trkpt lat="44.3227933" lon="11.0047283"><ele>863.4000000000001</ele><time>2026-05-01T09:19:59.66Z</time></trkpt><trkpt lat="44.322715" lon="11.0046217"><ele>864.0</ele><time>2026-05-01T09:20:00.661Z</time></trkpt><trkpt lat="44.3226183" lon="11.0045317"><ele>864.0</ele><time>2026-05-01T09:20:01.66Z</time></trkpt><trkpt lat="44.32253" lon="11.0044433"><ele>864.0000000000001</ele><time>2026-05-01T09:20:02.66Z</time></trkpt><trkpt lat="44.3224533" lon="11.0043683"><ele>864.0000000000001</ele><time>2026-05-01T09:20:03.658Z</time></trkpt><trkpt lat="44.3223983" lon="11.0042717"><ele>864.0</ele><time>2026-05-01T09:20:04.661Z</time></trkpt><trkpt lat="44.322345" lon="11.0041767"><ele>864.0</ele><time>2026-05-01T09:20:05.661Z</time></trkpt><trkpt lat="44.3223117" lon="11.0040783"><ele>863.5714285714286</ele><time>2026-05-01T09:20:06.661Z</time></trkpt><trkpt lat="44.3223233" lon="11.0039867"><ele>863.1428571428571</ele><time>2026-05-01T09:20:07.66Z</time></trkpt><trkpt lat="44.3223467" lon="11.003895"><ele>862.7142857142858</ele><time>2026-05-01T09:20:08.661Z</time></trkpt><trkpt lat="44.3223867" lon="11.0038067"><ele>862.2857142857142</ele><time>2026-05-01T09:20:09.658Z</time></trkpt><trkpt lat="44.3224283" lon="11.00373"><ele>861.8571428571429</ele><time>2026-05-01T09:20:10.661Z</time></trkpt><trkpt lat="44.322465" lon="11.003655"><ele>861.4285714285714</ele><time>2026-05-01T09:20:11.658Z</time></trkpt><trkpt lat="44.3225133" lon="11.00358"><ele>861.0</ele><time>2026-05-01T09:20:12.66Z</time></trkpt><trkpt lat="44.3225833" lon="11.0034867"><ele>861.0</ele><time>2026-05-01T09:20:13.658Z</time></trkpt><trkpt lat="44.32263" lon="11.0033917"><ele>861.0</ele><time>2026-05-01T09:20:14.661Z</time></trkpt><trkpt lat="44.3226767" lon="11.003295"><ele>861.0</ele><time>2026-05-01T09:20:15.658Z</time></trkpt><trkpt lat="44.3227283" lon="11.0031967"><ele>861.0</ele><time>2026-05-01T09:20:16.658Z</time></trkpt><trkpt lat="44.32278" lon="11.0030917"><ele>861.0</ele><time>2026-05-01T09:20:17.659Z</time></trkpt><trkpt lat="44.3228267" lon="11.002975"><ele>861.0</ele><time>2026-05-01T09:20:18.659Z</time></trkpt><trkpt lat="44.32286" lon="11.002855"><ele>860.8</ele><time>2026-05-01T09:20:19.662Z</time></trkpt><trkpt lat="44.32288" lon="11.0027217"><ele>860.5999999999999</ele><time>2026-05-01T09:20:20.66Z</time></trkpt><trkpt lat="44.3228817" lon="11.00259"><ele>860.4</ele><time>2026-05-01T09:20:21.66Z</time></trkpt><trkpt lat="44.3228817" lon="11.00246"><ele>860.2</ele><time>2026-05-01T09:20:22.661Z</time></trkpt><trkpt lat="44.3228583" lon="11.0023167"><ele>860.0</ele><time>2026-05-01T09:20:23.66Z</time></trkpt><trkpt lat="44.32282" lon="11.0021667"><ele>860.0</ele><time>2026-05-01T09:20:24.66Z</time></trkpt><trkpt lat="44.3227783" lon="11.0020283"><ele>860.0</ele><time>2026-05-01T09:20:25.659Z</time></trkpt><trkpt lat="44.3227233" lon="11.00189"><ele>860.0</ele><time>2026-05-01T09:20:26.661Z</time></trkpt><trkpt lat="44.3226533" lon="11.001765"><ele>860.0</ele><time>2026-05-01T09:20:27.659Z</time></trkpt><trkpt lat="44.3225833" lon="11.0016433"><ele>860.0</ele><time>2026-05-01T09:20:28.66Z</time></trkpt><trkpt lat="44.32251" lon="11.0015467"><ele>859.8</ele><time>2026-05-01T09:20:29.659Z</time></trkpt><trkpt lat="44.3224483" lon="11.0014383"><ele>859.6</ele><time>2026-05-01T09:20:30.658Z</time></trkpt><trkpt lat="44.32239" lon="11.0013317"><ele>859.4000000000001</ele><time>2026-05-01T09:20:31.66Z</time></trkpt><trkpt lat="44.32233" lon="11.0012317"><ele>859.2</ele><time>2026-05-01T09:20:32.661Z</time></trkpt><trkpt lat="44.3222633" lon="11.0011433"><ele>859.0</ele><time>2026-05-01T09:20:33.659Z</time></trkpt><trkpt lat="44.3221983" lon="11.0010767"><ele>858.9999999999999</ele><time>2026-05-01T09:20:34.659Z</time></trkpt><trkpt lat="44.3221417" lon="11.001025"><ele>859.0</ele><time>2026-05-01T09:20:35.66Z</time></trkpt><trkpt lat="44.3220533" lon="11.00091"><ele>859.0</ele><time>2026-05-01T09:20:37.659Z</time></trkpt><trkpt lat="44.3220167" lon="11.0008267"><ele>859.0</ele><time>2026-05-01T09:20:38.661Z</time></trkpt><trkpt lat="44.3219717" lon="11.0007417"><ele>858.9999999999999</ele><time>2026-05-01T09:20:39.66Z</time></trkpt><trkpt lat="44.3219333" lon="11.0006533"><ele>859.0</ele><time>2026-05-01T09:20:40.658Z</time></trkpt><trkpt lat="44.3219" lon="11.0005567"><ele>858.4000000000001</ele><time>2026-05-01T09:20:41.658Z</time></trkpt><trkpt lat="44.321865" lon="11.000455"><ele>857.8000000000001</ele><time>2026-05-01T09:20:42.66Z</time></trkpt><trkpt lat="44.3218233" lon="11.0003517"><ele>857.1999999999999</ele><time>2026-05-01T09:20:43.659Z</time></trkpt><trkpt lat="44.3217767" lon="11.00024"><ele>856.5999999999999</ele><time>2026-05-01T09:20:44.659Z</time></trkpt><trkpt lat="44.3217367" lon="11.0001183"><ele>856.0</ele><time>2026-05-01T09:20:45.659Z</time></trkpt><trkpt lat="44.321695" lon="10.99999"><ele>856.0</ele><time>2026-05-01T09:20:46.659Z</time></trkpt><trkpt lat="44.321645" lon="10.9998667"><ele>855.9999999999999</ele><time>2026-05-01T09:20:47.66Z</time></trkpt><trkpt lat="44.321575" lon="10.9997417"><ele>855.9999999999999</ele><time>2026-05-01T09:20:48.66Z</time></trkpt><trkpt lat="44.321495" lon="10.999635"><ele>856.0</ele><time>2026-05-01T09:20:49.66Z</time></trkpt><trkpt lat="44.3214233" lon="10.9995417"><ele>856.0</ele><time>2026-05-01T09:20:50.661Z</time></trkpt><trkpt lat="44.3213533" lon="10.999465"><ele>856.1666666666666</ele><time>2026-05-01T09:20:51.658Z</time></trkpt><trkpt lat="44.3212867" lon="10.9994067"><ele>856.3333333333333</ele><time>2026-05-01T09:20:52.66Z</time></trkpt><trkpt lat="44.321225" lon="10.99936"><ele>856.5</ele><time>2026-05-01T09:20:53.658Z</time></trkpt><trkpt lat="44.3211533" lon="10.9993217"><ele>856.6666666666667</ele><time>2026-05-01T09:20:54.659Z</time></trkpt><trkpt lat="44.3210683" lon="10.9993017"><ele>856.8333333333334</ele><time>2026-05-01T09:20:55.66Z</time></trkpt><trkpt lat="44.320985" lon="10.9992917"><ele>857.0</ele><time>2026-05-01T09:20:56.66Z</time></trkpt><trkpt lat="44.3208983" lon="10.9992833"><ele>857.0000000000001</ele><time>2026-05-01T09:20:57.666Z</time></trkpt><trkpt lat="44.3208117" lon="10.9992567"><ele>857.0</ele><time>2026-05-01T09:20:58.658Z</time></trkpt><trkpt lat="44.3207317" lon="10.999205"><ele>857.0</ele><time>2026-05-01T09:20:59.659Z</time></trkpt><trkpt lat="44.320675" lon="10.9991383"><ele>857.0</ele><time>2026-05-01T09:21:00.659Z</time></trkpt><trkpt lat="44.32065" lon="10.9990283"><ele>857.0000000000001</ele><time>2026-05-01T09:21:01.658Z</time></trkpt><trkpt lat="44.3206583" lon="10.9989133"><ele>857.0</ele><time>2026-05-01T09:21:02.665Z</time></trkpt><trkpt lat="44.320685" lon="10.998775"><ele>854.6</ele><time>2026-05-01T09:21:03.659Z</time></trkpt><trkpt lat="44.3207017" lon="10.998635"><ele>852.2</ele><time>2026-05-01T09:21:04.659Z</time></trkpt><trkpt lat="44.3207283" lon="10.998465"><ele>849.8</ele><time>2026-05-01T09:21:05.661Z</time></trkpt><trkpt lat="44.3207467" lon="10.9983117"><ele>847.4</ele><time>2026-05-01T09:21:06.66Z</time></trkpt><trkpt lat="44.3207517" lon="10.9981867"><ele>845.0</ele><time>2026-05-01T09:21:07.66Z</time></trkpt><trkpt lat="44.3207533" lon="10.9980667"><ele>843.3333333333334</ele><time>2026-05-01T09:21:08.661Z</time></trkpt><trkpt lat="44.3207667" lon="10.9979667"><ele>841.6666666666667</ele><time>2026-05-01T09:21:09.659Z</time></trkpt><trkpt lat="44.32085" lon="10.9979383"><ele>840.0</ele><time>2026-05-01T09:21:10.66Z</time></trkpt><trkpt lat="44.320925" lon="10.9978867"><ele>838.3333333333333</ele><time>2026-05-01T09:21:11.659Z</time></trkpt><trkpt lat="44.320995" lon="10.997845"><ele>836.6666666666666</ele><time>2026-05-01T09:21:12.661Z</time></trkpt><trkpt lat="44.321105" lon="10.99782"><ele>835.0</ele><time>2026-05-01T09:21:13.659Z</time></trkpt><trkpt lat="44.3212067" lon="10.997795"><ele>835.0</ele><time>2026-05-01T09:21:14.66Z</time></trkpt><trkpt lat="44.3212983" lon="10.9977467"><ele>835.0</ele><time>2026-05-01T09:21:15.659Z</time></trkpt><trkpt lat="44.32138" lon="10.9976767"><ele>835.0</ele><time>2026-05-01T09:21:16.659Z</time></trkpt><trkpt lat="44.3214483" lon="10.9975667"><ele>835.0</ele><time>2026-05-01T09:21:17.66Z</time></trkpt><trkpt lat="44.321495" lon="10.9974433"><ele>835.0</ele><time>2026-05-01T09:21:18.659Z</time></trkpt><trkpt lat="44.32154" lon="10.9973083"><ele>835.6</ele><time>2026-05-01T09:21:19.661Z</time></trkpt><trkpt lat="44.3215583" lon="10.9971833"><ele>836.2</ele><time>2026-05-01T09:21:20.661Z</time></trkpt><trkpt lat="44.321545" lon="10.997055"><ele>836.8</ele><time>2026-05-01T09:21:21.662Z</time></trkpt><trkpt lat="44.3215333" lon="10.9969117"><ele>837.4</ele><time>2026-05-01T09:21:22.658Z</time></trkpt><trkpt lat="44.3215183" lon="10.9967633"><ele>838.0</ele><time>2026-05-01T09:21:23.66Z</time></trkpt><trkpt lat="44.3215067" lon="10.9966167"><ele>838.0</ele><time>2026-05-01T09:21:24.662Z</time></trkpt><trkpt lat="44.3214933" lon="10.9964817"><ele>838.0</ele><time>2026-05-01T09:21:25.661Z</time></trkpt><trkpt lat="44.3214733" lon="10.9963467"><ele>838.0</ele><time>2026-05-01T09:21:26.66Z</time></trkpt><trkpt lat="44.32145" lon="10.99622"><ele>838.0</ele><time>2026-05-01T09:21:27.66Z</time></trkpt><trkpt lat="44.321425" lon="10.9960833"><ele>838.0</ele><time>2026-05-01T09:21:28.66Z</time></trkpt><trkpt lat="44.32139" lon="10.9959483"><ele>835.4</ele><time>2026-05-01T09:21:29.66Z</time></trkpt><trkpt lat="44.321355" lon="10.9958067"><ele>832.8</ele><time>2026-05-01T09:21:30.661Z</time></trkpt><trkpt lat="44.3213333" lon="10.9956717"><ele>830.2</ele><time>2026-05-01T09:21:31.659Z</time></trkpt><trkpt lat="44.3212967" lon="10.995525"><ele>827.6</ele><time>2026-05-01T09:21:32.661Z</time></trkpt><trkpt lat="44.32126" lon="10.9954183"><ele>825.0</ele><time>2026-05-01T09:21:33.66Z</time></trkpt><trkpt lat="44.3212183" lon="10.9953183"><ele>825.0</ele><time>2026-05-01T09:21:34.659Z</time></trkpt><trkpt lat="44.3211733" lon="10.9952317"><ele>825.0</ele><time>2026-05-01T09:21:35.659Z</time></trkpt><trkpt lat="44.3211117" lon="10.995165"><ele>825.0</ele><time>2026-05-01T09:21:36.659Z</time></trkpt><trkpt lat="44.3210533" lon="10.9951033"><ele>825.0</ele><time>2026-05-01T09:21:37.658Z</time></trkpt><trkpt lat="44.32097" lon="10.9950033"><ele>825.0</ele><time>2026-05-01T09:21:39.658Z</time></trkpt><trkpt lat="44.3209433" lon="10.994895"><ele>825.0</ele><time>2026-05-01T09:21:41.658Z</time></trkpt><trkpt lat="44.3210067" lon="10.9947733"><ele>823.4</ele><time>2026-05-01T09:21:43.658Z</time></trkpt><trkpt lat="44.321115" lon="10.9947183"><ele>821.8</ele><time>2026-05-01T09:21:45.658Z</time></trkpt><trkpt lat="44.3212183" lon="10.9947283"><ele>820.2</ele><time>2026-05-01T09:21:47.659Z</time></trkpt><trkpt lat="44.3212883" lon="10.994775"><ele>818.6</ele><time>2026-05-01T09:21:48.66Z</time></trkpt><trkpt lat="44.3213633" lon="10.9948283"><ele>817.0</ele><time>2026-05-01T09:21:49.661Z</time></trkpt><trkpt lat="44.3214383" lon="10.9948883"><ele>816.9999999999999</ele><time>2026-05-01T09:21:50.66Z</time></trkpt><trkpt lat="44.3215117" lon="10.9949367"><ele>817.0</ele><time>2026-05-01T09:21:51.659Z</time></trkpt><trkpt lat="44.3215767" lon="10.995"><ele>817.0</ele><time>2026-05-01T09:21:52.66Z</time></trkpt><trkpt lat="44.32164" lon="10.9950717"><ele>817.0</ele><time>2026-05-01T09:21:53.661Z</time></trkpt><trkpt lat="44.3216883" lon="10.9951433"><ele>816.9999999999999</ele><time>2026-05-01T09:21:54.659Z</time></trkpt><trkpt lat="44.3217367" lon="10.9952233"><ele>817.0</ele><time>2026-05-01T09:21:55.66Z</time></trkpt><trkpt lat="44.3217867" lon="10.9952867"><ele>816.9999999999999</ele><time>2026-05-01T09:21:56.661Z</time></trkpt><trkpt lat="44.321845" lon="10.9953217"><ele>817.0</ele><time>2026-05-01T09:21:57.661Z</time></trkpt><trkpt lat="44.3219383" lon="10.99533"><ele>817.0</ele><time>2026-05-01T09:21:59.659Z</time></trkpt><trkpt lat="44.3220067" lon="10.9952383"><ele>817.0</ele><time>2026-05-01T09:22:01.658Z</time></trkpt><trkpt lat="44.32203" lon="10.99515"><ele>816.9999999999999</ele><time>2026-05-01T09:22:02.658Z</time></trkpt><trkpt lat="44.3220367" lon="10.99504"><ele>817.0</ele><time>2026-05-01T09:22:03.659Z</time></trkpt><trkpt lat="44.3220417" lon="10.9949467"><ele>816.9999999999999</ele><time>2026-05-01T09:22:04.659Z</time></trkpt><trkpt lat="44.3220333" lon="10.9948117"><ele>817.0</ele><time>2026-05-01T09:22:06.659Z</time></trkpt><trkpt lat="44.3219867" lon="10.994725"><ele>817.0</ele><time>2026-05-01T09:22:18.658Z</time></trkpt><trkpt lat="44.32195" lon="10.99461"><ele>817.0</ele><time>2026-05-01T09:22:21.658Z</time></trkpt><trkpt lat="44.3218833" lon="10.9944917"><ele>816.9999999999999</ele><time>2026-05-01T09:22:23.659Z</time></trkpt><trkpt lat="44.321835" lon="10.9944267"><ele>817.0</ele><time>2026-05-01T09:22:24.659Z</time></trkpt><trkpt lat="44.3217833" lon="10.9943433"><ele>816.9999999999999</ele><time>2026-05-01T09:22:25.659Z</time></trkpt><trkpt lat="44.3217317" lon="10.9942567"><ele>817.0</ele><time>2026-05-01T09:22:26.659Z</time></trkpt><trkpt lat="44.321675" lon="10.994165"><ele>817.0</ele><time>2026-05-01T09:22:27.659Z</time></trkpt><trkpt lat="44.3216217" lon="10.9940833"><ele>817.0</ele><time>2026-05-01T09:22:28.659Z</time></trkpt><trkpt lat="44.3215633" lon="10.9939917"><ele>816.9999999999999</ele><time>2026-05-01T09:22:29.659Z</time></trkpt><trkpt lat="44.3214917" lon="10.9939167"><ele>817.0</ele><time>2026-05-01T09:22:30.658Z</time></trkpt><trkpt lat="44.321415" lon="10.9938417"><ele>813.8333333333333</ele><time>2026-05-01T09:22:31.657Z</time></trkpt><trkpt lat="44.3213383" lon="10.9938017"><ele>810.6666666666666</ele><time>2026-05-01T09:22:32.658Z</time></trkpt><trkpt lat="44.3212767" lon="10.9937683"><ele>807.5</ele><time>2026-05-01T09:22:33.658Z</time></trkpt><trkpt lat="44.3211833" lon="10.9936883"><ele>804.3333333333333</ele><time>2026-05-01T09:22:35.659Z</time></trkpt><trkpt lat="44.3211367" lon="10.9936283"><ele>801.1666666666666</ele><time>2026-05-01T09:22:36.658Z</time></trkpt><trkpt lat="44.321075" lon="10.9935733"><ele>798.0</ele><time>2026-05-01T09:22:37.659Z</time></trkpt><trkpt lat="44.3209667" lon="10.9935083"><ele>798.0</ele><time>2026-05-01T09:22:39.658Z</time></trkpt><trkpt lat="44.3209" lon="10.9934617"><ele>798.0</ele><time>2026-05-01T09:22:41.659Z</time></trkpt><trkpt lat="44.3207883" lon="10.9934033"><ele>798.0</ele><time>2026-05-01T09:22:55.657Z</time></trkpt><trkpt lat="44.3207017" lon="10.9934483"><ele>798.0</ele><time>2026-05-01T09:23:22.658Z</time></trkpt><trkpt lat="44.320765" lon="10.993465"><ele>798.0</ele><time>2026-05-01T09:23:44.66Z</time></trkpt><trkpt lat="44.3208517" lon="10.9934333"><ele>798.0</ele><time>2026-05-01T09:23:46.659Z</time></trkpt><trkpt lat="44.3209483" lon="10.9934483"><ele>798.0</ele><time>2026-05-01T09:23:48.661Z</time></trkpt><trkpt lat="44.3210683" lon="10.9935483"><ele>798.0</ele><time>2026-05-01T09:23:50.661Z</time></trkpt><trkpt lat="44.3211367" lon="10.9936083"><ele>798.0</ele><time>2026-05-01T09:23:51.66Z</time></trkpt><trkpt lat="44.3212083" lon="10.9936683"><ele>798.0</ele><time>2026-05-01T09:23:52.659Z</time></trkpt><trkpt lat="44.3212733" lon="10.9937167"><ele>798.0</ele><time>2026-05-01T09:23:53.661Z</time></trkpt><trkpt lat="44.321335" lon="10.9937567"><ele>798.0</ele><time>2026-05-01T09:23:54.662Z</time></trkpt><trkpt lat="44.32144" lon="10.9937983"><ele>798.4</ele><time>2026-05-01T09:23:56.659Z</time></trkpt><trkpt lat="44.3215367" lon="10.9938283"><ele>798.8</ele><time>2026-05-01T09:23:58.658Z</time></trkpt><trkpt lat="44.321615" lon="10.9937917"><ele>799.2</ele><time>2026-05-01T09:24:00.658Z</time></trkpt><trkpt lat="44.3216567" lon="10.9936883"><ele>799.6</ele><time>2026-05-01T09:24:02.66Z</time></trkpt><trkpt lat="44.32165" lon="10.99352"><ele>800.0</ele><time>2026-05-01T09:24:04.659Z</time></trkpt><trkpt lat="44.32161" lon="10.9933533"><ele>798.1666666666667</ele><time>2026-05-01T09:24:06.659Z</time></trkpt><trkpt lat="44.3215817" lon="10.993255"><ele>796.3333333333334</ele><time>2026-05-01T09:24:07.659Z</time></trkpt><trkpt lat="44.321555" lon="10.9931583"><ele>794.5</ele><time>2026-05-01T09:24:08.661Z</time></trkpt><trkpt lat="44.3215283" lon="10.99305"><ele>792.6666666666667</ele><time>2026-05-01T09:24:09.66Z</time></trkpt><trkpt lat="44.3215167" lon="10.9929367"><ele>790.8333333333334</ele><time>2026-05-01T09:24:10.659Z</time></trkpt><trkpt lat="44.321505" lon="10.9928283"><ele>789.0</ele><time>2026-05-01T09:24:11.66Z</time></trkpt><trkpt lat="44.321485" lon="10.9927117"><ele>789.0</ele><time>2026-05-01T09:24:12.66Z</time></trkpt><trkpt lat="44.3214733" lon="10.9926067"><ele>789.0</ele><time>2026-05-01T09:24:13.66Z</time></trkpt><trkpt lat="44.3214617" lon="10.9925017"><ele>789.0</ele><time>2026-05-01T09:24:14.662Z</time></trkpt><trkpt lat="44.3214533" lon="10.9923933"><ele>789.0</ele><time>2026-05-01T09:24:15.659Z</time></trkpt><trkpt lat="44.3214417" lon="10.9922783"><ele>789.0</ele><time>2026-05-01T09:24:16.659Z</time></trkpt><trkpt lat="44.32143" lon="10.9921683"><ele>789.0</ele><time>2026-05-01T09:24:17.66Z</time></trkpt><trkpt lat="44.3214283" lon="10.9920683"><ele>788.7142857142857</ele><time>2026-05-01T09:24:18.66Z</time></trkpt><trkpt lat="44.3214367" lon="10.991975"><ele>788.4285714285714</ele><time>2026-05-01T09:24:19.66Z</time></trkpt><trkpt lat="44.3214567" lon="10.9918883"><ele>788.1428571428571</ele><time>2026-05-01T09:24:20.66Z</time></trkpt><trkpt lat="44.321475" lon="10.9917967"><ele>787.8571428571429</ele><time>2026-05-01T09:24:21.659Z</time></trkpt><trkpt lat="44.3214933" lon="10.9917083"><ele>787.5714285714286</ele><time>2026-05-01T09:24:22.659Z</time></trkpt><trkpt lat="44.321505" lon="10.99162"><ele>787.2857142857142</ele><time>2026-05-01T09:24:23.661Z</time></trkpt><trkpt lat="44.321515" lon="10.9915317"><ele>787.0</ele><time>2026-05-01T09:24:24.661Z</time></trkpt><trkpt lat="44.32154" lon="10.9914467"><ele>785.0</ele><time>2026-05-01T09:24:25.66Z</time></trkpt><trkpt lat="44.321575" lon="10.991365"><ele>783.0</ele><time>2026-05-01T09:24:26.662Z</time></trkpt><trkpt lat="44.3216383" lon="10.9912283"><ele>781.0</ele><time>2026-05-01T09:24:28.66Z</time></trkpt><trkpt lat="44.3216967" lon="10.9911467"><ele>779.0</ele><time>2026-05-01T09:24:30.66Z</time></trkpt><trkpt lat="44.3217683" lon="10.9910733"><ele>777.0</ele><time>2026-05-01T09:24:32.662Z</time></trkpt><trkpt lat="44.3218517" lon="10.9910067"><ele>777.0</ele><time>2026-05-01T09:24:34.66Z</time></trkpt><trkpt lat="44.32193" lon="10.9909983"><ele>777.0</ele><time>2026-05-01T09:24:36.66Z</time></trkpt><trkpt lat="44.3219967" lon="10.99101"><ele>777.0</ele><time>2026-05-01T09:24:38.661Z</time></trkpt><trkpt lat="44.3220867" lon="10.9909733"><ele>777.0</ele><time>2026-05-01T09:24:40.659Z</time></trkpt><trkpt lat="44.3222067" lon="10.9909417"><ele>777.0</ele><time>2026-05-01T09:24:42.661Z</time></trkpt><trkpt lat="44.32231" lon="10.990935"><ele>773.8</ele><time>2026-05-01T09:24:44.66Z</time></trkpt><trkpt lat="44.3224" lon="10.9909683"><ele>770.6</ele><time>2026-05-01T09:24:46.66Z</time></trkpt><trkpt lat="44.3224883" lon="10.990995"><ele>767.4</ele><time>2026-05-01T09:24:48.66Z</time></trkpt><trkpt lat="44.3225833" lon="10.9910133"><ele>764.1999999999999</ele><time>2026-05-01T09:24:50.661Z</time></trkpt><trkpt lat="44.3226933" lon="10.9910317"><ele>761.0</ele><time>2026-05-01T09:24:52.659Z</time></trkpt><trkpt lat="44.322785" lon="10.9910667"><ele>761.0</ele><time>2026-05-01T09:24:54.661Z</time></trkpt><trkpt lat="44.3228767" lon="10.991065"><ele>761.0</ele><time>2026-05-01T09:24:56.661Z</time></trkpt><trkpt lat="44.3229567" lon="10.99106"><ele>761.0</ele><time>2026-05-01T09:24:58.66Z</time></trkpt><trkpt lat="44.3229917" lon="10.9911633"><ele>761.0</ele><time>2026-05-01T09:25:01.659Z</time></trkpt><trkpt lat="44.32298" lon="10.9912883"><ele>761.0</ele><time>2026-05-01T09:25:03.66Z</time></trkpt><trkpt lat="44.32301" lon="10.991395"><ele>761.0</ele><time>2026-05-01T09:25:05.66Z</time></trkpt><trkpt lat="44.3230733" lon="10.9914783"><ele>757.4</ele><time>2026-05-01T09:25:07.659Z</time></trkpt><trkpt lat="44.3231517" lon="10.9915583"><ele>753.8</ele><time>2026-05-01T09:25:09.66Z</time></trkpt><trkpt lat="44.3232383" lon="10.991635"><ele>750.1999999999999</ele><time>2026-05-01T09:25:11.659Z</time></trkpt><trkpt lat="44.3233167" lon="10.99169"><ele>746.5999999999999</ele><time>2026-05-01T09:25:13.659Z</time></trkpt><trkpt lat="44.3234017" lon="10.9917317"><ele>743.0</ele><time>2026-05-01T09:25:15.659Z</time></trkpt><trkpt lat="44.3235067" lon="10.9917467"><ele>743.0</ele><time>2026-05-01T09:25:17.659Z</time></trkpt><trkpt lat="44.3235733" lon="10.991755"><ele>743.0</ele><time>2026-05-01T09:25:18.659Z</time></trkpt><trkpt lat="44.3236483" lon="10.9917683"><ele>743.0</ele><time>2026-05-01T09:25:19.659Z</time></trkpt><trkpt lat="44.323725" lon="10.991775"><ele>743.0</ele><time>2026-05-01T09:25:20.661Z</time></trkpt><trkpt lat="44.32381" lon="10.99177"><ele>743.0</ele><time>2026-05-01T09:25:21.66Z</time></trkpt><trkpt lat="44.3238917" lon="10.9917517"><ele>743.0</ele><time>2026-05-01T09:25:22.659Z</time></trkpt><trkpt lat="44.3239633" lon="10.99173"><ele>739.8</ele><time>2026-05-01T09:25:23.658Z</time></trkpt><trkpt lat="44.3240283" lon="10.9917033"><ele>736.5999999999999</ele><time>2026-05-01T09:25:24.659Z</time></trkpt><trkpt lat="44.3241483" lon="10.9916783"><ele>733.4000000000001</ele><time>2026-05-01T09:25:26.66Z</time></trkpt><trkpt lat="44.3242717" lon="10.9916233"><ele>730.2</ele><time>2026-05-01T09:25:28.658Z</time></trkpt><trkpt lat="44.32434" lon="10.991585"><ele>727.0</ele><time>2026-05-01T09:25:29.658Z</time></trkpt><trkpt lat="44.3244083" lon="10.99156"><ele>725.6</ele><time>2026-05-01T09:25:30.659Z</time></trkpt><trkpt lat="44.3244767" lon="10.9915633"><ele>724.2</ele><time>2026-05-01T09:25:31.66Z</time></trkpt><trkpt lat="44.32454" lon="10.991585"><ele>722.8</ele><time>2026-05-01T09:25:32.66Z</time></trkpt><trkpt lat="44.3246483" lon="10.9915733"><ele>721.4</ele><time>2026-05-01T09:25:34.659Z</time></trkpt><trkpt lat="44.3246467" lon="10.9914367"><ele>720.0</ele><time>2026-05-01T09:25:36.661Z</time></trkpt><trkpt lat="44.3246333" lon="10.9912117"><ele>720.0</ele><time>2026-05-01T09:25:50.661Z</time></trkpt><trkpt lat="44.3246183" lon="10.9911183"><ele>720.0</ele><time>2026-05-01T09:25:51.658Z</time></trkpt><trkpt lat="44.3245933" lon="10.991"><ele>720.0</ele><time>2026-05-01T09:25:52.659Z</time></trkpt><trkpt lat="44.3245683" lon="10.9908883"><ele>720.0</ele><time>2026-05-01T09:25:53.657Z</time></trkpt><trkpt lat="44.324555" lon="10.99079"><ele>720.0</ele><time>2026-05-01T09:25:54.661Z</time></trkpt><trkpt lat="44.3245783" lon="10.99063"><ele>720.0</ele><time>2026-05-01T09:25:56.661Z</time></trkpt><trkpt lat="44.324635" lon="10.9904983"><ele>719.1666666666666</ele><time>2026-05-01T09:25:58.659Z</time></trkpt><trkpt lat="44.32468" lon="10.990375"><ele>718.3333333333334</ele><time>2026-05-01T09:26:00.659Z</time></trkpt><trkpt lat="44.3247217" lon="10.9902417"><ele>717.5</ele><time>2026-05-01T09:26:02.66Z</time></trkpt><trkpt lat="44.324745" lon="10.9901583"><ele>716.6666666666667</ele><time>2026-05-01T09:26:03.659Z</time></trkpt><trkpt lat="44.3247617" lon="10.99007"><ele>715.8333333333334</ele><time>2026-05-01T09:26:04.657Z</time></trkpt><trkpt lat="44.3247867" lon="10.9899117"><ele>715.0</ele><time>2026-05-01T09:26:06.659Z</time></trkpt><trkpt lat="44.324815" lon="10.9897833"><ele>710.8</ele><time>2026-05-01T09:26:08.66Z</time></trkpt><trkpt lat="44.3248167" lon="10.98969"><ele>706.6</ele><time>2026-05-01T09:26:10.659Z</time></trkpt><trkpt lat="44.3248017" lon="10.98954"><ele>702.4000000000001</ele><time>2026-05-01T09:26:12.659Z</time></trkpt><trkpt lat="44.3248017" lon="10.9893583"><ele>698.2</ele><time>2026-05-01T09:26:14.659Z</time></trkpt><trkpt lat="44.3248417" lon="10.989195"><ele>694.0</ele><time>2026-05-01T09:26:16.658Z</time></trkpt><trkpt lat="44.3248833" lon="10.98912"><ele>692.8333333333334</ele><time>2026-05-01T09:26:17.659Z</time></trkpt><trkpt lat="44.3249583" lon="10.9890417"><ele>691.6666666666667</ele><time>2026-05-01T09:26:18.658Z</time></trkpt><trkpt lat="44.3250217" lon="10.988965"><ele>690.5</ele><time>2026-05-01T09:26:19.659Z</time></trkpt><trkpt lat="44.325085" lon="10.988895"><ele>689.3333333333334</ele><time>2026-05-01T09:26:20.662Z</time></trkpt><trkpt lat="44.325155" lon="10.98884"><ele>688.1666666666666</ele><time>2026-05-01T09:26:21.658Z</time></trkpt><trkpt lat="44.3252267" lon="10.988805"><ele>687.0</ele><time>2026-05-01T09:26:22.656Z</time></trkpt><trkpt lat="44.3252883" lon="10.988825"><ele>687.0</ele><time>2026-05-01T09:26:23.66Z</time></trkpt><trkpt lat="44.3253483" lon="10.98887"><ele>687.0</ele><time>2026-05-01T09:26:24.659Z</time></trkpt><trkpt lat="44.3254017" lon="10.9889167"><ele>687.0</ele><time>2026-05-01T09:26:25.659Z</time></trkpt><trkpt lat="44.325455" lon="10.9889733"><ele>687.0</ele><time>2026-05-01T09:26:26.66Z</time></trkpt><trkpt lat="44.3254883" lon="10.98905"><ele>687.0</ele><time>2026-05-01T09:26:27.661Z</time></trkpt><trkpt lat="44.3255217" lon="10.989225"><ele>687.0</ele><time>2026-05-01T09:26:29.659Z</time></trkpt><trkpt lat="44.3255083" lon="10.98933"><ele>688.1666666666666</ele><time>2026-05-01T09:26:30.659Z</time></trkpt><trkpt lat="44.325505" lon="10.9894233"><ele>689.3333333333334</ele><time>2026-05-01T09:26:31.659Z</time></trkpt><trkpt lat="44.325515" lon="10.9895267"><ele>690.5</ele><time>2026-05-01T09:26:32.66Z</time></trkpt><trkpt lat="44.3255333" lon="10.9896233"><ele>691.6666666666667</ele><time>2026-05-01T09:26:33.659Z</time></trkpt><trkpt lat="44.3255833" lon="10.9897183"><ele>692.8333333333334</ele><time>2026-05-01T09:26:35.658Z</time></trkpt><trkpt lat="44.325645" lon="10.9896833"><ele>694.0</ele><time>2026-05-01T09:26:37.659Z</time></trkpt><trkpt lat="44.3256767" lon="10.9895317"><ele>691.5</ele><time>2026-05-01T09:26:39.66Z</time></trkpt><trkpt lat="44.3257117" lon="10.989455"><ele>689.0</ele><time>2026-05-01T09:26:40.659Z</time></trkpt><trkpt lat="44.3257583" lon="10.9893283"><ele>686.5</ele><time>2026-05-01T09:26:42.66Z</time></trkpt><trkpt lat="44.3257967" lon="10.9892483"><ele>684.0</ele><time>2026-05-01T09:26:44.657Z</time></trkpt><trkpt lat="44.325845" lon="10.9891667"><ele>681.5</ele><time>2026-05-01T09:26:47.66Z</time></trkpt><trkpt lat="44.325885" lon="10.9890783"><ele>679.0</ele><time>2026-05-01T09:26:50.661Z</time></trkpt><trkpt lat="44.3258433" lon="10.9889683"><ele>677.5</ele><time>2026-05-01T09:26:54.661Z</time></trkpt><trkpt lat="44.3257983" lon="10.9889"><ele>676.0</ele><time>2026-05-01T09:26:56.659Z</time></trkpt><trkpt lat="44.325755" lon="10.988795"><ele>674.5</ele><time>2026-05-01T09:26:58.659Z</time></trkpt><trkpt lat="44.3257" lon="10.9886617"><ele>673.0</ele><time>2026-05-01T09:27:00.659Z</time></trkpt><trkpt lat="44.3256717" lon="10.9885817"><ele>671.5</ele><time>2026-05-01T09:27:01.66Z</time></trkpt><trkpt lat="44.3256383" lon="10.9885"><ele>670.0</ele><time>2026-05-01T09:27:02.661Z</time></trkpt><trkpt lat="44.3256133" lon="10.9884167"><ele>669.1666666666667</ele><time>2026-05-01T09:27:03.658Z</time></trkpt><trkpt lat="44.3255783" lon="10.9883367"><ele>668.3333333333334</ele><time>2026-05-01T09:27:04.659Z</time></trkpt><trkpt lat="44.3255433" lon="10.9882617"><ele>667.5</ele><time>2026-05-01T09:27:05.66Z</time></trkpt><trkpt lat="44.3255133" lon="10.9881433"><ele>666.6666666666666</ele><time>2026-05-01T09:27:07.66Z</time></trkpt><trkpt lat="44.3255983" lon="10.98807"><ele>665.8333333333333</ele><time>2026-05-01T09:27:11.658Z</time></trkpt><trkpt lat="44.3256683" lon="10.988005"><ele>665.0</ele><time>2026-05-01T09:27:13.658Z</time></trkpt><trkpt lat="44.3256883" lon="10.9878833"><ele>665.0</ele><time>2026-05-01T09:27:15.66Z</time></trkpt><trkpt lat="44.3256733" lon="10.9877233"><ele>665.0</ele><time>2026-05-01T09:27:17.658Z</time></trkpt><trkpt lat="44.3256583" lon="10.9876283"><ele>665.0</ele><time>2026-05-01T09:27:18.657Z</time></trkpt><trkpt lat="44.3256617" lon="10.98751"><ele>665.0</ele><time>2026-05-01T09:27:19.66Z</time></trkpt><trkpt lat="44.3256767" lon="10.9873783"><ele>665.0</ele><time>2026-05-01T09:27:20.66Z</time></trkpt><trkpt lat="44.3256867" lon="10.9872483"><ele>664.4</ele><time>2026-05-01T09:27:21.658Z</time></trkpt><trkpt lat="44.3257183" lon="10.987145"><ele>663.8</ele><time>2026-05-01T09:27:22.658Z</time></trkpt><trkpt lat="44.32576" lon="10.9870467"><ele>663.2</ele><time>2026-05-01T09:27:23.658Z</time></trkpt><trkpt lat="44.3258117" lon="10.9869383"><ele>662.6</ele><time>2026-05-01T09:27:24.659Z</time></trkpt><trkpt lat="44.3258783" lon="10.9868167"><ele>662.0</ele><time>2026-05-01T09:27:25.658Z</time></trkpt><trkpt lat="44.32597" lon="10.9867183"><ele>661.6666666666666</ele><time>2026-05-01T09:27:26.659Z</time></trkpt><trkpt lat="44.3260533" lon="10.9866367"><ele>661.3333333333333</ele><time>2026-05-01T09:27:27.659Z</time></trkpt><trkpt lat="44.32612" lon="10.9865517"><ele>661.0</ele><time>2026-05-01T09:27:28.658Z</time></trkpt><trkpt lat="44.32619" lon="10.9864667"><ele>660.6666666666666</ele><time>2026-05-01T09:27:29.659Z</time></trkpt><trkpt lat="44.326245" lon="10.9863783"><ele>660.3333333333334</ele><time>2026-05-01T09:27:30.659Z</time></trkpt><trkpt lat="44.3262867" lon="10.9862883"><ele>660.0</ele><time>2026-05-01T09:27:31.659Z</time></trkpt><trkpt lat="44.3263433" lon="10.9862083"><ele>662.8</ele><time>2026-05-01T09:27:32.659Z</time></trkpt><trkpt lat="44.326405" lon="10.9861283"><ele>665.6</ele><time>2026-05-01T09:27:33.659Z</time></trkpt><trkpt lat="44.3264533" lon="10.9860567"><ele>668.4000000000001</ele><time>2026-05-01T09:27:34.657Z</time></trkpt><trkpt lat="44.3265067" lon="10.9859167"><ele>671.2</ele><time>2026-05-01T09:27:36.658Z</time></trkpt><trkpt lat="44.3265383" lon="10.98584"><ele>674.0</ele><time>2026-05-01T09:27:37.657Z</time></trkpt><trkpt lat="44.326605" lon="10.9856817"><ele>674.0</ele><time>2026-05-01T09:27:39.66Z</time></trkpt><trkpt lat="44.3266617" lon="10.985595"><ele>674.0</ele><time>2026-05-01T09:27:40.66Z</time></trkpt><trkpt lat="44.3267233" lon="10.9855117"><ele>674.0</ele><time>2026-05-01T09:27:41.66Z</time></trkpt><trkpt lat="44.3267867" lon="10.9854233"><ele>674.0</ele><time>2026-05-01T09:27:42.66Z</time></trkpt><trkpt lat="44.32685" lon="10.9853283"><ele>674.0</ele><time>2026-05-01T09:27:43.657Z</time></trkpt><trkpt lat="44.32691" lon="10.9852367"><ele>674.0</ele><time>2026-05-01T09:27:44.661Z</time></trkpt><trkpt lat="44.3269733" lon="10.985145"><ele>674.0</ele><time>2026-05-01T09:27:45.658Z</time></trkpt><trkpt lat="44.32704" lon="10.9850517"><ele>674.0</ele><time>2026-05-01T09:27:46.658Z</time></trkpt><trkpt lat="44.3271183" lon="10.9849617"><ele>674.0</ele><time>2026-05-01T09:27:47.658Z</time></trkpt><trkpt lat="44.3272" lon="10.9848967"><ele>674.0</ele><time>2026-05-01T09:27:48.66Z</time></trkpt><trkpt lat="44.3272883" lon="10.9848417"><ele>674.0</ele><time>2026-05-01T09:27:49.66Z</time></trkpt><trkpt lat="44.3273667" lon="10.9847817"><ele>677.4000000000001</ele><time>2026-05-01T09:27:50.66Z</time></trkpt><trkpt lat="44.3274367" lon="10.9846983"><ele>680.8</ele><time>2026-05-01T09:27:51.658Z</time></trkpt><trkpt lat="44.3274933" lon="10.9846017"><ele>684.2</ele><time>2026-05-01T09:27:52.66Z</time></trkpt><trkpt lat="44.32756" lon="10.9845083"><ele>687.5999999999999</ele><time>2026-05-01T09:27:53.66Z</time></trkpt><trkpt lat="44.3276383" lon="10.9844233"><ele>691.0</ele><time>2026-05-01T09:27:54.661Z</time></trkpt><trkpt lat="44.32772" lon="10.984335"><ele>691.0</ele><time>2026-05-01T09:27:55.662Z</time></trkpt><trkpt lat="44.3277883" lon="10.9842567"><ele>691.0</ele><time>2026-05-01T09:27:56.659Z</time></trkpt><trkpt lat="44.3278467" lon="10.984185"><ele>691.0</ele><time>2026-05-01T09:27:57.66Z</time></trkpt><trkpt lat="44.32791" lon="10.9841233"><ele>691.0</ele><time>2026-05-01T09:27:58.658Z</time></trkpt><trkpt lat="44.327975" lon="10.98407"><ele>691.0</ele><time>2026-05-01T09:27:59.66Z</time></trkpt><trkpt lat="44.3280417" lon="10.9840283"><ele>691.0</ele><time>2026-05-01T09:28:00.661Z</time></trkpt><trkpt lat="44.3281217" lon="10.983995"><ele>689.8</ele><time>2026-05-01T09:28:02.661Z</time></trkpt><trkpt lat="44.328115" lon="10.98386"><ele>688.5999999999999</ele><time>2026-05-01T09:29:29.661Z</time></trkpt><trkpt lat="44.3280167" lon="10.9837567"><ele>687.4</ele><time>2026-05-01T09:29:31.66Z</time></trkpt><trkpt lat="44.3279533" lon="10.9836983"><ele>686.2</ele><time>2026-05-01T09:29:32.659Z</time></trkpt><trkpt lat="44.32789" lon="10.9836283"><ele>685.0</ele><time>2026-05-01T09:29:33.659Z</time></trkpt><trkpt lat="44.3278283" lon="10.983545"><ele>685.0</ele><time>2026-05-01T09:29:34.658Z</time></trkpt><trkpt lat="44.3277833" lon="10.9834633"><ele>685.0</ele><time>2026-05-01T09:29:35.659Z</time></trkpt><trkpt lat="44.32774" lon="10.9833817"><ele>685.0</ele><time>2026-05-01T09:29:36.667Z</time></trkpt><trkpt lat="44.327705" lon="10.98329"><ele>685.0</ele><time>2026-05-01T09:29:37.659Z</time></trkpt><trkpt lat="44.3276683" lon="10.98321"><ele>685.0</ele><time>2026-05-01T09:29:38.662Z</time></trkpt><trkpt lat="44.3276217" lon="10.9831433"><ele>685.0</ele><time>2026-05-01T09:29:39.659Z</time></trkpt><trkpt lat="44.3275133" lon="10.98307"><ele>686.3333333333334</ele><time>2026-05-01T09:29:41.66Z</time></trkpt><trkpt lat="44.327385" lon="10.9830567"><ele>687.6666666666667</ele><time>2026-05-01T09:29:43.659Z</time></trkpt><trkpt lat="44.3273083" lon="10.9830483"><ele>689.0</ele><time>2026-05-01T09:29:44.66Z</time></trkpt><trkpt lat="44.3272383" lon="10.9830217"><ele>690.3333333333334</ele><time>2026-05-01T09:29:45.66Z</time></trkpt><trkpt lat="44.3271617" lon="10.9829683"><ele>691.6666666666666</ele><time>2026-05-01T09:29:46.66Z</time></trkpt><trkpt lat="44.32709" lon="10.98291"><ele>693.0</ele><time>2026-05-01T09:29:47.66Z</time></trkpt><trkpt lat="44.32703" lon="10.9828517"><ele>693.0</ele><time>2026-05-01T09:29:48.66Z</time></trkpt><trkpt lat="44.3269733" lon="10.982805"><ele>693.0</ele><time>2026-05-01T09:29:49.659Z</time></trkpt><trkpt lat="44.32686" lon="10.9827183"><ele>693.0</ele><time>2026-05-01T09:29:51.662Z</time></trkpt><trkpt lat="44.3268033" lon="10.982665"><ele>693.0</ele><time>2026-05-01T09:29:52.661Z</time></trkpt><trkpt lat="44.32675" lon="10.9826033"><ele>693.0</ele><time>2026-05-01T09:29:53.659Z</time></trkpt><trkpt lat="44.3267017" lon="10.982535"><ele>693.0</ele><time>2026-05-01T09:29:54.662Z</time></trkpt><trkpt lat="44.3266633" lon="10.9824583"><ele>694.4285714285714</ele><time>2026-05-01T09:29:55.661Z</time></trkpt><trkpt lat="44.3266317" lon="10.9823817"><ele>695.8571428571429</ele><time>2026-05-01T09:29:56.662Z</time></trkpt><trkpt lat="44.3266083" lon="10.9822917"><ele>697.2857142857142</ele><time>2026-05-01T09:29:57.662Z</time></trkpt><trkpt lat="44.3265983" lon="10.982175"><ele>698.7142857142858</ele><time>2026-05-01T09:29:58.661Z</time></trkpt><trkpt lat="44.3265967" lon="10.9820617"><ele>700.1428571428571</ele><time>2026-05-01T09:29:59.66Z</time></trkpt><trkpt lat="44.3265933" lon="10.9819683"><ele>701.5714285714286</ele><time>2026-05-01T09:30:00.66Z</time></trkpt><trkpt lat="44.3265667" lon="10.9818883"><ele>703.0</ele><time>2026-05-01T09:30:01.66Z</time></trkpt><trkpt lat="44.3264883" lon="10.9817767"><ele>703.0</ele><time>2026-05-01T09:30:03.662Z</time></trkpt><trkpt lat="44.3264433" lon="10.98169"><ele>703.0</ele><time>2026-05-01T09:30:05.662Z</time></trkpt><trkpt lat="44.326395" lon="10.9815617"><ele>703.0</ele><time>2026-05-01T09:30:07.662Z</time></trkpt><trkpt lat="44.3263617" lon="10.9814717"><ele>703.0</ele><time>2026-05-01T09:30:08.663Z</time></trkpt><trkpt lat="44.3263317" lon="10.9813867"><ele>703.0</ele><time>2026-05-01T09:30:09.662Z</time></trkpt><trkpt lat="44.3262817" lon="10.98125"><ele>703.0</ele><time>2026-05-01T09:30:11.66Z</time></trkpt><trkpt lat="44.3262167" lon="10.9811"><ele>702.5714285714286</ele><time>2026-05-01T09:30:13.659Z</time></trkpt><trkpt lat="44.3261883" lon="10.981005"><ele>702.1428571428571</ele><time>2026-05-01T09:30:14.655Z</time></trkpt><trkpt lat="44.326165" lon="10.980905"><ele>701.7142857142858</ele><time>2026-05-01T09:30:15.658Z</time></trkpt><trkpt lat="44.3261467" lon="10.98081"><ele>701.2857142857142</ele><time>2026-05-01T09:30:16.658Z</time></trkpt><trkpt lat="44.3261283" lon="10.9807183"><ele>700.8571428571429</ele><time>2026-05-01T09:30:17.66Z</time></trkpt><trkpt lat="44.3261117" lon="10.9806317"><ele>700.4285714285714</ele><time>2026-05-01T09:30:18.658Z</time></trkpt><trkpt lat="44.3260983" lon="10.9805033"><ele>700.0</ele><time>2026-05-01T09:30:20.661Z</time></trkpt><trkpt lat="44.32611" lon="10.980405"><ele>700.0</ele><time>2026-05-01T09:30:25.661Z</time></trkpt><trkpt lat="44.3261283" lon="10.9802933"><ele>700.0</ele><time>2026-05-01T09:30:27.661Z</time></trkpt><trkpt lat="44.32616" lon="10.9801117"><ele>700.0</ele><time>2026-05-01T09:30:29.662Z</time></trkpt><trkpt lat="44.326185" lon="10.9800067"><ele>700.0</ele><time>2026-05-01T09:30:30.66Z</time></trkpt><trkpt lat="44.32621" lon="10.9799017"><ele>700.0</ele><time>2026-05-01T09:30:31.66Z</time></trkpt><trkpt lat="44.3262333" lon="10.97979"><ele>700.2</ele><time>2026-05-01T09:30:32.661Z</time></trkpt><trkpt lat="44.326255" lon="10.97967"><ele>700.4</ele><time>2026-05-01T09:30:33.66Z</time></trkpt><trkpt lat="44.3262633" lon="10.979545"><ele>700.5999999999999</ele><time>2026-05-01T09:30:34.66Z</time></trkpt><trkpt lat="44.3262667" lon="10.97942"><ele>700.8</ele><time>2026-05-01T09:30:35.66Z</time></trkpt><trkpt lat="44.3262717" lon="10.97929"><ele>701.0</ele><time>2026-05-01T09:30:36.661Z</time></trkpt><trkpt lat="44.3262683" lon="10.979155"><ele>699.6666666666666</ele><time>2026-05-01T09:30:37.66Z</time></trkpt><trkpt lat="44.3262567" lon="10.9790383"><ele>698.3333333333333</ele><time>2026-05-01T09:30:38.66Z</time></trkpt><trkpt lat="44.326245" lon="10.978935"><ele>697.0</ele><time>2026-05-01T09:30:39.659Z</time></trkpt><trkpt lat="44.3262467" lon="10.9787617"><ele>695.6666666666666</ele><time>2026-05-01T09:30:41.66Z</time></trkpt><trkpt lat="44.3262583" lon="10.978675"><ele>694.3333333333334</ele><time>2026-05-01T09:30:42.661Z</time></trkpt><trkpt lat="44.32629" lon="10.9785867"><ele>693.0</ele><time>2026-05-01T09:30:43.659Z</time></trkpt><trkpt lat="44.326325" lon="10.9784883"><ele>693.0</ele><time>2026-05-01T09:30:44.66Z</time></trkpt><trkpt lat="44.3263717" lon="10.97837"><ele>693.0</ele><time>2026-05-01T09:30:45.661Z</time></trkpt><trkpt lat="44.32642" lon="10.9782583"><ele>693.0</ele><time>2026-05-01T09:30:46.66Z</time></trkpt><trkpt lat="44.3264583" lon="10.9781417"><ele>693.0</ele><time>2026-05-01T09:30:47.659Z</time></trkpt><trkpt lat="44.3264733" lon="10.97803"><ele>693.0</ele><time>2026-05-01T09:30:48.661Z</time></trkpt><trkpt lat="44.3264833" lon="10.977895"><ele>693.8333333333334</ele><time>2026-05-01T09:30:49.661Z</time></trkpt><trkpt lat="44.326475" lon="10.977765"><ele>694.6666666666666</ele><time>2026-05-01T09:30:50.662Z</time></trkpt><trkpt lat="44.3264683" lon="10.97763"><ele>695.5</ele><time>2026-05-01T09:30:51.661Z</time></trkpt><trkpt lat="44.326465" lon="10.977505"><ele>696.3333333333333</ele><time>2026-05-01T09:30:52.661Z</time></trkpt><trkpt lat="44.3264533" lon="10.9774017"><ele>697.1666666666666</ele><time>2026-05-01T09:30:53.661Z</time></trkpt><trkpt lat="44.3264333" lon="10.9773083"><ele>698.0</ele><time>2026-05-01T09:30:54.662Z</time></trkpt><trkpt lat="44.3264183" lon="10.97721"><ele>698.6666666666666</ele><time>2026-05-01T09:30:55.661Z</time></trkpt><trkpt lat="44.3264067" lon="10.9771067"><ele>699.3333333333333</ele><time>2026-05-01T09:30:56.662Z</time></trkpt><trkpt lat="44.3263867" lon="10.9770017"><ele>700.0</ele><time>2026-05-01T09:30:57.662Z</time></trkpt><trkpt lat="44.3263717" lon="10.9769117"><ele>700.6666666666666</ele><time>2026-05-01T09:30:58.661Z</time></trkpt><trkpt lat="44.3263183" lon="10.97685"><ele>701.3333333333334</ele><time>2026-05-01T09:31:00.671Z</time></trkpt><trkpt lat="44.3262133" lon="10.97683"><ele>702.0</ele><time>2026-05-01T09:31:02.662Z</time></trkpt><trkpt lat="44.3261467" lon="10.9768483"><ele>697.6</ele><time>2026-05-01T09:31:03.66Z</time></trkpt><trkpt lat="44.3260333" lon="10.9768983"><ele>693.2</ele><time>2026-05-01T09:31:05.662Z</time></trkpt><trkpt lat="44.325945" lon="10.9769183"><ele>688.8</ele><time>2026-05-01T09:31:07.66Z</time></trkpt><trkpt lat="44.3258917" lon="10.9770367"><ele>684.4</ele><time>2026-05-01T09:31:10.66Z</time></trkpt><trkpt lat="44.3258583" lon="10.97717"><ele>680.0</ele><time>2026-05-01T09:31:12.66Z</time></trkpt><trkpt lat="44.325785" lon="10.977255"><ele>680.0</ele><time>2026-05-01T09:31:14.662Z</time></trkpt><trkpt lat="44.3257283" lon="10.977335"><ele>680.0</ele><time>2026-05-01T09:31:16.661Z</time></trkpt><trkpt lat="44.32564" lon="10.977375"><ele>680.0</ele><time>2026-05-01T09:31:19.661Z</time></trkpt><trkpt lat="44.325535" lon="10.9772967"><ele>680.0</ele><time>2026-05-01T09:31:21.661Z</time></trkpt><trkpt lat="44.32548" lon="10.9772383"><ele>680.0</ele><time>2026-05-01T09:31:22.661Z</time></trkpt><trkpt lat="44.3254367" lon="10.9771633"><ele>680.0</ele><time>2026-05-01T09:31:23.663Z</time></trkpt><trkpt lat="44.325395" lon="10.97709"><ele>676.0</ele><time>2026-05-01T09:31:24.661Z</time></trkpt><trkpt lat="44.3253533" lon="10.9769983"><ele>672.0</ele><time>2026-05-01T09:31:25.662Z</time></trkpt><trkpt lat="44.3253167" lon="10.9769133"><ele>668.0</ele><time>2026-05-01T09:31:26.661Z</time></trkpt><trkpt lat="44.3252417" lon="10.9768033"><ele>664.0</ele><time>2026-05-01T09:31:28.658Z</time></trkpt><trkpt lat="44.3252167" lon="10.9767"><ele>660.0</ele><time>2026-05-01T09:31:30.658Z</time></trkpt><trkpt lat="44.3252167" lon="10.9765367"><ele>658.1666666666666</ele><time>2026-05-01T09:31:32.659Z</time></trkpt><trkpt lat="44.3252167" lon="10.9764317"><ele>656.3333333333334</ele><time>2026-05-01T09:31:33.659Z</time></trkpt><trkpt lat="44.32522" lon="10.9763267"><ele>654.5</ele><time>2026-05-01T09:31:34.659Z</time></trkpt><trkpt lat="44.3252333" lon="10.9762217"><ele>652.6666666666667</ele><time>2026-05-01T09:31:35.662Z</time></trkpt><trkpt lat="44.3252417" lon="10.97612"><ele>650.8333333333334</ele><time>2026-05-01T09:31:36.66Z</time></trkpt><trkpt lat="44.3252517" lon="10.9760117"><ele>649.0</ele><time>2026-05-01T09:31:37.659Z</time></trkpt><trkpt lat="44.3252617" lon="10.975905"><ele>648.1666666666667</ele><time>2026-05-01T09:31:38.659Z</time></trkpt><trkpt lat="44.32527" lon="10.9757883"><ele>647.3333333333334</ele><time>2026-05-01T09:31:39.66Z</time></trkpt><trkpt lat="44.3252783" lon="10.9756783"><ele>646.5</ele><time>2026-05-01T09:31:40.657Z</time></trkpt><trkpt lat="44.3252867" lon="10.9755633"><ele>645.6666666666666</ele><time>2026-05-01T09:31:41.658Z</time></trkpt><trkpt lat="44.32528" lon="10.9754517"><ele>644.8333333333333</ele><time>2026-05-01T09:31:42.658Z</time></trkpt><trkpt lat="44.3252533" lon="10.9753433"><ele>644.0</ele><time>2026-05-01T09:31:43.658Z</time></trkpt><trkpt lat="44.32521" lon="10.97524"><ele>644.0</ele><time>2026-05-01T09:31:44.658Z</time></trkpt><trkpt lat="44.3251583" lon="10.9751533"><ele>644.0</ele><time>2026-05-01T09:31:45.658Z</time></trkpt><trkpt lat="44.3251083" lon="10.975065"><ele>644.0</ele><time>2026-05-01T09:31:46.66Z</time></trkpt><trkpt lat="44.3250417" lon="10.97498"><ele>644.0</ele><time>2026-05-01T09:31:47.659Z</time></trkpt><trkpt lat="44.32498" lon="10.9749017"><ele>644.0</ele><time>2026-05-01T09:31:48.658Z</time></trkpt><trkpt lat="44.3249233" lon="10.97482"><ele>644.0</ele><time>2026-05-01T09:31:49.659Z</time></trkpt><trkpt lat="44.3248667" lon="10.9747333"><ele>645.6</ele><time>2026-05-01T09:31:50.66Z</time></trkpt><trkpt lat="44.3248133" lon="10.9746517"><ele>647.2</ele><time>2026-05-01T09:31:51.66Z</time></trkpt><trkpt lat="44.3247683" lon="10.9745733"><ele>648.8000000000001</ele><time>2026-05-01T09:31:52.66Z</time></trkpt><trkpt lat="44.3246967" lon="10.974445"><ele>650.4000000000001</ele><time>2026-05-01T09:31:54.659Z</time></trkpt><trkpt lat="44.32465" lon="10.9743033"><ele>652.0</ele><time>2026-05-01T09:31:56.661Z</time></trkpt><trkpt lat="44.32463" lon="10.9742067"><ele>648.6666666666667</ele><time>2026-05-01T09:31:58.658Z</time></trkpt><trkpt lat="44.324645" lon="10.9741183"><ele>645.3333333333334</ele><time>2026-05-01T09:32:00.659Z</time></trkpt><trkpt lat="44.3246417" lon="10.974005"><ele>642.0</ele><time>2026-05-01T09:32:02.66Z</time></trkpt><trkpt lat="44.3245967" lon="10.9738967"><ele>638.6666666666666</ele><time>2026-05-01T09:32:04.661Z</time></trkpt><trkpt lat="44.3245417" lon="10.9737717"><ele>635.3333333333333</ele><time>2026-05-01T09:32:06.659Z</time></trkpt><trkpt lat="44.32453" lon="10.9736317"><ele>632.0</ele><time>2026-05-01T09:32:08.658Z</time></trkpt><trkpt lat="44.324555" lon="10.9734733"><ele>632.0000000000001</ele><time>2026-05-01T09:32:10.659Z</time></trkpt><trkpt lat="44.3245733" lon="10.9733883"><ele>632.0</ele><time>2026-05-01T09:32:11.659Z</time></trkpt><trkpt lat="44.324585" lon="10.9733017"><ele>632.0</ele><time>2026-05-01T09:32:12.66Z</time></trkpt><trkpt lat="44.324585" lon="10.97321"><ele>632.0</ele><time>2026-05-01T09:32:13.659Z</time></trkpt><trkpt lat="44.3245917" lon="10.9731217"><ele>632.0</ele><time>2026-05-01T09:32:14.661Z</time></trkpt><trkpt lat="44.324595" lon="10.9730317"><ele>632.0000000000001</ele><time>2026-05-01T09:32:15.66Z</time></trkpt><trkpt lat="44.3246083" lon="10.97287"><ele>632.0</ele><time>2026-05-01T09:32:17.66Z</time></trkpt><trkpt lat="44.324605" lon="10.9727483"><ele>634.5</ele><time>2026-05-01T09:32:19.659Z</time></trkpt><trkpt lat="44.32465" lon="10.97265"><ele>637.0</ele><time>2026-05-01T09:32:21.659Z</time></trkpt><trkpt lat="44.3247183" lon="10.97256"><ele>639.5</ele><time>2026-05-01T09:32:23.659Z</time></trkpt><trkpt lat="44.3247783" lon="10.9725267"><ele>642.0</ele><time>2026-05-01T09:32:24.66Z</time></trkpt><trkpt lat="44.3248417" lon="10.9724917"><ele>644.5</ele><time>2026-05-01T09:32:25.656Z</time></trkpt><trkpt lat="44.324905" lon="10.9724483"><ele>647.0</ele><time>2026-05-01T09:32:26.659Z</time></trkpt><trkpt lat="44.324965" lon="10.9723983"><ele>649.5</ele><time>2026-05-01T09:32:27.66Z</time></trkpt><trkpt lat="44.3250683" lon="10.9723017"><ele>652.0</ele><time>2026-05-01T09:32:29.66Z</time></trkpt><trkpt lat="44.3251233" lon="10.972245"><ele>654.5</ele><time>2026-05-01T09:32:30.66Z</time></trkpt><trkpt lat="44.3251883" lon="10.97219"><ele>657.0</ele><time>2026-05-01T09:32:31.66Z</time></trkpt><trkpt lat="44.3252583" lon="10.9721333"><ele>659.5</ele><time>2026-05-01T09:32:32.656Z</time></trkpt><trkpt lat="44.3253233" lon="10.9720683"><ele>662.0</ele><time>2026-05-01T09:32:33.659Z</time></trkpt><trkpt lat="44.32538" lon="10.9719867"><ele>662.0</ele><time>2026-05-01T09:32:34.658Z</time></trkpt><trkpt lat="44.3254317" lon="10.97188"><ele>662.0</ele><time>2026-05-01T09:32:35.66Z</time></trkpt><trkpt lat="44.3254717" lon="10.9717683"><ele>662.0</ele><time>2026-05-01T09:32:36.66Z</time></trkpt><trkpt lat="44.3255067" lon="10.971655"><ele>662.0</ele><time>2026-05-01T09:32:37.66Z</time></trkpt><trkpt lat="44.32554" lon="10.9715367"><ele>662.0</ele><time>2026-05-01T09:32:38.66Z</time></trkpt><trkpt lat="44.3255617" lon="10.9714083"><ele>664.0</ele><time>2026-05-01T09:32:39.66Z</time></trkpt><trkpt lat="44.3255767" lon="10.9712733"><ele>666.0</ele><time>2026-05-01T09:32:40.659Z</time></trkpt><trkpt lat="44.32558" lon="10.9711433"><ele>668.0</ele><time>2026-05-01T09:32:41.66Z</time></trkpt><trkpt lat="44.32558" lon="10.9710183"><ele>670.0</ele><time>2026-05-01T09:32:42.661Z</time></trkpt><trkpt lat="44.3255767" lon="10.9708933"><ele>672.0</ele><time>2026-05-01T09:32:43.659Z</time></trkpt><trkpt lat="44.3255767" lon="10.97077"><ele>672.0</ele><time>2026-05-01T09:32:44.659Z</time></trkpt><trkpt lat="44.3255717" lon="10.9706517"><ele>672.0</ele><time>2026-05-01T09:32:45.659Z</time></trkpt><trkpt lat="44.3255617" lon="10.970545"><ele>672.0</ele><time>2026-05-01T09:32:46.659Z</time></trkpt><trkpt lat="44.3255467" lon="10.9704567"><ele>672.0</ele><time>2026-05-01T09:32:47.659Z</time></trkpt><trkpt lat="44.3255817" lon="10.970305"><ele>672.0</ele><time>2026-05-01T09:32:49.661Z</time></trkpt><trkpt lat="44.3256283" lon="10.9702333"><ele>672.0</ele><time>2026-05-01T09:32:50.661Z</time></trkpt><trkpt lat="44.3256867" lon="10.970175"><ele>672.3333333333334</ele><time>2026-05-01T09:32:51.66Z</time></trkpt><trkpt lat="44.3257583" lon="10.97012"><ele>672.6666666666666</ele><time>2026-05-01T09:32:52.659Z</time></trkpt><trkpt lat="44.325845" lon="10.9700683"><ele>673.0</ele><time>2026-05-01T09:32:53.659Z</time></trkpt><trkpt lat="44.3259267" lon="10.970015"><ele>673.3333333333333</ele><time>2026-05-01T09:32:54.66Z</time></trkpt><trkpt lat="44.3259983" lon="10.9699583"><ele>673.6666666666666</ele><time>2026-05-01T09:32:55.661Z</time></trkpt><trkpt lat="44.3260667" lon="10.9699"><ele>674.0</ele><time>2026-05-01T09:32:56.66Z</time></trkpt><trkpt lat="44.3261217" lon="10.9698467"><ele>674.5</ele><time>2026-05-01T09:32:57.66Z</time></trkpt><trkpt lat="44.3262083" lon="10.9697433"><ele>675.0</ele><time>2026-05-01T09:32:59.659Z</time></trkpt><trkpt lat="44.3262483" lon="10.9696717"><ele>675.5</ele><time>2026-05-01T09:33:00.661Z</time></trkpt><trkpt lat="44.326285" lon="10.9695817"><ele>676.0</ele><time>2026-05-01T09:33:01.658Z</time></trkpt><trkpt lat="44.3263183" lon="10.9694633"><ele>676.5</ele><time>2026-05-01T09:33:02.659Z</time></trkpt><trkpt lat="44.3263517" lon="10.9693467"><ele>677.0</ele><time>2026-05-01T09:33:03.659Z</time></trkpt><trkpt lat="44.3263767" lon="10.96923"><ele>676.8</ele><time>2026-05-01T09:33:04.657Z</time></trkpt><trkpt lat="44.3263967" lon="10.9691017"><ele>676.6</ele><time>2026-05-01T09:33:05.659Z</time></trkpt><trkpt lat="44.326405" lon="10.9689633"><ele>676.4</ele><time>2026-05-01T09:33:06.659Z</time></trkpt><trkpt lat="44.3264017" lon="10.96882"><ele>676.1999999999999</ele><time>2026-05-01T09:33:07.658Z</time></trkpt><trkpt lat="44.326395" lon="10.9686667"><ele>676.0</ele><time>2026-05-01T09:33:08.661Z</time></trkpt><trkpt lat="44.3263833" lon="10.9685167"><ele>676.0</ele><time>2026-05-01T09:33:09.661Z</time></trkpt><trkpt lat="44.32636" lon="10.9683717"><ele>676.0</ele><time>2026-05-01T09:33:10.66Z</time></trkpt><trkpt lat="44.3263267" lon="10.96823"><ele>676.0</ele><time>2026-05-01T09:33:11.659Z</time></trkpt><trkpt lat="44.32628" lon="10.968105"><ele>676.0</ele><time>2026-05-01T09:33:12.66Z</time></trkpt><trkpt lat="44.3262367" lon="10.9679933"><ele>676.0</ele><time>2026-05-01T09:33:13.659Z</time></trkpt><trkpt lat="44.326195" lon="10.9678683"><ele>675.25</ele><time>2026-05-01T09:33:14.66Z</time></trkpt><trkpt lat="44.3261617" lon="10.967725"><ele>674.5</ele><time>2026-05-01T09:33:15.658Z</time></trkpt><trkpt lat="44.3261433" lon="10.9675633"><ele>673.75</ele><time>2026-05-01T09:33:16.659Z</time></trkpt><trkpt lat="44.3261483" lon="10.9673867"><ele>673.0</ele><time>2026-05-01T09:33:17.661Z</time></trkpt><trkpt lat="44.3261733" lon="10.9672017"><ele>672.5</ele><time>2026-05-01T09:33:18.66Z</time></trkpt><trkpt lat="44.3262117" lon="10.9670167"><ele>672.0</ele><time>2026-05-01T09:33:19.66Z</time></trkpt><trkpt lat="44.3262567" lon="10.9668467"><ele>671.5</ele><time>2026-05-01T09:33:20.66Z</time></trkpt><trkpt lat="44.3263067" lon="10.9666867"><ele>671.0</ele><time>2026-05-01T09:33:21.66Z</time></trkpt><trkpt lat="44.326365" lon="10.9665383"><ele>673.25</ele><time>2026-05-01T09:33:22.66Z</time></trkpt><trkpt lat="44.3264317" lon="10.9664"><ele>675.5</ele><time>2026-05-01T09:33:23.663Z</time></trkpt><trkpt lat="44.3265167" lon="10.9662783"><ele>677.75</ele><time>2026-05-01T09:33:24.661Z</time></trkpt><trkpt lat="44.3266167" lon="10.966175"><ele>680.0</ele><time>2026-05-01T09:33:25.659Z</time></trkpt><trkpt lat="44.32672" lon="10.96608"><ele>680.0</ele><time>2026-05-01T09:33:26.661Z</time></trkpt><trkpt lat="44.3268117" lon="10.9659917"><ele>680.0</ele><time>2026-05-01T09:33:27.659Z</time></trkpt><trkpt lat="44.3268917" lon="10.96592"><ele>680.0</ele><time>2026-05-01T09:33:28.66Z</time></trkpt><trkpt lat="44.3269617" lon="10.965855"><ele>680.0</ele><time>2026-05-01T09:33:29.661Z</time></trkpt><trkpt lat="44.3270167" lon="10.9657883"><ele>680.0</ele><time>2026-05-01T09:33:30.66Z</time></trkpt><trkpt lat="44.3270433" lon="10.96562"><ele>677.2</ele><time>2026-05-01T09:33:32.661Z</time></trkpt><trkpt lat="44.3270317" lon="10.9655183"><ele>674.4</ele><time>2026-05-01T09:33:33.659Z</time></trkpt><trkpt lat="44.32702" lon="10.965395"><ele>671.5999999999999</ele><time>2026-05-01T09:33:34.661Z</time></trkpt><trkpt lat="44.3270217" lon="10.96526"><ele>668.8</ele><time>2026-05-01T09:33:35.659Z</time></trkpt><trkpt lat="44.327045" lon="10.9651133"><ele>666.0</ele><time>2026-05-01T09:33:36.659Z</time></trkpt><trkpt lat="44.3270817" lon="10.9649567"><ele>663.5</ele><time>2026-05-01T09:33:37.66Z</time></trkpt><trkpt lat="44.32713" lon="10.9647967"><ele>661.0</ele><time>2026-05-01T09:33:38.661Z</time></trkpt><trkpt lat="44.3271883" lon="10.9646367"><ele>658.5</ele><time>2026-05-01T09:33:39.661Z</time></trkpt><trkpt lat="44.3272467" lon="10.9644767"><ele>656.0</ele><time>2026-05-01T09:33:40.66Z</time></trkpt><trkpt lat="44.3272983" lon="10.9643083"><ele>661.0</ele><time>2026-05-01T09:33:41.659Z</time></trkpt><trkpt lat="44.3273417" lon="10.9641317"><ele>666.0</ele><time>2026-05-01T09:33:42.66Z</time></trkpt><trkpt lat="44.3273817" lon="10.9639583"><ele>671.0</ele><time>2026-05-01T09:33:43.66Z</time></trkpt><trkpt lat="44.3274167" lon="10.9638083"><ele>676.0</ele><time>2026-05-01T09:33:44.66Z</time></trkpt><trkpt lat="44.3274567" lon="10.9636683"><ele>676.0</ele><time>2026-05-01T09:33:45.66Z</time></trkpt><trkpt lat="44.3274983" lon="10.9635283"><ele>676.0</ele><time>2026-05-01T09:33:46.66Z</time></trkpt><trkpt lat="44.3275417" lon="10.9633883"><ele>676.0</ele><time>2026-05-01T09:33:47.66Z</time></trkpt><trkpt lat="44.327585" lon="10.963245"><ele>676.0</ele><time>2026-05-01T09:33:48.66Z</time></trkpt><trkpt lat="44.3276317" lon="10.963105"><ele>676.0</ele><time>2026-05-01T09:33:49.659Z</time></trkpt><trkpt lat="44.3276867" lon="10.9629817"><ele>675.0</ele><time>2026-05-01T09:33:50.659Z</time></trkpt><trkpt lat="44.32772" lon="10.9628417"><ele>674.0</ele><time>2026-05-01T09:33:51.66Z</time></trkpt><trkpt lat="44.32775" lon="10.9626933"><ele>673.0</ele><time>2026-05-01T09:33:52.658Z</time></trkpt><trkpt lat="44.3277717" lon="10.96253"><ele>672.0</ele><time>2026-05-01T09:33:53.659Z</time></trkpt><trkpt lat="44.3277933" lon="10.9623617"><ele>671.6</ele><time>2026-05-01T09:33:54.659Z</time></trkpt><trkpt lat="44.3278133" lon="10.962195"><ele>671.2</ele><time>2026-05-01T09:33:55.659Z</time></trkpt><trkpt lat="44.3278433" lon="10.9620483"><ele>670.8</ele><time>2026-05-01T09:33:56.659Z</time></trkpt><trkpt lat="44.3278817" lon="10.96192"><ele>670.4</ele><time>2026-05-01T09:33:57.658Z</time></trkpt><trkpt lat="44.327925" lon="10.9618067"><ele>670.0</ele><time>2026-05-01T09:33:58.658Z</time></trkpt><trkpt lat="44.3279683" lon="10.961715"><ele>670.1428571428571</ele><time>2026-05-01T09:33:59.657Z</time></trkpt><trkpt lat="44.3280033" lon="10.9616367"><ele>670.2857142857142</ele><time>2026-05-01T09:34:00.66Z</time></trkpt><trkpt lat="44.328025" lon="10.9615517"><ele>670.4285714285713</ele><time>2026-05-01T09:34:01.66Z</time></trkpt><trkpt lat="44.3280267" lon="10.9614617"><ele>670.5714285714286</ele><time>2026-05-01T09:34:02.66Z</time></trkpt><trkpt lat="44.3280167" lon="10.9613683"><ele>670.7142857142858</ele><time>2026-05-01T09:34:03.66Z</time></trkpt><trkpt lat="44.3279983" lon="10.961265"><ele>670.8571428571428</ele><time>2026-05-01T09:34:04.66Z</time></trkpt><trkpt lat="44.32797" lon="10.9611517"><ele>671.0</ele><time>2026-05-01T09:34:05.661Z</time></trkpt><trkpt lat="44.32794" lon="10.96103"><ele>671.0</ele><time>2026-05-01T09:34:06.66Z</time></trkpt><trkpt lat="44.3279" lon="10.9608983"><ele>671.0</ele><time>2026-05-01T09:34:07.658Z</time></trkpt><trkpt lat="44.3278633" lon="10.960765"><ele>671.0</ele><time>2026-05-01T09:34:08.659Z</time></trkpt><trkpt lat="44.3278283" lon="10.96064"><ele>671.0</ele><time>2026-05-01T09:34:09.659Z</time></trkpt><trkpt lat="44.3277967" lon="10.9605117"><ele>671.0</ele><time>2026-05-01T09:34:10.659Z</time></trkpt><trkpt lat="44.327765" lon="10.960375"><ele>670.8</ele><time>2026-05-01T09:34:11.659Z</time></trkpt><trkpt lat="44.3277417" lon="10.9602383"><ele>670.5999999999999</ele><time>2026-05-01T09:34:12.66Z</time></trkpt><trkpt lat="44.3277267" lon="10.9601033"><ele>670.4</ele><time>2026-05-01T09:34:13.661Z</time></trkpt><trkpt lat="44.3277133" lon="10.95997"><ele>670.2</ele><time>2026-05-01T09:34:14.661Z</time></trkpt><trkpt lat="44.3277" lon="10.9598317"><ele>670.0</ele><time>2026-05-01T09:34:15.66Z</time></trkpt><trkpt lat="44.3276917" lon="10.9596867"><ele>668.5</ele><time>2026-05-01T09:34:16.659Z</time></trkpt><trkpt lat="44.3276783" lon="10.95954"><ele>667.0</ele><time>2026-05-01T09:34:17.66Z</time></trkpt><trkpt lat="44.3276583" lon="10.9593917"><ele>665.5</ele><time>2026-05-01T09:34:18.659Z</time></trkpt><trkpt lat="44.3276383" lon="10.959235"><ele>664.0</ele><time>2026-05-01T09:34:19.659Z</time></trkpt><trkpt lat="44.3276117" lon="10.9590633"><ele>662.25</ele><time>2026-05-01T09:34:20.66Z</time></trkpt><trkpt lat="44.3275833" lon="10.9588867"><ele>660.5</ele><time>2026-05-01T09:34:21.658Z</time></trkpt><trkpt lat="44.32754" lon="10.958705"><ele>658.75</ele><time>2026-05-01T09:34:22.659Z</time></trkpt><trkpt lat="44.327495" lon="10.9585317"><ele>657.0</ele><time>2026-05-01T09:34:23.659Z</time></trkpt><trkpt lat="44.32745" lon="10.95836"><ele>655.75</ele><time>2026-05-01T09:34:24.66Z</time></trkpt><trkpt lat="44.3274083" lon="10.95819"><ele>654.5</ele><time>2026-05-01T09:34:25.661Z</time></trkpt><trkpt lat="44.3273633" lon="10.958025"><ele>653.25</ele><time>2026-05-01T09:34:26.661Z</time></trkpt><trkpt lat="44.32731" lon="10.9578583"><ele>652.0</ele><time>2026-05-01T09:34:27.66Z</time></trkpt><trkpt lat="44.327255" lon="10.9576917"><ele>649.5</ele><time>2026-05-01T09:34:28.66Z</time></trkpt><trkpt lat="44.3271967" lon="10.9575233"><ele>647.0</ele><time>2026-05-01T09:34:29.659Z</time></trkpt><trkpt lat="44.32716" lon="10.9573517"><ele>644.5</ele><time>2026-05-01T09:34:30.662Z</time></trkpt><trkpt lat="44.3271317" lon="10.95718"><ele>642.0</ele><time>2026-05-01T09:34:31.662Z</time></trkpt><trkpt lat="44.3271083" lon="10.9570183"><ele>642.0</ele><time>2026-05-01T09:34:32.662Z</time></trkpt><trkpt lat="44.3270867" lon="10.9568667"><ele>642.0</ele><time>2026-05-01T09:34:33.66Z</time></trkpt><trkpt lat="44.3270717" lon="10.9567217"><ele>642.0</ele><time>2026-05-01T09:34:34.66Z</time></trkpt><trkpt lat="44.32707" lon="10.9565867"><ele>642.0</ele><time>2026-05-01T09:34:35.659Z</time></trkpt><trkpt lat="44.327085" lon="10.9564567"><ele>642.0</ele><time>2026-05-01T09:34:36.663Z</time></trkpt><trkpt lat="44.3271217" lon="10.95633"><ele>642.0</ele><time>2026-05-01T09:34:37.663Z</time></trkpt><trkpt lat="44.3271667" lon="10.9562183"><ele>642.0</ele><time>2026-05-01T09:34:38.662Z</time></trkpt><trkpt lat="44.327195" lon="10.9561017"><ele>642.0</ele><time>2026-05-01T09:34:39.662Z</time></trkpt><trkpt lat="44.3272033" lon="10.9559783"><ele>642.0</ele><time>2026-05-01T09:34:40.661Z</time></trkpt><trkpt lat="44.3271817" lon="10.9558283"><ele>642.0</ele><time>2026-05-01T09:34:41.662Z</time></trkpt><trkpt lat="44.3271467" lon="10.9556567"><ele>643.25</ele><time>2026-05-01T09:34:42.661Z</time></trkpt><trkpt lat="44.3271083" lon="10.9554833"><ele>644.5</ele><time>2026-05-01T09:34:43.659Z</time></trkpt><trkpt lat="44.3270733" lon="10.9553083"><ele>645.75</ele><time>2026-05-01T09:34:44.66Z</time></trkpt><trkpt lat="44.3270333" lon="10.9551317"><ele>647.0</ele><time>2026-05-01T09:34:45.66Z</time></trkpt><trkpt lat="44.3270033" lon="10.954955"><ele>647.5</ele><time>2026-05-01T09:34:46.659Z</time></trkpt><trkpt lat="44.3269833" lon="10.954775"><ele>648.0</ele><time>2026-05-01T09:34:47.659Z</time></trkpt><trkpt lat="44.32697" lon="10.95459"><ele>648.5</ele><time>2026-05-01T09:34:48.66Z</time></trkpt><trkpt lat="44.3269733" lon="10.9544083"><ele>649.0</ele><time>2026-05-01T09:34:49.66Z</time></trkpt><trkpt lat="44.3269733" lon="10.954235"><ele>646.25</ele><time>2026-05-01T09:34:50.66Z</time></trkpt><trkpt lat="44.32697" lon="10.9540683"><ele>643.5</ele><time>2026-05-01T09:34:51.659Z</time></trkpt><trkpt lat="44.3269583" lon="10.9539017"><ele>640.75</ele><time>2026-05-01T09:34:52.659Z</time></trkpt><trkpt lat="44.32694" lon="10.9537433"><ele>638.0</ele><time>2026-05-01T09:34:53.66Z</time></trkpt><trkpt lat="44.3269217" lon="10.9535883"><ele>638.0</ele><time>2026-05-01T09:34:54.661Z</time></trkpt><trkpt lat="44.326915" lon="10.9534367"><ele>638.0</ele><time>2026-05-01T09:34:55.661Z</time></trkpt><trkpt lat="44.3269283" lon="10.9532917"><ele>638.0</ele><time>2026-05-01T09:34:56.659Z</time></trkpt><trkpt lat="44.3269467" lon="10.9531617"><ele>638.0</ele><time>2026-05-01T09:34:57.66Z</time></trkpt><trkpt lat="44.32696" lon="10.9530417"><ele>638.0</ele><time>2026-05-01T09:34:58.66Z</time></trkpt><trkpt lat="44.3269467" lon="10.9529267"><ele>635.8</ele><time>2026-05-01T09:34:59.661Z</time></trkpt><trkpt lat="44.3269017" lon="10.952825"><ele>633.5999999999999</ele><time>2026-05-01T09:35:00.663Z</time></trkpt><trkpt lat="44.3268267" lon="10.9527467"><ele>631.4000000000001</ele><time>2026-05-01T09:35:01.66Z</time></trkpt><trkpt lat="44.3267317" lon="10.9527017"><ele>629.2</ele><time>2026-05-01T09:35:02.663Z</time></trkpt><trkpt lat="44.3266383" lon="10.952705"><ele>627.0</ele><time>2026-05-01T09:35:03.662Z</time></trkpt><trkpt lat="44.3265583" lon="10.95272"><ele>627.0</ele><time>2026-05-01T09:35:04.662Z</time></trkpt><trkpt lat="44.3264883" lon="10.9527367"><ele>627.0</ele><time>2026-05-01T09:35:05.663Z</time></trkpt><trkpt lat="44.3263783" lon="10.95273"><ele>627.0</ele><time>2026-05-01T09:35:07.662Z</time></trkpt><trkpt lat="44.3263433" lon="10.9526033"><ele>627.0</ele><time>2026-05-01T09:35:09.661Z</time></trkpt><trkpt lat="44.3264067" lon="10.9524633"><ele>627.0</ele><time>2026-05-01T09:35:11.659Z</time></trkpt><trkpt lat="44.3264783" lon="10.9524117"><ele>625.0</ele><time>2026-05-01T09:35:12.661Z</time></trkpt><trkpt lat="44.32655" lon="10.95236"><ele>623.0</ele><time>2026-05-01T09:35:13.66Z</time></trkpt><trkpt lat="44.3266217" lon="10.95231"><ele>621.0</ele><time>2026-05-01T09:35:14.661Z</time></trkpt><trkpt lat="44.3266917" lon="10.9522683"><ele>619.0</ele><time>2026-05-01T09:35:15.66Z</time></trkpt><trkpt lat="44.32676" lon="10.9522267"><ele>617.0</ele><time>2026-05-01T09:35:16.659Z</time></trkpt><trkpt lat="44.32683" lon="10.9521767"><ele>615.0</ele><time>2026-05-01T09:35:17.66Z</time></trkpt><trkpt lat="44.3269017" lon="10.952135"><ele>615.0</ele><time>2026-05-01T09:35:18.654Z</time></trkpt><trkpt lat="44.3269617" lon="10.9521"><ele>615.0</ele><time>2026-05-01T09:35:19.663Z</time></trkpt><trkpt lat="44.327035" lon="10.9520217"><ele>615.0</ele><time>2026-05-01T09:35:21.66Z</time></trkpt><trkpt lat="44.3270367" lon="10.9519267"><ele>615.0</ele><time>2026-05-01T09:35:23.661Z</time></trkpt><trkpt lat="44.3269883" lon="10.9518467"><ele>615.0</ele><time>2026-05-01T09:35:25.661Z</time></trkpt><trkpt lat="44.3269117" lon="10.951785"><ele>615.0</ele><time>2026-05-01T09:35:27.66Z</time></trkpt><trkpt lat="44.3267967" lon="10.9516983"><ele>613.1428571428571</ele><time>2026-05-01T09:35:29.66Z</time></trkpt><trkpt lat="44.3267333" lon="10.9516417"><ele>611.2857142857143</ele><time>2026-05-01T09:35:30.661Z</time></trkpt><trkpt lat="44.326675" lon="10.95158"><ele>609.4285714285714</ele><time>2026-05-01T09:35:31.662Z</time></trkpt><trkpt lat="44.3266217" lon="10.95151"><ele>607.5714285714286</ele><time>2026-05-01T09:35:32.661Z</time></trkpt><trkpt lat="44.32658" lon="10.9514283"><ele>605.7142857142858</ele><time>2026-05-01T09:35:33.661Z</time></trkpt><trkpt lat="44.3265483" lon="10.9513367"><ele>603.8571428571429</ele><time>2026-05-01T09:35:34.653Z</time></trkpt><trkpt lat="44.32651" lon="10.9512433"><ele>602.0</ele><time>2026-05-01T09:35:35.661Z</time></trkpt><trkpt lat="44.3264683" lon="10.9511567"><ele>602.0</ele><time>2026-05-01T09:35:36.658Z</time></trkpt><trkpt lat="44.3264183" lon="10.951075"><ele>602.0</ele><time>2026-05-01T09:35:37.661Z</time></trkpt><trkpt lat="44.3263517" lon="10.9510033"><ele>602.0</ele><time>2026-05-01T09:35:38.662Z</time></trkpt><trkpt lat="44.3262833" lon="10.9509317"><ele>602.0</ele><time>2026-05-01T09:35:39.661Z</time></trkpt><trkpt lat="44.3262067" lon="10.95086"><ele>602.0</ele><time>2026-05-01T09:35:40.66Z</time></trkpt><trkpt lat="44.32613" lon="10.9507867"><ele>602.0</ele><time>2026-05-01T09:35:41.662Z</time></trkpt><trkpt lat="44.32606" lon="10.9507067"><ele>598.5</ele><time>2026-05-01T09:35:42.661Z</time></trkpt><trkpt lat="44.3259917" lon="10.950625"><ele>595.0</ele><time>2026-05-01T09:35:43.657Z</time></trkpt><trkpt lat="44.3259217" lon="10.9505417"><ele>591.5</ele><time>2026-05-01T09:35:44.658Z</time></trkpt><trkpt lat="44.3258617" lon="10.95046"><ele>588.0</ele><time>2026-05-01T09:35:45.658Z</time></trkpt><trkpt lat="44.3258083" lon="10.9503783"><ele>584.5</ele><time>2026-05-01T09:35:46.659Z</time></trkpt><trkpt lat="44.325765" lon="10.9503033"><ele>581.0</ele><time>2026-05-01T09:35:47.659Z</time></trkpt><trkpt lat="44.32573" lon="10.950225"><ele>581.0</ele><time>2026-05-01T09:35:48.659Z</time></trkpt><trkpt lat="44.3257133" lon="10.950065"><ele>581.0</ele><time>2026-05-01T09:35:50.662Z</time></trkpt><trkpt lat="44.3257517" lon="10.949895"><ele>581.0</ele><time>2026-05-01T09:35:52.659Z</time></trkpt><trkpt lat="44.3257667" lon="10.9497833"><ele>581.0</ele><time>2026-05-01T09:35:53.66Z</time></trkpt><trkpt lat="44.325775" lon="10.9496633"><ele>581.0</ele><time>2026-05-01T09:35:54.662Z</time></trkpt><trkpt lat="44.32577" lon="10.949545"><ele>579.5</ele><time>2026-05-01T09:35:55.663Z</time></trkpt><trkpt lat="44.3257567" lon="10.9494367"><ele>578.0</ele><time>2026-05-01T09:35:56.661Z</time></trkpt><trkpt lat="44.3257267" lon="10.94933"><ele>576.5</ele><time>2026-05-01T09:35:57.663Z</time></trkpt><trkpt lat="44.3256817" lon="10.949225"><ele>575.0</ele><time>2026-05-01T09:35:58.662Z</time></trkpt><trkpt lat="44.32563" lon="10.9491317"><ele>573.5</ele><time>2026-05-01T09:35:59.662Z</time></trkpt><trkpt lat="44.3255783" lon="10.9490433"><ele>572.0</ele><time>2026-05-01T09:36:00.663Z</time></trkpt><trkpt lat="44.32554" lon="10.9489617"><ele>568.5</ele><time>2026-05-01T09:36:01.662Z</time></trkpt><trkpt lat="44.3255133" lon="10.94887"><ele>565.0</ele><time>2026-05-01T09:36:02.663Z</time></trkpt><trkpt lat="44.32551" lon="10.948765"><ele>561.5</ele><time>2026-05-01T09:36:03.662Z</time></trkpt><trkpt lat="44.3255117" lon="10.948665"><ele>558.0</ele><time>2026-05-01T09:36:04.661Z</time></trkpt><trkpt lat="44.3254933" lon="10.948565"><ele>554.5</ele><time>2026-05-01T09:36:05.662Z</time></trkpt><trkpt lat="44.32546" lon="10.9484533"><ele>551.0</ele><time>2026-05-01T09:36:06.661Z</time></trkpt><trkpt lat="44.325415" lon="10.9483317"><ele>550.8</ele><time>2026-05-01T09:36:07.661Z</time></trkpt><trkpt lat="44.3253717" lon="10.9482"><ele>550.6</ele><time>2026-05-01T09:36:08.661Z</time></trkpt><trkpt lat="44.32533" lon="10.9480617"><ele>550.4</ele><time>2026-05-01T09:36:09.659Z</time></trkpt><trkpt lat="44.32529" lon="10.9479167"><ele>550.2</ele><time>2026-05-01T09:36:10.659Z</time></trkpt><trkpt lat="44.3252617" lon="10.94777"><ele>550.0</ele><time>2026-05-01T09:36:11.66Z</time></trkpt><trkpt lat="44.3252433" lon="10.9476317"><ele>549.0</ele><time>2026-05-01T09:36:12.661Z</time></trkpt><trkpt lat="44.3252333" lon="10.9475083"><ele>548.0</ele><time>2026-05-01T09:36:13.66Z</time></trkpt><trkpt lat="44.325215" lon="10.9473917"><ele>547.0</ele><time>2026-05-01T09:36:14.661Z</time></trkpt><trkpt lat="44.3251817" lon="10.9472833"><ele>546.0</ele><time>2026-05-01T09:36:15.66Z</time></trkpt><trkpt lat="44.3251283" lon="10.947175"><ele>545.0</ele><time>2026-05-01T09:36:16.66Z</time></trkpt><trkpt lat="44.325065" lon="10.9470667"><ele>545.0</ele><time>2026-05-01T09:36:17.66Z</time></trkpt><trkpt lat="44.324995" lon="10.9469617"><ele>545.0</ele><time>2026-05-01T09:36:18.662Z</time></trkpt><trkpt lat="44.324925" lon="10.9468583"><ele>545.0</ele><time>2026-05-01T09:36:19.661Z</time></trkpt><trkpt lat="44.3248633" lon="10.94676"><ele>545.0</ele><time>2026-05-01T09:36:20.661Z</time></trkpt><trkpt lat="44.3248083" lon="10.9466617"><ele>545.0</ele><time>2026-05-01T09:36:21.666Z</time></trkpt><trkpt lat="44.3247583" lon="10.9465583"><ele>539.8333333333333</ele><time>2026-05-01T09:36:22.666Z</time></trkpt><trkpt lat="44.3247233" lon="10.946445"><ele>534.6666666666666</ele><time>2026-05-01T09:36:23.662Z</time></trkpt><trkpt lat="44.3246967" lon="10.9463283"><ele>529.5</ele><time>2026-05-01T09:36:24.661Z</time></trkpt><trkpt lat="44.3246767" lon="10.9462167"><ele>524.3333333333334</ele><time>2026-05-01T09:36:25.664Z</time></trkpt><trkpt lat="44.3246667" lon="10.9461117"><ele>519.1666666666667</ele><time>2026-05-01T09:36:26.662Z</time></trkpt><trkpt lat="44.3246633" lon="10.94601"><ele>514.0</ele><time>2026-05-01T09:36:27.661Z</time></trkpt><trkpt lat="44.3246683" lon="10.945915"><ele>513.6666666666667</ele><time>2026-05-01T09:36:28.662Z</time></trkpt><trkpt lat="44.32469" lon="10.945825"><ele>513.3333333333334</ele><time>2026-05-01T09:36:29.662Z</time></trkpt><trkpt lat="44.3247117" lon="10.94574"><ele>513.0</ele><time>2026-05-01T09:36:30.661Z</time></trkpt><trkpt lat="44.3247233" lon="10.9456533"><ele>512.6666666666666</ele><time>2026-05-01T09:36:31.661Z</time></trkpt><trkpt lat="44.324725" lon="10.94556"><ele>512.3333333333333</ele><time>2026-05-01T09:36:32.66Z</time></trkpt><trkpt lat="44.32472" lon="10.9454"><ele>512.0</ele><time>2026-05-01T09:36:34.659Z</time></trkpt><trkpt lat="44.3247317" lon="10.9452933"><ele>512.4</ele><time>2026-05-01T09:36:36.659Z</time></trkpt><trkpt lat="44.32479" lon="10.9451483"><ele>512.8000000000001</ele><time>2026-05-01T09:36:38.66Z</time></trkpt><trkpt lat="44.3248267" lon="10.9449817"><ele>513.2</ele><time>2026-05-01T09:36:40.659Z</time></trkpt><trkpt lat="44.3248333" lon="10.94489"><ele>513.6</ele><time>2026-05-01T09:36:41.661Z</time></trkpt><trkpt lat="44.3248383" lon="10.944795"><ele>514.0</ele><time>2026-05-01T09:36:42.66Z</time></trkpt><trkpt lat="44.32485" lon="10.9446833"><ele>514.0</ele><time>2026-05-01T09:36:43.661Z</time></trkpt><trkpt lat="44.3248667" lon="10.9445617"><ele>514.0</ele><time>2026-05-01T09:36:44.662Z</time></trkpt><trkpt lat="44.324885" lon="10.944445"><ele>514.0</ele><time>2026-05-01T09:36:45.66Z</time></trkpt><trkpt lat="44.3249033" lon="10.9443367"><ele>514.0</ele><time>2026-05-01T09:36:46.66Z</time></trkpt><trkpt lat="44.324915" lon="10.9442267"><ele>514.0</ele><time>2026-05-01T09:36:47.66Z</time></trkpt><trkpt lat="44.3249217" lon="10.944115"><ele>514.0</ele><time>2026-05-01T09:36:48.66Z</time></trkpt><trkpt lat="44.3249233" lon="10.9439967"><ele>512.5</ele><time>2026-05-01T09:36:49.661Z</time></trkpt><trkpt lat="44.3249083" lon="10.9438783"><ele>511.0</ele><time>2026-05-01T09:36:50.66Z</time></trkpt><trkpt lat="44.324885" lon="10.9437617"><ele>509.5</ele><time>2026-05-01T09:36:51.661Z</time></trkpt><trkpt lat="44.3248683" lon="10.9436467"><ele>508.0</ele><time>2026-05-01T09:36:52.663Z</time></trkpt><trkpt lat="44.3248483" lon="10.9435267"><ele>506.50000000000006</ele><time>2026-05-01T09:36:53.661Z</time></trkpt><trkpt lat="44.3248233" lon="10.9434133"><ele>505.0</ele><time>2026-05-01T09:36:54.662Z</time></trkpt><trkpt lat="44.3247933" lon="10.9433067"><ele>504.8</ele><time>2026-05-01T09:36:55.659Z</time></trkpt><trkpt lat="44.324765" lon="10.9432017"><ele>504.6</ele><time>2026-05-01T09:36:56.662Z</time></trkpt><trkpt lat="44.3247467" lon="10.943105"><ele>504.4</ele><time>2026-05-01T09:36:57.661Z</time></trkpt><trkpt lat="44.3247633" lon="10.94294"><ele>504.2</ele><time>2026-05-01T09:36:59.66Z</time></trkpt><trkpt lat="44.324825" lon="10.9427833"><ele>504.0</ele><time>2026-05-01T09:37:01.661Z</time></trkpt><trkpt lat="44.3248517" lon="10.94269"><ele>504.0</ele><time>2026-05-01T09:37:02.662Z</time></trkpt><trkpt lat="44.3248717" lon="10.9426017"><ele>504.0</ele><time>2026-05-01T09:37:03.659Z</time></trkpt><trkpt lat="44.3249167" lon="10.94246"><ele>504.0</ele><time>2026-05-01T09:37:05.659Z</time></trkpt><trkpt lat="44.324935" lon="10.9423683"><ele>504.0</ele><time>2026-05-01T09:37:07.659Z</time></trkpt><trkpt lat="44.3248917" lon="10.94228"><ele>504.0</ele><time>2026-05-01T09:37:09.66Z</time></trkpt><trkpt lat="44.3248133" lon="10.9422133"><ele>504.0</ele><time>2026-05-01T09:37:11.664Z</time></trkpt><trkpt lat="44.3247083" lon="10.9422117"><ele>499.8333333333333</ele><time>2026-05-01T09:37:13.662Z</time></trkpt><trkpt lat="44.3246017" lon="10.9422367"><ele>495.66666666666663</ele><time>2026-05-01T09:37:15.66Z</time></trkpt><trkpt lat="44.32453" lon="10.9422767"><ele>491.5</ele><time>2026-05-01T09:37:17.66Z</time></trkpt><trkpt lat="44.32446" lon="10.9422617"><ele>487.3333333333333</ele><time>2026-05-01T09:37:20.66Z</time></trkpt><trkpt lat="44.3244467" lon="10.9421717"><ele>483.16666666666663</ele><time>2026-05-01T09:37:22.659Z</time></trkpt><trkpt lat="44.3244633" lon="10.9420417"><ele>479.0</ele><time>2026-05-01T09:37:24.661Z</time></trkpt><trkpt lat="44.32448" lon="10.9419117"><ele>478.99999999999994</ele><time>2026-05-01T09:37:26.661Z</time></trkpt><trkpt lat="44.324485" lon="10.941755"><ele>479.0</ele><time>2026-05-01T09:37:28.658Z</time></trkpt><trkpt lat="44.3245033" lon="10.94166"><ele>479.0</ele><time>2026-05-01T09:37:29.658Z</time></trkpt><trkpt lat="44.32453" lon="10.9415633"><ele>479.0</ele><time>2026-05-01T09:37:30.66Z</time></trkpt><trkpt lat="44.324555" lon="10.9414583"><ele>478.99999999999994</ele><time>2026-05-01T09:37:31.658Z</time></trkpt><trkpt lat="44.3245667" lon="10.941355"><ele>479.0</ele><time>2026-05-01T09:37:32.66Z</time></trkpt><trkpt lat="44.3245683" lon="10.94124"><ele>477.0</ele><time>2026-05-01T09:37:34.66Z</time></trkpt><trkpt lat="44.324585" lon="10.9411183"><ele>475.0</ele><time>2026-05-01T09:37:39.66Z</time></trkpt><trkpt lat="44.3245733" lon="10.9409967"><ele>473.0</ele><time>2026-05-01T09:37:41.661Z</time></trkpt><trkpt lat="44.3245317" lon="10.9408533"><ele>471.0</ele><time>2026-05-01T09:37:43.66Z</time></trkpt><trkpt lat="44.3245033" lon="10.9407417"><ele>469.0</ele><time>2026-05-01T09:37:45.659Z</time></trkpt><trkpt lat="44.3244683" lon="10.94064"><ele>466.79999999999995</ele><time>2026-05-01T09:37:47.659Z</time></trkpt><trkpt lat="44.3244383" lon="10.9405017"><ele>464.59999999999997</ele><time>2026-05-01T09:37:49.658Z</time></trkpt><trkpt lat="44.3244067" lon="10.9403517"><ele>462.4</ele><time>2026-05-01T09:37:51.659Z</time></trkpt><trkpt lat="44.3243667" lon="10.9402117"><ele>460.2</ele><time>2026-05-01T09:37:53.659Z</time></trkpt><trkpt lat="44.324305" lon="10.94008"><ele>458.0</ele><time>2026-05-01T09:37:55.658Z</time></trkpt><trkpt lat="44.3242467" lon="10.9399583"><ele>456.0</ele><time>2026-05-01T09:37:57.66Z</time></trkpt><trkpt lat="44.32422" lon="10.9398333"><ele>453.99999999999994</ele><time>2026-05-01T09:37:59.659Z</time></trkpt><trkpt lat="44.3242133" lon="10.9396917"><ele>451.99999999999994</ele><time>2026-05-01T09:38:01.66Z</time></trkpt><trkpt lat="44.3242133" lon="10.9395367"><ele>450.0</ele><time>2026-05-01T09:38:03.66Z</time></trkpt><trkpt lat="44.3242067" lon="10.939375"><ele>448.0</ele><time>2026-05-01T09:38:05.662Z</time></trkpt><trkpt lat="44.3242017" lon="10.9392867"><ele>445.4</ele><time>2026-05-01T09:38:06.66Z</time></trkpt><trkpt lat="44.32418" lon="10.93911"><ele>442.79999999999995</ele><time>2026-05-01T09:38:08.661Z</time></trkpt><trkpt lat="44.324165" lon="10.9389467"><ele>440.2</ele><time>2026-05-01T09:38:10.66Z</time></trkpt><trkpt lat="44.3241417" lon="10.938785"><ele>437.6</ele><time>2026-05-01T09:38:12.655Z</time></trkpt><trkpt lat="44.3241167" lon="10.9387"><ele>435.0</ele><time>2026-05-01T09:38:13.66Z</time></trkpt><trkpt lat="44.32409" lon="10.93861"><ele>435.0</ele><time>2026-05-01T09:38:14.66Z</time></trkpt><trkpt lat="44.32407" lon="10.9385017"><ele>435.0</ele><time>2026-05-01T09:38:15.66Z</time></trkpt><trkpt lat="44.3240583" lon="10.9383933"><ele>435.0</ele><time>2026-05-01T09:38:16.659Z</time></trkpt><trkpt lat="44.3240567" lon="10.9382817"><ele>435.0</ele><time>2026-05-01T09:38:17.658Z</time></trkpt><trkpt lat="44.3240533" lon="10.9381717"><ele>435.0</ele><time>2026-05-01T09:38:18.659Z</time></trkpt><trkpt lat="44.3240533" lon="10.938075"><ele>435.0</ele><time>2026-05-01T09:38:19.658Z</time></trkpt><trkpt lat="44.3240467" lon="10.9379283"><ele>432.4</ele><time>2026-05-01T09:38:21.657Z</time></trkpt><trkpt lat="44.32398" lon="10.93777"><ele>429.8</ele><time>2026-05-01T09:38:23.658Z</time></trkpt><trkpt lat="44.323945" lon="10.9376717"><ele>427.20000000000005</ele><time>2026-05-01T09:38:24.659Z</time></trkpt><trkpt lat="44.3239133" lon="10.9375683"><ele>424.6</ele><time>2026-05-01T09:38:25.658Z</time></trkpt><trkpt lat="44.3238867" lon="10.9374533"><ele>422.0</ele><time>2026-05-01T09:38:26.663Z</time></trkpt><trkpt lat="44.3238683" lon="10.93733"><ele>419.16666666666663</ele><time>2026-05-01T09:38:27.66Z</time></trkpt><trkpt lat="44.3238633" lon="10.9372033"><ele>416.3333333333333</ele><time>2026-05-01T09:38:28.659Z</time></trkpt><trkpt lat="44.3238683" lon="10.9370633"><ele>413.5</ele><time>2026-05-01T09:38:29.659Z</time></trkpt><trkpt lat="44.3238667" lon="10.9369367"><ele>410.66666666666663</ele><time>2026-05-01T09:38:30.658Z</time></trkpt><trkpt lat="44.3238533" lon="10.9368183"><ele>407.8333333333333</ele><time>2026-05-01T09:38:31.659Z</time></trkpt><trkpt lat="44.3238333" lon="10.93671"><ele>405.0</ele><time>2026-05-01T09:38:32.662Z</time></trkpt><trkpt lat="44.323805" lon="10.936615"><ele>405.0</ele><time>2026-05-01T09:38:33.661Z</time></trkpt><trkpt lat="44.3237383" lon="10.936475"><ele>405.0</ele><time>2026-05-01T09:38:35.659Z</time></trkpt><trkpt lat="44.3236917" lon="10.9364033"><ele>405.0</ele><time>2026-05-01T09:38:36.659Z</time></trkpt><trkpt lat="44.3236317" lon="10.936345"><ele>405.0</ele><time>2026-05-01T09:38:37.661Z</time></trkpt><trkpt lat="44.32356" lon="10.9362983"><ele>405.0</ele><time>2026-05-01T09:38:38.661Z</time></trkpt><trkpt lat="44.3234933" lon="10.9362517"><ele>405.0</ele><time>2026-05-01T09:38:39.66Z</time></trkpt><trkpt lat="44.3234083" lon="10.9361283"><ele>404.99999999999994</ele><time>2026-05-01T09:38:41.661Z</time></trkpt><trkpt lat="44.3233883" lon="10.9360367"><ele>405.0</ele><time>2026-05-01T09:38:42.662Z</time></trkpt><trkpt lat="44.32339" lon="10.935935"><ele>405.0</ele><time>2026-05-01T09:38:43.661Z</time></trkpt><trkpt lat="44.3233967" lon="10.9358283"><ele>405.0</ele><time>2026-05-01T09:38:44.663Z</time></trkpt><trkpt lat="44.323405" lon="10.9357317"><ele>405.0</ele><time>2026-05-01T09:38:45.66Z</time></trkpt><trkpt lat="44.3234133" lon="10.9356317"><ele>404.99999999999994</ele><time>2026-05-01T09:38:46.661Z</time></trkpt><trkpt lat="44.3234133" lon="10.935525"><ele>405.0</ele><time>2026-05-01T09:38:47.659Z</time></trkpt><trkpt lat="44.3234133" lon="10.93542"><ele>404.2857142857143</ele><time>2026-05-01T09:38:48.657Z</time></trkpt><trkpt lat="44.323415" lon="10.9353133"><ele>403.57142857142856</ele><time>2026-05-01T09:38:49.659Z</time></trkpt><trkpt lat="44.32342" lon="10.9352067"><ele>402.8571428571429</ele><time>2026-05-01T09:38:50.662Z</time></trkpt><trkpt lat="44.3234283" lon="10.9351"><ele>402.1428571428571</ele><time>2026-05-01T09:38:51.661Z</time></trkpt><trkpt lat="44.3234367" lon="10.935"><ele>401.42857142857144</ele><time>2026-05-01T09:38:52.66Z</time></trkpt><trkpt lat="44.32344" lon="10.9349017"><ele>400.7142857142857</ele><time>2026-05-01T09:38:53.661Z</time></trkpt><trkpt lat="44.3234433" lon="10.934805"><ele>400.0</ele><time>2026-05-01T09:38:54.659Z</time></trkpt><trkpt lat="44.3234533" lon="10.9347117"><ele>398.7142857142857</ele><time>2026-05-01T09:38:55.66Z</time></trkpt><trkpt lat="44.3234617" lon="10.93461"><ele>397.42857142857144</ele><time>2026-05-01T09:38:56.661Z</time></trkpt><trkpt lat="44.3234683" lon="10.9345"><ele>396.1428571428571</ele><time>2026-05-01T09:38:57.66Z</time></trkpt><trkpt lat="44.323475" lon="10.934395"><ele>394.8571428571429</ele><time>2026-05-01T09:38:58.66Z</time></trkpt><trkpt lat="44.3234817" lon="10.9342933"><ele>393.57142857142856</ele><time>2026-05-01T09:38:59.66Z</time></trkpt><trkpt lat="44.32349" lon="10.9342"><ele>392.2857142857143</ele><time>2026-05-01T09:39:00.661Z</time></trkpt><trkpt lat="44.323495" lon="10.9341117"><ele>391.0</ele><time>2026-05-01T09:39:01.659Z</time></trkpt><trkpt lat="44.3234917" lon="10.93402"><ele>389.33333333333337</ele><time>2026-05-01T09:39:02.66Z</time></trkpt><trkpt lat="44.3234867" lon="10.93393"><ele>387.6666666666667</ele><time>2026-05-01T09:39:03.658Z</time></trkpt><trkpt lat="44.323465" lon="10.933775"><ele>386.0</ele><time>2026-05-01T09:39:05.659Z</time></trkpt><trkpt lat="44.3234417" lon="10.93369"><ele>384.33333333333337</ele><time>2026-05-01T09:39:07.659Z</time></trkpt><trkpt lat="44.323405" lon="10.9335917"><ele>382.6666666666667</ele><time>2026-05-01T09:39:39.661Z</time></trkpt><trkpt lat="44.323375" lon="10.93347"><ele>381.0</ele><time>2026-05-01T09:39:41.658Z</time></trkpt><trkpt lat="44.32336" lon="10.93335"><ele>377.20000000000005</ele><time>2026-05-01T09:39:43.658Z</time></trkpt><trkpt lat="44.3233517" lon="10.933225"><ele>373.40000000000003</ele><time>2026-05-01T09:39:45.659Z</time></trkpt><trkpt lat="44.3233467" lon="10.9331083"><ele>369.6</ele><time>2026-05-01T09:39:47.658Z</time></trkpt><trkpt lat="44.3233333" lon="10.9330033"><ele>365.8</ele><time>2026-05-01T09:39:49.66Z</time></trkpt><trkpt lat="44.323305" lon="10.9328817"><ele>362.0</ele><time>2026-05-01T09:39:51.66Z</time></trkpt><trkpt lat="44.323255" lon="10.932725"><ele>362.0</ele><time>2026-05-01T09:39:53.658Z</time></trkpt><trkpt lat="44.3232333" lon="10.9326367"><ele>362.0</ele><time>2026-05-01T09:39:54.658Z</time></trkpt><trkpt lat="44.3231617" lon="10.9325483"><ele>362.0</ele><time>2026-05-01T09:39:56.66Z</time></trkpt><trkpt lat="44.3230467" lon="10.9325467"><ele>362.0</ele><time>2026-05-01T09:39:58.657Z</time></trkpt><trkpt lat="44.322975" lon="10.9325633"><ele>362.0</ele><time>2026-05-01T09:39:59.659Z</time></trkpt><trkpt lat="44.3229083" lon="10.9325833"><ele>362.0</ele><time>2026-05-01T09:40:00.659Z</time></trkpt><trkpt lat="44.3228483" lon="10.93261"><ele>360.20000000000005</ele><time>2026-05-01T09:40:01.66Z</time></trkpt><trkpt lat="44.3227867" lon="10.9326417"><ele>358.4</ele><time>2026-05-01T09:40:02.657Z</time></trkpt><trkpt lat="44.322725" lon="10.932665"><ele>356.6</ele><time>2026-05-01T09:40:03.659Z</time></trkpt><trkpt lat="44.32262" lon="10.9326367"><ele>354.79999999999995</ele><time>2026-05-01T09:40:05.662Z</time></trkpt><trkpt lat="44.322555" lon="10.9325033"><ele>353.0</ele><time>2026-05-01T09:40:07.659Z</time></trkpt><trkpt lat="44.3225233" lon="10.9323467"><ele>350.57142857142856</ele><time>2026-05-01T09:40:09.657Z</time></trkpt><trkpt lat="44.3224983" lon="10.93226"><ele>348.14285714285717</ele><time>2026-05-01T09:40:10.658Z</time></trkpt><trkpt lat="44.322465" lon="10.9321817"><ele>345.7142857142857</ele><time>2026-05-01T09:40:11.657Z</time></trkpt><trkpt lat="44.3224183" lon="10.9321067"><ele>343.2857142857143</ele><time>2026-05-01T09:40:12.658Z</time></trkpt><trkpt lat="44.3223667" lon="10.9320333"><ele>340.8571428571429</ele><time>2026-05-01T09:40:13.658Z</time></trkpt><trkpt lat="44.322315" lon="10.9319667"><ele>338.42857142857144</ele><time>2026-05-01T09:40:14.659Z</time></trkpt><trkpt lat="44.3222733" lon="10.931885"><ele>336.0</ele><time>2026-05-01T09:40:15.659Z</time></trkpt><trkpt lat="44.3222417" lon="10.9318067"><ele>330.0</ele><time>2026-05-01T09:40:16.659Z</time></trkpt><trkpt lat="44.3222117" lon="10.93169"><ele>324.0</ele><time>2026-05-01T09:40:18.659Z</time></trkpt><trkpt lat="44.32218" lon="10.9315983"><ele>318.0</ele><time>2026-05-01T09:40:22.66Z</time></trkpt><trkpt lat="44.3221033" lon="10.9315533"><ele>312.0</ele><time>2026-05-01T09:40:25.661Z</time></trkpt><trkpt lat="44.3220467" lon="10.9314883"><ele>306.0</ele><time>2026-05-01T09:40:27.66Z</time></trkpt><trkpt lat="44.3219983" lon="10.93138"><ele>300.0</ele><time>2026-05-01T09:40:29.66Z</time></trkpt><trkpt lat="44.3219267" lon="10.931295"><ele>300.0</ele><time>2026-05-01T09:40:31.661Z</time></trkpt><trkpt lat="44.3218433" lon="10.9312283"><ele>300.0</ele><time>2026-05-01T09:40:33.658Z</time></trkpt><trkpt lat="44.3217667" lon="10.93116"><ele>300.0</ele><time>2026-05-01T09:40:35.661Z</time></trkpt><trkpt lat="44.3217" lon="10.9310517"><ele>300.0</ele><time>2026-05-01T09:40:37.662Z</time></trkpt><trkpt lat="44.3216583" lon="10.9309033"><ele>300.0</ele><time>2026-05-01T09:40:39.66Z</time></trkpt><trkpt lat="44.321605" lon="10.9307967"><ele>297.5</ele><time>2026-05-01T09:40:41.66Z</time></trkpt><trkpt lat="44.3215017" lon="10.9307383"><ele>295.0</ele><time>2026-05-01T09:40:43.661Z</time></trkpt><trkpt lat="44.3214383" lon="10.9307333"><ele>292.5</ele><time>2026-05-01T09:40:44.66Z</time></trkpt><trkpt lat="44.3213283" lon="10.9307883"><ele>290.0</ele><time>2026-05-01T09:40:46.66Z</time></trkpt><trkpt lat="44.3212883" lon="10.93086"><ele>287.5</ele><time>2026-05-01T09:40:47.66Z</time></trkpt><trkpt lat="44.3212583" lon="10.9309467"><ele>285.0</ele><time>2026-05-01T09:40:48.66Z</time></trkpt><trkpt lat="44.3211967" lon="10.931075"><ele>283.0</ele><time>2026-05-01T09:40:50.663Z</time></trkpt><trkpt lat="44.321135" lon="10.9311817"><ele>281.0</ele><time>2026-05-01T09:40:52.66Z</time></trkpt><trkpt lat="44.3210783" lon="10.9312817"><ele>279.0</ele><time>2026-05-01T09:40:54.66Z</time></trkpt><trkpt lat="44.3209917" lon="10.9313083"><ele>277.0</ele><time>2026-05-01T09:40:56.662Z</time></trkpt><trkpt lat="44.3209283" lon="10.9313067"><ele>275.0</ele><time>2026-05-01T09:40:57.661Z</time></trkpt><trkpt lat="44.320815" lon="10.9312933"><ele>275.0</ele><time>2026-05-01T09:40:59.659Z</time></trkpt><trkpt lat="44.3207417" lon="10.9312333"><ele>275.0</ele><time>2026-05-01T09:41:01.659Z</time></trkpt><trkpt lat="44.3207133" lon="10.931115"><ele>275.0</ele><time>2026-05-01T09:41:03.658Z</time></trkpt><trkpt lat="44.3207133" lon="10.930975"><ele>275.0</ele><time>2026-05-01T09:41:05.658Z</time></trkpt><trkpt lat="44.3207133" lon="10.9308667"><ele>275.0</ele><time>2026-05-01T09:41:07.66Z</time></trkpt><trkpt lat="44.3206433" lon="10.9308417"><ele>275.0</ele><time>2026-05-01T09:41:09.659Z</time></trkpt><trkpt lat="44.320585" lon="10.93088"><ele>271.2</ele><time>2026-05-01T09:41:10.661Z</time></trkpt><trkpt lat="44.3204917" lon="10.93099"><ele>267.4</ele><time>2026-05-01T09:41:12.66Z</time></trkpt><trkpt lat="44.3204133" lon="10.9311"><ele>263.6</ele><time>2026-05-01T09:41:14.66Z</time></trkpt><trkpt lat="44.3203633" lon="10.9311933"><ele>259.8</ele><time>2026-05-01T09:41:16.659Z</time></trkpt><trkpt lat="44.3203483" lon="10.931285"><ele>256.0</ele><time>2026-05-01T09:41:18.66Z</time></trkpt><trkpt lat="44.32031" lon="10.9313817"><ele>255.99999999999997</ele><time>2026-05-01T09:41:21.66Z</time></trkpt><trkpt lat="44.320245" lon="10.931385"><ele>256.0</ele><time>2026-05-01T09:41:24.661Z</time></trkpt><trkpt lat="44.3201833" lon="10.9313667"><ele>256.0</ele><time>2026-05-01T09:41:26.663Z</time></trkpt><trkpt lat="44.3201317" lon="10.93131"><ele>256.0</ele><time>2026-05-01T09:41:28.659Z</time></trkpt><trkpt lat="44.320085" lon="10.9312233"><ele>255.99999999999997</ele><time>2026-05-01T09:41:30.661Z</time></trkpt><trkpt lat="44.3200533" lon="10.931075"><ele>256.0</ele><time>2026-05-01T09:41:32.666Z</time></trkpt><trkpt lat="44.3200533" lon="10.9309383"><ele>255.66666666666666</ele><time>2026-05-01T09:41:34.662Z</time></trkpt><trkpt lat="44.3200533" lon="10.930835"><ele>255.33333333333331</ele><time>2026-05-01T09:41:48.659Z</time></trkpt><trkpt lat="44.3200433" lon="10.9307317"><ele>255.0</ele><time>2026-05-01T09:41:50.661Z</time></trkpt><trkpt lat="44.3200283" lon="10.9306033"><ele>254.66666666666669</ele><time>2026-05-01T09:41:52.661Z</time></trkpt><trkpt lat="44.3200217" lon="10.9304767"><ele>254.33333333333334</ele><time>2026-05-01T09:41:54.663Z</time></trkpt><trkpt lat="44.32002" lon="10.930385"><ele>254.0</ele><time>2026-05-01T09:41:55.66Z</time></trkpt><trkpt lat="44.320035" lon="10.9302717"><ele>254.0</ele><time>2026-05-01T09:41:56.659Z</time></trkpt><trkpt lat="44.3200783" lon="10.9301433"><ele>253.99999999999997</ele><time>2026-05-01T09:41:57.66Z</time></trkpt><trkpt lat="44.3201267" lon="10.9300167"><ele>253.99999999999997</ele><time>2026-05-01T09:41:58.658Z</time></trkpt><trkpt lat="44.3201733" lon="10.9298983"><ele>254.0</ele><time>2026-05-01T09:41:59.66Z</time></trkpt><trkpt lat="44.3202083" lon="10.9297917"><ele>254.0</ele><time>2026-05-01T09:42:00.659Z</time></trkpt><trkpt lat="44.3202283" lon="10.9296883"><ele>254.28571428571428</ele><time>2026-05-01T09:42:01.66Z</time></trkpt><trkpt lat="44.320235" lon="10.92959"><ele>254.57142857142856</ele><time>2026-05-01T09:42:02.661Z</time></trkpt><trkpt lat="44.3202233" lon="10.9294917"><ele>254.85714285714283</ele><time>2026-05-01T09:42:03.66Z</time></trkpt><trkpt lat="44.320195" lon="10.9294"><ele>255.14285714285714</ele><time>2026-05-01T09:42:04.66Z</time></trkpt><trkpt lat="44.3201567" lon="10.9293083"><ele>255.4285714285714</ele><time>2026-05-01T09:42:05.661Z</time></trkpt><trkpt lat="44.3201133" lon="10.9292183"><ele>255.7142857142857</ele><time>2026-05-01T09:42:06.662Z</time></trkpt><trkpt lat="44.320075" lon="10.9291217"><ele>256.0</ele><time>2026-05-01T09:42:07.661Z</time></trkpt><trkpt lat="44.3200467" lon="10.9290133"><ele>255.99999999999997</ele><time>2026-05-01T09:42:08.662Z</time></trkpt><trkpt lat="44.3200433" lon="10.9288933"><ele>256.0</ele><time>2026-05-01T09:42:09.66Z</time></trkpt><trkpt lat="44.32005" lon="10.9287667"><ele>256.0</ele><time>2026-05-01T09:42:10.659Z</time></trkpt><trkpt lat="44.3200583" lon="10.9286417"><ele>256.0</ele><time>2026-05-01T09:42:11.66Z</time></trkpt><trkpt lat="44.32005" lon="10.92852"><ele>255.99999999999997</ele><time>2026-05-01T09:42:12.66Z</time></trkpt><trkpt lat="44.320025" lon="10.9284"><ele>256.0</ele><time>2026-05-01T09:42:13.661Z</time></trkpt><trkpt lat="44.3199667" lon="10.928275"><ele>255.0</ele><time>2026-05-01T09:42:14.661Z</time></trkpt><trkpt lat="44.319895" lon="10.9281383"><ele>254.0</ele><time>2026-05-01T09:42:15.658Z</time></trkpt><trkpt lat="44.3198317" lon="10.92799"><ele>253.0</ele><time>2026-05-01T09:42:16.66Z</time></trkpt><trkpt lat="44.3197767" lon="10.9278417"><ele>252.0</ele><time>2026-05-01T09:42:17.659Z</time></trkpt><trkpt lat="44.31972" lon="10.9276983"><ele>252.0</ele><time>2026-05-01T09:42:18.661Z</time></trkpt><trkpt lat="44.3196683" lon="10.927565"><ele>252.0</ele><time>2026-05-01T09:42:19.659Z</time></trkpt><trkpt lat="44.3196167" lon="10.92745"><ele>252.0</ele><time>2026-05-01T09:42:20.66Z</time></trkpt><trkpt lat="44.3195533" lon="10.9273633"><ele>252.0</ele><time>2026-05-01T09:42:21.659Z</time></trkpt><trkpt lat="44.31946" lon="10.92728"><ele>252.0</ele><time>2026-05-01T09:42:22.659Z</time></trkpt><trkpt lat="44.3193367" lon="10.9272033"><ele>252.0</ele><time>2026-05-01T09:42:23.659Z</time></trkpt><trkpt lat="44.3192183" lon="10.92712"><ele>252.0</ele><time>2026-05-01T09:42:24.661Z</time></trkpt><trkpt lat="44.3190967" lon="10.92703"><ele>252.0</ele><time>2026-05-01T09:42:25.661Z</time></trkpt><trkpt lat="44.3189783" lon="10.9269417"><ele>252.0</ele><time>2026-05-01T09:42:26.66Z</time></trkpt><trkpt lat="44.31887" lon="10.926855"><ele>252.0</ele><time>2026-05-01T09:42:27.66Z</time></trkpt><trkpt lat="44.3187667" lon="10.926755"><ele>252.0</ele><time>2026-05-01T09:42:28.659Z</time></trkpt><trkpt lat="44.3186617" lon="10.926665"><ele>252.0</ele><time>2026-05-01T09:42:29.66Z</time></trkpt><trkpt lat="44.3185383" lon="10.9265983"><ele>252.0</ele><time>2026-05-01T09:42:30.66Z</time></trkpt><trkpt lat="44.318405" lon="10.9265367"><ele>251.75</ele><time>2026-05-01T09:42:31.661Z</time></trkpt><trkpt lat="44.31828" lon="10.9264683"><ele>251.5</ele><time>2026-05-01T09:42:32.66Z</time></trkpt><trkpt lat="44.31817" lon="10.92638"><ele>251.25</ele><time>2026-05-01T09:42:33.661Z</time></trkpt><trkpt lat="44.31807" lon="10.9262817"><ele>251.0</ele><time>2026-05-01T09:42:34.66Z</time></trkpt><trkpt lat="44.3179767" lon="10.926175"><ele>251.0</ele><time>2026-05-01T09:42:35.66Z</time></trkpt><trkpt lat="44.317875" lon="10.9260633"><ele>251.0</ele><time>2026-05-01T09:42:36.662Z</time></trkpt><trkpt lat="44.3177717" lon="10.9259483"><ele>251.0</ele><time>2026-05-01T09:42:37.661Z</time></trkpt><trkpt lat="44.3176717" lon="10.9258367"><ele>251.0</ele><time>2026-05-01T09:42:38.661Z</time></trkpt><trkpt lat="44.317575" lon="10.9257217"><ele>251.0</ele><time>2026-05-01T09:42:39.66Z</time></trkpt><trkpt lat="44.3174833" lon="10.9256017"><ele>251.0</ele><time>2026-05-01T09:42:40.659Z</time></trkpt><trkpt lat="44.31739" lon="10.9254817"><ele>251.0</ele><time>2026-05-01T09:42:41.659Z</time></trkpt><trkpt lat="44.31729" lon="10.9253467"><ele>251.0</ele><time>2026-05-01T09:42:42.661Z</time></trkpt><trkpt lat="44.3171917" lon="10.9252083"><ele>251.25</ele><time>2026-05-01T09:42:43.659Z</time></trkpt><trkpt lat="44.3170967" lon="10.9250683"><ele>251.5</ele><time>2026-05-01T09:42:44.661Z</time></trkpt><trkpt lat="44.3170017" lon="10.9249233"><ele>251.75</ele><time>2026-05-01T09:42:45.659Z</time></trkpt><trkpt lat="44.3168983" lon="10.924775"><ele>252.0</ele><time>2026-05-01T09:42:46.659Z</time></trkpt><trkpt lat="44.316785" lon="10.9246333"><ele>252.0</ele><time>2026-05-01T09:42:47.658Z</time></trkpt><trkpt lat="44.3166633" lon="10.924505"><ele>252.0</ele><time>2026-05-01T09:42:48.661Z</time></trkpt><trkpt lat="44.316535" lon="10.9243783"><ele>252.0</ele><time>2026-05-01T09:42:49.659Z</time></trkpt><trkpt lat="44.3164017" lon="10.92425"><ele>254.66666666666669</ele><time>2026-05-01T09:42:50.661Z</time></trkpt><trkpt lat="44.3162733" lon="10.9241133"><ele>257.33333333333337</ele><time>2026-05-01T09:42:51.659Z</time></trkpt><trkpt lat="44.3161583" lon="10.9239683"><ele>260.0</ele><time>2026-05-01T09:42:52.658Z</time></trkpt><trkpt lat="44.316045" lon="10.9238183"><ele>260.0</ele><time>2026-05-01T09:42:53.658Z</time></trkpt><trkpt lat="44.315945" lon="10.9236667"><ele>260.0</ele><time>2026-05-01T09:42:54.66Z</time></trkpt><trkpt lat="44.315855" lon="10.9235183"><ele>260.0</ele><time>2026-05-01T09:42:55.659Z</time></trkpt><trkpt lat="44.3157733" lon="10.92338"><ele>260.0</ele><time>2026-05-01T09:42:56.659Z</time></trkpt><trkpt lat="44.3157083" lon="10.9232483"><ele>259.0</ele><time>2026-05-01T09:42:57.66Z</time></trkpt><trkpt lat="44.3156617" lon="10.9231233"><ele>258.0</ele><time>2026-05-01T09:42:58.664Z</time></trkpt><trkpt lat="44.3156283" lon="10.9229967"><ele>257.0</ele><time>2026-05-01T09:42:59.661Z</time></trkpt><trkpt lat="44.3156033" lon="10.9228783"><ele>256.0</ele><time>2026-05-01T09:43:00.659Z</time></trkpt><trkpt lat="44.3155683" lon="10.9227717"><ele>255.0</ele><time>2026-05-01T09:43:01.659Z</time></trkpt><trkpt lat="44.3155117" lon="10.922665"><ele>255.5</ele><time>2026-05-01T09:43:02.671Z</time></trkpt><trkpt lat="44.31543" lon="10.9225467"><ele>256.0</ele><time>2026-05-01T09:43:03.659Z</time></trkpt><trkpt lat="44.315325" lon="10.9224083"><ele>256.5</ele><time>2026-05-01T09:43:04.66Z</time></trkpt><trkpt lat="44.3152083" lon="10.922265"><ele>257.0</ele><time>2026-05-01T09:43:05.66Z</time></trkpt><trkpt lat="44.31509" lon="10.9221283"><ele>257.0</ele><time>2026-05-01T09:43:06.661Z</time></trkpt><trkpt lat="44.3149783" lon="10.92199"><ele>257.0</ele><time>2026-05-01T09:43:07.659Z</time></trkpt><trkpt lat="44.314865" lon="10.921845"><ele>257.0</ele><time>2026-05-01T09:43:08.662Z</time></trkpt><trkpt lat="44.3147567" lon="10.9217"><ele>257.2</ele><time>2026-05-01T09:43:09.658Z</time></trkpt><trkpt lat="44.31466" lon="10.9215783"><ele>257.4</ele><time>2026-05-01T09:43:10.659Z</time></trkpt><trkpt lat="44.314575" lon="10.921485"><ele>257.6</ele><time>2026-05-01T09:43:11.659Z</time></trkpt><trkpt lat="44.3145" lon="10.9214183"><ele>257.8</ele><time>2026-05-01T09:43:12.658Z</time></trkpt><trkpt lat="44.3144333" lon="10.92137"><ele>258.0</ele><time>2026-05-01T09:43:13.66Z</time></trkpt><trkpt lat="44.314345" lon="10.921315"><ele>258.0</ele><time>2026-05-01T09:43:15.661Z</time></trkpt><trkpt lat="44.3142883" lon="10.92125"><ele>258.0</ele><time>2026-05-01T09:43:38.662Z</time></trkpt><trkpt lat="44.3143483" lon="10.921325"><ele>258.0</ele><time>2026-05-01T09:43:46.661Z</time></trkpt><trkpt lat="44.3144317" lon="10.9213617"><ele>258.0</ele><time>2026-05-01T09:43:49.659Z</time></trkpt><trkpt lat="44.31452" lon="10.921455"><ele>258.0</ele><time>2026-05-01T10:13:32.667Z</time></trkpt><trkpt lat="44.3146033" lon="10.9215367"><ele>258.0</ele><time>2026-05-01T10:13:34.657Z</time></trkpt><trkpt lat="44.31469" lon="10.921635"><ele>258.0</ele><time>2026-05-01T10:13:36.664Z</time></trkpt><trkpt lat="44.3147417" lon="10.9216967"><ele>258.0</ele><time>2026-05-01T10:13:37.664Z</time></trkpt><trkpt lat="44.3148033" lon="10.9217733"><ele>258.0</ele><time>2026-05-01T10:13:38.663Z</time></trkpt><trkpt lat="44.31487" lon="10.92186"><ele>258.0</ele><time>2026-05-01T10:13:39.659Z</time></trkpt><trkpt lat="44.3149333" lon="10.92194"><ele>258.0</ele><time>2026-05-01T10:13:40.659Z</time></trkpt><trkpt lat="44.3149983" lon="10.9220217"><ele>257.8333333333333</ele><time>2026-05-01T10:13:41.66Z</time></trkpt><trkpt lat="44.315065" lon="10.9221033"><ele>257.6666666666667</ele><time>2026-05-01T10:13:42.66Z</time></trkpt><trkpt lat="44.3151283" lon="10.922185"><ele>257.5</ele><time>2026-05-01T10:13:43.656Z</time></trkpt><trkpt lat="44.3151883" lon="10.9222617"><ele>257.33333333333337</ele><time>2026-05-01T10:13:44.662Z</time></trkpt><trkpt lat="44.3152467" lon="10.9223317"><ele>257.1666666666667</ele><time>2026-05-01T10:13:45.663Z</time></trkpt><trkpt lat="44.315305" lon="10.9223983"><ele>257.0</ele><time>2026-05-01T10:13:46.657Z</time></trkpt><trkpt lat="44.3153667" lon="10.92247"><ele>257.0</ele><time>2026-05-01T10:13:47.658Z</time></trkpt><trkpt lat="44.3154217" lon="10.9225433"><ele>257.0</ele><time>2026-05-01T10:13:48.657Z</time></trkpt><trkpt lat="44.3154683" lon="10.9226133"><ele>257.0</ele><time>2026-05-01T10:13:49.663Z</time></trkpt><trkpt lat="44.315515" lon="10.9226783"><ele>257.0</ele><time>2026-05-01T10:13:50.66Z</time></trkpt><trkpt lat="44.3155633" lon="10.9227483"><ele>257.0</ele><time>2026-05-01T10:13:51.656Z</time></trkpt><trkpt lat="44.315605" lon="10.9228333"><ele>257.0</ele><time>2026-05-01T10:13:52.658Z</time></trkpt><trkpt lat="44.3156417" lon="10.922925"><ele>257.0</ele><time>2026-05-01T10:13:53.662Z</time></trkpt><trkpt lat="44.3156667" lon="10.9230317"><ele>256.6666666666667</ele><time>2026-05-01T10:13:54.657Z</time></trkpt><trkpt lat="44.3156867" lon="10.923135"><ele>256.33333333333337</ele><time>2026-05-01T10:13:55.659Z</time></trkpt><trkpt lat="44.3157183" lon="10.9232233"><ele>256.0</ele><time>2026-05-01T10:13:56.657Z</time></trkpt><trkpt lat="44.315755" lon="10.923305"><ele>255.66666666666669</ele><time>2026-05-01T10:13:57.655Z</time></trkpt><trkpt lat="44.3158" lon="10.9233967"><ele>255.33333333333334</ele><time>2026-05-01T10:13:58.656Z</time></trkpt><trkpt lat="44.3158533" lon="10.923495"><ele>255.0</ele><time>2026-05-01T10:13:59.657Z</time></trkpt><trkpt lat="44.31591" lon="10.923595"><ele>256.0</ele><time>2026-05-01T10:14:00.657Z</time></trkpt><trkpt lat="44.3159717" lon="10.923695"><ele>257.0</ele><time>2026-05-01T10:14:01.654Z</time></trkpt><trkpt lat="44.31604" lon="10.9237983"><ele>258.0</ele><time>2026-05-01T10:14:02.66Z</time></trkpt><trkpt lat="44.31611" lon="10.923905"><ele>259.0</ele><time>2026-05-01T10:14:03.657Z</time></trkpt><trkpt lat="44.3161783" lon="10.924005"><ele>260.0</ele><time>2026-05-01T10:14:04.659Z</time></trkpt><trkpt lat="44.3162467" lon="10.9240983"><ele>260.0</ele><time>2026-05-01T10:14:05.658Z</time></trkpt><trkpt lat="44.31632" lon="10.9241833"><ele>260.0</ele><time>2026-05-01T10:14:06.66Z</time></trkpt><trkpt lat="44.316395" lon="10.92426"><ele>260.0</ele><time>2026-05-01T10:14:07.659Z</time></trkpt><trkpt lat="44.3164767" lon="10.9243367"><ele>260.0</ele><time>2026-05-01T10:14:08.657Z</time></trkpt><trkpt lat="44.3165583" lon="10.92441"><ele>260.0</ele><time>2026-05-01T10:14:09.659Z</time></trkpt><trkpt lat="44.3166333" lon="10.92448"><ele>258.4</ele><time>2026-05-01T10:14:10.659Z</time></trkpt><trkpt lat="44.31671" lon="10.92455"><ele>256.8</ele><time>2026-05-01T10:14:11.658Z</time></trkpt><trkpt lat="44.31678" lon="10.92463"><ele>255.2</ele><time>2026-05-01T10:14:12.657Z</time></trkpt><trkpt lat="44.3168467" lon="10.9247167"><ele>253.6</ele><time>2026-05-01T10:14:13.656Z</time></trkpt><trkpt lat="44.3169083" lon="10.9248067"><ele>252.0</ele><time>2026-05-01T10:14:14.662Z</time></trkpt><trkpt lat="44.316975" lon="10.9248983"><ele>252.0</ele><time>2026-05-01T10:14:15.661Z</time></trkpt><trkpt lat="44.317045" lon="10.9249967"><ele>252.0</ele><time>2026-05-01T10:14:16.658Z</time></trkpt><trkpt lat="44.317125" lon="10.9251017"><ele>252.0</ele><time>2026-05-01T10:14:17.66Z</time></trkpt><trkpt lat="44.3172083" lon="10.9252167"><ele>252.0</ele><time>2026-05-01T10:14:18.66Z</time></trkpt><trkpt lat="44.3172917" lon="10.9253333"><ele>252.0</ele><time>2026-05-01T10:14:19.658Z</time></trkpt><trkpt lat="44.3173783" lon="10.92546"><ele>251.75</ele><time>2026-05-01T10:14:20.653Z</time></trkpt><trkpt lat="44.31747" lon="10.9255833"><ele>251.5</ele><time>2026-05-01T10:14:21.658Z</time></trkpt><trkpt lat="44.3175633" lon="10.92571"><ele>251.25</ele><time>2026-05-01T10:14:22.66Z</time></trkpt><trkpt lat="44.3176617" lon="10.92583"><ele>251.0</ele><time>2026-05-01T10:14:23.659Z</time></trkpt><trkpt lat="44.3177567" lon="10.925945"><ele>251.0</ele><time>2026-05-01T10:14:24.659Z</time></trkpt><trkpt lat="44.31785" lon="10.926055"><ele>251.0</ele><time>2026-05-01T10:14:25.659Z</time></trkpt><trkpt lat="44.317945" lon="10.926165"><ele>251.0</ele><time>2026-05-01T10:14:26.66Z</time></trkpt><trkpt lat="44.31804" lon="10.9262717"><ele>251.0</ele><time>2026-05-01T10:14:27.658Z</time></trkpt><trkpt lat="44.3181317" lon="10.9263733"><ele>251.0</ele><time>2026-05-01T10:14:28.657Z</time></trkpt><trkpt lat="44.31823" lon="10.926465"><ele>251.0</ele><time>2026-05-01T10:14:29.656Z</time></trkpt><trkpt lat="44.3183383" lon="10.9265383"><ele>251.0</ele><time>2026-05-01T10:14:30.657Z</time></trkpt><trkpt lat="44.3184433" lon="10.9265883"><ele>251.0</ele><time>2026-05-01T10:14:31.658Z</time></trkpt><trkpt lat="44.3185433" lon="10.92663"><ele>251.0</ele><time>2026-05-01T10:14:32.657Z</time></trkpt><trkpt lat="44.31864" lon="10.926675"><ele>251.00000000000003</ele><time>2026-05-01T10:14:33.658Z</time></trkpt><trkpt lat="44.3187317" lon="10.9267433"><ele>251.00000000000003</ele><time>2026-05-01T10:14:34.658Z</time></trkpt><trkpt lat="44.3188167" lon="10.9268283"><ele>251.0</ele><time>2026-05-01T10:14:35.654Z</time></trkpt><trkpt lat="44.3189117" lon="10.926915"><ele>251.0</ele><time>2026-05-01T10:14:36.66Z</time></trkpt><trkpt lat="44.319015" lon="10.926995"><ele>250.5</ele><time>2026-05-01T10:14:37.657Z</time></trkpt><trkpt lat="44.31912" lon="10.9270733"><ele>250.0</ele><time>2026-05-01T10:14:38.659Z</time></trkpt><trkpt lat="44.31922" lon="10.9271533"><ele>249.5</ele><time>2026-05-01T10:14:39.655Z</time></trkpt><trkpt lat="44.319325" lon="10.9272383"><ele>249.0</ele><time>2026-05-01T10:14:40.655Z</time></trkpt><trkpt lat="44.3194267" lon="10.9273117"><ele>249.0</ele><time>2026-05-01T10:14:41.656Z</time></trkpt><trkpt lat="44.3195167" lon="10.9273717"><ele>248.99999999999997</ele><time>2026-05-01T10:14:42.659Z</time></trkpt><trkpt lat="44.3195883" lon="10.9274367"><ele>248.99999999999997</ele><time>2026-05-01T10:14:43.655Z</time></trkpt><trkpt lat="44.3196483" lon="10.9275167"><ele>249.0</ele><time>2026-05-01T10:14:44.659Z</time></trkpt><trkpt lat="44.3196883" lon="10.9276333"><ele>249.0</ele><time>2026-05-01T10:14:45.656Z</time></trkpt><trkpt lat="44.3197317" lon="10.9277617"><ele>249.0</ele><time>2026-05-01T10:14:46.657Z</time></trkpt><trkpt lat="44.3197817" lon="10.9279083"><ele>249.0</ele><time>2026-05-01T10:14:47.664Z</time></trkpt><trkpt lat="44.3198417" lon="10.9280633"><ele>249.0</ele><time>2026-05-01T10:14:48.658Z</time></trkpt><trkpt lat="44.319905" lon="10.9282133"><ele>249.0</ele><time>2026-05-01T10:14:49.669Z</time></trkpt><trkpt lat="44.319965" lon="10.9283383"><ele>250.39999999999998</ele><time>2026-05-01T10:14:50.661Z</time></trkpt><trkpt lat="44.3200183" lon="10.92844"><ele>251.79999999999998</ele><time>2026-05-01T10:14:51.661Z</time></trkpt><trkpt lat="44.32006" lon="10.92855"><ele>253.20000000000002</ele><time>2026-05-01T10:14:52.659Z</time></trkpt><trkpt lat="44.3200833" lon="10.9286717"><ele>254.60000000000002</ele><time>2026-05-01T10:14:53.656Z</time></trkpt><trkpt lat="44.3200883" lon="10.9287967"><ele>256.0</ele><time>2026-05-01T10:14:54.656Z</time></trkpt><trkpt lat="44.32008" lon="10.928925"><ele>256.0</ele><time>2026-05-01T10:14:55.658Z</time></trkpt><trkpt lat="44.3200717" lon="10.929045"><ele>256.0</ele><time>2026-05-01T10:14:56.658Z</time></trkpt><trkpt lat="44.3200717" lon="10.9291483"><ele>256.0</ele><time>2026-05-01T10:14:57.661Z</time></trkpt><trkpt lat="44.3201133" lon="10.92932"><ele>256.0</ele><time>2026-05-01T10:14:59.66Z</time></trkpt><trkpt lat="44.3201617" lon="10.9294217"><ele>256.0</ele><time>2026-05-01T10:15:00.661Z</time></trkpt><trkpt lat="44.3202067" lon="10.9295167"><ele>255.66666666666666</ele><time>2026-05-01T10:15:01.657Z</time></trkpt><trkpt lat="44.3202433" lon="10.9296"><ele>255.33333333333331</ele><time>2026-05-01T10:15:02.658Z</time></trkpt><trkpt lat="44.3202517" lon="10.9296933"><ele>255.0</ele><time>2026-05-01T10:15:03.655Z</time></trkpt><trkpt lat="44.3202317" lon="10.9297833"><ele>254.66666666666669</ele><time>2026-05-01T10:15:04.658Z</time></trkpt><trkpt lat="44.3202067" lon="10.9298683"><ele>254.33333333333334</ele><time>2026-05-01T10:15:05.659Z</time></trkpt><trkpt lat="44.3201583" lon="10.9300017"><ele>254.0</ele><time>2026-05-01T10:15:07.661Z</time></trkpt><trkpt lat="44.3201283" lon="10.9301333"><ele>254.0</ele><time>2026-05-01T10:15:09.658Z</time></trkpt><trkpt lat="44.3201417" lon="10.93026"><ele>253.99999999999997</ele><time>2026-05-01T10:15:11.659Z</time></trkpt><trkpt lat="44.3201567" lon="10.93043"><ele>253.99999999999997</ele><time>2026-05-01T10:15:13.659Z</time></trkpt><trkpt lat="44.32014" lon="10.930575"><ele>254.0</ele><time>2026-05-01T10:15:15.655Z</time></trkpt><trkpt lat="44.3201117" lon="10.9307233"><ele>254.0</ele><time>2026-05-01T10:15:17.665Z</time></trkpt><trkpt lat="44.3200683" lon="10.930885"><ele>254.33333333333334</ele><time>2026-05-01T10:15:19.66Z</time></trkpt><trkpt lat="44.320015" lon="10.93102"><ele>254.66666666666669</ele><time>2026-05-01T10:15:21.658Z</time></trkpt><trkpt lat="44.319985" lon="10.931125"><ele>255.0</ele><time>2026-05-01T10:15:23.658Z</time></trkpt><trkpt lat="44.3199867" lon="10.9312283"><ele>255.33333333333331</ele><time>2026-05-01T10:15:26.66Z</time></trkpt><trkpt lat="44.3200483" lon="10.9313033"><ele>255.66666666666666</ele><time>2026-05-01T10:15:29.658Z</time></trkpt><trkpt lat="44.3200433" lon="10.9314133"><ele>256.0</ele><time>2026-05-01T10:15:44.661Z</time></trkpt><trkpt lat="44.3199617" lon="10.9314033"><ele>255.99999999999997</ele><time>2026-05-01T10:15:47.659Z</time></trkpt><trkpt lat="44.3200117" lon="10.9313433"><ele>256.0</ele><time>2026-05-01T10:15:52.659Z</time></trkpt><trkpt lat="44.3200833" lon="10.9313633"><ele>256.0</ele><time>2026-05-01T10:15:56.662Z</time></trkpt><trkpt lat="44.32017" lon="10.931395"><ele>256.0</ele><time>2026-05-01T10:15:59.659Z</time></trkpt><trkpt lat="44.320235" lon="10.9314033"><ele>255.99999999999997</ele><time>2026-05-01T10:16:01.659Z</time></trkpt><trkpt lat="44.3203217" lon="10.931335"><ele>256.0</ele><time>2026-05-01T10:16:04.657Z</time></trkpt><trkpt lat="44.3203617" lon="10.931235"><ele>256.0</ele><time>2026-05-01T10:16:06.663Z</time></trkpt><trkpt lat="44.320425" lon="10.9311183"><ele>256.0</ele><time>2026-05-01T10:16:08.658Z</time></trkpt><trkpt lat="44.320495" lon="10.9310017"><ele>256.0</ele><time>2026-05-01T10:16:10.658Z</time></trkpt><trkpt lat="44.320585" lon="10.9309"><ele>256.0</ele><time>2026-05-01T10:16:12.659Z</time></trkpt><trkpt lat="44.320665" lon="10.9308567"><ele>256.0</ele><time>2026-05-01T10:16:14.661Z</time></trkpt><trkpt lat="44.3207283" lon="10.9309067"><ele>259.16666666666663</ele><time>2026-05-01T10:16:16.659Z</time></trkpt><trkpt lat="44.3207283" lon="10.9310183"><ele>262.3333333333333</ele><time>2026-05-01T10:16:18.66Z</time></trkpt><trkpt lat="44.3207283" lon="10.93117"><ele>265.5</ele><time>2026-05-01T10:16:20.663Z</time></trkpt><trkpt lat="44.3207733" lon="10.931275"><ele>268.6666666666667</ele><time>2026-05-01T10:16:22.658Z</time></trkpt><trkpt lat="44.3208383" lon="10.9312983"><ele>271.83333333333337</ele><time>2026-05-01T10:16:24.664Z</time></trkpt><trkpt lat="44.320905" lon="10.9312767"><ele>275.0</ele><time>2026-05-01T10:16:26.661Z</time></trkpt><trkpt lat="44.320985" lon="10.93127"><ele>275.0</ele><time>2026-05-01T10:16:28.666Z</time></trkpt><trkpt lat="44.32107" lon="10.9312817"><ele>275.0</ele><time>2026-05-01T10:16:30.662Z</time></trkpt><trkpt lat="44.32115" lon="10.9312133"><ele>275.0</ele><time>2026-05-01T10:16:32.658Z</time></trkpt><trkpt lat="44.3212017" lon="10.9311"><ele>275.0</ele><time>2026-05-01T10:16:34.659Z</time></trkpt><trkpt lat="44.32126" lon="10.9310067"><ele>275.0</ele><time>2026-05-01T10:16:36.658Z</time></trkpt><trkpt lat="44.32131" lon="10.9309083"><ele>277.0</ele><time>2026-05-01T10:16:38.655Z</time></trkpt><trkpt lat="44.3213517" lon="10.930795"><ele>279.0</ele><time>2026-05-01T10:16:40.658Z</time></trkpt><trkpt lat="44.3214383" lon="10.93073"><ele>281.0</ele><time>2026-05-01T10:16:42.659Z</time></trkpt><trkpt lat="44.32155" lon="10.930745"><ele>283.0</ele><time>2026-05-01T10:16:44.659Z</time></trkpt><trkpt lat="44.3216067" lon="10.9307833"><ele>285.0</ele><time>2026-05-01T10:16:45.656Z</time></trkpt><trkpt lat="44.3216833" lon="10.9308983"><ele>288.0</ele><time>2026-05-01T10:16:47.66Z</time></trkpt><trkpt lat="44.3217133" lon="10.93102"><ele>291.0</ele><time>2026-05-01T10:16:49.659Z</time></trkpt><trkpt lat="44.3217633" lon="10.9311417"><ele>294.0</ele><time>2026-05-01T10:16:51.659Z</time></trkpt><trkpt lat="44.3218483" lon="10.9312367"><ele>297.0</ele><time>2026-05-01T10:16:53.658Z</time></trkpt><trkpt lat="44.3219567" lon="10.931305"><ele>300.0</ele><time>2026-05-01T10:16:55.658Z</time></trkpt><trkpt lat="44.3220483" lon="10.931405"><ele>300.0</ele><time>2026-05-01T10:16:57.657Z</time></trkpt><trkpt lat="44.3221067" lon="10.931505"><ele>300.0</ele><time>2026-05-01T10:16:59.658Z</time></trkpt><trkpt lat="44.32218" lon="10.9315533"><ele>300.0</ele><time>2026-05-01T10:17:01.656Z</time></trkpt><trkpt lat="44.3222467" lon="10.9316"><ele>300.0</ele><time>2026-05-01T10:17:03.667Z</time></trkpt><trkpt lat="44.322275" lon="10.93168"><ele>300.0</ele><time>2026-05-01T10:17:06.665Z</time></trkpt><trkpt lat="44.3222817" lon="10.9318233"><ele>300.0</ele><time>2026-05-01T10:17:09.664Z</time></trkpt><trkpt lat="44.3223367" lon="10.9319617"><ele>306.0</ele><time>2026-05-01T10:17:11.658Z</time></trkpt><trkpt lat="44.3223883" lon="10.932035"><ele>312.0</ele><time>2026-05-01T10:17:12.658Z</time></trkpt><trkpt lat="44.32244" lon="10.9321017"><ele>318.0</ele><time>2026-05-01T10:17:13.66Z</time></trkpt><trkpt lat="44.3224817" lon="10.9321683"><ele>324.0</ele><time>2026-05-01T10:17:14.661Z</time></trkpt><trkpt lat="44.32254" lon="10.9323133"><ele>330.0</ele><time>2026-05-01T10:17:16.658Z</time></trkpt><trkpt lat="44.3225583" lon="10.9324017"><ele>336.0</ele><time>2026-05-01T10:17:17.658Z</time></trkpt><trkpt lat="44.3225767" lon="10.9324867"><ele>338.8333333333333</ele><time>2026-05-01T10:17:18.659Z</time></trkpt><trkpt lat="44.3226383" lon="10.9326167"><ele>341.6666666666667</ele><time>2026-05-01T10:17:20.66Z</time></trkpt><trkpt lat="44.3227267" lon="10.9326933"><ele>344.5</ele><time>2026-05-01T10:17:22.659Z</time></trkpt><trkpt lat="44.3227917" lon="10.9326933"><ele>347.33333333333337</ele><time>2026-05-01T10:17:23.662Z</time></trkpt><trkpt lat="44.3228583" lon="10.9326717"><ele>350.1666666666667</ele><time>2026-05-01T10:17:24.656Z</time></trkpt><trkpt lat="44.3229283" lon="10.9326433"><ele>353.0</ele><time>2026-05-01T10:17:25.661Z</time></trkpt><trkpt lat="44.32301" lon="10.9326067"><ele>354.5</ele><time>2026-05-01T10:17:26.658Z</time></trkpt><trkpt lat="44.323085" lon="10.9325783"><ele>356.0</ele><time>2026-05-01T10:17:27.665Z</time></trkpt><trkpt lat="44.3231483" lon="10.9325633"><ele>357.5</ele><time>2026-05-01T10:17:28.657Z</time></trkpt><trkpt lat="44.3232667" lon="10.932595"><ele>359.0</ele><time>2026-05-01T10:17:30.657Z</time></trkpt><trkpt lat="44.3233033" lon="10.93274"><ele>360.5</ele><time>2026-05-01T10:17:32.661Z</time></trkpt><trkpt lat="44.3233217" lon="10.932825"><ele>362.0</ele><time>2026-05-01T10:17:33.659Z</time></trkpt><trkpt lat="44.323335" lon="10.9329167"><ele>362.0</ele><time>2026-05-01T10:17:34.663Z</time></trkpt><trkpt lat="44.323345" lon="10.93301"><ele>362.0</ele><time>2026-05-01T10:17:35.659Z</time></trkpt><trkpt lat="44.32336" lon="10.9331"><ele>362.0</ele><time>2026-05-01T10:17:36.658Z</time></trkpt><trkpt lat="44.3233667" lon="10.93319"><ele>362.0</ele><time>2026-05-01T10:17:37.659Z</time></trkpt><trkpt lat="44.323375" lon="10.93328"><ele>362.0</ele><time>2026-05-01T10:17:38.658Z</time></trkpt><trkpt lat="44.32338" lon="10.9333817"><ele>362.0</ele><time>2026-05-01T10:17:39.657Z</time></trkpt><trkpt lat="44.3233917" lon="10.9334833"><ele>362.0</ele><time>2026-05-01T10:17:40.657Z</time></trkpt><trkpt lat="44.32341" lon="10.933585"><ele>365.1666666666667</ele><time>2026-05-01T10:17:41.661Z</time></trkpt><trkpt lat="44.323435" lon="10.9336917"><ele>368.33333333333337</ele><time>2026-05-01T10:17:42.659Z</time></trkpt><trkpt lat="44.3234633" lon="10.9337967"><ele>371.5</ele><time>2026-05-01T10:17:43.659Z</time></trkpt><trkpt lat="44.3234833" lon="10.9338867"><ele>374.6666666666667</ele><time>2026-05-01T10:17:44.657Z</time></trkpt><trkpt lat="44.3234983" lon="10.9340417"><ele>377.8333333333333</ele><time>2026-05-01T10:17:46.659Z</time></trkpt><trkpt lat="44.3234983" lon="10.9341333"><ele>381.0</ele><time>2026-05-01T10:17:47.658Z</time></trkpt><trkpt lat="44.323485" lon="10.934295"><ele>383.0</ele><time>2026-05-01T10:17:49.661Z</time></trkpt><trkpt lat="44.3234683" lon="10.9344567"><ele>385.0</ele><time>2026-05-01T10:17:51.657Z</time></trkpt><trkpt lat="44.3234633" lon="10.9346333"><ele>387.0</ele><time>2026-05-01T10:17:53.665Z</time></trkpt><trkpt lat="44.3234583" lon="10.93473"><ele>389.0</ele><time>2026-05-01T10:17:54.661Z</time></trkpt><trkpt lat="44.3234467" lon="10.93483"><ele>391.0</ele><time>2026-05-01T10:17:55.657Z</time></trkpt><trkpt lat="44.3234417" lon="10.934935"><ele>390.99999999999994</ele><time>2026-05-01T10:17:56.662Z</time></trkpt><trkpt lat="44.3234367" lon="10.9350417"><ele>391.0</ele><time>2026-05-01T10:17:57.662Z</time></trkpt><trkpt lat="44.323435" lon="10.9351433"><ele>391.0</ele><time>2026-05-01T10:17:58.656Z</time></trkpt><trkpt lat="44.3234317" lon="10.9352333"><ele>391.0</ele><time>2026-05-01T10:17:59.658Z</time></trkpt><trkpt lat="44.3234233" lon="10.9353283"><ele>391.0</ele><time>2026-05-01T10:18:00.658Z</time></trkpt><trkpt lat="44.323415" lon="10.93543"><ele>390.99999999999994</ele><time>2026-05-01T10:18:01.658Z</time></trkpt><trkpt lat="44.3234133" lon="10.9355317"><ele>391.0</ele><time>2026-05-01T10:18:02.661Z</time></trkpt><trkpt lat="44.3234117" lon="10.9356283"><ele>392.50000000000006</ele><time>2026-05-01T10:18:03.656Z</time></trkpt><trkpt lat="44.3234133" lon="10.9358017"><ele>394.0</ele><time>2026-05-01T10:18:05.658Z</time></trkpt><trkpt lat="44.3234133" lon="10.9358917"><ele>395.5</ele><time>2026-05-01T10:18:06.656Z</time></trkpt><trkpt lat="44.3234117" lon="10.93599"><ele>397.0</ele><time>2026-05-01T10:18:07.658Z</time></trkpt><trkpt lat="44.3234167" lon="10.936085"><ele>398.50000000000006</ele><time>2026-05-01T10:18:08.663Z</time></trkpt><trkpt lat="44.3234333" lon="10.93617"><ele>400.0</ele><time>2026-05-01T10:18:09.654Z</time></trkpt><trkpt lat="44.32347" lon="10.9362467"><ele>400.7142857142857</ele><time>2026-05-01T10:18:10.659Z</time></trkpt><trkpt lat="44.3235267" lon="10.9363083"><ele>401.42857142857144</ele><time>2026-05-01T10:18:11.658Z</time></trkpt><trkpt lat="44.3236" lon="10.9363583"><ele>402.1428571428571</ele><time>2026-05-01T10:18:12.655Z</time></trkpt><trkpt lat="44.3236733" lon="10.9363983"><ele>402.8571428571429</ele><time>2026-05-01T10:18:13.656Z</time></trkpt><trkpt lat="44.3237417" lon="10.9364467"><ele>403.57142857142856</ele><time>2026-05-01T10:18:14.66Z</time></trkpt><trkpt lat="44.323795" lon="10.936505"><ele>404.2857142857143</ele><time>2026-05-01T10:18:15.655Z</time></trkpt><trkpt lat="44.3238367" lon="10.9365717"><ele>405.0</ele><time>2026-05-01T10:18:16.658Z</time></trkpt><trkpt lat="44.3238733" lon="10.936655"><ele>406.1666666666667</ele><time>2026-05-01T10:18:17.655Z</time></trkpt><trkpt lat="44.3239017" lon="10.9367533"><ele>407.33333333333337</ele><time>2026-05-01T10:18:18.666Z</time></trkpt><trkpt lat="44.3239233" lon="10.936855"><ele>408.5</ele><time>2026-05-01T10:18:19.656Z</time></trkpt><trkpt lat="44.323935" lon="10.93697"><ele>409.6666666666667</ele><time>2026-05-01T10:18:20.662Z</time></trkpt><trkpt lat="44.32393" lon="10.9371033"><ele>410.83333333333337</ele><time>2026-05-01T10:18:21.657Z</time></trkpt><trkpt lat="44.3239183" lon="10.9372367"><ele>412.0</ele><time>2026-05-01T10:18:22.659Z</time></trkpt><trkpt lat="44.3239167" lon="10.9373583"><ele>412.00000000000006</ele><time>2026-05-01T10:18:23.657Z</time></trkpt><trkpt lat="44.3239217" lon="10.9374717"><ele>412.0</ele><time>2026-05-01T10:18:24.658Z</time></trkpt><trkpt lat="44.3239433" lon="10.9375817"><ele>412.0</ele><time>2026-05-01T10:18:25.657Z</time></trkpt><trkpt lat="44.3239783" lon="10.9376933"><ele>412.0</ele><time>2026-05-01T10:18:26.661Z</time></trkpt><trkpt lat="44.3240217" lon="10.9378083"><ele>412.00000000000006</ele><time>2026-05-01T10:18:27.66Z</time></trkpt><trkpt lat="44.32406" lon="10.937915"><ele>412.0</ele><time>2026-05-01T10:18:28.656Z</time></trkpt><trkpt lat="44.3240817" lon="10.9380817"><ele>413.6666666666667</ele><time>2026-05-01T10:18:30.658Z</time></trkpt><trkpt lat="44.3240767" lon="10.9381867"><ele>415.33333333333337</ele><time>2026-05-01T10:18:31.657Z</time></trkpt><trkpt lat="44.32408" lon="10.9383017"><ele>417.0</ele><time>2026-05-01T10:18:32.66Z</time></trkpt><trkpt lat="44.32409" lon="10.938425"><ele>418.66666666666663</ele><time>2026-05-01T10:18:33.659Z</time></trkpt><trkpt lat="44.324105" lon="10.938545"><ele>420.3333333333333</ele><time>2026-05-01T10:18:34.657Z</time></trkpt><trkpt lat="44.3241283" lon="10.9386583"><ele>422.0</ele><time>2026-05-01T10:18:35.658Z</time></trkpt><trkpt lat="44.324155" lon="10.9387583"><ele>424.16666666666663</ele><time>2026-05-01T10:18:36.657Z</time></trkpt><trkpt lat="44.324185" lon="10.93891"><ele>426.3333333333333</ele><time>2026-05-01T10:18:38.661Z</time></trkpt><trkpt lat="44.3241917" lon="10.9390933"><ele>428.5</ele><time>2026-05-01T10:18:40.66Z</time></trkpt><trkpt lat="44.3242" lon="10.9391867"><ele>430.66666666666663</ele><time>2026-05-01T10:18:41.658Z</time></trkpt><trkpt lat="44.32421" lon="10.939275"><ele>432.8333333333333</ele><time>2026-05-01T10:18:42.657Z</time></trkpt><trkpt lat="44.3242183" lon="10.9393667"><ele>435.0</ele><time>2026-05-01T10:18:43.657Z</time></trkpt><trkpt lat="44.324225" lon="10.9394567"><ele>437.6</ele><time>2026-05-01T10:18:44.661Z</time></trkpt><trkpt lat="44.3242283" lon="10.939545"><ele>440.2</ele><time>2026-05-01T10:18:45.66Z</time></trkpt><trkpt lat="44.32423" lon="10.9397017"><ele>442.79999999999995</ele><time>2026-05-01T10:18:47.66Z</time></trkpt><trkpt lat="44.3242417" lon="10.9398717"><ele>445.4</ele><time>2026-05-01T10:18:49.658Z</time></trkpt><trkpt lat="44.3242733" lon="10.94001"><ele>448.0</ele><time>2026-05-01T10:18:51.66Z</time></trkpt><trkpt lat="44.3243333" lon="10.9401333"><ele>450.5</ele><time>2026-05-01T10:18:53.656Z</time></trkpt><trkpt lat="44.3243967" lon="10.940265"><ele>453.0</ele><time>2026-05-01T10:18:55.658Z</time></trkpt><trkpt lat="44.3244333" lon="10.9404117"><ele>455.5</ele><time>2026-05-01T10:18:57.66Z</time></trkpt><trkpt lat="44.3244717" lon="10.9405783"><ele>458.0</ele><time>2026-05-01T10:18:59.656Z</time></trkpt><trkpt lat="44.3245117" lon="10.9407233"><ele>458.0</ele><time>2026-05-01T10:19:01.66Z</time></trkpt><trkpt lat="44.3245383" lon="10.940875"><ele>458.0</ele><time>2026-05-01T10:19:03.658Z</time></trkpt><trkpt lat="44.3245883" lon="10.941025"><ele>458.0</ele><time>2026-05-01T10:19:05.658Z</time></trkpt><trkpt lat="44.3246133" lon="10.9411683"><ele>458.0</ele><time>2026-05-01T10:19:07.66Z</time></trkpt><trkpt lat="44.3245983" lon="10.9413517"><ele>459.57142857142856</ele><time>2026-05-01T10:19:09.656Z</time></trkpt><trkpt lat="44.324585" lon="10.9414517"><ele>461.14285714285717</ele><time>2026-05-01T10:19:10.665Z</time></trkpt><trkpt lat="44.3245617" lon="10.9415467"><ele>462.7142857142857</ele><time>2026-05-01T10:19:11.656Z</time></trkpt><trkpt lat="44.3245267" lon="10.941635"><ele>464.2857142857143</ele><time>2026-05-01T10:19:12.662Z</time></trkpt><trkpt lat="44.3244933" lon="10.941725"><ele>465.8571428571429</ele><time>2026-05-01T10:19:13.659Z</time></trkpt><trkpt lat="44.3244767" lon="10.941825"><ele>467.42857142857144</ele><time>2026-05-01T10:19:14.657Z</time></trkpt><trkpt lat="44.3244683" lon="10.94192"><ele>469.0</ele><time>2026-05-01T10:19:15.66Z</time></trkpt><trkpt lat="44.324475" lon="10.9420733"><ele>470.6666666666667</ele><time>2026-05-01T10:19:17.66Z</time></trkpt><trkpt lat="44.3244717" lon="10.9422083"><ele>472.33333333333337</ele><time>2026-05-01T10:19:19.658Z</time></trkpt><trkpt lat="44.3245117" lon="10.9422917"><ele>474.0</ele><time>2026-05-01T10:19:21.658Z</time></trkpt><trkpt lat="44.3245767" lon="10.9423067"><ele>475.66666666666663</ele><time>2026-05-01T10:19:23.657Z</time></trkpt><trkpt lat="44.3246667" lon="10.94226"><ele>477.3333333333333</ele><time>2026-05-01T10:19:25.657Z</time></trkpt><trkpt lat="44.324775" lon="10.9422233"><ele>479.0</ele><time>2026-05-01T10:19:27.66Z</time></trkpt><trkpt lat="44.3248733" lon="10.942255"><ele>482.99999999999994</ele><time>2026-05-01T10:19:29.66Z</time></trkpt><trkpt lat="44.3249383" lon="10.94236"><ele>487.0</ele><time>2026-05-01T10:19:31.66Z</time></trkpt><trkpt lat="44.32494" lon="10.9424933"><ele>491.0</ele><time>2026-05-01T10:19:33.658Z</time></trkpt><trkpt lat="44.32491" lon="10.9425783"><ele>495.0</ele><time>2026-05-01T10:19:34.659Z</time></trkpt><trkpt lat="44.3248733" lon="10.9426883"><ele>498.99999999999994</ele><time>2026-05-01T10:19:35.656Z</time></trkpt><trkpt lat="44.324835" lon="10.9428033"><ele>503.0</ele><time>2026-05-01T10:19:36.657Z</time></trkpt><trkpt lat="44.324795" lon="10.9429117"><ele>503.16666666666663</ele><time>2026-05-01T10:19:37.658Z</time></trkpt><trkpt lat="44.3247667" lon="10.9430033"><ele>503.3333333333333</ele><time>2026-05-01T10:19:38.661Z</time></trkpt><trkpt lat="44.3247567" lon="10.9430983"><ele>503.5</ele><time>2026-05-01T10:19:39.657Z</time></trkpt><trkpt lat="44.32477" lon="10.943205"><ele>503.66666666666663</ele><time>2026-05-01T10:19:40.657Z</time></trkpt><trkpt lat="44.3248017" lon="10.94333"><ele>503.8333333333333</ele><time>2026-05-01T10:19:41.657Z</time></trkpt><trkpt lat="44.32484" lon="10.943445"><ele>504.0</ele><time>2026-05-01T10:19:42.657Z</time></trkpt><trkpt lat="44.32487" lon="10.9435517"><ele>504.1666666666667</ele><time>2026-05-01T10:19:43.658Z</time></trkpt><trkpt lat="44.3248833" lon="10.9436617"><ele>504.33333333333337</ele><time>2026-05-01T10:19:44.661Z</time></trkpt><trkpt lat="44.32489" lon="10.9437717"><ele>504.5</ele><time>2026-05-01T10:19:45.659Z</time></trkpt><trkpt lat="44.3249067" lon="10.9438917"><ele>504.6666666666667</ele><time>2026-05-01T10:19:46.655Z</time></trkpt><trkpt lat="44.3249283" lon="10.944015"><ele>504.83333333333337</ele><time>2026-05-01T10:19:47.657Z</time></trkpt><trkpt lat="44.32494" lon="10.9441383"><ele>505.0</ele><time>2026-05-01T10:19:48.658Z</time></trkpt><trkpt lat="44.324935" lon="10.944255"><ele>506.8</ele><time>2026-05-01T10:19:49.658Z</time></trkpt><trkpt lat="44.3249233" lon="10.94437"><ele>508.6</ele><time>2026-05-01T10:19:50.661Z</time></trkpt><trkpt lat="44.324905" lon="10.9444883"><ele>510.4</ele><time>2026-05-01T10:19:51.662Z</time></trkpt><trkpt lat="44.324885" lon="10.94461"><ele>512.2</ele><time>2026-05-01T10:19:52.66Z</time></trkpt><trkpt lat="44.3248633" lon="10.944745"><ele>514.0</ele><time>2026-05-01T10:19:53.662Z</time></trkpt><trkpt lat="44.32485" lon="10.9448733"><ele>514.0</ele><time>2026-05-01T10:19:54.655Z</time></trkpt><trkpt lat="44.3248433" lon="10.944975"><ele>514.0</ele><time>2026-05-01T10:19:55.657Z</time></trkpt><trkpt lat="44.3248317" lon="10.9450667"><ele>514.0</ele><time>2026-05-01T10:19:56.66Z</time></trkpt><trkpt lat="44.3248183" lon="10.9451567"><ele>514.0</ele><time>2026-05-01T10:19:57.657Z</time></trkpt><trkpt lat="44.3247667" lon="10.9452983"><ele>514.0</ele><time>2026-05-01T10:19:59.661Z</time></trkpt><trkpt lat="44.3247333" lon="10.9454183"><ele>514.0</ele><time>2026-05-01T10:20:01.66Z</time></trkpt><trkpt lat="44.324725" lon="10.9455983"><ele>514.0</ele><time>2026-05-01T10:20:03.661Z</time></trkpt><trkpt lat="44.3247233" lon="10.94571"><ele>514.0</ele><time>2026-05-01T10:20:04.655Z</time></trkpt><trkpt lat="44.3247167" lon="10.9458333"><ele>514.0</ele><time>2026-05-01T10:20:05.658Z</time></trkpt><trkpt lat="44.324705" lon="10.9459567"><ele>514.0</ele><time>2026-05-01T10:20:06.656Z</time></trkpt><trkpt lat="44.3247017" lon="10.9460683"><ele>514.0</ele><time>2026-05-01T10:20:07.657Z</time></trkpt><trkpt lat="44.32472" lon="10.946225"><ele>518.4</ele><time>2026-05-01T10:20:09.656Z</time></trkpt><trkpt lat="44.3247433" lon="10.9463117"><ele>522.8</ele><time>2026-05-01T10:20:10.657Z</time></trkpt><trkpt lat="44.3247817" lon="10.9464683"><ele>527.2</ele><time>2026-05-01T10:20:12.655Z</time></trkpt><trkpt lat="44.32483" lon="10.9466367"><ele>531.6</ele><time>2026-05-01T10:20:14.658Z</time></trkpt><trkpt lat="44.3248617" lon="10.9467317"><ele>536.0</ele><time>2026-05-01T10:20:15.659Z</time></trkpt><trkpt lat="44.3248983" lon="10.9468283"><ele>537.5</ele><time>2026-05-01T10:20:16.659Z</time></trkpt><trkpt lat="44.324945" lon="10.9469167"><ele>539.0</ele><time>2026-05-01T10:20:17.656Z</time></trkpt><trkpt lat="44.3250083" lon="10.9469933"><ele>540.5</ele><time>2026-05-01T10:20:18.66Z</time></trkpt><trkpt lat="44.32507" lon="10.9470733"><ele>542.0</ele><time>2026-05-01T10:20:19.659Z</time></trkpt><trkpt lat="44.3251233" lon="10.9471633"><ele>543.5</ele><time>2026-05-01T10:20:20.66Z</time></trkpt><trkpt lat="44.3251733" lon="10.9472583"><ele>545.0</ele><time>2026-05-01T10:20:21.656Z</time></trkpt><trkpt lat="44.3252083" lon="10.9473517"><ele>545.0</ele><time>2026-05-01T10:20:22.659Z</time></trkpt><trkpt lat="44.3252333" lon="10.9474467"><ele>545.0</ele><time>2026-05-01T10:20:23.658Z</time></trkpt><trkpt lat="44.325255" lon="10.9475467"><ele>545.0</ele><time>2026-05-01T10:20:24.658Z</time></trkpt><trkpt lat="44.325275" lon="10.9476633"><ele>545.0</ele><time>2026-05-01T10:20:25.655Z</time></trkpt><trkpt lat="44.3252917" lon="10.9478067"><ele>545.0</ele><time>2026-05-01T10:20:26.663Z</time></trkpt><trkpt lat="44.3253167" lon="10.9479633"><ele>546.0</ele><time>2026-05-01T10:20:27.662Z</time></trkpt><trkpt lat="44.325345" lon="10.9481167"><ele>547.0</ele><time>2026-05-01T10:20:28.659Z</time></trkpt><trkpt lat="44.3253867" lon="10.9482617"><ele>548.0</ele><time>2026-05-01T10:20:29.656Z</time></trkpt><trkpt lat="44.3254367" lon="10.9484033"><ele>549.0</ele><time>2026-05-01T10:20:30.655Z</time></trkpt><trkpt lat="44.3254817" lon="10.9485317"><ele>550.0</ele><time>2026-05-01T10:20:31.658Z</time></trkpt><trkpt lat="44.3255167" lon="10.94864"><ele>550.1666666666667</ele><time>2026-05-01T10:20:32.662Z</time></trkpt><trkpt lat="44.3255367" lon="10.9487383"><ele>550.3333333333334</ele><time>2026-05-01T10:20:33.654Z</time></trkpt><trkpt lat="44.325545" lon="10.9488483"><ele>550.5</ele><time>2026-05-01T10:20:34.657Z</time></trkpt><trkpt lat="44.3255583" lon="10.9489583"><ele>550.6666666666666</ele><time>2026-05-01T10:20:35.659Z</time></trkpt><trkpt lat="44.3255783" lon="10.9490667"><ele>550.8333333333333</ele><time>2026-05-01T10:20:36.659Z</time></trkpt><trkpt lat="44.3256233" lon="10.949165"><ele>551.0</ele><time>2026-05-01T10:20:37.657Z</time></trkpt><trkpt lat="44.3256817" lon="10.94926"><ele>554.5</ele><time>2026-05-01T10:20:38.657Z</time></trkpt><trkpt lat="44.3257333" lon="10.9493517"><ele>558.0</ele><time>2026-05-01T10:20:39.657Z</time></trkpt><trkpt lat="44.3257667" lon="10.9494467"><ele>561.5</ele><time>2026-05-01T10:20:40.657Z</time></trkpt><trkpt lat="44.3257867" lon="10.94955"><ele>565.0</ele><time>2026-05-01T10:20:41.658Z</time></trkpt><trkpt lat="44.3257917" lon="10.9496617"><ele>568.5</ele><time>2026-05-01T10:20:42.661Z</time></trkpt><trkpt lat="44.325785" lon="10.94978"><ele>572.0</ele><time>2026-05-01T10:20:43.657Z</time></trkpt><trkpt lat="44.3257683" lon="10.9498967"><ele>572.0</ele><time>2026-05-01T10:20:44.662Z</time></trkpt><trkpt lat="44.3257467" lon="10.950005"><ele>572.0</ele><time>2026-05-01T10:20:45.657Z</time></trkpt><trkpt lat="44.3257333" lon="10.9500933"><ele>572.0</ele><time>2026-05-01T10:20:46.661Z</time></trkpt><trkpt lat="44.325735" lon="10.950185"><ele>572.0</ele><time>2026-05-01T10:20:47.657Z</time></trkpt><trkpt lat="44.3257567" lon="10.9502917"><ele>572.0</ele><time>2026-05-01T10:20:48.66Z</time></trkpt><trkpt lat="44.3258083" lon="10.950405"><ele>572.0</ele><time>2026-05-01T10:20:49.659Z</time></trkpt><trkpt lat="44.3258933" lon="10.9505133"><ele>574.25</ele><time>2026-05-01T10:20:50.657Z</time></trkpt><trkpt lat="44.3259817" lon="10.9506217"><ele>576.5</ele><time>2026-05-01T10:20:51.657Z</time></trkpt><trkpt lat="44.3260733" lon="10.9507267"><ele>578.75</ele><time>2026-05-01T10:20:52.663Z</time></trkpt><trkpt lat="44.3261683" lon="10.9508267"><ele>581.0</ele><time>2026-05-01T10:20:53.656Z</time></trkpt><trkpt lat="44.3262717" lon="10.9509267"><ele>583.25</ele><time>2026-05-01T10:20:54.656Z</time></trkpt><trkpt lat="44.3263683" lon="10.9510267"><ele>585.5</ele><time>2026-05-01T10:20:55.655Z</time></trkpt><trkpt lat="44.3264483" lon="10.9511417"><ele>587.75</ele><time>2026-05-01T10:20:56.66Z</time></trkpt><trkpt lat="44.3265183" lon="10.9512817"><ele>590.0</ele><time>2026-05-01T10:20:57.656Z</time></trkpt><trkpt lat="44.3265767" lon="10.951425"><ele>592.4</ele><time>2026-05-01T10:20:58.663Z</time></trkpt><trkpt lat="44.3266367" lon="10.951545"><ele>594.8</ele><time>2026-05-01T10:20:59.658Z</time></trkpt><trkpt lat="44.3267183" lon="10.95165"><ele>597.2</ele><time>2026-05-01T10:21:00.659Z</time></trkpt><trkpt lat="44.3268083" lon="10.9517333"><ele>599.6</ele><time>2026-05-01T10:21:01.655Z</time></trkpt><trkpt lat="44.3268917" lon="10.9517967"><ele>602.0</ele><time>2026-05-01T10:21:02.659Z</time></trkpt><trkpt lat="44.326965" lon="10.9518567"><ele>604.6</ele><time>2026-05-01T10:21:03.659Z</time></trkpt><trkpt lat="44.327025" lon="10.951915"><ele>607.2</ele><time>2026-05-01T10:21:04.656Z</time></trkpt><trkpt lat="44.3270717" lon="10.9520517"><ele>609.8</ele><time>2026-05-01T10:21:06.661Z</time></trkpt><trkpt lat="44.3269567" lon="10.95216"><ele>612.4</ele><time>2026-05-01T10:21:08.661Z</time></trkpt><trkpt lat="44.3268683" lon="10.952195"><ele>615.0</ele><time>2026-05-01T10:21:09.659Z</time></trkpt><trkpt lat="44.3267767" lon="10.9522317"><ele>615.0</ele><time>2026-05-01T10:21:10.655Z</time></trkpt><trkpt lat="44.326695" lon="10.9522767"><ele>615.0</ele><time>2026-05-01T10:21:11.653Z</time></trkpt><trkpt lat="44.326615" lon="10.9523267"><ele>615.0</ele><time>2026-05-01T10:21:12.659Z</time></trkpt><trkpt lat="44.3265433" lon="10.9523733"><ele>615.0</ele><time>2026-05-01T10:21:13.655Z</time></trkpt><trkpt lat="44.32648" lon="10.9524117"><ele>615.0</ele><time>2026-05-01T10:21:14.659Z</time></trkpt><trkpt lat="44.3263833" lon="10.9524967"><ele>615.0</ele><time>2026-05-01T10:21:16.659Z</time></trkpt><trkpt lat="44.32634" lon="10.9526217"><ele>616.6</ele><time>2026-05-01T10:21:18.656Z</time></trkpt><trkpt lat="44.32635" lon="10.9527633"><ele>618.2</ele><time>2026-05-01T10:21:20.667Z</time></trkpt><trkpt lat="44.3264183" lon="10.9529"><ele>619.8</ele><time>2026-05-01T10:21:22.658Z</time></trkpt><trkpt lat="44.3265283" lon="10.9529817"><ele>621.4</ele><time>2026-05-01T10:21:24.658Z</time></trkpt><trkpt lat="44.326605" lon="10.9530667"><ele>623.0</ele><time>2026-05-01T10:21:26.658Z</time></trkpt><trkpt lat="44.3266283" lon="10.9531817"><ele>623.6666666666666</ele><time>2026-05-01T10:21:28.658Z</time></trkpt><trkpt lat="44.3266383" lon="10.95332"><ele>624.3333333333333</ele><time>2026-05-01T10:21:30.656Z</time></trkpt><trkpt lat="44.3266517" lon="10.9534167"><ele>625.0</ele><time>2026-05-01T10:21:31.66Z</time></trkpt><trkpt lat="44.3266733" lon="10.9535217"><ele>625.6666666666666</ele><time>2026-05-01T10:21:32.656Z</time></trkpt><trkpt lat="44.3267017" lon="10.9536317"><ele>626.3333333333334</ele><time>2026-05-01T10:21:33.657Z</time></trkpt><trkpt lat="44.3267333" lon="10.9537417"><ele>627.0</ele><time>2026-05-01T10:21:34.66Z</time></trkpt><trkpt lat="44.3267633" lon="10.9538533"><ele>628.5714285714286</ele><time>2026-05-01T10:21:35.657Z</time></trkpt><trkpt lat="44.326785" lon="10.9539617"><ele>630.1428571428571</ele><time>2026-05-01T10:21:36.657Z</time></trkpt><trkpt lat="44.3268" lon="10.954065"><ele>631.7142857142858</ele><time>2026-05-01T10:21:37.697Z</time></trkpt><trkpt lat="44.3268067" lon="10.95416"><ele>633.2857142857142</ele><time>2026-05-01T10:21:38.659Z</time></trkpt><trkpt lat="44.3268133" lon="10.95425"><ele>634.8571428571428</ele><time>2026-05-01T10:21:39.659Z</time></trkpt><trkpt lat="44.3268167" lon="10.954345"><ele>636.4285714285714</ele><time>2026-05-01T10:21:40.659Z</time></trkpt><trkpt lat="44.326805" lon="10.9544383"><ele>638.0</ele><time>2026-05-01T10:21:41.657Z</time></trkpt><trkpt lat="44.32678" lon="10.9545217"><ele>639.5</ele><time>2026-05-01T10:21:42.659Z</time></trkpt><trkpt lat="44.3267467" lon="10.9545983"><ele>641.0</ele><time>2026-05-01T10:21:43.658Z</time></trkpt><trkpt lat="44.3267183" lon="10.9546867"><ele>642.5</ele><time>2026-05-01T10:21:44.662Z</time></trkpt><trkpt lat="44.3266933" lon="10.9547817"><ele>644.0</ele><time>2026-05-01T10:21:45.66Z</time></trkpt><trkpt lat="44.3266717" lon="10.9548817"><ele>645.5</ele><time>2026-05-01T10:21:46.655Z</time></trkpt><trkpt lat="44.3266583" lon="10.955045"><ele>647.0</ele><time>2026-05-01T10:21:48.655Z</time></trkpt><trkpt lat="44.3267" lon="10.9552433"><ele>647.0</ele><time>2026-05-01T10:21:50.663Z</time></trkpt><trkpt lat="44.32676" lon="10.9553717"><ele>647.0</ele><time>2026-05-01T10:21:51.659Z</time></trkpt><trkpt lat="44.3268167" lon="10.9554983"><ele>647.0</ele><time>2026-05-01T10:21:52.664Z</time></trkpt><trkpt lat="44.3268683" lon="10.955635"><ele>647.0</ele><time>2026-05-01T10:21:53.66Z</time></trkpt><trkpt lat="44.3269117" lon="10.9557733"><ele>647.0</ele><time>2026-05-01T10:21:54.656Z</time></trkpt><trkpt lat="44.3269483" lon="10.9559033"><ele>646.2857142857142</ele><time>2026-05-01T10:21:55.656Z</time></trkpt><trkpt lat="44.3269717" lon="10.956015"><ele>645.5714285714286</ele><time>2026-05-01T10:21:56.66Z</time></trkpt><trkpt lat="44.32699" lon="10.95611"><ele>644.8571428571429</ele><time>2026-05-01T10:21:57.663Z</time></trkpt><trkpt lat="44.327" lon="10.9562017"><ele>644.1428571428571</ele><time>2026-05-01T10:21:58.657Z</time></trkpt><trkpt lat="44.3270017" lon="10.9563067"><ele>643.4285714285714</ele><time>2026-05-01T10:21:59.656Z</time></trkpt><trkpt lat="44.3270017" lon="10.956415"><ele>642.7142857142857</ele><time>2026-05-01T10:22:00.659Z</time></trkpt><trkpt lat="44.3270083" lon="10.9565217"><ele>642.0</ele><time>2026-05-01T10:22:01.657Z</time></trkpt><trkpt lat="44.3270233" lon="10.956615"><ele>642.0</ele><time>2026-05-01T10:22:02.66Z</time></trkpt><trkpt lat="44.327045" lon="10.9567183"><ele>642.0</ele><time>2026-05-01T10:22:03.66Z</time></trkpt><trkpt lat="44.3270667" lon="10.9568367"><ele>642.0</ele><time>2026-05-01T10:22:04.657Z</time></trkpt><trkpt lat="44.32709" lon="10.9569617"><ele>642.0</ele><time>2026-05-01T10:22:05.659Z</time></trkpt><trkpt lat="44.3271133" lon="10.9570933"><ele>642.0</ele><time>2026-05-01T10:22:06.657Z</time></trkpt><trkpt lat="44.3271333" lon="10.9572283"><ele>642.0</ele><time>2026-05-01T10:22:07.659Z</time></trkpt><trkpt lat="44.3271533" lon="10.9573667"><ele>642.0</ele><time>2026-05-01T10:22:08.664Z</time></trkpt><trkpt lat="44.3271817" lon="10.9575067"><ele>642.0</ele><time>2026-05-01T10:22:09.662Z</time></trkpt><trkpt lat="44.3272183" lon="10.95764"><ele>642.0</ele><time>2026-05-01T10:22:10.664Z</time></trkpt><trkpt lat="44.3272583" lon="10.9577533"><ele>642.0</ele><time>2026-05-01T10:22:11.66Z</time></trkpt><trkpt lat="44.327295" lon="10.957855"><ele>644.0</ele><time>2026-05-01T10:22:12.66Z</time></trkpt><trkpt lat="44.327325" lon="10.957955"><ele>646.0</ele><time>2026-05-01T10:22:13.657Z</time></trkpt><trkpt lat="44.3273533" lon="10.95806"><ele>648.0</ele><time>2026-05-01T10:22:14.659Z</time></trkpt><trkpt lat="44.32739" lon="10.9581733"><ele>650.0</ele><time>2026-05-01T10:22:15.657Z</time></trkpt><trkpt lat="44.32743" lon="10.958305"><ele>652.0</ele><time>2026-05-01T10:22:16.655Z</time></trkpt><trkpt lat="44.3274667" lon="10.9584433"><ele>653.0</ele><time>2026-05-01T10:22:17.657Z</time></trkpt><trkpt lat="44.3275017" lon="10.958575"><ele>654.0</ele><time>2026-05-01T10:22:18.658Z</time></trkpt><trkpt lat="44.3275383" lon="10.9586917"><ele>655.0</ele><time>2026-05-01T10:22:19.661Z</time></trkpt><trkpt lat="44.3275717" lon="10.95881"><ele>656.0</ele><time>2026-05-01T10:22:20.655Z</time></trkpt><trkpt lat="44.3276017" lon="10.9589267"><ele>657.0</ele><time>2026-05-01T10:22:21.658Z</time></trkpt><trkpt lat="44.3276283" lon="10.9590433"><ele>657.0</ele><time>2026-05-01T10:22:22.663Z</time></trkpt><trkpt lat="44.3276533" lon="10.9591583"><ele>657.0</ele><time>2026-05-01T10:22:23.655Z</time></trkpt><trkpt lat="44.327675" lon="10.9592967"><ele>657.0</ele><time>2026-05-01T10:22:24.666Z</time></trkpt><trkpt lat="44.32769" lon="10.95945"><ele>657.0</ele><time>2026-05-01T10:22:25.656Z</time></trkpt><trkpt lat="44.3277" lon="10.9595883"><ele>657.0</ele><time>2026-05-01T10:22:26.662Z</time></trkpt><trkpt lat="44.3277067" lon="10.9597067"><ele>658.1666666666666</ele><time>2026-05-01T10:22:27.659Z</time></trkpt><trkpt lat="44.3277117" lon="10.9598117"><ele>659.3333333333334</ele><time>2026-05-01T10:22:28.658Z</time></trkpt><trkpt lat="44.3277117" lon="10.9599133"><ele>660.5</ele><time>2026-05-01T10:22:29.659Z</time></trkpt><trkpt lat="44.3277133" lon="10.9600217"><ele>661.6666666666667</ele><time>2026-05-01T10:22:30.656Z</time></trkpt><trkpt lat="44.32772" lon="10.9601367"><ele>662.8333333333334</ele><time>2026-05-01T10:22:31.663Z</time></trkpt><trkpt lat="44.3277317" lon="10.9602583"><ele>664.0</ele><time>2026-05-01T10:22:32.657Z</time></trkpt><trkpt lat="44.3277483" lon="10.960385"><ele>665.2</ele><time>2026-05-01T10:22:33.663Z</time></trkpt><trkpt lat="44.3277683" lon="10.9605117"><ele>666.4000000000001</ele><time>2026-05-01T10:22:34.656Z</time></trkpt><trkpt lat="44.3277967" lon="10.9606483"><ele>667.6</ele><time>2026-05-01T10:22:35.661Z</time></trkpt><trkpt lat="44.3278283" lon="10.9607883"><ele>668.8</ele><time>2026-05-01T10:22:36.659Z</time></trkpt><trkpt lat="44.3278617" lon="10.9609217"><ele>670.0</ele><time>2026-05-01T10:22:37.658Z</time></trkpt><trkpt lat="44.327895" lon="10.9610567"><ele>670.1666666666667</ele><time>2026-05-01T10:22:38.662Z</time></trkpt><trkpt lat="44.3279267" lon="10.961185"><ele>670.3333333333334</ele><time>2026-05-01T10:22:39.662Z</time></trkpt><trkpt lat="44.3279533" lon="10.9612983"><ele>670.5</ele><time>2026-05-01T10:22:40.658Z</time></trkpt><trkpt lat="44.327975" lon="10.9614"><ele>670.6666666666666</ele><time>2026-05-01T10:22:41.66Z</time></trkpt><trkpt lat="44.3279867" lon="10.9614983"><ele>670.8333333333333</ele><time>2026-05-01T10:22:42.657Z</time></trkpt><trkpt lat="44.3279783" lon="10.9615983"><ele>671.0</ele><time>2026-05-01T10:22:43.656Z</time></trkpt><trkpt lat="44.3279517" lon="10.9616983"><ele>670.8</ele><time>2026-05-01T10:22:44.661Z</time></trkpt><trkpt lat="44.3279133" lon="10.9618083"><ele>670.5999999999999</ele><time>2026-05-01T10:22:45.66Z</time></trkpt><trkpt lat="44.3278717" lon="10.96194"><ele>670.4</ele><time>2026-05-01T10:22:46.656Z</time></trkpt><trkpt lat="44.3278317" lon="10.9620817"><ele>670.2</ele><time>2026-05-01T10:22:47.665Z</time></trkpt><trkpt lat="44.3277983" lon="10.9622283"><ele>670.0</ele><time>2026-05-01T10:22:48.66Z</time></trkpt><trkpt lat="44.3277733" lon="10.9623833"><ele>670.4</ele><time>2026-05-01T10:22:49.659Z</time></trkpt><trkpt lat="44.3277533" lon="10.962535"><ele>670.8</ele><time>2026-05-01T10:22:50.658Z</time></trkpt><trkpt lat="44.3277333" lon="10.962685"><ele>671.2</ele><time>2026-05-01T10:22:51.66Z</time></trkpt><trkpt lat="44.3277033" lon="10.9628233"><ele>671.6</ele><time>2026-05-01T10:22:52.657Z</time></trkpt><trkpt lat="44.3276633" lon="10.962955"><ele>672.0</ele><time>2026-05-01T10:22:53.66Z</time></trkpt><trkpt lat="44.3276167" lon="10.963085"><ele>672.0</ele><time>2026-05-01T10:22:54.658Z</time></trkpt><trkpt lat="44.3275683" lon="10.9632117"><ele>672.0</ele><time>2026-05-01T10:22:55.658Z</time></trkpt><trkpt lat="44.3275267" lon="10.963345"><ele>672.0</ele><time>2026-05-01T10:22:56.66Z</time></trkpt><trkpt lat="44.327485" lon="10.96349"><ele>672.0</ele><time>2026-05-01T10:22:57.658Z</time></trkpt><trkpt lat="44.3274467" lon="10.96364"><ele>672.0</ele><time>2026-05-01T10:22:58.661Z</time></trkpt><trkpt lat="44.32741" lon="10.9637917"><ele>673.0</ele><time>2026-05-01T10:22:59.659Z</time></trkpt><trkpt lat="44.3273717" lon="10.9639417"><ele>674.0</ele><time>2026-05-01T10:23:00.659Z</time></trkpt><trkpt lat="44.3273317" lon="10.9640883"><ele>675.0</ele><time>2026-05-01T10:23:01.657Z</time></trkpt><trkpt lat="44.3272933" lon="10.9642483"><ele>676.0</ele><time>2026-05-01T10:23:02.661Z</time></trkpt><trkpt lat="44.32725" lon="10.9644067"><ele>671.0</ele><time>2026-05-01T10:23:03.659Z</time></trkpt><trkpt lat="44.327195" lon="10.9645617"><ele>666.0</ele><time>2026-05-01T10:23:04.659Z</time></trkpt><trkpt lat="44.32713" lon="10.964715"><ele>661.0</ele><time>2026-05-01T10:23:05.655Z</time></trkpt><trkpt lat="44.327075" lon="10.9648717"><ele>656.0</ele><time>2026-05-01T10:23:06.656Z</time></trkpt><trkpt lat="44.3270333" lon="10.96502"><ele>658.0</ele><time>2026-05-01T10:23:07.659Z</time></trkpt><trkpt lat="44.3270083" lon="10.9651667"><ele>660.0</ele><time>2026-05-01T10:23:08.661Z</time></trkpt><trkpt lat="44.326995" lon="10.9653133"><ele>662.0</ele><time>2026-05-01T10:23:09.658Z</time></trkpt><trkpt lat="44.3269967" lon="10.9654583"><ele>664.0</ele><time>2026-05-01T10:23:10.659Z</time></trkpt><trkpt lat="44.3270067" lon="10.9655967"><ele>666.0</ele><time>2026-05-01T10:23:11.659Z</time></trkpt><trkpt lat="44.3270067" lon="10.9657283"><ele>666.0</ele><time>2026-05-01T10:23:12.659Z</time></trkpt><trkpt lat="44.3269783" lon="10.96585"><ele>666.0</ele><time>2026-05-01T10:23:13.658Z</time></trkpt><trkpt lat="44.3269283" lon="10.965955"><ele>666.0</ele><time>2026-05-01T10:23:14.665Z</time></trkpt><trkpt lat="44.3268467" lon="10.966045"><ele>666.0</ele><time>2026-05-01T10:23:15.66Z</time></trkpt><trkpt lat="44.3267383" lon="10.966125"><ele>666.0</ele><time>2026-05-01T10:23:16.658Z</time></trkpt><trkpt lat="44.3266217" lon="10.9662117"><ele>665.75</ele><time>2026-05-01T10:23:17.659Z</time></trkpt><trkpt lat="44.3265117" lon="10.96631"><ele>665.5</ele><time>2026-05-01T10:23:18.659Z</time></trkpt><trkpt lat="44.3264233" lon="10.96643"><ele>665.25</ele><time>2026-05-01T10:23:19.658Z</time></trkpt><trkpt lat="44.3263483" lon="10.9665717"><ele>665.0</ele><time>2026-05-01T10:23:20.661Z</time></trkpt><trkpt lat="44.3262867" lon="10.9667333"><ele>666.5</ele><time>2026-05-01T10:23:21.661Z</time></trkpt><trkpt lat="44.3262333" lon="10.966905"><ele>668.0</ele><time>2026-05-01T10:23:22.658Z</time></trkpt><trkpt lat="44.3261867" lon="10.9670883"><ele>669.5</ele><time>2026-05-01T10:23:23.657Z</time></trkpt><trkpt lat="44.32615" lon="10.967275"><ele>671.0</ele><time>2026-05-01T10:23:24.657Z</time></trkpt><trkpt lat="44.3261333" lon="10.96746"><ele>671.5</ele><time>2026-05-01T10:23:25.659Z</time></trkpt><trkpt lat="44.3261367" lon="10.9676467"><ele>672.0</ele><time>2026-05-01T10:23:26.663Z</time></trkpt><trkpt lat="44.3261633" lon="10.9678283"><ele>672.5</ele><time>2026-05-01T10:23:27.657Z</time></trkpt><trkpt lat="44.3262167" lon="10.9680083"><ele>673.0</ele><time>2026-05-01T10:23:28.66Z</time></trkpt><trkpt lat="44.326275" lon="10.9681783"><ele>673.0</ele><time>2026-05-01T10:23:29.658Z</time></trkpt><trkpt lat="44.326325" lon="10.968345"><ele>673.0</ele><time>2026-05-01T10:23:30.66Z</time></trkpt><trkpt lat="44.326355" lon="10.9685217"><ele>673.0</ele><time>2026-05-01T10:23:31.656Z</time></trkpt><trkpt lat="44.3263717" lon="10.9687017"><ele>673.0</ele><time>2026-05-01T10:23:32.658Z</time></trkpt><trkpt lat="44.32638" lon="10.9688767"><ele>673.5999999999999</ele><time>2026-05-01T10:23:33.66Z</time></trkpt><trkpt lat="44.3263783" lon="10.969045"><ele>674.1999999999999</ele><time>2026-05-01T10:23:34.659Z</time></trkpt><trkpt lat="44.3263633" lon="10.9692067"><ele>674.8</ele><time>2026-05-01T10:23:35.663Z</time></trkpt><trkpt lat="44.3263317" lon="10.969355"><ele>675.4</ele><time>2026-05-01T10:23:36.657Z</time></trkpt><trkpt lat="44.3262967" lon="10.96948"><ele>676.0</ele><time>2026-05-01T10:23:37.659Z</time></trkpt><trkpt lat="44.3262667" lon="10.96959"><ele>676.1666666666667</ele><time>2026-05-01T10:23:38.663Z</time></trkpt><trkpt lat="44.3262317" lon="10.9696867"><ele>676.3333333333334</ele><time>2026-05-01T10:23:39.656Z</time></trkpt><trkpt lat="44.3261883" lon="10.9697767"><ele>676.5</ele><time>2026-05-01T10:23:40.661Z</time></trkpt><trkpt lat="44.32613" lon="10.969865"><ele>676.6666666666666</ele><time>2026-05-01T10:23:41.655Z</time></trkpt><trkpt lat="44.3260533" lon="10.9699483"><ele>676.8333333333333</ele><time>2026-05-01T10:23:42.665Z</time></trkpt><trkpt lat="44.32597" lon="10.9700267"><ele>677.0</ele><time>2026-05-01T10:23:43.659Z</time></trkpt><trkpt lat="44.3258833" lon="10.970095"><ele>676.5</ele><time>2026-05-01T10:23:44.665Z</time></trkpt><trkpt lat="44.3258" lon="10.970155"><ele>676.0</ele><time>2026-05-01T10:23:45.662Z</time></trkpt><trkpt lat="44.325725" lon="10.9702083"><ele>675.5</ele><time>2026-05-01T10:23:46.661Z</time></trkpt><trkpt lat="44.3256633" lon="10.9702633"><ele>675.0</ele><time>2026-05-01T10:23:47.66Z</time></trkpt><trkpt lat="44.3255933" lon="10.9703717"><ele>674.5</ele><time>2026-05-01T10:23:49.661Z</time></trkpt><trkpt lat="44.3255833" lon="10.9704817"><ele>674.0</ele><time>2026-05-01T10:23:51.66Z</time></trkpt><trkpt lat="44.3255883" lon="10.9706017"><ele>674.0</ele><time>2026-05-01T10:23:53.661Z</time></trkpt><trkpt lat="44.3255967" lon="10.9707417"><ele>674.0</ele><time>2026-05-01T10:23:55.659Z</time></trkpt><trkpt lat="44.3255917" lon="10.9708933"><ele>674.0</ele><time>2026-05-01T10:23:57.659Z</time></trkpt><trkpt lat="44.3255833" lon="10.97108"><ele>674.0</ele><time>2026-05-01T10:23:59.657Z</time></trkpt><trkpt lat="44.3255767" lon="10.9711833"><ele>674.0</ele><time>2026-05-01T10:24:00.662Z</time></trkpt><trkpt lat="44.325565" lon="10.9712983"><ele>673.8000000000001</ele><time>2026-05-01T10:24:01.66Z</time></trkpt><trkpt lat="44.32555" lon="10.9714183"><ele>673.6</ele><time>2026-05-01T10:24:02.658Z</time></trkpt><trkpt lat="44.3255233" lon="10.9715467"><ele>673.4</ele><time>2026-05-01T10:24:03.658Z</time></trkpt><trkpt lat="44.325485" lon="10.9716767"><ele>673.2</ele><time>2026-05-01T10:24:04.659Z</time></trkpt><trkpt lat="44.3254483" lon="10.9718017"><ele>673.0</ele><time>2026-05-01T10:24:05.656Z</time></trkpt><trkpt lat="44.3254083" lon="10.9719133"><ele>670.8</ele><time>2026-05-01T10:24:06.656Z</time></trkpt><trkpt lat="44.32536" lon="10.9720117"><ele>668.5999999999999</ele><time>2026-05-01T10:24:07.655Z</time></trkpt><trkpt lat="44.325305" lon="10.9721"><ele>666.4000000000001</ele><time>2026-05-01T10:24:08.657Z</time></trkpt><trkpt lat="44.3252367" lon="10.9721817"><ele>664.2</ele><time>2026-05-01T10:24:09.663Z</time></trkpt><trkpt lat="44.325155" lon="10.972255"><ele>662.0</ele><time>2026-05-01T10:24:10.656Z</time></trkpt><trkpt lat="44.3250767" lon="10.97233"><ele>662.0</ele><time>2026-05-01T10:24:11.661Z</time></trkpt><trkpt lat="44.3250017" lon="10.9724017"><ele>662.0</ele><time>2026-05-01T10:24:12.655Z</time></trkpt><trkpt lat="44.324935" lon="10.9724617"><ele>662.0</ele><time>2026-05-01T10:24:13.66Z</time></trkpt><trkpt lat="44.3248717" lon="10.9725067"><ele>662.0</ele><time>2026-05-01T10:24:14.657Z</time></trkpt><trkpt lat="44.3248133" lon="10.972545"><ele>662.0</ele><time>2026-05-01T10:24:15.657Z</time></trkpt><trkpt lat="44.32471" lon="10.9726133"><ele>662.0</ele><time>2026-05-01T10:24:17.654Z</time></trkpt><trkpt lat="44.324625" lon="10.9726767"><ele>659.0</ele><time>2026-05-01T10:24:19.657Z</time></trkpt><trkpt lat="44.32459" lon="10.9727783"><ele>656.0</ele><time>2026-05-01T10:24:21.658Z</time></trkpt><trkpt lat="44.324585" lon="10.9729217"><ele>653.0</ele><time>2026-05-01T10:24:23.667Z</time></trkpt><trkpt lat="44.3245767" lon="10.9730733"><ele>650.0</ele><time>2026-05-01T10:24:25.661Z</time></trkpt><trkpt lat="44.324575" lon="10.97322"><ele>647.0</ele><time>2026-05-01T10:24:27.659Z</time></trkpt><trkpt lat="44.32457" lon="10.9733783"><ele>644.0</ele><time>2026-05-01T10:24:29.661Z</time></trkpt><trkpt lat="44.324555" lon="10.9735217"><ele>641.0</ele><time>2026-05-01T10:24:31.658Z</time></trkpt><trkpt lat="44.3245367" lon="10.9736583"><ele>638.0</ele><time>2026-05-01T10:24:33.659Z</time></trkpt><trkpt lat="44.3245633" lon="10.9737933"><ele>635.0</ele><time>2026-05-01T10:24:35.66Z</time></trkpt><trkpt lat="44.3246267" lon="10.973935"><ele>632.0</ele><time>2026-05-01T10:24:37.657Z</time></trkpt><trkpt lat="44.3246483" lon="10.9740217"><ele>632.0000000000001</ele><time>2026-05-01T10:24:38.663Z</time></trkpt><trkpt lat="44.3246567" lon="10.974125"><ele>632.0</ele><time>2026-05-01T10:24:39.66Z</time></trkpt><trkpt lat="44.3246633" lon="10.9742233"><ele>632.0</ele><time>2026-05-01T10:24:40.661Z</time></trkpt><trkpt lat="44.3246783" lon="10.9743183"><ele>632.0</ele><time>2026-05-01T10:24:41.661Z</time></trkpt><trkpt lat="44.3246983" lon="10.9744117"><ele>632.0</ele><time>2026-05-01T10:24:42.667Z</time></trkpt><trkpt lat="44.3247267" lon="10.9745017"><ele>632.0000000000001</ele><time>2026-05-01T10:24:43.661Z</time></trkpt><trkpt lat="44.324765" lon="10.9745867"><ele>632.0</ele><time>2026-05-01T10:24:44.661Z</time></trkpt><trkpt lat="44.3248117" lon="10.974665"><ele>634.0</ele><time>2026-05-01T10:24:45.657Z</time></trkpt><trkpt lat="44.3248667" lon="10.97475"><ele>636.0</ele><time>2026-05-01T10:24:46.661Z</time></trkpt><trkpt lat="44.32492" lon="10.9748283"><ele>638.0</ele><time>2026-05-01T10:24:47.656Z</time></trkpt><trkpt lat="44.3249783" lon="10.9749033"><ele>640.0</ele><time>2026-05-01T10:24:48.669Z</time></trkpt><trkpt lat="44.32504" lon="10.9749833"><ele>642.0</ele><time>2026-05-01T10:24:49.66Z</time></trkpt><trkpt lat="44.3250967" lon="10.975075"><ele>644.0</ele><time>2026-05-01T10:24:50.66Z</time></trkpt><trkpt lat="44.3251467" lon="10.9751567"><ele>644.0</ele><time>2026-05-01T10:24:51.657Z</time></trkpt><trkpt lat="44.3251833" lon="10.9752283"><ele>644.0</ele><time>2026-05-01T10:24:52.657Z</time></trkpt><trkpt lat="44.3252383" lon="10.9753383"><ele>644.0</ele><time>2026-05-01T10:24:54.658Z</time></trkpt><trkpt lat="44.3252717" lon="10.9754583"><ele>644.0</ele><time>2026-05-01T10:24:56.656Z</time></trkpt><trkpt lat="44.3252717" lon="10.975585"><ele>644.0</ele><time>2026-05-01T10:24:58.66Z</time></trkpt><trkpt lat="44.3252533" lon="10.975685"><ele>644.0</ele><time>2026-05-01T10:25:00.657Z</time></trkpt><trkpt lat="44.32525" lon="10.9757833"><ele>644.8333333333333</ele><time>2026-05-01T10:25:02.66Z</time></trkpt><trkpt lat="44.3252483" lon="10.9758933"><ele>645.6666666666666</ele><time>2026-05-01T10:25:04.656Z</time></trkpt><trkpt lat="44.32525" lon="10.97602"><ele>646.5</ele><time>2026-05-01T10:25:06.659Z</time></trkpt><trkpt lat="44.32524" lon="10.9761517"><ele>647.3333333333334</ele><time>2026-05-01T10:25:08.653Z</time></trkpt><trkpt lat="44.325225" lon="10.9763017"><ele>648.1666666666667</ele><time>2026-05-01T10:25:10.655Z</time></trkpt><trkpt lat="44.3252217" lon="10.976395"><ele>649.0</ele><time>2026-05-01T10:25:11.658Z</time></trkpt><trkpt lat="44.3252183" lon="10.9764867"><ele>649.0</ele><time>2026-05-01T10:25:12.662Z</time></trkpt><trkpt lat="44.325215" lon="10.9765833"><ele>649.0</ele><time>2026-05-01T10:25:13.658Z</time></trkpt><trkpt lat="44.3252117" lon="10.9766717"><ele>649.0</ele><time>2026-05-01T10:25:14.656Z</time></trkpt><trkpt lat="44.3252233" lon="10.9768033"><ele>649.0</ele><time>2026-05-01T10:25:16.658Z</time></trkpt><trkpt lat="44.32527" lon="10.976885"><ele>649.0</ele><time>2026-05-01T10:25:18.664Z</time></trkpt><trkpt lat="44.325335" lon="10.9769783"><ele>649.0</ele><time>2026-05-01T10:25:20.659Z</time></trkpt><trkpt lat="44.32537" lon="10.977055"><ele>651.2</ele><time>2026-05-01T10:25:21.663Z</time></trkpt><trkpt lat="44.325405" lon="10.97713"><ele>653.4000000000001</ele><time>2026-05-01T10:25:22.655Z</time></trkpt><trkpt lat="44.3255" lon="10.9772267"><ele>655.6</ele><time>2026-05-01T10:25:24.657Z</time></trkpt><trkpt lat="44.3256017" lon="10.9773033"><ele>657.8</ele><time>2026-05-01T10:25:26.661Z</time></trkpt><trkpt lat="44.3256933" lon="10.97732"><ele>660.0</ele><time>2026-05-01T10:25:28.661Z</time></trkpt><trkpt lat="44.3257517" lon="10.9772867"><ele>663.3333333333334</ele><time>2026-05-01T10:25:30.663Z</time></trkpt><trkpt lat="44.3258183" lon="10.9772117"><ele>666.6666666666666</ele><time>2026-05-01T10:25:32.659Z</time></trkpt><trkpt lat="44.325885" lon="10.9771133"><ele>670.0</ele><time>2026-05-01T10:25:34.663Z</time></trkpt><trkpt lat="44.3259033" lon="10.9769867"><ele>673.3333333333333</ele><time>2026-05-01T10:25:36.66Z</time></trkpt><trkpt lat="44.3259317" lon="10.9768967"><ele>676.6666666666666</ele><time>2026-05-01T10:25:38.658Z</time></trkpt><trkpt lat="44.3260017" lon="10.9768733"><ele>680.0</ele><time>2026-05-01T10:25:41.665Z</time></trkpt><trkpt lat="44.326065" lon="10.9768733"><ele>680.0</ele><time>2026-05-01T10:25:43.657Z</time></trkpt><trkpt lat="44.326155" lon="10.9768683"><ele>680.0</ele><time>2026-05-01T10:25:45.658Z</time></trkpt><trkpt lat="44.3262567" lon="10.9768917"><ele>680.0</ele><time>2026-05-01T10:25:47.66Z</time></trkpt><trkpt lat="44.3263517" lon="10.9769767"><ele>680.0</ele><time>2026-05-01T10:25:49.663Z</time></trkpt><trkpt lat="44.3263817" lon="10.9770567"><ele>680.0</ele><time>2026-05-01T10:25:50.66Z</time></trkpt><trkpt lat="44.3263983" lon="10.9771583"><ele>680.0</ele><time>2026-05-01T10:25:51.661Z</time></trkpt><trkpt lat="44.3264233" lon="10.977255"><ele>683.0</ele><time>2026-05-01T10:25:52.659Z</time></trkpt><trkpt lat="44.3264433" lon="10.97735"><ele>686.0</ele><time>2026-05-01T10:25:53.657Z</time></trkpt><trkpt lat="44.326465" lon="10.97745"><ele>689.0</ele><time>2026-05-01T10:25:54.657Z</time></trkpt><trkpt lat="44.3264767" lon="10.977565"><ele>692.0</ele><time>2026-05-01T10:25:55.662Z</time></trkpt><trkpt lat="44.326485" lon="10.9776883"><ele>695.0</ele><time>2026-05-01T10:25:56.662Z</time></trkpt><trkpt lat="44.3264917" lon="10.9778117"><ele>698.0</ele><time>2026-05-01T10:25:57.66Z</time></trkpt><trkpt lat="44.3264883" lon="10.977935"><ele>698.0</ele><time>2026-05-01T10:25:58.66Z</time></trkpt><trkpt lat="44.3264767" lon="10.9780567"><ele>698.0</ele><time>2026-05-01T10:25:59.658Z</time></trkpt><trkpt lat="44.3264583" lon="10.9781617"><ele>698.0</ele><time>2026-05-01T10:26:00.658Z</time></trkpt><trkpt lat="44.3264333" lon="10.9782483"><ele>698.0</ele><time>2026-05-01T10:26:01.656Z</time></trkpt><trkpt lat="44.326385" lon="10.9783867"><ele>698.0</ele><time>2026-05-01T10:26:03.661Z</time></trkpt><trkpt lat="44.3263217" lon="10.9785367"><ele>698.5999999999999</ele><time>2026-05-01T10:26:05.658Z</time></trkpt><trkpt lat="44.3262833" lon="10.9786217"><ele>699.1999999999999</ele><time>2026-05-01T10:26:06.658Z</time></trkpt><trkpt lat="44.32624" lon="10.978785"><ele>699.8</ele><time>2026-05-01T10:26:08.66Z</time></trkpt><trkpt lat="44.3262367" lon="10.9789567"><ele>700.4</ele><time>2026-05-01T10:26:10.658Z</time></trkpt><trkpt lat="44.326245" lon="10.9790717"><ele>701.0</ele><time>2026-05-01T10:26:11.659Z</time></trkpt><trkpt lat="44.326245" lon="10.9791967"><ele>701.0</ele><time>2026-05-01T10:26:12.661Z</time></trkpt><trkpt lat="44.3262483" lon="10.9793267"><ele>701.0</ele><time>2026-05-01T10:26:13.656Z</time></trkpt><trkpt lat="44.3262483" lon="10.9794633"><ele>701.0</ele><time>2026-05-01T10:26:14.662Z</time></trkpt><trkpt lat="44.32624" lon="10.9796"><ele>701.0</ele><time>2026-05-01T10:26:15.657Z</time></trkpt><trkpt lat="44.3262233" lon="10.979725"><ele>701.0</ele><time>2026-05-01T10:26:16.657Z</time></trkpt><trkpt lat="44.326205" lon="10.9798467"><ele>701.0</ele><time>2026-05-01T10:26:17.664Z</time></trkpt><trkpt lat="44.3261817" lon="10.9799617"><ele>701.0</ele><time>2026-05-01T10:26:18.663Z</time></trkpt><trkpt lat="44.32616" lon="10.980075"><ele>701.0</ele><time>2026-05-01T10:26:19.66Z</time></trkpt><trkpt lat="44.3261367" lon="10.9801817"><ele>701.0</ele><time>2026-05-01T10:26:20.666Z</time></trkpt><trkpt lat="44.32611" lon="10.9802833"><ele>701.0</ele><time>2026-05-01T10:26:21.66Z</time></trkpt><trkpt lat="44.326095" lon="10.980375"><ele>701.0</ele><time>2026-05-01T10:26:22.658Z</time></trkpt><trkpt lat="44.3260883" lon="10.9804633"><ele>700.8571428571429</ele><time>2026-05-01T10:26:23.655Z</time></trkpt><trkpt lat="44.3260917" lon="10.980555"><ele>700.7142857142857</ele><time>2026-05-01T10:26:24.66Z</time></trkpt><trkpt lat="44.3261117" lon="10.980655"><ele>700.5714285714286</ele><time>2026-05-01T10:26:25.658Z</time></trkpt><trkpt lat="44.3261333" lon="10.980755"><ele>700.4285714285714</ele><time>2026-05-01T10:26:26.662Z</time></trkpt><trkpt lat="44.326155" lon="10.98086"><ele>700.2857142857142</ele><time>2026-05-01T10:26:27.656Z</time></trkpt><trkpt lat="44.3261783" lon="10.98096"><ele>700.1428571428571</ele><time>2026-05-01T10:26:28.657Z</time></trkpt><trkpt lat="44.3262067" lon="10.9810533"><ele>700.0</ele><time>2026-05-01T10:26:29.659Z</time></trkpt><trkpt lat="44.3262483" lon="10.981135"><ele>700.4285714285714</ele><time>2026-05-01T10:26:30.659Z</time></trkpt><trkpt lat="44.3262867" lon="10.9812083"><ele>700.8571428571429</ele><time>2026-05-01T10:26:31.662Z</time></trkpt><trkpt lat="44.326325" lon="10.9812817"><ele>701.2857142857142</ele><time>2026-05-01T10:26:32.661Z</time></trkpt><trkpt lat="44.3263533" lon="10.9813667"><ele>701.7142857142858</ele><time>2026-05-01T10:26:33.664Z</time></trkpt><trkpt lat="44.32637" lon="10.9814517"><ele>702.1428571428571</ele><time>2026-05-01T10:26:34.656Z</time></trkpt><trkpt lat="44.3263917" lon="10.9815383"><ele>702.5714285714286</ele><time>2026-05-01T10:26:35.654Z</time></trkpt><trkpt lat="44.326425" lon="10.9816267"><ele>703.0</ele><time>2026-05-01T10:26:36.662Z</time></trkpt><trkpt lat="44.3264667" lon="10.98171"><ele>703.0</ele><time>2026-05-01T10:26:37.657Z</time></trkpt><trkpt lat="44.326515" lon="10.9817833"><ele>703.0</ele><time>2026-05-01T10:26:38.664Z</time></trkpt><trkpt lat="44.3265683" lon="10.98185"><ele>703.0</ele><time>2026-05-01T10:26:39.657Z</time></trkpt><trkpt lat="44.3266083" lon="10.9819217"><ele>703.0</ele><time>2026-05-01T10:26:40.657Z</time></trkpt><trkpt lat="44.3266417" lon="10.982"><ele>703.0</ele><time>2026-05-01T10:26:41.66Z</time></trkpt><trkpt lat="44.3266617" lon="10.9820867"><ele>703.0</ele><time>2026-05-01T10:26:42.659Z</time></trkpt><trkpt lat="44.3266733" lon="10.9821817"><ele>703.0</ele><time>2026-05-01T10:26:43.662Z</time></trkpt><trkpt lat="44.3266733" lon="10.9822833"><ele>703.0</ele><time>2026-05-01T10:26:44.661Z</time></trkpt><trkpt lat="44.3266817" lon="10.9823883"><ele>703.0</ele><time>2026-05-01T10:26:45.66Z</time></trkpt><trkpt lat="44.32671" lon="10.9824917"><ele>703.0</ele><time>2026-05-01T10:26:46.658Z</time></trkpt><trkpt lat="44.3267517" lon="10.98257"><ele>703.0</ele><time>2026-05-01T10:26:47.657Z</time></trkpt><trkpt lat="44.3268083" lon="10.9826367"><ele>703.0</ele><time>2026-05-01T10:26:48.658Z</time></trkpt><trkpt lat="44.326875" lon="10.9826833"><ele>703.0</ele><time>2026-05-01T10:26:49.658Z</time></trkpt><trkpt lat="44.3269433" lon="10.9827317"><ele>702.5</ele><time>2026-05-01T10:26:50.659Z</time></trkpt><trkpt lat="44.327015" lon="10.9827917"><ele>702.0</ele><time>2026-05-01T10:26:51.658Z</time></trkpt><trkpt lat="44.3270783" lon="10.98286"><ele>701.5</ele><time>2026-05-01T10:26:52.658Z</time></trkpt><trkpt lat="44.32714" lon="10.9829283"><ele>701.0</ele><time>2026-05-01T10:26:53.656Z</time></trkpt><trkpt lat="44.327205" lon="10.9830017"><ele>700.5</ele><time>2026-05-01T10:26:54.661Z</time></trkpt><trkpt lat="44.3272733" lon="10.98306"><ele>700.0</ele><time>2026-05-01T10:26:55.661Z</time></trkpt><trkpt lat="44.32734" lon="10.9830967"><ele>700.0</ele><time>2026-05-01T10:26:56.656Z</time></trkpt><trkpt lat="44.3274083" lon="10.9831183"><ele>700.0</ele><time>2026-05-01T10:26:57.657Z</time></trkpt><trkpt lat="44.3274767" lon="10.9831133"><ele>700.0</ele><time>2026-05-01T10:26:58.654Z</time></trkpt><trkpt lat="44.3275967" lon="10.9831567"><ele>700.0</ele><time>2026-05-01T10:27:00.66Z</time></trkpt><trkpt lat="44.327665" lon="10.983205"><ele>700.0</ele><time>2026-05-01T10:27:01.66Z</time></trkpt><trkpt lat="44.327715" lon="10.9832717"><ele>700.0</ele><time>2026-05-01T10:27:02.658Z</time></trkpt><trkpt lat="44.3277533" lon="10.9833483"><ele>700.5</ele><time>2026-05-01T10:27:03.659Z</time></trkpt><trkpt lat="44.3277917" lon="10.9834333"><ele>701.0</ele><time>2026-05-01T10:27:04.657Z</time></trkpt><trkpt lat="44.3278433" lon="10.9835233"><ele>701.5</ele><time>2026-05-01T10:27:05.658Z</time></trkpt><trkpt lat="44.3279033" lon="10.98361"><ele>702.0</ele><time>2026-05-01T10:27:06.659Z</time></trkpt><trkpt lat="44.3279617" lon="10.9836967"><ele>702.5</ele><time>2026-05-01T10:27:07.656Z</time></trkpt><trkpt lat="44.3280183" lon="10.9837683"><ele>703.0</ele><time>2026-05-01T10:27:08.663Z</time></trkpt><trkpt lat="44.3280717" lon="10.9838383"><ele>703.0</ele><time>2026-05-01T10:27:09.662Z</time></trkpt><trkpt lat="44.3281217" lon="10.9839533"><ele>703.0</ele><time>2026-05-01T10:27:11.66Z</time></trkpt><trkpt lat="44.3280583" lon="10.98404"><ele>703.0</ele><time>2026-05-01T10:27:14.656Z</time></trkpt><trkpt lat="44.3279967" lon="10.98407"><ele>703.0</ele><time>2026-05-01T10:27:16.657Z</time></trkpt><trkpt lat="44.327915" lon="10.9841217"><ele>703.0</ele><time>2026-05-01T10:27:18.657Z</time></trkpt><trkpt lat="44.3278033" lon="10.9842217"><ele>700.5999999999999</ele><time>2026-05-01T10:27:20.661Z</time></trkpt><trkpt lat="44.3277433" lon="10.9843"><ele>698.1999999999999</ele><time>2026-05-01T10:27:21.658Z</time></trkpt><trkpt lat="44.3276783" lon="10.9843817"><ele>695.8</ele><time>2026-05-01T10:27:22.659Z</time></trkpt><trkpt lat="44.327605" lon="10.9844617"><ele>693.4</ele><time>2026-05-01T10:27:23.66Z</time></trkpt><trkpt lat="44.3275317" lon="10.9845533"><ele>691.0</ele><time>2026-05-01T10:27:24.658Z</time></trkpt><trkpt lat="44.3274683" lon="10.984655"><ele>691.0</ele><time>2026-05-01T10:27:25.662Z</time></trkpt><trkpt lat="44.3274083" lon="10.984755"><ele>691.0</ele><time>2026-05-01T10:27:26.66Z</time></trkpt><trkpt lat="44.327355" lon="10.9848267"><ele>691.0</ele><time>2026-05-01T10:27:27.66Z</time></trkpt><trkpt lat="44.3272983" lon="10.9848683"><ele>691.0</ele><time>2026-05-01T10:27:28.66Z</time></trkpt><trkpt lat="44.3272233" lon="10.9849"><ele>691.0</ele><time>2026-05-01T10:27:29.659Z</time></trkpt><trkpt lat="44.3271483" lon="10.9849433"><ele>691.0</ele><time>2026-05-01T10:27:30.657Z</time></trkpt><trkpt lat="44.327075" lon="10.985015"><ele>687.5999999999999</ele><time>2026-05-01T10:27:31.657Z</time></trkpt><trkpt lat="44.3270033" lon="10.9851"><ele>684.2</ele><time>2026-05-01T10:27:32.663Z</time></trkpt><trkpt lat="44.32693" lon="10.9852083"><ele>680.8</ele><time>2026-05-01T10:27:33.66Z</time></trkpt><trkpt lat="44.3268567" lon="10.9853133"><ele>677.4000000000001</ele><time>2026-05-01T10:27:34.657Z</time></trkpt><trkpt lat="44.3267817" lon="10.9854133"><ele>674.0</ele><time>2026-05-01T10:27:35.66Z</time></trkpt><trkpt lat="44.326715" lon="10.9855083"><ele>674.0</ele><time>2026-05-01T10:27:36.659Z</time></trkpt><trkpt lat="44.3266417" lon="10.9856033"><ele>674.0</ele><time>2026-05-01T10:27:37.658Z</time></trkpt><trkpt lat="44.3265683" lon="10.9856967"><ele>674.0</ele><time>2026-05-01T10:27:38.658Z</time></trkpt><trkpt lat="44.32652" lon="10.9857717"><ele>674.0</ele><time>2026-05-01T10:27:39.658Z</time></trkpt><trkpt lat="44.3264617" lon="10.985935"><ele>674.0</ele><time>2026-05-01T10:27:41.657Z</time></trkpt><trkpt lat="44.32644" lon="10.9860217"><ele>671.6666666666666</ele><time>2026-05-01T10:27:42.657Z</time></trkpt><trkpt lat="44.3263767" lon="10.98615"><ele>669.3333333333333</ele><time>2026-05-01T10:27:44.663Z</time></trkpt><trkpt lat="44.3263317" lon="10.98622"><ele>667.0</ele><time>2026-05-01T10:27:45.662Z</time></trkpt><trkpt lat="44.3262917" lon="10.9863017"><ele>664.6666666666666</ele><time>2026-05-01T10:27:46.663Z</time></trkpt><trkpt lat="44.32625" lon="10.986395"><ele>662.3333333333334</ele><time>2026-05-01T10:27:47.658Z</time></trkpt><trkpt lat="44.3262083" lon="10.9864867"><ele>660.0</ele><time>2026-05-01T10:27:48.66Z</time></trkpt><trkpt lat="44.3261567" lon="10.9865717"><ele>660.0</ele><time>2026-05-01T10:27:49.659Z</time></trkpt><trkpt lat="44.3261" lon="10.9866433"><ele>660.0</ele><time>2026-05-01T10:27:50.659Z</time></trkpt><trkpt lat="44.32603" lon="10.986725"><ele>660.0</ele><time>2026-05-01T10:27:51.659Z</time></trkpt><trkpt lat="44.3259617" lon="10.9868083"><ele>660.0</ele><time>2026-05-01T10:27:52.659Z</time></trkpt><trkpt lat="44.3258917" lon="10.986915"><ele>660.0</ele><time>2026-05-01T10:27:53.66Z</time></trkpt><trkpt lat="44.325835" lon="10.98703"><ele>660.3333333333334</ele><time>2026-05-01T10:27:54.663Z</time></trkpt><trkpt lat="44.3257733" lon="10.987125"><ele>660.6666666666666</ele><time>2026-05-01T10:27:55.66Z</time></trkpt><trkpt lat="44.32572" lon="10.9872167"><ele>661.0</ele><time>2026-05-01T10:27:56.659Z</time></trkpt><trkpt lat="44.3256733" lon="10.9873133"><ele>661.3333333333333</ele><time>2026-05-01T10:27:57.659Z</time></trkpt><trkpt lat="44.3256333" lon="10.9874183"><ele>661.6666666666666</ele><time>2026-05-01T10:27:58.654Z</time></trkpt><trkpt lat="44.3256133" lon="10.98753"><ele>662.0</ele><time>2026-05-01T10:27:59.661Z</time></trkpt><trkpt lat="44.3256133" lon="10.987635"><ele>662.5</ele><time>2026-05-01T10:28:00.665Z</time></trkpt><trkpt lat="44.3256283" lon="10.9877383"><ele>663.0</ele><time>2026-05-01T10:28:01.658Z</time></trkpt><trkpt lat="44.3256633" lon="10.987835"><ele>663.5</ele><time>2026-05-01T10:28:02.66Z</time></trkpt><trkpt lat="44.3256833" lon="10.9879217"><ele>664.0</ele><time>2026-05-01T10:28:03.662Z</time></trkpt><trkpt lat="44.3256933" lon="10.98805"><ele>664.5</ele><time>2026-05-01T10:28:05.661Z</time></trkpt><trkpt lat="44.32559" lon="10.9880817"><ele>665.0</ele><time>2026-05-01T10:28:08.66Z</time></trkpt><trkpt lat="44.3255467" lon="10.9881833"><ele>666.0</ele><time>2026-05-01T10:28:11.66Z</time></trkpt><trkpt lat="44.3255967" lon="10.98837"><ele>667.0</ele><time>2026-05-01T10:28:13.659Z</time></trkpt><trkpt lat="44.3256333" lon="10.9884783"><ele>668.0</ele><time>2026-05-01T10:28:14.662Z</time></trkpt><trkpt lat="44.3256583" lon="10.9885867"><ele>669.0</ele><time>2026-05-01T10:28:15.659Z</time></trkpt><trkpt lat="44.32569" lon="10.9886717"><ele>670.0</ele><time>2026-05-01T10:28:16.655Z</time></trkpt><trkpt lat="44.3257283" lon="10.9887967"><ele>670.0</ele><time>2026-05-01T10:28:18.661Z</time></trkpt><trkpt lat="44.3257617" lon="10.9888733"><ele>670.0</ele><time>2026-05-01T10:28:20.66Z</time></trkpt><trkpt lat="44.3258283" lon="10.988935"><ele>670.0</ele><time>2026-05-01T10:28:23.666Z</time></trkpt><trkpt lat="44.3258867" lon="10.9889767"><ele>670.0</ele><time>2026-05-01T10:28:26.664Z</time></trkpt><trkpt lat="44.3258667" lon="10.9890817"><ele>670.0</ele><time>2026-05-01T10:28:33.657Z</time></trkpt><trkpt lat="44.3258" lon="10.989195"><ele>670.0</ele><time>2026-05-01T10:28:35.664Z</time></trkpt><trkpt lat="44.3257633" lon="10.9892733"><ele>671.5</ele><time>2026-05-01T10:28:36.659Z</time></trkpt><trkpt lat="44.32572" lon="10.9893617"><ele>673.0</ele><time>2026-05-01T10:28:37.66Z</time></trkpt><trkpt lat="44.325675" lon="10.98946"><ele>674.5</ele><time>2026-05-01T10:28:38.662Z</time></trkpt><trkpt lat="44.3256383" lon="10.9895567"><ele>676.0</ele><time>2026-05-01T10:28:39.661Z</time></trkpt><trkpt lat="44.32561" lon="10.98964"><ele>677.5</ele><time>2026-05-01T10:28:40.66Z</time></trkpt><trkpt lat="44.3255367" lon="10.9896983"><ele>679.0</ele><time>2026-05-01T10:28:42.657Z</time></trkpt><trkpt lat="44.3254817" lon="10.9896383"><ele>680.6</ele><time>2026-05-01T10:28:44.661Z</time></trkpt><trkpt lat="44.3254467" lon="10.98948"><ele>682.2</ele><time>2026-05-01T10:28:46.66Z</time></trkpt><trkpt lat="44.32545" lon="10.9893233"><ele>683.8000000000001</ele><time>2026-05-01T10:28:48.66Z</time></trkpt><trkpt lat="44.3254533" lon="10.989175"><ele>685.4000000000001</ele><time>2026-05-01T10:28:50.657Z</time></trkpt><trkpt lat="44.3254417" lon="10.9890883"><ele>687.0</ele><time>2026-05-01T10:28:51.658Z</time></trkpt><trkpt lat="44.3253883" lon="10.988935"><ele>687.0</ele><time>2026-05-01T10:28:53.661Z</time></trkpt><trkpt lat="44.3252967" lon="10.9888617"><ele>687.0</ele><time>2026-05-01T10:28:55.662Z</time></trkpt><trkpt lat="44.3252067" lon="10.9888483"><ele>687.0</ele><time>2026-05-01T10:28:57.658Z</time></trkpt><trkpt lat="44.3251067" lon="10.98891"><ele>687.0</ele><time>2026-05-01T10:28:59.66Z</time></trkpt><trkpt lat="44.3250367" lon="10.9889733"><ele>687.0</ele><time>2026-05-01T10:29:00.667Z</time></trkpt><trkpt lat="44.3249617" lon="10.989035"><ele>687.0</ele><time>2026-05-01T10:29:01.657Z</time></trkpt><trkpt lat="44.3248933" lon="10.98911"><ele>687.0</ele><time>2026-05-01T10:29:02.663Z</time></trkpt><trkpt lat="44.32484" lon="10.98919"><ele>687.0</ele><time>2026-05-01T10:29:03.659Z</time></trkpt><trkpt lat="44.3247983" lon="10.98929"><ele>687.0</ele><time>2026-05-01T10:29:04.662Z</time></trkpt><trkpt lat="44.32479" lon="10.9894083"><ele>687.0</ele><time>2026-05-01T10:29:05.661Z</time></trkpt><trkpt lat="44.324785" lon="10.989515"><ele>687.0</ele><time>2026-05-01T10:29:06.661Z</time></trkpt><trkpt lat="44.3247883" lon="10.9896183"><ele>688.0</ele><time>2026-05-01T10:29:07.663Z</time></trkpt><trkpt lat="44.3247817" lon="10.9897217"><ele>689.0</ele><time>2026-05-01T10:29:08.66Z</time></trkpt><trkpt lat="44.3247717" lon="10.989815"><ele>690.0</ele><time>2026-05-01T10:29:09.665Z</time></trkpt><trkpt lat="44.3247567" lon="10.989905"><ele>691.0</ele><time>2026-05-01T10:29:10.66Z</time></trkpt><trkpt lat="44.3247433" lon="10.9900033"><ele>692.0</ele><time>2026-05-01T10:29:11.658Z</time></trkpt><trkpt lat="44.324725" lon="10.9901083"><ele>693.0</ele><time>2026-05-01T10:29:12.664Z</time></trkpt><trkpt lat="44.3246983" lon="10.990205"><ele>694.0</ele><time>2026-05-01T10:29:13.66Z</time></trkpt><trkpt lat="44.3246683" lon="10.9903"><ele>697.0</ele><time>2026-05-01T10:29:14.663Z</time></trkpt><trkpt lat="44.3246367" lon="10.9904017"><ele>700.0</ele><time>2026-05-01T10:29:15.657Z</time></trkpt><trkpt lat="44.3246033" lon="10.9905083"><ele>703.0</ele><time>2026-05-01T10:29:16.659Z</time></trkpt><trkpt lat="44.3245733" lon="10.9906033"><ele>706.0</ele><time>2026-05-01T10:29:17.657Z</time></trkpt><trkpt lat="44.3245483" lon="10.99069"><ele>709.0</ele><time>2026-05-01T10:29:18.661Z</time></trkpt><trkpt lat="44.3245417" lon="10.99078"><ele>712.0</ele><time>2026-05-01T10:29:19.661Z</time></trkpt><trkpt lat="44.324555" lon="10.990885"><ele>715.0</ele><time>2026-05-01T10:29:20.66Z</time></trkpt><trkpt lat="44.3245767" lon="10.991005"><ele>715.8333333333334</ele><time>2026-05-01T10:29:21.659Z</time></trkpt><trkpt lat="44.3245983" lon="10.99113"><ele>716.6666666666667</ele><time>2026-05-01T10:29:22.658Z</time></trkpt><trkpt lat="44.3246183" lon="10.9912517"><ele>717.5</ele><time>2026-05-01T10:29:23.657Z</time></trkpt><trkpt lat="44.32464" lon="10.9913717"><ele>718.3333333333334</ele><time>2026-05-01T10:29:24.66Z</time></trkpt><trkpt lat="44.324655" lon="10.9914817"><ele>719.1666666666666</ele><time>2026-05-01T10:29:25.658Z</time></trkpt><trkpt lat="44.3246617" lon="10.9915767"><ele>720.0</ele><time>2026-05-01T10:29:26.657Z</time></trkpt><trkpt lat="44.3245567" lon="10.9916117"><ele>720.0</ele><time>2026-05-01T10:29:28.66Z</time></trkpt><trkpt lat="44.3244867" lon="10.9916067"><ele>720.0</ele><time>2026-05-01T10:29:29.663Z</time></trkpt><trkpt lat="44.32441" lon="10.991615"><ele>720.0</ele><time>2026-05-01T10:29:30.659Z</time></trkpt><trkpt lat="44.324325" lon="10.9916433"><ele>720.0</ele><time>2026-05-01T10:29:31.659Z</time></trkpt><trkpt lat="44.3242467" lon="10.9916783"><ele>720.0</ele><time>2026-05-01T10:29:32.657Z</time></trkpt><trkpt lat="44.3241833" lon="10.9917033"><ele>720.0</ele><time>2026-05-01T10:29:33.661Z</time></trkpt><trkpt lat="44.3240683" lon="10.991715"><ele>721.1666666666666</ele><time>2026-05-01T10:29:35.655Z</time></trkpt><trkpt lat="44.3239583" lon="10.9917433"><ele>722.3333333333334</ele><time>2026-05-01T10:29:37.659Z</time></trkpt><trkpt lat="44.3238883" lon="10.9917583"><ele>723.5</ele><time>2026-05-01T10:29:38.664Z</time></trkpt><trkpt lat="44.32381" lon="10.99177"><ele>724.6666666666667</ele><time>2026-05-01T10:29:39.66Z</time></trkpt><trkpt lat="44.3237333" lon="10.991775"><ele>725.8333333333334</ele><time>2026-05-01T10:29:40.659Z</time></trkpt><trkpt lat="44.323655" lon="10.9917733"><ele>727.0</ele><time>2026-05-01T10:29:41.659Z</time></trkpt><trkpt lat="44.32357" lon="10.991765"><ele>729.0</ele><time>2026-05-01T10:29:42.657Z</time></trkpt><trkpt lat="44.323485" lon="10.9917533"><ele>731.0</ele><time>2026-05-01T10:29:43.661Z</time></trkpt><trkpt lat="44.3234033" lon="10.9917383"><ele>733.0</ele><time>2026-05-01T10:29:44.665Z</time></trkpt><trkpt lat="44.3233283" lon="10.9917083"><ele>735.0</ele><time>2026-05-01T10:29:45.66Z</time></trkpt><trkpt lat="44.3232583" lon="10.991665"><ele>737.0</ele><time>2026-05-01T10:29:46.659Z</time></trkpt><trkpt lat="44.32319" lon="10.9916033"><ele>739.0</ele><time>2026-05-01T10:29:47.661Z</time></trkpt><trkpt lat="44.3231267" lon="10.9915367"><ele>739.0</ele><time>2026-05-01T10:29:48.659Z</time></trkpt><trkpt lat="44.3230733" lon="10.9914683"><ele>739.0</ele><time>2026-05-01T10:29:49.662Z</time></trkpt><trkpt lat="44.3230067" lon="10.9913367"><ele>739.0</ele><time>2026-05-01T10:29:51.662Z</time></trkpt><trkpt lat="44.3230017" lon="10.9911967"><ele>739.0</ele><time>2026-05-01T10:29:53.662Z</time></trkpt><trkpt lat="44.3230083" lon="10.9910567"><ele>739.0</ele><time>2026-05-01T10:31:38.664Z</time></trkpt><trkpt lat="44.3229117" lon="10.9910517"><ele>742.6666666666667</ele><time>2026-05-01T10:31:41.66Z</time></trkpt><trkpt lat="44.32283" lon="10.99104"><ele>746.3333333333334</ele><time>2026-05-01T10:31:43.66Z</time></trkpt><trkpt lat="44.3227667" lon="10.991025"><ele>750.0</ele><time>2026-05-01T10:31:52.661Z</time></trkpt><trkpt lat="44.3227" lon="10.9909733"><ele>753.6666666666666</ele><time>2026-05-01T10:32:15.663Z</time></trkpt><trkpt lat="44.322635" lon="10.9909617"><ele>757.3333333333333</ele><time>2026-05-01T10:32:17.656Z</time></trkpt><trkpt lat="44.3225583" lon="10.9909517"><ele>761.0</ele><time>2026-05-01T10:32:19.662Z</time></trkpt><trkpt lat="44.3224633" lon="10.9909617"><ele>761.0</ele><time>2026-05-01T10:32:22.661Z</time></trkpt><trkpt lat="44.3223883" lon="10.990955"><ele>761.0</ele><time>2026-05-01T10:32:24.662Z</time></trkpt><trkpt lat="44.3223067" lon="10.9909583"><ele>761.0</ele><time>2026-05-01T10:32:26.661Z</time></trkpt><trkpt lat="44.3222183" lon="10.9909833"><ele>761.0</ele><time>2026-05-01T10:32:28.659Z</time></trkpt><trkpt lat="44.3221333" lon="10.9910117"><ele>761.0</ele><time>2026-05-01T10:32:30.658Z</time></trkpt><trkpt lat="44.3220367" lon="10.9910533"><ele>761.0</ele><time>2026-05-01T10:32:32.661Z</time></trkpt><trkpt lat="44.3219633" lon="10.99106"><ele>763.6666666666666</ele><time>2026-05-01T10:32:34.66Z</time></trkpt><trkpt lat="44.321895" lon="10.9910433"><ele>766.3333333333333</ele><time>2026-05-01T10:32:36.663Z</time></trkpt><trkpt lat="44.32182" lon="10.991065"><ele>769.0</ele><time>2026-05-01T10:32:38.662Z</time></trkpt><trkpt lat="44.3217433" lon="10.991125"><ele>771.6666666666666</ele><time>2026-05-01T10:32:40.656Z</time></trkpt><trkpt lat="44.3216717" lon="10.9911917"><ele>774.3333333333334</ele><time>2026-05-01T10:32:42.657Z</time></trkpt><trkpt lat="44.3216183" lon="10.991285"><ele>777.0</ele><time>2026-05-01T10:32:44.657Z</time></trkpt><trkpt lat="44.32156" lon="10.991395"><ele>777.0</ele><time>2026-05-01T10:32:46.657Z</time></trkpt><trkpt lat="44.321505" lon="10.9915167"><ele>777.0</ele><time>2026-05-01T10:32:48.665Z</time></trkpt><trkpt lat="44.3214833" lon="10.9916717"><ele>777.0</ele><time>2026-05-01T10:32:50.659Z</time></trkpt><trkpt lat="44.3214683" lon="10.9917617"><ele>777.0</ele><time>2026-05-01T10:32:51.665Z</time></trkpt><trkpt lat="44.321445" lon="10.991845"><ele>777.0</ele><time>2026-05-01T10:32:52.656Z</time></trkpt><trkpt lat="44.3214167" lon="10.9920133"><ele>778.6666666666666</ele><time>2026-05-01T10:32:54.657Z</time></trkpt><trkpt lat="44.3214183" lon="10.9921067"><ele>780.3333333333333</ele><time>2026-05-01T10:32:55.657Z</time></trkpt><trkpt lat="44.3214267" lon="10.9922083"><ele>782.0</ele><time>2026-05-01T10:32:56.662Z</time></trkpt><trkpt lat="44.32143" lon="10.9923083"><ele>783.6666666666666</ele><time>2026-05-01T10:32:57.661Z</time></trkpt><trkpt lat="44.32143" lon="10.99241"><ele>785.3333333333333</ele><time>2026-05-01T10:32:58.66Z</time></trkpt><trkpt lat="44.321435" lon="10.992525"><ele>787.0</ele><time>2026-05-01T10:32:59.657Z</time></trkpt><trkpt lat="44.3214433" lon="10.9926433"><ele>787.3333333333333</ele><time>2026-05-01T10:33:00.669Z</time></trkpt><trkpt lat="44.3214567" lon="10.9927583"><ele>787.6666666666666</ele><time>2026-05-01T10:33:01.661Z</time></trkpt><trkpt lat="44.3214767" lon="10.9928733"><ele>788.0</ele><time>2026-05-01T10:33:02.659Z</time></trkpt><trkpt lat="44.3214967" lon="10.992985"><ele>788.3333333333333</ele><time>2026-05-01T10:33:03.662Z</time></trkpt><trkpt lat="44.321515" lon="10.9930833"><ele>788.6666666666666</ele><time>2026-05-01T10:33:04.659Z</time></trkpt><trkpt lat="44.3215317" lon="10.9931767"><ele>789.0</ele><time>2026-05-01T10:33:05.66Z</time></trkpt><trkpt lat="44.32156" lon="10.9932767"><ele>791.2</ele><time>2026-05-01T10:33:06.663Z</time></trkpt><trkpt lat="44.3215883" lon="10.9933667"><ele>793.4000000000001</ele><time>2026-05-01T10:33:07.666Z</time></trkpt><trkpt lat="44.3216383" lon="10.9935267"><ele>795.6</ele><time>2026-05-01T10:33:09.657Z</time></trkpt><trkpt lat="44.3216617" lon="10.9936117"><ele>797.8</ele><time>2026-05-01T10:33:10.669Z</time></trkpt><trkpt lat="44.321685" lon="10.9937467"><ele>800.0</ele><time>2026-05-01T10:33:12.662Z</time></trkpt><trkpt lat="44.3215767" lon="10.9937533"><ele>800.0</ele><time>2026-05-01T10:33:15.66Z</time></trkpt><trkpt lat="44.3214717" lon="10.99372"><ele>800.0</ele><time>2026-05-01T10:33:17.66Z</time></trkpt><trkpt lat="44.321415" lon="10.9937633"><ele>800.0</ele><time>2026-05-01T10:33:20.66Z</time></trkpt><trkpt lat="44.32149" lon="10.993855"><ele>800.0</ele><time>2026-05-01T10:33:23.661Z</time></trkpt><trkpt lat="44.3215633" lon="10.9939383"><ele>800.0</ele><time>2026-05-01T10:33:25.665Z</time></trkpt><trkpt lat="44.3216283" lon="10.99408"><ele>800.0000000000001</ele><time>2026-05-01T10:33:27.66Z</time></trkpt><trkpt lat="44.3216617" lon="10.9941633"><ele>800.0</ele><time>2026-05-01T10:33:28.657Z</time></trkpt><trkpt lat="44.3217033" lon="10.9942567"><ele>800.0</ele><time>2026-05-01T10:33:29.659Z</time></trkpt><trkpt lat="44.3217583" lon="10.9943433"><ele>800.0</ele><time>2026-05-01T10:33:30.658Z</time></trkpt><trkpt lat="44.32181" lon="10.9944333"><ele>800.0000000000001</ele><time>2026-05-01T10:33:31.656Z</time></trkpt><trkpt lat="44.3218617" lon="10.9945267"><ele>800.0</ele><time>2026-05-01T10:33:32.661Z</time></trkpt><trkpt lat="44.32191" lon="10.994615"><ele>802.4285714285714</ele><time>2026-05-01T10:33:33.657Z</time></trkpt><trkpt lat="44.3219467" lon="10.9946917"><ele>804.8571428571429</ele><time>2026-05-01T10:33:34.659Z</time></trkpt><trkpt lat="44.3219917" lon="10.9947917"><ele>807.2857142857142</ele><time>2026-05-01T10:33:36.657Z</time></trkpt><trkpt lat="44.321985" lon="10.994885"><ele>809.7142857142858</ele><time>2026-05-01T10:33:39.663Z</time></trkpt><trkpt lat="44.321985" lon="10.99498"><ele>812.1428571428571</ele><time>2026-05-01T10:33:41.658Z</time></trkpt><trkpt lat="44.32198" lon="10.9950933"><ele>814.5714285714286</ele><time>2026-05-01T10:33:43.658Z</time></trkpt><trkpt lat="44.3219733" lon="10.99519"><ele>817.0</ele><time>2026-05-01T10:33:45.658Z</time></trkpt><trkpt lat="44.321955" lon="10.9952767"><ele>819.1666666666666</ele><time>2026-05-01T10:33:48.666Z</time></trkpt><trkpt lat="44.3218917" lon="10.995335"><ele>821.3333333333333</ele><time>2026-05-01T10:33:52.658Z</time></trkpt><trkpt lat="44.3218233" lon="10.9952867"><ele>823.5</ele><time>2026-05-01T10:33:56.661Z</time></trkpt><trkpt lat="44.3217517" lon="10.995225"><ele>825.6666666666667</ele><time>2026-05-01T10:33:59.658Z</time></trkpt><trkpt lat="44.3216883" lon="10.9951533"><ele>827.8333333333334</ele><time>2026-05-01T10:34:02.663Z</time></trkpt><trkpt lat="44.3216333" lon="10.9950767"><ele>830.0</ele><time>2026-05-01T10:34:05.659Z</time></trkpt><trkpt lat="44.3215633" lon="10.9950083"><ele>827.4</ele><time>2026-05-01T10:34:07.657Z</time></trkpt><trkpt lat="44.321465" lon="10.9949133"><ele>824.8</ele><time>2026-05-01T10:34:09.66Z</time></trkpt><trkpt lat="44.321375" lon="10.99485"><ele>822.2</ele><time>2026-05-01T10:34:11.656Z</time></trkpt><trkpt lat="44.3212717" lon="10.9947783"><ele>819.6</ele><time>2026-05-01T10:34:13.658Z</time></trkpt><trkpt lat="44.32118" lon="10.994715"><ele>817.0</ele><time>2026-05-01T10:34:15.659Z</time></trkpt><trkpt lat="44.3211083" lon="10.9946967"><ele>816.4999999999999</ele><time>2026-05-01T10:34:18.661Z</time></trkpt><trkpt lat="44.321015" lon="10.994725"><ele>816.0</ele><time>2026-05-01T10:34:21.659Z</time></trkpt><trkpt lat="44.3209733" lon="10.9948033"><ele>815.5</ele><time>2026-05-01T10:34:23.657Z</time></trkpt><trkpt lat="44.32097" lon="10.99491"><ele>815.0</ele><time>2026-05-01T10:34:25.658Z</time></trkpt><trkpt lat="44.32102" lon="10.9949983"><ele>814.4999999999999</ele><time>2026-05-01T10:34:27.661Z</time></trkpt><trkpt lat="44.3210917" lon="10.99505"><ele>814.0</ele><time>2026-05-01T10:34:29.662Z</time></trkpt><trkpt lat="44.3211667" lon="10.9950883"><ele>816.2</ele><time>2026-05-01T10:34:47.662Z</time></trkpt><trkpt lat="44.3212283" lon="10.9951883"><ele>818.4000000000001</ele><time>2026-05-01T10:34:49.661Z</time></trkpt><trkpt lat="44.3212883" lon="10.9953467"><ele>820.6</ele><time>2026-05-01T10:34:51.66Z</time></trkpt><trkpt lat="44.3213167" lon="10.9954433"><ele>822.8</ele><time>2026-05-01T10:34:52.659Z</time></trkpt><trkpt lat="44.32134" lon="10.99554"><ele>825.0</ele><time>2026-05-01T10:34:53.662Z</time></trkpt><trkpt lat="44.3213667" lon="10.99565"><ele>825.0</ele><time>2026-05-01T10:34:54.66Z</time></trkpt><trkpt lat="44.3213933" lon="10.99578"><ele>825.0</ele><time>2026-05-01T10:34:55.661Z</time></trkpt><trkpt lat="44.32142" lon="10.9959133"><ele>825.0</ele><time>2026-05-01T10:34:56.661Z</time></trkpt><trkpt lat="44.3214467" lon="10.99605"><ele>825.0</ele><time>2026-05-01T10:34:57.659Z</time></trkpt><trkpt lat="44.3214667" lon="10.9961783"><ele>825.0</ele><time>2026-05-01T10:34:58.663Z</time></trkpt><trkpt lat="44.3214817" lon="10.9963033"><ele>827.6</ele><time>2026-05-01T10:34:59.657Z</time></trkpt><trkpt lat="44.3214967" lon="10.9964333"><ele>830.2</ele><time>2026-05-01T10:35:00.658Z</time></trkpt><trkpt lat="44.3215167" lon="10.9965683"><ele>832.8</ele><time>2026-05-01T10:35:01.659Z</time></trkpt><trkpt lat="44.321525" lon="10.99671"><ele>835.4</ele><time>2026-05-01T10:35:02.658Z</time></trkpt><trkpt lat="44.3215333" lon="10.9968483"><ele>838.0</ele><time>2026-05-01T10:35:03.66Z</time></trkpt><trkpt lat="44.3215483" lon="10.99698"><ele>837.9999999999999</ele><time>2026-05-01T10:35:04.661Z</time></trkpt><trkpt lat="44.3215533" lon="10.9970967"><ele>838.0</ele><time>2026-05-01T10:35:05.658Z</time></trkpt><trkpt lat="44.32155" lon="10.9972133"><ele>838.0</ele><time>2026-05-01T10:35:06.662Z</time></trkpt><trkpt lat="44.3215383" lon="10.9973267"><ele>838.0</ele><time>2026-05-01T10:35:07.66Z</time></trkpt><trkpt lat="44.3215067" lon="10.9974467"><ele>837.9999999999999</ele><time>2026-05-01T10:35:08.661Z</time></trkpt><trkpt lat="44.3214567" lon="10.9975517"><ele>838.0</ele><time>2026-05-01T10:35:09.662Z</time></trkpt><trkpt lat="44.3214017" lon="10.9976533"><ele>837.4999999999999</ele><time>2026-05-01T10:35:10.665Z</time></trkpt><trkpt lat="44.32135" lon="10.9977283"><ele>837.0</ele><time>2026-05-01T10:35:11.66Z</time></trkpt><trkpt lat="44.3212833" lon="10.9977917"><ele>836.5</ele><time>2026-05-01T10:35:12.657Z</time></trkpt><trkpt lat="44.3211983" lon="10.997815"><ele>836.0</ele><time>2026-05-01T10:35:13.661Z</time></trkpt><trkpt lat="44.3211117" lon="10.9978367"><ele>835.4999999999999</ele><time>2026-05-01T10:35:14.659Z</time></trkpt><trkpt lat="44.32101" lon="10.9978683"><ele>835.0</ele><time>2026-05-01T10:35:15.658Z</time></trkpt><trkpt lat="44.3209183" lon="10.997905"><ele>834.9999999999999</ele><time>2026-05-01T10:35:16.658Z</time></trkpt><trkpt lat="44.320845" lon="10.9979517"><ele>835.0</ele><time>2026-05-01T10:35:17.661Z</time></trkpt><trkpt lat="44.3208017" lon="10.9980267"><ele>835.0</ele><time>2026-05-01T10:35:18.661Z</time></trkpt><trkpt lat="44.3207883" lon="10.99812"><ele>835.0</ele><time>2026-05-01T10:35:19.659Z</time></trkpt><trkpt lat="44.3207683" lon="10.99826"><ele>834.9999999999999</ele><time>2026-05-01T10:35:21.661Z</time></trkpt><trkpt lat="44.3207733" lon="10.998385"><ele>835.0</ele><time>2026-05-01T10:35:45.658Z</time></trkpt><trkpt lat="44.3207667" lon="10.99853"><ele>836.4285714285714</ele><time>2026-05-01T10:35:47.666Z</time></trkpt><trkpt lat="44.3207633" lon="10.9986267"><ele>837.8571428571429</ele><time>2026-05-01T10:35:48.66Z</time></trkpt><trkpt lat="44.320755" lon="10.9987267"><ele>839.2857142857142</ele><time>2026-05-01T10:35:49.658Z</time></trkpt><trkpt lat="44.3207433" lon="10.99883"><ele>840.7142857142858</ele><time>2026-05-01T10:35:50.66Z</time></trkpt><trkpt lat="44.32074" lon="10.99892"><ele>842.1428571428571</ele><time>2026-05-01T10:35:51.658Z</time></trkpt><trkpt lat="44.3207467" lon="10.9990083"><ele>843.5714285714286</ele><time>2026-05-01T10:35:52.658Z</time></trkpt><trkpt lat="44.32075" lon="10.9990967"><ele>845.0</ele><time>2026-05-01T10:35:53.659Z</time></trkpt><trkpt lat="44.32078" lon="10.9991783"><ele>847.0000000000001</ele><time>2026-05-01T10:35:54.657Z</time></trkpt><trkpt lat="44.32083" lon="10.9992367"><ele>849.0</ele><time>2026-05-01T10:35:55.661Z</time></trkpt><trkpt lat="44.3208983" lon="10.99927"><ele>851.0</ele><time>2026-05-01T10:35:56.66Z</time></trkpt><trkpt lat="44.3209833" lon="10.9992867"><ele>853.0</ele><time>2026-05-01T10:35:57.66Z</time></trkpt><trkpt lat="44.32107" lon="10.9993"><ele>855.0000000000001</ele><time>2026-05-01T10:35:58.662Z</time></trkpt><trkpt lat="44.3211433" lon="10.99932"><ele>857.0</ele><time>2026-05-01T10:35:59.66Z</time></trkpt><trkpt lat="44.3212183" lon="10.9993483"><ele>857.0000000000001</ele><time>2026-05-01T10:36:00.664Z</time></trkpt><trkpt lat="44.3212917" lon="10.9993917"><ele>857.0</ele><time>2026-05-01T10:36:01.662Z</time></trkpt><trkpt lat="44.321355" lon="10.999435"><ele>857.0</ele><time>2026-05-01T10:36:02.658Z</time></trkpt><trkpt lat="44.321425" lon="10.999505"><ele>857.0</ele><time>2026-05-01T10:36:03.658Z</time></trkpt><trkpt lat="44.3215" lon="10.9995817"><ele>857.0000000000001</ele><time>2026-05-01T10:36:04.659Z</time></trkpt><trkpt lat="44.32158" lon="10.999695"><ele>857.0</ele><time>2026-05-01T10:36:05.658Z</time></trkpt><trkpt lat="44.3216417" lon="10.9998067"><ele>856.8</ele><time>2026-05-01T10:36:06.664Z</time></trkpt><trkpt lat="44.3216883" lon="10.9999133"><ele>856.6</ele><time>2026-05-01T10:36:07.659Z</time></trkpt><trkpt lat="44.3217367" lon="11.000045"><ele>856.3999999999999</ele><time>2026-05-01T10:36:08.658Z</time></trkpt><trkpt lat="44.32178" lon="11.0001767"><ele>856.1999999999999</ele><time>2026-05-01T10:36:09.658Z</time></trkpt><trkpt lat="44.321825" lon="11.0003033"><ele>856.0</ele><time>2026-05-01T10:36:10.661Z</time></trkpt><trkpt lat="44.3218733" lon="11.0004167"><ele>856.0</ele><time>2026-05-01T10:36:11.657Z</time></trkpt><trkpt lat="44.3219267" lon="11.0005233"><ele>855.9999999999999</ele><time>2026-05-01T10:36:12.658Z</time></trkpt><trkpt lat="44.3219783" lon="11.000635"><ele>855.9999999999999</ele><time>2026-05-01T10:36:13.664Z</time></trkpt><trkpt lat="44.3220217" lon="11.0007383"><ele>856.0</ele><time>2026-05-01T10:36:14.66Z</time></trkpt><trkpt lat="44.32206" lon="11.00083"><ele>856.0</ele><time>2026-05-01T10:36:15.661Z</time></trkpt><trkpt lat="44.322145" lon="11.00097"><ele>856.4</ele><time>2026-05-01T10:36:17.657Z</time></trkpt><trkpt lat="44.3222133" lon="11.0010533"><ele>856.8</ele><time>2026-05-01T10:36:18.661Z</time></trkpt><trkpt lat="44.3222883" lon="11.001135"><ele>857.1999999999999</ele><time>2026-05-01T10:36:19.657Z</time></trkpt><trkpt lat="44.3223567" lon="11.001225"><ele>857.5999999999999</ele><time>2026-05-01T10:36:20.666Z</time></trkpt><trkpt lat="44.322415" lon="11.0013367"><ele>858.0</ele><time>2026-05-01T10:36:21.659Z</time></trkpt><trkpt lat="44.3224717" lon="11.0014417"><ele>858.0</ele><time>2026-05-01T10:36:22.658Z</time></trkpt><trkpt lat="44.32253" lon="11.001535"><ele>858.0</ele><time>2026-05-01T10:36:23.659Z</time></trkpt><trkpt lat="44.3225867" lon="11.0016217"><ele>858.0</ele><time>2026-05-01T10:36:24.659Z</time></trkpt><trkpt lat="44.3226383" lon="11.0017117"><ele>858.0</ele><time>2026-05-01T10:36:25.659Z</time></trkpt><trkpt lat="44.3226867" lon="11.0018067"><ele>858.0</ele><time>2026-05-01T10:36:26.657Z</time></trkpt><trkpt lat="44.3227333" lon="11.001915"><ele>858.0</ele><time>2026-05-01T10:36:27.657Z</time></trkpt><trkpt lat="44.3227767" lon="11.0020333"><ele>858.0</ele><time>2026-05-01T10:36:28.658Z</time></trkpt><trkpt lat="44.3228217" lon="11.0021667"><ele>858.0</ele><time>2026-05-01T10:36:29.653Z</time></trkpt><trkpt lat="44.32286" lon="11.002305"><ele>858.0</ele><time>2026-05-01T10:36:30.661Z</time></trkpt><trkpt lat="44.3228917" lon="11.0024333"><ele>858.0</ele><time>2026-05-01T10:36:31.661Z</time></trkpt><trkpt lat="44.3229083" lon="11.0025533"><ele>858.0</ele><time>2026-05-01T10:36:32.659Z</time></trkpt><trkpt lat="44.322915" lon="11.00268"><ele>858.0</ele><time>2026-05-01T10:36:33.658Z</time></trkpt><trkpt lat="44.3229067" lon="11.002805"><ele>858.0</ele><time>2026-05-01T10:36:34.659Z</time></trkpt><trkpt lat="44.32289" lon="11.002925"><ele>858.0</ele><time>2026-05-01T10:36:35.663Z</time></trkpt><trkpt lat="44.3228567" lon="11.003045"><ele>858.0</ele><time>2026-05-01T10:36:36.659Z</time></trkpt><trkpt lat="44.3227967" lon="11.0031533"><ele>858.0</ele><time>2026-05-01T10:36:37.663Z</time></trkpt><trkpt lat="44.3227267" lon="11.0032633"><ele>858.5999999999999</ele><time>2026-05-01T10:36:38.66Z</time></trkpt><trkpt lat="44.322665" lon="11.0033767"><ele>859.1999999999999</ele><time>2026-05-01T10:36:39.657Z</time></trkpt><trkpt lat="44.3226067" lon="11.00349"><ele>859.8</ele><time>2026-05-01T10:36:40.662Z</time></trkpt><trkpt lat="44.3225467" lon="11.0036033"><ele>860.4</ele><time>2026-05-01T10:36:41.66Z</time></trkpt><trkpt lat="44.3224933" lon="11.003695"><ele>861.0</ele><time>2026-05-01T10:36:42.661Z</time></trkpt><trkpt lat="44.32245" lon="11.003785"><ele>861.0</ele><time>2026-05-01T10:36:43.658Z</time></trkpt><trkpt lat="44.3224133" lon="11.0038833"><ele>861.0</ele><time>2026-05-01T10:36:44.657Z</time></trkpt><trkpt lat="44.32238" lon="11.0039933"><ele>861.0</ele><time>2026-05-01T10:36:45.659Z</time></trkpt><trkpt lat="44.322355" lon="11.0041067"><ele>861.0</ele><time>2026-05-01T10:36:46.659Z</time></trkpt><trkpt lat="44.3223583" lon="11.00423"><ele>861.0</ele><time>2026-05-01T10:36:47.658Z</time></trkpt><trkpt lat="44.322385" lon="11.00434"><ele>861.0</ele><time>2026-05-01T10:36:48.66Z</time></trkpt><trkpt lat="44.3224667" lon="11.0044267"><ele>861.5999999999999</ele><time>2026-05-01T10:36:49.658Z</time></trkpt><trkpt lat="44.3225583" lon="11.0045017"><ele>862.1999999999999</ele><time>2026-05-01T10:36:50.659Z</time></trkpt><trkpt lat="44.3226533" lon="11.0045767"><ele>862.8000000000001</ele><time>2026-05-01T10:36:51.661Z</time></trkpt><trkpt lat="44.3227433" lon="11.00467"><ele>863.4000000000001</ele><time>2026-05-01T10:36:52.661Z</time></trkpt><trkpt lat="44.3228283" lon="11.004765"><ele>864.0</ele><time>2026-05-01T10:36:53.658Z</time></trkpt><trkpt lat="44.32291" lon="11.0048567"><ele>864.0</ele><time>2026-05-01T10:36:54.662Z</time></trkpt><trkpt lat="44.323" lon="11.00493"><ele>864.0000000000001</ele><time>2026-05-01T10:36:55.656Z</time></trkpt><trkpt lat="44.3231083" lon="11.004985"><ele>864.0000000000001</ele><time>2026-05-01T10:36:56.662Z</time></trkpt><trkpt lat="44.3232233" lon="11.00503"><ele>864.0</ele><time>2026-05-01T10:36:57.658Z</time></trkpt><trkpt lat="44.3233267" lon="11.0050817"><ele>864.0</ele><time>2026-05-01T10:36:58.66Z</time></trkpt><trkpt lat="44.32342" lon="11.0051383"><ele>863.4000000000001</ele><time>2026-05-01T10:36:59.66Z</time></trkpt><trkpt lat="44.3235183" lon="11.0052"><ele>862.8000000000001</ele><time>2026-05-01T10:37:00.661Z</time></trkpt><trkpt lat="44.3236133" lon="11.00525"><ele>862.1999999999999</ele><time>2026-05-01T10:37:01.661Z</time></trkpt><trkpt lat="44.323705" lon="11.00528"><ele>861.5999999999999</ele><time>2026-05-01T10:37:02.661Z</time></trkpt><trkpt lat="44.3238" lon="11.0052983"><ele>861.0</ele><time>2026-05-01T10:37:03.66Z</time></trkpt><trkpt lat="44.3238933" lon="11.005315"><ele>860.4</ele><time>2026-05-01T10:37:04.658Z</time></trkpt><trkpt lat="44.3239817" lon="11.005355"><ele>859.8</ele><time>2026-05-01T10:37:05.661Z</time></trkpt><trkpt lat="44.3240717" lon="11.0054317"><ele>859.1999999999999</ele><time>2026-05-01T10:37:06.661Z</time></trkpt><trkpt lat="44.324155" lon="11.005535"><ele>858.5999999999999</ele><time>2026-05-01T10:37:07.663Z</time></trkpt><trkpt lat="44.32424" lon="11.0056417"><ele>858.0</ele><time>2026-05-01T10:37:08.668Z</time></trkpt><trkpt lat="44.3243233" lon="11.0057483"><ele>857.25</ele><time>2026-05-01T10:37:09.66Z</time></trkpt><trkpt lat="44.324405" lon="11.005855"><ele>856.5</ele><time>2026-05-01T10:37:10.657Z</time></trkpt><trkpt lat="44.3244817" lon="11.0059733"><ele>855.75</ele><time>2026-05-01T10:37:11.663Z</time></trkpt><trkpt lat="44.3245483" lon="11.0061117"><ele>855.0</ele><time>2026-05-01T10:37:12.66Z</time></trkpt><trkpt lat="44.324595" lon="11.006265"><ele>855.0</ele><time>2026-05-01T10:37:13.657Z</time></trkpt><trkpt lat="44.32462" lon="11.006425"><ele>855.0</ele><time>2026-05-01T10:37:14.662Z</time></trkpt><trkpt lat="44.3246183" lon="11.0065783"><ele>855.0</ele><time>2026-05-01T10:37:15.657Z</time></trkpt><trkpt lat="44.3246" lon="11.00673"><ele>855.0</ele><time>2026-05-01T10:37:16.654Z</time></trkpt><trkpt lat="44.3245517" lon="11.0068883"><ele>854.0</ele><time>2026-05-01T10:37:17.66Z</time></trkpt><trkpt lat="44.3244833" lon="11.0070467"><ele>853.0</ele><time>2026-05-01T10:37:18.659Z</time></trkpt><trkpt lat="44.3244183" lon="11.0072033"><ele>852.0</ele><time>2026-05-01T10:37:19.662Z</time></trkpt><trkpt lat="44.3243683" lon="11.0073483"><ele>851.0</ele><time>2026-05-01T10:37:20.659Z</time></trkpt><trkpt lat="44.324335" lon="11.0074933"><ele>851.25</ele><time>2026-05-01T10:37:21.658Z</time></trkpt><trkpt lat="44.3243167" lon="11.00765"><ele>851.5</ele><time>2026-05-01T10:37:22.66Z</time></trkpt><trkpt lat="44.32432" lon="11.0078133"><ele>851.75</ele><time>2026-05-01T10:37:23.66Z</time></trkpt><trkpt lat="44.3243383" lon="11.0079817"><ele>852.0</ele><time>2026-05-01T10:37:24.658Z</time></trkpt><trkpt lat="44.32437" lon="11.00815"><ele>852.0</ele><time>2026-05-01T10:37:25.659Z</time></trkpt><trkpt lat="44.324395" lon="11.00832"><ele>852.0</ele><time>2026-05-01T10:37:26.661Z</time></trkpt><trkpt lat="44.32441" lon="11.0084917"><ele>852.0</ele><time>2026-05-01T10:37:27.66Z</time></trkpt><trkpt lat="44.3244117" lon="11.0086567"><ele>852.0</ele><time>2026-05-01T10:37:28.659Z</time></trkpt><trkpt lat="44.3244033" lon="11.0088067"><ele>851.8333333333334</ele><time>2026-05-01T10:37:29.658Z</time></trkpt><trkpt lat="44.3243933" lon="11.0089317"><ele>851.6666666666667</ele><time>2026-05-01T10:37:30.661Z</time></trkpt><trkpt lat="44.3243933" lon="11.009035"><ele>851.5</ele><time>2026-05-01T10:37:31.658Z</time></trkpt><trkpt lat="44.3244183" lon="11.0091833"><ele>851.3333333333334</ele><time>2026-05-01T10:37:33.661Z</time></trkpt><trkpt lat="44.3244983" lon="11.009245"><ele>851.1666666666667</ele><time>2026-05-01T10:37:35.658Z</time></trkpt><trkpt lat="44.324575" lon="11.0092683"><ele>851.0</ele><time>2026-05-01T10:37:36.665Z</time></trkpt><trkpt lat="44.3246633" lon="11.0092817"><ele>852.6666666666667</ele><time>2026-05-01T10:37:37.66Z</time></trkpt><trkpt lat="44.3247433" lon="11.0092883"><ele>854.3333333333334</ele><time>2026-05-01T10:37:38.663Z</time></trkpt><trkpt lat="44.3248217" lon="11.0093083"><ele>856.0</ele><time>2026-05-01T10:37:39.664Z</time></trkpt><trkpt lat="44.3248983" lon="11.00934"><ele>857.6666666666667</ele><time>2026-05-01T10:37:40.657Z</time></trkpt><trkpt lat="44.3249767" lon="11.0093783"><ele>859.3333333333334</ele><time>2026-05-01T10:37:41.66Z</time></trkpt><trkpt lat="44.3250433" lon="11.0094183"><ele>861.0</ele><time>2026-05-01T10:37:42.666Z</time></trkpt><trkpt lat="44.32512" lon="11.0094533"><ele>861.0</ele><time>2026-05-01T10:37:43.657Z</time></trkpt><trkpt lat="44.3252" lon="11.009475"><ele>861.0</ele><time>2026-05-01T10:37:44.665Z</time></trkpt><trkpt lat="44.3252783" lon="11.009505"><ele>861.0</ele><time>2026-05-01T10:37:45.659Z</time></trkpt><trkpt lat="44.3253533" lon="11.0095183"><ele>861.0</ele><time>2026-05-01T10:37:46.658Z</time></trkpt><trkpt lat="44.3254467" lon="11.00953"><ele>861.0</ele><time>2026-05-01T10:37:48.663Z</time></trkpt><trkpt lat="44.325535" lon="11.0095083"><ele>861.0</ele><time>2026-05-01T10:37:51.664Z</time></trkpt><trkpt lat="44.32559" lon="11.009445"><ele>860.4</ele><time>2026-05-01T10:37:54.659Z</time></trkpt><trkpt lat="44.32567" lon="11.0094867"><ele>859.8</ele><time>2026-05-01T10:37:56.661Z</time></trkpt><trkpt lat="44.3257667" lon="11.009545"><ele>859.1999999999999</ele><time>2026-05-01T10:37:58.662Z</time></trkpt><trkpt lat="44.3258567" lon="11.00958"><ele>858.5999999999999</ele><time>2026-05-01T10:37:59.66Z</time></trkpt><trkpt lat="44.3259567" lon="11.0096167"><ele>858.0</ele><time>2026-05-01T10:38:00.659Z</time></trkpt><trkpt lat="44.3260433" lon="11.009645"><ele>858.0</ele><time>2026-05-01T10:38:01.659Z</time></trkpt><trkpt lat="44.3261267" lon="11.0096533"><ele>858.0</ele><time>2026-05-01T10:38:02.658Z</time></trkpt><trkpt lat="44.3262317" lon="11.0096617"><ele>858.0</ele><time>2026-05-01T10:38:03.659Z</time></trkpt><trkpt lat="44.326355" lon="11.00967"><ele>858.0</ele><time>2026-05-01T10:38:04.658Z</time></trkpt><trkpt lat="44.3264783" lon="11.0096833"><ele>858.0</ele><time>2026-05-01T10:38:05.66Z</time></trkpt><trkpt lat="44.3265733" lon="11.0097067"><ele>855.4</ele><time>2026-05-01T10:38:06.667Z</time></trkpt><trkpt lat="44.32666" lon="11.0097517"><ele>852.8</ele><time>2026-05-01T10:38:07.665Z</time></trkpt><trkpt lat="44.3267367" lon="11.0098217"><ele>850.2</ele><time>2026-05-01T10:38:08.661Z</time></trkpt><trkpt lat="44.3268183" lon="11.0098867"><ele>847.6</ele><time>2026-05-01T10:38:09.661Z</time></trkpt><trkpt lat="44.3268783" lon="11.0100217"><ele>845.0</ele><time>2026-05-01T10:38:10.662Z</time></trkpt><trkpt lat="44.32693" lon="11.0101833"><ele>845.0</ele><time>2026-05-01T10:38:11.659Z</time></trkpt><trkpt lat="44.3269717" lon="11.010335"><ele>845.0</ele><time>2026-05-01T10:38:12.659Z</time></trkpt><trkpt lat="44.32703" lon="11.0105033"><ele>845.0</ele><time>2026-05-01T10:38:13.66Z</time></trkpt><trkpt lat="44.3270933" lon="11.0106483"><ele>845.0</ele><time>2026-05-01T10:38:14.658Z</time></trkpt><trkpt lat="44.3271567" lon="11.010775"><ele>846.6</ele><time>2026-05-01T10:38:15.658Z</time></trkpt><trkpt lat="44.3272183" lon="11.0109083"><ele>848.2</ele><time>2026-05-01T10:38:16.658Z</time></trkpt><trkpt lat="44.32729" lon="11.0110433"><ele>849.8</ele><time>2026-05-01T10:38:17.66Z</time></trkpt><trkpt lat="44.3273533" lon="11.0111483"><ele>851.4</ele><time>2026-05-01T10:38:18.659Z</time></trkpt><trkpt lat="44.32741" lon="11.011245"><ele>853.0</ele><time>2026-05-01T10:38:19.66Z</time></trkpt><trkpt lat="44.3274617" lon="11.0113283"><ele>848.9999999999999</ele><time>2026-05-01T10:38:20.66Z</time></trkpt><trkpt lat="44.3275517" lon="11.0114133"><ele>845.0</ele><time>2026-05-01T10:38:28.659Z</time></trkpt><trkpt lat="44.3276217" lon="11.0114283"><ele>841.0</ele><time>2026-05-01T10:38:29.658Z</time></trkpt><trkpt lat="44.3276917" lon="11.011445"><ele>837.0</ele><time>2026-05-01T10:38:30.659Z</time></trkpt><trkpt lat="44.3277617" lon="11.011475"><ele>832.9999999999999</ele><time>2026-05-01T10:38:31.658Z</time></trkpt><trkpt lat="44.3278233" lon="11.0115317"><ele>829.0</ele><time>2026-05-01T10:38:32.662Z</time></trkpt><trkpt lat="44.327875" lon="11.0116033"><ele>828.8333333333333</ele><time>2026-05-01T10:38:33.659Z</time></trkpt><trkpt lat="44.32792" lon="11.0116967"><ele>828.6666666666666</ele><time>2026-05-01T10:38:34.658Z</time></trkpt><trkpt lat="44.3279533" lon="11.0118133"><ele>828.5</ele><time>2026-05-01T10:38:35.66Z</time></trkpt><trkpt lat="44.3279817" lon="11.0119367"><ele>828.3333333333333</ele><time>2026-05-01T10:38:36.658Z</time></trkpt><trkpt lat="44.3280133" lon="11.0120433"><ele>828.1666666666666</ele><time>2026-05-01T10:38:37.658Z</time></trkpt><trkpt lat="44.3280783" lon="11.0120817"><ele>828.0</ele><time>2026-05-01T10:38:39.659Z</time></trkpt><trkpt lat="44.328175" lon="11.0120183"><ele>827.5999999999999</ele><time>2026-05-01T10:38:41.659Z</time></trkpt><trkpt lat="44.328245" lon="11.0119317"><ele>827.1999999999999</ele><time>2026-05-01T10:38:42.659Z</time></trkpt><trkpt lat="44.3283217" lon="11.0118517"><ele>826.8</ele><time>2026-05-01T10:38:43.66Z</time></trkpt><trkpt lat="44.3284267" lon="11.0117217"><ele>826.4</ele><time>2026-05-01T10:38:44.659Z</time></trkpt><trkpt lat="44.3285117" lon="11.011625"><ele>826.0</ele><time>2026-05-01T10:38:45.66Z</time></trkpt><trkpt lat="44.3285933" lon="11.0115283"><ele>824.0</ele><time>2026-05-01T10:38:46.658Z</time></trkpt><trkpt lat="44.3286667" lon="11.0114517"><ele>822.0</ele><time>2026-05-01T10:38:47.659Z</time></trkpt><trkpt lat="44.32874" lon="11.0113767"><ele>820.0</ele><time>2026-05-01T10:38:48.66Z</time></trkpt><trkpt lat="44.3288217" lon="11.0113217"><ele>818.0</ele><time>2026-05-01T10:38:49.661Z</time></trkpt><trkpt lat="44.32894" lon="11.0113"><ele>816.0</ele><time>2026-05-01T10:38:50.662Z</time></trkpt><trkpt lat="44.3290983" lon="11.0113067"><ele>814.0</ele><time>2026-05-01T10:38:51.662Z</time></trkpt><trkpt lat="44.329265" lon="11.0113317"><ele>812.0</ele><time>2026-05-01T10:38:52.66Z</time></trkpt><trkpt lat="44.3293933" lon="11.0113467"><ele>810.0</ele><time>2026-05-01T10:38:53.658Z</time></trkpt><trkpt lat="44.3295317" lon="11.0114067"><ele>808.0</ele><time>2026-05-01T10:38:54.659Z</time></trkpt><trkpt lat="44.3296583" lon="11.0114667"><ele>807.2</ele><time>2026-05-01T10:38:55.661Z</time></trkpt><trkpt lat="44.3297733" lon="11.011535"><ele>806.4</ele><time>2026-05-01T10:38:56.661Z</time></trkpt><trkpt lat="44.329885" lon="11.011595"><ele>805.6</ele><time>2026-05-01T10:38:57.657Z</time></trkpt><trkpt lat="44.3299817" lon="11.0116533"><ele>804.8000000000001</ele><time>2026-05-01T10:38:58.661Z</time></trkpt><trkpt lat="44.330075" lon="11.0117017"><ele>804.0</ele><time>2026-05-01T10:38:59.657Z</time></trkpt><trkpt lat="44.330165" lon="11.0117367"><ele>806.6</ele><time>2026-05-01T10:39:00.664Z</time></trkpt><trkpt lat="44.3302583" lon="11.0117683"><ele>809.2</ele><time>2026-05-01T10:39:01.658Z</time></trkpt><trkpt lat="44.3303383" lon="11.0118283"><ele>811.8000000000001</ele><time>2026-05-01T10:39:02.661Z</time></trkpt><trkpt lat="44.3304267" lon="11.0119017"><ele>814.4000000000001</ele><time>2026-05-01T10:39:03.661Z</time></trkpt><trkpt lat="44.3304967" lon="11.0119983"><ele>817.0</ele><time>2026-05-01T10:39:04.66Z</time></trkpt><trkpt lat="44.330555" lon="11.012105"><ele>815.3333333333333</ele><time>2026-05-01T10:39:05.664Z</time></trkpt><trkpt lat="44.3306017" lon="11.012205"><ele>813.6666666666666</ele><time>2026-05-01T10:39:06.659Z</time></trkpt><trkpt lat="44.330635" lon="11.0122967"><ele>812.0</ele><time>2026-05-01T10:39:07.66Z</time></trkpt><trkpt lat="44.3306767" lon="11.012365"><ele>810.3333333333333</ele><time>2026-05-01T10:39:08.661Z</time></trkpt><trkpt lat="44.3307817" lon="11.0124367"><ele>808.6666666666666</ele><time>2026-05-01T10:39:10.659Z</time></trkpt><trkpt lat="44.3308583" lon="11.012435"><ele>807.0</ele><time>2026-05-01T10:39:11.658Z</time></trkpt><trkpt lat="44.3309633" lon="11.0124383"><ele>807.0</ele><time>2026-05-01T10:39:12.662Z</time></trkpt><trkpt lat="44.3311133" lon="11.0124733"><ele>807.0</ele><time>2026-05-01T10:39:13.657Z</time></trkpt><trkpt lat="44.3312617" lon="11.0125133"><ele>807.0</ele><time>2026-05-01T10:39:14.667Z</time></trkpt><trkpt lat="44.3314" lon="11.0125283"><ele>807.0</ele><time>2026-05-01T10:39:15.661Z</time></trkpt><trkpt lat="44.3315283" lon="11.0125033"><ele>802.25</ele><time>2026-05-01T10:39:16.659Z</time></trkpt><trkpt lat="44.3316583" lon="11.01247"><ele>797.5</ele><time>2026-05-01T10:39:17.663Z</time></trkpt><trkpt lat="44.33179" lon="11.0124583"><ele>792.75</ele><time>2026-05-01T10:39:18.662Z</time></trkpt><trkpt lat="44.331925" lon="11.0124683"><ele>788.0</ele><time>2026-05-01T10:39:19.663Z</time></trkpt><trkpt lat="44.3320633" lon="11.0125033"><ele>788.0</ele><time>2026-05-01T10:39:20.663Z</time></trkpt><trkpt lat="44.3322033" lon="11.0125567"><ele>788.0</ele><time>2026-05-01T10:39:21.657Z</time></trkpt><trkpt lat="44.332335" lon="11.0126117"><ele>788.0</ele><time>2026-05-01T10:39:22.66Z</time></trkpt><trkpt lat="44.33246" lon="11.0126617"><ele>788.0</ele><time>2026-05-01T10:39:23.659Z</time></trkpt><trkpt lat="44.3325833" lon="11.01271"><ele>785.5</ele><time>2026-05-01T10:39:24.661Z</time></trkpt><trkpt lat="44.3327033" lon="11.0127617"><ele>783.0</ele><time>2026-05-01T10:39:25.659Z</time></trkpt><trkpt lat="44.3328217" lon="11.0128167"><ele>780.5</ele><time>2026-05-01T10:39:26.661Z</time></trkpt><trkpt lat="44.3329333" lon="11.012875"><ele>778.0</ele><time>2026-05-01T10:39:27.654Z</time></trkpt><trkpt lat="44.3330367" lon="11.0129267"><ele>776.8</ele><time>2026-05-01T10:39:28.659Z</time></trkpt><trkpt lat="44.33314" lon="11.012975"><ele>775.5999999999999</ele><time>2026-05-01T10:39:29.659Z</time></trkpt><trkpt lat="44.3332467" lon="11.01301"><ele>774.4000000000001</ele><time>2026-05-01T10:39:30.661Z</time></trkpt><trkpt lat="44.3333617" lon="11.01303"><ele>773.2</ele><time>2026-05-01T10:39:31.665Z</time></trkpt><trkpt lat="44.333475" lon="11.0130433"><ele>772.0</ele><time>2026-05-01T10:39:32.657Z</time></trkpt><trkpt lat="44.333585" lon="11.0130467"><ele>772.0</ele><time>2026-05-01T10:39:33.659Z</time></trkpt><trkpt lat="44.3336933" lon="11.0130433"><ele>772.0</ele><time>2026-05-01T10:39:34.662Z</time></trkpt><trkpt lat="44.3337917" lon="11.0130267"><ele>772.0</ele><time>2026-05-01T10:39:35.656Z</time></trkpt><trkpt lat="44.3338867" lon="11.012985"><ele>772.0</ele><time>2026-05-01T10:39:36.662Z</time></trkpt><trkpt lat="44.3339767" lon="11.012915"><ele>772.0</ele><time>2026-05-01T10:39:37.657Z</time></trkpt><trkpt lat="44.334055" lon="11.0128233"><ele>771.75</ele><time>2026-05-01T10:39:38.66Z</time></trkpt><trkpt lat="44.3341333" lon="11.0127183"><ele>771.5</ele><time>2026-05-01T10:39:39.659Z</time></trkpt><trkpt lat="44.334215" lon="11.0126067"><ele>771.25</ele><time>2026-05-01T10:39:40.659Z</time></trkpt><trkpt lat="44.334305" lon="11.0124883"><ele>771.0</ele><time>2026-05-01T10:39:41.657Z</time></trkpt><trkpt lat="44.334405" lon="11.0123783"><ele>770.25</ele><time>2026-05-01T10:39:42.659Z</time></trkpt><trkpt lat="44.3345183" lon="11.0122833"><ele>769.5</ele><time>2026-05-01T10:39:43.656Z</time></trkpt><trkpt lat="44.3346283" lon="11.0122033"><ele>768.75</ele><time>2026-05-01T10:39:44.663Z</time></trkpt><trkpt lat="44.3347333" lon="11.0121267"><ele>768.0</ele><time>2026-05-01T10:39:45.658Z</time></trkpt><trkpt lat="44.3348367" lon="11.0120533"><ele>768.0</ele><time>2026-05-01T10:39:46.661Z</time></trkpt><trkpt lat="44.3349283" lon="11.011985"><ele>768.0</ele><time>2026-05-01T10:39:47.657Z</time></trkpt><trkpt lat="44.3350083" lon="11.011925"><ele>768.0</ele><time>2026-05-01T10:39:48.664Z</time></trkpt><trkpt lat="44.3350733" lon="11.0118783"><ele>768.0</ele><time>2026-05-01T10:39:49.66Z</time></trkpt><trkpt lat="44.3351733" lon="11.0118333"><ele>768.0</ele><time>2026-05-01T10:39:51.659Z</time></trkpt><trkpt lat="44.3352517" lon="11.0118067"><ele>768.0</ele><time>2026-05-01T10:40:19.657Z</time></trkpt><trkpt lat="44.3353667" lon="11.0117533"><ele>768.0</ele><time>2026-05-01T10:40:21.661Z</time></trkpt><trkpt lat="44.3354467" lon="11.0117433"><ele>768.0</ele><time>2026-05-01T10:40:22.658Z</time></trkpt><trkpt lat="44.3355333" lon="11.01175"><ele>768.0</ele><time>2026-05-01T10:40:23.662Z</time></trkpt><trkpt lat="44.3356217" lon="11.0117667"><ele>768.0</ele><time>2026-05-01T10:40:24.658Z</time></trkpt><trkpt lat="44.33571" lon="11.0117883"><ele>768.4</ele><time>2026-05-01T10:40:25.663Z</time></trkpt><trkpt lat="44.3358017" lon="11.0118133"><ele>768.8</ele><time>2026-05-01T10:40:26.654Z</time></trkpt><trkpt lat="44.3358917" lon="11.011845"><ele>769.2</ele><time>2026-05-01T10:40:27.659Z</time></trkpt><trkpt lat="44.3359833" lon="11.011885"><ele>769.6</ele><time>2026-05-01T10:40:28.659Z</time></trkpt><trkpt lat="44.3360783" lon="11.0119333"><ele>770.0</ele><time>2026-05-01T10:40:29.663Z</time></trkpt><trkpt lat="44.336175" lon="11.0119883"><ele>770.0</ele><time>2026-05-01T10:40:30.657Z</time></trkpt><trkpt lat="44.3362667" lon="11.0120467"><ele>770.0</ele><time>2026-05-01T10:40:31.66Z</time></trkpt><trkpt lat="44.3363567" lon="11.0121117"><ele>770.0</ele><time>2026-05-01T10:40:32.659Z</time></trkpt><trkpt lat="44.336445" lon="11.012185"><ele>770.0</ele><time>2026-05-01T10:40:33.66Z</time></trkpt><trkpt lat="44.3365333" lon="11.0122667"><ele>770.0</ele><time>2026-05-01T10:40:34.657Z</time></trkpt><trkpt lat="44.3366183" lon="11.012345"><ele>770.4</ele><time>2026-05-01T10:40:35.657Z</time></trkpt><trkpt lat="44.3367033" lon="11.0124267"><ele>770.8</ele><time>2026-05-01T10:40:36.659Z</time></trkpt><trkpt lat="44.33679" lon="11.0125133"><ele>771.2</ele><time>2026-05-01T10:40:37.66Z</time></trkpt><trkpt lat="44.3368783" lon="11.0125967"><ele>771.6</ele><time>2026-05-01T10:40:38.659Z</time></trkpt><trkpt lat="44.3369617" lon="11.0126683"><ele>772.0</ele><time>2026-05-01T10:40:39.665Z</time></trkpt><trkpt lat="44.337045" lon="11.0127217"><ele>770.5</ele><time>2026-05-01T10:40:40.659Z</time></trkpt><trkpt lat="44.3371433" lon="11.0127433"><ele>769.0</ele><time>2026-05-01T10:40:41.655Z</time></trkpt><trkpt lat="44.3372533" lon="11.0127333"><ele>767.5</ele><time>2026-05-01T10:40:42.657Z</time></trkpt><trkpt lat="44.337375" lon="11.0126967"><ele>766.0</ele><time>2026-05-01T10:40:43.659Z</time></trkpt><trkpt lat="44.337505" lon="11.012655"><ele>765.5</ele><time>2026-05-01T10:40:44.662Z</time></trkpt><trkpt lat="44.3376367" lon="11.012615"><ele>765.0</ele><time>2026-05-01T10:40:45.66Z</time></trkpt><trkpt lat="44.337765" lon="11.0125583"><ele>764.5</ele><time>2026-05-01T10:40:46.656Z</time></trkpt><trkpt lat="44.3378917" lon="11.0124867"><ele>764.0</ele><time>2026-05-01T10:40:47.658Z</time></trkpt><trkpt lat="44.3380167" lon="11.0124017"><ele>767.75</ele><time>2026-05-01T10:40:48.664Z</time></trkpt><trkpt lat="44.33814" lon="11.0123117"><ele>771.5</ele><time>2026-05-01T10:40:49.661Z</time></trkpt><trkpt lat="44.3382683" lon="11.012215"><ele>775.25</ele><time>2026-05-01T10:40:50.661Z</time></trkpt><trkpt lat="44.3383983" lon="11.0121167"><ele>779.0</ele><time>2026-05-01T10:40:51.656Z</time></trkpt><trkpt lat="44.3385317" lon="11.0120167"><ele>779.0</ele><time>2026-05-01T10:40:52.659Z</time></trkpt><trkpt lat="44.338665" lon="11.0119167"><ele>779.0</ele><time>2026-05-01T10:40:53.66Z</time></trkpt><trkpt lat="44.3387933" lon="11.011825"><ele>779.0</ele><time>2026-05-01T10:40:54.661Z</time></trkpt><trkpt lat="44.3389217" lon="11.0117517"><ele>779.0</ele><time>2026-05-01T10:40:55.656Z</time></trkpt><trkpt lat="44.3390583" lon="11.0117033"><ele>778.0</ele><time>2026-05-01T10:40:56.659Z</time></trkpt><trkpt lat="44.3391983" lon="11.0116717"><ele>777.0</ele><time>2026-05-01T10:40:57.661Z</time></trkpt><trkpt lat="44.3393367" lon="11.0116383"><ele>776.0</ele><time>2026-05-01T10:40:58.655Z</time></trkpt><trkpt lat="44.339475" lon="11.01158"><ele>775.0</ele><time>2026-05-01T10:40:59.66Z</time></trkpt><trkpt lat="44.33961" lon="11.0115017"><ele>773.75</ele><time>2026-05-01T10:41:00.66Z</time></trkpt><trkpt lat="44.3397283" lon="11.0114"><ele>772.5</ele><time>2026-05-01T10:41:01.654Z</time></trkpt><trkpt lat="44.33984" lon="11.0112817"><ele>771.25</ele><time>2026-05-01T10:41:02.662Z</time></trkpt><trkpt lat="44.3399533" lon="11.0111667"><ele>770.0</ele><time>2026-05-01T10:41:03.662Z</time></trkpt><trkpt lat="44.3400717" lon="11.0110733"><ele>770.0</ele><time>2026-05-01T10:41:04.659Z</time></trkpt><trkpt lat="44.3401967" lon="11.011005"><ele>770.0</ele><time>2026-05-01T10:41:05.66Z</time></trkpt><trkpt lat="44.34032" lon="11.0109683"><ele>770.0</ele><time>2026-05-01T10:41:06.657Z</time></trkpt><trkpt lat="44.3404383" lon="11.0109483"><ele>770.0</ele><time>2026-05-01T10:41:07.655Z</time></trkpt><trkpt lat="44.3405617" lon="11.0109283"><ele>768.0</ele><time>2026-05-01T10:41:08.653Z</time></trkpt><trkpt lat="44.3406817" lon="11.0108883"><ele>766.0</ele><time>2026-05-01T10:41:09.659Z</time></trkpt><trkpt lat="44.340795" lon="11.0108033"><ele>764.0</ele><time>2026-05-01T10:41:10.663Z</time></trkpt><trkpt lat="44.3409017" lon="11.0106867"><ele>762.0</ele><time>2026-05-01T10:41:11.661Z</time></trkpt><trkpt lat="44.341005" lon="11.0105483"><ele>762.0</ele><time>2026-05-01T10:41:12.662Z</time></trkpt><trkpt lat="44.3411117" lon="11.0104033"><ele>762.0</ele><time>2026-05-01T10:41:13.656Z</time></trkpt><trkpt lat="44.3412033" lon="11.0102683"><ele>762.0</ele><time>2026-05-01T10:41:14.661Z</time></trkpt><trkpt lat="44.34129" lon="11.010165"><ele>762.0</ele><time>2026-05-01T10:41:15.657Z</time></trkpt><trkpt lat="44.3413883" lon="11.0100967"><ele>762.75</ele><time>2026-05-01T10:41:16.66Z</time></trkpt><trkpt lat="44.3414933" lon="11.010065"><ele>763.5</ele><time>2026-05-01T10:41:17.655Z</time></trkpt><trkpt lat="44.3416033" lon="11.0100833"><ele>764.25</ele><time>2026-05-01T10:41:18.661Z</time></trkpt><trkpt lat="44.3417217" lon="11.0101333"><ele>765.0</ele><time>2026-05-01T10:41:19.662Z</time></trkpt><trkpt lat="44.3418483" lon="11.0101983"><ele>765.0</ele><time>2026-05-01T10:41:20.661Z</time></trkpt><trkpt lat="44.3419833" lon="11.0102667"><ele>765.0</ele><time>2026-05-01T10:41:21.662Z</time></trkpt><trkpt lat="44.3421233" lon="11.0103267"><ele>765.0</ele><time>2026-05-01T10:41:22.657Z</time></trkpt><trkpt lat="44.34226" lon="11.0103867"><ele>765.0</ele><time>2026-05-01T10:41:23.661Z</time></trkpt><trkpt lat="44.342385" lon="11.0104483"><ele>766.5</ele><time>2026-05-01T10:41:24.657Z</time></trkpt><trkpt lat="44.3424967" lon="11.0105067"><ele>768.0</ele><time>2026-05-01T10:41:25.657Z</time></trkpt><trkpt lat="44.342605" lon="11.0105567"><ele>769.5</ele><time>2026-05-01T10:41:26.66Z</time></trkpt><trkpt lat="44.3427133" lon="11.0105717"><ele>771.0</ele><time>2026-05-01T10:41:27.66Z</time></trkpt><trkpt lat="44.34282" lon="11.0105383"><ele>771.0</ele><time>2026-05-01T10:41:28.699Z</time></trkpt><trkpt lat="44.3429267" lon="11.0104767"><ele>771.0</ele><time>2026-05-01T10:41:29.662Z</time></trkpt><trkpt lat="44.3430367" lon="11.0104017"><ele>771.0</ele><time>2026-05-01T10:41:30.663Z</time></trkpt><trkpt lat="44.343155" lon="11.01033"><ele>771.0</ele><time>2026-05-01T10:41:31.66Z</time></trkpt><trkpt lat="44.3432883" lon="11.0102767"><ele>773.25</ele><time>2026-05-01T10:41:32.653Z</time></trkpt><trkpt lat="44.343435" lon="11.0102333"><ele>775.5</ele><time>2026-05-01T10:41:33.656Z</time></trkpt><trkpt lat="44.3435833" lon="11.0101933"><ele>777.75</ele><time>2026-05-01T10:41:34.662Z</time></trkpt><trkpt lat="44.3437267" lon="11.0101533"><ele>780.0</ele><time>2026-05-01T10:41:35.662Z</time></trkpt><trkpt lat="44.343865" lon="11.010115"><ele>782.0</ele><time>2026-05-01T10:41:36.656Z</time></trkpt><trkpt lat="44.3440033" lon="11.0100767"><ele>784.0</ele><time>2026-05-01T10:41:37.667Z</time></trkpt><trkpt lat="44.344145" lon="11.010045"><ele>786.0</ele><time>2026-05-01T10:41:38.656Z</time></trkpt><trkpt lat="44.3442883" lon="11.0100183"><ele>788.0</ele><time>2026-05-01T10:41:39.656Z</time></trkpt><trkpt lat="44.34443" lon="11.0099967"><ele>788.5</ele><time>2026-05-01T10:41:40.661Z</time></trkpt><trkpt lat="44.3445767" lon="11.009985"><ele>789.0</ele><time>2026-05-01T10:41:41.662Z</time></trkpt><trkpt lat="44.3447217" lon="11.0099883"><ele>789.5</ele><time>2026-05-01T10:41:42.661Z</time></trkpt><trkpt lat="44.34487" lon="11.01"><ele>790.0</ele><time>2026-05-01T10:41:43.661Z</time></trkpt><trkpt lat="44.3450167" lon="11.0100117"><ele>791.0</ele><time>2026-05-01T10:41:44.66Z</time></trkpt><trkpt lat="44.3451617" lon="11.010025"><ele>792.0</ele><time>2026-05-01T10:41:45.663Z</time></trkpt><trkpt lat="44.34531" lon="11.0100317"><ele>793.0</ele><time>2026-05-01T10:41:46.657Z</time></trkpt><trkpt lat="44.345455" lon="11.0100367"><ele>794.0</ele><time>2026-05-01T10:41:47.661Z</time></trkpt><trkpt lat="44.3456033" lon="11.010035"><ele>796.0</ele><time>2026-05-01T10:41:48.662Z</time></trkpt><trkpt lat="44.3457483" lon="11.01003"><ele>798.0</ele><time>2026-05-01T10:41:49.671Z</time></trkpt><trkpt lat="44.345885" lon="11.0100217"><ele>800.0</ele><time>2026-05-01T10:41:50.664Z</time></trkpt><trkpt lat="44.3460117" lon="11.010015"><ele>802.0</ele><time>2026-05-01T10:41:51.664Z</time></trkpt><trkpt lat="44.3461333" lon="11.0100117"><ele>802.0</ele><time>2026-05-01T10:41:52.659Z</time></trkpt><trkpt lat="44.3462433" lon="11.0100133"><ele>802.0</ele><time>2026-05-01T10:41:53.66Z</time></trkpt><trkpt lat="44.3463467" lon="11.010025"><ele>802.0</ele><time>2026-05-01T10:41:54.66Z</time></trkpt><trkpt lat="44.346445" lon="11.01005"><ele>802.0</ele><time>2026-05-01T10:41:55.659Z</time></trkpt><trkpt lat="44.3465433" lon="11.0100983"><ele>802.0</ele><time>2026-05-01T10:41:56.662Z</time></trkpt><trkpt lat="44.34664" lon="11.01017"><ele>802.8</ele><time>2026-05-01T10:41:57.657Z</time></trkpt><trkpt lat="44.3467417" lon="11.0102533"><ele>803.6</ele><time>2026-05-01T10:41:58.656Z</time></trkpt><trkpt lat="44.3468433" lon="11.01034"><ele>804.4</ele><time>2026-05-01T10:41:59.659Z</time></trkpt><trkpt lat="44.3469333" lon="11.010425"><ele>805.1999999999999</ele><time>2026-05-01T10:42:00.66Z</time></trkpt><trkpt lat="44.3470083" lon="11.010505"><ele>806.0</ele><time>2026-05-01T10:42:01.661Z</time></trkpt><trkpt lat="44.34707" lon="11.0105733"><ele>806.0000000000001</ele><time>2026-05-01T10:42:02.661Z</time></trkpt><trkpt lat="44.3471267" lon="11.0106167"><ele>806.0</ele><time>2026-05-01T10:42:03.661Z</time></trkpt><trkpt lat="44.34719" lon="11.0106217"><ele>806.0</ele><time>2026-05-01T10:42:04.66Z</time></trkpt><trkpt lat="44.3472533" lon="11.0105917"><ele>806.0</ele><time>2026-05-01T10:42:05.66Z</time></trkpt><trkpt lat="44.3473383" lon="11.010525"><ele>806.0000000000001</ele><time>2026-05-01T10:42:06.663Z</time></trkpt><trkpt lat="44.347445" lon="11.0104067"><ele>806.0</ele><time>2026-05-01T10:42:07.662Z</time></trkpt><trkpt lat="44.3475517" lon="11.010295"><ele>806.25</ele><time>2026-05-01T10:42:08.662Z</time></trkpt><trkpt lat="44.34765" lon="11.0101967"><ele>806.5</ele><time>2026-05-01T10:42:09.662Z</time></trkpt><trkpt lat="44.3477417" lon="11.0101"><ele>806.75</ele><time>2026-05-01T10:42:10.662Z</time></trkpt><trkpt lat="44.3478283" lon="11.010005"><ele>807.0</ele><time>2026-05-01T10:42:11.662Z</time></trkpt><trkpt lat="44.347915" lon="11.0099117"><ele>806.0</ele><time>2026-05-01T10:42:12.659Z</time></trkpt><trkpt lat="44.348" lon="11.0098267"><ele>805.0</ele><time>2026-05-01T10:42:13.657Z</time></trkpt><trkpt lat="44.34809" lon="11.0097667"><ele>804.0</ele><time>2026-05-01T10:42:14.658Z</time></trkpt><trkpt lat="44.3481883" lon="11.009735"><ele>803.0</ele><time>2026-05-01T10:42:15.661Z</time></trkpt><trkpt lat="44.34829" lon="11.009715"><ele>802.0</ele><time>2026-05-01T10:42:16.661Z</time></trkpt><trkpt lat="44.348395" lon="11.0096967"><ele>801.25</ele><time>2026-05-01T10:42:17.664Z</time></trkpt><trkpt lat="44.3485067" lon="11.00968"><ele>800.5</ele><time>2026-05-01T10:42:18.661Z</time></trkpt><trkpt lat="44.3486233" lon="11.0096633"><ele>799.75</ele><time>2026-05-01T10:42:19.658Z</time></trkpt><trkpt lat="44.34874" lon="11.00963"><ele>799.0</ele><time>2026-05-01T10:42:20.66Z</time></trkpt><trkpt lat="44.34886" lon="11.0095917"><ele>796.75</ele><time>2026-05-01T10:42:21.667Z</time></trkpt><trkpt lat="44.3489783" lon="11.0095533"><ele>794.5</ele><time>2026-05-01T10:42:22.66Z</time></trkpt><trkpt lat="44.3490933" lon="11.0095083"><ele>792.25</ele><time>2026-05-01T10:42:23.661Z</time></trkpt><trkpt lat="44.3492183" lon="11.009475"><ele>790.0</ele><time>2026-05-01T10:42:24.659Z</time></trkpt><trkpt lat="44.3493533" lon="11.00945"><ele>790.0</ele><time>2026-05-01T10:42:25.659Z</time></trkpt><trkpt lat="44.3494883" lon="11.0094317"><ele>790.0</ele><time>2026-05-01T10:42:26.662Z</time></trkpt><trkpt lat="44.3496233" lon="11.0094117"><ele>790.0</ele><time>2026-05-01T10:42:27.658Z</time></trkpt><trkpt lat="44.34976" lon="11.0093867"><ele>790.0</ele><time>2026-05-01T10:42:28.659Z</time></trkpt><trkpt lat="44.3498933" lon="11.00936"><ele>788.5</ele><time>2026-05-01T10:42:29.66Z</time></trkpt><trkpt lat="44.3500267" lon="11.0093483"><ele>787.0</ele><time>2026-05-01T10:42:30.662Z</time></trkpt><trkpt lat="44.3501617" lon="11.00934"><ele>785.5</ele><time>2026-05-01T10:42:31.662Z</time></trkpt><trkpt lat="44.3502983" lon="11.0093267"><ele>784.0</ele><time>2026-05-01T10:42:32.661Z</time></trkpt><trkpt lat="44.3504383" lon="11.0093033"><ele>783.25</ele><time>2026-05-01T10:42:33.66Z</time></trkpt><trkpt lat="44.3505833" lon="11.009265"><ele>782.5</ele><time>2026-05-01T10:42:34.657Z</time></trkpt><trkpt lat="44.3507283" lon="11.0092117"><ele>781.75</ele><time>2026-05-01T10:42:35.659Z</time></trkpt><trkpt lat="44.35087" lon="11.0091517"><ele>781.0</ele><time>2026-05-01T10:42:36.663Z</time></trkpt><trkpt lat="44.351005" lon="11.0090883"><ele>779.0</ele><time>2026-05-01T10:42:37.663Z</time></trkpt><trkpt lat="44.351135" lon="11.00903"><ele>777.0</ele><time>2026-05-01T10:42:38.659Z</time></trkpt><trkpt lat="44.3512633" lon="11.0089767"><ele>775.0</ele><time>2026-05-01T10:42:39.662Z</time></trkpt><trkpt lat="44.3513833" lon="11.008925"><ele>773.0</ele><time>2026-05-01T10:42:40.661Z</time></trkpt><trkpt lat="44.351495" lon="11.0088617"><ele>772.0</ele><time>2026-05-01T10:42:41.658Z</time></trkpt><trkpt lat="44.3516067" lon="11.0087917"><ele>771.0</ele><time>2026-05-01T10:42:42.659Z</time></trkpt><trkpt lat="44.3517133" lon="11.0087217"><ele>770.0</ele><time>2026-05-01T10:42:43.661Z</time></trkpt><trkpt lat="44.35182" lon="11.008655"><ele>769.0</ele><time>2026-05-01T10:42:44.66Z</time></trkpt><trkpt lat="44.35193" lon="11.0086"><ele>769.0</ele><time>2026-05-01T10:42:45.659Z</time></trkpt><trkpt lat="44.3520367" lon="11.0085617"><ele>769.0</ele><time>2026-05-01T10:42:46.655Z</time></trkpt><trkpt lat="44.3521433" lon="11.0085417"><ele>769.0</ele><time>2026-05-01T10:42:47.657Z</time></trkpt><trkpt lat="44.35225" lon="11.0085433"><ele>769.0</ele><time>2026-05-01T10:42:48.656Z</time></trkpt><trkpt lat="44.352355" lon="11.0085367"><ele>769.0</ele><time>2026-05-01T10:42:49.659Z</time></trkpt><trkpt lat="44.3524517" lon="11.008505"><ele>767.4000000000001</ele><time>2026-05-01T10:42:50.662Z</time></trkpt><trkpt lat="44.3525433" lon="11.00845"><ele>765.8</ele><time>2026-05-01T10:42:51.659Z</time></trkpt><trkpt lat="44.352635" lon="11.0083783"><ele>764.2</ele><time>2026-05-01T10:42:52.655Z</time></trkpt><trkpt lat="44.3527233" lon="11.0082933"><ele>762.5999999999999</ele><time>2026-05-01T10:42:53.661Z</time></trkpt><trkpt lat="44.352815" lon="11.0081983"><ele>761.0</ele><time>2026-05-01T10:42:54.66Z</time></trkpt><trkpt lat="44.352905" lon="11.0081067"><ele>758.5999999999999</ele><time>2026-05-01T10:42:55.658Z</time></trkpt><trkpt lat="44.3529867" lon="11.00802"><ele>756.2</ele><time>2026-05-01T10:42:56.668Z</time></trkpt><trkpt lat="44.3530667" lon="11.0079417"><ele>753.8</ele><time>2026-05-01T10:42:57.657Z</time></trkpt><trkpt lat="44.3531433" lon="11.0078717"><ele>751.4000000000001</ele><time>2026-05-01T10:42:58.659Z</time></trkpt><trkpt lat="44.3532217" lon="11.007825"><ele>749.0</ele><time>2026-05-01T10:42:59.663Z</time></trkpt><trkpt lat="44.3533033" lon="11.0077967"><ele>749.0</ele><time>2026-05-01T10:43:00.659Z</time></trkpt><trkpt lat="44.353385" lon="11.0078033"><ele>749.0</ele><time>2026-05-01T10:43:01.657Z</time></trkpt><trkpt lat="44.3534583" lon="11.00785"><ele>749.0</ele><time>2026-05-01T10:43:02.661Z</time></trkpt><trkpt lat="44.3535333" lon="11.0078783"><ele>749.0</ele><time>2026-05-01T10:43:03.661Z</time></trkpt><trkpt lat="44.3536117" lon="11.0078833"><ele>749.0</ele><time>2026-05-01T10:43:04.659Z</time></trkpt><trkpt lat="44.3537033" lon="11.0078533"><ele>749.0</ele><time>2026-05-01T10:43:05.664Z</time></trkpt><trkpt lat="44.3538083" lon="11.00779"><ele>746.25</ele><time>2026-05-01T10:43:06.66Z</time></trkpt><trkpt lat="44.35392" lon="11.0077283"><ele>743.5</ele><time>2026-05-01T10:43:07.661Z</time></trkpt><trkpt lat="44.3540367" lon="11.0076683"><ele>740.75</ele><time>2026-05-01T10:43:08.666Z</time></trkpt><trkpt lat="44.3541517" lon="11.0076283"><ele>738.0</ele><time>2026-05-01T10:43:09.661Z</time></trkpt><trkpt lat="44.35426" lon="11.0075967"><ele>738.0</ele><time>2026-05-01T10:43:10.66Z</time></trkpt><trkpt lat="44.3543633" lon="11.0075683"><ele>738.0</ele><time>2026-05-01T10:43:11.66Z</time></trkpt><trkpt lat="44.3544517" lon="11.0075417"><ele>738.0</ele><time>2026-05-01T10:43:12.661Z</time></trkpt><trkpt lat="44.3545333" lon="11.0075167"><ele>738.0</ele><time>2026-05-01T10:43:13.662Z</time></trkpt><trkpt lat="44.354605" lon="11.0074817"><ele>738.0</ele><time>2026-05-01T10:43:14.655Z</time></trkpt><trkpt lat="44.354665" lon="11.007435"><ele>738.0</ele><time>2026-05-01T10:43:15.658Z</time></trkpt><trkpt lat="44.3547233" lon="11.0072933"><ele>732.8</ele><time>2026-05-01T10:43:17.659Z</time></trkpt><trkpt lat="44.35477" lon="11.0071833"><ele>727.5999999999999</ele><time>2026-05-01T10:43:19.657Z</time></trkpt><trkpt lat="44.3549083" lon="11.0071567"><ele>722.4000000000001</ele><time>2026-05-01T10:43:21.657Z</time></trkpt><trkpt lat="44.355" lon="11.0071683"><ele>717.2</ele><time>2026-05-01T10:43:22.66Z</time></trkpt><trkpt lat="44.35509" lon="11.007175"><ele>712.0</ele><time>2026-05-01T10:43:23.657Z</time></trkpt><trkpt lat="44.3551767" lon="11.007175"><ele>712.0</ele><time>2026-05-01T10:43:24.663Z</time></trkpt><trkpt lat="44.355265" lon="11.007175"><ele>712.0</ele><time>2026-05-01T10:43:25.656Z</time></trkpt><trkpt lat="44.3553483" lon="11.00716"><ele>712.0</ele><time>2026-05-01T10:43:26.656Z</time></trkpt><trkpt lat="44.355435" lon="11.0071333"><ele>712.0</ele><time>2026-05-01T10:43:27.661Z</time></trkpt><trkpt lat="44.3555167" lon="11.0071"><ele>712.0</ele><time>2026-05-01T10:43:28.659Z</time></trkpt><trkpt lat="44.355595" lon="11.0070617"><ele>712.0</ele><time>2026-05-01T10:43:29.66Z</time></trkpt><trkpt lat="44.355655" lon="11.00702"><ele>710.4000000000001</ele><time>2026-05-01T10:43:30.663Z</time></trkpt><trkpt lat="44.35574" lon="11.0069467"><ele>708.8000000000001</ele><time>2026-05-01T10:43:32.66Z</time></trkpt><trkpt lat="44.3558267" lon="11.0069183"><ele>707.2</ele><time>2026-05-01T10:43:34.658Z</time></trkpt><trkpt lat="44.355925" lon="11.00695"><ele>705.6</ele><time>2026-05-01T10:43:36.658Z</time></trkpt><trkpt lat="44.3560267" lon="11.0069567"><ele>704.0</ele><time>2026-05-01T10:43:38.659Z</time></trkpt><trkpt lat="44.35614" lon="11.0069033"><ele>704.0</ele><time>2026-05-01T10:43:40.664Z</time></trkpt><trkpt lat="44.356205" lon="11.0068767"><ele>704.0</ele><time>2026-05-01T10:43:41.658Z</time></trkpt><trkpt lat="44.356275" lon="11.0068333"><ele>704.0</ele><time>2026-05-01T10:43:42.66Z</time></trkpt><trkpt lat="44.3563467" lon="11.0067967"><ele>704.0</ele><time>2026-05-01T10:43:43.658Z</time></trkpt><trkpt lat="44.3564617" lon="11.006765"><ele>704.0</ele><time>2026-05-01T10:43:45.665Z</time></trkpt><trkpt lat="44.3565383" lon="11.00677"><ele>704.0</ele><time>2026-05-01T10:43:47.661Z</time></trkpt><trkpt lat="44.3566317" lon="11.006765"><ele>700.25</ele><time>2026-05-01T10:43:50.662Z</time></trkpt><trkpt lat="44.356775" lon="11.0067567"><ele>696.5</ele><time>2026-05-01T10:43:52.657Z</time></trkpt><trkpt lat="44.356885" lon="11.0067483"><ele>692.75</ele><time>2026-05-01T10:43:53.661Z</time></trkpt><trkpt lat="44.356995" lon="11.0067217"><ele>689.0</ele><time>2026-05-01T10:43:54.657Z</time></trkpt><trkpt lat="44.3571067" lon="11.0066783"><ele>685.25</ele><time>2026-05-01T10:43:55.661Z</time></trkpt><trkpt lat="44.3572183" lon="11.00663"><ele>681.5</ele><time>2026-05-01T10:43:56.657Z</time></trkpt><trkpt lat="44.3573317" lon="11.00658"><ele>677.75</ele><time>2026-05-01T10:43:57.658Z</time></trkpt><trkpt lat="44.3574433" lon="11.006535"><ele>674.0</ele><time>2026-05-01T10:43:58.656Z</time></trkpt><trkpt lat="44.357555" lon="11.0065033"><ele>674.0</ele><time>2026-05-01T10:43:59.658Z</time></trkpt><trkpt lat="44.35766" lon="11.00649"><ele>674.0</ele><time>2026-05-01T10:44:00.661Z</time></trkpt><trkpt lat="44.357755" lon="11.0064783"><ele>674.0</ele><time>2026-05-01T10:44:01.66Z</time></trkpt><trkpt lat="44.357845" lon="11.00646"><ele>674.0</ele><time>2026-05-01T10:44:02.661Z</time></trkpt><trkpt lat="44.3579267" lon="11.006435"><ele>674.0</ele><time>2026-05-01T10:44:03.662Z</time></trkpt><trkpt lat="44.3580017" lon="11.0064"><ele>674.2</ele><time>2026-05-01T10:44:04.656Z</time></trkpt><trkpt lat="44.3580733" lon="11.0063583"><ele>674.4000000000001</ele><time>2026-05-01T10:44:05.657Z</time></trkpt><trkpt lat="44.3581483" lon="11.0063033"><ele>674.6</ele><time>2026-05-01T10:44:06.661Z</time></trkpt><trkpt lat="44.358225" lon="11.0062367"><ele>674.8</ele><time>2026-05-01T10:44:07.662Z</time></trkpt><trkpt lat="44.3583067" lon="11.0061633"><ele>675.0</ele><time>2026-05-01T10:44:08.658Z</time></trkpt><trkpt lat="44.3583917" lon="11.006085"><ele>675.0</ele><time>2026-05-01T10:44:09.661Z</time></trkpt><trkpt lat="44.3584767" lon="11.006"><ele>675.0</ele><time>2026-05-01T10:44:10.657Z</time></trkpt><trkpt lat="44.358555" lon="11.00591"><ele>675.0</ele><time>2026-05-01T10:44:11.657Z</time></trkpt><trkpt lat="44.35863" lon="11.0058217"><ele>675.0</ele><time>2026-05-01T10:44:12.662Z</time></trkpt><trkpt lat="44.3586983" lon="11.0057367"><ele>675.0</ele><time>2026-05-01T10:44:13.656Z</time></trkpt><trkpt lat="44.3587583" lon="11.005655"><ele>672.8</ele><time>2026-05-01T10:44:14.663Z</time></trkpt><trkpt lat="44.3588117" lon="11.0055733"><ele>670.6</ele><time>2026-05-01T10:44:15.656Z</time></trkpt><trkpt lat="44.358855" lon="11.0055033"><ele>668.4000000000001</ele><time>2026-05-01T10:44:16.657Z</time></trkpt><trkpt lat="44.3589417" lon="11.005385"><ele>666.2</ele><time>2026-05-01T10:44:18.658Z</time></trkpt><trkpt lat="44.3590317" lon="11.0052767"><ele>664.0</ele><time>2026-05-01T10:44:20.657Z</time></trkpt><trkpt lat="44.3591" lon="11.00517"><ele>664.0</ele><time>2026-05-01T10:44:22.657Z</time></trkpt><trkpt lat="44.35918" lon="11.00512"><ele>664.0</ele><time>2026-05-01T10:44:24.66Z</time></trkpt><trkpt lat="44.3592667" lon="11.005145"><ele>664.0</ele><time>2026-05-01T10:44:26.665Z</time></trkpt><trkpt lat="44.359385" lon="11.00522"><ele>664.0</ele><time>2026-05-01T10:44:28.657Z</time></trkpt><trkpt lat="44.3594517" lon="11.005255"><ele>664.0</ele><time>2026-05-01T10:44:29.664Z</time></trkpt><trkpt lat="44.3595233" lon="11.005285"><ele>664.0</ele><time>2026-05-01T10:44:30.659Z</time></trkpt><trkpt lat="44.35959" lon="11.0053117"><ele>664.0</ele><time>2026-05-01T10:44:31.658Z</time></trkpt><trkpt lat="44.35966" lon="11.0053367"><ele>664.0</ele><time>2026-05-01T10:44:32.658Z</time></trkpt><trkpt lat="44.359725" lon="11.0053517"><ele>664.0</ele><time>2026-05-01T10:44:33.656Z</time></trkpt><trkpt lat="44.359835" lon="11.0053367"><ele>664.0</ele><time>2026-05-01T10:44:35.659Z</time></trkpt><trkpt lat="44.3599283" lon="11.0052933"><ele>664.0</ele><time>2026-05-01T10:44:37.663Z</time></trkpt><trkpt lat="44.36001" lon="11.00524"><ele>660.75</ele><time>2026-05-01T10:44:39.66Z</time></trkpt><trkpt lat="44.3600983" lon="11.005145"><ele>657.5</ele><time>2026-05-01T10:44:41.663Z</time></trkpt><trkpt lat="44.3602017" lon="11.0051067"><ele>654.25</ele><time>2026-05-01T10:44:43.662Z</time></trkpt><trkpt lat="44.3603117" lon="11.00507"><ele>651.0</ele><time>2026-05-01T10:44:45.661Z</time></trkpt><trkpt lat="44.36043" lon="11.0050667"><ele>651.0</ele><time>2026-05-01T10:44:47.662Z</time></trkpt><trkpt lat="44.3605183" lon="11.0051367"><ele>651.0</ele><time>2026-05-01T10:44:49.665Z</time></trkpt><trkpt lat="44.3605917" lon="11.005175"><ele>651.0</ele><time>2026-05-01T10:44:51.656Z</time></trkpt><trkpt lat="44.36065" lon="11.0050967"><ele>651.0</ele><time>2026-05-01T10:44:54.659Z</time></trkpt><trkpt lat="44.3607033" lon="11.0050183"><ele>651.0</ele><time>2026-05-01T10:44:57.655Z</time></trkpt><trkpt lat="44.36079" lon="11.004975"><ele>651.0</ele><time>2026-05-01T10:45:00.663Z</time></trkpt><trkpt lat="44.3608583" lon="11.00494"><ele>646.8</ele><time>2026-05-01T10:45:02.662Z</time></trkpt><trkpt lat="44.3609283" lon="11.004885"><ele>642.5999999999999</ele><time>2026-05-01T10:45:04.658Z</time></trkpt><trkpt lat="44.3610117" lon="11.0048417"><ele>638.4</ele><time>2026-05-01T10:45:06.662Z</time></trkpt><trkpt lat="44.3611267" lon="11.00479"><ele>634.2</ele><time>2026-05-01T10:45:08.664Z</time></trkpt><trkpt lat="44.3612267" lon="11.0047683"><ele>630.0</ele><time>2026-05-01T10:45:10.661Z</time></trkpt><trkpt lat="44.3613033" lon="11.0047833"><ele>626.0</ele><time>2026-05-01T10:45:12.663Z</time></trkpt><trkpt lat="44.361385" lon="11.00477"><ele>622.0</ele><time>2026-05-01T10:45:14.659Z</time></trkpt><trkpt lat="44.3614867" lon="11.00472"><ele>618.0</ele><time>2026-05-01T10:45:16.665Z</time></trkpt><trkpt lat="44.361595" lon="11.0047183"><ele>614.0</ele><time>2026-05-01T10:45:18.664Z</time></trkpt><trkpt lat="44.3617" lon="11.0047283"><ele>610.0</ele><time>2026-05-01T10:45:20.664Z</time></trkpt><trkpt lat="44.3617867" lon="11.004685"><ele>610.0</ele><time>2026-05-01T10:45:22.659Z</time></trkpt><trkpt lat="44.361855" lon="11.0045933"><ele>610.0</ele><time>2026-05-01T10:45:24.662Z</time></trkpt><trkpt lat="44.3619" lon="11.0045017"><ele>610.0</ele><time>2026-05-01T10:45:26.66Z</time></trkpt><trkpt lat="44.361905" lon="11.0043717"><ele>610.0</ele><time>2026-05-01T10:45:29.666Z</time></trkpt><trkpt lat="44.3618617" lon="11.0042417"><ele>610.0</ele><time>2026-05-01T10:45:31.66Z</time></trkpt><trkpt lat="44.3618233" lon="11.0041083"><ele>609.6666666666667</ele><time>2026-05-01T10:45:33.66Z</time></trkpt><trkpt lat="44.3618133" lon="11.0040133"><ele>609.3333333333334</ele><time>2026-05-01T10:45:35.662Z</time></trkpt><trkpt lat="44.3618333" lon="11.0038467"><ele>609.0</ele><time>2026-05-01T10:46:17.657Z</time></trkpt><trkpt lat="44.3618183" lon="11.0037583"><ele>608.6666666666666</ele><time>2026-05-01T10:46:19.659Z</time></trkpt><trkpt lat="44.3618567" lon="11.0036667"><ele>608.3333333333333</ele><time>2026-05-01T10:46:22.665Z</time></trkpt><trkpt lat="44.361915" lon="11.0036283"><ele>608.0</ele><time>2026-05-01T10:46:24.658Z</time></trkpt><trkpt lat="44.3619767" lon="11.003555"><ele>608.0</ele><time>2026-05-01T10:46:26.664Z</time></trkpt><trkpt lat="44.3620367" lon="11.0034967"><ele>608.0</ele><time>2026-05-01T10:46:28.663Z</time></trkpt><trkpt lat="44.3620967" lon="11.0034633"><ele>608.0</ele><time>2026-05-01T10:46:30.663Z</time></trkpt><trkpt lat="44.362175" lon="11.00344"><ele>608.0</ele><time>2026-05-01T10:46:32.663Z</time></trkpt><trkpt lat="44.3622383" lon="11.00339"><ele>608.0</ele><time>2026-05-01T10:46:34.66Z</time></trkpt><trkpt lat="44.3623" lon="11.0033383"><ele>608.0</ele><time>2026-05-01T10:46:36.662Z</time></trkpt><trkpt lat="44.3623783" lon="11.0032783"><ele>604.1666666666666</ele><time>2026-05-01T10:46:38.66Z</time></trkpt><trkpt lat="44.3624367" lon="11.003205"><ele>600.3333333333333</ele><time>2026-05-01T10:46:40.658Z</time></trkpt><trkpt lat="44.3624833" lon="11.0031133"><ele>596.5</ele><time>2026-05-01T10:46:42.663Z</time></trkpt><trkpt lat="44.362525" lon="11.0030017"><ele>592.6666666666666</ele><time>2026-05-01T10:46:44.662Z</time></trkpt><trkpt lat="44.362585" lon="11.0028917"><ele>588.8333333333334</ele><time>2026-05-01T10:46:46.66Z</time></trkpt><trkpt lat="44.3626433" lon="11.0027767"><ele>585.0</ele><time>2026-05-01T10:46:48.662Z</time></trkpt><trkpt lat="44.36272" lon="11.0027033"><ele>585.0</ele><time>2026-05-01T10:46:50.66Z</time></trkpt><trkpt lat="44.3627933" lon="11.002655"><ele>585.0</ele><time>2026-05-01T10:46:53.662Z</time></trkpt><trkpt lat="44.3628533" lon="11.0025867"><ele>585.0</ele><time>2026-05-01T10:46:56.658Z</time></trkpt><trkpt lat="44.3628433" lon="11.0024817"><ele>585.0</ele><time>2026-05-01T10:46:59.665Z</time></trkpt><trkpt lat="44.3628483" lon="11.0023717"><ele>585.0</ele><time>2026-05-01T10:47:02.66Z</time></trkpt><trkpt lat="44.362905" lon="11.0023183"><ele>585.0</ele><time>2026-05-01T10:47:06.658Z</time></trkpt><trkpt lat="44.3629833" lon="11.00229"><ele>580.0</ele><time>2026-05-01T10:47:09.665Z</time></trkpt><trkpt lat="44.3630583" lon="11.0022833"><ele>575.0</ele><time>2026-05-01T10:47:11.66Z</time></trkpt><trkpt lat="44.36315" lon="11.002255"><ele>570.0</ele><time>2026-05-01T10:47:13.658Z</time></trkpt><trkpt lat="44.3632217" lon="11.0021833"><ele>565.0</ele><time>2026-05-01T10:47:15.663Z</time></trkpt><trkpt lat="44.3632717" lon="11.0021017"><ele>560.0</ele><time>2026-05-01T10:47:17.662Z</time></trkpt><trkpt lat="44.36332" lon="11.00201"><ele>555.0</ele><time>2026-05-01T10:47:20.661Z</time></trkpt><trkpt lat="44.3633717" lon="11.0019567"><ele>555.0</ele><time>2026-05-01T10:47:22.658Z</time></trkpt><trkpt lat="44.36343" lon="11.0018917"><ele>555.0</ele><time>2026-05-01T10:47:24.661Z</time></trkpt><trkpt lat="44.3634917" lon="11.00186"><ele>555.0</ele><time>2026-05-01T10:47:26.657Z</time></trkpt><trkpt lat="44.3635817" lon="11.0018467"><ele>555.0</ele><time>2026-05-01T10:47:28.657Z</time></trkpt><trkpt lat="44.3636717" lon="11.0018017"><ele>555.0</ele><time>2026-05-01T10:47:30.665Z</time></trkpt><trkpt lat="44.3637433" lon="11.0017217"><ele>555.0</ele><time>2026-05-01T10:47:32.661Z</time></trkpt><trkpt lat="44.363785" lon="11.001615"><ele>553.8333333333334</ele><time>2026-05-01T10:47:34.662Z</time></trkpt><trkpt lat="44.3638033" lon="11.0015117"><ele>552.6666666666666</ele><time>2026-05-01T10:47:36.659Z</time></trkpt><trkpt lat="44.3638217" lon="11.001405"><ele>551.5</ele><time>2026-05-01T10:47:38.664Z</time></trkpt><trkpt lat="44.3638283" lon="11.0013117"><ele>550.3333333333333</ele><time>2026-05-01T10:47:40.659Z</time></trkpt><trkpt lat="44.3638717" lon="11.0012017"><ele>549.1666666666666</ele><time>2026-05-01T10:47:43.658Z</time></trkpt><trkpt lat="44.3639217" lon="11.001125"><ele>548.0</ele><time>2026-05-01T10:47:45.666Z</time></trkpt><trkpt lat="44.3639933" lon="11.0011333"><ele>547.6</ele><time>2026-05-01T10:47:49.657Z</time></trkpt><trkpt lat="44.364065" lon="11.0012317"><ele>547.1999999999999</ele><time>2026-05-01T10:48:04.659Z</time></trkpt><trkpt lat="44.3641383" lon="11.0013117"><ele>546.8</ele><time>2026-05-01T10:48:12.658Z</time></trkpt><trkpt lat="44.3642033" lon="11.0014117"><ele>546.4</ele><time>2026-05-01T10:48:14.663Z</time></trkpt><trkpt lat="44.3642433" lon="11.0015717"><ele>546.0</ele><time>2026-05-01T10:48:16.658Z</time></trkpt><trkpt lat="44.3642533" lon="11.0016617"><ele>545.1666666666666</ele><time>2026-05-01T10:48:17.658Z</time></trkpt><trkpt lat="44.3642517" lon="11.0017567"><ele>544.3333333333334</ele><time>2026-05-01T10:48:18.658Z</time></trkpt><trkpt lat="44.36424" lon="11.0018533"><ele>543.5</ele><time>2026-05-01T10:48:19.659Z</time></trkpt><trkpt lat="44.3642217" lon="11.0019567"><ele>542.6666666666667</ele><time>2026-05-01T10:48:20.664Z</time></trkpt><trkpt lat="44.3641983" lon="11.00206"><ele>541.8333333333334</ele><time>2026-05-01T10:48:21.657Z</time></trkpt><trkpt lat="44.364175" lon="11.0021783"><ele>541.0</ele><time>2026-05-01T10:48:22.658Z</time></trkpt><trkpt lat="44.364155" lon="11.0022983"><ele>541.0</ele><time>2026-05-01T10:48:23.662Z</time></trkpt><trkpt lat="44.36415" lon="11.0024267"><ele>541.0</ele><time>2026-05-01T10:48:24.662Z</time></trkpt><trkpt lat="44.3641517" lon="11.0025517"><ele>541.0</ele><time>2026-05-01T10:48:25.659Z</time></trkpt><trkpt lat="44.3641517" lon="11.0026717"><ele>541.0</ele><time>2026-05-01T10:48:26.662Z</time></trkpt><trkpt lat="44.3641633" lon="11.0027967"><ele>541.0</ele><time>2026-05-01T10:48:27.663Z</time></trkpt><trkpt lat="44.3641867" lon="11.0029233"><ele>541.0</ele><time>2026-05-01T10:48:28.658Z</time></trkpt><trkpt lat="44.3642033" lon="11.003045"><ele>541.0</ele><time>2026-05-01T10:48:29.658Z</time></trkpt><trkpt lat="44.3642233" lon="11.0031717"><ele>541.0</ele><time>2026-05-01T10:48:30.664Z</time></trkpt><trkpt lat="44.3642533" lon="11.003285"><ele>541.0</ele><time>2026-05-01T10:48:31.665Z</time></trkpt><trkpt lat="44.36429" lon="11.00338"><ele>541.0</ele><time>2026-05-01T10:48:32.66Z</time></trkpt><trkpt lat="44.364335" lon="11.00348"><ele>541.0</ele><time>2026-05-01T10:48:33.661Z</time></trkpt><trkpt lat="44.364375" lon="11.0035767"><ele>541.0</ele><time>2026-05-01T10:48:34.658Z</time></trkpt><trkpt lat="44.3644083" lon="11.0036717"><ele>541.0</ele><time>2026-05-01T10:48:35.659Z</time></trkpt><trkpt lat="44.36442" lon="11.0037783"><ele>541.0</ele><time>2026-05-01T10:48:36.66Z</time></trkpt><trkpt lat="44.3644333" lon="11.003895"><ele>541.0</ele><time>2026-05-01T10:48:37.661Z</time></trkpt><trkpt lat="44.36444" lon="11.0040283"><ele>541.0</ele><time>2026-05-01T10:48:38.659Z</time></trkpt><trkpt lat="44.3644417" lon="11.0041567"><ele>541.0</ele><time>2026-05-01T10:48:39.663Z</time></trkpt><trkpt lat="44.3644367" lon="11.0042833"><ele>541.0</ele><time>2026-05-01T10:48:40.657Z</time></trkpt><trkpt lat="44.364425" lon="11.0044133"><ele>541.0</ele><time>2026-05-01T10:48:41.66Z</time></trkpt><trkpt lat="44.3644083" lon="11.004535"><ele>541.0</ele><time>2026-05-01T10:48:42.659Z</time></trkpt><trkpt lat="44.36438" lon="11.0046417"><ele>541.0</ele><time>2026-05-01T10:48:43.663Z</time></trkpt><trkpt lat="44.3643633" lon="11.0047417"><ele>541.0</ele><time>2026-05-01T10:48:44.659Z</time></trkpt><trkpt lat="44.3643617" lon="11.0049167"><ele>540.5</ele><time>2026-05-01T10:48:46.659Z</time></trkpt><trkpt lat="44.36438" lon="11.0050083"><ele>540.0</ele><time>2026-05-01T10:48:47.656Z</time></trkpt><trkpt lat="44.3644" lon="11.00511"><ele>539.5</ele><time>2026-05-01T10:48:48.661Z</time></trkpt><trkpt lat="44.3644167" lon="11.0052217"><ele>539.0</ele><time>2026-05-01T10:48:49.659Z</time></trkpt><trkpt lat="44.3644283" lon="11.0053417"><ele>538.5</ele><time>2026-05-01T10:48:50.658Z</time></trkpt><trkpt lat="44.3644417" lon="11.00546"><ele>538.0</ele><time>2026-05-01T10:48:51.665Z</time></trkpt><trkpt lat="44.3644633" lon="11.0055833"><ele>538.0</ele><time>2026-05-01T10:48:52.657Z</time></trkpt><trkpt lat="44.36448" lon="11.0057233"><ele>538.0</ele><time>2026-05-01T10:48:53.66Z</time></trkpt><trkpt lat="44.3644883" lon="11.0058667"><ele>538.0</ele><time>2026-05-01T10:48:54.662Z</time></trkpt><trkpt lat="44.3644967" lon="11.0059933"><ele>538.0</ele><time>2026-05-01T10:48:55.663Z</time></trkpt><trkpt lat="44.36451" lon="11.0061033"><ele>538.0</ele><time>2026-05-01T10:48:56.66Z</time></trkpt><trkpt lat="44.364525" lon="11.0062017"><ele>538.0</ele><time>2026-05-01T10:48:57.661Z</time></trkpt><trkpt lat="44.3645383" lon="11.0062933"><ele>537.4285714285714</ele><time>2026-05-01T10:48:58.66Z</time></trkpt><trkpt lat="44.364555" lon="11.00638"><ele>536.8571428571429</ele><time>2026-05-01T10:48:59.66Z</time></trkpt><trkpt lat="44.3645667" lon="11.0064783"><ele>536.2857142857143</ele><time>2026-05-01T10:49:00.662Z</time></trkpt><trkpt lat="44.3645667" lon="11.0065783"><ele>535.7142857142858</ele><time>2026-05-01T10:49:01.657Z</time></trkpt><trkpt lat="44.364555" lon="11.0066833"><ele>535.1428571428571</ele><time>2026-05-01T10:49:02.657Z</time></trkpt><trkpt lat="44.36453" lon="11.00679"><ele>534.5714285714287</ele><time>2026-05-01T10:49:03.664Z</time></trkpt><trkpt lat="44.3644933" lon="11.0068967"><ele>534.0</ele><time>2026-05-01T10:49:04.659Z</time></trkpt><trkpt lat="44.3644483" lon="11.0070017"><ele>532.6</ele><time>2026-05-01T10:49:05.661Z</time></trkpt><trkpt lat="44.3644067" lon="11.00709"><ele>531.2</ele><time>2026-05-01T10:49:06.662Z</time></trkpt><trkpt lat="44.3643917" lon="11.007235"><ele>529.8000000000001</ele><time>2026-05-01T10:49:08.662Z</time></trkpt><trkpt lat="44.364465" lon="11.00733"><ele>528.4</ele><time>2026-05-01T10:49:10.658Z</time></trkpt><trkpt lat="44.3645517" lon="11.0073683"><ele>527.0</ele><time>2026-05-01T10:49:12.659Z</time></trkpt><trkpt lat="44.3646317" lon="11.0073717"><ele>529.4</ele><time>2026-05-01T10:49:14.665Z</time></trkpt><trkpt lat="44.3647133" lon="11.0074333"><ele>531.8000000000001</ele><time>2026-05-01T10:49:16.658Z</time></trkpt><trkpt lat="44.3648267" lon="11.00749"><ele>534.2</ele><time>2026-05-01T10:49:18.657Z</time></trkpt><trkpt lat="44.3649033" lon="11.0075033"><ele>536.6</ele><time>2026-05-01T10:49:19.659Z</time></trkpt><trkpt lat="44.3650017" lon="11.0075017"><ele>539.0</ele><time>2026-05-01T10:49:20.659Z</time></trkpt><trkpt lat="44.3651067" lon="11.0074883"><ele>539.8</ele><time>2026-05-01T10:49:21.66Z</time></trkpt><trkpt lat="44.3652117" lon="11.0074717"><ele>540.5999999999999</ele><time>2026-05-01T10:49:22.662Z</time></trkpt><trkpt lat="44.3653133" lon="11.0074567"><ele>541.4</ele><time>2026-05-01T10:49:23.658Z</time></trkpt><trkpt lat="44.3654183" lon="11.0074433"><ele>542.1999999999999</ele><time>2026-05-01T10:49:24.66Z</time></trkpt><trkpt lat="44.3655333" lon="11.00742"><ele>543.0</ele><time>2026-05-01T10:49:25.658Z</time></trkpt><trkpt lat="44.36564" lon="11.0073983"><ele>547.1999999999999</ele><time>2026-05-01T10:49:26.661Z</time></trkpt><trkpt lat="44.36574" lon="11.0073783"><ele>551.4</ele><time>2026-05-01T10:49:27.656Z</time></trkpt><trkpt lat="44.3658433" lon="11.0073567"><ele>555.5999999999999</ele><time>2026-05-01T10:49:28.656Z</time></trkpt><trkpt lat="44.36595" lon="11.00733"><ele>559.8</ele><time>2026-05-01T10:49:29.662Z</time></trkpt><trkpt lat="44.3660567" lon="11.0073167"><ele>564.0</ele><time>2026-05-01T10:49:30.659Z</time></trkpt><trkpt lat="44.3661633" lon="11.007305"><ele>564.0</ele><time>2026-05-01T10:49:31.66Z</time></trkpt><trkpt lat="44.3662717" lon="11.0073017"><ele>564.0</ele><time>2026-05-01T10:49:32.658Z</time></trkpt><trkpt lat="44.3663733" lon="11.0073067"><ele>564.0</ele><time>2026-05-01T10:49:33.657Z</time></trkpt><trkpt lat="44.3664583" lon="11.0073283"><ele>564.0</ele><time>2026-05-01T10:49:34.661Z</time></trkpt><trkpt lat="44.36654" lon="11.00736"><ele>564.0</ele><time>2026-05-01T10:49:35.66Z</time></trkpt><trkpt lat="44.3666233" lon="11.0073833"><ele>564.2</ele><time>2026-05-01T10:49:36.661Z</time></trkpt><trkpt lat="44.3666967" lon="11.00741"><ele>564.4</ele><time>2026-05-01T10:49:37.66Z</time></trkpt><trkpt lat="44.36677" lon="11.00746"><ele>564.6</ele><time>2026-05-01T10:49:38.663Z</time></trkpt><trkpt lat="44.36683" lon="11.0075383"><ele>564.8</ele><time>2026-05-01T10:49:39.659Z</time></trkpt><trkpt lat="44.3668867" lon="11.00765"><ele>565.0</ele><time>2026-05-01T10:49:40.667Z</time></trkpt><trkpt lat="44.36694" lon="11.00779"><ele>565.0</ele><time>2026-05-01T10:49:41.663Z</time></trkpt><trkpt lat="44.367005" lon="11.0079433"><ele>565.0</ele><time>2026-05-01T10:49:42.659Z</time></trkpt><trkpt lat="44.3670767" lon="11.0080967"><ele>565.0</ele><time>2026-05-01T10:49:43.665Z</time></trkpt><trkpt lat="44.3671567" lon="11.0082467"><ele>565.0</ele><time>2026-05-01T10:49:44.661Z</time></trkpt><trkpt lat="44.3672317" lon="11.0083967"><ele>566.8</ele><time>2026-05-01T10:49:45.665Z</time></trkpt><trkpt lat="44.3672967" lon="11.0085317"><ele>568.6</ele><time>2026-05-01T10:49:46.661Z</time></trkpt><trkpt lat="44.36735" lon="11.00866"><ele>570.4</ele><time>2026-05-01T10:49:47.661Z</time></trkpt><trkpt lat="44.3674017" lon="11.0087817"><ele>572.2</ele><time>2026-05-01T10:49:48.659Z</time></trkpt><trkpt lat="44.3674533" lon="11.0089117"><ele>574.0</ele><time>2026-05-01T10:49:49.658Z</time></trkpt><trkpt lat="44.36751" lon="11.00905"><ele>574.8</ele><time>2026-05-01T10:49:50.655Z</time></trkpt><trkpt lat="44.3675617" lon="11.0091867"><ele>575.5999999999999</ele><time>2026-05-01T10:49:51.66Z</time></trkpt><trkpt lat="44.3676017" lon="11.009305"><ele>576.4</ele><time>2026-05-01T10:49:52.659Z</time></trkpt><trkpt lat="44.3676317" lon="11.0094033"><ele>577.1999999999999</ele><time>2026-05-01T10:49:53.66Z</time></trkpt><trkpt lat="44.3676583" lon="11.0094833"><ele>578.0</ele><time>2026-05-01T10:49:54.657Z</time></trkpt><trkpt lat="44.3677317" lon="11.0096017"><ele>578.0</ele><time>2026-05-01T10:49:56.658Z</time></trkpt><trkpt lat="44.36779" lon="11.0096433"><ele>578.0</ele><time>2026-05-01T10:49:57.656Z</time></trkpt><trkpt lat="44.3678633" lon="11.0096717"><ele>578.0</ele><time>2026-05-01T10:49:58.656Z</time></trkpt><trkpt lat="44.3679467" lon="11.00969"><ele>578.0</ele><time>2026-05-01T10:49:59.659Z</time></trkpt><trkpt lat="44.3680467" lon="11.0096933"><ele>578.0</ele><time>2026-05-01T10:50:00.658Z</time></trkpt><trkpt lat="44.3681583" lon="11.00969"><ele>578.0</ele><time>2026-05-01T10:50:01.662Z</time></trkpt><trkpt lat="44.3682817" lon="11.009695"><ele>581.75</ele><time>2026-05-01T10:50:02.665Z</time></trkpt><trkpt lat="44.3684083" lon="11.0097017"><ele>585.5</ele><time>2026-05-01T10:50:03.666Z</time></trkpt><trkpt lat="44.3685367" lon="11.0096933"><ele>589.25</ele><time>2026-05-01T10:50:04.661Z</time></trkpt><trkpt lat="44.3686667" lon="11.009675"><ele>593.0</ele><time>2026-05-01T10:50:05.657Z</time></trkpt><trkpt lat="44.3687967" lon="11.0096633"><ele>597.0</ele><time>2026-05-01T10:50:06.659Z</time></trkpt><trkpt lat="44.3689283" lon="11.0096717"><ele>601.0</ele><time>2026-05-01T10:50:07.657Z</time></trkpt><trkpt lat="44.3690683" lon="11.0096833"><ele>605.0</ele><time>2026-05-01T10:50:08.659Z</time></trkpt><trkpt lat="44.3692133" lon="11.0096883"><ele>609.0</ele><time>2026-05-01T10:50:09.663Z</time></trkpt><trkpt lat="44.36936" lon="11.009685"><ele>609.0</ele><time>2026-05-01T10:50:10.659Z</time></trkpt><trkpt lat="44.3694967" lon="11.0096733"><ele>609.0</ele><time>2026-05-01T10:50:11.659Z</time></trkpt><trkpt lat="44.3696217" lon="11.0096567"><ele>609.0</ele><time>2026-05-01T10:50:12.656Z</time></trkpt><trkpt lat="44.36974" lon="11.0096417"><ele>609.0</ele><time>2026-05-01T10:50:13.659Z</time></trkpt><trkpt lat="44.3698467" lon="11.0096083"><ele>613.0</ele><time>2026-05-01T10:50:14.657Z</time></trkpt><trkpt lat="44.369955" lon="11.00956"><ele>617.0</ele><time>2026-05-01T10:50:15.66Z</time></trkpt><trkpt lat="44.3700567" lon="11.0095017"><ele>621.0</ele><time>2026-05-01T10:50:16.657Z</time></trkpt><trkpt lat="44.370145" lon="11.0094583"><ele>625.0</ele><time>2026-05-01T10:50:17.662Z</time></trkpt><trkpt lat="44.3702283" lon="11.0094183"><ele>629.0</ele><time>2026-05-01T10:50:18.659Z</time></trkpt><trkpt lat="44.3702983" lon="11.0093883"><ele>629.0</ele><time>2026-05-01T10:50:19.658Z</time></trkpt><trkpt lat="44.37037" lon="11.0093833"><ele>629.0</ele><time>2026-05-01T10:50:20.664Z</time></trkpt><trkpt lat="44.3704533" lon="11.0093917"><ele>629.0</ele><time>2026-05-01T10:50:21.664Z</time></trkpt><trkpt lat="44.3705383" lon="11.0094033"><ele>629.0</ele><time>2026-05-01T10:50:22.657Z</time></trkpt><trkpt lat="44.37063" lon="11.00942"><ele>629.0</ele><time>2026-05-01T10:50:23.657Z</time></trkpt><trkpt lat="44.3707167" lon="11.00945"><ele>629.0</ele><time>2026-05-01T10:50:24.656Z</time></trkpt><trkpt lat="44.370805" lon="11.0094933"><ele>632.2</ele><time>2026-05-01T10:50:25.66Z</time></trkpt><trkpt lat="44.3708967" lon="11.0095383"><ele>635.4</ele><time>2026-05-01T10:50:26.657Z</time></trkpt><trkpt lat="44.3709983" lon="11.00958"><ele>638.6</ele><time>2026-05-01T10:50:27.659Z</time></trkpt><trkpt lat="44.3711" lon="11.0096167"><ele>641.8</ele><time>2026-05-01T10:50:28.663Z</time></trkpt><trkpt lat="44.3711933" lon="11.009645"><ele>645.0</ele><time>2026-05-01T10:50:29.658Z</time></trkpt><trkpt lat="44.3712767" lon="11.0096733"><ele>647.4</ele><time>2026-05-01T10:50:30.659Z</time></trkpt><trkpt lat="44.3713667" lon="11.00971"><ele>649.8</ele><time>2026-05-01T10:50:31.661Z</time></trkpt><trkpt lat="44.3714633" lon="11.0097533"><ele>652.2</ele><time>2026-05-01T10:50:32.659Z</time></trkpt><trkpt lat="44.37156" lon="11.0097933"><ele>654.6</ele><time>2026-05-01T10:50:33.658Z</time></trkpt><trkpt lat="44.37166" lon="11.009825"><ele>657.0</ele><time>2026-05-01T10:50:34.657Z</time></trkpt><trkpt lat="44.371765" lon="11.0098567"><ele>657.0</ele><time>2026-05-01T10:50:35.66Z</time></trkpt><trkpt lat="44.3718717" lon="11.00988"><ele>657.0</ele><time>2026-05-01T10:50:36.656Z</time></trkpt><trkpt lat="44.37197" lon="11.0098967"><ele>657.0</ele><time>2026-05-01T10:50:37.659Z</time></trkpt><trkpt lat="44.372065" lon="11.0099017"><ele>657.0</ele><time>2026-05-01T10:50:38.659Z</time></trkpt><trkpt lat="44.3721633" lon="11.0098883"><ele>657.0</ele><time>2026-05-01T10:50:39.657Z</time></trkpt><trkpt lat="44.3722667" lon="11.0098683"><ele>660.8</ele><time>2026-05-01T10:50:40.66Z</time></trkpt><trkpt lat="44.37237" lon="11.00985"><ele>664.6</ele><time>2026-05-01T10:50:41.658Z</time></trkpt><trkpt lat="44.37247" lon="11.0098283"><ele>668.4</ele><time>2026-05-01T10:50:42.656Z</time></trkpt><trkpt lat="44.3725733" lon="11.00981"><ele>672.1999999999999</ele><time>2026-05-01T10:50:43.659Z</time></trkpt><trkpt lat="44.3726717" lon="11.0097967"><ele>676.0</ele><time>2026-05-01T10:50:44.659Z</time></trkpt><trkpt lat="44.372765" lon="11.0097783"><ele>676.0</ele><time>2026-05-01T10:50:45.656Z</time></trkpt><trkpt lat="44.3728617" lon="11.0097567"><ele>676.0</ele><time>2026-05-01T10:50:46.658Z</time></trkpt><trkpt lat="44.3729583" lon="11.00973"><ele>676.0</ele><time>2026-05-01T10:50:47.655Z</time></trkpt><trkpt lat="44.373055" lon="11.0096967"><ele>676.0</ele><time>2026-05-01T10:50:48.66Z</time></trkpt><trkpt lat="44.3731417" lon="11.009665"><ele>676.0</ele><time>2026-05-01T10:50:49.66Z</time></trkpt><trkpt lat="44.3732233" lon="11.0096283"><ele>679.5</ele><time>2026-05-01T10:50:50.662Z</time></trkpt><trkpt lat="44.3732933" lon="11.0095867"><ele>683.0</ele><time>2026-05-01T10:50:51.66Z</time></trkpt><trkpt lat="44.3733583" lon="11.0095317"><ele>686.5</ele><time>2026-05-01T10:50:52.659Z</time></trkpt><trkpt lat="44.37342" lon="11.0094667"><ele>690.0</ele><time>2026-05-01T10:50:53.659Z</time></trkpt><trkpt lat="44.37349" lon="11.0094017"><ele>693.5</ele><time>2026-05-01T10:50:54.658Z</time></trkpt><trkpt lat="44.37357" lon="11.0093383"><ele>697.0</ele><time>2026-05-01T10:50:55.662Z</time></trkpt><trkpt lat="44.37365" lon="11.009275"><ele>697.0</ele><time>2026-05-01T10:50:56.658Z</time></trkpt><trkpt lat="44.37373" lon="11.0092133"><ele>697.0</ele><time>2026-05-01T10:50:57.659Z</time></trkpt><trkpt lat="44.3738017" lon="11.0091617"><ele>697.0</ele><time>2026-05-01T10:50:58.656Z</time></trkpt><trkpt lat="44.3738883" lon="11.0091117"><ele>697.0</ele><time>2026-05-01T10:50:59.661Z</time></trkpt><trkpt lat="44.373985" lon="11.0090667"><ele>697.0</ele><time>2026-05-01T10:51:00.66Z</time></trkpt><trkpt lat="44.37408" lon="11.0090383"><ele>698.3333333333334</ele><time>2026-05-01T10:51:01.657Z</time></trkpt><trkpt lat="44.37416" lon="11.0090117"><ele>699.6666666666667</ele><time>2026-05-01T10:51:02.658Z</time></trkpt><trkpt lat="44.3742383" lon="11.0089967"><ele>701.0</ele><time>2026-05-01T10:51:03.662Z</time></trkpt><trkpt lat="44.3743133" lon="11.0089933"><ele>702.3333333333334</ele><time>2026-05-01T10:51:04.659Z</time></trkpt><trkpt lat="44.37439" lon="11.008985"><ele>703.6666666666666</ele><time>2026-05-01T10:51:05.661Z</time></trkpt><trkpt lat="44.3744567" lon="11.0089867"><ele>705.0</ele><time>2026-05-01T10:51:06.657Z</time></trkpt><trkpt lat="44.3745617" lon="11.009"><ele>705.0</ele><time>2026-05-01T10:51:08.656Z</time></trkpt><trkpt lat="44.3746467" lon="11.0090133"><ele>705.0</ele><time>2026-05-01T10:51:10.659Z</time></trkpt><trkpt lat="44.3747617" lon="11.0090417"><ele>705.0</ele><time>2026-05-01T10:51:12.662Z</time></trkpt><trkpt lat="44.37483" lon="11.00907"><ele>705.0</ele><time>2026-05-01T10:51:13.656Z</time></trkpt><trkpt lat="44.374895" lon="11.009105"><ele>705.0</ele><time>2026-05-01T10:51:14.657Z</time></trkpt><trkpt lat="44.3749583" lon="11.0091383"><ele>705.0</ele><time>2026-05-01T10:51:15.659Z</time></trkpt><trkpt lat="44.37502" lon="11.009175"><ele>705.8571428571428</ele><time>2026-05-01T10:51:16.659Z</time></trkpt><trkpt lat="44.3750767" lon="11.0092133"><ele>706.7142857142857</ele><time>2026-05-01T10:51:17.658Z</time></trkpt><trkpt lat="44.375135" lon="11.0092483"><ele>707.5714285714286</ele><time>2026-05-01T10:51:18.659Z</time></trkpt><trkpt lat="44.3751983" lon="11.0092867"><ele>708.4285714285713</ele><time>2026-05-01T10:51:19.667Z</time></trkpt><trkpt lat="44.3752667" lon="11.0093267"><ele>709.2857142857142</ele><time>2026-05-01T10:51:20.665Z</time></trkpt><trkpt lat="44.3753367" lon="11.0093667"><ele>710.1428571428571</ele><time>2026-05-01T10:51:21.661Z</time></trkpt><trkpt lat="44.3754033" lon="11.009405"><ele>711.0</ele><time>2026-05-01T10:51:22.661Z</time></trkpt><trkpt lat="44.375465" lon="11.0094317"><ele>710.0</ele><time>2026-05-01T10:51:23.66Z</time></trkpt><trkpt lat="44.3755833" lon="11.00948"><ele>709.0</ele><time>2026-05-01T10:51:25.654Z</time></trkpt><trkpt lat="44.3756433" lon="11.00951"><ele>708.0</ele><time>2026-05-01T10:51:26.659Z</time></trkpt><trkpt lat="44.3757117" lon="11.0095367"><ele>707.0</ele><time>2026-05-01T10:51:27.657Z</time></trkpt><trkpt lat="44.3757817" lon="11.009555"><ele>706.0</ele><time>2026-05-01T10:51:28.656Z</time></trkpt><trkpt lat="44.375855" lon="11.00957"><ele>705.0</ele><time>2026-05-01T10:51:29.66Z</time></trkpt><trkpt lat="44.3759283" lon="11.0095767"><ele>704.9999999999999</ele><time>2026-05-01T10:51:30.658Z</time></trkpt><trkpt lat="44.3760017" lon="11.0095783"><ele>705.0</ele><time>2026-05-01T10:51:31.656Z</time></trkpt><trkpt lat="44.3760683" lon="11.0095767"><ele>705.0</ele><time>2026-05-01T10:51:32.655Z</time></trkpt><trkpt lat="44.3761333" lon="11.0095733"><ele>705.0</ele><time>2026-05-01T10:51:33.66Z</time></trkpt><trkpt lat="44.3761967" lon="11.0095717"><ele>705.0</ele><time>2026-05-01T10:51:34.657Z</time></trkpt><trkpt lat="44.3762667" lon="11.0095667"><ele>704.9999999999999</ele><time>2026-05-01T10:51:35.66Z</time></trkpt><trkpt lat="44.376335" lon="11.00955"><ele>705.0</ele><time>2026-05-01T10:51:36.657Z</time></trkpt><trkpt lat="44.3763983" lon="11.00953"><ele>705.0</ele><time>2026-05-01T10:51:37.656Z</time></trkpt><trkpt lat="44.376505" lon="11.0094917"><ele>705.0</ele><time>2026-05-01T10:51:39.659Z</time></trkpt><trkpt lat="44.3766067" lon="11.0094517"><ele>705.0</ele><time>2026-05-01T10:51:41.666Z</time></trkpt><trkpt lat="44.3766717" lon="11.0094133"><ele>705.0</ele><time>2026-05-01T10:51:43.661Z</time></trkpt><trkpt lat="44.37674" lon="11.0093967"><ele>705.0</ele><time>2026-05-01T10:51:47.654Z</time></trkpt><trkpt lat="44.3766867" lon="11.00945"><ele>705.0</ele><time>2026-05-01T10:51:54.666Z</time></trkpt><trkpt lat="44.376665" lon="11.0095367"><ele>705.0</ele><time>2026-05-01T10:55:54.657Z</time></trkpt><trkpt lat="44.3764683" lon="11.0097583"><ele>705.0</ele><time>2026-05-01T10:57:38.661Z</time></trkpt><trkpt lat="44.37653" lon="11.00973"><ele>705.0</ele><time>2026-05-01T10:57:43.659Z</time></trkpt><trkpt lat="44.3766367" lon="11.009635"><ele>705.0</ele><time>2026-05-01T10:57:48.658Z</time></trkpt><trkpt lat="44.3767017" lon="11.0096017"><ele>704.9999999999999</ele><time>2026-05-01T10:57:50.658Z</time></trkpt><trkpt lat="44.3767683" lon="11.0096083"><ele>705.0</ele><time>2026-05-01T10:57:53.658Z</time></trkpt><trkpt lat="44.37684" lon="11.0096283"><ele>705.0</ele><time>2026-05-01T10:58:27.656Z</time></trkpt><trkpt lat="44.376905" lon="11.0096583"><ele>705.0</ele><time>2026-05-01T10:58:37.658Z</time></trkpt><trkpt lat="44.3768967" lon="11.0097467"><ele>705.0</ele><time>2026-05-01T10:58:47.658Z</time></trkpt><trkpt lat="44.3768417" lon="11.0098683"><ele>704.9999999999999</ele><time>2026-05-01T10:59:24.658Z</time></trkpt><trkpt lat="44.3769" lon="11.0099033"><ele>705.0</ele><time>2026-05-01T10:59:39.66Z</time></trkpt><trkpt lat="44.3768967" lon="11.0099967"><ele>704.9999999999999</ele><time>2026-05-01T11:00:30.658Z</time></trkpt><trkpt lat="44.3768683" lon="11.0099167"><ele>705.0</ele><time>2026-05-01T11:01:38.661Z</time></trkpt><trkpt lat="44.3768167" lon="11.0098567"><ele>705.0</ele><time>2026-05-01T11:01:49.658Z</time></trkpt><trkpt lat="44.3767417" lon="11.0097717"><ele>705.0</ele><time>2026-05-01T11:01:58.658Z</time></trkpt><trkpt lat="44.3767783" lon="11.0096783"><ele>705.0</ele><time>2026-05-01T11:02:15.66Z</time></trkpt><trkpt lat="44.3768233" lon="11.0096083"><ele>704.9999999999999</ele><time>2026-05-01T11:02:18.66Z</time></trkpt><trkpt lat="44.37685" lon="11.0095233"><ele>705.0</ele><time>2026-05-01T11:02:23.659Z</time></trkpt><trkpt lat="44.376935" lon="11.0095133"><ele>705.0</ele><time>2026-05-01T11:02:44.66Z</time></trkpt><trkpt lat="44.37699" lon="11.0094317"><ele>705.0</ele><time>2026-05-01T11:03:00.66Z</time></trkpt><trkpt lat="44.3771983" lon="11.00934"><ele>705.0</ele><time>2026-05-01T11:03:12.661Z</time></trkpt><trkpt lat="44.3771083" lon="11.0093667"><ele>705.0</ele><time>2026-05-01T11:03:17.659Z</time></trkpt><trkpt lat="44.3772033" lon="11.0093917"><ele>705.0</ele><time>2026-05-01T11:03:24.659Z</time></trkpt><trkpt lat="44.3771433" lon="11.0094533"><ele>705.0</ele><time>2026-05-01T11:03:28.66Z</time></trkpt><trkpt lat="44.377065" lon="11.009485"><ele>705.0</ele><time>2026-05-01T11:03:29.659Z</time></trkpt><trkpt lat="44.3769983" lon="11.0095217"><ele>705.0</ele><time>2026-05-01T11:03:33.659Z</time></trkpt><trkpt lat="44.3771283" lon="11.0096267"><ele>705.0</ele><time>2026-05-01T11:04:12.658Z</time></trkpt><trkpt lat="44.3770683" lon="11.009585"><ele>705.0</ele><time>2026-05-01T11:05:03.658Z</time></trkpt><trkpt lat="44.3770183" lon="11.0095233"><ele>705.0</ele><time>2026-05-01T11:05:33.658Z</time></trkpt><trkpt lat="44.37695" lon="11.0094983"><ele>705.0</ele><time>2026-05-01T11:05:42.659Z</time></trkpt><trkpt lat="44.376885" lon="11.0094967"><ele>705.0</ele><time>2026-05-01T11:05:54.659Z</time></trkpt><trkpt lat="44.3768333" lon="11.0095633"><ele>705.0</ele><time>2026-05-01T11:07:15.661Z</time></trkpt><trkpt lat="44.3768117" lon="11.0096033"><ele>705.0</ele><time>2026-05-01T11:16:34.657Z</time></trkpt><trkpt lat="44.37679" lon="11.0096883"><ele>705.0</ele><time>2026-05-01T11:16:51.655Z</time></trkpt><trkpt lat="44.3768617" lon="11.009705"><ele>705.0</ele><time>2026-05-01T11:17:25.654Z</time></trkpt><trkpt lat="44.3769167" lon="11.009655"><ele>705.0</ele><time>2026-05-01T11:17:37.658Z</time></trkpt><trkpt lat="44.3769917" lon="11.0095933"><ele>705.0</ele><time>2026-05-01T11:17:40.661Z</time></trkpt><trkpt lat="44.37691" lon="11.0096483"><ele>705.0</ele><time>2026-05-01T11:18:13.658Z</time></trkpt><trkpt lat="44.3768467" lon="11.00968"><ele>705.0</ele><time>2026-05-01T11:18:17.656Z</time></trkpt><trkpt lat="44.376785" lon="11.0097217"><ele>705.0</ele><time>2026-05-01T11:21:34.658Z</time></trkpt><trkpt lat="44.3767517" lon="11.0097967"><ele>705.0</ele><time>2026-05-01T11:21:38.655Z</time></trkpt><trkpt lat="44.3767607" lon="11.0096238"><ele>705.0</ele><time>2026-05-01T11:21:47.767Z</time></trkpt><trkpt lat="44.37682" lon="11.0095733"><ele>705.0</ele><time>2026-05-01T11:25:06.659Z</time></trkpt><trkpt lat="44.3767583" lon="11.00955"><ele>705.0</ele><time>2026-05-01T11:25:23.663Z</time></trkpt><trkpt lat="44.3767619" lon="11.0096399"><ele>705.0</ele><time>2026-05-01T11:27:06.339Z</time></trkpt><trkpt lat="44.3765667" lon="11.0095267"><ele>705.0</ele><time>2026-05-01T11:27:13.659Z</time></trkpt><trkpt lat="44.3765067" lon="11.0096083"><ele>705.0</ele><time>2026-05-01T11:27:20.658Z</time></trkpt><trkpt lat="44.3763867" lon="11.0097167"><ele>705.0</ele><time>2026-05-01T11:27:24.657Z</time></trkpt><trkpt lat="44.3762983" lon="11.0097433"><ele>705.0</ele><time>2026-05-01T11:27:28.659Z</time></trkpt><trkpt lat="44.37622" lon="11.00977"><ele>705.0</ele><time>2026-05-01T11:27:32.658Z</time></trkpt><trkpt lat="44.376105" lon="11.0098467"><ele>705.0</ele><time>2026-05-01T11:27:36.658Z</time></trkpt><trkpt lat="44.376165" lon="11.0097683"><ele>705.0</ele><time>2026-05-01T11:27:47.656Z</time></trkpt><trkpt lat="44.3762867" lon="11.0097233"><ele>705.0</ele><time>2026-05-01T11:27:49.662Z</time></trkpt><trkpt lat="44.3763583" lon="11.009685"><ele>705.0</ele><time>2026-05-01T11:27:51.657Z</time></trkpt><trkpt lat="44.3764217" lon="11.0096417"><ele>705.0</ele><time>2026-05-01T11:27:54.658Z</time></trkpt><trkpt lat="44.3764933" lon="11.0096217"><ele>705.0</ele><time>2026-05-01T11:27:56.657Z</time></trkpt><trkpt lat="44.3766333" lon="11.0096183"><ele>705.0</ele><time>2026-05-01T11:28:00.658Z</time></trkpt><trkpt lat="44.376715" lon="11.009655"><ele>705.0</ele><time>2026-05-01T11:28:14.657Z</time></trkpt><trkpt lat="44.3767117" lon="11.0095017"><ele>705.0</ele><time>2026-05-01T11:28:37.665Z</time></trkpt><trkpt lat="44.37674" lon="11.0095833"><ele>705.0</ele><time>2026-05-01T11:28:56.662Z</time></trkpt><trkpt lat="44.376805" lon="11.0095833"><ele>705.0</ele><time>2026-05-01T11:30:05.662Z</time></trkpt><trkpt lat="44.37686" lon="11.0095367"><ele>705.0</ele><time>2026-05-01T11:30:19.661Z</time></trkpt><trkpt lat="44.3769233" lon="11.009515"><ele>705.0</ele><time>2026-05-01T11:30:30.663Z</time></trkpt><trkpt lat="44.3769917" lon="11.0095117"><ele>705.0</ele><time>2026-05-01T11:31:26.661Z</time></trkpt><trkpt lat="44.3767624" lon="11.0096329"><ele>704.9999999999999</ele><time>2026-05-01T11:33:26.762Z</time></trkpt><trkpt lat="44.3768383" lon="11.009645"><ele>705.0</ele><time>2026-05-01T11:34:02.661Z</time></trkpt><trkpt lat="44.3768767" lon="11.0097167"><ele>705.0</ele><time>2026-05-01T11:34:33.66Z</time></trkpt><trkpt lat="44.3768417" lon="11.0096333"><ele>705.0</ele><time>2026-05-01T11:36:05.663Z</time></trkpt><trkpt lat="44.3768717" lon="11.0095533"><ele>705.0</ele><time>2026-05-01T11:38:35.661Z</time></trkpt><trkpt lat="44.3769217" lon="11.0094833"><ele>704.9999999999999</ele><time>2026-05-01T11:40:32.661Z</time></trkpt><trkpt lat="44.376985" lon="11.0093833"><ele>705.0</ele><time>2026-05-01T11:40:38.663Z</time></trkpt><trkpt lat="44.3770167" lon="11.0092917"><ele>705.0</ele><time>2026-05-01T11:40:43.662Z</time></trkpt><trkpt lat="44.3770233" lon="11.0091983"><ele>705.0</ele><time>2026-05-01T11:40:58.66Z</time></trkpt><trkpt lat="44.3769983" lon="11.0092817"><ele>705.0</ele><time>2026-05-01T11:41:10.663Z</time></trkpt><trkpt lat="44.3769333" lon="11.0092783"><ele>705.0</ele><time>2026-05-01T11:41:28.661Z</time></trkpt><trkpt lat="44.3768783" lon="11.0093517"><ele>705.0</ele><time>2026-05-01T11:41:36.66Z</time></trkpt><trkpt lat="44.3767967" lon="11.009405"><ele>705.0</ele><time>2026-05-01T11:41:59.659Z</time></trkpt><trkpt lat="44.3769" lon="11.0094217"><ele>704.9999999999999</ele><time>2026-05-01T11:42:07.661Z</time></trkpt><trkpt lat="44.3769083" lon="11.0095217"><ele>705.0</ele><time>2026-05-01T11:42:35.661Z</time></trkpt><trkpt lat="44.376835" lon="11.00954"><ele>705.0</ele><time>2026-05-01T11:42:44.662Z</time></trkpt><trkpt lat="44.376765" lon="11.0095267"><ele>705.0</ele><time>2026-05-01T11:42:48.664Z</time></trkpt><trkpt lat="44.3767117" lon="11.0095833"><ele>705.0</ele><time>2026-05-01T11:43:26.663Z</time></trkpt><trkpt lat="44.3766583" lon="11.009635"><ele>704.9999999999999</ele><time>2026-05-01T11:44:22.659Z</time></trkpt><trkpt lat="44.376725" lon="11.00962"><ele>705.0</ele><time>2026-05-01T11:45:55.661Z</time></trkpt><trkpt lat="44.376775" lon="11.0095467"><ele>705.0</ele><time>2026-05-01T11:46:08.668Z</time></trkpt><trkpt lat="44.3768833" lon="11.0095333"><ele>705.0</ele><time>2026-05-01T11:46:50.661Z</time></trkpt><trkpt lat="44.376815" lon="11.0095533"><ele>705.0</ele><time>2026-05-01T11:48:10.66Z</time></trkpt><trkpt lat="44.3767483" lon="11.0095633"><ele>705.0</ele><time>2026-05-01T11:48:21.66Z</time></trkpt><trkpt lat="44.3767567" lon="11.009655"><ele>705.0</ele><time>2026-05-01T11:48:42.665Z</time></trkpt><trkpt lat="44.3768517" lon="11.0096067"><ele>705.0</ele><time>2026-05-01T11:51:31.66Z</time></trkpt><trkpt lat="44.3768233" lon="11.00969"><ele>705.0</ele><time>2026-05-01T11:53:47.664Z</time></trkpt><trkpt lat="44.3767667" lon="11.00973"><ele>705.0</ele><time>2026-05-01T11:53:58.66Z</time></trkpt><trkpt lat="44.3767017" lon="11.009765"><ele>705.0</ele><time>2026-05-01T11:54:05.663Z</time></trkpt><trkpt lat="44.3768017" lon="11.0096567"><ele>705.0</ele><time>2026-05-01T11:55:39.659Z</time></trkpt><trkpt lat="44.3767383" lon="11.0096567"><ele>705.0</ele><time>2026-05-01T11:59:20.659Z</time></trkpt><trkpt lat="44.3768" lon="11.0096083"><ele>705.0</ele><time>2026-05-01T12:00:58.66Z</time></trkpt><trkpt lat="44.3768633" lon="11.0096317"><ele>704.9999999999999</ele><time>2026-05-01T12:01:43.662Z</time></trkpt><trkpt lat="44.376825" lon="11.0097267"><ele>705.0</ele><time>2026-05-01T12:02:19.664Z</time></trkpt><trkpt lat="44.3768133" lon="11.009635"><ele>705.0</ele><time>2026-05-01T12:03:07.658Z</time></trkpt><trkpt lat="44.3767383" lon="11.0096583"><ele>705.0</ele><time>2026-05-01T12:03:13.66Z</time></trkpt><trkpt lat="44.3766833" lon="11.0097167"><ele>705.0</ele><time>2026-05-01T12:03:26.662Z</time></trkpt><trkpt lat="44.3767483" lon="11.0097"><ele>704.9999999999999</ele><time>2026-05-01T12:04:01.66Z</time></trkpt><trkpt lat="44.37682" lon="11.0096767"><ele>705.0</ele><time>2026-05-01T12:04:07.662Z</time></trkpt><trkpt lat="44.3768833" lon="11.0096733"><ele>705.0</ele><time>2026-05-01T12:04:09.661Z</time></trkpt><trkpt lat="44.3769683" lon="11.0096517"><ele>705.0</ele><time>2026-05-01T12:04:11.66Z</time></trkpt><trkpt lat="44.3768717" lon="11.0096733"><ele>705.0</ele><time>2026-05-01T12:05:00.659Z</time></trkpt><trkpt lat="44.3769167" lon="11.00961"><ele>705.0</ele><time>2026-05-01T12:05:23.666Z</time></trkpt><trkpt lat="44.3768833" lon="11.0095083"><ele>705.0</ele><time>2026-05-01T12:08:40.658Z</time></trkpt><trkpt lat="44.376855" lon="11.0095917"><ele>705.0</ele><time>2026-05-01T12:09:01.659Z</time></trkpt><trkpt lat="44.3768217" lon="11.0096717"><ele>704.9999999999999</ele><time>2026-05-01T12:11:40.659Z</time></trkpt><trkpt lat="44.3768533" lon="11.0095883"><ele>705.0</ele><time>2026-05-01T12:12:44.668Z</time></trkpt><trkpt lat="44.376895" lon="11.0095083"><ele>705.0</ele><time>2026-05-01T12:12:55.654Z</time></trkpt><trkpt lat="44.3769517" lon="11.0094533"><ele>705.0</ele><time>2026-05-01T12:12:59.661Z</time></trkpt><trkpt lat="44.376895" lon="11.009545"><ele>705.0</ele><time>2026-05-01T12:13:56.663Z</time></trkpt><trkpt lat="44.3768383" lon="11.0095967"><ele>704.9999999999999</ele><time>2026-05-01T12:13:59.664Z</time></trkpt><trkpt lat="44.3768367" lon="11.0096917"><ele>705.0</ele><time>2026-05-01T12:14:22.661Z</time></trkpt><trkpt lat="44.3767699" lon="11.0096938"><ele>705.0</ele><time>2026-05-01T12:14:47.66Z</time></trkpt><trkpt lat="44.3767079" lon="11.0097233"><ele>705.0</ele><time>2026-05-01T12:15:28.66Z</time></trkpt><trkpt lat="44.376669" lon="11.0098058"><ele>705.0</ele><time>2026-05-01T12:15:31.662Z</time></trkpt><trkpt lat="44.3768469" lon="11.009763"><ele>705.0</ele><time>2026-05-01T12:15:53.69Z</time></trkpt><trkpt lat="44.3768339" lon="11.009676"><ele>705.0</ele><time>2026-05-01T12:16:39.659Z</time></trkpt><trkpt lat="44.376778" lon="11.0096243"><ele>705.0</ele><time>2026-05-01T12:16:45.695Z</time></trkpt><trkpt lat="44.3767928" lon="11.0095362"><ele>705.0</ele><time>2026-05-01T12:19:59.752Z</time></trkpt><trkpt lat="44.3767109" lon="11.0095344"><ele>705.0</ele><time>2026-05-01T12:20:10.658Z</time></trkpt><trkpt lat="44.3766946" lon="11.009449"><ele>705.0</ele><time>2026-05-01T12:21:56.662Z</time></trkpt><trkpt lat="44.3767583" lon="11.0094612"><ele>705.0</ele><time>2026-05-01T12:28:04.683Z</time></trkpt><trkpt lat="44.3768289" lon="11.009411"><ele>705.0</ele><time>2026-05-01T12:28:07.68Z</time></trkpt><trkpt lat="44.3768889" lon="11.0093804"><ele>705.0</ele><time>2026-05-01T12:28:09.664Z</time></trkpt><trkpt lat="44.3771445" lon="11.0092866"><ele>704.2</ele><time>2026-05-01T12:28:11.66Z</time></trkpt><trkpt lat="44.3772641" lon="11.0092488"><ele>703.4</ele><time>2026-05-01T12:28:12.658Z</time></trkpt><trkpt lat="44.3773526" lon="11.0092241"><ele>702.5999999999999</ele><time>2026-05-01T12:28:13.659Z</time></trkpt><trkpt lat="44.3774233" lon="11.0092053"><ele>701.8</ele><time>2026-05-01T12:28:14.658Z</time></trkpt><trkpt lat="44.3775221" lon="11.0091856"><ele>701.0</ele><time>2026-05-01T12:28:16.659Z</time></trkpt><trkpt lat="44.3775945" lon="11.0092121"><ele>701.0</ele><time>2026-05-01T12:28:19.655Z</time></trkpt><trkpt lat="44.3776537" lon="11.0091531"><ele>701.0</ele><time>2026-05-01T12:28:23.659Z</time></trkpt><trkpt lat="44.3775433" lon="11.0091217"><ele>701.0</ele><time>2026-05-01T12:28:36.654Z</time></trkpt><trkpt lat="44.377475" lon="11.00914"><ele>701.0</ele><time>2026-05-01T12:28:37.656Z</time></trkpt><trkpt lat="44.3774033" lon="11.0091617"><ele>701.0</ele><time>2026-05-01T12:28:38.662Z</time></trkpt><trkpt lat="44.37732" lon="11.0091933"><ele>701.0</ele><time>2026-05-01T12:28:39.656Z</time></trkpt><trkpt lat="44.3772317" lon="11.009215"><ele>701.8</ele><time>2026-05-01T12:28:40.66Z</time></trkpt><trkpt lat="44.3771333" lon="11.0092417"><ele>702.5999999999999</ele><time>2026-05-01T12:28:41.66Z</time></trkpt><trkpt lat="44.37703" lon="11.009275"><ele>703.4</ele><time>2026-05-01T12:28:42.66Z</time></trkpt><trkpt lat="44.3769183" lon="11.00931"><ele>704.2</ele><time>2026-05-01T12:28:43.664Z</time></trkpt><trkpt lat="44.3768033" lon="11.00935"><ele>705.0</ele><time>2026-05-01T12:28:44.662Z</time></trkpt><trkpt lat="44.3766867" lon="11.0093867"><ele>705.0</ele><time>2026-05-01T12:28:45.66Z</time></trkpt><trkpt lat="44.37657" lon="11.0094233"><ele>705.0</ele><time>2026-05-01T12:28:46.663Z</time></trkpt><trkpt lat="44.3764533" lon="11.0094633"><ele>705.0</ele><time>2026-05-01T12:28:47.661Z</time></trkpt><trkpt lat="44.3763317" lon="11.0094983"><ele>705.0</ele><time>2026-05-01T12:28:48.658Z</time></trkpt><trkpt lat="44.3762067" lon="11.0095267"><ele>705.0</ele><time>2026-05-01T12:28:49.661Z</time></trkpt><trkpt lat="44.376075" lon="11.0095383"><ele>705.0</ele><time>2026-05-01T12:28:50.661Z</time></trkpt><trkpt lat="44.37594" lon="11.00953"><ele>705.0</ele><time>2026-05-01T12:28:51.661Z</time></trkpt><trkpt lat="44.3758083" lon="11.0095117"><ele>705.0</ele><time>2026-05-01T12:28:52.662Z</time></trkpt><trkpt lat="44.3756717" lon="11.0094767"><ele>705.0</ele><time>2026-05-01T12:28:53.66Z</time></trkpt><trkpt lat="44.375545" lon="11.0094283"><ele>705.0</ele><time>2026-05-01T12:28:54.661Z</time></trkpt><trkpt lat="44.375415" lon="11.00937"><ele>705.0</ele><time>2026-05-01T12:28:55.665Z</time></trkpt><trkpt lat="44.3752933" lon="11.0093017"><ele>705.0</ele><time>2026-05-01T12:28:56.661Z</time></trkpt><trkpt lat="44.37517" lon="11.0092233"><ele>704.6</ele><time>2026-05-01T12:28:57.661Z</time></trkpt><trkpt lat="44.3750517" lon="11.00915"><ele>704.2</ele><time>2026-05-01T12:28:58.662Z</time></trkpt><trkpt lat="44.3749467" lon="11.0090883"><ele>703.8</ele><time>2026-05-01T12:28:59.664Z</time></trkpt><trkpt lat="44.3748533" lon="11.0090383"><ele>703.4</ele><time>2026-05-01T12:29:00.665Z</time></trkpt><trkpt lat="44.3747733" lon="11.0090167"><ele>703.0</ele><time>2026-05-01T12:29:01.664Z</time></trkpt><trkpt lat="44.3746933" lon="11.0090183"><ele>703.3333333333334</ele><time>2026-05-01T12:29:02.665Z</time></trkpt><trkpt lat="44.37462" lon="11.0090267"><ele>703.6666666666667</ele><time>2026-05-01T12:29:03.655Z</time></trkpt><trkpt lat="44.3745517" lon="11.009035"><ele>704.0</ele><time>2026-05-01T12:29:04.66Z</time></trkpt><trkpt lat="44.37448" lon="11.0090333"><ele>704.3333333333334</ele><time>2026-05-01T12:29:05.662Z</time></trkpt><trkpt lat="44.3743983" lon="11.00902"><ele>704.6666666666666</ele><time>2026-05-01T12:29:06.668Z</time></trkpt><trkpt lat="44.374315" lon="11.009005"><ele>705.0</ele><time>2026-05-01T12:29:07.665Z</time></trkpt><trkpt lat="44.3742317" lon="11.0089933"><ele>705.0</ele><time>2026-05-01T12:29:08.668Z</time></trkpt><trkpt lat="44.3741533" lon="11.0089933"><ele>705.0</ele><time>2026-05-01T12:29:09.661Z</time></trkpt><trkpt lat="44.37407" lon="11.0090017"><ele>705.0</ele><time>2026-05-01T12:29:10.66Z</time></trkpt><trkpt lat="44.3739867" lon="11.0090233"><ele>705.0</ele><time>2026-05-01T12:29:11.667Z</time></trkpt><trkpt lat="44.3739117" lon="11.00906"><ele>705.0</ele><time>2026-05-01T12:29:12.665Z</time></trkpt><trkpt lat="44.3738417" lon="11.009105"><ele>705.0</ele><time>2026-05-01T12:29:13.663Z</time></trkpt><trkpt lat="44.373775" lon="11.0091567"><ele>703.6666666666666</ele><time>2026-05-01T12:29:14.661Z</time></trkpt><trkpt lat="44.373705" lon="11.0092017"><ele>702.3333333333334</ele><time>2026-05-01T12:29:15.659Z</time></trkpt><trkpt lat="44.3736317" lon="11.0092533"><ele>701.0</ele><time>2026-05-01T12:29:16.662Z</time></trkpt><trkpt lat="44.3735667" lon="11.0093083"><ele>699.6666666666667</ele><time>2026-05-01T12:29:17.663Z</time></trkpt><trkpt lat="44.3735" lon="11.0093667"><ele>698.3333333333334</ele><time>2026-05-01T12:29:18.662Z</time></trkpt><trkpt lat="44.3734333" lon="11.0094267"><ele>697.0</ele><time>2026-05-01T12:29:19.66Z</time></trkpt><trkpt lat="44.37337" lon="11.0094783"><ele>697.0</ele><time>2026-05-01T12:29:20.663Z</time></trkpt><trkpt lat="44.37331" lon="11.0095233"><ele>697.0</ele><time>2026-05-01T12:29:21.663Z</time></trkpt><trkpt lat="44.3732517" lon="11.00957"><ele>697.0</ele><time>2026-05-01T12:29:22.656Z</time></trkpt><trkpt lat="44.3731933" lon="11.0096133"><ele>697.0</ele><time>2026-05-01T12:29:23.66Z</time></trkpt><trkpt lat="44.373135" lon="11.00965"><ele>697.0</ele><time>2026-05-01T12:29:24.66Z</time></trkpt><trkpt lat="44.3730733" lon="11.00968"><ele>697.0</ele><time>2026-05-01T12:29:25.661Z</time></trkpt><trkpt lat="44.37301" lon="11.00971"><ele>697.0</ele><time>2026-05-01T12:29:26.662Z</time></trkpt><trkpt lat="44.3729383" lon="11.0097317"><ele>693.5</ele><time>2026-05-01T12:29:27.662Z</time></trkpt><trkpt lat="44.372865" lon="11.00975"><ele>690.0</ele><time>2026-05-01T12:29:28.663Z</time></trkpt><trkpt lat="44.3727933" lon="11.0097633"><ele>686.5</ele><time>2026-05-01T12:29:29.661Z</time></trkpt><trkpt lat="44.3727183" lon="11.00977"><ele>683.0</ele><time>2026-05-01T12:29:30.661Z</time></trkpt><trkpt lat="44.37264" lon="11.0097817"><ele>679.5</ele><time>2026-05-01T12:29:31.661Z</time></trkpt><trkpt lat="44.37256" lon="11.0097917"><ele>676.0</ele><time>2026-05-01T12:29:32.667Z</time></trkpt><trkpt lat="44.3724733" lon="11.0098"><ele>676.0</ele><time>2026-05-01T12:29:33.67Z</time></trkpt><trkpt lat="44.3723883" lon="11.0098117"><ele>676.0</ele><time>2026-05-01T12:29:34.666Z</time></trkpt><trkpt lat="44.3723033" lon="11.0098267"><ele>676.0</ele><time>2026-05-01T12:29:35.66Z</time></trkpt><trkpt lat="44.372215" lon="11.009845"><ele>676.0</ele><time>2026-05-01T12:29:36.662Z</time></trkpt><trkpt lat="44.37213" lon="11.00986"><ele>676.0</ele><time>2026-05-01T12:29:37.661Z</time></trkpt><trkpt lat="44.3720483" lon="11.009875"><ele>676.0</ele><time>2026-05-01T12:29:38.656Z</time></trkpt><trkpt lat="44.3719683" lon="11.0098733"><ele>672.8333333333334</ele><time>2026-05-01T12:29:39.66Z</time></trkpt><trkpt lat="44.3718883" lon="11.0098567"><ele>669.6666666666667</ele><time>2026-05-01T12:29:40.659Z</time></trkpt><trkpt lat="44.371805" lon="11.0098383"><ele>666.5</ele><time>2026-05-01T12:29:41.667Z</time></trkpt><trkpt lat="44.37172" lon="11.009815"><ele>663.3333333333334</ele><time>2026-05-01T12:29:42.662Z</time></trkpt><trkpt lat="44.3716433" lon="11.0098017"><ele>660.1666666666666</ele><time>2026-05-01T12:29:43.66Z</time></trkpt><trkpt lat="44.37157" lon="11.009785"><ele>657.0</ele><time>2026-05-01T12:29:44.664Z</time></trkpt><trkpt lat="44.3714633" lon="11.0097383"><ele>657.0</ele><time>2026-05-01T12:29:46.66Z</time></trkpt><trkpt lat="44.371395" lon="11.00971"><ele>657.0</ele><time>2026-05-01T12:29:48.657Z</time></trkpt><trkpt lat="44.3713417" lon="11.0097933"><ele>657.0</ele><time>2026-05-01T12:29:52.661Z</time></trkpt><trkpt lat="44.371355" lon="11.0098933"><ele>657.0</ele><time>2026-05-01T12:29:55.663Z</time></trkpt><trkpt lat="44.3713667" lon="11.0099933"><ele>657.0</ele><time>2026-05-01T12:29:58.659Z</time></trkpt><trkpt lat="44.3713733" lon="11.0100867"><ele>657.0</ele><time>2026-05-01T12:30:01.66Z</time></trkpt><trkpt lat="44.3713917" lon="11.0102417"><ele>657.6</ele><time>2026-05-01T12:30:58.659Z</time></trkpt><trkpt lat="44.3713717" lon="11.0103967"><ele>658.2</ele><time>2026-05-01T12:31:00.663Z</time></trkpt><trkpt lat="44.371345" lon="11.010555"><ele>658.8</ele><time>2026-05-01T12:31:02.663Z</time></trkpt><trkpt lat="44.3713483" lon="11.0107017"><ele>659.4</ele><time>2026-05-01T12:31:04.655Z</time></trkpt><trkpt lat="44.3713617" lon="11.01085"><ele>660.0</ele><time>2026-05-01T12:31:06.66Z</time></trkpt><trkpt lat="44.3713967" lon="11.0110033"><ele>660.0</ele><time>2026-05-01T12:31:08.663Z</time></trkpt><trkpt lat="44.3714133" lon="11.0111567"><ele>660.0</ele><time>2026-05-01T12:31:10.66Z</time></trkpt><trkpt lat="44.3714133" lon="11.0112483"><ele>660.0</ele><time>2026-05-01T12:31:11.662Z</time></trkpt><trkpt lat="44.3714067" lon="11.0113533"><ele>660.0</ele><time>2026-05-01T12:31:12.661Z</time></trkpt><trkpt lat="44.3713967" lon="11.0114567"><ele>660.0</ele><time>2026-05-01T12:31:13.66Z</time></trkpt><trkpt lat="44.3713817" lon="11.0115617"><ele>660.0</ele><time>2026-05-01T12:31:14.667Z</time></trkpt><trkpt lat="44.371365" lon="11.01166"><ele>656.0</ele><time>2026-05-01T12:31:15.658Z</time></trkpt><trkpt lat="44.371345" lon="11.0117583"><ele>652.0</ele><time>2026-05-01T12:31:16.659Z</time></trkpt><trkpt lat="44.3713183" lon="11.0118667"><ele>648.0</ele><time>2026-05-01T12:31:17.658Z</time></trkpt><trkpt lat="44.3712933" lon="11.0119667"><ele>644.0</ele><time>2026-05-01T12:31:18.66Z</time></trkpt><trkpt lat="44.3712717" lon="11.01206"><ele>640.0</ele><time>2026-05-01T12:31:19.659Z</time></trkpt><trkpt lat="44.3712517" lon="11.0121517"><ele>636.0</ele><time>2026-05-01T12:31:20.66Z</time></trkpt><trkpt lat="44.3712217" lon="11.0123117"><ele>636.0</ele><time>2026-05-01T12:31:22.66Z</time></trkpt><trkpt lat="44.3711883" lon="11.0124733"><ele>636.0</ele><time>2026-05-01T12:31:24.66Z</time></trkpt><trkpt lat="44.37118" lon="11.0125733"><ele>636.0</ele><time>2026-05-01T12:31:25.658Z</time></trkpt><trkpt lat="44.37118" lon="11.01268"><ele>636.0</ele><time>2026-05-01T12:31:26.662Z</time></trkpt><trkpt lat="44.3711867" lon="11.0127883"><ele>636.0</ele><time>2026-05-01T12:31:27.658Z</time></trkpt><trkpt lat="44.3711933" lon="11.0128967"><ele>636.0</ele><time>2026-05-01T12:31:28.655Z</time></trkpt><trkpt lat="44.3711933" lon="11.0130117"><ele>635.8</ele><time>2026-05-01T12:31:29.66Z</time></trkpt><trkpt lat="44.37119" lon="11.0131417"><ele>635.6</ele><time>2026-05-01T12:31:30.658Z</time></trkpt><trkpt lat="44.37119" lon="11.0132817"><ele>635.4</ele><time>2026-05-01T12:31:31.661Z</time></trkpt><trkpt lat="44.37119" lon="11.013425"><ele>635.2</ele><time>2026-05-01T12:31:32.661Z</time></trkpt><trkpt lat="44.3711867" lon="11.0135617"><ele>635.0</ele><time>2026-05-01T12:31:33.661Z</time></trkpt><trkpt lat="44.37118" lon="11.0137017"><ele>634.2</ele><time>2026-05-01T12:31:34.665Z</time></trkpt><trkpt lat="44.371175" lon="11.0138417"><ele>633.4</ele><time>2026-05-01T12:31:35.661Z</time></trkpt><trkpt lat="44.371155" lon="11.0139733"><ele>632.6</ele><time>2026-05-01T12:31:36.655Z</time></trkpt><trkpt lat="44.3711117" lon="11.014105"><ele>631.8</ele><time>2026-05-01T12:31:37.661Z</time></trkpt><trkpt lat="44.3710417" lon="11.0142583"><ele>631.0</ele><time>2026-05-01T12:31:38.661Z</time></trkpt><trkpt lat="44.3709617" lon="11.01443"><ele>630.5</ele><time>2026-05-01T12:31:39.661Z</time></trkpt><trkpt lat="44.370885" lon="11.0146033"><ele>630.0</ele><time>2026-05-01T12:31:40.66Z</time></trkpt><trkpt lat="44.37081" lon="11.01477"><ele>629.5</ele><time>2026-05-01T12:31:41.66Z</time></trkpt><trkpt lat="44.3707467" lon="11.0149117"><ele>629.0</ele><time>2026-05-01T12:31:42.659Z</time></trkpt><trkpt lat="44.370685" lon="11.01505"><ele>627.6</ele><time>2026-05-01T12:31:43.66Z</time></trkpt><trkpt lat="44.370635" lon="11.0151833"><ele>626.2</ele><time>2026-05-01T12:31:44.663Z</time></trkpt><trkpt lat="44.370585" lon="11.015305"><ele>624.8000000000001</ele><time>2026-05-01T12:31:45.661Z</time></trkpt><trkpt lat="44.3705267" lon="11.0154083"><ele>623.4</ele><time>2026-05-01T12:31:46.662Z</time></trkpt><trkpt lat="44.3704433" lon="11.01548"><ele>622.0</ele><time>2026-05-01T12:31:47.663Z</time></trkpt><trkpt lat="44.3703483" lon="11.015535"><ele>622.0</ele><time>2026-05-01T12:31:48.662Z</time></trkpt><trkpt lat="44.3702583" lon="11.0155883"><ele>622.0</ele><time>2026-05-01T12:31:49.659Z</time></trkpt><trkpt lat="44.37018" lon="11.015665"><ele>622.0</ele><time>2026-05-01T12:31:50.662Z</time></trkpt><trkpt lat="44.3701033" lon="11.0157883"><ele>622.0</ele><time>2026-05-01T12:31:51.664Z</time></trkpt><trkpt lat="44.37003" lon="11.015935"><ele>622.0</ele><time>2026-05-01T12:31:52.66Z</time></trkpt><trkpt lat="44.3699517" lon="11.0160717"><ele>623.3333333333334</ele><time>2026-05-01T12:31:53.662Z</time></trkpt><trkpt lat="44.36988" lon="11.0161817"><ele>624.6666666666667</ele><time>2026-05-01T12:31:54.661Z</time></trkpt><trkpt lat="44.3698117" lon="11.0162617"><ele>626.0</ele><time>2026-05-01T12:31:55.659Z</time></trkpt><trkpt lat="44.3697617" lon="11.01632"><ele>627.3333333333334</ele><time>2026-05-01T12:31:56.666Z</time></trkpt><trkpt lat="44.3697933" lon="11.0164167"><ele>628.6666666666666</ele><time>2026-05-01T12:33:00.655Z</time></trkpt><trkpt lat="44.36982" lon="11.016515"><ele>630.0</ele><time>2026-05-01T12:33:02.663Z</time></trkpt><trkpt lat="44.3698917" lon="11.0166083"><ele>630.5714285714286</ele><time>2026-05-01T12:33:04.661Z</time></trkpt><trkpt lat="44.3699517" lon="11.0166633"><ele>631.1428571428571</ele><time>2026-05-01T12:33:05.661Z</time></trkpt><trkpt lat="44.3700167" lon="11.01673"><ele>631.7142857142858</ele><time>2026-05-01T12:33:06.661Z</time></trkpt><trkpt lat="44.370085" lon="11.016785"><ele>632.2857142857142</ele><time>2026-05-01T12:33:07.66Z</time></trkpt><trkpt lat="44.3701467" lon="11.0168317"><ele>632.8571428571429</ele><time>2026-05-01T12:33:08.661Z</time></trkpt><trkpt lat="44.3702117" lon="11.0168633"><ele>633.4285714285714</ele><time>2026-05-01T12:33:09.662Z</time></trkpt><trkpt lat="44.3702883" lon="11.0168733"><ele>634.0</ele><time>2026-05-01T12:33:10.663Z</time></trkpt><trkpt lat="44.3703667" lon="11.01687"><ele>634.0</ele><time>2026-05-01T12:33:11.665Z</time></trkpt><trkpt lat="44.3704433" lon="11.0168733"><ele>634.0</ele><time>2026-05-01T12:33:12.662Z</time></trkpt><trkpt lat="44.37052" lon="11.0168983"><ele>634.0</ele><time>2026-05-01T12:33:13.66Z</time></trkpt><trkpt lat="44.37059" lon="11.016925"><ele>634.0</ele><time>2026-05-01T12:33:14.663Z</time></trkpt><trkpt lat="44.3706583" lon="11.0169633"><ele>634.0</ele><time>2026-05-01T12:33:15.668Z</time></trkpt><trkpt lat="44.37073" lon="11.017005"><ele>634.0</ele><time>2026-05-01T12:33:16.66Z</time></trkpt><trkpt lat="44.3708033" lon="11.0170617"><ele>637.0</ele><time>2026-05-01T12:33:17.661Z</time></trkpt><trkpt lat="44.3708717" lon="11.0171067"><ele>640.0</ele><time>2026-05-01T12:33:18.662Z</time></trkpt><trkpt lat="44.37093" lon="11.0171483"><ele>643.0</ele><time>2026-05-01T12:33:19.662Z</time></trkpt><trkpt lat="44.3709967" lon="11.0171617"><ele>646.0</ele><time>2026-05-01T12:33:20.66Z</time></trkpt><trkpt lat="44.3710683" lon="11.0171617"><ele>649.0</ele><time>2026-05-01T12:33:21.661Z</time></trkpt><trkpt lat="44.3711483" lon="11.017135"><ele>652.0</ele><time>2026-05-01T12:33:22.658Z</time></trkpt><trkpt lat="44.3712317" lon="11.0170833"><ele>652.0</ele><time>2026-05-01T12:33:23.659Z</time></trkpt><trkpt lat="44.3713117" lon="11.017015"><ele>652.0</ele><time>2026-05-01T12:33:24.661Z</time></trkpt><trkpt lat="44.37139" lon="11.0169267"><ele>652.0</ele><time>2026-05-01T12:33:25.66Z</time></trkpt><trkpt lat="44.371465" lon="11.0168367"><ele>652.0</ele><time>2026-05-01T12:33:26.668Z</time></trkpt><trkpt lat="44.3715433" lon="11.01674"><ele>652.0</ele><time>2026-05-01T12:33:27.66Z</time></trkpt><trkpt lat="44.3716283" lon="11.0166367"><ele>654.4000000000001</ele><time>2026-05-01T12:33:28.659Z</time></trkpt><trkpt lat="44.371715" lon="11.016535"><ele>656.8000000000001</ele><time>2026-05-01T12:33:29.659Z</time></trkpt><trkpt lat="44.3718" lon="11.0164383"><ele>659.2</ele><time>2026-05-01T12:33:30.656Z</time></trkpt><trkpt lat="44.37188" lon="11.0163567"><ele>661.6</ele><time>2026-05-01T12:33:31.663Z</time></trkpt><trkpt lat="44.3719633" lon="11.0162933"><ele>664.0</ele><time>2026-05-01T12:33:32.661Z</time></trkpt><trkpt lat="44.3720517" lon="11.016255"><ele>664.0</ele><time>2026-05-01T12:33:33.662Z</time></trkpt><trkpt lat="44.3721417" lon="11.01625"><ele>664.0</ele><time>2026-05-01T12:33:34.663Z</time></trkpt><trkpt lat="44.3722233" lon="11.01626"><ele>664.0</ele><time>2026-05-01T12:33:35.661Z</time></trkpt><trkpt lat="44.3723033" lon="11.0162733"><ele>664.0</ele><time>2026-05-01T12:33:36.665Z</time></trkpt><trkpt lat="44.372375" lon="11.01626"><ele>664.0</ele><time>2026-05-01T12:33:37.661Z</time></trkpt><trkpt lat="44.3724467" lon="11.0161767"><ele>664.0</ele><time>2026-05-01T12:33:38.669Z</time></trkpt><trkpt lat="44.3725167" lon="11.0160617"><ele>663.8000000000001</ele><time>2026-05-01T12:33:39.659Z</time></trkpt><trkpt lat="44.3725783" lon="11.01595"><ele>663.6</ele><time>2026-05-01T12:33:40.658Z</time></trkpt><trkpt lat="44.372635" lon="11.0158667"><ele>663.4</ele><time>2026-05-01T12:33:41.666Z</time></trkpt><trkpt lat="44.3726983" lon="11.015815"><ele>663.2</ele><time>2026-05-01T12:33:42.661Z</time></trkpt><trkpt lat="44.37276" lon="11.0157917"><ele>663.0</ele><time>2026-05-01T12:33:43.661Z</time></trkpt><trkpt lat="44.37289" lon="11.0157967"><ele>665.8</ele><time>2026-05-01T12:33:45.659Z</time></trkpt><trkpt lat="44.372965" lon="11.0158317"><ele>668.5999999999999</ele><time>2026-05-01T12:33:46.659Z</time></trkpt><trkpt lat="44.3730533" lon="11.0158833"><ele>671.4000000000001</ele><time>2026-05-01T12:33:47.653Z</time></trkpt><trkpt lat="44.3731517" lon="11.0159333"><ele>674.2</ele><time>2026-05-01T12:33:48.66Z</time></trkpt><trkpt lat="44.3732467" lon="11.01598"><ele>677.0</ele><time>2026-05-01T12:33:49.658Z</time></trkpt><trkpt lat="44.37334" lon="11.0160233"><ele>679.6</ele><time>2026-05-01T12:33:50.661Z</time></trkpt><trkpt lat="44.37344" lon="11.01607"><ele>682.2</ele><time>2026-05-01T12:33:51.66Z</time></trkpt><trkpt lat="44.3735433" lon="11.0161217"><ele>684.8</ele><time>2026-05-01T12:33:52.658Z</time></trkpt><trkpt lat="44.3736333" lon="11.016185"><ele>687.4</ele><time>2026-05-01T12:33:53.658Z</time></trkpt><trkpt lat="44.37371" lon="11.0162533"><ele>690.0</ele><time>2026-05-01T12:33:54.663Z</time></trkpt><trkpt lat="44.373785" lon="11.0163183"><ele>692.1666666666666</ele><time>2026-05-01T12:33:55.663Z</time></trkpt><trkpt lat="44.3738633" lon="11.016355"><ele>694.3333333333334</ele><time>2026-05-01T12:33:56.662Z</time></trkpt><trkpt lat="44.3739383" lon="11.016355"><ele>696.5</ele><time>2026-05-01T12:33:57.664Z</time></trkpt><trkpt lat="44.3740117" lon="11.0163217"><ele>698.6666666666667</ele><time>2026-05-01T12:33:58.66Z</time></trkpt><trkpt lat="44.3740917" lon="11.0162617"><ele>700.8333333333334</ele><time>2026-05-01T12:33:59.66Z</time></trkpt><trkpt lat="44.374165" lon="11.0162083"><ele>703.0</ele><time>2026-05-01T12:34:00.664Z</time></trkpt><trkpt lat="44.3742333" lon="11.016175"><ele>703.0</ele><time>2026-05-01T12:34:01.659Z</time></trkpt><trkpt lat="44.3742983" lon="11.016165"><ele>703.0</ele><time>2026-05-01T12:34:02.664Z</time></trkpt><trkpt lat="44.3743667" lon="11.01617"><ele>703.0</ele><time>2026-05-01T12:34:03.66Z</time></trkpt><trkpt lat="44.3744683" lon="11.0161833"><ele>703.0</ele><time>2026-05-01T12:34:05.663Z</time></trkpt><trkpt lat="44.3745033" lon="11.0162767"><ele>703.0</ele><time>2026-05-01T12:34:08.662Z</time></trkpt><trkpt lat="44.3744533" lon="11.0164383"><ele>703.0</ele><time>2026-05-01T12:34:10.66Z</time></trkpt><trkpt lat="44.3744183" lon="11.0165583"><ele>703.6666666666667</ele><time>2026-05-01T12:34:11.659Z</time></trkpt><trkpt lat="44.3743967" lon="11.0166717"><ele>704.3333333333334</ele><time>2026-05-01T12:34:12.66Z</time></trkpt><trkpt lat="44.3743883" lon="11.0167667"><ele>705.0</ele><time>2026-05-01T12:34:13.662Z</time></trkpt><trkpt lat="44.3743883" lon="11.0168583"><ele>705.6666666666666</ele><time>2026-05-01T12:34:14.661Z</time></trkpt><trkpt lat="44.3744" lon="11.016955"><ele>706.3333333333333</ele><time>2026-05-01T12:34:15.662Z</time></trkpt><trkpt lat="44.37441" lon="11.017055"><ele>707.0</ele><time>2026-05-01T12:34:16.665Z</time></trkpt><trkpt lat="44.3744433" lon="11.0171983"><ele>707.0</ele><time>2026-05-01T12:34:18.658Z</time></trkpt><trkpt lat="44.3744717" lon="11.017355"><ele>707.0</ele><time>2026-05-01T12:34:20.66Z</time></trkpt><trkpt lat="44.3744667" lon="11.01747"><ele>707.0</ele><time>2026-05-01T12:34:21.659Z</time></trkpt><trkpt lat="44.3744533" lon="11.0176067"><ele>707.0</ele><time>2026-05-01T12:34:22.663Z</time></trkpt><trkpt lat="44.37444" lon="11.0177583"><ele>707.0</ele><time>2026-05-01T12:34:23.662Z</time></trkpt><trkpt lat="44.3744383" lon="11.0179117"><ele>708.75</ele><time>2026-05-01T12:34:24.662Z</time></trkpt><trkpt lat="44.374435" lon="11.0180667"><ele>710.5</ele><time>2026-05-01T12:34:25.663Z</time></trkpt><trkpt lat="44.3744317" lon="11.0182267"><ele>712.25</ele><time>2026-05-01T12:34:26.66Z</time></trkpt><trkpt lat="44.37442" lon="11.0183867"><ele>714.0</ele><time>2026-05-01T12:34:27.665Z</time></trkpt><trkpt lat="44.3744083" lon="11.0185433"><ele>715.4000000000001</ele><time>2026-05-01T12:34:28.658Z</time></trkpt><trkpt lat="44.3743933" lon="11.018685"><ele>716.8</ele><time>2026-05-01T12:34:29.66Z</time></trkpt><trkpt lat="44.3743717" lon="11.0188183"><ele>718.2</ele><time>2026-05-01T12:34:30.665Z</time></trkpt><trkpt lat="44.3743433" lon="11.0189533"><ele>719.5999999999999</ele><time>2026-05-01T12:34:31.662Z</time></trkpt><trkpt lat="44.3743067" lon="11.0190817"><ele>721.0</ele><time>2026-05-01T12:34:32.66Z</time></trkpt><trkpt lat="44.37427" lon="11.0192"><ele>723.0</ele><time>2026-05-01T12:34:33.661Z</time></trkpt><trkpt lat="44.3742517" lon="11.0193217"><ele>725.0</ele><time>2026-05-01T12:34:34.666Z</time></trkpt><trkpt lat="44.374235" lon="11.0194567"><ele>727.0</ele><time>2026-05-01T12:34:35.664Z</time></trkpt><trkpt lat="44.3742267" lon="11.0196033"><ele>729.0</ele><time>2026-05-01T12:34:36.66Z</time></trkpt><trkpt lat="44.3742233" lon="11.0197667"><ele>731.0</ele><time>2026-05-01T12:34:37.662Z</time></trkpt><trkpt lat="44.374225" lon="11.019935"><ele>732.4</ele><time>2026-05-01T12:34:38.664Z</time></trkpt><trkpt lat="44.3742217" lon="11.0201033"><ele>733.8</ele><time>2026-05-01T12:34:39.657Z</time></trkpt><trkpt lat="44.374215" lon="11.020265"><ele>735.1999999999999</ele><time>2026-05-01T12:34:40.659Z</time></trkpt><trkpt lat="44.3741983" lon="11.020415"><ele>736.5999999999999</ele><time>2026-05-01T12:34:41.665Z</time></trkpt><trkpt lat="44.374175" lon="11.0205483"><ele>738.0</ele><time>2026-05-01T12:34:42.661Z</time></trkpt><trkpt lat="44.37414" lon="11.0206683"><ele>738.0</ele><time>2026-05-01T12:34:43.662Z</time></trkpt><trkpt lat="44.3740883" lon="11.0207817"><ele>738.0</ele><time>2026-05-01T12:34:44.662Z</time></trkpt><trkpt lat="44.3740317" lon="11.0208717"><ele>738.0</ele><time>2026-05-01T12:34:45.659Z</time></trkpt><trkpt lat="44.3739767" lon="11.020955"><ele>738.0</ele><time>2026-05-01T12:34:46.664Z</time></trkpt><trkpt lat="44.37393" lon="11.021045"><ele>738.0</ele><time>2026-05-01T12:34:47.667Z</time></trkpt><trkpt lat="44.37389" lon="11.0211433"><ele>738.0</ele><time>2026-05-01T12:34:48.66Z</time></trkpt><trkpt lat="44.3738633" lon="11.021255"><ele>737.8</ele><time>2026-05-01T12:34:49.658Z</time></trkpt><trkpt lat="44.3738517" lon="11.0213767"><ele>737.5999999999999</ele><time>2026-05-01T12:34:50.661Z</time></trkpt><trkpt lat="44.3738533" lon="11.0214967"><ele>737.4000000000001</ele><time>2026-05-01T12:34:51.658Z</time></trkpt><trkpt lat="44.373865" lon="11.021615"><ele>737.2</ele><time>2026-05-01T12:34:52.657Z</time></trkpt><trkpt lat="44.3738917" lon="11.0217383"><ele>737.0</ele><time>2026-05-01T12:34:53.66Z</time></trkpt><trkpt lat="44.3739233" lon="11.0218733"><ele>738.8</ele><time>2026-05-01T12:34:54.66Z</time></trkpt><trkpt lat="44.3739617" lon="11.0220133"><ele>740.6</ele><time>2026-05-01T12:34:55.661Z</time></trkpt><trkpt lat="44.374005" lon="11.0221467"><ele>742.4</ele><time>2026-05-01T12:34:56.661Z</time></trkpt><trkpt lat="44.3740383" lon="11.022275"><ele>744.1999999999999</ele><time>2026-05-01T12:34:57.66Z</time></trkpt><trkpt lat="44.374065" lon="11.0224067"><ele>746.0</ele><time>2026-05-01T12:34:58.662Z</time></trkpt><trkpt lat="44.374085" lon="11.0225467"><ele>746.8</ele><time>2026-05-01T12:34:59.663Z</time></trkpt><trkpt lat="44.3740967" lon="11.0226967"><ele>747.5999999999999</ele><time>2026-05-01T12:35:00.664Z</time></trkpt><trkpt lat="44.3740983" lon="11.0228433"><ele>748.4</ele><time>2026-05-01T12:35:01.665Z</time></trkpt><trkpt lat="44.3740917" lon="11.0229917"><ele>749.2</ele><time>2026-05-01T12:35:02.656Z</time></trkpt><trkpt lat="44.3740867" lon="11.02314"><ele>750.0</ele><time>2026-05-01T12:35:03.659Z</time></trkpt><trkpt lat="44.3740767" lon="11.0232817"><ele>749.5</ele><time>2026-05-01T12:35:04.66Z</time></trkpt><trkpt lat="44.3740633" lon="11.023395"><ele>749.0</ele><time>2026-05-01T12:35:05.653Z</time></trkpt><trkpt lat="44.374045" lon="11.023485"><ele>748.5</ele><time>2026-05-01T12:35:06.658Z</time></trkpt><trkpt lat="44.3739967" lon="11.0235833"><ele>748.0</ele><time>2026-05-01T12:35:08.659Z</time></trkpt><trkpt lat="44.3739467" lon="11.0236783"><ele>747.5</ele><time>2026-05-01T12:35:10.659Z</time></trkpt><trkpt lat="44.3739083" lon="11.023785"><ele>747.0</ele><time>2026-05-01T12:35:12.659Z</time></trkpt><trkpt lat="44.3738567" lon="11.0238917"><ele>746.4000000000001</ele><time>2026-05-01T12:35:14.661Z</time></trkpt><trkpt lat="44.3738133" lon="11.023985"><ele>745.8000000000001</ele><time>2026-05-01T12:35:16.66Z</time></trkpt><trkpt lat="44.3737617" lon="11.024105"><ele>745.2</ele><time>2026-05-01T12:35:18.663Z</time></trkpt><trkpt lat="44.3737333" lon="11.0242583"><ele>744.6</ele><time>2026-05-01T12:35:20.663Z</time></trkpt><trkpt lat="44.3737233" lon="11.024435"><ele>744.0</ele><time>2026-05-01T12:35:22.664Z</time></trkpt><trkpt lat="44.37373" lon="11.0245467"><ele>740.6</ele><time>2026-05-01T12:35:23.661Z</time></trkpt><trkpt lat="44.3737333" lon="11.02467"><ele>737.2</ele><time>2026-05-01T12:35:24.659Z</time></trkpt><trkpt lat="44.3737333" lon="11.0248083"><ele>733.8000000000001</ele><time>2026-05-01T12:35:25.657Z</time></trkpt><trkpt lat="44.3737317" lon="11.0249417"><ele>730.4000000000001</ele><time>2026-05-01T12:35:26.66Z</time></trkpt><trkpt lat="44.3737317" lon="11.025065"><ele>727.0</ele><time>2026-05-01T12:35:27.66Z</time></trkpt><trkpt lat="44.373735" lon="11.0251883"><ele>725.5</ele><time>2026-05-01T12:35:28.661Z</time></trkpt><trkpt lat="44.373745" lon="11.0253117"><ele>724.0</ele><time>2026-05-01T12:35:29.66Z</time></trkpt><trkpt lat="44.3737667" lon="11.0254217"><ele>722.5</ele><time>2026-05-01T12:35:30.664Z</time></trkpt><trkpt lat="44.3737883" lon="11.0255083"><ele>721.0</ele><time>2026-05-01T12:35:31.664Z</time></trkpt><trkpt lat="44.373805" lon="11.0256617"><ele>719.5</ele><time>2026-05-01T12:35:33.662Z</time></trkpt><trkpt lat="44.3738167" lon="11.02575"><ele>718.0</ele><time>2026-05-01T12:35:34.662Z</time></trkpt><trkpt lat="44.3738183" lon="11.0258483"><ele>717.0</ele><time>2026-05-01T12:35:35.666Z</time></trkpt><trkpt lat="44.3738159" lon="11.0259495"><ele>716.0</ele><time>2026-05-01T12:35:36.661Z</time></trkpt><trkpt lat="44.3738035" lon="11.026048"><ele>715.0</ele><time>2026-05-01T12:35:37.658Z</time></trkpt><trkpt lat="44.3737886" lon="11.026143"><ele>714.0</ele><time>2026-05-01T12:35:38.667Z</time></trkpt><trkpt lat="44.3737835" lon="11.0262419"><ele>713.0</ele><time>2026-05-01T12:35:39.662Z</time></trkpt><trkpt lat="44.3737862" lon="11.026346"><ele>712.0</ele><time>2026-05-01T12:35:40.66Z</time></trkpt><trkpt lat="44.3737877" lon="11.0264569"><ele>711.0</ele><time>2026-05-01T12:35:41.662Z</time></trkpt><trkpt lat="44.3737774" lon="11.026574"><ele>710.5</ele><time>2026-05-01T12:35:42.672Z</time></trkpt><trkpt lat="44.3737655" lon="11.0266901"><ele>710.0</ele><time>2026-05-01T12:35:43.657Z</time></trkpt><trkpt lat="44.3737549" lon="11.0268104"><ele>709.5</ele><time>2026-05-01T12:35:44.661Z</time></trkpt><trkpt lat="44.3737518" lon="11.0269187"><ele>709.0</ele><time>2026-05-01T12:35:45.662Z</time></trkpt><trkpt lat="44.373748" lon="11.0270127"><ele>708.5</ele><time>2026-05-01T12:35:46.664Z</time></trkpt><trkpt lat="44.3737362" lon="11.0271763"><ele>708.0</ele><time>2026-05-01T12:35:48.662Z</time></trkpt><trkpt lat="44.3736901" lon="11.0273267"><ele>708.0</ele><time>2026-05-01T12:35:50.661Z</time></trkpt><trkpt lat="44.3736629" lon="11.0274204"><ele>708.0</ele><time>2026-05-01T12:35:51.663Z</time></trkpt><trkpt lat="44.3736376" lon="11.0275241"><ele>708.0</ele><time>2026-05-01T12:35:52.66Z</time></trkpt><trkpt lat="44.3736125" lon="11.0276318"><ele>708.0</ele><time>2026-05-01T12:35:53.664Z</time></trkpt><trkpt lat="44.3735906" lon="11.0277504"><ele>708.0</ele><time>2026-05-01T12:35:54.659Z</time></trkpt><trkpt lat="44.3735725" lon="11.0278847"><ele>708.0</ele><time>2026-05-01T12:35:55.665Z</time></trkpt><trkpt lat="44.3735577" lon="11.0280303"><ele>707.0</ele><time>2026-05-01T12:35:56.67Z</time></trkpt><trkpt lat="44.3735442" lon="11.0281792"><ele>706.0</ele><time>2026-05-01T12:35:57.663Z</time></trkpt><trkpt lat="44.3735296" lon="11.028323"><ele>705.0</ele><time>2026-05-01T12:35:58.664Z</time></trkpt><trkpt lat="44.3735181" lon="11.0284649"><ele>704.0</ele><time>2026-05-01T12:35:59.665Z</time></trkpt><trkpt lat="44.3735179" lon="11.0285975"><ele>703.0</ele><time>2026-05-01T12:36:00.656Z</time></trkpt><trkpt lat="44.3735252" lon="11.0287358"><ele>702.4</ele><time>2026-05-01T12:36:01.665Z</time></trkpt><trkpt lat="44.3735346" lon="11.0288787"><ele>701.8</ele><time>2026-05-01T12:36:02.66Z</time></trkpt><trkpt lat="44.373545" lon="11.0290117"><ele>701.2</ele><time>2026-05-01T12:36:03.66Z</time></trkpt><trkpt lat="44.373556" lon="11.0291308"><ele>700.6</ele><time>2026-05-01T12:36:04.662Z</time></trkpt><trkpt lat="44.3735566" lon="11.0292465"><ele>700.0</ele><time>2026-05-01T12:36:05.66Z</time></trkpt><trkpt lat="44.3735421" lon="11.0293635"><ele>699.5</ele><time>2026-05-01T12:36:06.662Z</time></trkpt><trkpt lat="44.3735169" lon="11.0294721"><ele>699.0</ele><time>2026-05-01T12:36:07.658Z</time></trkpt><trkpt lat="44.3734833" lon="11.029575"><ele>698.5</ele><time>2026-05-01T12:36:08.656Z</time></trkpt><trkpt lat="44.3734683" lon="11.0296767"><ele>698.0</ele><time>2026-05-01T12:36:09.663Z</time></trkpt><trkpt lat="44.3734667" lon="11.0297833"><ele>697.5</ele><time>2026-05-01T12:36:10.661Z</time></trkpt><trkpt lat="44.3734817" lon="11.0298983"><ele>697.0</ele><time>2026-05-01T12:36:11.658Z</time></trkpt><trkpt lat="44.373505" lon="11.0300217"><ele>696.4000000000001</ele><time>2026-05-01T12:36:12.658Z</time></trkpt><trkpt lat="44.3735283" lon="11.0301533"><ele>695.8000000000001</ele><time>2026-05-01T12:36:13.659Z</time></trkpt><trkpt lat="44.3735567" lon="11.0302867"><ele>695.2</ele><time>2026-05-01T12:36:14.66Z</time></trkpt><trkpt lat="44.3735917" lon="11.0304167"><ele>694.6</ele><time>2026-05-01T12:36:15.665Z</time></trkpt><trkpt lat="44.37364" lon="11.0305417"><ele>694.0</ele><time>2026-05-01T12:36:16.659Z</time></trkpt><trkpt lat="44.373695" lon="11.0306617"><ele>694.0</ele><time>2026-05-01T12:36:17.663Z</time></trkpt><trkpt lat="44.3737567" lon="11.0307617"><ele>694.0</ele><time>2026-05-01T12:36:18.66Z</time></trkpt><trkpt lat="44.3738233" lon="11.030845"><ele>694.0</ele><time>2026-05-01T12:36:19.665Z</time></trkpt><trkpt lat="44.3738867" lon="11.03092"><ele>694.0</ele><time>2026-05-01T12:36:20.664Z</time></trkpt><trkpt lat="44.3739433" lon="11.031005"><ele>694.0</ele><time>2026-05-01T12:36:21.662Z</time></trkpt><trkpt lat="44.3740017" lon="11.0310817"><ele>694.0</ele><time>2026-05-01T12:36:22.663Z</time></trkpt><trkpt lat="44.3740717" lon="11.0311667"><ele>691.25</ele><time>2026-05-01T12:36:23.665Z</time></trkpt><trkpt lat="44.3741633" lon="11.03126"><ele>688.5</ele><time>2026-05-01T12:36:24.661Z</time></trkpt><trkpt lat="44.374265" lon="11.0313567"><ele>685.75</ele><time>2026-05-01T12:36:25.66Z</time></trkpt><trkpt lat="44.37436" lon="11.031445"><ele>683.0</ele><time>2026-05-01T12:36:26.663Z</time></trkpt><trkpt lat="44.3744483" lon="11.0315217"><ele>683.0</ele><time>2026-05-01T12:36:27.664Z</time></trkpt><trkpt lat="44.3745267" lon="11.0315983"><ele>683.0</ele><time>2026-05-01T12:36:28.657Z</time></trkpt><trkpt lat="44.374605" lon="11.0316767"><ele>683.0</ele><time>2026-05-01T12:36:29.656Z</time></trkpt><trkpt lat="44.3746767" lon="11.0317683"><ele>683.0</ele><time>2026-05-01T12:36:30.662Z</time></trkpt><trkpt lat="44.3747333" lon="11.0318667"><ele>683.0</ele><time>2026-05-01T12:36:31.659Z</time></trkpt><trkpt lat="44.3747767" lon="11.031985"><ele>681.5</ele><time>2026-05-01T12:36:32.661Z</time></trkpt><trkpt lat="44.3748117" lon="11.0321183"><ele>680.0</ele><time>2026-05-01T12:36:33.66Z</time></trkpt><trkpt lat="44.3748383" lon="11.03224"><ele>678.5</ele><time>2026-05-01T12:36:34.662Z</time></trkpt><trkpt lat="44.3748567" lon="11.0323417"><ele>677.0</ele><time>2026-05-01T12:36:35.662Z</time></trkpt><trkpt lat="44.3748883" lon="11.0324333"><ele>675.5</ele><time>2026-05-01T12:36:36.66Z</time></trkpt><trkpt lat="44.3749333" lon="11.032525"><ele>674.0</ele><time>2026-05-01T12:36:37.66Z</time></trkpt><trkpt lat="44.3749783" lon="11.0326083"><ele>674.0</ele><time>2026-05-01T12:36:38.666Z</time></trkpt><trkpt lat="44.375015" lon="11.0326833"><ele>674.0</ele><time>2026-05-01T12:36:39.66Z</time></trkpt><trkpt lat="44.375065" lon="11.03284"><ele>674.0</ele><time>2026-05-01T12:36:41.66Z</time></trkpt><trkpt lat="44.37511" lon="11.03292"><ele>674.0</ele><time>2026-05-01T12:36:42.661Z</time></trkpt><trkpt lat="44.375155" lon="11.03301"><ele>674.0</ele><time>2026-05-01T12:36:43.661Z</time></trkpt><trkpt lat="44.3751933" lon="11.033105"><ele>674.0</ele><time>2026-05-01T12:36:44.661Z</time></trkpt><trkpt lat="44.37523" lon="11.0331933"><ele>674.0</ele><time>2026-05-01T12:36:45.659Z</time></trkpt><trkpt lat="44.37528" lon="11.033275"><ele>674.0</ele><time>2026-05-01T12:36:46.659Z</time></trkpt><trkpt lat="44.3753317" lon="11.0333717"><ele>674.0</ele><time>2026-05-01T12:36:47.663Z</time></trkpt><trkpt lat="44.3753733" lon="11.0334833"><ele>674.0</ele><time>2026-05-01T12:36:48.668Z</time></trkpt><trkpt lat="44.375415" lon="11.0335883"><ele>674.0</ele><time>2026-05-01T12:36:49.661Z</time></trkpt><trkpt lat="44.3754683" lon="11.03369"><ele>674.0</ele><time>2026-05-01T12:36:50.663Z</time></trkpt><trkpt lat="44.3755233" lon="11.0337933"><ele>673.2</ele><time>2026-05-01T12:36:51.66Z</time></trkpt><trkpt lat="44.3755733" lon="11.0339017"><ele>672.4000000000001</ele><time>2026-05-01T12:36:52.661Z</time></trkpt><trkpt lat="44.37562" lon="11.03402"><ele>671.6</ele><time>2026-05-01T12:36:53.665Z</time></trkpt><trkpt lat="44.3756583" lon="11.0341417"><ele>670.8</ele><time>2026-05-01T12:36:54.663Z</time></trkpt><trkpt lat="44.37569" lon="11.0342617"><ele>670.0</ele><time>2026-05-01T12:36:55.663Z</time></trkpt><trkpt lat="44.3757217" lon="11.03437"><ele>669.6666666666667</ele><time>2026-05-01T12:36:56.662Z</time></trkpt><trkpt lat="44.3757567" lon="11.03447"><ele>669.3333333333334</ele><time>2026-05-01T12:36:57.662Z</time></trkpt><trkpt lat="44.375795" lon="11.0345667"><ele>669.0</ele><time>2026-05-01T12:36:58.661Z</time></trkpt><trkpt lat="44.37583" lon="11.034665"><ele>668.6666666666666</ele><time>2026-05-01T12:36:59.661Z</time></trkpt><trkpt lat="44.375865" lon="11.0347733"><ele>668.3333333333333</ele><time>2026-05-01T12:37:00.664Z</time></trkpt><trkpt lat="44.3759033" lon="11.0348917"><ele>668.0</ele><time>2026-05-01T12:37:01.661Z</time></trkpt><trkpt lat="44.3759433" lon="11.0350117"><ele>666.6666666666666</ele><time>2026-05-01T12:37:02.658Z</time></trkpt><trkpt lat="44.3759867" lon="11.0351233"><ele>665.3333333333333</ele><time>2026-05-01T12:37:03.661Z</time></trkpt><trkpt lat="44.3760283" lon="11.0352283"><ele>664.0</ele><time>2026-05-01T12:37:04.662Z</time></trkpt><trkpt lat="44.3760717" lon="11.0353267"><ele>662.6666666666666</ele><time>2026-05-01T12:37:05.661Z</time></trkpt><trkpt lat="44.3761167" lon="11.035425"><ele>661.3333333333334</ele><time>2026-05-01T12:37:06.661Z</time></trkpt><trkpt lat="44.376165" lon="11.0355267"><ele>660.0</ele><time>2026-05-01T12:37:07.663Z</time></trkpt><trkpt lat="44.3762117" lon="11.035625"><ele>660.0</ele><time>2026-05-01T12:37:08.66Z</time></trkpt><trkpt lat="44.3762533" lon="11.0357117"><ele>660.0</ele><time>2026-05-01T12:37:09.66Z</time></trkpt><trkpt lat="44.3762867" lon="11.0357983"><ele>660.0</ele><time>2026-05-01T12:37:10.659Z</time></trkpt><trkpt lat="44.376305" lon="11.035885"><ele>660.0</ele><time>2026-05-01T12:37:11.667Z</time></trkpt><trkpt lat="44.3763033" lon="11.0360217"><ele>660.0</ele><time>2026-05-01T12:37:13.659Z</time></trkpt><trkpt lat="44.376295" lon="11.0361283"><ele>660.0</ele><time>2026-05-01T12:37:16.66Z</time></trkpt><trkpt lat="44.37632" lon="11.0362467"><ele>658.3333333333334</ele><time>2026-05-01T12:37:24.662Z</time></trkpt><trkpt lat="44.3763433" lon="11.0364117"><ele>656.6666666666666</ele><time>2026-05-01T12:37:26.663Z</time></trkpt><trkpt lat="44.3763517" lon="11.0365033"><ele>655.0</ele><time>2026-05-01T12:37:27.666Z</time></trkpt><trkpt lat="44.376355" lon="11.036595"><ele>653.3333333333333</ele><time>2026-05-01T12:37:28.66Z</time></trkpt><trkpt lat="44.37636" lon="11.0366967"><ele>651.6666666666666</ele><time>2026-05-01T12:37:29.664Z</time></trkpt><trkpt lat="44.37636" lon="11.0368017"><ele>650.0</ele><time>2026-05-01T12:37:30.66Z</time></trkpt><trkpt lat="44.3763617" lon="11.036905"><ele>649.8333333333333</ele><time>2026-05-01T12:37:31.663Z</time></trkpt><trkpt lat="44.3763667" lon="11.0370083"><ele>649.6666666666666</ele><time>2026-05-01T12:37:32.661Z</time></trkpt><trkpt lat="44.376375" lon="11.0371133"><ele>649.5</ele><time>2026-05-01T12:37:33.661Z</time></trkpt><trkpt lat="44.37639" lon="11.0372233"><ele>649.3333333333334</ele><time>2026-05-01T12:37:34.662Z</time></trkpt><trkpt lat="44.3764067" lon="11.0373317"><ele>649.1666666666667</ele><time>2026-05-01T12:37:35.658Z</time></trkpt><trkpt lat="44.376425" lon="11.0374283"><ele>649.0</ele><time>2026-05-01T12:37:36.663Z</time></trkpt><trkpt lat="44.376445" lon="11.0375217"><ele>649.0</ele><time>2026-05-01T12:37:37.667Z</time></trkpt><trkpt lat="44.3764617" lon="11.037625"><ele>649.0</ele><time>2026-05-01T12:37:38.661Z</time></trkpt><trkpt lat="44.3764683" lon="11.03774"><ele>649.0</ele><time>2026-05-01T12:37:39.659Z</time></trkpt><trkpt lat="44.376455" lon="11.0378683"><ele>649.0</ele><time>2026-05-01T12:37:40.661Z</time></trkpt><trkpt lat="44.376435" lon="11.03799"><ele>649.0</ele><time>2026-05-01T12:37:41.66Z</time></trkpt><trkpt lat="44.3764167" lon="11.038105"><ele>649.0</ele><time>2026-05-01T12:37:42.659Z</time></trkpt><trkpt lat="44.3763967" lon="11.03821"><ele>649.2857142857142</ele><time>2026-05-01T12:37:43.665Z</time></trkpt><trkpt lat="44.3763667" lon="11.0383033"><ele>649.5714285714286</ele><time>2026-05-01T12:37:44.666Z</time></trkpt><trkpt lat="44.3763317" lon="11.0383883"><ele>649.8571428571429</ele><time>2026-05-01T12:37:45.665Z</time></trkpt><trkpt lat="44.3762933" lon="11.03846"><ele>650.1428571428571</ele><time>2026-05-01T12:37:46.66Z</time></trkpt><trkpt lat="44.3762483" lon="11.0385333"><ele>650.4285714285714</ele><time>2026-05-01T12:37:47.663Z</time></trkpt><trkpt lat="44.3762" lon="11.0386133"><ele>650.7142857142857</ele><time>2026-05-01T12:37:48.662Z</time></trkpt><trkpt lat="44.3761467" lon="11.0387033"><ele>651.0</ele><time>2026-05-01T12:37:49.662Z</time></trkpt><trkpt lat="44.3760933" lon="11.0387983"><ele>648.5999999999999</ele><time>2026-05-01T12:37:50.664Z</time></trkpt><trkpt lat="44.3760383" lon="11.0388967"><ele>646.1999999999999</ele><time>2026-05-01T12:37:51.663Z</time></trkpt><trkpt lat="44.37598" lon="11.0389983"><ele>643.8</ele><time>2026-05-01T12:37:52.66Z</time></trkpt><trkpt lat="44.3759217" lon="11.0391067"><ele>641.4</ele><time>2026-05-01T12:37:53.662Z</time></trkpt><trkpt lat="44.375875" lon="11.0392167"><ele>639.0</ele><time>2026-05-01T12:37:54.66Z</time></trkpt><trkpt lat="44.3758367" lon="11.039325"><ele>638.5</ele><time>2026-05-01T12:37:55.655Z</time></trkpt><trkpt lat="44.3757983" lon="11.03942"><ele>638.0</ele><time>2026-05-01T12:37:56.661Z</time></trkpt><trkpt lat="44.3757483" lon="11.0394917"><ele>637.5</ele><time>2026-05-01T12:37:57.662Z</time></trkpt><trkpt lat="44.3756783" lon="11.0395417"><ele>637.0</ele><time>2026-05-01T12:37:58.657Z</time></trkpt><trkpt lat="44.3755917" lon="11.03958"><ele>636.5</ele><time>2026-05-01T12:37:59.661Z</time></trkpt><trkpt lat="44.3755033" lon="11.0396133"><ele>636.0</ele><time>2026-05-01T12:38:00.661Z</time></trkpt><trkpt lat="44.3754317" lon="11.0396633"><ele>633.8333333333334</ele><time>2026-05-01T12:38:01.661Z</time></trkpt><trkpt lat="44.375375" lon="11.039725"><ele>631.6666666666666</ele><time>2026-05-01T12:38:02.661Z</time></trkpt><trkpt lat="44.3753283" lon="11.0398067"><ele>629.5</ele><time>2026-05-01T12:38:03.66Z</time></trkpt><trkpt lat="44.3752933" lon="11.0399083"><ele>627.3333333333333</ele><time>2026-05-01T12:38:04.658Z</time></trkpt><trkpt lat="44.3752583" lon="11.040025"><ele>625.1666666666666</ele><time>2026-05-01T12:38:05.656Z</time></trkpt><trkpt lat="44.3752183" lon="11.0401483"><ele>623.0</ele><time>2026-05-01T12:38:06.658Z</time></trkpt><trkpt lat="44.37518" lon="11.0402633"><ele>622.8333333333333</ele><time>2026-05-01T12:38:07.66Z</time></trkpt><trkpt lat="44.3751383" lon="11.0403717"><ele>622.6666666666666</ele><time>2026-05-01T12:38:08.663Z</time></trkpt><trkpt lat="44.3750983" lon="11.0404733"><ele>622.5</ele><time>2026-05-01T12:38:09.663Z</time></trkpt><trkpt lat="44.3750433" lon="11.0405583"><ele>622.3333333333334</ele><time>2026-05-01T12:38:10.661Z</time></trkpt><trkpt lat="44.3749767" lon="11.0406333"><ele>622.1666666666667</ele><time>2026-05-01T12:38:11.664Z</time></trkpt><trkpt lat="44.3749017" lon="11.0407017"><ele>622.0</ele><time>2026-05-01T12:38:12.663Z</time></trkpt><trkpt lat="44.3748267" lon="11.0407767"><ele>621.0</ele><time>2026-05-01T12:38:13.662Z</time></trkpt><trkpt lat="44.3747617" lon="11.0408783"><ele>620.0</ele><time>2026-05-01T12:38:14.661Z</time></trkpt><trkpt lat="44.3747067" lon="11.04098"><ele>619.0</ele><time>2026-05-01T12:38:15.658Z</time></trkpt><trkpt lat="44.3746633" lon="11.0410583"><ele>618.0</ele><time>2026-05-01T12:38:16.66Z</time></trkpt><trkpt lat="44.3746117" lon="11.0411217"><ele>617.0</ele><time>2026-05-01T12:38:18.663Z</time></trkpt><trkpt lat="44.3745467" lon="11.0411"><ele>616.0</ele><time>2026-05-01T12:38:47.66Z</time></trkpt><trkpt lat="44.3744317" lon="11.041095"><ele>614.1666666666667</ele><time>2026-05-01T12:38:49.658Z</time></trkpt><trkpt lat="44.3743617" lon="11.04109"><ele>612.3333333333334</ele><time>2026-05-01T12:38:50.66Z</time></trkpt><trkpt lat="44.3742883" lon="11.0410767"><ele>610.5</ele><time>2026-05-01T12:38:51.662Z</time></trkpt><trkpt lat="44.3742133" lon="11.04106"><ele>608.6666666666666</ele><time>2026-05-01T12:38:52.665Z</time></trkpt><trkpt lat="44.374135" lon="11.0410333"><ele>606.8333333333333</ele><time>2026-05-01T12:38:53.659Z</time></trkpt><trkpt lat="44.374065" lon="11.0409967"><ele>605.0</ele><time>2026-05-01T12:38:54.66Z</time></trkpt><trkpt lat="44.3739933" lon="11.0409533"><ele>605.0</ele><time>2026-05-01T12:38:55.663Z</time></trkpt><trkpt lat="44.37393" lon="11.04092"><ele>605.0</ele><time>2026-05-01T12:38:56.66Z</time></trkpt><trkpt lat="44.373835" lon="11.040925"><ele>605.0</ele><time>2026-05-01T12:38:58.66Z</time></trkpt><trkpt lat="44.373765" lon="11.0410683"><ele>605.0</ele><time>2026-05-01T12:39:00.661Z</time></trkpt><trkpt lat="44.3737367" lon="11.04116"><ele>605.0</ele><time>2026-05-01T12:39:01.661Z</time></trkpt><trkpt lat="44.3737183" lon="11.0412533"><ele>605.0</ele><time>2026-05-01T12:39:02.663Z</time></trkpt><trkpt lat="44.37371" lon="11.041365"><ele>602.3333333333333</ele><time>2026-05-01T12:39:03.662Z</time></trkpt><trkpt lat="44.3737083" lon="11.041485"><ele>599.6666666666666</ele><time>2026-05-01T12:39:04.66Z</time></trkpt><trkpt lat="44.373705" lon="11.041605"><ele>597.0</ele><time>2026-05-01T12:39:05.662Z</time></trkpt><trkpt lat="44.3736933" lon="11.0417217"><ele>594.3333333333334</ele><time>2026-05-01T12:39:06.662Z</time></trkpt><trkpt lat="44.373675" lon="11.0418217"><ele>591.6666666666667</ele><time>2026-05-01T12:39:07.662Z</time></trkpt><trkpt lat="44.3736367" lon="11.041925"><ele>589.0</ele><time>2026-05-01T12:39:08.663Z</time></trkpt><trkpt lat="44.3735883" lon="11.0420283"><ele>588.5</ele><time>2026-05-01T12:39:09.664Z</time></trkpt><trkpt lat="44.37354" lon="11.0421267"><ele>588.0</ele><time>2026-05-01T12:39:10.659Z</time></trkpt><trkpt lat="44.3734967" lon="11.042225"><ele>587.5</ele><time>2026-05-01T12:39:11.66Z</time></trkpt><trkpt lat="44.3734667" lon="11.042325"><ele>587.0</ele><time>2026-05-01T12:39:12.659Z</time></trkpt><trkpt lat="44.3734367" lon="11.04243"><ele>586.5</ele><time>2026-05-01T12:39:13.66Z</time></trkpt><trkpt lat="44.3734017" lon="11.04253"><ele>586.0</ele><time>2026-05-01T12:39:14.659Z</time></trkpt><trkpt lat="44.373365" lon="11.042625"><ele>584.9999999999999</ele><time>2026-05-01T12:39:15.659Z</time></trkpt><trkpt lat="44.3733283" lon="11.0427167"><ele>584.0</ele><time>2026-05-01T12:39:16.658Z</time></trkpt><trkpt lat="44.373295" lon="11.042805"><ele>583.0</ele><time>2026-05-01T12:39:17.658Z</time></trkpt><trkpt lat="44.3732767" lon="11.04289"><ele>582.0</ele><time>2026-05-01T12:39:18.661Z</time></trkpt><trkpt lat="44.373275" lon="11.0430233"><ele>581.0</ele><time>2026-05-01T12:39:20.662Z</time></trkpt><trkpt lat="44.3732883" lon="11.043115"><ele>579.9999999999999</ele><time>2026-05-01T12:39:22.66Z</time></trkpt><trkpt lat="44.373255" lon="11.0432083"><ele>579.0</ele><time>2026-05-01T12:39:37.658Z</time></trkpt><trkpt lat="44.373225" lon="11.0432967"><ele>577.8333333333334</ele><time>2026-05-01T12:39:39.659Z</time></trkpt><trkpt lat="44.37318" lon="11.0434117"><ele>576.6666666666666</ele><time>2026-05-01T12:39:41.659Z</time></trkpt><trkpt lat="44.3731217" lon="11.0435483"><ele>575.5</ele><time>2026-05-01T12:39:43.66Z</time></trkpt><trkpt lat="44.3730917" lon="11.04364"><ele>574.3333333333333</ele><time>2026-05-01T12:39:44.661Z</time></trkpt><trkpt lat="44.3730667" lon="11.0437383"><ele>573.1666666666666</ele><time>2026-05-01T12:39:45.659Z</time></trkpt><trkpt lat="44.3730417" lon="11.0438383"><ele>572.0</ele><time>2026-05-01T12:39:46.66Z</time></trkpt><trkpt lat="44.3730183" lon="11.0439367"><ele>569.1666666666666</ele><time>2026-05-01T12:39:47.664Z</time></trkpt><trkpt lat="44.372995" lon="11.0440367"><ele>566.3333333333333</ele><time>2026-05-01T12:39:48.658Z</time></trkpt><trkpt lat="44.37297" lon="11.0441333"><ele>563.5</ele><time>2026-05-01T12:39:49.662Z</time></trkpt><trkpt lat="44.3729417" lon="11.0442217"><ele>560.6666666666666</ele><time>2026-05-01T12:39:50.658Z</time></trkpt><trkpt lat="44.3729117" lon="11.0443"><ele>557.8333333333334</ele><time>2026-05-01T12:39:51.664Z</time></trkpt><trkpt lat="44.372845" lon="11.0444267"><ele>555.0</ele><time>2026-05-01T12:39:53.661Z</time></trkpt><trkpt lat="44.3727583" lon="11.0445267"><ele>553.3333333333334</ele><time>2026-05-01T12:39:55.665Z</time></trkpt><trkpt lat="44.37265" lon="11.0446233"><ele>551.6666666666666</ele><time>2026-05-01T12:39:57.661Z</time></trkpt><trkpt lat="44.3725983" lon="11.0446817"><ele>550.0</ele><time>2026-05-01T12:39:58.661Z</time></trkpt><trkpt lat="44.372555" lon="11.0447517"><ele>548.3333333333333</ele><time>2026-05-01T12:39:59.658Z</time></trkpt><trkpt lat="44.3725233" lon="11.0448283"><ele>546.6666666666666</ele><time>2026-05-01T12:40:00.661Z</time></trkpt><trkpt lat="44.3724783" lon="11.0449917"><ele>545.0</ele><time>2026-05-01T12:40:02.66Z</time></trkpt><trkpt lat="44.3724483" lon="11.045145"><ele>542.6</ele><time>2026-05-01T12:40:04.661Z</time></trkpt><trkpt lat="44.372425" lon="11.0452817"><ele>540.2</ele><time>2026-05-01T12:40:06.665Z</time></trkpt><trkpt lat="44.3724067" lon="11.045395"><ele>537.8</ele><time>2026-05-01T12:40:08.661Z</time></trkpt><trkpt lat="44.37238" lon="11.04551"><ele>535.4</ele><time>2026-05-01T12:40:10.654Z</time></trkpt><trkpt lat="44.3723467" lon="11.0456317"><ele>533.0</ele><time>2026-05-01T12:40:12.658Z</time></trkpt><trkpt lat="44.372315" lon="11.045745"><ele>531.0</ele><time>2026-05-01T12:40:14.659Z</time></trkpt><trkpt lat="44.3722817" lon="11.0458517"><ele>529.0</ele><time>2026-05-01T12:40:16.657Z</time></trkpt><trkpt lat="44.3722517" lon="11.045945"><ele>527.0</ele><time>2026-05-01T12:40:18.66Z</time></trkpt><trkpt lat="44.372215" lon="11.04605"><ele>525.0</ele><time>2026-05-01T12:40:20.662Z</time></trkpt><trkpt lat="44.3721817" lon="11.0461433"><ele>523.0</ele><time>2026-05-01T12:40:22.659Z</time></trkpt><trkpt lat="44.3721533" lon="11.046235"><ele>521.0</ele><time>2026-05-01T12:40:24.661Z</time></trkpt><trkpt lat="44.3721183" lon="11.0463333"><ele>517.4</ele><time>2026-05-01T12:40:26.66Z</time></trkpt><trkpt lat="44.3720767" lon="11.0464483"><ele>513.8</ele><time>2026-05-01T12:40:28.66Z</time></trkpt><trkpt lat="44.3720367" lon="11.046565"><ele>510.19999999999993</ele><time>2026-05-01T12:40:30.661Z</time></trkpt><trkpt lat="44.3719867" lon="11.04669"><ele>506.59999999999997</ele><time>2026-05-01T12:40:32.66Z</time></trkpt><trkpt lat="44.3718917" lon="11.04677"><ele>503.0</ele><time>2026-05-01T12:40:34.661Z</time></trkpt><trkpt lat="44.3718067" lon="11.0468217"><ele>503.0</ele><time>2026-05-01T12:40:36.662Z</time></trkpt><trkpt lat="44.371705" lon="11.0467683"><ele>502.99999999999994</ele><time>2026-05-01T12:40:55.66Z</time></trkpt><trkpt lat="44.3716917" lon="11.0466767"><ele>502.99999999999994</ele><time>2026-05-01T12:40:56.661Z</time></trkpt><trkpt lat="44.3716783" lon="11.04657"><ele>503.0</ele><time>2026-05-01T12:40:57.66Z</time></trkpt><trkpt lat="44.3716533" lon="11.046445"><ele>503.0</ele><time>2026-05-01T12:40:58.661Z</time></trkpt><trkpt lat="44.3716117" lon="11.0463117"><ele>503.0</ele><time>2026-05-01T12:40:59.659Z</time></trkpt><trkpt lat="44.3715633" lon="11.0461717"><ele>502.99999999999994</ele><time>2026-05-01T12:41:00.663Z</time></trkpt><trkpt lat="44.3715067" lon="11.0460283"><ele>502.99999999999994</ele><time>2026-05-01T12:41:01.666Z</time></trkpt><trkpt lat="44.37145" lon="11.0458967"><ele>503.0</ele><time>2026-05-01T12:41:02.662Z</time></trkpt><trkpt lat="44.3713933" lon="11.045775"><ele>503.0</ele><time>2026-05-01T12:41:03.659Z</time></trkpt><trkpt lat="44.37134" lon="11.04566"><ele>500.0</ele><time>2026-05-01T12:41:04.66Z</time></trkpt><trkpt lat="44.3712883" lon="11.04554"><ele>496.99999999999994</ele><time>2026-05-01T12:41:05.66Z</time></trkpt><trkpt lat="44.37124" lon="11.04541"><ele>493.99999999999994</ele><time>2026-05-01T12:41:06.662Z</time></trkpt><trkpt lat="44.3711917" lon="11.0452733"><ele>491.0</ele><time>2026-05-01T12:41:07.66Z</time></trkpt><trkpt lat="44.3711333" lon="11.04514"><ele>488.0</ele><time>2026-05-01T12:41:08.661Z</time></trkpt><trkpt lat="44.3710683" lon="11.04502"><ele>489.49999999999994</ele><time>2026-05-01T12:41:09.662Z</time></trkpt><trkpt lat="44.3710083" lon="11.0449183"><ele>491.0</ele><time>2026-05-01T12:41:10.66Z</time></trkpt><trkpt lat="44.3709483" lon="11.0448133"><ele>492.5</ele><time>2026-05-01T12:41:11.659Z</time></trkpt><trkpt lat="44.3708983" lon="11.0447233"><ele>494.0</ele><time>2026-05-01T12:41:12.66Z</time></trkpt><trkpt lat="44.3708517" lon="11.04463"><ele>495.49999999999994</ele><time>2026-05-01T12:41:13.664Z</time></trkpt><trkpt lat="44.3708083" lon="11.0445217"><ele>497.0</ele><time>2026-05-01T12:41:14.662Z</time></trkpt><trkpt lat="44.370765" lon="11.0443967"><ele>497.0</ele><time>2026-05-01T12:41:15.663Z</time></trkpt><trkpt lat="44.37073" lon="11.044255"><ele>497.00000000000006</ele><time>2026-05-01T12:41:16.668Z</time></trkpt><trkpt lat="44.3706817" lon="11.04412"><ele>497.00000000000006</ele><time>2026-05-01T12:41:17.66Z</time></trkpt><trkpt lat="44.3706217" lon="11.043995"><ele>497.0</ele><time>2026-05-01T12:41:18.665Z</time></trkpt><trkpt lat="44.370555" lon="11.0438967"><ele>497.0</ele><time>2026-05-01T12:41:19.66Z</time></trkpt><trkpt lat="44.3704733" lon="11.04381"><ele>494.8</ele><time>2026-05-01T12:41:20.661Z</time></trkpt><trkpt lat="44.37039" lon="11.0437417"><ele>492.6</ele><time>2026-05-01T12:41:21.664Z</time></trkpt><trkpt lat="44.37031" lon="11.0436717"><ele>490.40000000000003</ele><time>2026-05-01T12:41:22.664Z</time></trkpt><trkpt lat="44.370235" lon="11.0436117"><ele>488.20000000000005</ele><time>2026-05-01T12:41:23.664Z</time></trkpt><trkpt lat="44.370155" lon="11.0435483"><ele>486.0</ele><time>2026-05-01T12:41:24.661Z</time></trkpt><trkpt lat="44.37006" lon="11.0434883"><ele>486.0</ele><time>2026-05-01T12:41:25.666Z</time></trkpt><trkpt lat="44.3699617" lon="11.043445"><ele>486.0</ele><time>2026-05-01T12:41:26.662Z</time></trkpt><trkpt lat="44.369865" lon="11.0434183"><ele>486.0</ele><time>2026-05-01T12:41:27.664Z</time></trkpt><trkpt lat="44.3697633" lon="11.043395"><ele>486.0</ele><time>2026-05-01T12:41:28.665Z</time></trkpt><trkpt lat="44.3696717" lon="11.0433783"><ele>486.0</ele><time>2026-05-01T12:41:29.66Z</time></trkpt><trkpt lat="44.3695933" lon="11.043365"><ele>484.5</ele><time>2026-05-01T12:41:30.659Z</time></trkpt><trkpt lat="44.369525" lon="11.0433467"><ele>483.0</ele><time>2026-05-01T12:41:31.666Z</time></trkpt><trkpt lat="44.3694267" lon="11.0432783"><ele>481.5</ele><time>2026-05-01T12:41:33.66Z</time></trkpt><trkpt lat="44.369385" lon="11.0432083"><ele>480.0</ele><time>2026-05-01T12:41:34.663Z</time></trkpt><trkpt lat="44.3693583" lon="11.0431067"><ele>478.5</ele><time>2026-05-01T12:41:35.662Z</time></trkpt><trkpt lat="44.3693483" lon="11.0429867"><ele>477.0</ele><time>2026-05-01T12:41:36.659Z</time></trkpt><trkpt lat="44.369345" lon="11.042855"><ele>477.0</ele><time>2026-05-01T12:41:37.66Z</time></trkpt><trkpt lat="44.36935" lon="11.0427133"><ele>477.00000000000006</ele><time>2026-05-01T12:41:38.663Z</time></trkpt><trkpt lat="44.3693617" lon="11.0425617"><ele>477.00000000000006</ele><time>2026-05-01T12:41:39.661Z</time></trkpt><trkpt lat="44.3693717" lon="11.0424067"><ele>477.0</ele><time>2026-05-01T12:41:40.662Z</time></trkpt><trkpt lat="44.3693717" lon="11.0422533"><ele>477.0</ele><time>2026-05-01T12:41:41.663Z</time></trkpt><trkpt lat="44.3693583" lon="11.04212"><ele>477.0</ele><time>2026-05-01T12:41:42.661Z</time></trkpt><trkpt lat="44.3693383" lon="11.0420083"><ele>477.0</ele><time>2026-05-01T12:41:43.661Z</time></trkpt><trkpt lat="44.369325" lon="11.0419083"><ele>477.0</ele><time>2026-05-01T12:41:44.663Z</time></trkpt><trkpt lat="44.3693033" lon="11.0418183"><ele>477.0</ele><time>2026-05-01T12:41:45.661Z</time></trkpt><trkpt lat="44.3692367" lon="11.0416967"><ele>477.0</ele><time>2026-05-01T12:41:47.659Z</time></trkpt><trkpt lat="44.3691483" lon="11.0417017"><ele>477.0</ele><time>2026-05-01T12:41:49.666Z</time></trkpt><trkpt lat="44.3691133" lon="11.0418617"><ele>477.0</ele><time>2026-05-01T12:41:51.661Z</time></trkpt><trkpt lat="44.369105" lon="11.04196"><ele>477.0</ele><time>2026-05-01T12:41:52.663Z</time></trkpt><trkpt lat="44.3691017" lon="11.0420617"><ele>477.0</ele><time>2026-05-01T12:41:53.662Z</time></trkpt><trkpt lat="44.3690717" lon="11.0422033"><ele>477.0</ele><time>2026-05-01T12:41:55.663Z</time></trkpt><trkpt lat="44.3689833" lon="11.0422133"><ele>477.0</ele><time>2026-05-01T12:41:57.66Z</time></trkpt><trkpt lat="44.3689133" lon="11.042135"><ele>477.0</ele><time>2026-05-01T12:41:58.66Z</time></trkpt><trkpt lat="44.368835" lon="11.042035"><ele>474.0</ele><time>2026-05-01T12:41:59.663Z</time></trkpt><trkpt lat="44.3687767" lon="11.0419283"><ele>471.00000000000006</ele><time>2026-05-01T12:42:00.663Z</time></trkpt><trkpt lat="44.3687367" lon="11.0418"><ele>468.00000000000006</ele><time>2026-05-01T12:42:01.663Z</time></trkpt><trkpt lat="44.368705" lon="11.04167"><ele>465.0</ele><time>2026-05-01T12:42:02.661Z</time></trkpt><trkpt lat="44.368665" lon="11.0415433"><ele>462.0</ele><time>2026-05-01T12:42:03.661Z</time></trkpt><trkpt lat="44.368625" lon="11.0414217"><ele>462.0</ele><time>2026-05-01T12:42:04.659Z</time></trkpt><trkpt lat="44.3685867" lon="11.0413117"><ele>462.0</ele><time>2026-05-01T12:42:05.659Z</time></trkpt><trkpt lat="44.3685433" lon="11.0412183"><ele>462.0</ele><time>2026-05-01T12:42:06.664Z</time></trkpt><trkpt lat="44.3685033" lon="11.04114"><ele>462.0</ele><time>2026-05-01T12:42:07.662Z</time></trkpt><trkpt lat="44.3684567" lon="11.0410517"><ele>462.0</ele><time>2026-05-01T12:42:08.664Z</time></trkpt><trkpt lat="44.3684067" lon="11.0409483"><ele>462.0</ele><time>2026-05-01T12:42:09.662Z</time></trkpt><trkpt lat="44.36836" lon="11.040825"><ele>463.40000000000003</ele><time>2026-05-01T12:42:10.664Z</time></trkpt><trkpt lat="44.3683117" lon="11.0406517"><ele>464.80000000000007</ele><time>2026-05-01T12:42:11.66Z</time></trkpt><trkpt lat="44.36826" lon="11.04051"><ele>466.2</ele><time>2026-05-01T12:42:12.662Z</time></trkpt><trkpt lat="44.3682083" lon="11.0403817"><ele>467.6</ele><time>2026-05-01T12:42:13.662Z</time></trkpt><trkpt lat="44.368175" lon="11.040255"><ele>469.0</ele><time>2026-05-01T12:42:14.663Z</time></trkpt><trkpt lat="44.36816" lon="11.040135"><ele>469.00000000000006</ele><time>2026-05-01T12:42:15.662Z</time></trkpt><trkpt lat="44.3681683" lon="11.0400217"><ele>469.0</ele><time>2026-05-01T12:42:16.66Z</time></trkpt><trkpt lat="44.3681933" lon="11.03991"><ele>469.0</ele><time>2026-05-01T12:42:17.66Z</time></trkpt><trkpt lat="44.368245" lon="11.0398017"><ele>469.0</ele><time>2026-05-01T12:42:18.662Z</time></trkpt><trkpt lat="44.3682833" lon="11.0396917"><ele>469.00000000000006</ele><time>2026-05-01T12:42:19.66Z</time></trkpt><trkpt lat="44.3683033" lon="11.0395733"><ele>469.0</ele><time>2026-05-01T12:42:20.66Z</time></trkpt><trkpt lat="44.3683067" lon="11.0394567"><ele>469.6</ele><time>2026-05-01T12:42:21.658Z</time></trkpt><trkpt lat="44.3682683" lon="11.0393367"><ele>470.2</ele><time>2026-05-01T12:42:22.661Z</time></trkpt><trkpt lat="44.3682167" lon="11.0392267"><ele>470.80000000000007</ele><time>2026-05-01T12:42:23.663Z</time></trkpt><trkpt lat="44.3681567" lon="11.0391267"><ele>471.40000000000003</ele><time>2026-05-01T12:42:24.659Z</time></trkpt><trkpt lat="44.3681067" lon="11.039025"><ele>472.0</ele><time>2026-05-01T12:42:25.66Z</time></trkpt><trkpt lat="44.3680667" lon="11.0389133"><ele>471.75</ele><time>2026-05-01T12:42:26.661Z</time></trkpt><trkpt lat="44.3680383" lon="11.03879"><ele>471.5</ele><time>2026-05-01T12:42:27.66Z</time></trkpt><trkpt lat="44.3680133" lon="11.038635"><ele>471.25</ele><time>2026-05-01T12:42:28.661Z</time></trkpt><trkpt lat="44.36797" lon="11.0384633"><ele>471.0</ele><time>2026-05-01T12:42:29.662Z</time></trkpt><trkpt lat="44.3679267" lon="11.0382817"><ele>471.0</ele><time>2026-05-01T12:42:30.662Z</time></trkpt><trkpt lat="44.3678817" lon="11.0381083"><ele>471.0</ele><time>2026-05-01T12:42:31.662Z</time></trkpt><trkpt lat="44.3678417" lon="11.0379517"><ele>471.0</ele><time>2026-05-01T12:42:32.663Z</time></trkpt><trkpt lat="44.3678183" lon="11.03781"><ele>471.0</ele><time>2026-05-01T12:42:33.662Z</time></trkpt><trkpt lat="44.3678183" lon="11.0376783"><ele>471.0</ele><time>2026-05-01T12:42:34.664Z</time></trkpt><trkpt lat="44.367835" lon="11.0375583"><ele>471.0</ele><time>2026-05-01T12:42:35.656Z</time></trkpt><trkpt lat="44.36789" lon="11.0374717"><ele>471.0</ele><time>2026-05-01T12:42:36.664Z</time></trkpt><trkpt lat="44.3679683" lon="11.03741"><ele>471.0</ele><time>2026-05-01T12:42:37.661Z</time></trkpt><trkpt lat="44.3680433" lon="11.0373617"><ele>471.0</ele><time>2026-05-01T12:42:38.663Z</time></trkpt><trkpt lat="44.3681083" lon="11.0373017"><ele>471.0</ele><time>2026-05-01T12:42:39.662Z</time></trkpt><trkpt lat="44.36815" lon="11.0372183"><ele>471.0</ele><time>2026-05-01T12:42:40.659Z</time></trkpt><trkpt lat="44.3681617" lon="11.0371117"><ele>477.25</ele><time>2026-05-01T12:42:41.661Z</time></trkpt><trkpt lat="44.3681417" lon="11.0369833"><ele>483.5</ele><time>2026-05-01T12:42:42.66Z</time></trkpt><trkpt lat="44.3680967" lon="11.03684"><ele>489.75</ele><time>2026-05-01T12:42:43.662Z</time></trkpt><trkpt lat="44.368035" lon="11.0366867"><ele>496.0</ele><time>2026-05-01T12:42:44.662Z</time></trkpt><trkpt lat="44.3679767" lon="11.0365267"><ele>496.0</ele><time>2026-05-01T12:42:45.659Z</time></trkpt><trkpt lat="44.36792" lon="11.0363567"><ele>496.0</ele><time>2026-05-01T12:42:46.66Z</time></trkpt><trkpt lat="44.3678667" lon="11.036175"><ele>496.0</ele><time>2026-05-01T12:42:47.659Z</time></trkpt><trkpt lat="44.36782" lon="11.0360083"><ele>496.0</ele><time>2026-05-01T12:42:48.658Z</time></trkpt><trkpt lat="44.3677833" lon="11.0358667"><ele>496.83333333333337</ele><time>2026-05-01T12:42:49.659Z</time></trkpt><trkpt lat="44.3677583" lon="11.0357483"><ele>497.6666666666667</ele><time>2026-05-01T12:42:50.66Z</time></trkpt><trkpt lat="44.3677433" lon="11.0356483"><ele>498.5</ele><time>2026-05-01T12:42:51.661Z</time></trkpt><trkpt lat="44.36775" lon="11.0355583"><ele>499.33333333333337</ele><time>2026-05-01T12:42:52.661Z</time></trkpt><trkpt lat="44.367805" lon="11.0355133"><ele>500.1666666666667</ele><time>2026-05-01T12:42:53.659Z</time></trkpt><trkpt lat="44.3679417" lon="11.0354567"><ele>501.0</ele><time>2026-05-01T12:42:55.662Z</time></trkpt><trkpt lat="44.368045" lon="11.0354483"><ele>505.5</ele><time>2026-05-01T12:42:56.66Z</time></trkpt><trkpt lat="44.3681683" lon="11.0354367"><ele>510.0</ele><time>2026-05-01T12:42:57.661Z</time></trkpt><trkpt lat="44.3683" lon="11.03543"><ele>514.5</ele><time>2026-05-01T12:42:58.661Z</time></trkpt><trkpt lat="44.3684333" lon="11.03542"><ele>519.0</ele><time>2026-05-01T12:42:59.662Z</time></trkpt><trkpt lat="44.3685733" lon="11.0354083"><ele>519.0</ele><time>2026-05-01T12:43:00.66Z</time></trkpt><trkpt lat="44.3687067" lon="11.0353983"><ele>519.0</ele><time>2026-05-01T12:43:01.66Z</time></trkpt><trkpt lat="44.3688283" lon="11.0353867"><ele>519.0</ele><time>2026-05-01T12:43:02.662Z</time></trkpt><trkpt lat="44.3689417" lon="11.0353883"><ele>519.0</ele><time>2026-05-01T12:43:03.661Z</time></trkpt><trkpt lat="44.369045" lon="11.0354083"><ele>522.0</ele><time>2026-05-01T12:43:04.663Z</time></trkpt><trkpt lat="44.3691383" lon="11.03547"><ele>525.0</ele><time>2026-05-01T12:43:05.661Z</time></trkpt><trkpt lat="44.3692167" lon="11.03554"><ele>528.0</ele><time>2026-05-01T12:43:06.665Z</time></trkpt><trkpt lat="44.3692833" lon="11.0355983"><ele>531.0</ele><time>2026-05-01T12:43:07.666Z</time></trkpt><trkpt lat="44.3693433" lon="11.035625"><ele>534.0</ele><time>2026-05-01T12:43:08.668Z</time></trkpt><trkpt lat="44.369415" lon="11.0355333"><ele>537.0</ele><time>2026-05-01T12:43:10.662Z</time></trkpt><trkpt lat="44.3694033" lon="11.0353067"><ele>537.0</ele><time>2026-05-01T12:43:12.659Z</time></trkpt><trkpt lat="44.3693717" lon="11.0351567"><ele>537.0</ele><time>2026-05-01T12:43:13.667Z</time></trkpt><trkpt lat="44.3693417" lon="11.0350117"><ele>537.0</ele><time>2026-05-01T12:43:14.662Z</time></trkpt><trkpt lat="44.3693083" lon="11.0348833"><ele>537.0</ele><time>2026-05-01T12:43:15.658Z</time></trkpt><trkpt lat="44.369275" lon="11.0347667"><ele>537.0</ele><time>2026-05-01T12:43:16.659Z</time></trkpt><trkpt lat="44.369245" lon="11.0346717"><ele>539.2</ele><time>2026-05-01T12:43:17.662Z</time></trkpt><trkpt lat="44.3692333" lon="11.0345133"><ele>541.4000000000001</ele><time>2026-05-01T12:43:19.662Z</time></trkpt><trkpt lat="44.3693217" lon="11.03443"><ele>543.5999999999999</ele><time>2026-05-01T12:43:21.66Z</time></trkpt><trkpt lat="44.369395" lon="11.0344383"><ele>545.8</ele><time>2026-05-01T12:43:22.658Z</time></trkpt><trkpt lat="44.3694867" lon="11.034475"><ele>548.0</ele><time>2026-05-01T12:43:23.658Z</time></trkpt><trkpt lat="44.3695967" lon="11.0345283"><ele>553.75</ele><time>2026-05-01T12:43:24.658Z</time></trkpt><trkpt lat="44.3697183" lon="11.0345783"><ele>559.5</ele><time>2026-05-01T12:43:25.659Z</time></trkpt><trkpt lat="44.36985" lon="11.034625"><ele>565.25</ele><time>2026-05-01T12:43:26.66Z</time></trkpt><trkpt lat="44.369985" lon="11.03468"><ele>571.0</ele><time>2026-05-01T12:43:27.661Z</time></trkpt><trkpt lat="44.3701117" lon="11.0347483"><ele>571.0</ele><time>2026-05-01T12:43:28.661Z</time></trkpt><trkpt lat="44.3702133" lon="11.0348217"><ele>571.0</ele><time>2026-05-01T12:43:29.66Z</time></trkpt><trkpt lat="44.3702983" lon="11.0349083"><ele>571.0</ele><time>2026-05-01T12:43:30.665Z</time></trkpt><trkpt lat="44.370375" lon="11.0350117"><ele>571.0</ele><time>2026-05-01T12:43:31.66Z</time></trkpt><trkpt lat="44.370445" lon="11.0351383"><ele>571.0</ele><time>2026-05-01T12:43:32.668Z</time></trkpt><trkpt lat="44.3705167" lon="11.0352867"><ele>573.25</ele><time>2026-05-01T12:43:33.665Z</time></trkpt><trkpt lat="44.37059" lon="11.035425"><ele>575.5</ele><time>2026-05-01T12:43:34.668Z</time></trkpt><trkpt lat="44.370665" lon="11.0355617"><ele>577.75</ele><time>2026-05-01T12:43:35.659Z</time></trkpt><trkpt lat="44.3707417" lon="11.03568"><ele>580.0</ele><time>2026-05-01T12:43:36.664Z</time></trkpt><trkpt lat="44.3708117" lon="11.03578"><ele>579.1666666666667</ele><time>2026-05-01T12:43:37.667Z</time></trkpt><trkpt lat="44.37088" lon="11.03586"><ele>578.3333333333334</ele><time>2026-05-01T12:43:38.663Z</time></trkpt><trkpt lat="44.37095" lon="11.0359117"><ele>577.5</ele><time>2026-05-01T12:43:39.661Z</time></trkpt><trkpt lat="44.3710233" lon="11.0359467"><ele>576.6666666666666</ele><time>2026-05-01T12:43:40.665Z</time></trkpt><trkpt lat="44.371085" lon="11.03597"><ele>575.8333333333333</ele><time>2026-05-01T12:43:41.662Z</time></trkpt><trkpt lat="44.371155" lon="11.0359967"><ele>575.0</ele><time>2026-05-01T12:43:42.66Z</time></trkpt><trkpt lat="44.3712333" lon="11.0360383"><ele>575.0</ele><time>2026-05-01T12:43:43.663Z</time></trkpt><trkpt lat="44.3713217" lon="11.0360783"><ele>575.0</ele><time>2026-05-01T12:43:44.665Z</time></trkpt><trkpt lat="44.3714017" lon="11.0361233"><ele>575.0</ele><time>2026-05-01T12:43:45.66Z</time></trkpt><trkpt lat="44.371505" lon="11.0361"><ele>575.0</ele><time>2026-05-01T12:43:47.659Z</time></trkpt><trkpt lat="44.3715083" lon="11.0359317"><ele>575.0</ele><time>2026-05-01T12:43:49.657Z</time></trkpt><trkpt lat="44.3714767" lon="11.03582"><ele>582.75</ele><time>2026-05-01T12:43:50.668Z</time></trkpt><trkpt lat="44.3714417" lon="11.0357"><ele>590.5</ele><time>2026-05-01T12:43:51.66Z</time></trkpt><trkpt lat="44.3714183" lon="11.0355517"><ele>598.25</ele><time>2026-05-01T12:43:52.662Z</time></trkpt><trkpt lat="44.371405" lon="11.0353683"><ele>606.0</ele><time>2026-05-01T12:43:53.66Z</time></trkpt><trkpt lat="44.3714" lon="11.035185"><ele>606.0</ele><time>2026-05-01T12:43:54.664Z</time></trkpt><trkpt lat="44.3713883" lon="11.035"><ele>606.0</ele><time>2026-05-01T12:43:55.662Z</time></trkpt><trkpt lat="44.3713583" lon="11.0348083"><ele>606.0</ele><time>2026-05-01T12:43:56.663Z</time></trkpt><trkpt lat="44.3713217" lon="11.034625"><ele>606.0</ele><time>2026-05-01T12:43:57.663Z</time></trkpt><trkpt lat="44.3712783" lon="11.034445"><ele>607.25</ele><time>2026-05-01T12:43:58.664Z</time></trkpt><trkpt lat="44.3712567" lon="11.03427"><ele>608.5</ele><time>2026-05-01T12:43:59.662Z</time></trkpt><trkpt lat="44.3712233" lon="11.03411"><ele>609.75</ele><time>2026-05-01T12:44:00.665Z</time></trkpt><trkpt lat="44.371195" lon="11.0339517"><ele>611.0</ele><time>2026-05-01T12:44:01.658Z</time></trkpt><trkpt lat="44.37115" lon="11.0338017"><ele>611.0</ele><time>2026-05-01T12:44:02.655Z</time></trkpt><trkpt lat="44.3710933" lon="11.03366"><ele>611.0</ele><time>2026-05-01T12:44:03.662Z</time></trkpt><trkpt lat="44.37101" lon="11.03354"><ele>611.0</ele><time>2026-05-01T12:44:04.661Z</time></trkpt><trkpt lat="44.37091" lon="11.0334333"><ele>611.0</ele><time>2026-05-01T12:44:05.662Z</time></trkpt><trkpt lat="44.3708017" lon="11.0333533"><ele>613.0</ele><time>2026-05-01T12:44:06.662Z</time></trkpt><trkpt lat="44.3707067" lon="11.0332783"><ele>615.0</ele><time>2026-05-01T12:44:07.663Z</time></trkpt><trkpt lat="44.3706317" lon="11.0332017"><ele>617.0</ele><time>2026-05-01T12:44:08.664Z</time></trkpt><trkpt lat="44.3705783" lon="11.0331283"><ele>619.0</ele><time>2026-05-01T12:44:09.664Z</time></trkpt><trkpt lat="44.3705333" lon="11.03306"><ele>621.0</ele><time>2026-05-01T12:44:10.663Z</time></trkpt><trkpt lat="44.3705933" lon="11.032955"><ele>623.0</ele><time>2026-05-01T12:44:12.665Z</time></trkpt><trkpt lat="44.3707217" lon="11.0329633"><ele>623.0</ele><time>2026-05-01T12:44:14.665Z</time></trkpt><trkpt lat="44.370825" lon="11.033"><ele>623.0</ele><time>2026-05-01T12:44:15.658Z</time></trkpt><trkpt lat="44.370915" lon="11.0330367"><ele>623.0</ele><time>2026-05-01T12:44:16.662Z</time></trkpt><trkpt lat="44.3710017" lon="11.03306"><ele>623.0</ele><time>2026-05-01T12:44:17.659Z</time></trkpt><trkpt lat="44.3710783" lon="11.0330583"><ele>623.0</ele><time>2026-05-01T12:44:18.663Z</time></trkpt><trkpt lat="44.371145" lon="11.032975"><ele>623.0</ele><time>2026-05-01T12:44:20.661Z</time></trkpt><trkpt lat="44.3710967" lon="11.0327917"><ele>623.0</ele><time>2026-05-01T12:44:22.665Z</time></trkpt><trkpt lat="44.371065" lon="11.03266"><ele>623.0</ele><time>2026-05-01T12:44:23.663Z</time></trkpt><trkpt lat="44.3710517" lon="11.0325283"><ele>623.0</ele><time>2026-05-01T12:44:24.659Z</time></trkpt><trkpt lat="44.3710683" lon="11.0324"><ele>623.0</ele><time>2026-05-01T12:44:25.661Z</time></trkpt><trkpt lat="44.3711067" lon="11.0322733"><ele>624.5</ele><time>2026-05-01T12:44:26.662Z</time></trkpt><trkpt lat="44.37116" lon="11.0321417"><ele>626.0</ele><time>2026-05-01T12:44:27.662Z</time></trkpt><trkpt lat="44.3712117" lon="11.0320233"><ele>627.5</ele><time>2026-05-01T12:44:28.664Z</time></trkpt><trkpt lat="44.3712667" lon="11.0319383"><ele>629.0</ele><time>2026-05-01T12:44:29.659Z</time></trkpt><trkpt lat="44.371325" lon="11.0318817"><ele>630.5</ele><time>2026-05-01T12:44:30.66Z</time></trkpt><trkpt lat="44.3713867" lon="11.0319083"><ele>632.0</ele><time>2026-05-01T12:44:31.665Z</time></trkpt><trkpt lat="44.37145" lon="11.0319883"><ele>633.25</ele><time>2026-05-01T12:44:32.66Z</time></trkpt><trkpt lat="44.3715167" lon="11.0321083"><ele>634.5</ele><time>2026-05-01T12:44:33.661Z</time></trkpt><trkpt lat="44.3715883" lon="11.032245"><ele>635.75</ele><time>2026-05-01T12:44:34.663Z</time></trkpt><trkpt lat="44.371665" lon="11.0324017"><ele>637.0</ele><time>2026-05-01T12:44:35.666Z</time></trkpt><trkpt lat="44.37173" lon="11.0325683"><ele>637.0</ele><time>2026-05-01T12:44:36.66Z</time></trkpt><trkpt lat="44.3717817" lon="11.0327333"><ele>637.0</ele><time>2026-05-01T12:44:37.661Z</time></trkpt><trkpt lat="44.3718317" lon="11.032885"><ele>637.0</ele><time>2026-05-01T12:44:38.665Z</time></trkpt><trkpt lat="44.3718883" lon="11.03302"><ele>637.0</ele><time>2026-05-01T12:44:39.666Z</time></trkpt><trkpt lat="44.3719617" lon="11.0331433"><ele>637.0</ele><time>2026-05-01T12:44:40.661Z</time></trkpt><trkpt lat="44.3720467" lon="11.0332533"><ele>637.0</ele><time>2026-05-01T12:44:41.666Z</time></trkpt><trkpt lat="44.37214" lon="11.0333567"><ele>637.0</ele><time>2026-05-01T12:44:42.659Z</time></trkpt><trkpt lat="44.3722383" lon="11.0334633"><ele>637.0</ele><time>2026-05-01T12:44:43.664Z</time></trkpt><trkpt lat="44.3723417" lon="11.033575"><ele>639.0</ele><time>2026-05-01T12:44:44.662Z</time></trkpt><trkpt lat="44.3724467" lon="11.033685"><ele>641.0</ele><time>2026-05-01T12:44:45.661Z</time></trkpt><trkpt lat="44.372555" lon="11.0337933"><ele>643.0</ele><time>2026-05-01T12:44:46.66Z</time></trkpt><trkpt lat="44.3726717" lon="11.0338967"><ele>645.0</ele><time>2026-05-01T12:44:47.659Z</time></trkpt><trkpt lat="44.3727883" lon="11.033985"><ele>645.0</ele><time>2026-05-01T12:44:48.659Z</time></trkpt><trkpt lat="44.37291" lon="11.0340617"><ele>645.0</ele><time>2026-05-01T12:44:49.659Z</time></trkpt><trkpt lat="44.3730367" lon="11.0341367"><ele>645.0</ele><time>2026-05-01T12:44:50.66Z</time></trkpt><trkpt lat="44.37317" lon="11.03421"><ele>645.0</ele><time>2026-05-01T12:44:51.661Z</time></trkpt><trkpt lat="44.3733083" lon="11.034275"><ele>644.25</ele><time>2026-05-01T12:44:52.659Z</time></trkpt><trkpt lat="44.3734517" lon="11.0343367"><ele>643.5</ele><time>2026-05-01T12:44:53.658Z</time></trkpt><trkpt lat="44.3735883" lon="11.0343917"><ele>642.75</ele><time>2026-05-01T12:44:54.662Z</time></trkpt><trkpt lat="44.3737133" lon="11.0344467"><ele>642.0</ele><time>2026-05-01T12:44:55.659Z</time></trkpt><trkpt lat="44.3738333" lon="11.0345067"><ele>644.75</ele><time>2026-05-01T12:44:56.662Z</time></trkpt><trkpt lat="44.3739533" lon="11.0345683"><ele>647.5</ele><time>2026-05-01T12:44:57.657Z</time></trkpt><trkpt lat="44.3740667" lon="11.0346217"><ele>650.25</ele><time>2026-05-01T12:44:58.661Z</time></trkpt><trkpt lat="44.374165" lon="11.0346767"><ele>653.0</ele><time>2026-05-01T12:44:59.662Z</time></trkpt><trkpt lat="44.3742517" lon="11.034745"><ele>653.0</ele><time>2026-05-01T12:45:00.662Z</time></trkpt><trkpt lat="44.374325" lon="11.034835"><ele>653.0</ele><time>2026-05-01T12:45:01.659Z</time></trkpt><trkpt lat="44.3743833" lon="11.034925"><ele>653.0</ele><time>2026-05-01T12:45:02.66Z</time></trkpt><trkpt lat="44.3744483" lon="11.0349983"><ele>653.0</ele><time>2026-05-01T12:45:03.663Z</time></trkpt><trkpt lat="44.3745267" lon="11.0350567"><ele>653.0</ele><time>2026-05-01T12:45:04.665Z</time></trkpt><trkpt lat="44.3746217" lon="11.0351017"><ele>653.0</ele><time>2026-05-01T12:45:05.663Z</time></trkpt><trkpt lat="44.3747233" lon="11.0351467"><ele>653.0</ele><time>2026-05-01T12:45:06.659Z</time></trkpt><trkpt lat="44.3748333" lon="11.035185"><ele>653.0</ele><time>2026-05-01T12:45:07.661Z</time></trkpt><trkpt lat="44.3749467" lon="11.035225"><ele>653.0</ele><time>2026-05-01T12:45:08.66Z</time></trkpt><trkpt lat="44.37506" lon="11.0352633"><ele>653.0</ele><time>2026-05-01T12:45:09.662Z</time></trkpt><trkpt lat="44.3751717" lon="11.0353033"><ele>653.0</ele><time>2026-05-01T12:45:10.661Z</time></trkpt><trkpt lat="44.37528" lon="11.0353483"><ele>653.0</ele><time>2026-05-01T12:45:11.663Z</time></trkpt><trkpt lat="44.375385" lon="11.0354017"><ele>653.0</ele><time>2026-05-01T12:45:12.659Z</time></trkpt><trkpt lat="44.3754933" lon="11.0354617"><ele>652.25</ele><time>2026-05-01T12:45:13.66Z</time></trkpt><trkpt lat="44.3756033" lon="11.03554"><ele>651.5</ele><time>2026-05-01T12:45:14.662Z</time></trkpt><trkpt lat="44.37572" lon="11.0356267"><ele>650.75</ele><time>2026-05-01T12:45:15.664Z</time></trkpt><trkpt lat="44.3758333" lon="11.0357217"><ele>650.0</ele><time>2026-05-01T12:45:16.663Z</time></trkpt><trkpt lat="44.375945" lon="11.03582"><ele>650.0</ele><time>2026-05-01T12:45:17.659Z</time></trkpt><trkpt lat="44.37605" lon="11.0359117"><ele>650.0</ele><time>2026-05-01T12:45:18.659Z</time></trkpt><trkpt lat="44.37614" lon="11.0359867"><ele>650.0</ele><time>2026-05-01T12:45:19.659Z</time></trkpt><trkpt lat="44.3762167" lon="11.03605"><ele>650.0</ele><time>2026-05-01T12:45:20.664Z</time></trkpt><trkpt lat="44.3762733" lon="11.0361083"><ele>650.0</ele><time>2026-05-01T12:45:21.66Z</time></trkpt><trkpt lat="44.376325" lon="11.036235"><ele>650.0</ele><time>2026-05-01T12:45:23.659Z</time></trkpt><trkpt lat="44.3763383" lon="11.036325"><ele>650.0</ele><time>2026-05-01T12:45:24.658Z</time></trkpt><trkpt lat="44.3763417" lon="11.03643"><ele>650.0</ele><time>2026-05-01T12:45:25.659Z</time></trkpt><trkpt lat="44.3763467" lon="11.036545"><ele>650.0</ele><time>2026-05-01T12:45:26.658Z</time></trkpt><trkpt lat="44.3763517" lon="11.036665"><ele>650.0</ele><time>2026-05-01T12:45:27.661Z</time></trkpt><trkpt lat="44.376355" lon="11.0367783"><ele>650.0</ele><time>2026-05-01T12:45:28.66Z</time></trkpt><trkpt lat="44.3763583" lon="11.03689"><ele>649.8333333333333</ele><time>2026-05-01T12:45:29.658Z</time></trkpt><trkpt lat="44.37636" lon="11.0370033"><ele>649.6666666666666</ele><time>2026-05-01T12:45:30.66Z</time></trkpt><trkpt lat="44.37637" lon="11.0371183"><ele>649.5</ele><time>2026-05-01T12:45:31.654Z</time></trkpt><trkpt lat="44.376385" lon="11.037235"><ele>649.3333333333334</ele><time>2026-05-01T12:45:32.658Z</time></trkpt><trkpt lat="44.3764083" lon="11.0373533"><ele>649.1666666666667</ele><time>2026-05-01T12:45:33.663Z</time></trkpt><trkpt lat="44.3764383" lon="11.037455"><ele>649.0</ele><time>2026-05-01T12:45:34.656Z</time></trkpt><trkpt lat="44.37648" lon="11.0375483"><ele>649.0</ele><time>2026-05-01T12:45:35.654Z</time></trkpt><trkpt lat="44.376525" lon="11.03764"><ele>649.0</ele><time>2026-05-01T12:45:36.659Z</time></trkpt><trkpt lat="44.3765733" lon="11.0377267"><ele>649.0</ele><time>2026-05-01T12:45:37.663Z</time></trkpt><trkpt lat="44.3766117" lon="11.0378017"><ele>649.0</ele><time>2026-05-01T12:45:38.665Z</time></trkpt><trkpt lat="44.37667" lon="11.0379333"><ele>649.0</ele><time>2026-05-01T12:45:40.66Z</time></trkpt><trkpt lat="44.37674" lon="11.03804"><ele>649.0</ele><time>2026-05-01T12:45:42.658Z</time></trkpt><trkpt lat="44.3768533" lon="11.038135"><ele>648.9999999999999</ele><time>2026-05-01T12:45:44.657Z</time></trkpt><trkpt lat="44.3769133" lon="11.0381683"><ele>649.0</ele><time>2026-05-01T12:45:45.662Z</time></trkpt><trkpt lat="44.376975" lon="11.0381867"><ele>649.0</ele><time>2026-05-01T12:45:46.659Z</time></trkpt><trkpt lat="44.3770867" lon="11.0381883"><ele>649.0</ele><time>2026-05-01T12:45:48.654Z</time></trkpt><trkpt lat="44.3771517" lon="11.038175"><ele>649.0</ele><time>2026-05-01T12:45:49.659Z</time></trkpt><trkpt lat="44.3772183" lon="11.03816"><ele>648.9999999999999</ele><time>2026-05-01T12:45:50.664Z</time></trkpt><trkpt lat="44.3772867" lon="11.03815"><ele>649.0</ele><time>2026-05-01T12:45:51.66Z</time></trkpt><trkpt lat="44.3774083" lon="11.0381633"><ele>647.3333333333334</ele><time>2026-05-01T12:45:53.662Z</time></trkpt><trkpt lat="44.377475" lon="11.038165"><ele>645.6666666666667</ele><time>2026-05-01T12:45:54.66Z</time></trkpt><trkpt lat="44.3775483" lon="11.03816"><ele>644.0</ele><time>2026-05-01T12:45:55.662Z</time></trkpt><trkpt lat="44.377625" lon="11.0381533"><ele>642.3333333333334</ele><time>2026-05-01T12:45:56.656Z</time></trkpt><trkpt lat="44.3776983" lon="11.03814"><ele>640.6666666666666</ele><time>2026-05-01T12:45:57.656Z</time></trkpt><trkpt lat="44.3778" lon="11.0381217"><ele>639.0</ele><time>2026-05-01T12:45:59.661Z</time></trkpt><trkpt lat="44.3778733" lon="11.0380767"><ele>639.0000000000001</ele><time>2026-05-01T12:46:01.66Z</time></trkpt><trkpt lat="44.3779317" lon="11.0380317"><ele>639.0</ele><time>2026-05-01T12:46:02.662Z</time></trkpt><trkpt lat="44.3779983" lon="11.0379883"><ele>639.0</ele><time>2026-05-01T12:46:03.659Z</time></trkpt><trkpt lat="44.37806" lon="11.03795"><ele>639.0</ele><time>2026-05-01T12:46:04.66Z</time></trkpt><trkpt lat="44.3781367" lon="11.03791"><ele>639.0</ele><time>2026-05-01T12:46:06.661Z</time></trkpt><trkpt lat="44.37821" lon="11.0379433"><ele>639.0000000000001</ele><time>2026-05-01T12:46:10.659Z</time></trkpt><trkpt lat="44.3782567" lon="11.0380117"><ele>639.0</ele><time>2026-05-01T12:46:15.659Z</time></trkpt><trkpt lat="44.37832" lon="11.0380817"><ele>638.1666666666666</ele><time>2026-05-01T12:46:22.66Z</time></trkpt><trkpt lat="44.3783683" lon="11.0381633"><ele>637.3333333333334</ele><time>2026-05-01T12:46:31.661Z</time></trkpt><trkpt lat="44.3784283" lon="11.0382083"><ele>636.5</ele><time>2026-05-01T12:46:38.659Z</time></trkpt><trkpt lat="44.378475" lon="11.0382767"><ele>635.6666666666667</ele><time>2026-05-01T12:46:44.66Z</time></trkpt><trkpt lat="44.3785383" lon="11.0383367"><ele>634.8333333333334</ele><time>2026-05-01T12:46:51.66Z</time></trkpt><trkpt lat="44.37861" lon="11.0383933"><ele>634.0</ele><time>2026-05-01T12:46:54.66Z</time></trkpt><trkpt lat="44.3786933" lon="11.0384217"><ele>633.6666666666667</ele><time>2026-05-01T12:46:57.658Z</time></trkpt><trkpt lat="44.3787633" lon="11.0384467"><ele>633.3333333333334</ele><time>2026-05-01T12:46:59.658Z</time></trkpt><trkpt lat="44.3788367" lon="11.0384683"><ele>633.0</ele><time>2026-05-01T12:47:01.661Z</time></trkpt><trkpt lat="44.378905" lon="11.0384783"><ele>632.6666666666666</ele><time>2026-05-01T12:47:03.66Z</time></trkpt><trkpt lat="44.3789867" lon="11.0384917"><ele>632.3333333333333</ele><time>2026-05-01T12:47:05.661Z</time></trkpt><trkpt lat="44.379085" lon="11.0385367"><ele>632.0</ele><time>2026-05-01T12:47:07.659Z</time></trkpt><trkpt lat="44.3791467" lon="11.038565"><ele>630.5</ele><time>2026-05-01T12:47:08.662Z</time></trkpt><trkpt lat="44.3792083" lon="11.0385933"><ele>629.0</ele><time>2026-05-01T12:47:09.66Z</time></trkpt><trkpt lat="44.3792683" lon="11.0386267"><ele>627.5</ele><time>2026-05-01T12:47:10.659Z</time></trkpt><trkpt lat="44.37938" lon="11.0386883"><ele>626.0</ele><time>2026-05-01T12:47:12.658Z</time></trkpt><trkpt lat="44.3794967" lon="11.0387333"><ele>624.5</ele><time>2026-05-01T12:47:14.661Z</time></trkpt><trkpt lat="44.3795583" lon="11.0387583"><ele>623.0</ele><time>2026-05-01T12:47:15.66Z</time></trkpt><trkpt lat="44.37967" lon="11.0388033"><ele>621.0</ele><time>2026-05-01T12:47:17.66Z</time></trkpt><trkpt lat="44.379765" lon="11.0388083"><ele>619.0</ele><time>2026-05-01T12:47:19.658Z</time></trkpt><trkpt lat="44.3798717" lon="11.0388167"><ele>617.0</ele><time>2026-05-01T12:47:21.66Z</time></trkpt><trkpt lat="44.3799783" lon="11.03887"><ele>615.0</ele><time>2026-05-01T12:47:23.66Z</time></trkpt><trkpt lat="44.3800717" lon="11.0389217"><ele>613.0</ele><time>2026-05-01T12:47:25.66Z</time></trkpt><trkpt lat="44.380165" lon="11.0389517"><ele>613.0</ele><time>2026-05-01T12:47:27.66Z</time></trkpt><trkpt lat="44.3802517" lon="11.0389783"><ele>613.0</ele><time>2026-05-01T12:47:29.661Z</time></trkpt><trkpt lat="44.380335" lon="11.0389683"><ele>613.0</ele><time>2026-05-01T12:47:31.657Z</time></trkpt><trkpt lat="44.380395" lon="11.0389967"><ele>613.0</ele><time>2026-05-01T12:47:33.658Z</time></trkpt><trkpt lat="44.380475" lon="11.0390267"><ele>613.0</ele><time>2026-05-01T12:47:36.66Z</time></trkpt><trkpt lat="44.380565" lon="11.0390033"><ele>613.0</ele><time>2026-05-01T12:47:39.66Z</time></trkpt><trkpt lat="44.3806633" lon="11.0389683"><ele>610.8</ele><time>2026-05-01T12:47:41.66Z</time></trkpt><trkpt lat="44.3807867" lon="11.0389567"><ele>608.5999999999999</ele><time>2026-05-01T12:47:43.662Z</time></trkpt><trkpt lat="44.38085" lon="11.0389583"><ele>606.4000000000001</ele><time>2026-05-01T12:47:44.659Z</time></trkpt><trkpt lat="44.3809683" lon="11.0389917"><ele>604.2</ele><time>2026-05-01T12:47:46.659Z</time></trkpt><trkpt lat="44.38107" lon="11.0390633"><ele>602.0</ele><time>2026-05-01T12:47:48.66Z</time></trkpt><trkpt lat="44.38117" lon="11.039115"><ele>602.8333333333333</ele><time>2026-05-01T12:47:50.662Z</time></trkpt><trkpt lat="44.3812417" lon="11.0391417"><ele>603.6666666666666</ele><time>2026-05-01T12:47:51.66Z</time></trkpt><trkpt lat="44.3813117" lon="11.0391667"><ele>604.5</ele><time>2026-05-01T12:47:52.66Z</time></trkpt><trkpt lat="44.3813867" lon="11.0391983"><ele>605.3333333333334</ele><time>2026-05-01T12:47:53.66Z</time></trkpt><trkpt lat="44.381455" lon="11.039245"><ele>606.1666666666667</ele><time>2026-05-01T12:47:54.659Z</time></trkpt><trkpt lat="44.3815133" lon="11.039295"><ele>607.0</ele><time>2026-05-01T12:47:55.659Z</time></trkpt><trkpt lat="44.381605" lon="11.0393883"><ele>607.0</ele><time>2026-05-01T12:47:57.659Z</time></trkpt><trkpt lat="44.381685" lon="11.0394283"><ele>607.0</ele><time>2026-05-01T12:48:16.659Z</time></trkpt><trkpt lat="44.3817783" lon="11.039485"><ele>607.0</ele><time>2026-05-01T12:48:18.661Z</time></trkpt><trkpt lat="44.3818533" lon="11.039535"><ele>607.0</ele><time>2026-05-01T12:48:20.661Z</time></trkpt><trkpt lat="44.3819683" lon="11.039565"><ele>607.0</ele><time>2026-05-01T12:57:24.66Z</time></trkpt><trkpt lat="44.3820617" lon="11.0395867"><ele>607.0</ele><time>2026-05-01T12:57:27.659Z</time></trkpt><trkpt lat="44.3821517" lon="11.0396117"><ele>607.0</ele><time>2026-05-01T12:57:29.66Z</time></trkpt><trkpt lat="44.3822483" lon="11.0396417"><ele>607.0</ele><time>2026-05-01T12:57:31.66Z</time></trkpt><trkpt lat="44.3823483" lon="11.0396483"><ele>607.0</ele><time>2026-05-01T12:57:33.659Z</time></trkpt><trkpt lat="44.3824433" lon="11.03966"><ele>607.0</ele><time>2026-05-01T12:57:35.659Z</time></trkpt><trkpt lat="44.3825167" lon="11.039715"><ele>605.3333333333334</ele><time>2026-05-01T12:57:37.658Z</time></trkpt><trkpt lat="44.38251" lon="11.0398383"><ele>603.6666666666667</ele><time>2026-05-01T12:57:39.659Z</time></trkpt><trkpt lat="44.3824667" lon="11.0399767"><ele>602.0</ele><time>2026-05-01T12:57:41.659Z</time></trkpt><trkpt lat="44.3824383" lon="11.0400567"><ele>600.3333333333334</ele><time>2026-05-01T12:57:42.658Z</time></trkpt><trkpt lat="44.382395" lon="11.0401833"><ele>598.6666666666666</ele><time>2026-05-01T12:57:44.66Z</time></trkpt><trkpt lat="44.38241" lon="11.0402967"><ele>597.0</ele><time>2026-05-01T12:57:47.66Z</time></trkpt><trkpt lat="44.3824717" lon="11.0403467"><ele>597.0</ele><time>2026-05-01T12:57:49.661Z</time></trkpt><trkpt lat="44.3825882" lon="11.0404211"><ele>597.0</ele><time>2026-05-01T12:57:51.658Z</time></trkpt><trkpt lat="44.3826699" lon="11.0404704"><ele>597.0</ele><time>2026-05-01T12:57:52.659Z</time></trkpt><trkpt lat="44.3827555" lon="11.0405269"><ele>597.0</ele><time>2026-05-01T12:57:53.659Z</time></trkpt><trkpt lat="44.382839" lon="11.04059"><ele>597.0</ele><time>2026-05-01T12:57:54.658Z</time></trkpt><trkpt lat="44.3829216" lon="11.040658"><ele>597.0</ele><time>2026-05-01T12:57:55.659Z</time></trkpt><trkpt lat="44.3830035" lon="11.0407285"><ele>597.0</ele><time>2026-05-01T12:57:56.66Z</time></trkpt><trkpt lat="44.3830893" lon="11.0407913"><ele>597.0</ele><time>2026-05-01T12:57:57.659Z</time></trkpt><trkpt lat="44.3831857" lon="11.0408534"><ele>597.0</ele><time>2026-05-01T12:57:58.66Z</time></trkpt><trkpt lat="44.3832923" lon="11.0409181"><ele>597.0</ele><time>2026-05-01T12:57:59.66Z</time></trkpt><trkpt lat="44.3834045" lon="11.0409895"><ele>592.25</ele><time>2026-05-01T12:58:00.659Z</time></trkpt><trkpt lat="44.3835083" lon="11.0410649"><ele>587.5</ele><time>2026-05-01T12:58:01.658Z</time></trkpt><trkpt lat="44.3836038" lon="11.0411463"><ele>582.75</ele><time>2026-05-01T12:58:02.66Z</time></trkpt><trkpt lat="44.3837045" lon="11.0412277"><ele>578.0</ele><time>2026-05-01T12:58:03.658Z</time></trkpt><trkpt lat="44.3838117" lon="11.0413137"><ele>573.75</ele><time>2026-05-01T12:58:04.654Z</time></trkpt><trkpt lat="44.383927" lon="11.0413951"><ele>569.5</ele><time>2026-05-01T12:58:05.659Z</time></trkpt><trkpt lat="44.3840433" lon="11.0414649"><ele>565.25</ele><time>2026-05-01T12:58:06.657Z</time></trkpt><trkpt lat="44.3841546" lon="11.0415299"><ele>561.0</ele><time>2026-05-01T12:58:07.66Z</time></trkpt><trkpt lat="44.3842649" lon="11.0415903"><ele>561.25</ele><time>2026-05-01T12:58:08.66Z</time></trkpt><trkpt lat="44.3843711" lon="11.0416516"><ele>561.5</ele><time>2026-05-01T12:58:09.661Z</time></trkpt><trkpt lat="44.3844757" lon="11.0417193"><ele>561.75</ele><time>2026-05-01T12:58:10.655Z</time></trkpt><trkpt lat="44.384582" lon="11.0417939"><ele>562.0</ele><time>2026-05-01T12:58:11.657Z</time></trkpt><trkpt lat="44.3846835" lon="11.0418701"><ele>561.0</ele><time>2026-05-01T12:58:12.658Z</time></trkpt><trkpt lat="44.3847882" lon="11.0419481"><ele>560.0</ele><time>2026-05-01T12:58:13.659Z</time></trkpt><trkpt lat="44.3848945" lon="11.0420193"><ele>559.0</ele><time>2026-05-01T12:58:14.66Z</time></trkpt><trkpt lat="44.385" lon="11.0420853"><ele>558.0</ele><time>2026-05-01T12:58:15.66Z</time></trkpt><trkpt lat="44.3851062" lon="11.0421612"><ele>558.0</ele><time>2026-05-01T12:58:16.658Z</time></trkpt><trkpt lat="44.3852152" lon="11.0422599"><ele>558.0</ele><time>2026-05-01T12:58:17.659Z</time></trkpt><trkpt lat="44.3853203" lon="11.0423768"><ele>558.0</ele><time>2026-05-01T12:58:18.659Z</time></trkpt><trkpt lat="44.3854168" lon="11.0425137"><ele>558.0</ele><time>2026-05-01T12:58:19.658Z</time></trkpt><trkpt lat="44.3854987" lon="11.042664"><ele>558.6</ele><time>2026-05-01T12:58:20.66Z</time></trkpt><trkpt lat="44.3855643" lon="11.0428214"><ele>559.1999999999999</ele><time>2026-05-01T12:58:21.66Z</time></trkpt><trkpt lat="44.3856133" lon="11.0429706"><ele>559.8</ele><time>2026-05-01T12:58:22.66Z</time></trkpt><trkpt lat="44.385652" lon="11.0430969"><ele>560.4</ele><time>2026-05-01T12:58:23.658Z</time></trkpt><trkpt lat="44.3856897" lon="11.043209"><ele>561.0</ele><time>2026-05-01T12:58:24.66Z</time></trkpt><trkpt lat="44.3857275" lon="11.0433141"><ele>561.0</ele><time>2026-05-01T12:58:25.659Z</time></trkpt><trkpt lat="44.385764" lon="11.0434124"><ele>561.0</ele><time>2026-05-01T12:58:26.661Z</time></trkpt><trkpt lat="44.3857993" lon="11.0435034"><ele>561.0</ele><time>2026-05-01T12:58:27.658Z</time></trkpt><trkpt lat="44.3858317" lon="11.0435826"><ele>561.0</ele><time>2026-05-01T12:58:28.659Z</time></trkpt><trkpt lat="44.385898" lon="11.0437319"><ele>561.0</ele><time>2026-05-01T12:58:30.659Z</time></trkpt><trkpt lat="44.3859407" lon="11.0438006"><ele>561.0</ele><time>2026-05-01T12:58:31.658Z</time></trkpt><trkpt lat="44.3859929" lon="11.0438617"><ele>561.0</ele><time>2026-05-01T12:58:32.66Z</time></trkpt><trkpt lat="44.3860636" lon="11.0439194"><ele>561.0</ele><time>2026-05-01T12:58:33.66Z</time></trkpt><trkpt lat="44.3861494" lon="11.043974"><ele>561.0</ele><time>2026-05-01T12:58:34.659Z</time></trkpt><trkpt lat="44.3862465" lon="11.0440257"><ele>561.0</ele><time>2026-05-01T12:58:35.66Z</time></trkpt><trkpt lat="44.3863451" lon="11.0440731"><ele>561.0</ele><time>2026-05-01T12:58:36.66Z</time></trkpt><trkpt lat="44.3864404" lon="11.0441086"><ele>562.0</ele><time>2026-05-01T12:58:37.659Z</time></trkpt><trkpt lat="44.3865428" lon="11.0441266"><ele>563.0</ele><time>2026-05-01T12:58:38.659Z</time></trkpt><trkpt lat="44.3866491" lon="11.0441332"><ele>564.0</ele><time>2026-05-01T12:58:39.658Z</time></trkpt><trkpt lat="44.3867587" lon="11.0441425"><ele>565.0</ele><time>2026-05-01T12:58:40.657Z</time></trkpt><trkpt lat="44.3868683" lon="11.0441553"><ele>566.0</ele><time>2026-05-01T12:58:41.657Z</time></trkpt><trkpt lat="44.3869752" lon="11.044166"><ele>566.0</ele><time>2026-05-01T12:58:42.664Z</time></trkpt><trkpt lat="44.3870775" lon="11.0441743"><ele>566.0</ele><time>2026-05-01T12:58:43.66Z</time></trkpt><trkpt lat="44.3871774" lon="11.0441859"><ele>566.0</ele><time>2026-05-01T12:58:44.659Z</time></trkpt><trkpt lat="44.3872717" lon="11.0441964"><ele>566.0</ele><time>2026-05-01T12:58:45.659Z</time></trkpt><trkpt lat="44.3873571" lon="11.0442043"><ele>566.0</ele><time>2026-05-01T12:58:46.659Z</time></trkpt><trkpt lat="44.3874367" lon="11.0442124"><ele>565.8</ele><time>2026-05-01T12:58:47.66Z</time></trkpt><trkpt lat="44.3875215" lon="11.0442234"><ele>565.6</ele><time>2026-05-01T12:58:48.659Z</time></trkpt><trkpt lat="44.3876136" lon="11.0442285"><ele>565.4</ele><time>2026-05-01T12:58:49.659Z</time></trkpt><trkpt lat="44.387713" lon="11.0442356"><ele>565.2</ele><time>2026-05-01T12:58:50.661Z</time></trkpt><trkpt lat="44.3878084" lon="11.0442549"><ele>565.0</ele><time>2026-05-01T12:58:51.661Z</time></trkpt><trkpt lat="44.3878936" lon="11.0442841"><ele>565.0</ele><time>2026-05-01T12:58:52.659Z</time></trkpt><trkpt lat="44.3879645" lon="11.0443157"><ele>565.0</ele><time>2026-05-01T12:58:53.657Z</time></trkpt><trkpt lat="44.3880505" lon="11.044379"><ele>565.0</ele><time>2026-05-01T12:58:55.66Z</time></trkpt><trkpt lat="44.3881433" lon="11.04443"><ele>565.0</ele><time>2026-05-01T12:58:58.66Z</time></trkpt><trkpt lat="44.38824" lon="11.0444533"><ele>565.0</ele><time>2026-05-01T12:59:00.662Z</time></trkpt><trkpt lat="44.3883517" lon="11.0444433"><ele>561.8333333333334</ele><time>2026-05-01T12:59:02.659Z</time></trkpt><trkpt lat="44.388415" lon="11.0444333"><ele>558.6666666666667</ele><time>2026-05-01T12:59:03.661Z</time></trkpt><trkpt lat="44.3885133" lon="11.04441"><ele>555.5</ele><time>2026-05-01T12:59:05.659Z</time></trkpt><trkpt lat="44.3885783" lon="11.0444533"><ele>552.3333333333334</ele><time>2026-05-01T12:59:08.661Z</time></trkpt><trkpt lat="44.3886183" lon="11.04453"><ele>549.1666666666666</ele><time>2026-05-01T12:59:11.658Z</time></trkpt><trkpt lat="44.388675" lon="11.0446017"><ele>546.0</ele><time>2026-05-01T12:59:14.66Z</time></trkpt><trkpt lat="44.388655" lon="11.0447583"><ele>546.0</ele><time>2026-05-01T13:00:00.654Z</time></trkpt><trkpt lat="44.388685" lon="11.04486"><ele>546.0</ele><time>2026-05-01T13:00:03.662Z</time></trkpt><trkpt lat="44.38871" lon="11.0449433"><ele>546.0</ele><time>2026-05-01T13:00:05.662Z</time></trkpt><trkpt lat="44.38874" lon="11.0450533"><ele>546.0</ele><time>2026-05-01T13:00:07.663Z</time></trkpt><trkpt lat="44.388775" lon="11.0451867"><ele>546.0</ele><time>2026-05-01T13:00:09.661Z</time></trkpt><trkpt lat="44.38881" lon="11.0453067"><ele>546.0</ele><time>2026-05-01T13:00:11.659Z</time></trkpt><trkpt lat="44.38886" lon="11.0453717"><ele>541.0</ele><time>2026-05-01T13:00:13.659Z</time></trkpt><trkpt lat="44.3889533" lon="11.045445"><ele>536.0</ele><time>2026-05-01T13:00:15.659Z</time></trkpt><trkpt lat="44.389065" lon="11.0455117"><ele>531.0</ele><time>2026-05-01T13:00:17.66Z</time></trkpt><trkpt lat="44.3891517" lon="11.045585"><ele>526.0</ele><time>2026-05-01T13:00:19.66Z</time></trkpt><trkpt lat="44.3892267" lon="11.0456717"><ele>521.0</ele><time>2026-05-01T13:00:21.66Z</time></trkpt><trkpt lat="44.3893" lon="11.0457233"><ele>521.0</ele><time>2026-05-01T13:00:23.661Z</time></trkpt><trkpt lat="44.3893717" lon="11.04574"><ele>521.0</ele><time>2026-05-01T13:00:25.661Z</time></trkpt><trkpt lat="44.389445" lon="11.0458"><ele>521.0</ele><time>2026-05-01T13:00:27.659Z</time></trkpt><trkpt lat="44.389505" lon="11.0458717"><ele>521.0</ele><time>2026-05-01T13:00:29.659Z</time></trkpt><trkpt lat="44.3895767" lon="11.045915"><ele>521.0</ele><time>2026-05-01T13:00:31.66Z</time></trkpt><trkpt lat="44.3896483" lon="11.0459367"><ele>521.0</ele><time>2026-05-01T13:00:33.659Z</time></trkpt><trkpt lat="44.38972" lon="11.045965"><ele>518.0</ele><time>2026-05-01T13:00:35.66Z</time></trkpt><trkpt lat="44.3898117" lon="11.0460267"><ele>515.0</ele><time>2026-05-01T13:00:37.659Z</time></trkpt><trkpt lat="44.3898667" lon="11.0460717"><ele>512.0</ele><time>2026-05-01T13:00:38.66Z</time></trkpt><trkpt lat="44.389925" lon="11.0461267"><ele>509.0</ele><time>2026-05-01T13:00:39.66Z</time></trkpt><trkpt lat="44.3899867" lon="11.0461867"><ele>505.99999999999994</ele><time>2026-05-01T13:00:40.659Z</time></trkpt><trkpt lat="44.3900517" lon="11.0462483"><ele>503.0</ele><time>2026-05-01T13:00:41.659Z</time></trkpt><trkpt lat="44.3901117" lon="11.0463033"><ele>503.0</ele><time>2026-05-01T13:00:42.658Z</time></trkpt><trkpt lat="44.3901633" lon="11.0463683"><ele>502.99999999999994</ele><time>2026-05-01T13:00:43.658Z</time></trkpt><trkpt lat="44.390225" lon="11.046455"><ele>502.99999999999994</ele><time>2026-05-01T13:00:44.66Z</time></trkpt><trkpt lat="44.3902933" lon="11.0465533"><ele>503.0</ele><time>2026-05-01T13:00:45.658Z</time></trkpt><trkpt lat="44.39037" lon="11.0466483"><ele>503.0</ele><time>2026-05-01T13:00:46.658Z</time></trkpt><trkpt lat="44.3904483" lon="11.046745"><ele>503.4</ele><time>2026-05-01T13:00:47.66Z</time></trkpt><trkpt lat="44.39052" lon="11.0468417"><ele>503.79999999999995</ele><time>2026-05-01T13:00:48.661Z</time></trkpt><trkpt lat="44.3905933" lon="11.04694"><ele>504.2</ele><time>2026-05-01T13:00:49.66Z</time></trkpt><trkpt lat="44.3906683" lon="11.047025"><ele>504.6</ele><time>2026-05-01T13:00:50.66Z</time></trkpt><trkpt lat="44.39075" lon="11.0470867"><ele>505.0</ele><time>2026-05-01T13:00:51.661Z</time></trkpt><trkpt lat="44.390835" lon="11.0471317"><ele>505.00000000000006</ele><time>2026-05-01T13:00:52.658Z</time></trkpt><trkpt lat="44.39092" lon="11.047165"><ele>505.0</ele><time>2026-05-01T13:00:53.662Z</time></trkpt><trkpt lat="44.391015" lon="11.0471917"><ele>505.0</ele><time>2026-05-01T13:00:54.661Z</time></trkpt><trkpt lat="44.3911033" lon="11.0472117"><ele>505.0</ele><time>2026-05-01T13:00:55.66Z</time></trkpt><trkpt lat="44.3911783" lon="11.0472233"><ele>505.00000000000006</ele><time>2026-05-01T13:00:56.661Z</time></trkpt><trkpt lat="44.3912483" lon="11.0472283"><ele>505.0</ele><time>2026-05-01T13:00:57.658Z</time></trkpt><trkpt lat="44.391325" lon="11.0472333"><ele>503.0</ele><time>2026-05-01T13:00:58.658Z</time></trkpt><trkpt lat="44.3914083" lon="11.0472417"><ele>501.0</ele><time>2026-05-01T13:00:59.659Z</time></trkpt><trkpt lat="44.3914983" lon="11.0472583"><ele>499.0</ele><time>2026-05-01T13:01:00.658Z</time></trkpt><trkpt lat="44.3915917" lon="11.0472717"><ele>497.0</ele><time>2026-05-01T13:01:01.659Z</time></trkpt><trkpt lat="44.3916933" lon="11.0472733"><ele>495.0</ele><time>2026-05-01T13:01:02.657Z</time></trkpt><trkpt lat="44.3917983" lon="11.0472567"><ele>495.0</ele><time>2026-05-01T13:01:03.659Z</time></trkpt><trkpt lat="44.3919" lon="11.0472233"><ele>495.0</ele><time>2026-05-01T13:01:04.654Z</time></trkpt><trkpt lat="44.3919967" lon="11.0471783"><ele>495.0</ele><time>2026-05-01T13:01:05.654Z</time></trkpt><trkpt lat="44.3920917" lon="11.0471467"><ele>495.0</ele><time>2026-05-01T13:01:06.655Z</time></trkpt><trkpt lat="44.3921617" lon="11.047135"><ele>495.0</ele><time>2026-05-01T13:01:07.654Z</time></trkpt><trkpt lat="44.3922783" lon="11.047195"><ele>493.0</ele><time>2026-05-01T13:01:09.661Z</time></trkpt><trkpt lat="44.39234" lon="11.0472467"><ele>491.0</ele><time>2026-05-01T13:01:10.66Z</time></trkpt><trkpt lat="44.3924067" lon="11.0472883"><ele>489.0</ele><time>2026-05-01T13:01:11.655Z</time></trkpt><trkpt lat="44.3924667" lon="11.04733"><ele>487.0</ele><time>2026-05-01T13:01:12.656Z</time></trkpt><trkpt lat="44.3925933" lon="11.0473633"><ele>485.0</ele><time>2026-05-01T13:01:14.654Z</time></trkpt><trkpt lat="44.392675" lon="11.0473517"><ele>483.0</ele><time>2026-05-01T13:01:15.656Z</time></trkpt><trkpt lat="44.3927833" lon="11.0473183"><ele>483.0</ele><time>2026-05-01T13:01:16.659Z</time></trkpt><trkpt lat="44.3928967" lon="11.04727"><ele>483.0</ele><time>2026-05-01T13:01:17.658Z</time></trkpt><trkpt lat="44.3930167" lon="11.04723"><ele>483.0</ele><time>2026-05-01T13:01:18.66Z</time></trkpt><trkpt lat="44.3931367" lon="11.0471917"><ele>483.0</ele><time>2026-05-01T13:01:19.66Z</time></trkpt><trkpt lat="44.3932467" lon="11.0471483"><ele>481.2</ele><time>2026-05-01T13:01:20.661Z</time></trkpt><trkpt lat="44.3933467" lon="11.047105"><ele>479.4</ele><time>2026-05-01T13:01:21.659Z</time></trkpt><trkpt lat="44.3934383" lon="11.047065"><ele>477.59999999999997</ele><time>2026-05-01T13:01:22.66Z</time></trkpt><trkpt lat="44.3935317" lon="11.047045"><ele>475.79999999999995</ele><time>2026-05-01T13:01:23.661Z</time></trkpt><trkpt lat="44.3936333" lon="11.04705"><ele>474.0</ele><time>2026-05-01T13:01:24.66Z</time></trkpt><trkpt lat="44.39374" lon="11.0470617"><ele>474.0</ele><time>2026-05-01T13:01:25.659Z</time></trkpt><trkpt lat="44.3938367" lon="11.04707"><ele>474.0</ele><time>2026-05-01T13:01:26.659Z</time></trkpt><trkpt lat="44.3939233" lon="11.0470767"><ele>474.0</ele><time>2026-05-01T13:01:27.66Z</time></trkpt><trkpt lat="44.3939933" lon="11.0471017"><ele>474.0</ele><time>2026-05-01T13:01:28.659Z</time></trkpt><trkpt lat="44.39406" lon="11.0471533"><ele>474.0</ele><time>2026-05-01T13:01:29.661Z</time></trkpt><trkpt lat="44.394125" lon="11.047225"><ele>474.0</ele><time>2026-05-01T13:01:30.666Z</time></trkpt><trkpt lat="44.3941933" lon="11.04728"><ele>474.5</ele><time>2026-05-01T13:01:31.661Z</time></trkpt><trkpt lat="44.3942683" lon="11.0473267"><ele>475.0</ele><time>2026-05-01T13:01:32.661Z</time></trkpt><trkpt lat="44.394355" lon="11.0473717"><ele>475.5</ele><time>2026-05-01T13:01:33.66Z</time></trkpt><trkpt lat="44.3944417" lon="11.0474233"><ele>476.0</ele><time>2026-05-01T13:01:34.654Z</time></trkpt><trkpt lat="44.3945217" lon="11.0474917"><ele>476.5</ele><time>2026-05-01T13:01:35.654Z</time></trkpt><trkpt lat="44.3945967" lon="11.0475467"><ele>477.0</ele><time>2026-05-01T13:01:36.66Z</time></trkpt><trkpt lat="44.3946767" lon="11.0475767"><ele>478.6</ele><time>2026-05-01T13:01:37.658Z</time></trkpt><trkpt lat="44.3947667" lon="11.04758"><ele>480.20000000000005</ele><time>2026-05-01T13:01:38.66Z</time></trkpt><trkpt lat="44.3948617" lon="11.04755"><ele>481.8</ele><time>2026-05-01T13:01:39.659Z</time></trkpt><trkpt lat="44.3949533" lon="11.0475033"><ele>483.4</ele><time>2026-05-01T13:01:40.66Z</time></trkpt><trkpt lat="44.3950467" lon="11.0474517"><ele>485.0</ele><time>2026-05-01T13:01:41.661Z</time></trkpt><trkpt lat="44.3951383" lon="11.0474033"><ele>484.99999999999994</ele><time>2026-05-01T13:01:42.66Z</time></trkpt><trkpt lat="44.3952217" lon="11.04736"><ele>485.0</ele><time>2026-05-01T13:01:43.659Z</time></trkpt><trkpt lat="44.395295" lon="11.0473183"><ele>485.0</ele><time>2026-05-01T13:01:44.659Z</time></trkpt><trkpt lat="44.39537" lon="11.04728"><ele>485.0</ele><time>2026-05-01T13:01:45.659Z</time></trkpt><trkpt lat="44.39545" lon="11.047245"><ele>484.99999999999994</ele><time>2026-05-01T13:01:46.659Z</time></trkpt><trkpt lat="44.3955267" lon="11.04722"><ele>485.0</ele><time>2026-05-01T13:01:47.658Z</time></trkpt><trkpt lat="44.3956" lon="11.0472017"><ele>487.49999999999994</ele><time>2026-05-01T13:01:48.658Z</time></trkpt><trkpt lat="44.395675" lon="11.04719"><ele>490.0</ele><time>2026-05-01T13:01:49.659Z</time></trkpt><trkpt lat="44.395745" lon="11.04719"><ele>492.5</ele><time>2026-05-01T13:01:50.662Z</time></trkpt><trkpt lat="44.395815" lon="11.047215"><ele>495.0</ele><time>2026-05-01T13:01:51.658Z</time></trkpt><trkpt lat="44.3958867" lon="11.0472633"><ele>497.49999999999994</ele><time>2026-05-01T13:01:52.658Z</time></trkpt><trkpt lat="44.3959533" lon="11.0473433"><ele>500.0</ele><time>2026-05-01T13:01:53.658Z</time></trkpt><trkpt lat="44.3960183" lon="11.0474333"><ele>502.4</ele><time>2026-05-01T13:01:54.658Z</time></trkpt><trkpt lat="44.3960833" lon="11.047535"><ele>504.8</ele><time>2026-05-01T13:01:55.659Z</time></trkpt><trkpt lat="44.39615" lon="11.0476417"><ele>507.20000000000005</ele><time>2026-05-01T13:01:56.664Z</time></trkpt><trkpt lat="44.3962117" lon="11.04775"><ele>509.6</ele><time>2026-05-01T13:01:57.657Z</time></trkpt><trkpt lat="44.3962733" lon="11.047855"><ele>512.0</ele><time>2026-05-01T13:01:58.668Z</time></trkpt><trkpt lat="44.396345" lon="11.0479333"><ele>511.99999999999994</ele><time>2026-05-01T13:01:59.658Z</time></trkpt><trkpt lat="44.3964167" lon="11.0479933"><ele>512.0</ele><time>2026-05-01T13:02:00.662Z</time></trkpt><trkpt lat="44.3964833" lon="11.04806"><ele>512.0</ele><time>2026-05-01T13:02:01.658Z</time></trkpt><trkpt lat="44.39655" lon="11.0481517"><ele>512.0</ele><time>2026-05-01T13:02:02.66Z</time></trkpt><trkpt lat="44.3966117" lon="11.048255"><ele>511.99999999999994</ele><time>2026-05-01T13:02:03.656Z</time></trkpt><trkpt lat="44.3966767" lon="11.048345"><ele>512.0</ele><time>2026-05-01T13:02:04.657Z</time></trkpt><trkpt lat="44.3967467" lon="11.0484267"><ele>513.0</ele><time>2026-05-01T13:02:05.658Z</time></trkpt><trkpt lat="44.3968217" lon="11.048505"><ele>514.0</ele><time>2026-05-01T13:02:06.658Z</time></trkpt><trkpt lat="44.3968967" lon="11.0485817"><ele>515.0</ele><time>2026-05-01T13:02:07.659Z</time></trkpt><trkpt lat="44.3969617" lon="11.048665"><ele>516.0</ele><time>2026-05-01T13:02:08.659Z</time></trkpt><trkpt lat="44.397015" lon="11.048765"><ele>517.0</ele><time>2026-05-01T13:02:09.659Z</time></trkpt><trkpt lat="44.397055" lon="11.0488717"><ele>517.0</ele><time>2026-05-01T13:02:10.656Z</time></trkpt><trkpt lat="44.39709" lon="11.0489783"><ele>517.0</ele><time>2026-05-01T13:02:11.657Z</time></trkpt><trkpt lat="44.3971283" lon="11.0490833"><ele>517.0</ele><time>2026-05-01T13:02:12.657Z</time></trkpt><trkpt lat="44.3971667" lon="11.0491967"><ele>517.0</ele><time>2026-05-01T13:02:13.658Z</time></trkpt><trkpt lat="44.3972017" lon="11.0493117"><ele>517.0</ele><time>2026-05-01T13:02:14.659Z</time></trkpt><trkpt lat="44.39724" lon="11.0494233"><ele>517.0</ele><time>2026-05-01T13:02:15.658Z</time></trkpt><trkpt lat="44.39728" lon="11.0495317"><ele>515.6666666666667</ele><time>2026-05-01T13:02:16.656Z</time></trkpt><trkpt lat="44.3973133" lon="11.0496367"><ele>514.3333333333334</ele><time>2026-05-01T13:02:17.658Z</time></trkpt><trkpt lat="44.39734" lon="11.049745"><ele>513.0</ele><time>2026-05-01T13:02:18.659Z</time></trkpt><trkpt lat="44.3973617" lon="11.0498533"><ele>511.66666666666663</ele><time>2026-05-01T13:02:19.659Z</time></trkpt><trkpt lat="44.397385" lon="11.049955"><ele>510.3333333333333</ele><time>2026-05-01T13:02:20.66Z</time></trkpt><trkpt lat="44.3974067" lon="11.05005"><ele>509.0</ele><time>2026-05-01T13:02:21.657Z</time></trkpt><trkpt lat="44.3974333" lon="11.05015"><ele>508.8333333333333</ele><time>2026-05-01T13:02:22.658Z</time></trkpt><trkpt lat="44.3974617" lon="11.0502517"><ele>508.66666666666663</ele><time>2026-05-01T13:02:23.657Z</time></trkpt><trkpt lat="44.397485" lon="11.05034"><ele>508.5</ele><time>2026-05-01T13:02:24.658Z</time></trkpt><trkpt lat="44.3975467" lon="11.0504917"><ele>508.33333333333337</ele><time>2026-05-01T13:02:26.66Z</time></trkpt><trkpt lat="44.3975933" lon="11.0505733"><ele>508.1666666666667</ele><time>2026-05-01T13:02:27.659Z</time></trkpt><trkpt lat="44.397655" lon="11.05066"><ele>508.0</ele><time>2026-05-01T13:02:28.66Z</time></trkpt><trkpt lat="44.3977233" lon="11.05074"><ele>506.2</ele><time>2026-05-01T13:02:29.66Z</time></trkpt><trkpt lat="44.3978" lon="11.0508167"><ele>504.4</ele><time>2026-05-01T13:02:30.66Z</time></trkpt><trkpt lat="44.397885" lon="11.0509017"><ele>502.59999999999997</ele><time>2026-05-01T13:02:31.657Z</time></trkpt><trkpt lat="44.3979667" lon="11.0509883"><ele>500.79999999999995</ele><time>2026-05-01T13:02:32.658Z</time></trkpt><trkpt lat="44.39804" lon="11.0510717"><ele>499.0</ele><time>2026-05-01T13:02:33.658Z</time></trkpt><trkpt lat="44.3981017" lon="11.0511533"><ele>498.28571428571433</ele><time>2026-05-01T13:02:34.658Z</time></trkpt><trkpt lat="44.3981483" lon="11.0512317"><ele>497.57142857142856</ele><time>2026-05-01T13:02:35.661Z</time></trkpt><trkpt lat="44.3981867" lon="11.0513183"><ele>496.8571428571429</ele><time>2026-05-01T13:02:36.658Z</time></trkpt><trkpt lat="44.3982067" lon="11.0514083"><ele>496.14285714285717</ele><time>2026-05-01T13:02:37.665Z</time></trkpt><trkpt lat="44.3982033" lon="11.0515017"><ele>495.42857142857144</ele><time>2026-05-01T13:02:38.657Z</time></trkpt><trkpt lat="44.3981933" lon="11.0516067"><ele>494.7142857142857</ele><time>2026-05-01T13:02:39.656Z</time></trkpt><trkpt lat="44.39819" lon="11.0517183"><ele>494.0</ele><time>2026-05-01T13:02:40.657Z</time></trkpt><trkpt lat="44.3981917" lon="11.0518133"><ele>493.2</ele><time>2026-05-01T13:02:41.658Z</time></trkpt><trkpt lat="44.3982133" lon="11.0519633"><ele>492.4</ele><time>2026-05-01T13:02:43.657Z</time></trkpt><trkpt lat="44.3982267" lon="11.052105"><ele>491.6</ele><time>2026-05-01T13:02:45.658Z</time></trkpt><trkpt lat="44.3982283" lon="11.0522833"><ele>490.8</ele><time>2026-05-01T13:02:47.66Z</time></trkpt><trkpt lat="44.3982383" lon="11.0523983"><ele>490.0</ele><time>2026-05-01T13:02:48.661Z</time></trkpt><trkpt lat="44.3982533" lon="11.0525217"><ele>488.0</ele><time>2026-05-01T13:02:49.66Z</time></trkpt><trkpt lat="44.398275" lon="11.052655"><ele>486.0</ele><time>2026-05-01T13:02:50.661Z</time></trkpt><trkpt lat="44.3983017" lon="11.0527967"><ele>484.0</ele><time>2026-05-01T13:02:51.667Z</time></trkpt><trkpt lat="44.3983233" lon="11.0529467"><ele>482.0</ele><time>2026-05-01T13:02:52.658Z</time></trkpt><trkpt lat="44.39834" lon="11.0531067"><ele>480.0</ele><time>2026-05-01T13:02:53.66Z</time></trkpt><trkpt lat="44.3983567" lon="11.0532783"><ele>478.6</ele><time>2026-05-01T13:02:54.659Z</time></trkpt><trkpt lat="44.39837" lon="11.053445"><ele>477.2</ele><time>2026-05-01T13:02:55.66Z</time></trkpt><trkpt lat="44.398375" lon="11.053595"><ele>475.79999999999995</ele><time>2026-05-01T13:02:56.663Z</time></trkpt><trkpt lat="44.3983783" lon="11.05373"><ele>474.4</ele><time>2026-05-01T13:02:57.657Z</time></trkpt><trkpt lat="44.3983767" lon="11.0538433"><ele>473.0</ele><time>2026-05-01T13:02:58.658Z</time></trkpt><trkpt lat="44.39838" lon="11.053945"><ele>472.99999999999994</ele><time>2026-05-01T13:02:59.659Z</time></trkpt><trkpt lat="44.398395" lon="11.05404"><ele>473.0</ele><time>2026-05-01T13:03:00.661Z</time></trkpt><trkpt lat="44.3984217" lon="11.0541317"><ele>473.0</ele><time>2026-05-01T13:03:01.66Z</time></trkpt><trkpt lat="44.3984567" lon="11.05423"><ele>473.0</ele><time>2026-05-01T13:03:02.661Z</time></trkpt><trkpt lat="44.398495" lon="11.0543433"><ele>472.99999999999994</ele><time>2026-05-01T13:03:03.66Z</time></trkpt><trkpt lat="44.3985317" lon="11.0544633"><ele>473.0</ele><time>2026-05-01T13:03:04.658Z</time></trkpt><trkpt lat="44.3985617" lon="11.0545917"><ele>471.99999999999994</ele><time>2026-05-01T13:03:05.659Z</time></trkpt><trkpt lat="44.39859" lon="11.0547133"><ele>471.0</ele><time>2026-05-01T13:03:06.661Z</time></trkpt><trkpt lat="44.3986133" lon="11.0548083"><ele>470.0</ele><time>2026-05-01T13:03:07.659Z</time></trkpt><trkpt lat="44.398645" lon="11.0549433"><ele>469.0</ele><time>2026-05-01T13:03:09.66Z</time></trkpt><trkpt lat="44.39866" lon="11.05503"><ele>467.99999999999994</ele><time>2026-05-01T13:03:10.659Z</time></trkpt><trkpt lat="44.39868" lon="11.05514"><ele>467.0</ele><time>2026-05-01T13:03:11.66Z</time></trkpt><trkpt lat="44.3987133" lon="11.0552817"><ele>465.20000000000005</ele><time>2026-05-01T13:03:12.658Z</time></trkpt><trkpt lat="44.39875" lon="11.0554317"><ele>463.40000000000003</ele><time>2026-05-01T13:03:13.658Z</time></trkpt><trkpt lat="44.3987783" lon="11.0555867"><ele>461.59999999999997</ele><time>2026-05-01T13:03:14.66Z</time></trkpt><trkpt lat="44.3987917" lon="11.0557417"><ele>459.79999999999995</ele><time>2026-05-01T13:03:15.658Z</time></trkpt><trkpt lat="44.3987933" lon="11.0558883"><ele>458.0</ele><time>2026-05-01T13:03:16.659Z</time></trkpt><trkpt lat="44.3987883" lon="11.0560367"><ele>456.5</ele><time>2026-05-01T13:03:17.659Z</time></trkpt><trkpt lat="44.3987733" lon="11.0561933"><ele>455.0</ele><time>2026-05-01T13:03:18.66Z</time></trkpt><trkpt lat="44.3987533" lon="11.0563667"><ele>453.5</ele><time>2026-05-01T13:03:19.662Z</time></trkpt><trkpt lat="44.3987317" lon="11.0565467"><ele>452.0</ele><time>2026-05-01T13:03:20.663Z</time></trkpt><trkpt lat="44.3987133" lon="11.0567183"><ele>451.5</ele><time>2026-05-01T13:03:21.659Z</time></trkpt><trkpt lat="44.398695" lon="11.0568817"><ele>451.0</ele><time>2026-05-01T13:03:22.66Z</time></trkpt><trkpt lat="44.3986683" lon="11.0570317"><ele>450.5</ele><time>2026-05-01T13:03:23.662Z</time></trkpt><trkpt lat="44.3986217" lon="11.0571733"><ele>450.0</ele><time>2026-05-01T13:03:24.66Z</time></trkpt><trkpt lat="44.398565" lon="11.05731"><ele>450.0</ele><time>2026-05-01T13:03:25.66Z</time></trkpt><trkpt lat="44.398515" lon="11.05744"><ele>450.0</ele><time>2026-05-01T13:03:26.66Z</time></trkpt><trkpt lat="44.3984817" lon="11.05757"><ele>450.0</ele><time>2026-05-01T13:03:27.659Z</time></trkpt><trkpt lat="44.398465" lon="11.057715"><ele>450.0</ele><time>2026-05-01T13:03:28.659Z</time></trkpt><trkpt lat="44.398465" lon="11.0578617"><ele>450.0</ele><time>2026-05-01T13:03:29.659Z</time></trkpt><trkpt lat="44.3984767" lon="11.0580083"><ele>450.25</ele><time>2026-05-01T13:03:30.66Z</time></trkpt><trkpt lat="44.3985083" lon="11.05817"><ele>450.5</ele><time>2026-05-01T13:03:31.66Z</time></trkpt><trkpt lat="44.3985483" lon="11.0583383"><ele>450.75</ele><time>2026-05-01T13:03:32.659Z</time></trkpt><trkpt lat="44.398595" lon="11.0585017"><ele>451.0</ele><time>2026-05-01T13:03:33.659Z</time></trkpt><trkpt lat="44.398645" lon="11.0586483"><ele>451.0</ele><time>2026-05-01T13:03:34.659Z</time></trkpt><trkpt lat="44.398695" lon="11.0587817"><ele>451.0</ele><time>2026-05-01T13:03:35.66Z</time></trkpt><trkpt lat="44.39874" lon="11.0589033"><ele>451.0</ele><time>2026-05-01T13:03:36.659Z</time></trkpt><trkpt lat="44.3987867" lon="11.0590233"><ele>451.0</ele><time>2026-05-01T13:03:37.659Z</time></trkpt><trkpt lat="44.3988333" lon="11.059145"><ele>451.0</ele><time>2026-05-01T13:03:38.66Z</time></trkpt><trkpt lat="44.3988733" lon="11.059275"><ele>450.20000000000005</ele><time>2026-05-01T13:03:39.658Z</time></trkpt><trkpt lat="44.3989083" lon="11.0594083"><ele>449.40000000000003</ele><time>2026-05-01T13:03:40.659Z</time></trkpt><trkpt lat="44.3989383" lon="11.0595317"><ele>448.6</ele><time>2026-05-01T13:03:41.659Z</time></trkpt><trkpt lat="44.39896" lon="11.0596567"><ele>447.8</ele><time>2026-05-01T13:03:42.659Z</time></trkpt><trkpt lat="44.3989717" lon="11.0597833"><ele>447.0</ele><time>2026-05-01T13:03:43.66Z</time></trkpt><trkpt lat="44.3989767" lon="11.0599017"><ele>447.5</ele><time>2026-05-01T13:03:44.66Z</time></trkpt><trkpt lat="44.39898" lon="11.0599983"><ele>448.0</ele><time>2026-05-01T13:03:45.659Z</time></trkpt><trkpt lat="44.39902" lon="11.0601267"><ele>448.5</ele><time>2026-05-01T13:03:47.658Z</time></trkpt><trkpt lat="44.399085" lon="11.0602067"><ele>449.0</ele><time>2026-05-01T13:03:49.66Z</time></trkpt><trkpt lat="44.3991267" lon="11.0603283"><ele>449.5</ele><time>2026-05-01T13:04:16.66Z</time></trkpt><trkpt lat="44.399135" lon="11.06044"><ele>450.0</ele><time>2026-05-01T13:04:19.66Z</time></trkpt><trkpt lat="44.3990983" lon="11.0605333"><ele>450.0</ele><time>2026-05-01T13:04:22.658Z</time></trkpt><trkpt lat="44.3990367" lon="11.06056"><ele>450.0</ele><time>2026-05-01T13:04:24.66Z</time></trkpt><trkpt lat="44.39898" lon="11.0606"><ele>450.0</ele><time>2026-05-01T13:04:26.662Z</time></trkpt><trkpt lat="44.3989483" lon="11.0606767"><ele>450.0</ele><time>2026-05-01T13:04:28.659Z</time></trkpt><trkpt lat="44.3989283" lon="11.0607683"><ele>450.0</ele><time>2026-05-01T13:04:30.66Z</time></trkpt><trkpt lat="44.398915" lon="11.0608867"><ele>450.0</ele><time>2026-05-01T13:04:32.66Z</time></trkpt><trkpt lat="44.398895" lon="11.061045"><ele>448.4</ele><time>2026-05-01T13:04:34.658Z</time></trkpt><trkpt lat="44.3988817" lon="11.0612033"><ele>446.8</ele><time>2026-05-01T13:04:36.659Z</time></trkpt><trkpt lat="44.3988817" lon="11.0613483"><ele>445.20000000000005</ele><time>2026-05-01T13:04:38.661Z</time></trkpt><trkpt lat="44.3988617" lon="11.06149"><ele>443.6</ele><time>2026-05-01T13:04:40.66Z</time></trkpt><trkpt lat="44.3988333" lon="11.0616367"><ele>442.0</ele><time>2026-05-01T13:04:42.657Z</time></trkpt><trkpt lat="44.3987717" lon="11.0617383"><ele>439.20000000000005</ele><time>2026-05-01T13:04:44.66Z</time></trkpt><trkpt lat="44.398705" lon="11.061845"><ele>436.40000000000003</ele><time>2026-05-01T13:04:46.66Z</time></trkpt><trkpt lat="44.398625" lon="11.0619533"><ele>433.59999999999997</ele><time>2026-05-01T13:04:48.66Z</time></trkpt><trkpt lat="44.3985417" lon="11.0620733"><ele>430.79999999999995</ele><time>2026-05-01T13:04:50.657Z</time></trkpt><trkpt lat="44.3984717" lon="11.06219"><ele>428.0</ele><time>2026-05-01T13:04:52.659Z</time></trkpt><trkpt lat="44.3984017" lon="11.0623333"><ele>427.59999999999997</ele><time>2026-05-01T13:04:54.661Z</time></trkpt><trkpt lat="44.398365" lon="11.0624667"><ele>427.19999999999993</ele><time>2026-05-01T13:04:56.662Z</time></trkpt><trkpt lat="44.3983633" lon="11.0625767"><ele>426.8</ele><time>2026-05-01T13:04:58.661Z</time></trkpt><trkpt lat="44.3983717" lon="11.0626933"><ele>426.4</ele><time>2026-05-01T13:05:00.659Z</time></trkpt><trkpt lat="44.3983867" lon="11.0628433"><ele>426.0</ele><time>2026-05-01T13:05:02.661Z</time></trkpt><trkpt lat="44.3984" lon="11.0630017"><ele>426.0</ele><time>2026-05-01T13:05:04.659Z</time></trkpt><trkpt lat="44.3983817" lon="11.0631517"><ele>426.0</ele><time>2026-05-01T13:05:06.663Z</time></trkpt><trkpt lat="44.398355" lon="11.0633033"><ele>426.0</ele><time>2026-05-01T13:05:08.662Z</time></trkpt><trkpt lat="44.3983267" lon="11.063465"><ele>426.0</ele><time>2026-05-01T13:05:10.66Z</time></trkpt><trkpt lat="44.3982917" lon="11.0636267"><ele>424.4</ele><time>2026-05-01T13:05:12.66Z</time></trkpt><trkpt lat="44.398275" lon="11.0637867"><ele>422.8</ele><time>2026-05-01T13:05:14.657Z</time></trkpt><trkpt lat="44.398285" lon="11.0639333"><ele>421.2</ele><time>2026-05-01T13:05:16.659Z</time></trkpt><trkpt lat="44.3983017" lon="11.06406"><ele>419.59999999999997</ele><time>2026-05-01T13:05:18.66Z</time></trkpt><trkpt lat="44.3983367" lon="11.0641667"><ele>418.0</ele><time>2026-05-01T13:05:20.66Z</time></trkpt><trkpt lat="44.3983883" lon="11.0642483"><ele>416.4</ele><time>2026-05-01T13:05:22.661Z</time></trkpt><trkpt lat="44.39847" lon="11.0643317"><ele>414.79999999999995</ele><time>2026-05-01T13:05:24.658Z</time></trkpt><trkpt lat="44.3985283" lon="11.064425"><ele>413.2</ele><time>2026-05-01T13:05:26.66Z</time></trkpt><trkpt lat="44.398535" lon="11.0645483"><ele>411.6</ele><time>2026-05-01T13:05:28.661Z</time></trkpt><trkpt lat="44.3985483" lon="11.0646883"><ele>410.0</ele><time>2026-05-01T13:05:30.661Z</time></trkpt><trkpt lat="44.39855" lon="11.0647967"><ele>409.99999999999994</ele><time>2026-05-01T13:05:32.66Z</time></trkpt><trkpt lat="44.3985283" lon="11.0649"><ele>410.0</ele><time>2026-05-01T13:05:34.66Z</time></trkpt><trkpt lat="44.3985617" lon="11.064985"><ele>410.0</ele><time>2026-05-01T13:05:37.659Z</time></trkpt><trkpt lat="44.398635" lon="11.0650317"><ele>410.0</ele><time>2026-05-01T13:05:40.659Z</time></trkpt><trkpt lat="44.3986967" lon="11.06511"><ele>409.99999999999994</ele><time>2026-05-01T13:05:43.659Z</time></trkpt><trkpt lat="44.39874" lon="11.065195"><ele>410.0</ele><time>2026-05-01T13:05:46.659Z</time></trkpt><trkpt lat="44.3987817" lon="11.06529"><ele>408.99999999999994</ele><time>2026-05-01T13:05:49.66Z</time></trkpt><trkpt lat="44.3988217" lon="11.0653767"><ele>408.0</ele><time>2026-05-01T13:05:52.658Z</time></trkpt><trkpt lat="44.3988783" lon="11.0654717"><ele>407.0</ele><time>2026-05-01T13:05:55.661Z</time></trkpt><trkpt lat="44.39893" lon="11.0655417"><ele>406.0</ele><time>2026-05-01T13:05:57.659Z</time></trkpt><trkpt lat="44.3989833" lon="11.0656217"><ele>404.99999999999994</ele><time>2026-05-01T13:05:59.659Z</time></trkpt><trkpt lat="44.399025" lon="11.06571"><ele>404.0</ele><time>2026-05-01T13:06:01.658Z</time></trkpt><trkpt lat="44.39906" lon="11.0657883"><ele>401.3333333333333</ele><time>2026-05-01T13:06:03.661Z</time></trkpt><trkpt lat="44.399105" lon="11.0658717"><ele>398.66666666666663</ele><time>2026-05-01T13:06:06.659Z</time></trkpt><trkpt lat="44.399155" lon="11.0660417"><ele>396.0</ele><time>2026-05-01T13:06:22.659Z</time></trkpt><trkpt lat="44.3991783" lon="11.0661267"><ele>393.33333333333337</ele><time>2026-05-01T13:06:26.66Z</time></trkpt><trkpt lat="44.3992083" lon="11.0662267"><ele>390.6666666666667</ele><time>2026-05-01T13:06:30.661Z</time></trkpt><trkpt lat="44.3992467" lon="11.066305"><ele>388.0</ele><time>2026-05-01T13:06:34.659Z</time></trkpt><trkpt lat="44.3992983" lon="11.066375"><ele>388.00000000000006</ele><time>2026-05-01T13:06:37.66Z</time></trkpt><trkpt lat="44.3993683" lon="11.0664333"><ele>388.0</ele><time>2026-05-01T13:06:40.658Z</time></trkpt><trkpt lat="44.399445" lon="11.0665367"><ele>388.0</ele><time>2026-05-01T13:06:43.658Z</time></trkpt><trkpt lat="44.3995233" lon="11.0666067"><ele>388.0</ele><time>2026-05-01T13:06:45.658Z</time></trkpt><trkpt lat="44.3995967" lon="11.0666667"><ele>388.00000000000006</ele><time>2026-05-01T13:06:47.659Z</time></trkpt><trkpt lat="44.399605" lon="11.0667817"><ele>388.0</ele><time>2026-05-01T13:06:51.66Z</time></trkpt><trkpt lat="44.3996033" lon="11.0669283"><ele>385.6666666666667</ele><time>2026-05-01T13:06:53.658Z</time></trkpt><trkpt lat="44.3995917" lon="11.0670683"><ele>383.33333333333337</ele><time>2026-05-01T13:06:55.657Z</time></trkpt><trkpt lat="44.3995833" lon="11.067185"><ele>381.0</ele><time>2026-05-01T13:06:57.658Z</time></trkpt><trkpt lat="44.39958" lon="11.0672833"><ele>378.6666666666667</ele><time>2026-05-01T13:06:59.66Z</time></trkpt><trkpt lat="44.3995917" lon="11.0674067"><ele>376.33333333333337</ele><time>2026-05-01T13:07:03.659Z</time></trkpt><trkpt lat="44.3996" lon="11.0675117"><ele>374.0</ele><time>2026-05-01T13:07:05.66Z</time></trkpt><trkpt lat="44.3995933" lon="11.0676333"><ele>372.0</ele><time>2026-05-01T13:07:07.66Z</time></trkpt><trkpt lat="44.3995933" lon="11.0677617"><ele>370.0</ele><time>2026-05-01T13:07:09.66Z</time></trkpt><trkpt lat="44.399585" lon="11.0679033"><ele>368.0</ele><time>2026-05-01T13:07:11.659Z</time></trkpt><trkpt lat="44.3995783" lon="11.0680567"><ele>366.0</ele><time>2026-05-01T13:07:13.66Z</time></trkpt><trkpt lat="44.3995667" lon="11.0681917"><ele>364.0</ele><time>2026-05-01T13:07:15.659Z</time></trkpt><trkpt lat="44.3995633" lon="11.0683267"><ele>363.66666666666663</ele><time>2026-05-01T13:07:17.658Z</time></trkpt><trkpt lat="44.3996083" lon="11.0684317"><ele>363.3333333333333</ele><time>2026-05-01T13:07:19.659Z</time></trkpt><trkpt lat="44.39968" lon="11.0685217"><ele>363.0</ele><time>2026-05-01T13:07:21.658Z</time></trkpt><trkpt lat="44.3997483" lon="11.0685933"><ele>362.6666666666667</ele><time>2026-05-01T13:07:23.658Z</time></trkpt><trkpt lat="44.3998083" lon="11.0686533"><ele>362.33333333333337</ele><time>2026-05-01T13:07:25.659Z</time></trkpt><trkpt lat="44.39987" lon="11.0687117"><ele>362.0</ele><time>2026-05-01T13:07:27.659Z</time></trkpt><trkpt lat="44.3999433" lon="11.0687883"><ele>362.0</ele><time>2026-05-01T13:07:34.658Z</time></trkpt><trkpt lat="44.4" lon="11.068845"><ele>362.0</ele><time>2026-05-01T13:07:37.657Z</time></trkpt><trkpt lat="44.40007" lon="11.0689133"><ele>362.0</ele><time>2026-05-01T13:07:40.658Z</time></trkpt><trkpt lat="44.400125" lon="11.06897"><ele>362.0</ele><time>2026-05-01T13:07:42.656Z</time></trkpt><trkpt lat="44.4001817" lon="11.0690133"><ele>362.0</ele><time>2026-05-01T13:07:44.659Z</time></trkpt><trkpt lat="44.4002617" lon="11.0690783"><ele>362.0</ele><time>2026-05-01T13:07:47.658Z</time></trkpt><trkpt lat="44.40032" lon="11.0691283"><ele>362.0</ele><time>2026-05-01T13:07:50.66Z</time></trkpt><trkpt lat="44.4003733" lon="11.0691783"><ele>359.1666666666667</ele><time>2026-05-01T13:07:53.657Z</time></trkpt><trkpt lat="44.4004317" lon="11.0692367"><ele>356.33333333333337</ele><time>2026-05-01T13:07:56.659Z</time></trkpt><trkpt lat="44.400505" lon="11.0692867"><ele>353.5</ele><time>2026-05-01T13:07:59.658Z</time></trkpt><trkpt lat="44.4005633" lon="11.0693333"><ele>350.6666666666667</ele><time>2026-05-01T13:08:01.658Z</time></trkpt><trkpt lat="44.40063" lon="11.069415"><ele>347.8333333333333</ele><time>2026-05-01T13:08:04.658Z</time></trkpt><trkpt lat="44.4006933" lon="11.0694817"><ele>345.0</ele><time>2026-05-01T13:08:07.659Z</time></trkpt><trkpt lat="44.4007533" lon="11.0695483"><ele>343.7142857142857</ele><time>2026-05-01T13:08:11.658Z</time></trkpt><trkpt lat="44.40082" lon="11.06961"><ele>342.42857142857144</ele><time>2026-05-01T13:08:15.657Z</time></trkpt><trkpt lat="44.40088" lon="11.0696517"><ele>341.1428571428571</ele><time>2026-05-01T13:08:20.66Z</time></trkpt><trkpt lat="44.40088" lon="11.0697483"><ele>339.8571428571429</ele><time>2026-05-01T13:08:24.659Z</time></trkpt><trkpt lat="44.4008617" lon="11.0698333"><ele>338.57142857142856</ele><time>2026-05-01T13:08:27.658Z</time></trkpt><trkpt lat="44.4008833" lon="11.0699333"><ele>337.2857142857143</ele><time>2026-05-01T13:08:34.657Z</time></trkpt><trkpt lat="44.4009367" lon="11.0700233"><ele>336.0</ele><time>2026-05-01T13:08:38.658Z</time></trkpt><trkpt lat="44.40098" lon="11.070145"><ele>333.1666666666667</ele><time>2026-05-01T13:08:44.658Z</time></trkpt><trkpt lat="44.4010067" lon="11.070225"><ele>330.3333333333333</ele><time>2026-05-01T13:08:47.659Z</time></trkpt><trkpt lat="44.4010433" lon="11.0703233"><ele>327.5</ele><time>2026-05-01T13:08:50.659Z</time></trkpt><trkpt lat="44.4010917" lon="11.0704383"><ele>324.66666666666663</ele><time>2026-05-01T13:10:34.66Z</time></trkpt><trkpt lat="44.4011316" lon="11.0705439"><ele>321.8333333333333</ele><time>2026-05-01T15:41:53.655Z</time></trkpt><trkpt lat="44.401165" lon="11.0706199"><ele>319.0</ele><time>2026-05-01T15:42:06.66Z</time></trkpt><trkpt lat="44.4012072" lon="11.0707252"><ele>315.5</ele><time>2026-05-01T15:42:35.66Z</time></trkpt><trkpt lat="44.4012388" lon="11.0708233"><ele>312.0</ele><time>2026-05-01T15:43:09.662Z</time></trkpt><trkpt lat="44.4012534" lon="11.0709192"><ele>308.5</ele><time>2026-05-01T15:43:44.661Z</time></trkpt><trkpt lat="44.401254" lon="11.0710998"><ele>305.0</ele><time>2026-05-01T15:44:22.66Z</time></trkpt><trkpt lat="44.4012341" lon="11.0712357"><ele>301.5</ele><time>2026-05-01T15:45:16.628Z</time></trkpt><trkpt lat="44.401275" lon="11.0713027"><ele>298.0</ele><time>2026-05-01T15:45:24.663Z</time></trkpt><trkpt lat="44.4013275" lon="11.0713629"><ele>297.5</ele><time>2026-05-01T15:45:38.662Z</time></trkpt><trkpt lat="44.4013946" lon="11.071407"><ele>297.0</ele><time>2026-05-01T15:45:46.683Z</time></trkpt><trkpt lat="44.4014328" lon="11.0714818"><ele>296.5</ele><time>2026-05-01T15:45:50.661Z</time></trkpt><trkpt lat="44.4014809" lon="11.0715457"><ele>296.0</ele><time>2026-05-01T15:45:58.674Z</time></trkpt><trkpt lat="44.4015327" lon="11.0716353"><ele>295.5</ele><time>2026-05-01T15:46:14.66Z</time></trkpt><trkpt lat="44.401577" lon="11.0716996"><ele>295.0</ele><time>2026-05-01T15:46:19.569Z</time></trkpt><trkpt lat="44.4014295" lon="11.0717851"><ele>292.14285714285717</ele><time>2026-05-01T15:53:34.658Z</time></trkpt><trkpt lat="44.4013601" lon="11.0718178"><ele>289.2857142857143</ele><time>2026-05-01T15:53:35.658Z</time></trkpt><trkpt lat="44.4012934" lon="11.0718415"><ele>286.42857142857144</ele><time>2026-05-01T15:53:36.658Z</time></trkpt><trkpt lat="44.4012183" lon="11.0718617"><ele>283.57142857142856</ele><time>2026-05-01T15:53:37.657Z</time></trkpt><trkpt lat="44.4011467" lon="11.0718783"><ele>280.7142857142857</ele><time>2026-05-01T15:53:38.659Z</time></trkpt><trkpt lat="44.4010783" lon="11.071885"><ele>277.8571428571429</ele><time>2026-05-01T15:53:39.657Z</time></trkpt><trkpt lat="44.4010133" lon="11.0718933"><ele>275.0</ele><time>2026-05-01T15:53:40.658Z</time></trkpt><trkpt lat="44.4009483" lon="11.071905"><ele>275.0</ele><time>2026-05-01T15:53:41.656Z</time></trkpt><trkpt lat="44.400815" lon="11.0719117"><ele>275.0</ele><time>2026-05-01T15:53:43.657Z</time></trkpt><trkpt lat="44.4007367" lon="11.0719267"><ele>275.0</ele><time>2026-05-01T15:53:44.659Z</time></trkpt><trkpt lat="44.40065" lon="11.0719617"><ele>275.0</ele><time>2026-05-01T15:53:45.658Z</time></trkpt><trkpt lat="44.4005633" lon="11.0720117"><ele>275.0</ele><time>2026-05-01T15:53:46.659Z</time></trkpt><trkpt lat="44.400485" lon="11.0720617"><ele>275.0</ele><time>2026-05-01T15:53:47.658Z</time></trkpt><trkpt lat="44.4004167" lon="11.0721167"><ele>275.0</ele><time>2026-05-01T15:53:48.659Z</time></trkpt><trkpt lat="44.40036" lon="11.0721783"><ele>275.0</ele><time>2026-05-01T15:53:49.663Z</time></trkpt><trkpt lat="44.4003117" lon="11.07225"><ele>275.0</ele><time>2026-05-01T15:53:50.659Z</time></trkpt><trkpt lat="44.4002617" lon="11.072335"><ele>275.0</ele><time>2026-05-01T15:53:51.658Z</time></trkpt><trkpt lat="44.40021" lon="11.0724233"><ele>275.0</ele><time>2026-05-01T15:53:52.658Z</time></trkpt><trkpt lat="44.4001617" lon="11.0725233"><ele>273.0</ele><time>2026-05-01T15:53:53.66Z</time></trkpt><trkpt lat="44.4001217" lon="11.0726167"><ele>271.0</ele><time>2026-05-01T15:53:54.659Z</time></trkpt><trkpt lat="44.4000883" lon="11.0726933"><ele>269.0</ele><time>2026-05-01T15:53:55.659Z</time></trkpt><trkpt lat="44.3999983" lon="11.07281"><ele>267.0</ele><time>2026-05-01T15:53:57.659Z</time></trkpt><trkpt lat="44.3999383" lon="11.072855"><ele>265.0</ele><time>2026-05-01T15:53:58.658Z</time></trkpt><trkpt lat="44.3998667" lon="11.072895"><ele>263.0</ele><time>2026-05-01T15:53:59.658Z</time></trkpt><trkpt lat="44.3997933" lon="11.072935"><ele>263.0</ele><time>2026-05-01T15:54:00.658Z</time></trkpt><trkpt lat="44.39972" lon="11.07297"><ele>263.0</ele><time>2026-05-01T15:54:01.659Z</time></trkpt><trkpt lat="44.3996517" lon="11.073"><ele>263.0</ele><time>2026-05-01T15:54:02.659Z</time></trkpt><trkpt lat="44.39959" lon="11.073045"><ele>263.0</ele><time>2026-05-01T15:54:03.658Z</time></trkpt><trkpt lat="44.399535" lon="11.0731033"><ele>263.0</ele><time>2026-05-01T15:54:04.659Z</time></trkpt><trkpt lat="44.399495" lon="11.073175"><ele>263.0</ele><time>2026-05-01T15:54:05.66Z</time></trkpt><trkpt lat="44.399465" lon="11.0732617"><ele>263.0</ele><time>2026-05-01T15:54:06.659Z</time></trkpt><trkpt lat="44.399445" lon="11.0733617"><ele>262.6</ele><time>2026-05-01T15:54:07.659Z</time></trkpt><trkpt lat="44.3994383" lon="11.07348"><ele>262.20000000000005</ele><time>2026-05-01T15:54:08.661Z</time></trkpt><trkpt lat="44.399435" lon="11.073605"><ele>261.8</ele><time>2026-05-01T15:54:09.657Z</time></trkpt><trkpt lat="44.39944" lon="11.07374"><ele>261.40000000000003</ele><time>2026-05-01T15:54:10.658Z</time></trkpt><trkpt lat="44.3994433" lon="11.07387"><ele>261.0</ele><time>2026-05-01T15:54:11.657Z</time></trkpt><trkpt lat="44.399445" lon="11.0739967"><ele>260.2</ele><time>2026-05-01T15:54:12.659Z</time></trkpt><trkpt lat="44.39945" lon="11.0741183"><ele>259.40000000000003</ele><time>2026-05-01T15:54:13.659Z</time></trkpt><trkpt lat="44.3994467" lon="11.0742417"><ele>258.6</ele><time>2026-05-01T15:54:14.66Z</time></trkpt><trkpt lat="44.3994367" lon="11.07437"><ele>257.8</ele><time>2026-05-01T15:54:15.659Z</time></trkpt><trkpt lat="44.39941" lon="11.0745083"><ele>257.0</ele><time>2026-05-01T15:54:16.66Z</time></trkpt><trkpt lat="44.3993833" lon="11.07465"><ele>257.0</ele><time>2026-05-01T15:54:17.659Z</time></trkpt><trkpt lat="44.3993617" lon="11.074795"><ele>257.0</ele><time>2026-05-01T15:54:18.659Z</time></trkpt><trkpt lat="44.3993483" lon="11.0749433"><ele>257.0</ele><time>2026-05-01T15:54:19.658Z</time></trkpt><trkpt lat="44.399335" lon="11.0751017"><ele>257.0</ele><time>2026-05-01T15:54:20.66Z</time></trkpt><trkpt lat="44.39932" lon="11.0752667"><ele>257.0</ele><time>2026-05-01T15:54:21.659Z</time></trkpt><trkpt lat="44.3993067" lon="11.0754217"><ele>256.6</ele><time>2026-05-01T15:54:22.658Z</time></trkpt><trkpt lat="44.3993" lon="11.075565"><ele>256.2</ele><time>2026-05-01T15:54:23.658Z</time></trkpt><trkpt lat="44.3993017" lon="11.075715"><ele>255.8</ele><time>2026-05-01T15:54:24.66Z</time></trkpt><trkpt lat="44.3993083" lon="11.075875"><ele>255.4</ele><time>2026-05-01T15:54:25.657Z</time></trkpt><trkpt lat="44.3993167" lon="11.0760433"><ele>255.0</ele><time>2026-05-01T15:54:26.659Z</time></trkpt><trkpt lat="44.3993183" lon="11.0762083"><ele>254.8</ele><time>2026-05-01T15:54:27.657Z</time></trkpt><trkpt lat="44.399315" lon="11.0763683"><ele>254.6</ele><time>2026-05-01T15:54:28.659Z</time></trkpt><trkpt lat="44.3993183" lon="11.0765233"><ele>254.39999999999998</ele><time>2026-05-01T15:54:29.659Z</time></trkpt><trkpt lat="44.39933" lon="11.0766717"><ele>254.2</ele><time>2026-05-01T15:54:30.66Z</time></trkpt><trkpt lat="44.3993433" lon="11.07681"><ele>254.0</ele><time>2026-05-01T15:54:31.658Z</time></trkpt><trkpt lat="44.3993467" lon="11.076945"><ele>253.50000000000003</ele><time>2026-05-01T15:54:32.66Z</time></trkpt><trkpt lat="44.399345" lon="11.0770717"><ele>253.0</ele><time>2026-05-01T15:54:33.658Z</time></trkpt><trkpt lat="44.39934" lon="11.0771733"><ele>252.5</ele><time>2026-05-01T15:54:34.657Z</time></trkpt><trkpt lat="44.3993433" lon="11.0773217"><ele>252.0</ele><time>2026-05-01T15:54:36.658Z</time></trkpt><trkpt lat="44.3993667" lon="11.0774317"><ele>251.50000000000003</ele><time>2026-05-01T15:54:39.662Z</time></trkpt><trkpt lat="44.3994083" lon="11.0775217"><ele>251.0</ele><time>2026-05-01T15:54:41.658Z</time></trkpt><trkpt lat="44.3994567" lon="11.077595"><ele>250.0</ele><time>2026-05-01T15:54:42.658Z</time></trkpt><trkpt lat="44.3995233" lon="11.0776867"><ele>249.0</ele><time>2026-05-01T15:54:43.658Z</time></trkpt><trkpt lat="44.3996" lon="11.0777967"><ele>248.0</ele><time>2026-05-01T15:54:44.66Z</time></trkpt><trkpt lat="44.3996883" lon="11.077925"><ele>247.0</ele><time>2026-05-01T15:54:45.658Z</time></trkpt><trkpt lat="44.3997767" lon="11.07807"><ele>247.0</ele><time>2026-05-01T15:54:46.659Z</time></trkpt><trkpt lat="44.399875" lon="11.0782283"><ele>247.0</ele><time>2026-05-01T15:54:47.658Z</time></trkpt><trkpt lat="44.3999833" lon="11.0783983"><ele>247.0</ele><time>2026-05-01T15:54:48.658Z</time></trkpt><trkpt lat="44.400095" lon="11.0785717"><ele>246.33333333333331</ele><time>2026-05-01T15:54:49.659Z</time></trkpt><trkpt lat="44.40021" lon="11.0787567"><ele>245.66666666666669</ele><time>2026-05-01T15:54:50.661Z</time></trkpt><trkpt lat="44.40033" lon="11.0789483"><ele>245.0</ele><time>2026-05-01T15:54:51.659Z</time></trkpt><trkpt lat="44.400445" lon="11.0791383"><ele>246.0</ele><time>2026-05-01T15:54:52.658Z</time></trkpt><trkpt lat="44.4005517" lon="11.0793183"><ele>247.0</ele><time>2026-05-01T15:54:53.659Z</time></trkpt><trkpt lat="44.4006567" lon="11.079485"><ele>248.0</ele><time>2026-05-01T15:54:54.66Z</time></trkpt><trkpt lat="44.40077" lon="11.0796467"><ele>248.0</ele><time>2026-05-01T15:54:55.659Z</time></trkpt><trkpt lat="44.40089" lon="11.0798033"><ele>248.0</ele><time>2026-05-01T15:54:56.66Z</time></trkpt><trkpt lat="44.401015" lon="11.079955"><ele>248.0</ele><time>2026-05-01T15:54:57.659Z</time></trkpt><trkpt lat="44.40115" lon="11.0800967"><ele>246.0</ele><time>2026-05-01T15:54:58.659Z</time></trkpt><trkpt lat="44.4012867" lon="11.0802283"><ele>244.0</ele><time>2026-05-01T15:54:59.659Z</time></trkpt><trkpt lat="44.4014167" lon="11.0803533"><ele>242.0</ele><time>2026-05-01T15:55:00.659Z</time></trkpt><trkpt lat="44.4015483" lon="11.0804783"><ele>242.0</ele><time>2026-05-01T15:55:01.659Z</time></trkpt><trkpt lat="44.4016733" lon="11.0806"><ele>242.0</ele><time>2026-05-01T15:55:02.659Z</time></trkpt><trkpt lat="44.4018" lon="11.0807233"><ele>242.0</ele><time>2026-05-01T15:55:03.658Z</time></trkpt><trkpt lat="44.4019283" lon="11.0808517"><ele>242.66666666666669</ele><time>2026-05-01T15:55:04.658Z</time></trkpt><trkpt lat="44.4020567" lon="11.0809767"><ele>243.33333333333331</ele><time>2026-05-01T15:55:05.659Z</time></trkpt><trkpt lat="44.402185" lon="11.0810933"><ele>244.0</ele><time>2026-05-01T15:55:06.659Z</time></trkpt><trkpt lat="44.4023083" lon="11.0812083"><ele>244.0</ele><time>2026-05-01T15:55:07.657Z</time></trkpt><trkpt lat="44.40243" lon="11.0813167"><ele>244.0</ele><time>2026-05-01T15:55:08.658Z</time></trkpt><trkpt lat="44.4025517" lon="11.0814283"><ele>244.0</ele><time>2026-05-01T15:55:09.657Z</time></trkpt><trkpt lat="44.402675" lon="11.0815383"><ele>244.0</ele><time>2026-05-01T15:55:10.659Z</time></trkpt><trkpt lat="44.4027967" lon="11.0816483"><ele>242.5</ele><time>2026-05-01T15:55:11.66Z</time></trkpt><trkpt lat="44.4029133" lon="11.0817567"><ele>241.0</ele><time>2026-05-01T15:55:12.659Z</time></trkpt><trkpt lat="44.4030283" lon="11.081865"><ele>239.5</ele><time>2026-05-01T15:55:13.66Z</time></trkpt><trkpt lat="44.403145" lon="11.0819783"><ele>238.0</ele><time>2026-05-01T15:55:14.66Z</time></trkpt><trkpt lat="44.4032617" lon="11.08209"><ele>238.0</ele><time>2026-05-01T15:55:15.658Z</time></trkpt><trkpt lat="44.40338" lon="11.0821967"><ele>238.0</ele><time>2026-05-01T15:55:16.66Z</time></trkpt><trkpt lat="44.403495" lon="11.0823067"><ele>238.0</ele><time>2026-05-01T15:55:17.661Z</time></trkpt><trkpt lat="44.4036083" lon="11.0824083"><ele>238.0</ele><time>2026-05-01T15:55:18.659Z</time></trkpt><trkpt lat="44.4037183" lon="11.0825133"><ele>237.25</ele><time>2026-05-01T15:55:19.66Z</time></trkpt><trkpt lat="44.4038267" lon="11.0826233"><ele>236.5</ele><time>2026-05-01T15:55:20.659Z</time></trkpt><trkpt lat="44.4039367" lon="11.0827417"><ele>235.75</ele><time>2026-05-01T15:55:21.66Z</time></trkpt><trkpt lat="44.404045" lon="11.0828683"><ele>235.0</ele><time>2026-05-01T15:55:22.658Z</time></trkpt><trkpt lat="44.4041517" lon="11.0830033"><ele>235.0</ele><time>2026-05-01T15:55:23.66Z</time></trkpt><trkpt lat="44.4042533" lon="11.0831467"><ele>235.0</ele><time>2026-05-01T15:55:24.659Z</time></trkpt><trkpt lat="44.4043467" lon="11.0833017"><ele>235.0</ele><time>2026-05-01T15:55:25.659Z</time></trkpt><trkpt lat="44.4044367" lon="11.0834583"><ele>235.0</ele><time>2026-05-01T15:55:26.659Z</time></trkpt><trkpt lat="44.4045267" lon="11.0836183"><ele>235.0</ele><time>2026-05-01T15:55:27.659Z</time></trkpt><trkpt lat="44.4046183" lon="11.083785"><ele>235.0</ele><time>2026-05-01T15:55:28.659Z</time></trkpt><trkpt lat="44.4047133" lon="11.083955"><ele>235.0</ele><time>2026-05-01T15:55:29.66Z</time></trkpt><trkpt lat="44.4048083" lon="11.084125"><ele>234.0</ele><time>2026-05-01T15:55:30.659Z</time></trkpt><trkpt lat="44.4049017" lon="11.0842883"><ele>233.0</ele><time>2026-05-01T15:55:31.66Z</time></trkpt><trkpt lat="44.404995" lon="11.0844517"><ele>232.0</ele><time>2026-05-01T15:55:32.661Z</time></trkpt><trkpt lat="44.40509" lon="11.08462"><ele>232.0</ele><time>2026-05-01T15:55:33.659Z</time></trkpt><trkpt lat="44.4051867" lon="11.08479"><ele>232.0</ele><time>2026-05-01T15:55:34.66Z</time></trkpt><trkpt lat="44.4052867" lon="11.08496"><ele>232.0</ele><time>2026-05-01T15:55:35.66Z</time></trkpt><trkpt lat="44.4053867" lon="11.085135"><ele>233.0</ele><time>2026-05-01T15:55:36.659Z</time></trkpt><trkpt lat="44.4054883" lon="11.0853133"><ele>234.0</ele><time>2026-05-01T15:55:37.659Z</time></trkpt><trkpt lat="44.4055917" lon="11.0854917"><ele>235.0</ele><time>2026-05-01T15:55:38.661Z</time></trkpt><trkpt lat="44.405695" lon="11.0856717"><ele>232.0</ele><time>2026-05-01T15:55:39.659Z</time></trkpt><trkpt lat="44.4057967" lon="11.0858467"><ele>229.0</ele><time>2026-05-01T15:55:40.66Z</time></trkpt><trkpt lat="44.4058967" lon="11.08602"><ele>226.0</ele><time>2026-05-01T15:55:41.659Z</time></trkpt><trkpt lat="44.4059933" lon="11.0861917"><ele>226.0</ele><time>2026-05-01T15:55:42.659Z</time></trkpt><trkpt lat="44.4060917" lon="11.0863617"><ele>226.0</ele><time>2026-05-01T15:55:43.658Z</time></trkpt><trkpt lat="44.4061883" lon="11.0865217"><ele>226.0</ele><time>2026-05-01T15:55:44.662Z</time></trkpt><trkpt lat="44.4062883" lon="11.08668"><ele>228.0</ele><time>2026-05-01T15:55:45.659Z</time></trkpt><trkpt lat="44.4063967" lon="11.0868367"><ele>230.0</ele><time>2026-05-01T15:55:46.661Z</time></trkpt><trkpt lat="44.4065133" lon="11.0869983"><ele>232.0</ele><time>2026-05-01T15:55:47.659Z</time></trkpt><trkpt lat="44.4066317" lon="11.0871667"><ele>232.0</ele><time>2026-05-01T15:55:48.66Z</time></trkpt><trkpt lat="44.4067517" lon="11.0873383"><ele>232.0</ele><time>2026-05-01T15:55:49.66Z</time></trkpt><trkpt lat="44.4068767" lon="11.087515"><ele>232.0</ele><time>2026-05-01T15:55:50.66Z</time></trkpt><trkpt lat="44.4069983" lon="11.08769"><ele>231.66666666666666</ele><time>2026-05-01T15:55:51.658Z</time></trkpt><trkpt lat="44.4071167" lon="11.0878583"><ele>231.33333333333331</ele><time>2026-05-01T15:55:52.658Z</time></trkpt><trkpt lat="44.4072317" lon="11.0880217"><ele>231.0</ele><time>2026-05-01T15:55:53.659Z</time></trkpt><trkpt lat="44.4073467" lon="11.0881783"><ele>228.33333333333331</ele><time>2026-05-01T15:55:54.658Z</time></trkpt><trkpt lat="44.4074617" lon="11.0883367"><ele>225.66666666666666</ele><time>2026-05-01T15:55:55.658Z</time></trkpt><trkpt lat="44.4075783" lon="11.0884933"><ele>223.0</ele><time>2026-05-01T15:55:56.661Z</time></trkpt><trkpt lat="44.4076967" lon="11.0886517"><ele>223.0</ele><time>2026-05-01T15:55:57.659Z</time></trkpt><trkpt lat="44.407825" lon="11.0888033"><ele>223.0</ele><time>2026-05-01T15:55:58.66Z</time></trkpt><trkpt lat="44.4079633" lon="11.0889517"><ele>223.0</ele><time>2026-05-01T15:55:59.66Z</time></trkpt><trkpt lat="44.40811" lon="11.0890967"><ele>222.66666666666666</ele><time>2026-05-01T15:56:00.659Z</time></trkpt><trkpt lat="44.4082567" lon="11.0892333"><ele>222.33333333333331</ele><time>2026-05-01T15:56:01.66Z</time></trkpt><trkpt lat="44.4083917" lon="11.0893583"><ele>222.0</ele><time>2026-05-01T15:56:02.659Z</time></trkpt><trkpt lat="44.4085233" lon="11.0894817"><ele>222.0</ele><time>2026-05-01T15:56:03.658Z</time></trkpt><trkpt lat="44.4086533" lon="11.0896017"><ele>222.0</ele><time>2026-05-01T15:56:04.66Z</time></trkpt><trkpt lat="44.4087867" lon="11.0897267"><ele>222.0</ele><time>2026-05-01T15:56:05.66Z</time></trkpt><trkpt lat="44.4089233" lon="11.0898567"><ele>220.66666666666669</ele><time>2026-05-01T15:56:06.661Z</time></trkpt><trkpt lat="44.4090617" lon="11.0899883"><ele>219.33333333333334</ele><time>2026-05-01T15:56:07.658Z</time></trkpt><trkpt lat="44.4091917" lon="11.0901117"><ele>218.0</ele><time>2026-05-01T15:56:08.661Z</time></trkpt><trkpt lat="44.4093167" lon="11.090225"><ele>218.0</ele><time>2026-05-01T15:56:09.659Z</time></trkpt><trkpt lat="44.409435" lon="11.09033"><ele>218.0</ele><time>2026-05-01T15:56:10.659Z</time></trkpt><trkpt lat="44.4095467" lon="11.0904333"><ele>218.0</ele><time>2026-05-01T15:56:11.659Z</time></trkpt><trkpt lat="44.4096483" lon="11.0905317"><ele>218.0</ele><time>2026-05-01T15:56:12.66Z</time></trkpt><trkpt lat="44.4097433" lon="11.0906317"><ele>219.0</ele><time>2026-05-01T15:56:13.66Z</time></trkpt><trkpt lat="44.4098383" lon="11.0907333"><ele>220.0</ele><time>2026-05-01T15:56:14.66Z</time></trkpt><trkpt lat="44.4099233" lon="11.0908317"><ele>221.0</ele><time>2026-05-01T15:56:15.658Z</time></trkpt><trkpt lat="44.40999" lon="11.090925"><ele>222.0</ele><time>2026-05-01T15:56:16.658Z</time></trkpt><trkpt lat="44.4100333" lon="11.09101"><ele>223.0</ele><time>2026-05-01T15:56:17.66Z</time></trkpt><trkpt lat="44.410055" lon="11.0911033"><ele>223.0</ele><time>2026-05-01T15:56:18.66Z</time></trkpt><trkpt lat="44.41004" lon="11.0911933"><ele>223.0</ele><time>2026-05-01T15:56:19.66Z</time></trkpt><trkpt lat="44.4099883" lon="11.0912883"><ele>223.0</ele><time>2026-05-01T15:56:20.659Z</time></trkpt><trkpt lat="44.4099067" lon="11.091395"><ele>223.0</ele><time>2026-05-01T15:56:21.66Z</time></trkpt><trkpt lat="44.4098033" lon="11.0915133"><ele>223.0</ele><time>2026-05-01T15:56:22.658Z</time></trkpt><trkpt lat="44.4097" lon="11.0916383"><ele>221.0</ele><time>2026-05-01T15:56:23.659Z</time></trkpt><trkpt lat="44.40959" lon="11.0917717"><ele>219.0</ele><time>2026-05-01T15:56:24.66Z</time></trkpt><trkpt lat="44.409475" lon="11.091915"><ele>217.0</ele><time>2026-05-01T15:56:25.658Z</time></trkpt><trkpt lat="44.4093567" lon="11.0920633"><ele>217.0</ele><time>2026-05-01T15:56:26.662Z</time></trkpt><trkpt lat="44.4092333" lon="11.0922183"><ele>217.0</ele><time>2026-05-01T15:56:27.66Z</time></trkpt><trkpt lat="44.4091067" lon="11.0923783"><ele>217.0</ele><time>2026-05-01T15:56:28.66Z</time></trkpt><trkpt lat="44.4089817" lon="11.0925433"><ele>216.66666666666666</ele><time>2026-05-01T15:56:29.659Z</time></trkpt><trkpt lat="44.4088567" lon="11.0927133"><ele>216.33333333333331</ele><time>2026-05-01T15:56:30.659Z</time></trkpt><trkpt lat="44.4087367" lon="11.0928883"><ele>216.0</ele><time>2026-05-01T15:56:31.661Z</time></trkpt><trkpt lat="44.4086217" lon="11.0930733"><ele>216.33333333333331</ele><time>2026-05-01T15:56:32.661Z</time></trkpt><trkpt lat="44.4085083" lon="11.093265"><ele>216.66666666666666</ele><time>2026-05-01T15:56:33.661Z</time></trkpt><trkpt lat="44.4084017" lon="11.0934567"><ele>217.0</ele><time>2026-05-01T15:56:34.66Z</time></trkpt><trkpt lat="44.4083" lon="11.093645"><ele>217.0</ele><time>2026-05-01T15:56:35.66Z</time></trkpt><trkpt lat="44.4081967" lon="11.0938283"><ele>217.0</ele><time>2026-05-01T15:56:36.658Z</time></trkpt><trkpt lat="44.4080933" lon="11.0940083"><ele>217.0</ele><time>2026-05-01T15:56:37.659Z</time></trkpt><trkpt lat="44.407995" lon="11.0941817"><ele>216.75</ele><time>2026-05-01T15:56:38.66Z</time></trkpt><trkpt lat="44.4079" lon="11.0943517"><ele>216.5</ele><time>2026-05-01T15:56:39.658Z</time></trkpt><trkpt lat="44.4078067" lon="11.0945183"><ele>216.25</ele><time>2026-05-01T15:56:40.658Z</time></trkpt><trkpt lat="44.40772" lon="11.0946767"><ele>216.0</ele><time>2026-05-01T15:56:41.659Z</time></trkpt><trkpt lat="44.4076467" lon="11.0948267"><ele>215.5</ele><time>2026-05-01T15:56:42.659Z</time></trkpt><trkpt lat="44.4075883" lon="11.0949733"><ele>215.0</ele><time>2026-05-01T15:56:43.66Z</time></trkpt><trkpt lat="44.4075517" lon="11.0951317"><ele>214.5</ele><time>2026-05-01T15:56:44.66Z</time></trkpt><trkpt lat="44.40754" lon="11.0953067"><ele>214.0</ele><time>2026-05-01T15:56:45.66Z</time></trkpt><trkpt lat="44.4075583" lon="11.09548"><ele>214.0</ele><time>2026-05-01T15:56:46.658Z</time></trkpt><trkpt lat="44.40761" lon="11.0956467"><ele>214.0</ele><time>2026-05-01T15:56:47.659Z</time></trkpt><trkpt lat="44.4076883" lon="11.0958017"><ele>214.0</ele><time>2026-05-01T15:56:48.659Z</time></trkpt><trkpt lat="44.4077817" lon="11.095955"><ele>214.0</ele><time>2026-05-01T15:56:49.658Z</time></trkpt><trkpt lat="44.40788" lon="11.0961183"><ele>214.66666666666666</ele><time>2026-05-01T15:56:50.661Z</time></trkpt><trkpt lat="44.4079767" lon="11.096295"><ele>215.33333333333331</ele><time>2026-05-01T15:56:51.658Z</time></trkpt><trkpt lat="44.4080783" lon="11.096475"><ele>216.0</ele><time>2026-05-01T15:56:52.66Z</time></trkpt><trkpt lat="44.4081817" lon="11.0966617"><ele>214.66666666666669</ele><time>2026-05-01T15:56:53.661Z</time></trkpt><trkpt lat="44.408285" lon="11.09685"><ele>213.33333333333334</ele><time>2026-05-01T15:56:54.66Z</time></trkpt><trkpt lat="44.4083917" lon="11.0970433"><ele>212.0</ele><time>2026-05-01T15:56:55.659Z</time></trkpt><trkpt lat="44.4085033" lon="11.0972417"><ele>212.0</ele><time>2026-05-01T15:56:56.661Z</time></trkpt><trkpt lat="44.4086183" lon="11.097435"><ele>212.0</ele><time>2026-05-01T15:56:57.658Z</time></trkpt><trkpt lat="44.4087283" lon="11.0976183"><ele>212.0</ele><time>2026-05-01T15:56:58.658Z</time></trkpt><trkpt lat="44.4088333" lon="11.0977967"><ele>211.33333333333334</ele><time>2026-05-01T15:56:59.66Z</time></trkpt><trkpt lat="44.4089333" lon="11.097985"><ele>210.66666666666669</ele><time>2026-05-01T15:57:00.659Z</time></trkpt><trkpt lat="44.40903" lon="11.0981867"><ele>210.0</ele><time>2026-05-01T15:57:01.659Z</time></trkpt><trkpt lat="44.40912" lon="11.0984017"><ele>210.0</ele><time>2026-05-01T15:57:02.659Z</time></trkpt><trkpt lat="44.4092017" lon="11.098635"><ele>210.0</ele><time>2026-05-01T15:57:03.659Z</time></trkpt><trkpt lat="44.409275" lon="11.0988733"><ele>210.0</ele><time>2026-05-01T15:57:04.659Z</time></trkpt><trkpt lat="44.4093317" lon="11.0990983"><ele>210.5</ele><time>2026-05-01T15:57:05.659Z</time></trkpt><trkpt lat="44.4093767" lon="11.0993017"><ele>211.0</ele><time>2026-05-01T15:57:06.66Z</time></trkpt><trkpt lat="44.40942" lon="11.0994867"><ele>211.5</ele><time>2026-05-01T15:57:07.659Z</time></trkpt><trkpt lat="44.4094567" lon="11.0996567"><ele>212.0</ele><time>2026-05-01T15:57:08.66Z</time></trkpt><trkpt lat="44.40948" lon="11.099815"><ele>212.39999999999998</ele><time>2026-05-01T15:57:09.659Z</time></trkpt><trkpt lat="44.4094933" lon="11.0999567"><ele>212.79999999999998</ele><time>2026-05-01T15:57:10.659Z</time></trkpt><trkpt lat="44.4094983" lon="11.100085"><ele>213.2</ele><time>2026-05-01T15:57:11.658Z</time></trkpt><trkpt lat="44.4095033" lon="11.1001933"><ele>213.6</ele><time>2026-05-01T15:57:12.659Z</time></trkpt><trkpt lat="44.4095267" lon="11.10028"><ele>214.0</ele><time>2026-05-01T15:57:13.659Z</time></trkpt><trkpt lat="44.4096283" lon="11.10036"><ele>213.2</ele><time>2026-05-01T15:57:15.659Z</time></trkpt><trkpt lat="44.4097" lon="11.100355"><ele>212.39999999999998</ele><time>2026-05-01T15:57:16.659Z</time></trkpt><trkpt lat="44.4097867" lon="11.10033"><ele>211.6</ele><time>2026-05-01T15:57:17.658Z</time></trkpt><trkpt lat="44.4098967" lon="11.1002983"><ele>210.8</ele><time>2026-05-01T15:57:18.659Z</time></trkpt><trkpt lat="44.4100233" lon="11.1002683"><ele>210.0</ele><time>2026-05-01T15:57:19.66Z</time></trkpt><trkpt lat="44.4101583" lon="11.1002383"><ele>210.0</ele><time>2026-05-01T15:57:20.66Z</time></trkpt><trkpt lat="44.410305" lon="11.100205"><ele>210.0</ele><time>2026-05-01T15:57:21.661Z</time></trkpt><trkpt lat="44.4104583" lon="11.1001633"><ele>210.0</ele><time>2026-05-01T15:57:22.66Z</time></trkpt><trkpt lat="44.410605" lon="11.1001233"><ele>209.5</ele><time>2026-05-01T15:57:23.659Z</time></trkpt><trkpt lat="44.4107433" lon="11.1000867"><ele>209.0</ele><time>2026-05-01T15:57:24.66Z</time></trkpt><trkpt lat="44.41087" lon="11.1000533"><ele>208.5</ele><time>2026-05-01T15:57:25.659Z</time></trkpt><trkpt lat="44.410995" lon="11.1000267"><ele>208.0</ele><time>2026-05-01T15:57:26.661Z</time></trkpt><trkpt lat="44.4111183" lon="11.1000167"><ele>208.0</ele><time>2026-05-01T15:57:27.659Z</time></trkpt><trkpt lat="44.411235" lon="11.100045"><ele>208.0</ele><time>2026-05-01T15:57:28.659Z</time></trkpt><trkpt lat="44.4113517" lon="11.1001083"><ele>208.0</ele><time>2026-05-01T15:57:29.658Z</time></trkpt><trkpt lat="44.4114683" lon="11.100205"><ele>208.0</ele><time>2026-05-01T15:57:30.659Z</time></trkpt><trkpt lat="44.4115867" lon="11.1003267"><ele>207.33333333333331</ele><time>2026-05-01T15:57:31.658Z</time></trkpt><trkpt lat="44.4117117" lon="11.1004617"><ele>206.66666666666669</ele><time>2026-05-01T15:57:32.66Z</time></trkpt><trkpt lat="44.41184" lon="11.1006067"><ele>206.0</ele><time>2026-05-01T15:57:33.659Z</time></trkpt><trkpt lat="44.4119667" lon="11.10076"><ele>206.0</ele><time>2026-05-01T15:57:34.66Z</time></trkpt><trkpt lat="44.41209" lon="11.10092"><ele>206.0</ele><time>2026-05-01T15:57:35.659Z</time></trkpt><trkpt lat="44.4122067" lon="11.10108"><ele>206.0</ele><time>2026-05-01T15:57:36.658Z</time></trkpt><trkpt lat="44.4123167" lon="11.10123"><ele>205.75</ele><time>2026-05-01T15:57:37.659Z</time></trkpt><trkpt lat="44.41242" lon="11.1013733"><ele>205.5</ele><time>2026-05-01T15:57:38.66Z</time></trkpt><trkpt lat="44.412525" lon="11.10151"><ele>205.25</ele><time>2026-05-01T15:57:39.659Z</time></trkpt><trkpt lat="44.4126383" lon="11.10164"><ele>205.0</ele><time>2026-05-01T15:57:40.659Z</time></trkpt><trkpt lat="44.4127633" lon="11.10176"><ele>205.0</ele><time>2026-05-01T15:57:41.659Z</time></trkpt><trkpt lat="44.4129017" lon="11.1018717"><ele>205.0</ele><time>2026-05-01T15:57:42.659Z</time></trkpt><trkpt lat="44.413045" lon="11.10197"><ele>205.0</ele><time>2026-05-01T15:57:43.659Z</time></trkpt><trkpt lat="44.413185" lon="11.102065"><ele>204.0</ele><time>2026-05-01T15:57:44.661Z</time></trkpt><trkpt lat="44.4133167" lon="11.1021717"><ele>203.0</ele><time>2026-05-01T15:57:45.658Z</time></trkpt><trkpt lat="44.4134433" lon="11.1022867"><ele>202.0</ele><time>2026-05-01T15:57:46.661Z</time></trkpt><trkpt lat="44.4135633" lon="11.1024067"><ele>202.0</ele><time>2026-05-01T15:57:47.659Z</time></trkpt><trkpt lat="44.413675" lon="11.1025267"><ele>202.0</ele><time>2026-05-01T15:57:48.658Z</time></trkpt><trkpt lat="44.41378" lon="11.102645"><ele>202.0</ele><time>2026-05-01T15:57:49.658Z</time></trkpt><trkpt lat="44.4138833" lon="11.1027533"><ele>202.0</ele><time>2026-05-01T15:57:50.661Z</time></trkpt><trkpt lat="44.4139833" lon="11.1028617"><ele>202.0</ele><time>2026-05-01T15:57:51.659Z</time></trkpt><trkpt lat="44.414075" lon="11.102965"><ele>202.0</ele><time>2026-05-01T15:57:52.659Z</time></trkpt><trkpt lat="44.4141633" lon="11.103065"><ele>202.0</ele><time>2026-05-01T15:57:53.658Z</time></trkpt><trkpt lat="44.4142567" lon="11.103165"><ele>202.0</ele><time>2026-05-01T15:57:54.659Z</time></trkpt><trkpt lat="44.4143517" lon="11.1032633"><ele>202.0</ele><time>2026-05-01T15:57:55.659Z</time></trkpt><trkpt lat="44.4144483" lon="11.1033667"><ele>202.0</ele><time>2026-05-01T15:57:56.66Z</time></trkpt><trkpt lat="44.4145467" lon="11.1034733"><ele>202.0</ele><time>2026-05-01T15:57:57.659Z</time></trkpt><trkpt lat="44.41465" lon="11.1035733"><ele>202.0</ele><time>2026-05-01T15:57:58.659Z</time></trkpt><trkpt lat="44.4147617" lon="11.10367"><ele>201.66666666666666</ele><time>2026-05-01T15:57:59.659Z</time></trkpt><trkpt lat="44.4148867" lon="11.1037667"><ele>201.33333333333331</ele><time>2026-05-01T15:58:00.66Z</time></trkpt><trkpt lat="44.4150267" lon="11.1038583"><ele>201.0</ele><time>2026-05-01T15:58:01.659Z</time></trkpt><trkpt lat="44.4151817" lon="11.10394"><ele>201.0</ele><time>2026-05-01T15:58:02.659Z</time></trkpt><trkpt lat="44.4153383" lon="11.1040117"><ele>201.0</ele><time>2026-05-01T15:58:03.659Z</time></trkpt><trkpt lat="44.4154983" lon="11.10408"><ele>201.0</ele><time>2026-05-01T15:58:04.658Z</time></trkpt><trkpt lat="44.4156583" lon="11.1041567"><ele>200.66666666666669</ele><time>2026-05-01T15:58:05.66Z</time></trkpt><trkpt lat="44.4158217" lon="11.1042317"><ele>200.33333333333334</ele><time>2026-05-01T15:58:06.658Z</time></trkpt><trkpt lat="44.415985" lon="11.1043117"><ele>200.0</ele><time>2026-05-01T15:58:07.658Z</time></trkpt><trkpt lat="44.4161483" lon="11.104395"><ele>200.0</ele><time>2026-05-01T15:58:08.661Z</time></trkpt><trkpt lat="44.4163133" lon="11.104475"><ele>200.0</ele><time>2026-05-01T15:58:09.659Z</time></trkpt><trkpt lat="44.4164783" lon="11.1045617"><ele>200.0</ele><time>2026-05-01T15:58:10.658Z</time></trkpt><trkpt lat="44.41664" lon="11.1046433"><ele>199.75</ele><time>2026-05-01T15:58:11.659Z</time></trkpt><trkpt lat="44.4167883" lon="11.104715"><ele>199.5</ele><time>2026-05-01T15:58:12.659Z</time></trkpt><trkpt lat="44.4169233" lon="11.10478"><ele>199.25</ele><time>2026-05-01T15:58:13.659Z</time></trkpt><trkpt lat="44.4170517" lon="11.10484"><ele>199.0</ele><time>2026-05-01T15:58:14.66Z</time></trkpt><trkpt lat="44.4171817" lon="11.10488"><ele>198.0</ele><time>2026-05-01T15:58:15.659Z</time></trkpt><trkpt lat="44.4173217" lon="11.1048833"><ele>197.0</ele><time>2026-05-01T15:58:16.658Z</time></trkpt><trkpt lat="44.4174633" lon="11.1048683"><ele>196.0</ele><time>2026-05-01T15:58:17.659Z</time></trkpt><trkpt lat="44.4175967" lon="11.10486"><ele>195.0</ele><time>2026-05-01T15:58:18.66Z</time></trkpt><trkpt lat="44.4177317" lon="11.1048717"><ele>194.5</ele><time>2026-05-01T15:58:19.66Z</time></trkpt><trkpt lat="44.4178633" lon="11.10492"><ele>194.0</ele><time>2026-05-01T15:58:20.659Z</time></trkpt><trkpt lat="44.4180033" lon="11.105"><ele>193.5</ele><time>2026-05-01T15:58:21.658Z</time></trkpt><trkpt lat="44.4181483" lon="11.1050983"><ele>193.0</ele><time>2026-05-01T15:58:22.659Z</time></trkpt><trkpt lat="44.4183083" lon="11.1052133"><ele>193.0</ele><time>2026-05-01T15:58:23.659Z</time></trkpt><trkpt lat="44.4184717" lon="11.10532"><ele>193.0</ele><time>2026-05-01T15:58:24.659Z</time></trkpt><trkpt lat="44.4186267" lon="11.1054133"><ele>193.0</ele><time>2026-05-01T15:58:25.659Z</time></trkpt><trkpt lat="44.41877" lon="11.1055"><ele>193.0</ele><time>2026-05-01T15:58:26.661Z</time></trkpt><trkpt lat="44.4189017" lon="11.1055783"><ele>193.0</ele><time>2026-05-01T15:58:27.66Z</time></trkpt><trkpt lat="44.4190217" lon="11.1056467"><ele>193.0</ele><time>2026-05-01T15:58:28.659Z</time></trkpt><trkpt lat="44.4191367" lon="11.1057217"><ele>193.0</ele><time>2026-05-01T15:58:29.658Z</time></trkpt><trkpt lat="44.41924" lon="11.10579"><ele>192.8</ele><time>2026-05-01T15:58:30.659Z</time></trkpt><trkpt lat="44.4193317" lon="11.10586"><ele>192.60000000000002</ele><time>2026-05-01T15:58:31.659Z</time></trkpt><trkpt lat="44.4194167" lon="11.1059283"><ele>192.39999999999998</ele><time>2026-05-01T15:58:32.661Z</time></trkpt><trkpt lat="44.4194833" lon="11.10601"><ele>192.2</ele><time>2026-05-01T15:58:33.658Z</time></trkpt><trkpt lat="44.4195367" lon="11.1061067"><ele>192.0</ele><time>2026-05-01T15:58:34.66Z</time></trkpt><trkpt lat="44.419565" lon="11.106215"><ele>192.0</ele><time>2026-05-01T15:58:35.659Z</time></trkpt><trkpt lat="44.4195233" lon="11.106355"><ele>192.0</ele><time>2026-05-01T15:58:36.659Z</time></trkpt><trkpt lat="44.4194667" lon="11.1064867"><ele>192.0</ele><time>2026-05-01T15:58:37.659Z</time></trkpt><trkpt lat="44.4194117" lon="11.106615"><ele>192.0</ele><time>2026-05-01T15:58:38.66Z</time></trkpt><trkpt lat="44.41938" lon="11.1067183"><ele>192.0</ele><time>2026-05-01T15:58:39.659Z</time></trkpt><trkpt lat="44.419365" lon="11.10682"><ele>192.0</ele><time>2026-05-01T15:58:40.659Z</time></trkpt><trkpt lat="44.4193783" lon="11.106925"><ele>192.0</ele><time>2026-05-01T15:58:41.659Z</time></trkpt><trkpt lat="44.4194233" lon="11.1070367"><ele>192.0</ele><time>2026-05-01T15:58:42.658Z</time></trkpt><trkpt lat="44.4194917" lon="11.1071567"><ele>192.0</ele><time>2026-05-01T15:58:43.658Z</time></trkpt><trkpt lat="44.41958" lon="11.1072883"><ele>192.0</ele><time>2026-05-01T15:58:44.66Z</time></trkpt><trkpt lat="44.41967" lon="11.107435"><ele>192.0</ele><time>2026-05-01T15:58:45.658Z</time></trkpt><trkpt lat="44.419765" lon="11.1076017"><ele>192.0</ele><time>2026-05-01T15:58:46.659Z</time></trkpt><trkpt lat="44.41987" lon="11.1077767"><ele>192.0</ele><time>2026-05-01T15:58:47.658Z</time></trkpt><trkpt lat="44.4199733" lon="11.1079567"><ele>192.0</ele><time>2026-05-01T15:58:48.66Z</time></trkpt><trkpt lat="44.4200683" lon="11.10813"><ele>192.0</ele><time>2026-05-01T15:58:49.658Z</time></trkpt><trkpt lat="44.4201617" lon="11.1082917"><ele>192.0</ele><time>2026-05-01T15:58:50.66Z</time></trkpt><trkpt lat="44.4202683" lon="11.1084417"><ele>191.66666666666666</ele><time>2026-05-01T15:58:51.657Z</time></trkpt><trkpt lat="44.42038" lon="11.1085883"><ele>191.33333333333331</ele><time>2026-05-01T15:58:52.658Z</time></trkpt><trkpt lat="44.4204883" lon="11.1087267"><ele>191.0</ele><time>2026-05-01T15:58:53.659Z</time></trkpt><trkpt lat="44.420605" lon="11.1088617"><ele>191.0</ele><time>2026-05-01T15:58:54.658Z</time></trkpt><trkpt lat="44.4207183" lon="11.1090033"><ele>191.0</ele><time>2026-05-01T15:58:55.659Z</time></trkpt><trkpt lat="44.4208267" lon="11.10914"><ele>191.0</ele><time>2026-05-01T15:58:56.66Z</time></trkpt><trkpt lat="44.4209283" lon="11.1092733"><ele>191.0</ele><time>2026-05-01T15:58:57.66Z</time></trkpt><trkpt lat="44.421025" lon="11.1094"><ele>191.25</ele><time>2026-05-01T15:58:58.66Z</time></trkpt><trkpt lat="44.421115" lon="11.10953"><ele>191.5</ele><time>2026-05-01T15:58:59.659Z</time></trkpt><trkpt lat="44.421205" lon="11.1096583"><ele>191.75</ele><time>2026-05-01T15:59:00.658Z</time></trkpt><trkpt lat="44.4212983" lon="11.1097883"><ele>192.0</ele><time>2026-05-01T15:59:01.658Z</time></trkpt><trkpt lat="44.4214017" lon="11.1099167"><ele>191.5</ele><time>2026-05-01T15:59:02.66Z</time></trkpt><trkpt lat="44.4215133" lon="11.1100467"><ele>191.0</ele><time>2026-05-01T15:59:03.659Z</time></trkpt><trkpt lat="44.4216317" lon="11.110175"><ele>190.5</ele><time>2026-05-01T15:59:04.658Z</time></trkpt><trkpt lat="44.4217567" lon="11.1103"><ele>190.0</ele><time>2026-05-01T15:59:05.656Z</time></trkpt><trkpt lat="44.4218867" lon="11.1104233"><ele>190.0</ele><time>2026-05-01T15:59:06.659Z</time></trkpt><trkpt lat="44.4220167" lon="11.11055"><ele>190.0</ele><time>2026-05-01T15:59:07.66Z</time></trkpt><trkpt lat="44.4221367" lon="11.11069"><ele>190.0</ele><time>2026-05-01T15:59:08.661Z</time></trkpt><trkpt lat="44.4222517" lon="11.1108533"><ele>189.0</ele><time>2026-05-01T15:59:09.657Z</time></trkpt><trkpt lat="44.4223567" lon="11.1110283"><ele>188.0</ele><time>2026-05-01T15:59:10.658Z</time></trkpt><trkpt lat="44.422445" lon="11.1112017"><ele>187.0</ele><time>2026-05-01T15:59:11.659Z</time></trkpt><trkpt lat="44.4225267" lon="11.1113617"><ele>187.0</ele><time>2026-05-01T15:59:12.659Z</time></trkpt><trkpt lat="44.4226117" lon="11.111505"><ele>187.0</ele><time>2026-05-01T15:59:13.659Z</time></trkpt><trkpt lat="44.4227117" lon="11.111635"><ele>187.0</ele><time>2026-05-01T15:59:14.661Z</time></trkpt><trkpt lat="44.4228267" lon="11.1117467"><ele>187.0</ele><time>2026-05-01T15:59:15.66Z</time></trkpt><trkpt lat="44.42295" lon="11.1118417"><ele>187.25</ele><time>2026-05-01T15:59:16.66Z</time></trkpt><trkpt lat="44.4230717" lon="11.1119217"><ele>187.5</ele><time>2026-05-01T15:59:17.659Z</time></trkpt><trkpt lat="44.4231833" lon="11.1120167"><ele>187.75</ele><time>2026-05-01T15:59:18.662Z</time></trkpt><trkpt lat="44.4232883" lon="11.11213"><ele>188.0</ele><time>2026-05-01T15:59:19.66Z</time></trkpt><trkpt lat="44.423395" lon="11.1122567"><ele>188.0</ele><time>2026-05-01T15:59:20.661Z</time></trkpt><trkpt lat="44.42349" lon="11.112375"><ele>188.0</ele><time>2026-05-01T15:59:21.659Z</time></trkpt><trkpt lat="44.42358" lon="11.1124917"><ele>188.0</ele><time>2026-05-01T15:59:22.66Z</time></trkpt><trkpt lat="44.42368" lon="11.1126067"><ele>188.0</ele><time>2026-05-01T15:59:23.661Z</time></trkpt><trkpt lat="44.4237867" lon="11.1127283"><ele>188.0</ele><time>2026-05-01T15:59:24.659Z</time></trkpt><trkpt lat="44.4239017" lon="11.1128533"><ele>188.0</ele><time>2026-05-01T15:59:25.659Z</time></trkpt><trkpt lat="44.4240233" lon="11.1129883"><ele>188.0</ele><time>2026-05-01T15:59:26.661Z</time></trkpt><trkpt lat="44.42415" lon="11.1131283"><ele>189.66666666666666</ele><time>2026-05-01T15:59:27.657Z</time></trkpt><trkpt lat="44.4242817" lon="11.1132733"><ele>191.33333333333331</ele><time>2026-05-01T15:59:28.659Z</time></trkpt><trkpt lat="44.424405" lon="11.1134267"><ele>193.0</ele><time>2026-05-01T15:59:29.658Z</time></trkpt><trkpt lat="44.4245233" lon="11.11358"><ele>193.0</ele><time>2026-05-01T15:59:30.659Z</time></trkpt><trkpt lat="44.42464" lon="11.1137317"><ele>193.0</ele><time>2026-05-01T15:59:31.658Z</time></trkpt><trkpt lat="44.42475" lon="11.11388"><ele>193.0</ele><time>2026-05-01T15:59:32.656Z</time></trkpt><trkpt lat="44.4248617" lon="11.1140233"><ele>191.75</ele><time>2026-05-01T15:59:33.658Z</time></trkpt><trkpt lat="44.4249733" lon="11.1141583"><ele>190.5</ele><time>2026-05-01T15:59:34.659Z</time></trkpt><trkpt lat="44.42508" lon="11.11428"><ele>189.25</ele><time>2026-05-01T15:59:35.657Z</time></trkpt><trkpt lat="44.4251817" lon="11.114405"><ele>188.0</ele><time>2026-05-01T15:59:36.659Z</time></trkpt><trkpt lat="44.4252867" lon="11.1145317"><ele>188.0</ele><time>2026-05-01T15:59:37.659Z</time></trkpt><trkpt lat="44.42539" lon="11.1146567"><ele>188.0</ele><time>2026-05-01T15:59:38.662Z</time></trkpt><trkpt lat="44.42549" lon="11.11478"><ele>188.0</ele><time>2026-05-01T15:59:39.658Z</time></trkpt><trkpt lat="44.4255917" lon="11.1149017"><ele>188.0</ele><time>2026-05-01T15:59:40.66Z</time></trkpt><trkpt lat="44.425705" lon="11.1150183"><ele>186.33333333333331</ele><time>2026-05-01T15:59:41.66Z</time></trkpt><trkpt lat="44.4258183" lon="11.11515"><ele>184.66666666666666</ele><time>2026-05-01T15:59:42.659Z</time></trkpt><trkpt lat="44.4259433" lon="11.11528"><ele>183.0</ele><time>2026-05-01T15:59:43.658Z</time></trkpt><trkpt lat="44.4260717" lon="11.115415"><ele>183.0</ele><time>2026-05-01T15:59:44.659Z</time></trkpt><trkpt lat="44.4262033" lon="11.11556"><ele>183.0</ele><time>2026-05-01T15:59:45.662Z</time></trkpt><trkpt lat="44.4263417" lon="11.11572"><ele>183.0</ele><time>2026-05-01T15:59:46.66Z</time></trkpt><trkpt lat="44.4264783" lon="11.115875"><ele>183.25</ele><time>2026-05-01T15:59:47.663Z</time></trkpt><trkpt lat="44.4266" lon="11.1160133"><ele>183.5</ele><time>2026-05-01T15:59:48.661Z</time></trkpt><trkpt lat="44.42671" lon="11.1161317"><ele>183.75</ele><time>2026-05-01T15:59:49.66Z</time></trkpt><trkpt lat="44.4268083" lon="11.1162267"><ele>184.0</ele><time>2026-05-01T15:59:50.659Z</time></trkpt><trkpt lat="44.4269083" lon="11.1162967"><ele>184.0</ele><time>2026-05-01T15:59:51.658Z</time></trkpt><trkpt lat="44.4270233" lon="11.1163533"><ele>184.0</ele><time>2026-05-01T15:59:52.658Z</time></trkpt><trkpt lat="44.4271383" lon="11.1164017"><ele>184.0</ele><time>2026-05-01T15:59:53.66Z</time></trkpt><trkpt lat="44.427245" lon="11.1164567"><ele>184.0</ele><time>2026-05-01T15:59:54.659Z</time></trkpt><trkpt lat="44.427335" lon="11.1165183"><ele>185.6</ele><time>2026-05-01T15:59:55.658Z</time></trkpt><trkpt lat="44.4274167" lon="11.1166167"><ele>187.2</ele><time>2026-05-01T15:59:56.659Z</time></trkpt><trkpt lat="44.4274967" lon="11.1167317"><ele>188.79999999999998</ele><time>2026-05-01T15:59:57.66Z</time></trkpt><trkpt lat="44.4275633" lon="11.1168583"><ele>190.39999999999998</ele><time>2026-05-01T15:59:58.659Z</time></trkpt><trkpt lat="44.4276033" lon="11.11699"><ele>192.0</ele><time>2026-05-01T15:59:59.66Z</time></trkpt><trkpt lat="44.4276233" lon="11.1171267"><ele>192.0</ele><time>2026-05-01T16:00:00.657Z</time></trkpt><trkpt lat="44.4276167" lon="11.11726"><ele>192.0</ele><time>2026-05-01T16:00:01.653Z</time></trkpt><trkpt lat="44.42761" lon="11.1173817"><ele>192.0</ele><time>2026-05-01T16:00:02.656Z</time></trkpt><trkpt lat="44.427625" lon="11.1174917"><ele>192.0</ele><time>2026-05-01T16:00:03.655Z</time></trkpt><trkpt lat="44.427665" lon="11.1176033"><ele>192.0</ele><time>2026-05-01T16:00:04.658Z</time></trkpt><trkpt lat="44.42775" lon="11.1177083"><ele>193.25</ele><time>2026-05-01T16:00:05.659Z</time></trkpt><trkpt lat="44.4278417" lon="11.1178283"><ele>194.5</ele><time>2026-05-01T16:00:06.661Z</time></trkpt><trkpt lat="44.4279367" lon="11.1179617"><ele>195.75</ele><time>2026-05-01T16:00:07.661Z</time></trkpt><trkpt lat="44.4280283" lon="11.1181017"><ele>197.0</ele><time>2026-05-01T16:00:08.66Z</time></trkpt><trkpt lat="44.4281083" lon="11.118235"><ele>198.0</ele><time>2026-05-01T16:00:09.659Z</time></trkpt><trkpt lat="44.4281917" lon="11.118355"><ele>199.0</ele><time>2026-05-01T16:00:10.659Z</time></trkpt><trkpt lat="44.42829" lon="11.1184567"><ele>200.0</ele><time>2026-05-01T16:00:11.659Z</time></trkpt><trkpt lat="44.4284033" lon="11.1185483"><ele>201.0</ele><time>2026-05-01T16:00:12.659Z</time></trkpt><trkpt lat="44.4285233" lon="11.1186367"><ele>201.0</ele><time>2026-05-01T16:00:13.658Z</time></trkpt><trkpt lat="44.428635" lon="11.1187217"><ele>201.0</ele><time>2026-05-01T16:00:14.661Z</time></trkpt><trkpt lat="44.428735" lon="11.118805"><ele>201.0</ele><time>2026-05-01T16:00:15.657Z</time></trkpt><trkpt lat="44.4288317" lon="11.1188867"><ele>201.0</ele><time>2026-05-01T16:00:16.659Z</time></trkpt><trkpt lat="44.428925" lon="11.1189633"><ele>200.25</ele><time>2026-05-01T16:00:17.658Z</time></trkpt><trkpt lat="44.42902" lon="11.1190567"><ele>199.5</ele><time>2026-05-01T16:00:18.659Z</time></trkpt><trkpt lat="44.42912" lon="11.119165"><ele>198.75</ele><time>2026-05-01T16:00:19.659Z</time></trkpt><trkpt lat="44.4292317" lon="11.1192733"><ele>198.0</ele><time>2026-05-01T16:00:20.659Z</time></trkpt><trkpt lat="44.4293517" lon="11.119385"><ele>197.75</ele><time>2026-05-01T16:00:21.659Z</time></trkpt><trkpt lat="44.4294817" lon="11.1194983"><ele>197.5</ele><time>2026-05-01T16:00:22.66Z</time></trkpt><trkpt lat="44.429615" lon="11.1196"><ele>197.25</ele><time>2026-05-01T16:00:23.661Z</time></trkpt><trkpt lat="44.4297433" lon="11.11969"><ele>197.0</ele><time>2026-05-01T16:00:24.658Z</time></trkpt><trkpt lat="44.4298733" lon="11.1197733"><ele>197.0</ele><time>2026-05-01T16:00:25.658Z</time></trkpt><trkpt lat="44.4300017" lon="11.1198567"><ele>197.0</ele><time>2026-05-01T16:00:26.659Z</time></trkpt><trkpt lat="44.4301283" lon="11.11994"><ele>197.0</ele><time>2026-05-01T16:00:27.659Z</time></trkpt><trkpt lat="44.43025" lon="11.1200183"><ele>197.0</ele><time>2026-05-01T16:00:28.66Z</time></trkpt><trkpt lat="44.4303767" lon="11.1201"><ele>196.75</ele><time>2026-05-01T16:00:29.659Z</time></trkpt><trkpt lat="44.4305017" lon="11.1201867"><ele>196.5</ele><time>2026-05-01T16:00:30.659Z</time></trkpt><trkpt lat="44.43063" lon="11.1202717"><ele>196.25</ele><time>2026-05-01T16:00:31.659Z</time></trkpt><trkpt lat="44.4307483" lon="11.1203517"><ele>196.0</ele><time>2026-05-01T16:00:32.659Z</time></trkpt><trkpt lat="44.430865" lon="11.1204233"><ele>196.0</ele><time>2026-05-01T16:00:33.659Z</time></trkpt><trkpt lat="44.4309717" lon="11.120495"><ele>196.0</ele><time>2026-05-01T16:00:34.658Z</time></trkpt><trkpt lat="44.4310767" lon="11.1205633"><ele>196.0</ele><time>2026-05-01T16:00:35.66Z</time></trkpt><trkpt lat="44.4311733" lon="11.12063"><ele>196.0</ele><time>2026-05-01T16:00:36.66Z</time></trkpt><trkpt lat="44.43127" lon="11.1206883"><ele>196.0</ele><time>2026-05-01T16:00:37.661Z</time></trkpt><trkpt lat="44.4313733" lon="11.1207333"><ele>195.75</ele><time>2026-05-01T16:00:38.659Z</time></trkpt><trkpt lat="44.4314917" lon="11.1207533"><ele>195.5</ele><time>2026-05-01T16:00:39.66Z</time></trkpt><trkpt lat="44.4316217" lon="11.1207433"><ele>195.25</ele><time>2026-05-01T16:00:40.66Z</time></trkpt><trkpt lat="44.4317617" lon="11.1207233"><ele>195.0</ele><time>2026-05-01T16:00:41.66Z</time></trkpt><trkpt lat="44.431905" lon="11.1206983"><ele>194.66666666666669</ele><time>2026-05-01T16:00:42.658Z</time></trkpt><trkpt lat="44.4320567" lon="11.1206733"><ele>194.33333333333334</ele><time>2026-05-01T16:00:43.658Z</time></trkpt><trkpt lat="44.4322083" lon="11.1206517"><ele>194.0</ele><time>2026-05-01T16:00:44.661Z</time></trkpt><trkpt lat="44.4323567" lon="11.1206317"><ele>193.0</ele><time>2026-05-01T16:00:45.659Z</time></trkpt><trkpt lat="44.432495" lon="11.1206133"><ele>192.0</ele><time>2026-05-01T16:00:46.659Z</time></trkpt><trkpt lat="44.4326183" lon="11.1205967"><ele>191.0</ele><time>2026-05-01T16:00:47.659Z</time></trkpt><trkpt lat="44.4327267" lon="11.1205867"><ele>190.0</ele><time>2026-05-01T16:00:48.662Z</time></trkpt><trkpt lat="44.4328283" lon="11.1205717"><ele>190.0</ele><time>2026-05-01T16:00:49.66Z</time></trkpt><trkpt lat="44.4329333" lon="11.1205583"><ele>190.0</ele><time>2026-05-01T16:00:50.662Z</time></trkpt><trkpt lat="44.433045" lon="11.1205383"><ele>190.0</ele><time>2026-05-01T16:00:51.663Z</time></trkpt><trkpt lat="44.433165" lon="11.12052"><ele>190.0</ele><time>2026-05-01T16:00:52.662Z</time></trkpt><trkpt lat="44.4332967" lon="11.1204967"><ele>189.5</ele><time>2026-05-01T16:00:53.66Z</time></trkpt><trkpt lat="44.4334367" lon="11.120475"><ele>189.0</ele><time>2026-05-01T16:00:54.663Z</time></trkpt><trkpt lat="44.4335833" lon="11.1204533"><ele>188.5</ele><time>2026-05-01T16:00:55.659Z</time></trkpt><trkpt lat="44.4337417" lon="11.1204317"><ele>188.0</ele><time>2026-05-01T16:00:56.662Z</time></trkpt><trkpt lat="44.4339083" lon="11.12041"><ele>187.33333333333331</ele><time>2026-05-01T16:00:57.66Z</time></trkpt><trkpt lat="44.4340783" lon="11.1203883"><ele>186.66666666666666</ele><time>2026-05-01T16:00:58.661Z</time></trkpt><trkpt lat="44.4342533" lon="11.120365"><ele>186.0</ele><time>2026-05-01T16:00:59.66Z</time></trkpt><trkpt lat="44.4344367" lon="11.1203383"><ele>186.0</ele><time>2026-05-01T16:01:00.661Z</time></trkpt><trkpt lat="44.4346317" lon="11.1203117"><ele>186.0</ele><time>2026-05-01T16:01:01.662Z</time></trkpt><trkpt lat="44.4348283" lon="11.120285"><ele>186.0</ele><time>2026-05-01T16:01:02.664Z</time></trkpt><trkpt lat="44.4350183" lon="11.1202617"><ele>185.33333333333334</ele><time>2026-05-01T16:01:03.66Z</time></trkpt><trkpt lat="44.4352067" lon="11.120235"><ele>184.66666666666669</ele><time>2026-05-01T16:01:04.657Z</time></trkpt><trkpt lat="44.4353933" lon="11.12021"><ele>184.0</ele><time>2026-05-01T16:01:05.657Z</time></trkpt><trkpt lat="44.4355717" lon="11.1201833"><ele>183.33333333333334</ele><time>2026-05-01T16:01:06.658Z</time></trkpt><trkpt lat="44.4357517" lon="11.1201583"><ele>182.66666666666666</ele><time>2026-05-01T16:01:07.661Z</time></trkpt><trkpt lat="44.4359267" lon="11.1201333"><ele>182.0</ele><time>2026-05-01T16:01:08.661Z</time></trkpt><trkpt lat="44.43609" lon="11.1201083"><ele>182.0</ele><time>2026-05-01T16:01:09.657Z</time></trkpt><trkpt lat="44.4362433" lon="11.1200867"><ele>182.0</ele><time>2026-05-01T16:01:10.656Z</time></trkpt><trkpt lat="44.4363933" lon="11.1200667"><ele>182.0</ele><time>2026-05-01T16:01:11.653Z</time></trkpt><trkpt lat="44.436535" lon="11.1200517"><ele>182.0</ele><time>2026-05-01T16:01:12.654Z</time></trkpt><trkpt lat="44.43667" lon="11.1200367"><ele>182.25</ele><time>2026-05-01T16:01:13.659Z</time></trkpt><trkpt lat="44.4368033" lon="11.1200217"><ele>182.5</ele><time>2026-05-01T16:01:14.657Z</time></trkpt><trkpt lat="44.4369367" lon="11.12001"><ele>182.75</ele><time>2026-05-01T16:01:15.655Z</time></trkpt><trkpt lat="44.43707" lon="11.12"><ele>183.0</ele><time>2026-05-01T16:01:16.659Z</time></trkpt><trkpt lat="44.4372" lon="11.1199933"><ele>183.0</ele><time>2026-05-01T16:01:17.659Z</time></trkpt><trkpt lat="44.4373217" lon="11.1199833"><ele>183.0</ele><time>2026-05-01T16:01:18.66Z</time></trkpt><trkpt lat="44.437435" lon="11.1199767"><ele>183.0</ele><time>2026-05-01T16:01:19.661Z</time></trkpt><trkpt lat="44.4375333" lon="11.1199717"><ele>183.0</ele><time>2026-05-01T16:01:20.662Z</time></trkpt><trkpt lat="44.4376183" lon="11.1199617"><ele>183.0</ele><time>2026-05-01T16:01:21.662Z</time></trkpt><trkpt lat="44.4376983" lon="11.1199367"><ele>182.2</ele><time>2026-05-01T16:01:22.661Z</time></trkpt><trkpt lat="44.4377683" lon="11.11988"><ele>181.4</ele><time>2026-05-01T16:01:23.662Z</time></trkpt><trkpt lat="44.43782" lon="11.1197833"><ele>180.6</ele><time>2026-05-01T16:01:24.662Z</time></trkpt><trkpt lat="44.4378533" lon="11.1196483"><ele>179.79999999999998</ele><time>2026-05-01T16:01:25.659Z</time></trkpt><trkpt lat="44.4378767" lon="11.11948"><ele>179.0</ele><time>2026-05-01T16:01:26.662Z</time></trkpt><trkpt lat="44.4379017" lon="11.119285"><ele>179.0</ele><time>2026-05-01T16:01:27.66Z</time></trkpt><trkpt lat="44.437925" lon="11.11909"><ele>179.0</ele><time>2026-05-01T16:01:28.659Z</time></trkpt><trkpt lat="44.437945" lon="11.118905"><ele>179.0</ele><time>2026-05-01T16:01:29.66Z</time></trkpt><trkpt lat="44.43796" lon="11.1187283"><ele>179.0</ele><time>2026-05-01T16:01:30.656Z</time></trkpt><trkpt lat="44.43798" lon="11.1185583"><ele>178.0</ele><time>2026-05-01T16:01:31.661Z</time></trkpt><trkpt lat="44.4380067" lon="11.1183867"><ele>177.0</ele><time>2026-05-01T16:01:32.661Z</time></trkpt><trkpt lat="44.43803" lon="11.11822"><ele>176.0</ele><time>2026-05-01T16:01:33.663Z</time></trkpt><trkpt lat="44.438055" lon="11.11806"><ele>175.0</ele><time>2026-05-01T16:01:34.66Z</time></trkpt><trkpt lat="44.4380817" lon="11.1179133"><ele>174.6</ele><time>2026-05-01T16:01:35.656Z</time></trkpt><trkpt lat="44.4381117" lon="11.1177733"><ele>174.2</ele><time>2026-05-01T16:01:36.656Z</time></trkpt><trkpt lat="44.4381483" lon="11.1176317"><ele>173.8</ele><time>2026-05-01T16:01:37.658Z</time></trkpt><trkpt lat="44.438185" lon="11.1175033"><ele>173.4</ele><time>2026-05-01T16:01:38.66Z</time></trkpt><trkpt lat="44.438215" lon="11.117385"><ele>173.0</ele><time>2026-05-01T16:01:39.66Z</time></trkpt><trkpt lat="44.4382433" lon="11.1172767"><ele>171.60000000000002</ele><time>2026-05-01T16:01:40.658Z</time></trkpt><trkpt lat="44.43827" lon="11.1171883"><ele>170.20000000000002</ele><time>2026-05-01T16:01:41.658Z</time></trkpt><trkpt lat="44.438345" lon="11.1170833"><ele>168.8</ele><time>2026-05-01T16:01:43.659Z</time></trkpt><trkpt lat="44.4384633" lon="11.1170783"><ele>167.4</ele><time>2026-05-01T16:01:45.659Z</time></trkpt><trkpt lat="44.4385467" lon="11.1171083"><ele>166.0</ele><time>2026-05-01T16:01:46.659Z</time></trkpt><trkpt lat="44.4386517" lon="11.1171517"><ele>166.0</ele><time>2026-05-01T16:01:47.657Z</time></trkpt><trkpt lat="44.4387783" lon="11.1171983"><ele>166.0</ele><time>2026-05-01T16:01:48.66Z</time></trkpt><trkpt lat="44.43891" lon="11.1172417"><ele>166.0</ele><time>2026-05-01T16:01:49.659Z</time></trkpt><trkpt lat="44.4390417" lon="11.1172883"><ele>166.0</ele><time>2026-05-01T16:01:50.659Z</time></trkpt><trkpt lat="44.43918" lon="11.1173267"><ele>166.0</ele><time>2026-05-01T16:01:51.662Z</time></trkpt><trkpt lat="44.4393117" lon="11.117365"><ele>166.0</ele><time>2026-05-01T16:01:52.659Z</time></trkpt><trkpt lat="44.439445" lon="11.11741"><ele>166.0</ele><time>2026-05-01T16:01:53.659Z</time></trkpt><trkpt lat="44.4395783" lon="11.117455"><ele>166.0</ele><time>2026-05-01T16:01:54.66Z</time></trkpt><trkpt lat="44.4397117" lon="11.1175083"><ele>166.0</ele><time>2026-05-01T16:01:55.66Z</time></trkpt><trkpt lat="44.439845" lon="11.117565"><ele>166.0</ele><time>2026-05-01T16:01:56.662Z</time></trkpt><trkpt lat="44.4399817" lon="11.1176267"><ele>166.0</ele><time>2026-05-01T16:01:57.66Z</time></trkpt><trkpt lat="44.4401217" lon="11.117695"><ele>166.0</ele><time>2026-05-01T16:01:58.659Z</time></trkpt><trkpt lat="44.4402617" lon="11.1177667"><ele>166.0</ele><time>2026-05-01T16:01:59.66Z</time></trkpt><trkpt lat="44.440405" lon="11.1178283"><ele>166.0</ele><time>2026-05-01T16:02:00.662Z</time></trkpt><trkpt lat="44.4405483" lon="11.1178767"><ele>166.0</ele><time>2026-05-01T16:02:01.66Z</time></trkpt><trkpt lat="44.4406983" lon="11.117905"><ele>166.0</ele><time>2026-05-01T16:02:02.661Z</time></trkpt><trkpt lat="44.4408533" lon="11.11792"><ele>164.33333333333334</ele><time>2026-05-01T16:02:03.661Z</time></trkpt><trkpt lat="44.44101" lon="11.1179317"><ele>162.66666666666666</ele><time>2026-05-01T16:02:04.659Z</time></trkpt><trkpt lat="44.4411667" lon="11.1179417"><ele>161.0</ele><time>2026-05-01T16:02:05.663Z</time></trkpt><trkpt lat="44.44132" lon="11.1179533"><ele>161.0</ele><time>2026-05-01T16:02:06.661Z</time></trkpt><trkpt lat="44.4414717" lon="11.1179633"><ele>161.0</ele><time>2026-05-01T16:02:07.659Z</time></trkpt><trkpt lat="44.441625" lon="11.1179717"><ele>161.0</ele><time>2026-05-01T16:02:08.662Z</time></trkpt><trkpt lat="44.4417817" lon="11.1179783"><ele>161.0</ele><time>2026-05-01T16:02:09.66Z</time></trkpt><trkpt lat="44.4419383" lon="11.1179833"><ele>161.0</ele><time>2026-05-01T16:02:10.661Z</time></trkpt><trkpt lat="44.4421017" lon="11.1179917"><ele>161.0</ele><time>2026-05-01T16:02:11.66Z</time></trkpt><trkpt lat="44.4422667" lon="11.1179983"><ele>160.33333333333331</ele><time>2026-05-01T16:02:12.66Z</time></trkpt><trkpt lat="44.442435" lon="11.1180083"><ele>159.66666666666666</ele><time>2026-05-01T16:02:13.66Z</time></trkpt><trkpt lat="44.44261" lon="11.1180167"><ele>159.0</ele><time>2026-05-01T16:02:14.661Z</time></trkpt><trkpt lat="44.44279" lon="11.1180233"><ele>159.0</ele><time>2026-05-01T16:02:15.66Z</time></trkpt><trkpt lat="44.4429667" lon="11.1180333"><ele>159.0</ele><time>2026-05-01T16:02:16.659Z</time></trkpt><trkpt lat="44.44314" lon="11.1180417"><ele>159.0</ele><time>2026-05-01T16:02:17.659Z</time></trkpt><trkpt lat="44.4433133" lon="11.11805"><ele>159.0</ele><time>2026-05-01T16:02:18.658Z</time></trkpt><trkpt lat="44.4434833" lon="11.11806"><ele>159.0</ele><time>2026-05-01T16:02:19.658Z</time></trkpt><trkpt lat="44.4436467" lon="11.11807"><ele>159.0</ele><time>2026-05-01T16:02:20.659Z</time></trkpt><trkpt lat="44.443805" lon="11.11808"><ele>158.33333333333334</ele><time>2026-05-01T16:02:21.659Z</time></trkpt><trkpt lat="44.4439617" lon="11.1180883"><ele>157.66666666666669</ele><time>2026-05-01T16:02:22.66Z</time></trkpt><trkpt lat="44.4441133" lon="11.1181017"><ele>157.0</ele><time>2026-05-01T16:02:23.659Z</time></trkpt><trkpt lat="44.4442583" lon="11.11812"><ele>157.0</ele><time>2026-05-01T16:02:24.661Z</time></trkpt><trkpt lat="44.4444" lon="11.118155"><ele>157.0</ele><time>2026-05-01T16:02:25.658Z</time></trkpt><trkpt lat="44.44454" lon="11.1182117"><ele>157.0</ele><time>2026-05-01T16:02:26.661Z</time></trkpt><trkpt lat="44.4446817" lon="11.1182967"><ele>157.0</ele><time>2026-05-01T16:02:27.659Z</time></trkpt><trkpt lat="44.4448183" lon="11.1183917"><ele>158.33333333333334</ele><time>2026-05-01T16:02:28.659Z</time></trkpt><trkpt lat="44.4449533" lon="11.1184917"><ele>159.66666666666666</ele><time>2026-05-01T16:02:29.66Z</time></trkpt><trkpt lat="44.4450883" lon="11.11859"><ele>161.0</ele><time>2026-05-01T16:02:30.661Z</time></trkpt><trkpt lat="44.445225" lon="11.1186833"><ele>161.0</ele><time>2026-05-01T16:02:31.658Z</time></trkpt><trkpt lat="44.4453617" lon="11.1187767"><ele>161.0</ele><time>2026-05-01T16:02:32.659Z</time></trkpt><trkpt lat="44.4455" lon="11.1188617"><ele>161.0</ele><time>2026-05-01T16:02:33.659Z</time></trkpt><trkpt lat="44.4456333" lon="11.1189417"><ele>161.0</ele><time>2026-05-01T16:02:34.661Z</time></trkpt><trkpt lat="44.4457633" lon="11.119035"><ele>163.33333333333331</ele><time>2026-05-01T16:02:35.658Z</time></trkpt><trkpt lat="44.4458983" lon="11.119155"><ele>165.66666666666666</ele><time>2026-05-01T16:02:36.659Z</time></trkpt><trkpt lat="44.446035" lon="11.1192867"><ele>168.0</ele><time>2026-05-01T16:02:37.659Z</time></trkpt><trkpt lat="44.44617" lon="11.1194183"><ele>164.33333333333334</ele><time>2026-05-01T16:02:38.661Z</time></trkpt><trkpt lat="44.446295" lon="11.1195467"><ele>160.66666666666669</ele><time>2026-05-01T16:02:39.658Z</time></trkpt><trkpt lat="44.44642" lon="11.1196783"><ele>157.0</ele><time>2026-05-01T16:02:40.66Z</time></trkpt><trkpt lat="44.4465367" lon="11.11981"><ele>159.25</ele><time>2026-05-01T16:02:41.658Z</time></trkpt><trkpt lat="44.44665" lon="11.119935"><ele>161.5</ele><time>2026-05-01T16:02:42.66Z</time></trkpt><trkpt lat="44.4467667" lon="11.1200433"><ele>163.75</ele><time>2026-05-01T16:02:43.658Z</time></trkpt><trkpt lat="44.4468867" lon="11.120125"><ele>166.0</ele><time>2026-05-01T16:02:44.66Z</time></trkpt><trkpt lat="44.4470167" lon="11.1201783"><ele>164.0</ele><time>2026-05-01T16:02:45.659Z</time></trkpt><trkpt lat="44.4471567" lon="11.1202017"><ele>162.0</ele><time>2026-05-01T16:02:46.66Z</time></trkpt><trkpt lat="44.447305" lon="11.120205"><ele>160.0</ele><time>2026-05-01T16:02:47.658Z</time></trkpt><trkpt lat="44.447455" lon="11.1201933"><ele>158.0</ele><time>2026-05-01T16:02:48.659Z</time></trkpt><trkpt lat="44.447605" lon="11.120175"><ele>158.0</ele><time>2026-05-01T16:02:49.66Z</time></trkpt><trkpt lat="44.4477533" lon="11.1201617"><ele>158.0</ele><time>2026-05-01T16:02:50.66Z</time></trkpt><trkpt lat="44.4479017" lon="11.1201517"><ele>158.0</ele><time>2026-05-01T16:02:51.66Z</time></trkpt><trkpt lat="44.448045" lon="11.120125"><ele>158.0</ele><time>2026-05-01T16:02:52.658Z</time></trkpt><trkpt lat="44.4481883" lon="11.120085"><ele>157.5</ele><time>2026-05-01T16:02:53.658Z</time></trkpt><trkpt lat="44.448335" lon="11.1200283"><ele>157.0</ele><time>2026-05-01T16:02:54.662Z</time></trkpt><trkpt lat="44.4484783" lon="11.11996"><ele>156.5</ele><time>2026-05-01T16:02:55.66Z</time></trkpt><trkpt lat="44.4486133" lon="11.1198917"><ele>156.0</ele><time>2026-05-01T16:02:56.659Z</time></trkpt><trkpt lat="44.4487517" lon="11.1198267"><ele>154.33333333333334</ele><time>2026-05-01T16:02:57.66Z</time></trkpt><trkpt lat="44.4488983" lon="11.119765"><ele>152.66666666666669</ele><time>2026-05-01T16:02:58.659Z</time></trkpt><trkpt lat="44.4490567" lon="11.11971"><ele>151.0</ele><time>2026-05-01T16:02:59.66Z</time></trkpt><trkpt lat="44.4492233" lon="11.1196633"><ele>151.0</ele><time>2026-05-01T16:03:00.661Z</time></trkpt><trkpt lat="44.4493967" lon="11.11963"><ele>151.0</ele><time>2026-05-01T16:03:01.659Z</time></trkpt><trkpt lat="44.4495767" lon="11.1196167"><ele>151.0</ele><time>2026-05-01T16:03:02.663Z</time></trkpt><trkpt lat="44.44976" lon="11.1196117"><ele>150.33333333333334</ele><time>2026-05-01T16:03:03.66Z</time></trkpt><trkpt lat="44.449945" lon="11.1196083"><ele>149.66666666666666</ele><time>2026-05-01T16:03:04.654Z</time></trkpt><trkpt lat="44.4501317" lon="11.1196067"><ele>149.0</ele><time>2026-05-01T16:03:05.658Z</time></trkpt><trkpt lat="44.4503133" lon="11.1196067"><ele>149.33333333333331</ele><time>2026-05-01T16:03:06.658Z</time></trkpt><trkpt lat="44.45049" lon="11.1196067"><ele>149.66666666666666</ele><time>2026-05-01T16:03:07.659Z</time></trkpt><trkpt lat="44.4506617" lon="11.119605"><ele>150.0</ele><time>2026-05-01T16:03:08.659Z</time></trkpt><trkpt lat="44.45083" lon="11.1196033"><ele>150.0</ele><time>2026-05-01T16:03:09.66Z</time></trkpt><trkpt lat="44.4509983" lon="11.1196017"><ele>150.0</ele><time>2026-05-01T16:03:10.66Z</time></trkpt><trkpt lat="44.4511667" lon="11.1196017"><ele>150.0</ele><time>2026-05-01T16:03:11.659Z</time></trkpt><trkpt lat="44.4513367" lon="11.1196017"><ele>149.66666666666666</ele><time>2026-05-01T16:03:12.66Z</time></trkpt><trkpt lat="44.4515083" lon="11.1196033"><ele>149.33333333333331</ele><time>2026-05-01T16:03:13.66Z</time></trkpt><trkpt lat="44.4516733" lon="11.119605"><ele>149.0</ele><time>2026-05-01T16:03:14.661Z</time></trkpt><trkpt lat="44.4518283" lon="11.1196"><ele>149.0</ele><time>2026-05-01T16:03:15.66Z</time></trkpt><trkpt lat="44.4519767" lon="11.1195917"><ele>149.0</ele><time>2026-05-01T16:03:16.66Z</time></trkpt><trkpt lat="44.4521217" lon="11.1195867"><ele>149.0</ele><time>2026-05-01T16:03:17.659Z</time></trkpt><trkpt lat="44.4522683" lon="11.1195833"><ele>149.0</ele><time>2026-05-01T16:03:18.66Z</time></trkpt><trkpt lat="44.4524183" lon="11.11958"><ele>148.66666666666666</ele><time>2026-05-01T16:03:19.661Z</time></trkpt><trkpt lat="44.4525717" lon="11.1195767"><ele>148.33333333333334</ele><time>2026-05-01T16:03:20.661Z</time></trkpt><trkpt lat="44.4527283" lon="11.11957"><ele>148.0</ele><time>2026-05-01T16:03:21.66Z</time></trkpt><trkpt lat="44.4528883" lon="11.1195633"><ele>147.33333333333334</ele><time>2026-05-01T16:03:22.658Z</time></trkpt><trkpt lat="44.4530617" lon="11.1195583"><ele>146.66666666666666</ele><time>2026-05-01T16:03:23.659Z</time></trkpt><trkpt lat="44.45324" lon="11.1195567"><ele>146.0</ele><time>2026-05-01T16:03:24.659Z</time></trkpt><trkpt lat="44.4534167" lon="11.119555"><ele>146.0</ele><time>2026-05-01T16:03:25.661Z</time></trkpt><trkpt lat="44.4535933" lon="11.11955"><ele>146.0</ele><time>2026-05-01T16:03:26.66Z</time></trkpt><trkpt lat="44.4537783" lon="11.119545"><ele>146.0</ele><time>2026-05-01T16:03:27.66Z</time></trkpt><trkpt lat="44.4539667" lon="11.1195433"><ele>145.66666666666666</ele><time>2026-05-01T16:03:28.66Z</time></trkpt><trkpt lat="44.4541483" lon="11.1195417"><ele>145.33333333333334</ele><time>2026-05-01T16:03:29.659Z</time></trkpt><trkpt lat="44.454325" lon="11.1195383"><ele>145.0</ele><time>2026-05-01T16:03:30.661Z</time></trkpt><trkpt lat="44.4544917" lon="11.1195367"><ele>145.25</ele><time>2026-05-01T16:03:31.658Z</time></trkpt><trkpt lat="44.454645" lon="11.119535"><ele>145.5</ele><time>2026-05-01T16:03:32.659Z</time></trkpt><trkpt lat="44.454785" lon="11.119535"><ele>145.75</ele><time>2026-05-01T16:03:33.66Z</time></trkpt><trkpt lat="44.454915" lon="11.1195333"><ele>146.0</ele><time>2026-05-01T16:03:34.659Z</time></trkpt><trkpt lat="44.4550317" lon="11.1195333"><ele>146.0</ele><time>2026-05-01T16:03:35.66Z</time></trkpt><trkpt lat="44.4551317" lon="11.1195317"><ele>146.0</ele><time>2026-05-01T16:03:36.663Z</time></trkpt><trkpt lat="44.4552183" lon="11.1195333"><ele>146.0</ele><time>2026-05-01T16:03:37.663Z</time></trkpt><trkpt lat="44.4552883" lon="11.1195467"><ele>146.0</ele><time>2026-05-01T16:03:38.66Z</time></trkpt><trkpt lat="44.4553683" lon="11.1196267"><ele>146.0</ele><time>2026-05-01T16:03:40.661Z</time></trkpt><trkpt lat="44.4554133" lon="11.1197133"><ele>146.0</ele><time>2026-05-01T16:03:42.661Z</time></trkpt></trkseg></trk></gpx>